<?xml version='1.0' encoding='UTF-8'?><gpx version="1.1" creator="JPX - https://github.com/jenetics/jpx" xmlns="http://www.topografix.com/GPX/1/1"><trk><trkseg><trkpt lat="43.12493894928983" lon="2.087504703199969"><ele>253.85714285714286</ele><time>2026-04-05T08:01:38Z</time></trkpt><trkpt lat="43.12487935219075" lon="2.0875922143070254"><ele>252.71428571428572</ele><time>2026-04-05T08:02:15Z</time></trkpt><trkpt lat="43.12482029628412" lon="2.087624076251442"><ele>251.57142857142858</ele><time>2026-04-05T08:06:45.001Z</time></trkpt><trkpt lat="43.12487209981844" lon="2.0877152783271065"><ele>250.42857142857144</ele><time>2026-04-05T08:07:59.002Z</time></trkpt><trkpt lat="43.124893426280906" lon="2.087813326983479"><ele>249.28571428571428</ele><time>2026-04-05T08:08:02.002Z</time></trkpt><trkpt lat="43.12486291453461" lon="2.0878955018729815"><ele>248.14285714285717</ele><time>2026-04-05T08:08:05.002Z</time></trkpt><trkpt lat="43.124798316313914" lon="2.0878846705402876"><ele>247.0</ele><time>2026-04-05T08:08:08.002Z</time></trkpt><trkpt lat="43.12470741889555" lon="2.087829365250666"><ele>247.0</ele><time>2026-04-05T08:08:11.002Z</time></trkpt><trkpt lat="43.124716036281335" lon="2.0877055880867226"><ele>247.0</ele><time>2026-04-05T08:08:13.002Z</time></trkpt><trkpt lat="43.12470450197461" lon="2.0875602447040196"><ele>247.0</ele><time>2026-04-05T08:08:15.002Z</time></trkpt><trkpt lat="43.124683834774366" lon="2.087404728971275"><ele>247.0</ele><time>2026-04-05T08:08:17.002Z</time></trkpt><trkpt lat="43.12465569954984" lon="2.0872382808358543"><ele>247.0</ele><time>2026-04-05T08:08:19.002Z</time></trkpt><trkpt lat="43.12464449333181" lon="2.0870797857357273"><ele>247.33333333333331</ele><time>2026-04-05T08:08:21.002Z</time></trkpt><trkpt lat="43.12462565405118" lon="2.0869703876334795"><ele>247.66666666666666</ele><time>2026-04-05T08:08:22.002Z</time></trkpt><trkpt lat="43.12461326182173" lon="2.086876117852675"><ele>248.0</ele><time>2026-04-05T08:08:23.002Z</time></trkpt><trkpt lat="43.124593176778156" lon="2.0867607005094055"><ele>248.33333333333331</ele><time>2026-04-05T08:08:24.002Z</time></trkpt><trkpt lat="43.12458017125887" lon="2.0866612923153447"><ele>248.66666666666666</ele><time>2026-04-05T08:08:25.002Z</time></trkpt><trkpt lat="43.12457649354466" lon="2.0865442954774"><ele>249.0</ele><time>2026-04-05T08:08:26.002Z</time></trkpt><trkpt lat="43.124554686504" lon="2.0864337208921016"><ele>249.16666666666666</ele><time>2026-04-05T08:08:27.002Z</time></trkpt><trkpt lat="43.12453558082171" lon="2.086326746711288"><ele>249.33333333333331</ele><time>2026-04-05T08:08:28.002Z</time></trkpt><trkpt lat="43.12452082609323" lon="2.0862397929821226"><ele>249.5</ele><time>2026-04-05T08:08:29.002Z</time></trkpt><trkpt lat="43.124483430409995" lon="2.086083464851882"><ele>249.66666666666666</ele><time>2026-04-05T08:08:31.002Z</time></trkpt><trkpt lat="43.12445308286659" lon="2.0859652158571262"><ele>249.83333333333331</ele><time>2026-04-05T08:08:33.002Z</time></trkpt><trkpt lat="43.124427980486765" lon="2.0858461051748027"><ele>250.0</ele><time>2026-04-05T08:08:35.002Z</time></trkpt><trkpt lat="43.12440577762973" lon="2.085710017820099"><ele>250.49999999999997</ele><time>2026-04-05T08:08:37.002Z</time></trkpt><trkpt lat="43.124389346849746" lon="2.0855748687658284"><ele>251.0</ele><time>2026-04-05T08:08:39.002Z</time></trkpt><trkpt lat="43.12437524473705" lon="2.0854706636360545"><ele>251.5</ele><time>2026-04-05T08:08:41.002Z</time></trkpt><trkpt lat="43.1243701835324" lon="2.0853791615555606"><ele>252.0</ele><time>2026-04-05T08:08:43.002Z</time></trkpt><trkpt lat="43.124338519667916" lon="2.085256718759162"><ele>252.49999999999997</ele><time>2026-04-05T08:08:45.002Z</time></trkpt><trkpt lat="43.12432310540277" lon="2.085150375646178"><ele>253.0</ele><time>2026-04-05T08:08:47.003Z</time></trkpt><trkpt lat="43.12429614421769" lon="2.08502324680796"><ele>252.99999999999997</ele><time>2026-04-05T08:08:49.003Z</time></trkpt><trkpt lat="43.12427469885416" lon="2.0849371112530206"><ele>253.0</ele><time>2026-04-05T08:08:50.003Z</time></trkpt><trkpt lat="43.12425858348517" lon="2.0848307672409883"><ele>253.0</ele><time>2026-04-05T08:08:51.003Z</time></trkpt><trkpt lat="43.12424937149469" lon="2.0847201145272583"><ele>253.0</ele><time>2026-04-05T08:08:52.003Z</time></trkpt><trkpt lat="43.12423177828762" lon="2.0846067650830995"><ele>252.99999999999997</ele><time>2026-04-05T08:08:53.003Z</time></trkpt><trkpt lat="43.12420995714647" lon="2.084490621315789"><ele>253.0</ele><time>2026-04-05T08:08:54.003Z</time></trkpt><trkpt lat="43.124191897404465" lon="2.084389045439178"><ele>253.4</ele><time>2026-04-05T08:08:55.003Z</time></trkpt><trkpt lat="43.12417050944334" lon="2.0842277376081904"><ele>253.8</ele><time>2026-04-05T08:08:57.003Z</time></trkpt><trkpt lat="43.12414829920525" lon="2.0840754938945234"><ele>254.2</ele><time>2026-04-05T08:08:59.003Z</time></trkpt><trkpt lat="43.12413809090328" lon="2.083976779475437"><ele>254.6</ele><time>2026-04-05T08:09:01.003Z</time></trkpt><trkpt lat="43.12410754455213" lon="2.0838519639809054"><ele>255.0</ele><time>2026-04-05T08:09:03.003Z</time></trkpt><trkpt lat="43.12407860467355" lon="2.0836957856979246"><ele>254.0</ele><time>2026-04-05T08:09:05.003Z</time></trkpt><trkpt lat="43.124041022960604" lon="2.0835340887770073"><ele>253.0</ele><time>2026-04-05T08:09:07.003Z</time></trkpt><trkpt lat="43.12403158036439" lon="2.0834433268489483"><ele>252.0</ele><time>2026-04-05T08:09:08.003Z</time></trkpt><trkpt lat="43.12402803608059" lon="2.083343677696812"><ele>251.0</ele><time>2026-04-05T08:09:09.003Z</time></trkpt><trkpt lat="43.124019621900054" lon="2.08323398564133"><ele>250.0</ele><time>2026-04-05T08:09:10.003Z</time></trkpt><trkpt lat="43.12400842966339" lon="2.083117146092686"><ele>249.0</ele><time>2026-04-05T08:09:11.003Z</time></trkpt><trkpt lat="43.123991544503625" lon="2.0829628657156958"><ele>249.0</ele><time>2026-04-05T08:09:12.003Z</time></trkpt><trkpt lat="43.12395725342474" lon="2.082801990795463"><ele>249.0</ele><time>2026-04-05T08:09:13.003Z</time></trkpt><trkpt lat="43.12393780494251" lon="2.0826274732798873"><ele>249.0</ele><time>2026-04-05T08:09:14.003Z</time></trkpt><trkpt lat="43.12391237705933" lon="2.082431493353474"><ele>249.0</ele><time>2026-04-05T08:09:15.003Z</time></trkpt><trkpt lat="43.12387743785395" lon="2.082247467680978"><ele>249.0</ele><time>2026-04-05T08:09:16.003Z</time></trkpt><trkpt lat="43.123850918860846" lon="2.0821058041008955"><ele>248.99999999999997</ele><time>2026-04-05T08:09:17.003Z</time></trkpt><trkpt lat="43.12381120696557" lon="2.0819847662851854"><ele>248.99999999999997</ele><time>2026-04-05T08:09:18.003Z</time></trkpt><trkpt lat="43.12377971308208" lon="2.0818850086226433"><ele>249.0</ele><time>2026-04-05T08:09:19.003Z</time></trkpt><trkpt lat="43.12376827802629" lon="2.0817966342256806"><ele>249.0</ele><time>2026-04-05T08:09:20.003Z</time></trkpt><trkpt lat="43.12374267560213" lon="2.0816584133481673"><ele>249.5</ele><time>2026-04-05T08:09:22.003Z</time></trkpt><trkpt lat="43.12371263064351" lon="2.081510903862987"><ele>250.0</ele><time>2026-04-05T08:09:24.003Z</time></trkpt><trkpt lat="43.1237019299438" lon="2.0814068895429507"><ele>250.5</ele><time>2026-04-05T08:09:25.003Z</time></trkpt><trkpt lat="43.12367866837226" lon="2.0813117809881474"><ele>251.0</ele><time>2026-04-05T08:09:26.003Z</time></trkpt><trkpt lat="43.123661200486524" lon="2.0812229787163092"><ele>251.5</ele><time>2026-04-05T08:09:27.003Z</time></trkpt><trkpt lat="43.12364227662379" lon="2.0811280597276474"><ele>252.0</ele><time>2026-04-05T08:09:28.003Z</time></trkpt><trkpt lat="43.12363623025156" lon="2.0810354218127656"><ele>252.0</ele><time>2026-04-05T08:09:29.003Z</time></trkpt><trkpt lat="43.12362293857469" lon="2.0809364298302877"><ele>252.0</ele><time>2026-04-05T08:09:30.003Z</time></trkpt><trkpt lat="43.1236044453547" lon="2.080839632021672"><ele>252.0</ele><time>2026-04-05T08:09:31.003Z</time></trkpt><trkpt lat="43.12358397862353" lon="2.0807362726856597"><ele>252.0</ele><time>2026-04-05T08:09:32.003Z</time></trkpt><trkpt lat="43.123564073259494" lon="2.0806322979188714"><ele>252.0</ele><time>2026-04-05T08:09:33.003Z</time></trkpt><trkpt lat="43.123549657236374" lon="2.0805247465536754"><ele>252.0</ele><time>2026-04-05T08:09:34.003Z</time></trkpt><trkpt lat="43.123540167042556" lon="2.0804184203695026"><ele>252.66666666666666</ele><time>2026-04-05T08:09:35.003Z</time></trkpt><trkpt lat="43.12352550711391" lon="2.080323498049069"><ele>253.33333333333331</ele><time>2026-04-05T08:09:36.003Z</time></trkpt><trkpt lat="43.12350516210602" lon="2.080238688185062"><ele>254.0</ele><time>2026-04-05T08:09:37.003Z</time></trkpt><trkpt lat="43.12349275919063" lon="2.080063372196849"><ele>254.66666666666666</ele><time>2026-04-05T08:09:39.003Z</time></trkpt><trkpt lat="43.12347560857462" lon="2.0799751297582407"><ele>255.33333333333331</ele><time>2026-04-05T08:09:40.003Z</time></trkpt><trkpt lat="43.12345325236147" lon="2.079843520469222"><ele>256.0</ele><time>2026-04-05T08:09:41.003Z</time></trkpt><trkpt lat="43.12342825539115" lon="2.0797045760699824"><ele>257.40000000000003</ele><time>2026-04-05T08:09:42.003Z</time></trkpt><trkpt lat="43.123407370618324" lon="2.0795689064639062"><ele>258.8</ele><time>2026-04-05T08:09:43.003Z</time></trkpt><trkpt lat="43.123387551097274" lon="2.0794347543404075"><ele>260.20000000000005</ele><time>2026-04-05T08:09:44.003Z</time></trkpt><trkpt lat="43.12336389214169" lon="2.0793036281893387"><ele>261.6</ele><time>2026-04-05T08:09:45.003Z</time></trkpt><trkpt lat="43.123340551205295" lon="2.079194822948959"><ele>263.0</ele><time>2026-04-05T08:09:46.003Z</time></trkpt><trkpt lat="43.12331946376025" lon="2.0790816255742306"><ele>263.8</ele><time>2026-04-05T08:09:47.003Z</time></trkpt><trkpt lat="43.12330269055757" lon="2.0789531508304893"><ele>264.6</ele><time>2026-04-05T08:09:48.003Z</time></trkpt><trkpt lat="43.123292414931214" lon="2.0788260054669037"><ele>265.4</ele><time>2026-04-05T08:09:49.003Z</time></trkpt><trkpt lat="43.123280960495556" lon="2.0787045569017586"><ele>266.2</ele><time>2026-04-05T08:09:50.003Z</time></trkpt><trkpt lat="43.123267828905746" lon="2.078570772776179"><ele>267.0</ele><time>2026-04-05T08:09:51.003Z</time></trkpt><trkpt lat="43.12323788778161" lon="2.0784397147892357"><ele>264.2</ele><time>2026-04-05T08:09:52.003Z</time></trkpt><trkpt lat="43.12318011803382" lon="2.078309229813117"><ele>261.4</ele><time>2026-04-05T08:09:53.003Z</time></trkpt><trkpt lat="43.12312526533253" lon="2.078178996023782"><ele>258.6</ele><time>2026-04-05T08:09:54.003Z</time></trkpt><trkpt lat="43.12307242419675" lon="2.078071449313964"><ele>255.8</ele><time>2026-04-05T08:09:55.003Z</time></trkpt><trkpt lat="43.123047535904014" lon="2.077976762206465"><ele>253.0</ele><time>2026-04-05T08:09:56.003Z</time></trkpt><trkpt lat="43.1230214488789" lon="2.0778636274912947"><ele>253.0</ele><time>2026-04-05T08:09:57.003Z</time></trkpt><trkpt lat="43.12299011319569" lon="2.077710136199805"><ele>253.0</ele><time>2026-04-05T08:09:58.003Z</time></trkpt><trkpt lat="43.12294201479575" lon="2.077547379847793"><ele>253.0</ele><time>2026-04-05T08:09:59.003Z</time></trkpt><trkpt lat="43.122898346255546" lon="2.0773914768398862"><ele>253.0</ele><time>2026-04-05T08:10:00.003Z</time></trkpt><trkpt lat="43.12284594941284" lon="2.077237684407731"><ele>253.5</ele><time>2026-04-05T08:10:01.003Z</time></trkpt><trkpt lat="43.122802246437416" lon="2.077086341803494"><ele>254.0</ele><time>2026-04-05T08:10:02.003Z</time></trkpt><trkpt lat="43.12274813836377" lon="2.0769273443834106"><ele>254.5</ele><time>2026-04-05T08:10:03.003Z</time></trkpt><trkpt lat="43.122696624240106" lon="2.0767430445283854"><ele>255.0</ele><time>2026-04-05T08:10:04.003Z</time></trkpt><trkpt lat="43.122648416379896" lon="2.0765670798050544"><ele>256.5</ele><time>2026-04-05T08:10:05.003Z</time></trkpt><trkpt lat="43.12261267436674" lon="2.076403447222237"><ele>258.0</ele><time>2026-04-05T08:10:06.003Z</time></trkpt><trkpt lat="43.1225727697307" lon="2.0762346016649516"><ele>259.5</ele><time>2026-04-05T08:10:07.003Z</time></trkpt><trkpt lat="43.12252388277286" lon="2.076062538833537"><ele>261.0</ele><time>2026-04-05T08:10:08.003Z</time></trkpt><trkpt lat="43.12248345334078" lon="2.075896256720736"><ele>262.0</ele><time>2026-04-05T08:10:09.003Z</time></trkpt><trkpt lat="43.122444036247614" lon="2.0757403204439955"><ele>263.0</ele><time>2026-04-05T08:10:10.003Z</time></trkpt><trkpt lat="43.122415487766986" lon="2.0756175107389687"><ele>264.0</ele><time>2026-04-05T08:10:11.003Z</time></trkpt><trkpt lat="43.12237925259802" lon="2.0754822177879477"><ele>265.0</ele><time>2026-04-05T08:10:12.003Z</time></trkpt><trkpt lat="43.122338720148306" lon="2.075321786607278"><ele>266.0</ele><time>2026-04-05T08:10:13.004Z</time></trkpt><trkpt lat="43.12229459293065" lon="2.075154684896541"><ele>264.25</ele><time>2026-04-05T08:10:14.004Z</time></trkpt><trkpt lat="43.122255405771085" lon="2.0749959926917367"><ele>262.5</ele><time>2026-04-05T08:10:15.004Z</time></trkpt><trkpt lat="43.12221798385054" lon="2.074841773247599"><ele>260.75</ele><time>2026-04-05T08:10:16.004Z</time></trkpt><trkpt lat="43.122174030457664" lon="2.0746628649623307"><ele>259.0</ele><time>2026-04-05T08:10:17.004Z</time></trkpt><trkpt lat="43.12212940064518" lon="2.074478504202988"><ele>259.0</ele><time>2026-04-05T08:10:18.004Z</time></trkpt><trkpt lat="43.122068161574546" lon="2.074266789291802"><ele>259.0</ele><time>2026-04-05T08:10:19.004Z</time></trkpt><trkpt lat="43.1220116004243" lon="2.074063006638795"><ele>259.0</ele><time>2026-04-05T08:10:20.004Z</time></trkpt><trkpt lat="43.121957357937454" lon="2.073876267258208"><ele>261.0</ele><time>2026-04-05T08:10:21.004Z</time></trkpt><trkpt lat="43.12191329311915" lon="2.0737144979657005"><ele>263.0</ele><time>2026-04-05T08:10:22.004Z</time></trkpt><trkpt lat="43.121866041624" lon="2.0735605900032645"><ele>265.0</ele><time>2026-04-05T08:10:23.004Z</time></trkpt><trkpt lat="43.121826159360616" lon="2.0734191206957746"><ele>267.0</ele><time>2026-04-05T08:10:24.004Z</time></trkpt><trkpt lat="43.121784234361506" lon="2.073278929345194"><ele>267.2</ele><time>2026-04-05T08:10:25.004Z</time></trkpt><trkpt lat="43.121738897490594" lon="2.0731553724608442"><ele>267.4</ele><time>2026-04-05T08:10:26.004Z</time></trkpt><trkpt lat="43.12167725292394" lon="2.0730513450576886"><ele>267.6</ele><time>2026-04-05T08:10:27.004Z</time></trkpt><trkpt lat="43.121590782694604" lon="2.072941509833845"><ele>267.8</ele><time>2026-04-05T08:10:28.004Z</time></trkpt><trkpt lat="43.12150521275918" lon="2.0728375081436226"><ele>268.0</ele><time>2026-04-05T08:10:29.004Z</time></trkpt><trkpt lat="43.121457705251494" lon="2.0727712414436077"><ele>268.0</ele><time>2026-04-05T08:10:30.004Z</time></trkpt><trkpt lat="43.121386472826714" lon="2.0726550323682917"><ele>268.0</ele><time>2026-04-05T08:10:32.004Z</time></trkpt><trkpt lat="43.12130752817561" lon="2.072595926761124"><ele>268.0</ele><time>2026-04-05T08:10:33.004Z</time></trkpt><trkpt lat="43.12120708863585" lon="2.072517864471474"><ele>268.0</ele><time>2026-04-05T08:10:34.004Z</time></trkpt><trkpt lat="43.12109655474897" lon="2.072419536743324"><ele>268.0</ele><time>2026-04-05T08:10:35.004Z</time></trkpt><trkpt lat="43.120950431834515" lon="2.0723057415441284"><ele>267.3333333333333</ele><time>2026-04-05T08:10:36.004Z</time></trkpt><trkpt lat="43.12076135888938" lon="2.072178211339162"><ele>266.6666666666667</ele><time>2026-04-05T08:10:37.004Z</time></trkpt><trkpt lat="43.12059620096006" lon="2.0720662251535873"><ele>266.0</ele><time>2026-04-05T08:10:38.004Z</time></trkpt><trkpt lat="43.12037490647183" lon="2.071944605406909"><ele>266.0</ele><time>2026-04-05T08:10:39.004Z</time></trkpt><trkpt lat="43.12019962714461" lon="2.071847981264112"><ele>266.0</ele><time>2026-04-05T08:10:40.004Z</time></trkpt><trkpt lat="43.12007447568937" lon="2.0717838841886884"><ele>266.0</ele><time>2026-04-05T08:10:41.004Z</time></trkpt><trkpt lat="43.11996109955595" lon="2.071719081390522"><ele>266.0</ele><time>2026-04-05T08:10:42.004Z</time></trkpt><trkpt lat="43.11986206929464" lon="2.0716565126660114"><ele>265.6666666666667</ele><time>2026-04-05T08:10:43.004Z</time></trkpt><trkpt lat="43.119769056344566" lon="2.0716057600371065"><ele>265.33333333333337</ele><time>2026-04-05T08:10:44.004Z</time></trkpt><trkpt lat="43.11968759268821" lon="2.071550471522435"><ele>265.0</ele><time>2026-04-05T08:10:45.004Z</time></trkpt><trkpt lat="43.11963658926866" lon="2.071447829653996"><ele>264.6666666666667</ele><time>2026-04-05T08:10:46.004Z</time></trkpt><trkpt lat="43.119562849556566" lon="2.0713969646427564"><ele>264.3333333333333</ele><time>2026-04-05T08:10:48.004Z</time></trkpt><trkpt lat="43.1194917478628" lon="2.071357456305762"><ele>264.0</ele><time>2026-04-05T08:10:50.004Z</time></trkpt><trkpt lat="43.119357487562105" lon="2.0712519844295887"><ele>264.0</ele><time>2026-04-05T08:10:52.004Z</time></trkpt><trkpt lat="43.119269087297965" lon="2.0711778469667763"><ele>264.0</ele><time>2026-04-05T08:10:53.004Z</time></trkpt><trkpt lat="43.11919675027605" lon="2.071127155638103"><ele>264.0</ele><time>2026-04-05T08:10:55.004Z</time></trkpt><trkpt lat="43.11897456832722" lon="2.071613901387831"><ele>261.6666666666667</ele><time>2026-04-05T08:10:57.004Z</time></trkpt><trkpt lat="43.118925767996004" lon="2.071708829318059"><ele>259.33333333333337</ele><time>2026-04-05T08:10:59.004Z</time></trkpt><trkpt lat="43.118723348033335" lon="2.0721132515404346"><ele>257.0</ele><time>2026-04-05T08:11:01.004Z</time></trkpt><trkpt lat="43.11863855467403" lon="2.0721814055251992"><ele>257.0</ele><time>2026-04-05T08:11:02.004Z</time></trkpt><trkpt lat="43.11853536614067" lon="2.072248698643981"><ele>257.0</ele><time>2026-04-05T08:11:03.004Z</time></trkpt><trkpt lat="43.11843083126812" lon="2.0723130809901398"><ele>257.0</ele><time>2026-04-05T08:11:04.004Z</time></trkpt><trkpt lat="43.1183314083898" lon="2.0723706570190847"><ele>257.0</ele><time>2026-04-05T08:11:05.004Z</time></trkpt><trkpt lat="43.11821985853749" lon="2.072404229693427"><ele>257.25</ele><time>2026-04-05T08:11:06.004Z</time></trkpt><trkpt lat="43.118114971187595" lon="2.0724663136874044"><ele>257.5</ele><time>2026-04-05T08:11:07.004Z</time></trkpt><trkpt lat="43.11800643187819" lon="2.072552079069663"><ele>257.75</ele><time>2026-04-05T08:11:08.004Z</time></trkpt><trkpt lat="43.117882673621786" lon="2.0726063007757394"><ele>258.0</ele><time>2026-04-05T08:11:09.004Z</time></trkpt><trkpt lat="43.117757623419344" lon="2.072678708255808"><ele>258.0</ele><time>2026-04-05T08:11:10.004Z</time></trkpt><trkpt lat="43.11763147627544" lon="2.0727506875129493"><ele>258.0</ele><time>2026-04-05T08:11:11.004Z</time></trkpt><trkpt lat="43.117516273247425" lon="2.072809392702119"><ele>258.0</ele><time>2026-04-05T08:11:12.004Z</time></trkpt><trkpt lat="43.117415828349166" lon="2.0728586075310105"><ele>258.0</ele><time>2026-04-05T08:11:13.004Z</time></trkpt><trkpt lat="43.11732967485886" lon="2.072905781324503"><ele>258.1428571428571</ele><time>2026-04-05T08:11:14.004Z</time></trkpt><trkpt lat="43.11724871665048" lon="2.072949352795881"><ele>258.2857142857143</ele><time>2026-04-05T08:11:15.004Z</time></trkpt><trkpt lat="43.117175933286354" lon="2.0730023053933464"><ele>258.42857142857144</ele><time>2026-04-05T08:11:16.004Z</time></trkpt><trkpt lat="43.11709725195639" lon="2.0730079256083394"><ele>258.57142857142856</ele><time>2026-04-05T08:11:17.004Z</time></trkpt><trkpt lat="43.117040458165256" lon="2.073049821549887"><ele>258.7142857142857</ele><time>2026-04-05T08:11:18.004Z</time></trkpt><trkpt lat="43.11697996452542" lon="2.073094446874158"><ele>258.85714285714283</ele><time>2026-04-05T08:11:20.004Z</time></trkpt><trkpt lat="43.11694721126344" lon="2.07317609019141"><ele>259.0</ele><time>2026-04-05T08:11:21.004Z</time></trkpt><trkpt lat="43.11698878086541" lon="2.0733145731779272"><ele>259.2</ele><time>2026-04-05T08:11:22.004Z</time></trkpt><trkpt lat="43.11706745981129" lon="2.0734414664433665"><ele>259.4</ele><time>2026-04-05T08:11:24.004Z</time></trkpt><trkpt lat="43.117119743561005" lon="2.0735246364135187"><ele>259.6</ele><time>2026-04-05T08:11:25.004Z</time></trkpt><trkpt lat="43.117186866450766" lon="2.073565323713237"><ele>259.8</ele><time>2026-04-05T08:11:26.004Z</time></trkpt><trkpt lat="43.11728393741279" lon="2.0735668556616256"><ele>260.0</ele><time>2026-04-05T08:11:27.004Z</time></trkpt><trkpt lat="43.11736759247155" lon="2.0736394459445573"><ele>260.0</ele><time>2026-04-05T08:11:28.004Z</time></trkpt><trkpt lat="43.117442868928464" lon="2.073710933833909"><ele>260.0</ele><time>2026-04-05T08:11:29.004Z</time></trkpt><trkpt lat="43.11750723367602" lon="2.073782438380746"><ele>260.0</ele><time>2026-04-05T08:11:30.004Z</time></trkpt><trkpt lat="43.117603538260894" lon="2.0738728275188922"><ele>260.0</ele><time>2026-04-05T08:11:31.004Z</time></trkpt><trkpt lat="43.11767468917586" lon="2.0739986232301244"><ele>260.0</ele><time>2026-04-05T08:11:32.004Z</time></trkpt><trkpt lat="43.11773814180213" lon="2.0741106533626557"><ele>260.0</ele><time>2026-04-05T08:11:33.004Z</time></trkpt><trkpt lat="43.11777201519014" lon="2.0742035664482668"><ele>260.0</ele><time>2026-04-05T08:11:34.004Z</time></trkpt><trkpt lat="43.117794977724834" lon="2.0743035568017643"><ele>260.0</ele><time>2026-04-05T08:11:35.004Z</time></trkpt><trkpt lat="43.11779845571925" lon="2.0744019080685203"><ele>260.0</ele><time>2026-04-05T08:11:36.004Z</time></trkpt><trkpt lat="43.11782545370903" lon="2.074554242208646"><ele>260.0</ele><time>2026-04-05T08:11:38.005Z</time></trkpt><trkpt lat="43.11784658933899" lon="2.074641107666462"><ele>260.0</ele><time>2026-04-05T08:11:39.005Z</time></trkpt><trkpt lat="43.117859774587174" lon="2.074753682968983"><ele>260.0</ele><time>2026-04-05T08:11:41.005Z</time></trkpt><trkpt lat="43.11791363044362" lon="2.074648335691335"><ele>260.0</ele><time>2026-04-05T08:11:44.005Z</time></trkpt><trkpt lat="43.118149238494404" lon="2.075007128823554"><ele>260.0</ele><time>2026-04-05T08:11:48.005Z</time></trkpt><trkpt lat="43.118219243439704" lon="2.0751408732489183"><ele>261.25</ele><time>2026-04-05T08:11:49.005Z</time></trkpt><trkpt lat="43.11829170196803" lon="2.0752997371225277"><ele>262.5</ele><time>2026-04-05T08:11:50.005Z</time></trkpt><trkpt lat="43.11835874651376" lon="2.0754581098466076"><ele>263.75</ele><time>2026-04-05T08:11:51.005Z</time></trkpt><trkpt lat="43.118511120984245" lon="2.0755352071336457"><ele>265.0</ele><time>2026-04-05T08:11:52.005Z</time></trkpt><trkpt lat="43.11856786884893" lon="2.0756562145952153"><ele>265.0</ele><time>2026-04-05T08:11:53.005Z</time></trkpt><trkpt lat="43.11862080521247" lon="2.0757500719164463"><ele>265.0</ele><time>2026-04-05T08:11:54.005Z</time></trkpt><trkpt lat="43.11868667243272" lon="2.0758797004363374"><ele>265.0</ele><time>2026-04-05T08:11:55.005Z</time></trkpt><trkpt lat="43.11873024373418" lon="2.07598961494606"><ele>265.0</ele><time>2026-04-05T08:11:56.005Z</time></trkpt><trkpt lat="43.11875654947295" lon="2.076086748603219"><ele>265.0</ele><time>2026-04-05T08:11:57.005Z</time></trkpt><trkpt lat="43.11831533352262" lon="2.0764499274952124"><ele>267.4</ele><time>2026-04-05T08:11:59.005Z</time></trkpt><trkpt lat="43.11822542617342" lon="2.076540926236105"><ele>269.8</ele><time>2026-04-05T08:12:00.005Z</time></trkpt><trkpt lat="43.118168482516175" lon="2.076627841869102"><ele>272.2</ele><time>2026-04-05T08:12:01.005Z</time></trkpt><trkpt lat="43.118138298739204" lon="2.0767495772529956"><ele>274.6</ele><time>2026-04-05T08:12:02.005Z</time></trkpt><trkpt lat="43.11812873559597" lon="2.0769278779163987"><ele>277.0</ele><time>2026-04-05T08:12:03.005Z</time></trkpt><trkpt lat="43.11810400492108" lon="2.077131793605612"><ele>279.0</ele><time>2026-04-05T08:12:04.005Z</time></trkpt><trkpt lat="43.11807612514678" lon="2.0774009497617354"><ele>281.0</ele><time>2026-04-05T08:12:05.005Z</time></trkpt><trkpt lat="43.11804596805832" lon="2.0777245889547062"><ele>283.0</ele><time>2026-04-05T08:12:06.005Z</time></trkpt><trkpt lat="43.118015325933065" lon="2.0780320465501747"><ele>285.25</ele><time>2026-04-05T08:12:07.005Z</time></trkpt><trkpt lat="43.1179878502939" lon="2.07825772858957"><ele>287.5</ele><time>2026-04-05T08:12:08.005Z</time></trkpt><trkpt lat="43.11795047506682" lon="2.0784424923995806"><ele>289.75</ele><time>2026-04-05T08:12:09.005Z</time></trkpt><trkpt lat="43.11790814141409" lon="2.0786271244554824"><ele>292.0</ele><time>2026-04-05T08:12:10.005Z</time></trkpt><trkpt lat="43.11792855332702" lon="2.0788542183051226"><ele>295.66666666666663</ele><time>2026-04-05T08:12:11.005Z</time></trkpt><trkpt lat="43.117935567090605" lon="2.079102679788317"><ele>299.3333333333333</ele><time>2026-04-05T08:12:12.005Z</time></trkpt><trkpt lat="43.11796482803253" lon="2.0793307623579333"><ele>303.0</ele><time>2026-04-05T08:12:13.005Z</time></trkpt><trkpt lat="43.117919875831895" lon="2.079553791362849"><ele>303.0</ele><time>2026-04-05T08:12:14.005Z</time></trkpt><trkpt lat="43.11780033470097" lon="2.0796323298406048"><ele>303.0</ele><time>2026-04-05T08:12:15.005Z</time></trkpt><trkpt lat="43.11775641446342" lon="2.0799112253012306"><ele>303.0</ele><time>2026-04-05T08:12:16.005Z</time></trkpt><trkpt lat="43.11769387093136" lon="2.0801683756391216"><ele>303.3333333333333</ele><time>2026-04-05T08:12:17.005Z</time></trkpt><trkpt lat="43.11760418260247" lon="2.0804251697251983"><ele>303.66666666666663</ele><time>2026-04-05T08:12:18.005Z</time></trkpt><trkpt lat="43.117506172249946" lon="2.080644073287745"><ele>304.0</ele><time>2026-04-05T08:12:19.005Z</time></trkpt><trkpt lat="43.117403992755925" lon="2.0808035363791952"><ele>309.3333333333333</ele><time>2026-04-05T08:12:20.005Z</time></trkpt><trkpt lat="43.1172715097513" lon="2.080963743138464"><ele>314.6666666666667</ele><time>2026-04-05T08:12:21.005Z</time></trkpt><trkpt lat="43.117104159469406" lon="2.0811349855466803"><ele>320.0</ele><time>2026-04-05T08:12:22.005Z</time></trkpt><trkpt lat="43.116961076511345" lon="2.0812788286365542"><ele>320.0</ele><time>2026-04-05T08:12:23.005Z</time></trkpt><trkpt lat="43.11684600158909" lon="2.0813803725148223"><ele>320.0</ele><time>2026-04-05T08:12:24.005Z</time></trkpt><trkpt lat="43.11671912797481" lon="2.081476392606971"><ele>320.0</ele><time>2026-04-05T08:12:25.005Z</time></trkpt><trkpt lat="43.1165780098825" lon="2.0815572000045175"><ele>320.0</ele><time>2026-04-05T08:12:26.005Z</time></trkpt><trkpt lat="43.11641600783114" lon="2.0816436097761235"><ele>322.75</ele><time>2026-04-05T08:12:27.005Z</time></trkpt><trkpt lat="43.11625816058734" lon="2.08171069802044"><ele>325.5</ele><time>2026-04-05T08:12:28.005Z</time></trkpt><trkpt lat="43.11613464703401" lon="2.081758138079959"><ele>328.25</ele><time>2026-04-05T08:12:29.005Z</time></trkpt><trkpt lat="43.11602262774365" lon="2.0817888401886533"><ele>331.0</ele><time>2026-04-05T08:12:30.005Z</time></trkpt><trkpt lat="43.11589951253276" lon="2.0818133306390942"><ele>331.0</ele><time>2026-04-05T08:12:31.005Z</time></trkpt><trkpt lat="43.115771624289756" lon="2.08183482570918"><ele>331.0</ele><time>2026-04-05T08:12:32.005Z</time></trkpt><trkpt lat="43.11562983257179" lon="2.0818523872650974"><ele>331.0</ele><time>2026-04-05T08:12:33.005Z</time></trkpt><trkpt lat="43.115516179301196" lon="2.0818583075488952"><ele>331.0</ele><time>2026-04-05T08:12:34.005Z</time></trkpt><trkpt lat="43.115403017758915" lon="2.0818647960587873"><ele>334.0</ele><time>2026-04-05T08:12:35.005Z</time></trkpt><trkpt lat="43.11530173758784" lon="2.0818850218587177"><ele>337.0</ele><time>2026-04-05T08:12:36.005Z</time></trkpt><trkpt lat="43.115210248236906" lon="2.0819373955102587"><ele>340.0</ele><time>2026-04-05T08:12:37.005Z</time></trkpt><trkpt lat="43.11511439009444" lon="2.0820168749186903"><ele>343.0</ele><time>2026-04-05T08:12:38.005Z</time></trkpt><trkpt lat="43.114983011178154" lon="2.082116814723083"><ele>343.0</ele><time>2026-04-05T08:12:39.005Z</time></trkpt><trkpt lat="43.114893170786864" lon="2.0822006192733973"><ele>343.0</ele><time>2026-04-05T08:12:40.005Z</time></trkpt><trkpt lat="43.11480114932525" lon="2.0822775358203107"><ele>343.0</ele><time>2026-04-05T08:12:41.005Z</time></trkpt><trkpt lat="43.11474220184118" lon="2.0823515152480345"><ele>343.0</ele><time>2026-04-05T08:12:42.005Z</time></trkpt><trkpt lat="43.11466659981921" lon="2.0824584306237224"><ele>343.0</ele><time>2026-04-05T08:12:43.005Z</time></trkpt><trkpt lat="43.11457826355126" lon="2.082577227155809"><ele>343.0</ele><time>2026-04-05T08:12:44.005Z</time></trkpt><trkpt lat="43.11447332403997" lon="2.0826986002286794"><ele>343.0</ele><time>2026-04-05T08:12:45.005Z</time></trkpt><trkpt lat="43.11435093438119" lon="2.082768558984291"><ele>343.0</ele><time>2026-04-05T08:12:46.005Z</time></trkpt><trkpt lat="43.114258690754816" lon="2.0828567778121196"><ele>343.0</ele><time>2026-04-05T08:12:47.005Z</time></trkpt><trkpt lat="43.11418356506014" lon="2.082964217714424"><ele>343.0</ele><time>2026-04-05T08:12:48.005Z</time></trkpt><trkpt lat="43.11412816665231" lon="2.0831054286386204"><ele>343.0</ele><time>2026-04-05T08:12:49.005Z</time></trkpt><trkpt lat="43.1140753797867" lon="2.083267170901848"><ele>343.0</ele><time>2026-04-05T08:12:50.005Z</time></trkpt><trkpt lat="43.11402638129614" lon="2.083423070804319"><ele>343.0</ele><time>2026-04-05T08:12:51.005Z</time></trkpt><trkpt lat="43.11398476252407" lon="2.083607251186638"><ele>343.5</ele><time>2026-04-05T08:12:52.005Z</time></trkpt><trkpt lat="43.113945831353675" lon="2.083787345483194"><ele>344.0</ele><time>2026-04-05T08:12:53.005Z</time></trkpt><trkpt lat="43.11391210270925" lon="2.0839703524835755"><ele>344.5</ele><time>2026-04-05T08:12:54.005Z</time></trkpt><trkpt lat="43.11388035320266" lon="2.0841457140249284"><ele>345.0</ele><time>2026-04-05T08:12:55.005Z</time></trkpt><trkpt lat="43.11384909540204" lon="2.08432491983749"><ele>344.0</ele><time>2026-04-05T08:12:56.005Z</time></trkpt><trkpt lat="43.11381872278002" lon="2.0845204121429473"><ele>343.0</ele><time>2026-04-05T08:12:57.005Z</time></trkpt><trkpt lat="43.113779657263734" lon="2.0847326079206483"><ele>342.0</ele><time>2026-04-05T08:12:58.005Z</time></trkpt><trkpt lat="43.11373312282407" lon="2.084914596246937"><ele>341.0</ele><time>2026-04-05T08:12:59.005Z</time></trkpt><trkpt lat="43.113714007098864" lon="2.0850447039910214"><ele>340.8</ele><time>2026-04-05T08:13:00.005Z</time></trkpt><trkpt lat="43.11370065008081" lon="2.085141628492723"><ele>340.6</ele><time>2026-04-05T08:13:01.005Z</time></trkpt><trkpt lat="43.113675779851285" lon="2.0852861552781325"><ele>340.4</ele><time>2026-04-05T08:13:03.005Z</time></trkpt><trkpt lat="43.11363653809915" lon="2.085367000946806"><ele>340.2</ele><time>2026-04-05T08:13:05.006Z</time></trkpt><trkpt lat="43.11358264246721" lon="2.0852351728279204"><ele>340.0</ele><time>2026-04-05T08:13:08.006Z</time></trkpt><trkpt lat="43.11358750798345" lon="2.085104548783"><ele>340.0</ele><time>2026-04-05T08:13:09.006Z</time></trkpt><trkpt lat="43.11359178665446" lon="2.0849393269770107"><ele>340.0</ele><time>2026-04-05T08:13:10.006Z</time></trkpt><trkpt lat="43.1135779248505" lon="2.08476335250358"><ele>340.0</ele><time>2026-04-05T08:13:11.006Z</time></trkpt><trkpt lat="43.11356166686287" lon="2.0846002522850045"><ele>340.0</ele><time>2026-04-05T08:13:12.006Z</time></trkpt><trkpt lat="43.11354574535718" lon="2.084469750906862"><ele>340.2</ele><time>2026-04-05T08:13:13.006Z</time></trkpt><trkpt lat="43.11351639991797" lon="2.0843587850288716"><ele>340.4</ele><time>2026-04-05T08:13:14.006Z</time></trkpt><trkpt lat="43.113467359657676" lon="2.0842407705179964"><ele>340.6</ele><time>2026-04-05T08:13:15.006Z</time></trkpt><trkpt lat="43.11341065019258" lon="2.0841114603352815"><ele>340.8</ele><time>2026-04-05T08:13:16.006Z</time></trkpt><trkpt lat="43.11336047445217" lon="2.0839735649631965"><ele>341.0</ele><time>2026-04-05T08:13:17.006Z</time></trkpt><trkpt lat="43.113316219253576" lon="2.083823510085858"><ele>342.0</ele><time>2026-04-05T08:13:18.006Z</time></trkpt><trkpt lat="43.11327729454435" lon="2.0836636555865296"><ele>343.0</ele><time>2026-04-05T08:13:19.006Z</time></trkpt><trkpt lat="43.113218290548296" lon="2.083497996596865"><ele>344.0</ele><time>2026-04-05T08:13:20.006Z</time></trkpt><trkpt lat="43.11316366864358" lon="2.08333588740248"><ele>345.0</ele><time>2026-04-05T08:13:21.006Z</time></trkpt><trkpt lat="43.1131028850974" lon="2.083184498245636"><ele>347.4</ele><time>2026-04-05T08:13:22.006Z</time></trkpt><trkpt lat="43.11307058880681" lon="2.08303147173417"><ele>349.8</ele><time>2026-04-05T08:13:23.006Z</time></trkpt><trkpt lat="43.113046888811425" lon="2.0829265410610303"><ele>352.20000000000005</ele><time>2026-04-05T08:13:24.006Z</time></trkpt><trkpt lat="43.11300319683929" lon="2.0828455416835827"><ele>354.6</ele><time>2026-04-05T08:13:25.006Z</time></trkpt><trkpt lat="43.11293187071005" lon="2.082795685023682"><ele>357.0</ele><time>2026-04-05T08:13:26.006Z</time></trkpt><trkpt lat="43.11283508520368" lon="2.0827602546006094"><ele>357.0</ele><time>2026-04-05T08:13:27.006Z</time></trkpt><trkpt lat="43.112724512955076" lon="2.082756085963581"><ele>357.0</ele><time>2026-04-05T08:13:28.006Z</time></trkpt><trkpt lat="43.11262293495105" lon="2.0827617911085383"><ele>357.0</ele><time>2026-04-05T08:13:29.006Z</time></trkpt><trkpt lat="43.112544841675685" lon="2.082749797290203"><ele>357.0</ele><time>2026-04-05T08:13:30.006Z</time></trkpt><trkpt lat="43.11246339425487" lon="2.0827127112852217"><ele>357.0</ele><time>2026-04-05T08:13:31.006Z</time></trkpt><trkpt lat="43.112367946528984" lon="2.0826492028119676"><ele>358.75</ele><time>2026-04-05T08:13:32.006Z</time></trkpt><trkpt lat="43.1122563115258" lon="2.0825980336830803"><ele>360.5</ele><time>2026-04-05T08:13:33.006Z</time></trkpt><trkpt lat="43.112135105947274" lon="2.0825489012105995"><ele>362.25</ele><time>2026-04-05T08:13:34.006Z</time></trkpt><trkpt lat="43.11201380063801" lon="2.082497416541411"><ele>364.0</ele><time>2026-04-05T08:13:35.006Z</time></trkpt><trkpt lat="43.11191550232696" lon="2.0824550116514344"><ele>364.0</ele><time>2026-04-05T08:13:36.006Z</time></trkpt><trkpt lat="43.11182913065415" lon="2.082418202377386"><ele>364.0</ele><time>2026-04-05T08:13:37.006Z</time></trkpt><trkpt lat="43.11172669226327" lon="2.0824155158641733"><ele>364.0</ele><time>2026-04-05T08:13:38.006Z</time></trkpt><trkpt lat="43.11161245958848" lon="2.0824317649042587"><ele>364.0</ele><time>2026-04-05T08:13:39.006Z</time></trkpt><trkpt lat="43.11147802400343" lon="2.0824631339386417"><ele>364.0</ele><time>2026-04-05T08:13:40.006Z</time></trkpt><trkpt lat="43.11133880827512" lon="2.0824723218492336"><ele>366.0</ele><time>2026-04-05T08:13:41.006Z</time></trkpt><trkpt lat="43.111190133851686" lon="2.0824697582613076"><ele>368.0</ele><time>2026-04-05T08:13:42.006Z</time></trkpt><trkpt lat="43.1110439867041" lon="2.0824706699219258"><ele>370.0</ele><time>2026-04-05T08:13:43.006Z</time></trkpt><trkpt lat="43.110902170561424" lon="2.08248363255626"><ele>372.0</ele><time>2026-04-05T08:13:44.006Z</time></trkpt><trkpt lat="43.11076211739558" lon="2.0825074102033185"><ele>372.25</ele><time>2026-04-05T08:13:45.006Z</time></trkpt><trkpt lat="43.11062723902338" lon="2.082558650432238"><ele>372.5</ele><time>2026-04-05T08:13:46.006Z</time></trkpt><trkpt lat="43.11048355276914" lon="2.0826230245882074"><ele>372.75</ele><time>2026-04-05T08:13:47.006Z</time></trkpt><trkpt lat="43.11035838466966" lon="2.0826761445779765"><ele>373.0</ele><time>2026-04-05T08:13:48.006Z</time></trkpt><trkpt lat="43.110263566665665" lon="2.0827061359652865"><ele>373.0</ele><time>2026-04-05T08:13:49.006Z</time></trkpt><trkpt lat="43.110184539695865" lon="2.0827497732476097"><ele>373.0</ele><time>2026-04-05T08:13:50.006Z</time></trkpt><trkpt lat="43.11006525631711" lon="2.0828034944231395"><ele>373.0</ele><time>2026-04-05T08:13:51.006Z</time></trkpt><trkpt lat="43.10993436062225" lon="2.0828486128427115"><ele>373.0</ele><time>2026-04-05T08:13:52.006Z</time></trkpt><trkpt lat="43.10979792504866" lon="2.082865331210511"><ele>374.25</ele><time>2026-04-05T08:13:53.006Z</time></trkpt><trkpt lat="43.109669591120955" lon="2.082840771352615"><ele>375.5</ele><time>2026-04-05T08:13:54.006Z</time></trkpt><trkpt lat="43.109538285862484" lon="2.0828113206160346"><ele>376.75</ele><time>2026-04-05T08:13:55.006Z</time></trkpt><trkpt lat="43.1094082841985" lon="2.0827878881043906"><ele>378.0</ele><time>2026-04-05T08:13:56.006Z</time></trkpt><trkpt lat="43.10927229877888" lon="2.082755877359935"><ele>378.0</ele><time>2026-04-05T08:13:57.006Z</time></trkpt><trkpt lat="43.10916700180825" lon="2.0827046825219546"><ele>378.0</ele><time>2026-04-05T08:13:58.006Z</time></trkpt><trkpt lat="43.109083387064736" lon="2.0826301728161662"><ele>378.0</ele><time>2026-04-05T08:13:59.006Z</time></trkpt><trkpt lat="43.109020801527194" lon="2.082503342716081"><ele>378.0</ele><time>2026-04-05T08:14:00.006Z</time></trkpt><trkpt lat="43.10896427999543" lon="2.082345385587366"><ele>377.79999999999995</ele><time>2026-04-05T08:14:01.006Z</time></trkpt><trkpt lat="43.108921440019294" lon="2.0821881149260313"><ele>377.6</ele><time>2026-04-05T08:14:02.006Z</time></trkpt><trkpt lat="43.10886099659914" lon="2.082120018995075"><ele>377.4</ele><time>2026-04-05T08:14:03.006Z</time></trkpt><trkpt lat="43.108791726958046" lon="2.082120465704753"><ele>377.20000000000005</ele><time>2026-04-05T08:14:04.006Z</time></trkpt><trkpt lat="43.10871779298257" lon="2.082153106349022"><ele>377.0</ele><time>2026-04-05T08:14:05.006Z</time></trkpt><trkpt lat="43.108615604074984" lon="2.082196926792691"><ele>377.0</ele><time>2026-04-05T08:14:06.006Z</time></trkpt><trkpt lat="43.10848796632353" lon="2.082225510962815"><ele>377.0</ele><time>2026-04-05T08:14:07.006Z</time></trkpt><trkpt lat="43.108329534509785" lon="2.082232380748331"><ele>377.0</ele><time>2026-04-05T08:14:08.006Z</time></trkpt><trkpt lat="43.108189250805964" lon="2.0822182109184917"><ele>377.0</ele><time>2026-04-05T08:14:09.006Z</time></trkpt><trkpt lat="43.10806818639532" lon="2.0821642470813946"><ele>377.20000000000005</ele><time>2026-04-05T08:14:10.006Z</time></trkpt><trkpt lat="43.10797799624362" lon="2.0820943392963174"><ele>377.4</ele><time>2026-04-05T08:14:11.006Z</time></trkpt><trkpt lat="43.10788918017254" lon="2.081995561319309"><ele>377.6</ele><time>2026-04-05T08:14:12.006Z</time></trkpt><trkpt lat="43.107830431931895" lon="2.081872287425359"><ele>377.79999999999995</ele><time>2026-04-05T08:14:13.006Z</time></trkpt><trkpt lat="43.10780584467948" lon="2.0817490807697396"><ele>378.0</ele><time>2026-04-05T08:14:14.006Z</time></trkpt><trkpt lat="43.10779069268179" lon="2.081617091595901"><ele>377.59999999999997</ele><time>2026-04-05T08:14:15.006Z</time></trkpt><trkpt lat="43.10774980800671" lon="2.0815099071496173"><ele>377.2</ele><time>2026-04-05T08:14:16.006Z</time></trkpt><trkpt lat="43.1076816733174" lon="2.0814500037417694"><ele>376.8</ele><time>2026-04-05T08:14:17.006Z</time></trkpt><trkpt lat="43.1075992848569" lon="2.0813775446150022"><ele>376.4</ele><time>2026-04-05T08:14:18.006Z</time></trkpt><trkpt lat="43.10743536371959" lon="2.0813431708463925"><ele>376.0</ele><time>2026-04-05T08:14:19.006Z</time></trkpt><trkpt lat="43.107309823508466" lon="2.081307332629158"><ele>376.0</ele><time>2026-04-05T08:14:20.006Z</time></trkpt><trkpt lat="43.107181992233976" lon="2.0812194202685017"><ele>376.0</ele><time>2026-04-05T08:14:21.006Z</time></trkpt><trkpt lat="43.107078263583915" lon="2.081099901854456"><ele>376.0</ele><time>2026-04-05T08:14:22.006Z</time></trkpt><trkpt lat="43.106989383931094" lon="2.081020920905382"><ele>376.0</ele><time>2026-04-05T08:14:23.006Z</time></trkpt><trkpt lat="43.10695665084337" lon="2.080814787251481"><ele>376.5</ele><time>2026-04-05T08:14:24.006Z</time></trkpt><trkpt lat="43.10688641826996" lon="2.080667827022232"><ele>377.0</ele><time>2026-04-05T08:14:25.006Z</time></trkpt><trkpt lat="43.106823268592215" lon="2.0805258276839376"><ele>377.5</ele><time>2026-04-05T08:14:26.006Z</time></trkpt><trkpt lat="43.10675240546997" lon="2.0803715547363653"><ele>378.0</ele><time>2026-04-05T08:14:27.006Z</time></trkpt><trkpt lat="43.10669300503851" lon="2.0802144080411606"><ele>378.0</ele><time>2026-04-05T08:14:28.006Z</time></trkpt><trkpt lat="43.10662536841271" lon="2.0800540401571843"><ele>378.0</ele><time>2026-04-05T08:14:29.006Z</time></trkpt><trkpt lat="43.10655402730647" lon="2.0798917792163376"><ele>378.0</ele><time>2026-04-05T08:14:30.007Z</time></trkpt><trkpt lat="43.10649366391383" lon="2.0797084782763346"><ele>378.0</ele><time>2026-04-05T08:14:31.007Z</time></trkpt><trkpt lat="43.1064393141176" lon="2.0796042781776642"><ele>379.0</ele><time>2026-04-05T08:14:32.007Z</time></trkpt><trkpt lat="43.10635170985437" lon="2.0795457436157023"><ele>380.0</ele><time>2026-04-05T08:14:33.007Z</time></trkpt><trkpt lat="43.1062302475469" lon="2.0794880710982193"><ele>381.0</ele><time>2026-04-05T08:14:34.007Z</time></trkpt><trkpt lat="43.10611484195199" lon="2.0794337883318836"><ele>382.0</ele><time>2026-04-05T08:14:35.007Z</time></trkpt><trkpt lat="43.10602340680081" lon="2.0793435967891107"><ele>382.0</ele><time>2026-04-05T08:14:36.007Z</time></trkpt><trkpt lat="43.10595634821062" lon="2.079281420071401"><ele>382.0</ele><time>2026-04-05T08:14:37.007Z</time></trkpt><trkpt lat="43.10589387506166" lon="2.079205259220937"><ele>382.0</ele><time>2026-04-05T08:14:38.007Z</time></trkpt><trkpt lat="43.105830340678644" lon="2.079116217681399"><ele>382.0</ele><time>2026-04-05T08:14:39.007Z</time></trkpt><trkpt lat="43.105752409132016" lon="2.07900721045917"><ele>382.0</ele><time>2026-04-05T08:14:40.007Z</time></trkpt><trkpt lat="43.105678061690845" lon="2.078902097015846"><ele>381.0</ele><time>2026-04-05T08:14:41.007Z</time></trkpt><trkpt lat="43.105606159470405" lon="2.07878825791507"><ele>380.0</ele><time>2026-04-05T08:14:42.007Z</time></trkpt><trkpt lat="43.10555557990366" lon="2.0786743967423553"><ele>379.0</ele><time>2026-04-05T08:14:43.007Z</time></trkpt><trkpt lat="43.10549688375591" lon="2.0785723480043523"><ele>378.0</ele><time>2026-04-05T08:14:44.007Z</time></trkpt><trkpt lat="43.10542724210624" lon="2.0784923099194446"><ele>377.0</ele><time>2026-04-05T08:14:45.007Z</time></trkpt><trkpt lat="43.1053293544388" lon="2.078429703595152"><ele>377.0</ele><time>2026-04-05T08:14:46.007Z</time></trkpt><trkpt lat="43.105228057966826" lon="2.0783603499044894"><ele>377.0</ele><time>2026-04-05T08:14:47.007Z</time></trkpt><trkpt lat="43.1051410865163" lon="2.078283791647694"><ele>377.0</ele><time>2026-04-05T08:14:48.007Z</time></trkpt><trkpt lat="43.10505594591701" lon="2.0781904242164133"><ele>377.0</ele><time>2026-04-05T08:14:49.007Z</time></trkpt><trkpt lat="43.1049631633848" lon="2.0780859647496635"><ele>377.0</ele><time>2026-04-05T08:14:50.007Z</time></trkpt><trkpt lat="43.10486659037548" lon="2.07799268016451"><ele>376.0</ele><time>2026-04-05T08:14:51.007Z</time></trkpt><trkpt lat="43.10476190832861" lon="2.0779206330217415"><ele>375.0</ele><time>2026-04-05T08:14:52.007Z</time></trkpt><trkpt lat="43.10465041283569" lon="2.0779063166045932"><ele>374.0</ele><time>2026-04-05T08:14:53.007Z</time></trkpt><trkpt lat="43.104558447948996" lon="2.077846012609461"><ele>373.0</ele><time>2026-04-05T08:14:54.007Z</time></trkpt><trkpt lat="43.104464550554646" lon="2.0777951939988"><ele>372.0</ele><time>2026-04-05T08:14:55.007Z</time></trkpt><trkpt lat="43.10438053184959" lon="2.0777388783266293"><ele>372.0</ele><time>2026-04-05T08:14:56.007Z</time></trkpt><trkpt lat="43.10431400626048" lon="2.077666583357674"><ele>372.0</ele><time>2026-04-05T08:14:57.007Z</time></trkpt><trkpt lat="43.104263776709736" lon="2.0775938043724786"><ele>372.0</ele><time>2026-04-05T08:14:58.007Z</time></trkpt><trkpt lat="43.10420346856848" lon="2.0774840002744335"><ele>372.0</ele><time>2026-04-05T08:15:00.007Z</time></trkpt><trkpt lat="43.10415687860038" lon="2.077376207784189"><ele>372.0</ele><time>2026-04-05T08:16:23.008Z</time></trkpt><trkpt lat="43.104091111266506" lon="2.0773418424806476"><ele>372.0</ele><time>2026-04-05T08:16:24.008Z</time></trkpt><trkpt lat="43.10401166860933" lon="2.0775015564877575"><ele>373.0</ele><time>2026-04-05T08:16:25.008Z</time></trkpt><trkpt lat="43.10394233415179" lon="2.0775616971448554"><ele>374.0</ele><time>2026-04-05T08:16:26.008Z</time></trkpt><trkpt lat="43.103876613925" lon="2.0776117986788756"><ele>375.0</ele><time>2026-04-05T08:16:27.008Z</time></trkpt><trkpt lat="43.10381771811502" lon="2.077657377187875"><ele>376.0</ele><time>2026-04-05T08:16:28.008Z</time></trkpt><trkpt lat="43.1037338550828" lon="2.077753900773285"><ele>377.0</ele><time>2026-04-05T08:16:30.008Z</time></trkpt><trkpt lat="43.103629573906936" lon="2.0778269608701345"><ele>377.0</ele><time>2026-04-05T08:16:32.008Z</time></trkpt><trkpt lat="43.10356259494642" lon="2.077943568416024"><ele>377.0</ele><time>2026-04-05T08:16:34.008Z</time></trkpt><trkpt lat="43.10349350876613" lon="2.078061807768748"><ele>377.0</ele><time>2026-04-05T08:16:36.008Z</time></trkpt><trkpt lat="43.10343467397429" lon="2.0781319571305463"><ele>377.0</ele><time>2026-04-05T08:16:37.008Z</time></trkpt><trkpt lat="43.10335890887871" lon="2.0782122061117367"><ele>377.0</ele><time>2026-04-05T08:16:38.008Z</time></trkpt><trkpt lat="43.10325587442988" lon="2.0782441644691283"><ele>376.0</ele><time>2026-04-05T08:16:39.008Z</time></trkpt><trkpt lat="43.10314638920306" lon="2.0782194905165303"><ele>375.0</ele><time>2026-04-05T08:16:40.008Z</time></trkpt><trkpt lat="43.10303415865426" lon="2.0781436208638193"><ele>374.0</ele><time>2026-04-05T08:16:41.008Z</time></trkpt><trkpt lat="43.10290909671862" lon="2.078067975880852"><ele>373.0</ele><time>2026-04-05T08:16:42.008Z</time></trkpt><trkpt lat="43.10276651883789" lon="2.07803705400652"><ele>373.0</ele><time>2026-04-05T08:16:43.008Z</time></trkpt><trkpt lat="43.10262552998781" lon="2.0779972293577877"><ele>373.0</ele><time>2026-04-05T08:16:44.008Z</time></trkpt><trkpt lat="43.10247116968033" lon="2.0779251662894342"><ele>373.0</ele><time>2026-04-05T08:16:45.008Z</time></trkpt><trkpt lat="43.10231068139997" lon="2.0778612835405736"><ele>370.0</ele><time>2026-04-05T08:16:46.008Z</time></trkpt><trkpt lat="43.10216503871954" lon="2.0777846432266043"><ele>367.0</ele><time>2026-04-05T08:16:47.008Z</time></trkpt><trkpt lat="43.10204383193779" lon="2.0777382795401786"><ele>364.0</ele><time>2026-04-05T08:16:48.008Z</time></trkpt><trkpt lat="43.10192641341266" lon="2.077689198146484"><ele>361.0</ele><time>2026-04-05T08:16:49.008Z</time></trkpt><trkpt lat="43.101798435153015" lon="2.077659715809955"><ele>361.0</ele><time>2026-04-05T08:16:50.008Z</time></trkpt><trkpt lat="43.10167248648603" lon="2.0776211856851865"><ele>361.0</ele><time>2026-04-05T08:16:51.008Z</time></trkpt><trkpt lat="43.101536828509815" lon="2.077577979514261"><ele>361.0</ele><time>2026-04-05T08:16:52.008Z</time></trkpt><trkpt lat="43.10139691485865" lon="2.0775575049499637"><ele>361.0</ele><time>2026-04-05T08:16:53.008Z</time></trkpt><trkpt lat="43.10124438393319" lon="2.0775474812521773"><ele>357.66666666666663</ele><time>2026-04-05T08:16:54.008Z</time></trkpt><trkpt lat="43.10108858713456" lon="2.0775422745337178"><ele>354.3333333333333</ele><time>2026-04-05T08:16:55.008Z</time></trkpt><trkpt lat="43.10092983979012" lon="2.0775381411959057"><ele>351.0</ele><time>2026-04-05T08:16:56.008Z</time></trkpt><trkpt lat="43.10078058224928" lon="2.0775342894856164"><ele>349.25</ele><time>2026-04-05T08:16:57.008Z</time></trkpt><trkpt lat="43.10063675486746" lon="2.07752861264322"><ele>347.5</ele><time>2026-04-05T08:16:58.008Z</time></trkpt><trkpt lat="43.10050174032621" lon="2.077545069665199"><ele>345.75</ele><time>2026-04-05T08:16:59.008Z</time></trkpt><trkpt lat="43.1003637502848" lon="2.077562754443362"><ele>344.0</ele><time>2026-04-05T08:17:00.008Z</time></trkpt><trkpt lat="43.10021990750775" lon="2.0775842288506077"><ele>344.0</ele><time>2026-04-05T08:17:01.008Z</time></trkpt><trkpt lat="43.100076223620896" lon="2.077612061202431"><ele>344.0</ele><time>2026-04-05T08:17:02.008Z</time></trkpt><trkpt lat="43.099936633517316" lon="2.077634490663859"><ele>344.0</ele><time>2026-04-05T08:17:03.008Z</time></trkpt><trkpt lat="43.09980905973494" lon="2.0776488006236025"><ele>344.0</ele><time>2026-04-05T08:17:04.008Z</time></trkpt><trkpt lat="43.099675404169794" lon="2.077670777400853"><ele>343.0</ele><time>2026-04-05T08:17:05.008Z</time></trkpt><trkpt lat="43.09953866770156" lon="2.0776826663048276"><ele>342.0</ele><time>2026-04-05T08:17:06.008Z</time></trkpt><trkpt lat="43.09940158347079" lon="2.0776784839505424"><ele>341.0</ele><time>2026-04-05T08:17:07.008Z</time></trkpt><trkpt lat="43.099267870710136" lon="2.077657928842497"><ele>340.0</ele><time>2026-04-05T08:17:08.008Z</time></trkpt><trkpt lat="43.09913704719101" lon="2.077611276779238"><ele>338.0</ele><time>2026-04-05T08:17:09.008Z</time></trkpt><trkpt lat="43.09900095958372" lon="2.077541336771415"><ele>336.0</ele><time>2026-04-05T08:17:10.008Z</time></trkpt><trkpt lat="43.098874781096534" lon="2.0774726509923265"><ele>334.0</ele><time>2026-04-05T08:17:11.008Z</time></trkpt><trkpt lat="43.09874641278777" lon="2.0774082079209264"><ele>332.0</ele><time>2026-04-05T08:17:12.008Z</time></trkpt><trkpt lat="43.098620802704524" lon="2.0773488504709663"><ele>336.0</ele><time>2026-04-05T08:17:13.008Z</time></trkpt><trkpt lat="43.098505847661464" lon="2.077275354711713"><ele>340.0</ele><time>2026-04-05T08:17:14.008Z</time></trkpt><trkpt lat="43.09839095856024" lon="2.077232700276247"><ele>344.0</ele><time>2026-04-05T08:17:15.008Z</time></trkpt><trkpt lat="43.098277663637475" lon="2.077236926573399"><ele>348.0</ele><time>2026-04-05T08:17:16.008Z</time></trkpt><trkpt lat="43.09814941120888" lon="2.0772151619368535"><ele>348.0</ele><time>2026-04-05T08:17:17.008Z</time></trkpt><trkpt lat="43.0980270893858" lon="2.0772290774970497"><ele>348.0</ele><time>2026-04-05T08:17:18.008Z</time></trkpt><trkpt lat="43.09791812312147" lon="2.0772644482739597"><ele>348.0</ele><time>2026-04-05T08:17:19.008Z</time></trkpt><trkpt lat="43.097829564406766" lon="2.077343822904962"><ele>348.0</ele><time>2026-04-05T08:17:20.008Z</time></trkpt><trkpt lat="43.097752018528794" lon="2.0774310330527594"><ele>348.0</ele><time>2026-04-05T08:17:21.009Z</time></trkpt><trkpt lat="43.09768925153052" lon="2.0775354951253138"><ele>345.0</ele><time>2026-04-05T08:17:22.009Z</time></trkpt><trkpt lat="43.097638476121915" lon="2.077663290874985"><ele>342.0</ele><time>2026-04-05T08:17:23.009Z</time></trkpt><trkpt lat="43.09760779245273" lon="2.0777939017168308"><ele>339.0</ele><time>2026-04-05T08:17:24.009Z</time></trkpt><trkpt lat="43.09758885893732" lon="2.0779056723141904"><ele>336.0</ele><time>2026-04-05T08:17:25.009Z</time></trkpt><trkpt lat="43.09760929060214" lon="2.0779998179769033"><ele>333.0</ele><time>2026-04-05T08:17:26.009Z</time></trkpt><trkpt lat="43.09770275984698" lon="2.078126201309181"><ele>333.0</ele><time>2026-04-05T08:17:28.009Z</time></trkpt><trkpt lat="43.097774354427806" lon="2.078226496775724"><ele>333.0</ele><time>2026-04-05T08:17:29.009Z</time></trkpt><trkpt lat="43.09785003959913" lon="2.078296433049913"><ele>333.0</ele><time>2026-04-05T08:17:30.009Z</time></trkpt><trkpt lat="43.09793464916113" lon="2.078372907170726"><ele>333.0</ele><time>2026-04-05T08:17:31.009Z</time></trkpt><trkpt lat="43.098009148875335" lon="2.078448027086995"><ele>333.0</ele><time>2026-04-05T08:17:32.009Z</time></trkpt><trkpt lat="43.09806805752255" lon="2.0785074261661656"><ele>333.0</ele><time>2026-04-05T08:17:33.009Z</time></trkpt><trkpt lat="43.0981384720789" lon="2.0785967339552154"><ele>333.0</ele><time>2026-04-05T08:17:35.009Z</time></trkpt><trkpt lat="43.097848764713554" lon="2.0791554116401394"><ele>336.0</ele><time>2026-04-05T08:17:36.009Z</time></trkpt><trkpt lat="43.09777269102621" lon="2.0792215864407297"><ele>339.0</ele><time>2026-04-05T08:17:37.009Z</time></trkpt><trkpt lat="43.09770782851747" lon="2.0792770222681654"><ele>342.0</ele><time>2026-04-05T08:17:38.009Z</time></trkpt><trkpt lat="43.097703087283335" lon="2.079441783639325"><ele>345.0</ele><time>2026-04-05T08:17:40.009Z</time></trkpt><trkpt lat="43.09776430851738" lon="2.0795207785198717"><ele>348.0</ele><time>2026-04-05T08:17:41.009Z</time></trkpt><trkpt lat="43.09782105707343" lon="2.079569731192503"><ele>351.0</ele><time>2026-04-05T08:17:42.009Z</time></trkpt><trkpt lat="43.09790535127084" lon="2.0796786107322376"><ele>351.0</ele><time>2026-04-05T08:17:44.009Z</time></trkpt><trkpt lat="43.09788498725528" lon="2.079835895518578"><ele>351.0</ele><time>2026-04-05T08:17:46.009Z</time></trkpt><trkpt lat="43.09780532584077" lon="2.0799064473859064"><ele>351.0</ele><time>2026-04-05T08:17:48.009Z</time></trkpt><trkpt lat="43.09773166667666" lon="2.0799157847296197"><ele>351.0</ele><time>2026-04-05T08:17:49.009Z</time></trkpt><trkpt lat="43.09765453400461" lon="2.0798951225846625"><ele>351.0</ele><time>2026-04-05T08:17:50.009Z</time></trkpt><trkpt lat="43.097566246818076" lon="2.079845700547454"><ele>351.0</ele><time>2026-04-05T08:17:51.009Z</time></trkpt><trkpt lat="43.09747018112816" lon="2.079780004161484"><ele>351.0</ele><time>2026-04-05T08:17:52.009Z</time></trkpt><trkpt lat="43.09737470422165" lon="2.0797320173229346"><ele>351.0</ele><time>2026-04-05T08:17:53.009Z</time></trkpt><trkpt lat="43.0972725286491" lon="2.0796999365418163"><ele>351.0</ele><time>2026-04-05T08:17:54.009Z</time></trkpt><trkpt lat="43.09715127592911" lon="2.0796865114004692"><ele>351.0</ele><time>2026-04-05T08:17:55.009Z</time></trkpt><trkpt lat="43.09701053915505" lon="2.079687271740753"><ele>353.0</ele><time>2026-04-05T08:17:56.009Z</time></trkpt><trkpt lat="43.09713470199131" lon="2.079328214798127"><ele>355.0</ele><time>2026-04-05T08:17:57.009Z</time></trkpt><trkpt lat="43.09702226481946" lon="2.079234027309619"><ele>357.0</ele><time>2026-04-05T08:17:58.009Z</time></trkpt><trkpt lat="43.09690561126043" lon="2.0791558218869035"><ele>354.0</ele><time>2026-04-05T08:17:59.009Z</time></trkpt><trkpt lat="43.09678848895368" lon="2.0790922098382185"><ele>351.0</ele><time>2026-04-05T08:18:00.009Z</time></trkpt><trkpt lat="43.096674185342394" lon="2.0790450992571747"><ele>348.0</ele><time>2026-04-05T08:18:01.009Z</time></trkpt><trkpt lat="43.096557472736635" lon="2.079021719764347"><ele>345.0</ele><time>2026-04-05T08:18:02.009Z</time></trkpt><trkpt lat="43.096440774157315" lon="2.079012146962899"><ele>345.0</ele><time>2026-04-05T08:18:03.009Z</time></trkpt><trkpt lat="43.096343219698866" lon="2.07901856012855"><ele>345.0</ele><time>2026-04-05T08:18:04.009Z</time></trkpt><trkpt lat="43.09623718201748" lon="2.0790388356291447"><ele>345.0</ele><time>2026-04-05T08:18:05.009Z</time></trkpt><trkpt lat="43.09612007212704" lon="2.0790814793533046"><ele>345.0</ele><time>2026-04-05T08:18:06.009Z</time></trkpt><trkpt lat="43.096001789946556" lon="2.07913705836553"><ele>347.2</ele><time>2026-04-05T08:18:07.009Z</time></trkpt><trkpt lat="43.0958852764005" lon="2.079188650041635"><ele>349.4</ele><time>2026-04-05T08:18:08.009Z</time></trkpt><trkpt lat="43.09578082544114" lon="2.0792226260333084"><ele>351.6</ele><time>2026-04-05T08:18:09.009Z</time></trkpt><trkpt lat="43.095687042547304" lon="2.0792458340405653"><ele>353.8</ele><time>2026-04-05T08:18:10.009Z</time></trkpt><trkpt lat="43.09562155550399" lon="2.079230074885069"><ele>356.0</ele><time>2026-04-05T08:18:11.009Z</time></trkpt><trkpt lat="43.09558644162101" lon="2.079118943864746"><ele>356.0</ele><time>2026-04-05T08:18:13.009Z</time></trkpt><trkpt lat="43.095567582607494" lon="2.0790041801347057"><ele>356.0</ele><time>2026-04-05T08:18:15.009Z</time></trkpt><trkpt lat="43.095579251337" lon="2.078884862366467"><ele>356.0</ele><time>2026-04-05T08:18:18.009Z</time></trkpt><trkpt lat="43.09560500750797" lon="2.0787321125792886"><ele>356.0</ele><time>2026-04-05T08:18:20.009Z</time></trkpt><trkpt lat="43.09557305087207" lon="2.0786249475793843"><ele>356.0</ele><time>2026-04-05T08:18:22.009Z</time></trkpt><trkpt lat="43.09556170775564" lon="2.0787247579814996"><ele>356.0</ele><time>2026-04-05T08:18:26.009Z</time></trkpt><trkpt lat="43.095621889964214" lon="2.078899219943664"><ele>356.0</ele><time>2026-04-05T08:18:28.009Z</time></trkpt><trkpt lat="43.095618157396004" lon="2.079010639214748"><ele>356.0</ele><time>2026-04-05T08:18:29.009Z</time></trkpt><trkpt lat="43.095580110384624" lon="2.0791024695051417"><ele>356.0</ele><time>2026-04-05T08:18:32.009Z</time></trkpt><trkpt lat="43.095517079414485" lon="2.0791851479967356"><ele>356.0</ele><time>2026-04-05T08:18:34.009Z</time></trkpt><trkpt lat="43.09546781815004" lon="2.0792524940864263"><ele>356.0</ele><time>2026-04-05T08:18:35.009Z</time></trkpt><trkpt lat="43.09537878078346" lon="2.0793181174369635"><ele>356.0</ele><time>2026-04-05T08:18:36.009Z</time></trkpt><trkpt lat="43.09529487064095" lon="2.0793391765253015"><ele>356.0</ele><time>2026-04-05T08:18:37.009Z</time></trkpt><trkpt lat="43.09521651304684" lon="2.079285250891572"><ele>356.0</ele><time>2026-04-05T08:18:39.009Z</time></trkpt><trkpt lat="43.09520439449403" lon="2.079125333817512"><ele>356.0</ele><time>2026-04-05T08:18:41.009Z</time></trkpt><trkpt lat="43.095207729880315" lon="2.0790223250698863"><ele>356.0</ele><time>2026-04-05T08:18:42.009Z</time></trkpt><trkpt lat="43.095195188306015" lon="2.0789304737111847"><ele>356.0</ele><time>2026-04-05T08:18:43.009Z</time></trkpt><trkpt lat="43.095136583641334" lon="2.0788441469283203"><ele>356.0</ele><time>2026-04-05T08:18:44.009Z</time></trkpt><trkpt lat="43.095031665290875" lon="2.0788121092370075"><ele>357.8</ele><time>2026-04-05T08:18:45.009Z</time></trkpt><trkpt lat="43.09490819482825" lon="2.0788193827230623"><ele>359.6</ele><time>2026-04-05T08:18:46.009Z</time></trkpt><trkpt lat="43.09481277321818" lon="2.078839579674233"><ele>361.4</ele><time>2026-04-05T08:18:47.01Z</time></trkpt><trkpt lat="43.09474482488975" lon="2.078873073562076"><ele>363.2</ele><time>2026-04-05T08:18:48.01Z</time></trkpt><trkpt lat="43.09468419378427" lon="2.0789375061778386"><ele>365.0</ele><time>2026-04-05T08:18:49.01Z</time></trkpt><trkpt lat="43.09461441191911" lon="2.0790168291956035"><ele>365.0</ele><time>2026-04-05T08:18:50.01Z</time></trkpt><trkpt lat="43.094528412859695" lon="2.0790873920137556"><ele>365.0</ele><time>2026-04-05T08:18:51.01Z</time></trkpt><trkpt lat="43.09443109757951" lon="2.0791617572529875"><ele>365.0</ele><time>2026-04-05T08:18:52.01Z</time></trkpt><trkpt lat="43.094344509988304" lon="2.0792531641180547"><ele>365.0</ele><time>2026-04-05T08:18:53.01Z</time></trkpt><trkpt lat="43.0942516850161" lon="2.079342192676828"><ele>365.0</ele><time>2026-04-05T08:18:54.01Z</time></trkpt><trkpt lat="43.09416094178096" lon="2.079433647097926"><ele>368.75</ele><time>2026-04-05T08:18:55.01Z</time></trkpt><trkpt lat="43.09408567097231" lon="2.0795392021991432"><ele>372.5</ele><time>2026-04-05T08:18:56.01Z</time></trkpt><trkpt lat="43.09403406715306" lon="2.0796820450308275"><ele>376.25</ele><time>2026-04-05T08:18:57.01Z</time></trkpt><trkpt lat="43.09398492113985" lon="2.0798562515774046"><ele>380.0</ele><time>2026-04-05T08:18:58.01Z</time></trkpt><trkpt lat="43.09392341752099" lon="2.08003309216663"><ele>383.5</ele><time>2026-04-05T08:18:59.01Z</time></trkpt><trkpt lat="43.093848948071845" lon="2.080201568537746"><ele>387.0</ele><time>2026-04-05T08:19:00.01Z</time></trkpt><trkpt lat="43.09377468749594" lon="2.0803813151250568"><ele>390.5</ele><time>2026-04-05T08:19:01.01Z</time></trkpt><trkpt lat="43.09370752118065" lon="2.080536703028231"><ele>394.0</ele><time>2026-04-05T08:19:02.01Z</time></trkpt><trkpt lat="43.09364493316546" lon="2.080692066882296"><ele>396.4</ele><time>2026-04-05T08:19:03.01Z</time></trkpt><trkpt lat="43.09359854726986" lon="2.0808451969704844"><ele>398.79999999999995</ele><time>2026-04-05T08:19:04.01Z</time></trkpt><trkpt lat="43.093542766278496" lon="2.0809845532055227"><ele>401.20000000000005</ele><time>2026-04-05T08:19:05.01Z</time></trkpt><trkpt lat="43.09348995579087" lon="2.0811019213458644"><ele>403.6</ele><time>2026-04-05T08:19:06.01Z</time></trkpt><trkpt lat="43.09343078888599" lon="2.0812249526054925"><ele>406.0</ele><time>2026-04-05T08:19:07.01Z</time></trkpt><trkpt lat="43.09336573507247" lon="2.081387162672485"><ele>406.0</ele><time>2026-04-05T08:19:08.01Z</time></trkpt><trkpt lat="43.09329629104384" lon="2.0815633655689814"><ele>406.0</ele><time>2026-04-05T08:19:09.01Z</time></trkpt><trkpt lat="43.09323295076416" lon="2.081739423261795"><ele>406.0</ele><time>2026-04-05T08:19:10.01Z</time></trkpt><trkpt lat="43.09317667642751" lon="2.081889045848599"><ele>406.0</ele><time>2026-04-05T08:19:11.01Z</time></trkpt><trkpt lat="43.09313786671217" lon="2.082013208857091"><ele>407.83333333333337</ele><time>2026-04-05T08:19:12.01Z</time></trkpt><trkpt lat="43.09311317630591" lon="2.0821054675659383"><ele>409.6666666666667</ele><time>2026-04-05T08:19:13.01Z</time></trkpt><trkpt lat="43.09306681038412" lon="2.0821810961869573"><ele>411.5</ele><time>2026-04-05T08:19:15.01Z</time></trkpt><trkpt lat="43.09299211110876" lon="2.082247592752666"><ele>413.33333333333337</ele><time>2026-04-05T08:19:17.01Z</time></trkpt><trkpt lat="43.0929178152795" lon="2.082303215114699"><ele>415.1666666666667</ele><time>2026-04-05T08:19:20.01Z</time></trkpt><trkpt lat="43.09286233689436" lon="2.082377135925657"><ele>417.0</ele><time>2026-04-05T08:19:22.01Z</time></trkpt><trkpt lat="43.09281689340131" lon="2.0824423995778996"><ele>418.40000000000003</ele><time>2026-04-05T08:19:23.01Z</time></trkpt><trkpt lat="43.0927600429023" lon="2.0825059195958477"><ele>419.8</ele><time>2026-04-05T08:19:24.01Z</time></trkpt><trkpt lat="43.09269944302104" lon="2.082576957351563"><ele>421.2</ele><time>2026-04-05T08:19:25.01Z</time></trkpt><trkpt lat="43.092628900091206" lon="2.082666660943285"><ele>422.6</ele><time>2026-04-05T08:19:26.01Z</time></trkpt><trkpt lat="43.09255112577343" lon="2.0827845395226325"><ele>424.0</ele><time>2026-04-05T08:19:27.01Z</time></trkpt><trkpt lat="43.09245326195884" lon="2.0829193278321165"><ele>423.0</ele><time>2026-04-05T08:19:28.01Z</time></trkpt><trkpt lat="43.09233636991452" lon="2.083050104307118"><ele>422.0</ele><time>2026-04-05T08:19:29.01Z</time></trkpt><trkpt lat="43.09223789174379" lon="2.0831657793454914"><ele>421.0</ele><time>2026-04-05T08:19:30.01Z</time></trkpt><trkpt lat="43.09215490359414" lon="2.0832804055865735"><ele>420.0</ele><time>2026-04-05T08:19:31.01Z</time></trkpt><trkpt lat="43.092086209873436" lon="2.083423471876205"><ele>420.0</ele><time>2026-04-05T08:19:32.01Z</time></trkpt><trkpt lat="43.092004658259185" lon="2.0835229213566233"><ele>420.0</ele><time>2026-04-05T08:19:33.01Z</time></trkpt><trkpt lat="43.091921218044774" lon="2.0835801279387836"><ele>420.0</ele><time>2026-04-05T08:19:34.01Z</time></trkpt><trkpt lat="43.09186697578215" lon="2.0837042407958415"><ele>420.0</ele><time>2026-04-05T08:19:35.01Z</time></trkpt><trkpt lat="43.09180462396541" lon="2.0837939368222314"><ele>420.0</ele><time>2026-04-05T08:19:36.01Z</time></trkpt><trkpt lat="43.091729483914314" lon="2.0838468229016334"><ele>420.0</ele><time>2026-04-05T08:19:38.01Z</time></trkpt><trkpt lat="43.09166487140016" lon="2.0838746005719404"><ele>420.0</ele><time>2026-04-05T08:19:39.01Z</time></trkpt><trkpt lat="43.09159097335049" lon="2.0839346537547945"><ele>420.0</ele><time>2026-04-05T08:19:40.01Z</time></trkpt><trkpt lat="43.091522555412894" lon="2.083994115033151"><ele>420.0</ele><time>2026-04-05T08:19:41.01Z</time></trkpt><trkpt lat="43.091430793667705" lon="2.0840179633170046"><ele>420.0</ele><time>2026-04-05T08:19:42.01Z</time></trkpt><trkpt lat="43.09134500165522" lon="2.0840314841641767"><ele>420.0</ele><time>2026-04-05T08:19:43.01Z</time></trkpt><trkpt lat="43.091281995516816" lon="2.0840453296294843"><ele>421.1666666666667</ele><time>2026-04-05T08:19:44.01Z</time></trkpt><trkpt lat="43.09122291544406" lon="2.08410168169471"><ele>422.33333333333337</ele><time>2026-04-05T08:19:45.01Z</time></trkpt><trkpt lat="43.09117246274808" lon="2.084202987346712"><ele>423.5</ele><time>2026-04-05T08:19:46.01Z</time></trkpt><trkpt lat="43.09111225555898" lon="2.084277258586732"><ele>424.6666666666667</ele><time>2026-04-05T08:19:47.01Z</time></trkpt><trkpt lat="43.091050649021035" lon="2.0843491252009057"><ele>425.83333333333337</ele><time>2026-04-05T08:19:48.01Z</time></trkpt><trkpt lat="43.09096625679316" lon="2.084455177959168"><ele>427.0</ele><time>2026-04-05T08:19:49.01Z</time></trkpt><trkpt lat="43.09088756696935" lon="2.084580856487526"><ele>427.0</ele><time>2026-04-05T08:19:50.01Z</time></trkpt><trkpt lat="43.09083939230009" lon="2.0847039379460197"><ele>427.00000000000006</ele><time>2026-04-05T08:19:51.01Z</time></trkpt><trkpt lat="43.09080657000787" lon="2.0848011776274458"><ele>427.00000000000006</ele><time>2026-04-05T08:19:52.01Z</time></trkpt><trkpt lat="43.09074827374305" lon="2.084892131176342"><ele>427.0</ele><time>2026-04-05T08:19:53.01Z</time></trkpt><trkpt lat="43.09067567534621" lon="2.0849657574017044"><ele>427.0</ele><time>2026-04-05T08:19:54.01Z</time></trkpt><trkpt lat="43.09058245562792" lon="2.085039406892281"><ele>424.40000000000003</ele><time>2026-04-05T08:19:55.01Z</time></trkpt><trkpt lat="43.09050139989786" lon="2.0851176856788842"><ele>421.80000000000007</ele><time>2026-04-05T08:19:56.01Z</time></trkpt><trkpt lat="43.09043828907045" lon="2.0852163964097743"><ele>419.2</ele><time>2026-04-05T08:19:57.01Z</time></trkpt><trkpt lat="43.09038484094583" lon="2.0853353461906132"><ele>416.6</ele><time>2026-04-05T08:19:58.01Z</time></trkpt><trkpt lat="43.09031504406882" lon="2.085435175312617"><ele>414.0</ele><time>2026-04-05T08:19:59.01Z</time></trkpt><trkpt lat="43.09025074231366" lon="2.0855343995278894"><ele>414.0</ele><time>2026-04-05T08:20:00.01Z</time></trkpt><trkpt lat="43.09018473384187" lon="2.085630157045466"><ele>414.0</ele><time>2026-04-05T08:20:01.01Z</time></trkpt><trkpt lat="43.09011462334215" lon="2.085731865366575"><ele>414.0</ele><time>2026-04-05T08:20:02.01Z</time></trkpt><trkpt lat="43.090037234655554" lon="2.085837698322159"><ele>414.0</ele><time>2026-04-05T08:20:03.01Z</time></trkpt><trkpt lat="43.08996234151517" lon="2.085912606566178"><ele>414.0</ele><time>2026-04-05T08:20:04.01Z</time></trkpt><trkpt lat="43.08988617208178" lon="2.0859511072497807"><ele>413.6666666666667</ele><time>2026-04-05T08:20:05.01Z</time></trkpt><trkpt lat="43.089811133000914" lon="2.085988555638789"><ele>413.33333333333337</ele><time>2026-04-05T08:20:06.01Z</time></trkpt><trkpt lat="43.089744618709595" lon="2.086018111329432"><ele>413.0</ele><time>2026-04-05T08:20:07.01Z</time></trkpt><trkpt lat="43.0896575476608" lon="2.086056023695169"><ele>412.6666666666667</ele><time>2026-04-05T08:20:08.01Z</time></trkpt><trkpt lat="43.08959129782631" lon="2.086097782254465"><ele>412.33333333333337</ele><time>2026-04-05T08:20:09.01Z</time></trkpt><trkpt lat="43.089496184632665" lon="2.0860601091832893"><ele>412.0</ele><time>2026-04-05T08:20:11.01Z</time></trkpt><trkpt lat="43.08942691118089" lon="2.0860268150496584"><ele>412.0</ele><time>2026-04-05T08:20:12.01Z</time></trkpt><trkpt lat="43.08936501245209" lon="2.0859899078423574"><ele>412.0</ele><time>2026-04-05T08:20:13.011Z</time></trkpt><trkpt lat="43.08925458789466" lon="2.085876281131409"><ele>412.0</ele><time>2026-04-05T08:20:15.011Z</time></trkpt><trkpt lat="43.08915906358523" lon="2.0857915369491944"><ele>412.0</ele><time>2026-04-05T08:20:16.011Z</time></trkpt><trkpt lat="43.08909605328636" lon="2.0857294217217497"><ele>412.0</ele><time>2026-04-05T08:20:17.011Z</time></trkpt><trkpt lat="43.089014819209396" lon="2.085687690541604"><ele>407.75</ele><time>2026-04-05T08:20:18.011Z</time></trkpt><trkpt lat="43.08889427144412" lon="2.0856466977455868"><ele>403.5</ele><time>2026-04-05T08:20:19.011Z</time></trkpt><trkpt lat="43.08876125468294" lon="2.0855971672064557"><ele>399.25</ele><time>2026-04-05T08:20:20.011Z</time></trkpt><trkpt lat="43.08866317389046" lon="2.0855337472681885"><ele>395.0</ele><time>2026-04-05T08:20:21.011Z</time></trkpt><trkpt lat="43.08856301716052" lon="2.0854873793683875"><ele>395.0</ele><time>2026-04-05T08:20:22.011Z</time></trkpt><trkpt lat="43.08844306473736" lon="2.085468275995905"><ele>395.0</ele><time>2026-04-05T08:20:23.011Z</time></trkpt><trkpt lat="43.0883379861875" lon="2.0854366633447095"><ele>395.0</ele><time>2026-04-05T08:20:24.011Z</time></trkpt><trkpt lat="43.08823586093277" lon="2.0853995189962373"><ele>395.0</ele><time>2026-04-05T08:20:25.011Z</time></trkpt><trkpt lat="43.0881350078322" lon="2.085400242033498"><ele>395.0</ele><time>2026-04-05T08:20:26.011Z</time></trkpt><trkpt lat="43.0880367241593" lon="2.0854165462658663"><ele>394.49999999999994</ele><time>2026-04-05T08:20:27.011Z</time></trkpt><trkpt lat="43.08794211877287" lon="2.085423315662123"><ele>394.0</ele><time>2026-04-05T08:20:28.011Z</time></trkpt><trkpt lat="43.08786249762517" lon="2.085408714447216"><ele>393.5</ele><time>2026-04-05T08:20:29.011Z</time></trkpt><trkpt lat="43.08779871596433" lon="2.085364863320437"><ele>393.0</ele><time>2026-04-05T08:20:30.011Z</time></trkpt><trkpt lat="43.087759244397304" lon="2.0852094094351274"><ele>392.49999999999994</ele><time>2026-04-05T08:20:31.011Z</time></trkpt><trkpt lat="43.087698761959" lon="2.0851832567517112"><ele>392.0</ele><time>2026-04-05T08:20:32.011Z</time></trkpt><trkpt lat="43.08760846382169" lon="2.0852633062522608"><ele>392.0</ele><time>2026-04-05T08:20:34.011Z</time></trkpt><trkpt lat="43.08758152684375" lon="2.085453401955987"><ele>392.0</ele><time>2026-04-05T08:20:36.011Z</time></trkpt><trkpt lat="43.08755205131567" lon="2.085600085923283"><ele>392.0</ele><time>2026-04-05T08:20:37.011Z</time></trkpt><trkpt lat="43.087539795670345" lon="2.085780284136175"><ele>392.0</ele><time>2026-04-05T08:20:38.011Z</time></trkpt><trkpt lat="43.08750497273891" lon="2.085960780003871"><ele>392.66666666666663</ele><time>2026-04-05T08:20:39.011Z</time></trkpt><trkpt lat="43.08746938343847" lon="2.0861738418053104"><ele>393.33333333333337</ele><time>2026-04-05T08:20:40.011Z</time></trkpt><trkpt lat="43.08743079695723" lon="2.086400929196714"><ele>394.0</ele><time>2026-04-05T08:20:41.011Z</time></trkpt><trkpt lat="43.08740130065225" lon="2.086601712696991"><ele>390.33333333333337</ele><time>2026-04-05T08:20:42.011Z</time></trkpt><trkpt lat="43.087370873037834" lon="2.0867890584189084"><ele>386.6666666666667</ele><time>2026-04-05T08:20:43.011Z</time></trkpt><trkpt lat="43.0873364689592" lon="2.0869895250776014"><ele>383.0</ele><time>2026-04-05T08:20:44.011Z</time></trkpt><trkpt lat="43.0873064185482" lon="2.087210554714282"><ele>383.0</ele><time>2026-04-05T08:20:45.011Z</time></trkpt><trkpt lat="43.08725558505618" lon="2.087418254613762"><ele>383.0</ele><time>2026-04-05T08:20:46.011Z</time></trkpt><trkpt lat="43.087225533467866" lon="2.0875776596174833"><ele>383.0</ele><time>2026-04-05T08:20:47.011Z</time></trkpt><trkpt lat="43.08718154776483" lon="2.08770427643971"><ele>383.0</ele><time>2026-04-05T08:20:48.011Z</time></trkpt><trkpt lat="43.08710040168461" lon="2.0877755653836183"><ele>383.79999999999995</ele><time>2026-04-05T08:20:49.011Z</time></trkpt><trkpt lat="43.0870007275906" lon="2.087901795972865"><ele>384.6</ele><time>2026-04-05T08:20:50.011Z</time></trkpt><trkpt lat="43.08690440318112" lon="2.0880391654058843"><ele>385.4</ele><time>2026-04-05T08:20:51.011Z</time></trkpt><trkpt lat="43.08686739811248" lon="2.088163873301244"><ele>386.20000000000005</ele><time>2026-04-05T08:20:52.011Z</time></trkpt><trkpt lat="43.08686528917466" lon="2.088261503424732"><ele>387.0</ele><time>2026-04-05T08:20:53.011Z</time></trkpt><trkpt lat="43.0869013576549" lon="2.0883694389144254"><ele>387.40000000000003</ele><time>2026-04-05T08:20:54.011Z</time></trkpt><trkpt lat="43.08695055764788" lon="2.088464570536684"><ele>387.8</ele><time>2026-04-05T08:20:55.011Z</time></trkpt><trkpt lat="43.08689816607627" lon="2.0885580003109316"><ele>388.2</ele><time>2026-04-05T08:20:59.011Z</time></trkpt><trkpt lat="43.086804262361625" lon="2.0885647779077865"><ele>388.6</ele><time>2026-04-05T08:21:00.011Z</time></trkpt><trkpt lat="43.086678223462336" lon="2.088552080002053"><ele>389.0</ele><time>2026-04-05T08:21:01.011Z</time></trkpt><trkpt lat="43.08654328933224" lon="2.0885611665697086"><ele>389.25</ele><time>2026-04-05T08:21:02.011Z</time></trkpt><trkpt lat="43.086403896837346" lon="2.0885955212056393"><ele>389.5</ele><time>2026-04-05T08:21:03.011Z</time></trkpt><trkpt lat="43.086252837801304" lon="2.088648597827997"><ele>389.75</ele><time>2026-04-05T08:21:04.011Z</time></trkpt><trkpt lat="43.08611624097304" lon="2.08868350603414"><ele>390.0</ele><time>2026-04-05T08:21:05.011Z</time></trkpt><trkpt lat="43.08599183168212" lon="2.0886931148298764"><ele>390.0</ele><time>2026-04-05T08:21:06.011Z</time></trkpt><trkpt lat="43.08591500753829" lon="2.0887173291033356"><ele>390.0</ele><time>2026-04-05T08:21:07.011Z</time></trkpt><trkpt lat="43.0857905786219" lon="2.088857248028136"><ele>390.0</ele><time>2026-04-05T08:21:08.011Z</time></trkpt><trkpt lat="43.08570580509321" lon="2.088986459259615"><ele>390.0</ele><time>2026-04-05T08:21:09.011Z</time></trkpt><trkpt lat="43.08561567712893" lon="2.0891349048061447"><ele>388.0</ele><time>2026-04-05T08:21:10.011Z</time></trkpt><trkpt lat="43.085522653506494" lon="2.089290593323396"><ele>386.0</ele><time>2026-04-05T08:21:11.011Z</time></trkpt><trkpt lat="43.08544173500403" lon="2.089432375883192"><ele>384.0</ele><time>2026-04-05T08:21:12.011Z</time></trkpt><trkpt lat="43.085365477618275" lon="2.0895524172814706"><ele>382.0</ele><time>2026-04-05T08:21:13.011Z</time></trkpt><trkpt lat="43.08528907592793" lon="2.0896700904081835"><ele>382.0</ele><time>2026-04-05T08:21:14.011Z</time></trkpt><trkpt lat="43.08523004048617" lon="2.0897702602628896"><ele>382.0</ele><time>2026-04-05T08:21:15.011Z</time></trkpt><trkpt lat="43.08515688753488" lon="2.089874874725563"><ele>382.0</ele><time>2026-04-05T08:21:16.011Z</time></trkpt><trkpt lat="43.08506991233498" lon="2.0899892582885125"><ele>382.0</ele><time>2026-04-05T08:21:17.011Z</time></trkpt><trkpt lat="43.08499432959063" lon="2.0901047712725926"><ele>382.0</ele><time>2026-04-05T08:21:18.011Z</time></trkpt><trkpt lat="43.08481614866343" lon="2.0900908282466855"><ele>378.8</ele><time>2026-04-05T08:21:19.011Z</time></trkpt><trkpt lat="43.08475370818093" lon="2.0901953760255276"><ele>375.6</ele><time>2026-04-05T08:21:20.011Z</time></trkpt><trkpt lat="43.084682302974805" lon="2.090309241407022"><ele>372.40000000000003</ele><time>2026-04-05T08:21:21.011Z</time></trkpt><trkpt lat="43.08460355230962" lon="2.0904348201277974"><ele>369.20000000000005</ele><time>2026-04-05T08:21:22.011Z</time></trkpt><trkpt lat="43.08452792727209" lon="2.0905425401894027"><ele>366.0</ele><time>2026-04-05T08:21:23.011Z</time></trkpt><trkpt lat="43.08444746302398" lon="2.090658407291415"><ele>365.4</ele><time>2026-04-05T08:21:24.011Z</time></trkpt><trkpt lat="43.084380089048786" lon="2.090798930382453"><ele>364.8</ele><time>2026-04-05T08:21:25.011Z</time></trkpt><trkpt lat="43.084335855645975" lon="2.0909180673277934"><ele>364.2</ele><time>2026-04-05T08:21:26.011Z</time></trkpt><trkpt lat="43.08429696775237" lon="2.0910517075561645"><ele>363.59999999999997</ele><time>2026-04-05T08:21:27.011Z</time></trkpt><trkpt lat="43.08426378300307" lon="2.091182445678998"><ele>363.0</ele><time>2026-04-05T08:21:28.011Z</time></trkpt><trkpt lat="43.0842307240473" lon="2.091331178874512"><ele>363.0</ele><time>2026-04-05T08:21:29.011Z</time></trkpt><trkpt lat="43.08420301142845" lon="2.091487940807064"><ele>363.0</ele><time>2026-04-05T08:21:30.011Z</time></trkpt><trkpt lat="43.08418433326501" lon="2.0916468524897387"><ele>363.0</ele><time>2026-04-05T08:21:31.011Z</time></trkpt><trkpt lat="43.08416208890494" lon="2.0918021150938544"><ele>363.0</ele><time>2026-04-05T08:21:32.011Z</time></trkpt><trkpt lat="43.08412814635967" lon="2.0919594800206758"><ele>360.0</ele><time>2026-04-05T08:21:33.011Z</time></trkpt><trkpt lat="43.08408174388259" lon="2.092118699508461"><ele>357.0</ele><time>2026-04-05T08:21:34.011Z</time></trkpt><trkpt lat="43.08403761851827" lon="2.0922723207454608"><ele>354.0</ele><time>2026-04-05T08:21:35.011Z</time></trkpt><trkpt lat="43.08399687292473" lon="2.0924188505034045"><ele>351.0</ele><time>2026-04-05T08:21:36.011Z</time></trkpt><trkpt lat="43.08396251992216" lon="2.092590735618521"><ele>351.0</ele><time>2026-04-05T08:21:37.011Z</time></trkpt><trkpt lat="43.08390680249388" lon="2.0927408467133928"><ele>351.0</ele><time>2026-04-05T08:21:38.011Z</time></trkpt><trkpt lat="43.08385744610218" lon="2.092920814839192"><ele>351.0</ele><time>2026-04-05T08:21:39.012Z</time></trkpt><trkpt lat="43.08380852431945" lon="2.0930922990612832"><ele>351.0</ele><time>2026-04-05T08:21:40.012Z</time></trkpt><trkpt lat="43.083768018663754" lon="2.0932299238716015"><ele>351.3333333333333</ele><time>2026-04-05T08:21:41.012Z</time></trkpt><trkpt lat="43.083731327333076" lon="2.0933452302661113"><ele>351.6666666666667</ele><time>2026-04-05T08:21:42.012Z</time></trkpt><trkpt lat="43.08369527843618" lon="2.0934539192731587"><ele>352.0</ele><time>2026-04-05T08:21:43.012Z</time></trkpt><trkpt lat="43.083662749667816" lon="2.093539891772675"><ele>352.33333333333337</ele><time>2026-04-05T08:21:44.012Z</time></trkpt><trkpt lat="43.08363705503429" lon="2.0936305027507056"><ele>352.6666666666667</ele><time>2026-04-05T08:21:45.012Z</time></trkpt><trkpt lat="43.08362358003522" lon="2.0937456415677174"><ele>353.0</ele><time>2026-04-05T08:21:47.012Z</time></trkpt><trkpt lat="43.08363060569289" lon="2.0938494119000324"><ele>353.0</ele><time>2026-04-05T08:21:50.012Z</time></trkpt><trkpt lat="43.08355892992361" lon="2.0939503814530216"><ele>353.0</ele><time>2026-04-05T08:21:53.012Z</time></trkpt><trkpt lat="43.08349705253147" lon="2.0940241640812816"><ele>353.0</ele><time>2026-04-05T08:21:54.012Z</time></trkpt><trkpt lat="43.08342532180596" lon="2.0941118466273334"><ele>353.0</ele><time>2026-04-05T08:21:55.012Z</time></trkpt><trkpt lat="43.083350716979105" lon="2.0942338070483877"><ele>353.0</ele><time>2026-04-05T08:21:56.012Z</time></trkpt><trkpt lat="43.083294478031604" lon="2.0943662071702125"><ele>353.33333333333337</ele><time>2026-04-05T08:21:57.012Z</time></trkpt><trkpt lat="43.08320523382277" lon="2.0945247548407564"><ele>353.6666666666667</ele><time>2026-04-05T08:21:58.012Z</time></trkpt><trkpt lat="43.08317615832949" lon="2.094629093146889"><ele>354.0</ele><time>2026-04-05T08:21:59.012Z</time></trkpt><trkpt lat="43.08268615032275" lon="2.0944135896115688"><ele>354.0</ele><time>2026-04-05T08:22:00.012Z</time></trkpt><trkpt lat="43.082516667402224" lon="2.094539883140436"><ele>354.0</ele><time>2026-04-05T08:22:01.012Z</time></trkpt><trkpt lat="43.08235401332409" lon="2.0946002134705095"><ele>354.0</ele><time>2026-04-05T08:22:02.012Z</time></trkpt><trkpt lat="43.082185053107814" lon="2.0946129530997557"><ele>352.6666666666667</ele><time>2026-04-05T08:22:03.012Z</time></trkpt><trkpt lat="43.08201157620745" lon="2.094618065201432"><ele>351.33333333333337</ele><time>2026-04-05T08:22:04.012Z</time></trkpt><trkpt lat="43.0818556548987" lon="2.0946227766092216"><ele>350.0</ele><time>2026-04-05T08:22:05.012Z</time></trkpt><trkpt lat="43.081716706035664" lon="2.0946562912156512"><ele>348.0</ele><time>2026-04-05T08:22:06.012Z</time></trkpt><trkpt lat="43.08156406491542" lon="2.0946782607549284"><ele>346.0</ele><time>2026-04-05T08:22:07.012Z</time></trkpt><trkpt lat="43.08139864106522" lon="2.0946986042870672"><ele>344.0</ele><time>2026-04-05T08:22:08.012Z</time></trkpt><trkpt lat="43.081239553112255" lon="2.0947258095252033"><ele>344.0</ele><time>2026-04-05T08:22:09.012Z</time></trkpt><trkpt lat="43.0811050852911" lon="2.0947652252147626"><ele>344.0</ele><time>2026-04-05T08:22:10.012Z</time></trkpt><trkpt lat="43.08099388391849" lon="2.094787093169738"><ele>344.0</ele><time>2026-04-05T08:22:11.012Z</time></trkpt><trkpt lat="43.08089943814827" lon="2.0948250358917004"><ele>344.0</ele><time>2026-04-05T08:22:12.012Z</time></trkpt><trkpt lat="43.08079154772656" lon="2.0949070671892187"><ele>341.75</ele><time>2026-04-05T08:22:13.012Z</time></trkpt><trkpt lat="43.08067106298181" lon="2.0949908639765624"><ele>339.5</ele><time>2026-04-05T08:22:14.012Z</time></trkpt><trkpt lat="43.08056907155555" lon="2.095047691562948"><ele>337.25</ele><time>2026-04-05T08:22:15.012Z</time></trkpt><trkpt lat="43.080461093368825" lon="2.095109473848498"><ele>335.0</ele><time>2026-04-05T08:22:16.012Z</time></trkpt><trkpt lat="43.0803588741839" lon="2.095206867990413"><ele>335.0</ele><time>2026-04-05T08:22:17.012Z</time></trkpt><trkpt lat="43.08023186369926" lon="2.095351554163756"><ele>335.0</ele><time>2026-04-05T08:22:18.012Z</time></trkpt><trkpt lat="43.080116422740794" lon="2.095483980284414"><ele>335.0</ele><time>2026-04-05T08:22:19.012Z</time></trkpt><trkpt lat="43.079942278372314" lon="2.0956475384842848"><ele>333.0</ele><time>2026-04-05T08:22:20.012Z</time></trkpt><trkpt lat="43.079770602057486" lon="2.095819182028553"><ele>331.0</ele><time>2026-04-05T08:22:21.012Z</time></trkpt><trkpt lat="43.0796282771364" lon="2.095958063079998"><ele>329.0</ele><time>2026-04-05T08:22:22.012Z</time></trkpt><trkpt lat="43.079496202875134" lon="2.0960744527940713"><ele>329.0</ele><time>2026-04-05T08:22:23.012Z</time></trkpt><trkpt lat="43.079334718400915" lon="2.096197372474724"><ele>329.0</ele><time>2026-04-05T08:22:24.012Z</time></trkpt><trkpt lat="43.079166821702344" lon="2.096310588971022"><ele>329.0</ele><time>2026-04-05T08:22:25.012Z</time></trkpt><trkpt lat="43.07901139169312" lon="2.096419431620343"><ele>329.33333333333337</ele><time>2026-04-05T08:22:26.012Z</time></trkpt><trkpt lat="43.07883736666219" lon="2.096533268154"><ele>329.6666666666667</ele><time>2026-04-05T08:22:27.012Z</time></trkpt><trkpt lat="43.07865686265394" lon="2.096645716612622"><ele>330.0</ele><time>2026-04-05T08:22:28.012Z</time></trkpt><trkpt lat="43.078478864878875" lon="2.0967692928537125"><ele>330.5</ele><time>2026-04-05T08:22:29.012Z</time></trkpt><trkpt lat="43.078317455077425" lon="2.096877610501331"><ele>331.0</ele><time>2026-04-05T08:22:30.012Z</time></trkpt><trkpt lat="43.07818897017623" lon="2.096970667844042"><ele>331.5</ele><time>2026-04-05T08:22:31.012Z</time></trkpt><trkpt lat="43.07810221338441" lon="2.0970686260974456"><ele>332.0</ele><time>2026-04-05T08:22:32.012Z</time></trkpt><trkpt lat="43.07801701354537" lon="2.097205828477448"><ele>334.0</ele><time>2026-04-05T08:22:33.012Z</time></trkpt><trkpt lat="43.07792327615898" lon="2.0973894568095743"><ele>336.0</ele><time>2026-04-05T08:22:34.012Z</time></trkpt><trkpt lat="43.07781748230015" lon="2.097608164064649"><ele>338.0</ele><time>2026-04-05T08:22:35.012Z</time></trkpt><trkpt lat="43.07769597110891" lon="2.0978638815854236"><ele>338.33333333333337</ele><time>2026-04-05T08:22:36.012Z</time></trkpt><trkpt lat="43.07757036329903" lon="2.0981287015428887"><ele>338.6666666666667</ele><time>2026-04-05T08:22:37.012Z</time></trkpt><trkpt lat="43.07746768886078" lon="2.0983549600506652"><ele>339.0</ele><time>2026-04-05T08:22:38.012Z</time></trkpt><trkpt lat="43.077375423104556" lon="2.098550900270968"><ele>339.0</ele><time>2026-04-05T08:22:39.012Z</time></trkpt><trkpt lat="43.07728759754602" lon="2.098746871805596"><ele>339.0</ele><time>2026-04-05T08:22:40.012Z</time></trkpt><trkpt lat="43.07719710844723" lon="2.0989522689497178"><ele>339.0</ele><time>2026-04-05T08:22:41.012Z</time></trkpt><trkpt lat="43.07710972317217" lon="2.0991825496605747"><ele>339.0</ele><time>2026-04-05T08:22:42.012Z</time></trkpt><trkpt lat="43.07703443446365" lon="2.099417022080735"><ele>339.0</ele><time>2026-04-05T08:22:43.012Z</time></trkpt><trkpt lat="43.07697746458155" lon="2.0996223996057806"><ele>339.0</ele><time>2026-04-05T08:22:44.012Z</time></trkpt><trkpt lat="43.07692825116649" lon="2.0998318326180256"><ele>338.3333333333333</ele><time>2026-04-05T08:22:45.012Z</time></trkpt><trkpt lat="43.076879713871186" lon="2.100047497072248"><ele>337.66666666666663</ele><time>2026-04-05T08:22:46.012Z</time></trkpt><trkpt lat="43.07682269605339" lon="2.100271523284988"><ele>337.0</ele><time>2026-04-05T08:22:47.012Z</time></trkpt><trkpt lat="43.0767627362855" lon="2.1004852037106034"><ele>337.0</ele><time>2026-04-05T08:22:48.012Z</time></trkpt><trkpt lat="43.07670451028881" lon="2.1006772365809243"><ele>337.0</ele><time>2026-04-05T08:22:49.012Z</time></trkpt><trkpt lat="43.07665295481102" lon="2.1008397473135276"><ele>337.0</ele><time>2026-04-05T08:22:50.012Z</time></trkpt><trkpt lat="43.07658864345483" lon="2.100980892157469"><ele>337.0</ele><time>2026-04-05T08:22:51.012Z</time></trkpt><trkpt lat="43.076508315289935" lon="2.101122141794854"><ele>334.6</ele><time>2026-04-05T08:22:52.012Z</time></trkpt><trkpt lat="43.07642296320837" lon="2.101238911518145"><ele>332.20000000000005</ele><time>2026-04-05T08:22:53.012Z</time></trkpt><trkpt lat="43.07634598548117" lon="2.101338270174508"><ele>329.8</ele><time>2026-04-05T08:22:54.012Z</time></trkpt><trkpt lat="43.076288452349885" lon="2.1014157204005084"><ele>327.4</ele><time>2026-04-05T08:22:55.012Z</time></trkpt><trkpt lat="43.07624489042784" lon="2.101493909544175"><ele>325.0</ele><time>2026-04-05T08:22:56.012Z</time></trkpt><trkpt lat="43.076204012535555" lon="2.101580961721415"><ele>325.6</ele><time>2026-04-05T08:22:57.012Z</time></trkpt><trkpt lat="43.076156820312065" lon="2.1016668455238348"><ele>326.2</ele><time>2026-04-05T08:22:58.012Z</time></trkpt><trkpt lat="43.07605694578891" lon="2.101810426324907"><ele>326.79999999999995</ele><time>2026-04-05T08:23:00.012Z</time></trkpt><trkpt lat="43.07599955903633" lon="2.101896690127256"><ele>327.4</ele><time>2026-04-05T08:23:01.012Z</time></trkpt><trkpt lat="43.07595763510949" lon="2.1019858340930644"><ele>328.0</ele><time>2026-04-05T08:23:02.012Z</time></trkpt><trkpt lat="43.07592563876199" lon="2.1020727098556793"><ele>328.0</ele><time>2026-04-05T08:23:03.012Z</time></trkpt><trkpt lat="43.07590486351509" lon="2.1021547042957853"><ele>328.0</ele><time>2026-04-05T08:23:04.013Z</time></trkpt><trkpt lat="43.0758667803133" lon="2.1022836445179993"><ele>328.0</ele><time>2026-04-05T08:23:06.013Z</time></trkpt><trkpt lat="43.07581442787435" lon="2.102407205494859"><ele>328.0</ele><time>2026-04-05T08:23:08.013Z</time></trkpt><trkpt lat="43.07574946472107" lon="2.1024983550962864"><ele>328.0</ele><time>2026-04-05T08:23:10.013Z</time></trkpt><trkpt lat="43.07565394371916" lon="2.1025591499382537"><ele>327.0</ele><time>2026-04-05T08:23:12.013Z</time></trkpt><trkpt lat="43.0755800584582" lon="2.1025886856432106"><ele>326.0</ele><time>2026-04-05T08:23:14.013Z</time></trkpt><trkpt lat="43.07551335845108" lon="2.1025535013199983"><ele>325.0</ele><time>2026-04-05T08:23:17.013Z</time></trkpt><trkpt lat="43.0754475539142" lon="2.102464143125346"><ele>324.0</ele><time>2026-04-05T08:23:19.013Z</time></trkpt><trkpt lat="43.07537823001416" lon="2.1024667669056485"><ele>323.0</ele><time>2026-04-05T08:23:22.013Z</time></trkpt><trkpt lat="43.0752890968848" lon="2.102480816103424"><ele>322.0</ele><time>2026-04-05T08:23:24.013Z</time></trkpt><trkpt lat="43.07522869593392" lon="2.102541277372704"><ele>322.0</ele><time>2026-04-05T08:23:25.013Z</time></trkpt><trkpt lat="43.07514688539709" lon="2.1025915037552894"><ele>322.0</ele><time>2026-04-05T08:23:26.013Z</time></trkpt><trkpt lat="43.07502590038676" lon="2.10266859064435"><ele>322.0</ele><time>2026-04-05T08:23:27.013Z</time></trkpt><trkpt lat="43.07492713996553" lon="2.1027865156512275"><ele>322.0</ele><time>2026-04-05T08:23:28.013Z</time></trkpt><trkpt lat="43.074814823468614" lon="2.102867789471216"><ele>321.25</ele><time>2026-04-05T08:23:29.013Z</time></trkpt><trkpt lat="43.074700332354844" lon="2.102945714854383"><ele>320.5</ele><time>2026-04-05T08:23:30.013Z</time></trkpt><trkpt lat="43.07461892837074" lon="2.103049059995411"><ele>319.75</ele><time>2026-04-05T08:23:31.013Z</time></trkpt><trkpt lat="43.07452603832234" lon="2.103129907015684"><ele>319.0</ele><time>2026-04-05T08:23:32.013Z</time></trkpt><trkpt lat="43.07442994456248" lon="2.103203459152743"><ele>319.4</ele><time>2026-04-05T08:23:33.013Z</time></trkpt><trkpt lat="43.074349633606985" lon="2.1032593401998"><ele>319.79999999999995</ele><time>2026-04-05T08:23:34.013Z</time></trkpt><trkpt lat="43.074285203389884" lon="2.1033071167794075"><ele>320.20000000000005</ele><time>2026-04-05T08:23:35.013Z</time></trkpt><trkpt lat="43.07417826650928" lon="2.103365428796578"><ele>320.6</ele><time>2026-04-05T08:23:37.013Z</time></trkpt><trkpt lat="43.07409999590715" lon="2.1033984708333433"><ele>321.0</ele><time>2026-04-05T08:23:39.013Z</time></trkpt><trkpt lat="43.0739739472564" lon="2.103510828149495"><ele>321.0</ele><time>2026-04-05T08:23:41.013Z</time></trkpt><trkpt lat="43.073872976275325" lon="2.1035839710173945"><ele>321.0</ele><time>2026-04-05T08:23:42.013Z</time></trkpt><trkpt lat="43.073738449982805" lon="2.103605527836309"><ele>321.0</ele><time>2026-04-05T08:23:43.013Z</time></trkpt><trkpt lat="43.07361210692622" lon="2.1036932009410148"><ele>321.0</ele><time>2026-04-05T08:23:44.013Z</time></trkpt><trkpt lat="43.07348307183526" lon="2.1038116298330514"><ele>321.0</ele><time>2026-04-05T08:23:45.013Z</time></trkpt><trkpt lat="43.07335074884559" lon="2.103909041789925"><ele>321.0</ele><time>2026-04-05T08:23:46.013Z</time></trkpt><trkpt lat="43.07320812759281" lon="2.1039932611898573"><ele>321.0</ele><time>2026-04-05T08:23:47.013Z</time></trkpt><trkpt lat="43.07307219709603" lon="2.104086231964598"><ele>324.3333333333333</ele><time>2026-04-05T08:23:48.013Z</time></trkpt><trkpt lat="43.072940039926465" lon="2.104209252714064"><ele>327.66666666666663</ele><time>2026-04-05T08:23:49.013Z</time></trkpt><trkpt lat="43.07281597870718" lon="2.104362225359295"><ele>331.0</ele><time>2026-04-05T08:23:50.013Z</time></trkpt><trkpt lat="43.072675355048354" lon="2.104493091262664"><ele>331.0</ele><time>2026-04-05T08:23:51.013Z</time></trkpt><trkpt lat="43.072539409832274" lon="2.1045656970056363"><ele>331.0</ele><time>2026-04-05T08:23:52.013Z</time></trkpt><trkpt lat="43.07241236276025" lon="2.1045872540933934"><ele>331.0</ele><time>2026-04-05T08:23:53.013Z</time></trkpt><trkpt lat="43.07229096239202" lon="2.1045757054968868"><ele>331.0</ele><time>2026-04-05T08:23:54.013Z</time></trkpt><trkpt lat="43.07218287295255" lon="2.1045646491697907"><ele>333.8</ele><time>2026-04-05T08:23:55.013Z</time></trkpt><trkpt lat="43.07208783543077" lon="2.1045528688237836"><ele>336.6</ele><time>2026-04-05T08:23:56.013Z</time></trkpt><trkpt lat="43.07200821236836" lon="2.104510934819787"><ele>339.4</ele><time>2026-04-05T08:23:57.013Z</time></trkpt><trkpt lat="43.07194017362366" lon="2.104438397198422"><ele>342.2</ele><time>2026-04-05T08:23:58.013Z</time></trkpt><trkpt lat="43.07188617100725" lon="2.1043160782226398"><ele>345.0</ele><time>2026-04-05T08:23:59.013Z</time></trkpt><trkpt lat="43.071820800162484" lon="2.1041558278451507"><ele>343.25</ele><time>2026-04-05T08:24:00.013Z</time></trkpt><trkpt lat="43.0717727979474" lon="2.1040249567418505"><ele>341.5</ele><time>2026-04-05T08:24:01.013Z</time></trkpt><trkpt lat="43.07170135598221" lon="2.1039223804431737"><ele>339.75</ele><time>2026-04-05T08:24:02.013Z</time></trkpt><trkpt lat="43.07159650516577" lon="2.103817240148891"><ele>338.0</ele><time>2026-04-05T08:24:03.013Z</time></trkpt><trkpt lat="43.07150457850898" lon="2.103707007023999"><ele>336.4</ele><time>2026-04-05T08:24:04.013Z</time></trkpt><trkpt lat="43.071473043027865" lon="2.1036286674914066"><ele>334.79999999999995</ele><time>2026-04-05T08:24:05.013Z</time></trkpt><trkpt lat="43.07139837461506" lon="2.103698622015826"><ele>333.2</ele><time>2026-04-05T08:24:07.013Z</time></trkpt><trkpt lat="43.07139004131379" lon="2.103842470388387"><ele>331.6</ele><time>2026-04-05T08:24:10.013Z</time></trkpt><trkpt lat="43.071381816953114" lon="2.103977890649295"><ele>330.0</ele><time>2026-04-05T08:24:11.013Z</time></trkpt><trkpt lat="43.07137997514759" lon="2.104171862783094"><ele>330.0</ele><time>2026-04-05T08:24:12.013Z</time></trkpt><trkpt lat="43.07136622631066" lon="2.1043696580186952"><ele>330.0</ele><time>2026-04-05T08:24:13.013Z</time></trkpt><trkpt lat="43.071336022744795" lon="2.1046025213309965"><ele>330.0</ele><time>2026-04-05T08:24:14.013Z</time></trkpt><trkpt lat="43.0713067220773" lon="2.1048391320555284"><ele>332.5</ele><time>2026-04-05T08:24:15.013Z</time></trkpt><trkpt lat="43.07130740426002" lon="2.105015931681179"><ele>335.0</ele><time>2026-04-05T08:24:16.013Z</time></trkpt><trkpt lat="43.07125792131006" lon="2.105126090965738"><ele>337.5</ele><time>2026-04-05T08:24:17.013Z</time></trkpt><trkpt lat="43.07114939621727" lon="2.1052280484669024"><ele>340.0</ele><time>2026-04-05T08:24:18.013Z</time></trkpt><trkpt lat="43.07100016157512" lon="2.105347513469216"><ele>340.0</ele><time>2026-04-05T08:24:19.013Z</time></trkpt><trkpt lat="43.07089693124248" lon="2.1054505545070357"><ele>340.0</ele><time>2026-04-05T08:24:20.013Z</time></trkpt><trkpt lat="43.070808963566876" lon="2.1055650190623787"><ele>340.0</ele><time>2026-04-05T08:24:21.013Z</time></trkpt><trkpt lat="43.07071544714603" lon="2.1056941455842653"><ele>340.0</ele><time>2026-04-05T08:24:22.013Z</time></trkpt><trkpt lat="43.0706382508872" lon="2.1058022480797365"><ele>339.4</ele><time>2026-04-05T08:24:23.013Z</time></trkpt><trkpt lat="43.07058821952173" lon="2.1058909755052"><ele>338.8</ele><time>2026-04-05T08:24:24.013Z</time></trkpt><trkpt lat="43.070532337760824" lon="2.1059640478801565"><ele>338.20000000000005</ele><time>2026-04-05T08:24:25.013Z</time></trkpt><trkpt lat="43.07044214225585" lon="2.106048891141793"><ele>337.6</ele><time>2026-04-05T08:24:26.013Z</time></trkpt><trkpt lat="43.07032678178955" lon="2.1061563686596165"><ele>337.0</ele><time>2026-04-05T08:24:27.013Z</time></trkpt><trkpt lat="43.07022545243472" lon="2.106293805343729"><ele>337.0</ele><time>2026-04-05T08:24:28.013Z</time></trkpt><trkpt lat="43.07013935069555" lon="2.106410095484529"><ele>337.0</ele><time>2026-04-05T08:24:29.013Z</time></trkpt><trkpt lat="43.07010274490368" lon="2.1065088158779885"><ele>337.0</ele><time>2026-04-05T08:24:30.014Z</time></trkpt><trkpt lat="43.07007911539767" lon="2.106595502484346"><ele>337.0</ele><time>2026-04-05T08:24:31.014Z</time></trkpt><trkpt lat="43.0700701757722" lon="2.1066938553139267"><ele>337.0</ele><time>2026-04-05T08:24:32.014Z</time></trkpt><trkpt lat="43.07005308569921" lon="2.1068236079669433"><ele>337.0</ele><time>2026-04-05T08:24:33.014Z</time></trkpt><trkpt lat="43.070029262336654" lon="2.1069713614892747"><ele>337.16666666666663</ele><time>2026-04-05T08:24:34.014Z</time></trkpt><trkpt lat="43.07000244013348" lon="2.1071075844228293"><ele>337.3333333333333</ele><time>2026-04-05T08:24:35.014Z</time></trkpt><trkpt lat="43.07000040216171" lon="2.1071981372895676"><ele>337.5</ele><time>2026-04-05T08:24:36.014Z</time></trkpt><trkpt lat="43.07001900844524" lon="2.107291985578406"><ele>337.6666666666667</ele><time>2026-04-05T08:24:37.014Z</time></trkpt><trkpt lat="43.070023113903815" lon="2.1074122389753427"><ele>337.83333333333337</ele><time>2026-04-05T08:24:38.014Z</time></trkpt><trkpt lat="43.070000148396765" lon="2.1075622907999594"><ele>338.0</ele><time>2026-04-05T08:24:39.014Z</time></trkpt><trkpt lat="43.06999006119857" lon="2.1077198891342266"><ele>338.0</ele><time>2026-04-05T08:24:40.014Z</time></trkpt><trkpt lat="43.06997996348825" lon="2.107856528569263"><ele>338.0</ele><time>2026-04-05T08:24:41.014Z</time></trkpt><trkpt lat="43.06997406506349" lon="2.107979114369914"><ele>338.0</ele><time>2026-04-05T08:24:42.014Z</time></trkpt><trkpt lat="43.06997343458697" lon="2.108125348326433"><ele>338.0</ele><time>2026-04-05T08:24:43.014Z</time></trkpt><trkpt lat="43.069991533100726" lon="2.108288122502965"><ele>338.0</ele><time>2026-04-05T08:24:44.014Z</time></trkpt><trkpt lat="43.06999719950791" lon="2.108416739676435"><ele>337.4</ele><time>2026-04-05T08:24:45.014Z</time></trkpt><trkpt lat="43.06997357806333" lon="2.108508494228783"><ele>336.79999999999995</ele><time>2026-04-05T08:24:46.014Z</time></trkpt><trkpt lat="43.0699267075275" lon="2.1086063594430535"><ele>336.2</ele><time>2026-04-05T08:24:47.014Z</time></trkpt><trkpt lat="43.06987020025227" lon="2.1087252001540833"><ele>335.6</ele><time>2026-04-05T08:24:48.014Z</time></trkpt><trkpt lat="43.069791457564" lon="2.108884753460933"><ele>335.0</ele><time>2026-04-05T08:24:49.014Z</time></trkpt><trkpt lat="43.06972221836383" lon="2.1090440177839076"><ele>333.4</ele><time>2026-04-05T08:24:50.014Z</time></trkpt><trkpt lat="43.06966339817016" lon="2.109159799654453"><ele>331.8</ele><time>2026-04-05T08:24:51.014Z</time></trkpt><trkpt lat="43.06962728973942" lon="2.109247343706262"><ele>330.20000000000005</ele><time>2026-04-05T08:24:52.014Z</time></trkpt><trkpt lat="43.06958624606602" lon="2.109364156038283"><ele>328.6</ele><time>2026-04-05T08:24:54.014Z</time></trkpt><trkpt lat="43.06952810647336" lon="2.1094456102815817"><ele>327.0</ele><time>2026-04-05T08:24:55.014Z</time></trkpt><trkpt lat="43.06943375285489" lon="2.109521477795693"><ele>327.0</ele><time>2026-04-05T08:24:56.014Z</time></trkpt><trkpt lat="43.06932395810865" lon="2.1096072398565524"><ele>327.0</ele><time>2026-04-05T08:24:57.014Z</time></trkpt><trkpt lat="43.06922695605461" lon="2.10970021583751"><ele>327.0</ele><time>2026-04-05T08:24:58.014Z</time></trkpt><trkpt lat="43.069132951466145" lon="2.1098154669009355"><ele>327.0</ele><time>2026-04-05T08:24:59.014Z</time></trkpt><trkpt lat="43.069048974564" lon="2.1099366033868607"><ele>328.5</ele><time>2026-04-05T08:25:00.014Z</time></trkpt><trkpt lat="43.068965296051736" lon="2.110089173085386"><ele>330.0</ele><time>2026-04-05T08:25:01.014Z</time></trkpt><trkpt lat="43.06889514658302" lon="2.1102501898230503"><ele>331.5</ele><time>2026-04-05T08:25:02.014Z</time></trkpt><trkpt lat="43.06878206551439" lon="2.110412271352628"><ele>333.0</ele><time>2026-04-05T08:25:03.014Z</time></trkpt><trkpt lat="43.068687051632864" lon="2.110552120734201"><ele>333.0</ele><time>2026-04-05T08:25:04.014Z</time></trkpt><trkpt lat="43.06860024992949" lon="2.110693226831031"><ele>333.0</ele><time>2026-04-05T08:25:05.014Z</time></trkpt><trkpt lat="43.0685225395924" lon="2.1108430152257056"><ele>333.0</ele><time>2026-04-05T08:25:06.014Z</time></trkpt><trkpt lat="43.0684483388489" lon="2.1109958746383852"><ele>333.0</ele><time>2026-04-05T08:25:07.014Z</time></trkpt><trkpt lat="43.06839501982182" lon="2.111138032534414"><ele>333.1666666666667</ele><time>2026-04-05T08:25:08.014Z</time></trkpt><trkpt lat="43.06838865443256" lon="2.111261675122201"><ele>333.3333333333333</ele><time>2026-04-05T08:25:09.014Z</time></trkpt><trkpt lat="43.06836931188957" lon="2.111394479186187"><ele>333.5</ele><time>2026-04-05T08:25:10.014Z</time></trkpt><trkpt lat="43.068340711764364" lon="2.1114951431205986"><ele>333.66666666666663</ele><time>2026-04-05T08:25:11.014Z</time></trkpt><trkpt lat="43.068288036085235" lon="2.111586197849501"><ele>333.8333333333333</ele><time>2026-04-05T08:25:12.014Z</time></trkpt><trkpt lat="43.06822672546581" lon="2.111670485590312"><ele>334.0</ele><time>2026-04-05T08:25:13.014Z</time></trkpt><trkpt lat="43.06813857099702" lon="2.111788951186807"><ele>328.75</ele><time>2026-04-05T08:25:14.014Z</time></trkpt><trkpt lat="43.0680328094015" lon="2.1119023066636498"><ele>323.5</ele><time>2026-04-05T08:25:15.014Z</time></trkpt><trkpt lat="43.06792835691178" lon="2.1119996196712463"><ele>318.25</ele><time>2026-04-05T08:25:16.014Z</time></trkpt><trkpt lat="43.06784616267277" lon="2.1120672235040825"><ele>313.0</ele><time>2026-04-05T08:25:17.014Z</time></trkpt><trkpt lat="43.06773401309152" lon="2.112118674209656"><ele>313.0</ele><time>2026-04-05T08:25:19.014Z</time></trkpt><trkpt lat="43.06767311177295" lon="2.112077554731064"><ele>313.0</ele><time>2026-04-05T08:25:20.014Z</time></trkpt><trkpt lat="43.06760383117032" lon="2.112065980482245"><ele>313.0</ele><time>2026-04-05T08:25:21.014Z</time></trkpt><trkpt lat="43.0675358527727" lon="2.112020154190883"><ele>313.0</ele><time>2026-04-05T08:25:22.014Z</time></trkpt><trkpt lat="43.06744488640722" lon="2.1120012148341405"><ele>313.0</ele><time>2026-04-05T08:25:23.014Z</time></trkpt><trkpt lat="43.06734008405235" lon="2.11198800149266"><ele>313.0</ele><time>2026-04-05T08:25:24.014Z</time></trkpt><trkpt lat="43.06723345541522" lon="2.111949877769048"><ele>310.4</ele><time>2026-04-05T08:25:25.014Z</time></trkpt><trkpt lat="43.067130184405414" lon="2.1119658322975083"><ele>307.8</ele><time>2026-04-05T08:25:26.014Z</time></trkpt><trkpt lat="43.06701877119342" lon="2.1119889109384244"><ele>305.2</ele><time>2026-04-05T08:25:27.014Z</time></trkpt><trkpt lat="43.06692370029954" lon="2.1120297284518577"><ele>302.6</ele><time>2026-04-05T08:25:28.014Z</time></trkpt><trkpt lat="43.066858206298726" lon="2.1120734045045206"><ele>300.0</ele><time>2026-04-05T08:25:29.014Z</time></trkpt><trkpt lat="43.06678264911055" lon="2.1121299140452168"><ele>300.0</ele><time>2026-04-05T08:25:31.014Z</time></trkpt><trkpt lat="43.0667934410948" lon="2.112358022714608"><ele>300.0</ele><time>2026-04-05T08:25:34.014Z</time></trkpt><trkpt lat="43.06682933161176" lon="2.112434932422038"><ele>300.0</ele><time>2026-04-05T08:25:35.014Z</time></trkpt><trkpt lat="43.06672548753868" lon="2.112477329859685"><ele>300.0</ele><time>2026-04-05T08:25:36.014Z</time></trkpt><trkpt lat="43.06678209469584" lon="2.112603568362181"><ele>298.8333333333333</ele><time>2026-04-05T08:25:37.014Z</time></trkpt><trkpt lat="43.06679591045869" lon="2.1127193844297265"><ele>297.6666666666667</ele><time>2026-04-05T08:25:38.014Z</time></trkpt><trkpt lat="43.06678471552238" lon="2.1128196668775985"><ele>296.5</ele><time>2026-04-05T08:25:39.014Z</time></trkpt><trkpt lat="43.066758504309156" lon="2.1129159801267745"><ele>295.33333333333337</ele><time>2026-04-05T08:25:40.014Z</time></trkpt><trkpt lat="43.066743350300285" lon="2.1130308753634326"><ele>294.1666666666667</ele><time>2026-04-05T08:25:41.014Z</time></trkpt><trkpt lat="43.0667295492009" lon="2.11315957043947"><ele>293.0</ele><time>2026-04-05T08:25:42.014Z</time></trkpt><trkpt lat="43.06672017709798" lon="2.1132952281085453"><ele>293.0</ele><time>2026-04-05T08:25:43.014Z</time></trkpt><trkpt lat="43.06670626462542" lon="2.1134599832234415"><ele>293.0</ele><time>2026-04-05T08:25:44.014Z</time></trkpt><trkpt lat="43.066677671267584" lon="2.1136331822213292"><ele>293.0</ele><time>2026-04-05T08:25:45.014Z</time></trkpt><trkpt lat="43.06665548088337" lon="2.1137708366822854"><ele>293.0</ele><time>2026-04-05T08:25:46.014Z</time></trkpt><trkpt lat="43.06664363576495" lon="2.1138797684549933"><ele>293.0</ele><time>2026-04-05T08:25:47.014Z</time></trkpt><trkpt lat="43.066645597493306" lon="2.1139680449937788"><ele>293.0</ele><time>2026-04-05T08:25:48.014Z</time></trkpt><trkpt lat="43.0666569724703" lon="2.1140542471515746"><ele>293.0</ele><time>2026-04-05T08:25:49.014Z</time></trkpt><trkpt lat="43.06667011585365" lon="2.1141528105331644"><ele>293.0</ele><time>2026-04-05T08:25:50.014Z</time></trkpt><trkpt lat="43.06666944785041" lon="2.1142647931459453"><ele>293.0</ele><time>2026-04-05T08:25:51.014Z</time></trkpt><trkpt lat="43.06666683057503" lon="2.114351581515653"><ele>293.0</ele><time>2026-04-05T08:25:53.014Z</time></trkpt><trkpt lat="43.06671112855858" lon="2.1145028097103418"><ele>293.0</ele><time>2026-04-05T08:25:56.015Z</time></trkpt><trkpt lat="43.06672780945779" lon="2.1146546037096012"><ele>294.25</ele><time>2026-04-05T08:25:56.991Z</time></trkpt><trkpt lat="43.06675049343985" lon="2.1148155942988347"><ele>295.5</ele><time>2026-04-05T08:25:57.991Z</time></trkpt><trkpt lat="43.066806727672436" lon="2.1150232447122392"><ele>296.75</ele><time>2026-04-05T08:25:58.991Z</time></trkpt><trkpt lat="43.06684982867378" lon="2.1151991240048535"><ele>298.0</ele><time>2026-04-05T08:25:59.991Z</time></trkpt><trkpt lat="43.06689452537597" lon="2.115361916031011"><ele>298.2</ele><time>2026-04-05T08:26:00.992Z</time></trkpt><trkpt lat="43.06692506970576" lon="2.1155005081218246"><ele>298.4</ele><time>2026-04-05T08:26:01.992Z</time></trkpt><trkpt lat="43.06695655012283" lon="2.1156224386023488"><ele>298.59999999999997</ele><time>2026-04-05T08:26:02.992Z</time></trkpt><trkpt lat="43.06699716083706" lon="2.115758115003871"><ele>298.8</ele><time>2026-04-05T08:26:03.992Z</time></trkpt><trkpt lat="43.067024604661185" lon="2.1159006897189743"><ele>299.0</ele><time>2026-04-05T08:26:04.992Z</time></trkpt><trkpt lat="43.06704780033977" lon="2.116030686501221"><ele>299.0</ele><time>2026-04-05T08:26:05.992Z</time></trkpt><trkpt lat="43.067050062793314" lon="2.116174386192351"><ele>299.0</ele><time>2026-04-05T08:26:06.992Z</time></trkpt><trkpt lat="43.06705303904152" lon="2.116333510296755"><ele>299.0</ele><time>2026-04-05T08:26:07.992Z</time></trkpt><trkpt lat="43.06704547343261" lon="2.116485016587792"><ele>299.0</ele><time>2026-04-05T08:26:08.992Z</time></trkpt><trkpt lat="43.06705831908723" lon="2.1166192397873322"><ele>299.0</ele><time>2026-04-05T08:26:09.992Z</time></trkpt><trkpt lat="43.06709149980464" lon="2.11675238800856"><ele>297.59999999999997</ele><time>2026-04-05T08:26:10.992Z</time></trkpt><trkpt lat="43.0671197253206" lon="2.1168779636902277"><ele>296.2</ele><time>2026-04-05T08:26:11.992Z</time></trkpt><trkpt lat="43.06716559826859" lon="2.1170188904500833"><ele>294.79999999999995</ele><time>2026-04-05T08:26:13.992Z</time></trkpt><trkpt lat="43.06722392439263" lon="2.117073625117634"><ele>293.4</ele><time>2026-04-05T08:26:14.992Z</time></trkpt><trkpt lat="43.067214619436335" lon="2.1172901164534355"><ele>292.0</ele><time>2026-04-05T08:26:16.992Z</time></trkpt><trkpt lat="43.06717214692192" lon="2.117440324904844"><ele>288.0</ele><time>2026-04-05T08:26:17.992Z</time></trkpt><trkpt lat="43.06711962297028" lon="2.117615330609961"><ele>284.0</ele><time>2026-04-05T08:26:18.992Z</time></trkpt><trkpt lat="43.06708265072073" lon="2.1177851370320626"><ele>280.0</ele><time>2026-04-05T08:26:19.992Z</time></trkpt><trkpt lat="43.067033531778414" lon="2.11790910919294"><ele>276.0</ele><time>2026-04-05T08:26:20.992Z</time></trkpt><trkpt lat="43.06698235070171" lon="2.118021194360862"><ele>276.0</ele><time>2026-04-05T08:26:21.992Z</time></trkpt><trkpt lat="43.066912098991175" lon="2.1181330984624536"><ele>276.0</ele><time>2026-04-05T08:26:22.992Z</time></trkpt><trkpt lat="43.06685991916166" lon="2.1182660789990915"><ele>276.0</ele><time>2026-04-05T08:26:23.992Z</time></trkpt><trkpt lat="43.06678580711731" lon="2.118393952445798"><ele>276.0</ele><time>2026-04-05T08:26:24.992Z</time></trkpt><trkpt lat="43.0667139417402" lon="2.118492308075765"><ele>276.0</ele><time>2026-04-05T08:26:25.992Z</time></trkpt><trkpt lat="43.066643414505506" lon="2.118571501985004"><ele>274.40000000000003</ele><time>2026-04-05T08:26:26.992Z</time></trkpt><trkpt lat="43.06657975989073" lon="2.118606775273119"><ele>272.8</ele><time>2026-04-05T08:26:27.992Z</time></trkpt><trkpt lat="43.06648230470072" lon="2.118611733116695"><ele>271.20000000000005</ele><time>2026-04-05T08:26:28.992Z</time></trkpt><trkpt lat="43.0663765687871" lon="2.1186215871733385"><ele>269.6</ele><time>2026-04-05T08:26:29.992Z</time></trkpt><trkpt lat="43.06628367094483" lon="2.1186533570794386"><ele>268.0</ele><time>2026-04-05T08:26:30.992Z</time></trkpt><trkpt lat="43.06619640845209" lon="2.1187540700982073"><ele>268.0</ele><time>2026-04-05T08:26:31.992Z</time></trkpt><trkpt lat="43.0661040802848" lon="2.118870881494511"><ele>268.0</ele><time>2026-04-05T08:26:32.992Z</time></trkpt><trkpt lat="43.06600833918969" lon="2.118988631372998"><ele>268.0</ele><time>2026-04-05T08:26:33.992Z</time></trkpt><trkpt lat="43.065927978271695" lon="2.1191198405890423"><ele>268.0</ele><time>2026-04-05T08:26:34.992Z</time></trkpt><trkpt lat="43.06585801750639" lon="2.1192260747520115"><ele>266.8</ele><time>2026-04-05T08:26:35.992Z</time></trkpt><trkpt lat="43.0657986269077" lon="2.119334189344867"><ele>265.6</ele><time>2026-04-05T08:26:36.992Z</time></trkpt><trkpt lat="43.06573711175698" lon="2.119461001430189"><ele>264.4</ele><time>2026-04-05T08:26:37.992Z</time></trkpt><trkpt lat="43.065673679938804" lon="2.119598095467955"><ele>263.2</ele><time>2026-04-05T08:26:38.992Z</time></trkpt><trkpt lat="43.06561830878499" lon="2.119733849541996"><ele>262.0</ele><time>2026-04-05T08:26:39.992Z</time></trkpt><trkpt lat="43.065569873065385" lon="2.119862967353402"><ele>260.66666666666663</ele><time>2026-04-05T08:26:40.992Z</time></trkpt><trkpt lat="43.06551917027799" lon="2.1199803954781853"><ele>259.3333333333333</ele><time>2026-04-05T08:26:41.992Z</time></trkpt><trkpt lat="43.06545999258892" lon="2.1200862751703"><ele>258.0</ele><time>2026-04-05T08:26:42.992Z</time></trkpt><trkpt lat="43.06541771695522" lon="2.120169466148696"><ele>256.6666666666667</ele><time>2026-04-05T08:26:43.988Z</time></trkpt><trkpt lat="43.06537709211146" lon="2.1202402890440677"><ele>255.33333333333334</ele><time>2026-04-05T08:26:44.988Z</time></trkpt><trkpt lat="43.06530459602068" lon="2.1202840772931433"><ele>254.0</ele><time>2026-04-05T08:26:46.988Z</time></trkpt><trkpt lat="43.06517525892548" lon="2.1202119029526476"><ele>254.0</ele><time>2026-04-05T08:26:48.988Z</time></trkpt><trkpt lat="43.065063773520365" lon="2.12014368788601"><ele>253.99999999999997</ele><time>2026-04-05T08:26:49.988Z</time></trkpt><trkpt lat="43.064944615614536" lon="2.120098219635459"><ele>253.99999999999997</ele><time>2026-04-05T08:26:50.988Z</time></trkpt><trkpt lat="43.06484573085769" lon="2.120071511042097"><ele>254.0</ele><time>2026-04-05T08:26:51.988Z</time></trkpt><trkpt lat="43.06476299986586" lon="2.1200471454277956"><ele>254.0</ele><time>2026-04-05T08:26:52.988Z</time></trkpt><trkpt lat="43.06469099801331" lon="2.12002445509128"><ele>253.2</ele><time>2026-04-05T08:26:53.988Z</time></trkpt><trkpt lat="43.064596408548844" lon="2.120015239046178"><ele>252.39999999999998</ele><time>2026-04-05T08:26:55.988Z</time></trkpt><trkpt lat="43.06452929573781" lon="2.120146698256435"><ele>251.6</ele><time>2026-04-05T08:26:57.988Z</time></trkpt><trkpt lat="43.064483363677155" lon="2.120254799114195"><ele>250.8</ele><time>2026-04-05T08:26:58.988Z</time></trkpt><trkpt lat="43.06444373345257" lon="2.120387115058544"><ele>250.0</ele><time>2026-04-05T08:26:59.988Z</time></trkpt><trkpt lat="43.06438292417938" lon="2.1204882837422767"><ele>249.99999999999997</ele><time>2026-04-05T08:27:00.988Z</time></trkpt><trkpt lat="43.06431945097027" lon="2.120530845996001"><ele>250.0</ele><time>2026-04-05T08:27:01.988Z</time></trkpt><trkpt lat="43.0642457542316" lon="2.1204948635529415"><ele>250.0</ele><time>2026-04-05T08:27:02.988Z</time></trkpt><trkpt lat="43.06412065582098" lon="2.1204969751255063"><ele>250.0</ele><time>2026-04-05T08:27:03.988Z</time></trkpt><trkpt lat="43.064025470499345" lon="2.1205331644753747"><ele>249.99999999999997</ele><time>2026-04-05T08:27:04.988Z</time></trkpt><trkpt lat="43.06396247024313" lon="2.1205926560887725"><ele>250.0</ele><time>2026-04-05T08:27:05.988Z</time></trkpt><trkpt lat="43.063917674508495" lon="2.120739661304589"><ele>248.75</ele><time>2026-04-05T08:27:06.988Z</time></trkpt><trkpt lat="43.06387523495204" lon="2.1209157880059326"><ele>247.5</ele><time>2026-04-05T08:27:07.988Z</time></trkpt><trkpt lat="43.06386272547457" lon="2.121123011163949"><ele>246.25</ele><time>2026-04-05T08:27:08.988Z</time></trkpt><trkpt lat="43.06381970658298" lon="2.1213138750866185"><ele>245.0</ele><time>2026-04-05T08:27:09.988Z</time></trkpt><trkpt lat="43.06378118078671" lon="2.1214985925923964"><ele>245.25</ele><time>2026-04-05T08:27:10.988Z</time></trkpt><trkpt lat="43.063724620425816" lon="2.121665318546254"><ele>245.5</ele><time>2026-04-05T08:27:11.988Z</time></trkpt><trkpt lat="43.063659763739714" lon="2.1218186576876565"><ele>245.75</ele><time>2026-04-05T08:27:12.988Z</time></trkpt><trkpt lat="43.06357984934269" lon="2.1220006625042607"><ele>246.0</ele><time>2026-04-05T08:27:13.988Z</time></trkpt><trkpt lat="43.06349002467313" lon="2.12219611588961"><ele>246.0</ele><time>2026-04-05T08:27:14.988Z</time></trkpt><trkpt lat="43.06339092005897" lon="2.1223841854174594"><ele>246.0</ele><time>2026-04-05T08:27:15.988Z</time></trkpt><trkpt lat="43.06328955656078" lon="2.1225662377899708"><ele>246.0</ele><time>2026-04-05T08:27:16.988Z</time></trkpt><trkpt lat="43.06318896007838" lon="2.1227681152524926"><ele>245.33333333333331</ele><time>2026-04-05T08:27:17.988Z</time></trkpt><trkpt lat="43.06310549906423" lon="2.122982078073286"><ele>244.66666666666666</ele><time>2026-04-05T08:27:18.988Z</time></trkpt><trkpt lat="43.063030660472656" lon="2.1231998399374876"><ele>244.0</ele><time>2026-04-05T08:27:19.988Z</time></trkpt><trkpt lat="43.06296107906433" lon="2.1233962210321033"><ele>244.0</ele><time>2026-04-05T08:27:20.988Z</time></trkpt><trkpt lat="43.062894899297305" lon="2.1235615963468075"><ele>244.0</ele><time>2026-04-05T08:27:21.988Z</time></trkpt><trkpt lat="43.062835260615714" lon="2.1237065809478697"><ele>244.0</ele><time>2026-04-05T08:27:22.988Z</time></trkpt><trkpt lat="43.06276192299483" lon="2.1238516263252234"><ele>244.0</ele><time>2026-04-05T08:27:23.988Z</time></trkpt><trkpt lat="43.06268635081683" lon="2.1240079157106804"><ele>243.79999999999998</ele><time>2026-04-05T08:27:24.988Z</time></trkpt><trkpt lat="43.06261952789532" lon="2.1241447433149823"><ele>243.59999999999997</ele><time>2026-04-05T08:27:25.988Z</time></trkpt><trkpt lat="43.0625558567383" lon="2.1242509048736538"><ele>243.4</ele><time>2026-04-05T08:27:26.988Z</time></trkpt><trkpt lat="43.06250026422927" lon="2.1243613205428753"><ele>243.2</ele><time>2026-04-05T08:27:27.988Z</time></trkpt><trkpt lat="43.062482638846774" lon="2.124506930478683"><ele>243.0</ele><time>2026-04-05T08:27:28.988Z</time></trkpt><trkpt lat="43.06249074787179" lon="2.1246724932356145"><ele>243.0</ele><time>2026-04-05T08:27:29.988Z</time></trkpt><trkpt lat="43.06249491848151" lon="2.12485112824784"><ele>243.0</ele><time>2026-04-05T08:27:30.988Z</time></trkpt><trkpt lat="43.06249103860113" lon="2.1250362852750695"><ele>243.0</ele><time>2026-04-05T08:27:31.988Z</time></trkpt><trkpt lat="43.062487398409495" lon="2.1252100038831756"><ele>243.0</ele><time>2026-04-05T08:27:32.988Z</time></trkpt><trkpt lat="43.06248408079807" lon="2.125368327849343"><ele>242.8</ele><time>2026-04-05T08:27:33.988Z</time></trkpt><trkpt lat="43.06249413170636" lon="2.1255001444511383"><ele>242.60000000000002</ele><time>2026-04-05T08:27:34.988Z</time></trkpt><trkpt lat="43.062484953793934" lon="2.1255964249001686"><ele>242.39999999999998</ele><time>2026-04-05T08:27:35.988Z</time></trkpt><trkpt lat="43.06238789529104" lon="2.1255115040701"><ele>242.2</ele><time>2026-04-05T08:27:38.988Z</time></trkpt><trkpt lat="43.062313221283794" lon="2.1254537343287665"><ele>242.0</ele><time>2026-04-05T08:27:39.988Z</time></trkpt><trkpt lat="43.06222489784986" lon="2.125391757625909"><ele>242.0</ele><time>2026-04-05T08:27:40.988Z</time></trkpt><trkpt lat="43.062131231885125" lon="2.1253281157331916"><ele>242.0</ele><time>2026-04-05T08:27:41.988Z</time></trkpt><trkpt lat="43.06202482257632" lon="2.1252587383234127"><ele>242.0</ele><time>2026-04-05T08:27:42.988Z</time></trkpt><trkpt lat="43.06191827965599" lon="2.1251892739316807"><ele>242.0</ele><time>2026-04-05T08:27:43.988Z</time></trkpt><trkpt lat="43.061808570153936" lon="2.1251186243580595"><ele>242.0</ele><time>2026-04-05T08:27:44.988Z</time></trkpt><trkpt lat="43.06169686679942" lon="2.1250475332132885"><ele>242.0</ele><time>2026-04-05T08:27:45.988Z</time></trkpt><trkpt lat="43.06158277407258" lon="2.124974921468787"><ele>242.0</ele><time>2026-04-05T08:27:46.988Z</time></trkpt><trkpt lat="43.06146508508015" lon="2.1248990272649704"><ele>242.0</ele><time>2026-04-05T08:27:47.988Z</time></trkpt><trkpt lat="43.06136013594024" lon="2.124830157047914"><ele>241.6</ele><time>2026-04-05T08:27:48.988Z</time></trkpt><trkpt lat="43.061263569594814" lon="2.1247628673534575"><ele>241.2</ele><time>2026-04-05T08:27:49.988Z</time></trkpt><trkpt lat="43.06118946389918" lon="2.1246987915610593"><ele>240.8</ele><time>2026-04-05T08:27:50.988Z</time></trkpt><trkpt lat="43.06111303249991" lon="2.124613171304803"><ele>240.4</ele><time>2026-04-05T08:27:52.988Z</time></trkpt><trkpt lat="43.061020746793396" lon="2.1244767130779914"><ele>240.0</ele><time>2026-04-05T08:27:54.988Z</time></trkpt><trkpt lat="43.060941702027385" lon="2.1243735525067686"><ele>240.0</ele><time>2026-04-05T08:27:55.988Z</time></trkpt><trkpt lat="43.0608542721792" lon="2.124259448425656"><ele>240.0</ele><time>2026-04-05T08:27:56.989Z</time></trkpt><trkpt lat="43.06054868958957" lon="2.1244498349521224"><ele>240.2</ele><time>2026-04-05T08:27:57.989Z</time></trkpt><trkpt lat="43.06042721498884" lon="2.12439373129036"><ele>240.4</ele><time>2026-04-05T08:27:58.989Z</time></trkpt><trkpt lat="43.06032275160178" lon="2.124348616199892"><ele>240.60000000000002</ele><time>2026-04-05T08:27:59.989Z</time></trkpt><trkpt lat="43.06023920408861" lon="2.1243107242828154"><ele>240.8</ele><time>2026-04-05T08:28:00.989Z</time></trkpt><trkpt lat="43.06016954170003" lon="2.1242900017628714"><ele>241.0</ele><time>2026-04-05T08:28:01.989Z</time></trkpt><trkpt lat="43.06010235684537" lon="2.124325799935263"><ele>241.0</ele><time>2026-04-05T08:28:03.989Z</time></trkpt><trkpt lat="43.06004781494596" lon="2.124440541490869"><ele>241.00000000000003</ele><time>2026-04-05T08:28:05.989Z</time></trkpt><trkpt lat="43.059994089959645" lon="2.124555258081618"><ele>241.00000000000003</ele><time>2026-04-05T08:28:06.989Z</time></trkpt><trkpt lat="43.05994132722179" lon="2.124705965684323"><ele>241.0</ele><time>2026-04-05T08:28:07.989Z</time></trkpt><trkpt lat="43.05988926909278" lon="2.124845795774771"><ele>241.0</ele><time>2026-04-05T08:28:08.989Z</time></trkpt><trkpt lat="43.059844059857056" lon="2.1249618656162337"><ele>240.75</ele><time>2026-04-05T08:28:09.989Z</time></trkpt><trkpt lat="43.05978670124131" lon="2.125085158616326"><ele>240.5</ele><time>2026-04-05T08:28:10.989Z</time></trkpt><trkpt lat="43.059728964000406" lon="2.1252330876304613"><ele>240.25</ele><time>2026-04-05T08:28:11.989Z</time></trkpt><trkpt lat="43.059657914768906" lon="2.1253639157499045"><ele>240.0</ele><time>2026-04-05T08:28:12.989Z</time></trkpt><trkpt lat="43.05958732058879" lon="2.125475016602942"><ele>240.0</ele><time>2026-04-05T08:28:13.989Z</time></trkpt><trkpt lat="43.05955172391836" lon="2.1255887939918523"><ele>240.0</ele><time>2026-04-05T08:28:14.989Z</time></trkpt><trkpt lat="43.05954714865634" lon="2.1257373221914455"><ele>240.0</ele><time>2026-04-05T08:28:15.989Z</time></trkpt><trkpt lat="43.05955193400225" lon="2.1258946982537004"><ele>240.0</ele><time>2026-04-05T08:28:16.989Z</time></trkpt><trkpt lat="43.05955659918615" lon="2.1260530509570046"><ele>240.0</ele><time>2026-04-05T08:28:17.989Z</time></trkpt><trkpt lat="43.05955487392248" lon="2.126185619083482"><ele>240.0</ele><time>2026-04-05T08:28:18.989Z</time></trkpt><trkpt lat="43.05954792505096" lon="2.1263065093902895"><ele>240.0</ele><time>2026-04-05T08:28:19.989Z</time></trkpt><trkpt lat="43.059525764780616" lon="2.1264166398649516"><ele>240.0</ele><time>2026-04-05T08:28:20.989Z</time></trkpt><trkpt lat="43.05948273985336" lon="2.126538310427789"><ele>240.0</ele><time>2026-04-05T08:28:21.989Z</time></trkpt><trkpt lat="43.05941435915841" lon="2.126687427553767"><ele>240.0</ele><time>2026-04-05T08:28:22.989Z</time></trkpt><trkpt lat="43.05934521206353" lon="2.126835865604341"><ele>239.8</ele><time>2026-04-05T08:28:23.989Z</time></trkpt><trkpt lat="43.05927487504688" lon="2.1269662433778365"><ele>239.6</ele><time>2026-04-05T08:28:24.989Z</time></trkpt><trkpt lat="43.05920863615933" lon="2.1270589608557793"><ele>239.39999999999998</ele><time>2026-04-05T08:28:25.989Z</time></trkpt><trkpt lat="43.05914245609874" lon="2.12714953792612"><ele>239.2</ele><time>2026-04-05T08:28:26.989Z</time></trkpt><trkpt lat="43.0590730260385" lon="2.127244562846966"><ele>239.0</ele><time>2026-04-05T08:28:27.989Z</time></trkpt><trkpt lat="43.05901713097711" lon="2.1273411645042537"><ele>239.0</ele><time>2026-04-05T08:28:28.989Z</time></trkpt><trkpt lat="43.058978865983576" lon="2.1274583837989334"><ele>238.99999999999997</ele><time>2026-04-05T08:28:29.989Z</time></trkpt><trkpt lat="43.05894171466768" lon="2.1275924551164715"><ele>238.99999999999997</ele><time>2026-04-05T08:28:30.989Z</time></trkpt><trkpt lat="43.05890633014696" lon="2.1277424633247186"><ele>239.0</ele><time>2026-04-05T08:28:31.989Z</time></trkpt><trkpt lat="43.058869765360825" lon="2.1279030569925776"><ele>239.0</ele><time>2026-04-05T08:28:32.989Z</time></trkpt><trkpt lat="43.05883033281185" lon="2.1280723716076038"><ele>238.5</ele><time>2026-04-05T08:28:33.989Z</time></trkpt><trkpt lat="43.058792601641365" lon="2.12823438065183"><ele>238.0</ele><time>2026-04-05T08:28:34.989Z</time></trkpt><trkpt lat="43.05875413792502" lon="2.1284024853709056"><ele>237.5</ele><time>2026-04-05T08:28:35.989Z</time></trkpt><trkpt lat="43.05871467410491" lon="2.128577578015388"><ele>237.0</ele><time>2026-04-05T08:28:36.989Z</time></trkpt><trkpt lat="43.05868018803001" lon="2.1287299676014513"><ele>237.0</ele><time>2026-04-05T08:28:37.989Z</time></trkpt><trkpt lat="43.05865098753892" lon="2.1288870381780263"><ele>237.0</ele><time>2026-04-05T08:28:38.989Z</time></trkpt><trkpt lat="43.058620869718254" lon="2.1290436133463877"><ele>237.0</ele><time>2026-04-05T08:28:39.989Z</time></trkpt><trkpt lat="43.0585709158327" lon="2.1292022755798676"><ele>237.0</ele><time>2026-04-05T08:28:40.989Z</time></trkpt><trkpt lat="43.05853507082936" lon="2.129357208103641"><ele>236.25</ele><time>2026-04-05T08:28:41.989Z</time></trkpt><trkpt lat="43.058490371060635" lon="2.1295504138167716"><ele>235.5</ele><time>2026-04-05T08:28:42.989Z</time></trkpt><trkpt lat="43.05844685665981" lon="2.129737324234631"><ele>234.75</ele><time>2026-04-05T08:28:43.989Z</time></trkpt><trkpt lat="43.058406506415736" lon="2.129906720362709"><ele>234.0</ele><time>2026-04-05T08:28:44.989Z</time></trkpt><trkpt lat="43.05837043973588" lon="2.130058133833816"><ele>234.0</ele><time>2026-04-05T08:28:45.989Z</time></trkpt><trkpt lat="43.058336461504666" lon="2.1301981805282755"><ele>234.0</ele><time>2026-04-05T08:28:46.989Z</time></trkpt><trkpt lat="43.058308300178304" lon="2.130314164323111"><ele>234.0</ele><time>2026-04-05T08:28:47.989Z</time></trkpt><trkpt lat="43.058287966780334" lon="2.130397908418426"><ele>234.0</ele><time>2026-04-05T08:28:48.989Z</time></trkpt><trkpt lat="43.058265225900755" lon="2.1304915678037055"><ele>234.0</ele><time>2026-04-05T08:28:49.985Z</time></trkpt><trkpt lat="43.05823255401704" lon="2.1305925163943558"><ele>234.0</ele><time>2026-04-05T08:28:50.985Z</time></trkpt><trkpt lat="43.058203397539096" lon="2.1307603350352693"><ele>233.5</ele><time>2026-04-05T08:28:51.985Z</time></trkpt><trkpt lat="43.05819077928139" lon="2.130956050507616"><ele>233.0</ele><time>2026-04-05T08:28:52.984Z</time></trkpt><trkpt lat="43.05817714199984" lon="2.131147610589796"><ele>232.5</ele><time>2026-04-05T08:28:53.984Z</time></trkpt><trkpt lat="43.05816428762392" lon="2.1313314967256165"><ele>232.0</ele><time>2026-04-05T08:28:54.985Z</time></trkpt><trkpt lat="43.05815685960727" lon="2.1315068133260935"><ele>231.75</ele><time>2026-04-05T08:28:55.984Z</time></trkpt><trkpt lat="43.05815425188076" lon="2.131679686381593"><ele>231.5</ele><time>2026-04-05T08:28:56.984Z</time></trkpt><trkpt lat="43.05815906915595" lon="2.13185774468961"><ele>231.25</ele><time>2026-04-05T08:28:57.984Z</time></trkpt><trkpt lat="43.05816584036197" lon="2.132036599951486"><ele>231.0</ele><time>2026-04-05T08:28:58.984Z</time></trkpt><trkpt lat="43.05817726699425" lon="2.1322137127002927"><ele>230.5</ele><time>2026-04-05T08:28:59.985Z</time></trkpt><trkpt lat="43.058189982789244" lon="2.1323926699741746"><ele>230.0</ele><time>2026-04-05T08:29:00.985Z</time></trkpt><trkpt lat="43.05820016624121" lon="2.1325736101754122"><ele>229.5</ele><time>2026-04-05T08:29:01.985Z</time></trkpt><trkpt lat="43.05820779506392" lon="2.1327455763258247"><ele>229.0</ele><time>2026-04-05T08:29:02.984Z</time></trkpt><trkpt lat="43.05821031844966" lon="2.1328982798623"><ele>229.0</ele><time>2026-04-05T08:29:03.984Z</time></trkpt><trkpt lat="43.05821982094917" lon="2.1330377289527918"><ele>228.99999999999997</ele><time>2026-04-05T08:29:04.984Z</time></trkpt><trkpt lat="43.05822619375859" lon="2.1331618814170468"><ele>228.99999999999997</ele><time>2026-04-05T08:29:05.984Z</time></trkpt><trkpt lat="43.0582363972426" lon="2.133286989431861"><ele>229.0</ele><time>2026-04-05T08:29:06.984Z</time></trkpt><trkpt lat="43.058245643365545" lon="2.1334022066895812"><ele>229.0</ele><time>2026-04-05T08:29:07.984Z</time></trkpt><trkpt lat="43.05825944234807" lon="2.1335150619279712"><ele>228.75</ele><time>2026-04-05T08:29:08.984Z</time></trkpt><trkpt lat="43.058281456705295" lon="2.1336502317405492"><ele>228.5</ele><time>2026-04-05T08:29:09.984Z</time></trkpt><trkpt lat="43.058270502416285" lon="2.1338076417845793"><ele>228.25</ele><time>2026-04-05T08:29:10.984Z</time></trkpt><trkpt lat="43.058242809724995" lon="2.1339724202047643"><ele>228.0</ele><time>2026-04-05T08:29:11.984Z</time></trkpt><trkpt lat="43.0582114327044" lon="2.134152576103231"><ele>227.75</ele><time>2026-04-05T08:29:12.984Z</time></trkpt><trkpt lat="43.058174578460836" lon="2.134342168094676"><ele>227.5</ele><time>2026-04-05T08:29:13.984Z</time></trkpt><trkpt lat="43.05815066593049" lon="2.134544817879911"><ele>227.25</ele><time>2026-04-05T08:29:14.984Z</time></trkpt><trkpt lat="43.05811974757765" lon="2.1347332480211043"><ele>227.0</ele><time>2026-04-05T08:29:15.984Z</time></trkpt><trkpt lat="43.05808661649165" lon="2.134923668863373"><ele>227.0</ele><time>2026-04-05T08:29:16.984Z</time></trkpt><trkpt lat="43.058055059397084" lon="2.1351078676491797"><ele>227.0</ele><time>2026-04-05T08:29:17.984Z</time></trkpt><trkpt lat="43.05802053718322" lon="2.135294149907246"><ele>227.0</ele><time>2026-04-05T08:29:18.984Z</time></trkpt><trkpt lat="43.05798902162169" lon="2.1354840363434353"><ele>227.0</ele><time>2026-04-05T08:29:19.984Z</time></trkpt><trkpt lat="43.05795595186892" lon="2.1356731140909773"><ele>226.75</ele><time>2026-04-05T08:29:20.984Z</time></trkpt><trkpt lat="43.05792125032806" lon="2.1358666739065364"><ele>226.5</ele><time>2026-04-05T08:29:21.984Z</time></trkpt><trkpt lat="43.057886059046076" lon="2.136060181748214"><ele>226.25</ele><time>2026-04-05T08:29:22.984Z</time></trkpt><trkpt lat="43.05784707863478" lon="2.136247339508448"><ele>226.0</ele><time>2026-04-05T08:29:23.984Z</time></trkpt><trkpt lat="43.057814639792426" lon="2.13643022816906"><ele>226.0</ele><time>2026-04-05T08:29:24.984Z</time></trkpt><trkpt lat="43.05777250231091" lon="2.1366161574733913"><ele>226.0</ele><time>2026-04-05T08:29:25.984Z</time></trkpt><trkpt lat="43.05773907805656" lon="2.1368047140744135"><ele>226.0</ele><time>2026-04-05T08:29:26.984Z</time></trkpt><trkpt lat="43.057706797575946" lon="2.136993403234927"><ele>226.0</ele><time>2026-04-05T08:29:27.984Z</time></trkpt><trkpt lat="43.05768539277173" lon="2.1371780705014296"><ele>226.0</ele><time>2026-04-05T08:29:28.984Z</time></trkpt><trkpt lat="43.05765574563991" lon="2.137364536853071"><ele>226.0</ele><time>2026-04-05T08:29:29.985Z</time></trkpt><trkpt lat="43.0576119471746" lon="2.137547831907601"><ele>226.0</ele><time>2026-04-05T08:29:30.985Z</time></trkpt><trkpt lat="43.05759362458083" lon="2.1377184874278496"><ele>226.0</ele><time>2026-04-05T08:29:31.985Z</time></trkpt><trkpt lat="43.05756566829884" lon="2.1378708746068584"><ele>226.0</ele><time>2026-04-05T08:29:32.985Z</time></trkpt><trkpt lat="43.05753967942844" lon="2.1380181425936624"><ele>226.00000000000003</ele><time>2026-04-05T08:29:33.985Z</time></trkpt><trkpt lat="43.05749097085072" lon="2.1381393050001223"><ele>226.00000000000003</ele><time>2026-04-05T08:29:34.985Z</time></trkpt><trkpt lat="43.05744506390271" lon="2.138245969061703"><ele>226.0</ele><time>2026-04-05T08:29:35.985Z</time></trkpt><trkpt lat="43.05737558944245" lon="2.1383203862600464"><ele>226.0</ele><time>2026-04-05T08:29:36.985Z</time></trkpt><trkpt lat="43.05730908715979" lon="2.138425080314282"><ele>226.16666666666666</ele><time>2026-04-05T08:29:37.985Z</time></trkpt><trkpt lat="43.05726265053719" lon="2.1385343575972917"><ele>226.33333333333331</ele><time>2026-04-05T08:29:38.985Z</time></trkpt><trkpt lat="43.057199870543855" lon="2.1386218399787285"><ele>226.5</ele><time>2026-04-05T08:29:39.985Z</time></trkpt><trkpt lat="43.057151008568596" lon="2.1387101846367775"><ele>226.66666666666669</ele><time>2026-04-05T08:29:40.985Z</time></trkpt><trkpt lat="43.05708362071602" lon="2.1387815686615355"><ele>226.83333333333334</ele><time>2026-04-05T08:29:41.985Z</time></trkpt><trkpt lat="43.05703629208924" lon="2.1388743352589596"><ele>227.0</ele><time>2026-04-05T08:29:42.985Z</time></trkpt><trkpt lat="43.057000059790234" lon="2.1389799322950394"><ele>227.6</ele><time>2026-04-05T08:29:43.985Z</time></trkpt><trkpt lat="43.056959848239394" lon="2.1390783274889"><ele>228.2</ele><time>2026-04-05T08:29:44.985Z</time></trkpt><trkpt lat="43.056899318506034" lon="2.1391486018500583"><ele>228.8</ele><time>2026-04-05T08:29:46.985Z</time></trkpt><trkpt lat="43.056817500183655" lon="2.139150939021304"><ele>229.4</ele><time>2026-04-05T08:29:48.985Z</time></trkpt><trkpt lat="43.056750710081694" lon="2.1391588244478874"><ele>230.0</ele><time>2026-04-05T08:29:49.985Z</time></trkpt><trkpt lat="43.05658189550748" lon="2.139058875491071"><ele>230.0</ele><time>2026-04-05T08:29:51.985Z</time></trkpt><trkpt lat="43.05647638980469" lon="2.138978246277589"><ele>230.0</ele><time>2026-04-05T08:29:52.985Z</time></trkpt><trkpt lat="43.05639230627909" lon="2.1388730765461603"><ele>230.0</ele><time>2026-04-05T08:29:53.985Z</time></trkpt><trkpt lat="43.0562977200959" lon="2.138779927720382"><ele>230.0</ele><time>2026-04-05T08:29:54.985Z</time></trkpt><trkpt lat="43.05618768920603" lon="2.1386899691047017"><ele>230.0</ele><time>2026-04-05T08:29:55.985Z</time></trkpt><trkpt lat="43.05608424703741" lon="2.1385870868439802"><ele>230.0</ele><time>2026-04-05T08:29:56.985Z</time></trkpt><trkpt lat="43.05597673137598" lon="2.13847545471931"><ele>230.0</ele><time>2026-04-05T08:29:57.985Z</time></trkpt><trkpt lat="43.055864223456986" lon="2.1383721562267164"><ele>230.0</ele><time>2026-04-05T08:29:58.985Z</time></trkpt><trkpt lat="43.055749846994225" lon="2.1382723878048773"><ele>230.5</ele><time>2026-04-05T08:29:59.985Z</time></trkpt><trkpt lat="43.055640902582596" lon="2.1381618456020726"><ele>231.0</ele><time>2026-04-05T08:30:00.985Z</time></trkpt><trkpt lat="43.05553199813978" lon="2.1380577802588805"><ele>231.5</ele><time>2026-04-05T08:30:01.985Z</time></trkpt><trkpt lat="43.0554241371607" lon="2.137957874690352"><ele>232.0</ele><time>2026-04-05T08:30:02.985Z</time></trkpt><trkpt lat="43.05532170963323" lon="2.1378621602914074"><ele>232.0</ele><time>2026-04-05T08:30:03.985Z</time></trkpt><trkpt lat="43.055225522238324" lon="2.137768750292918"><ele>232.0</ele><time>2026-04-05T08:30:04.985Z</time></trkpt><trkpt lat="43.055136001073684" lon="2.137674065003265"><ele>232.0</ele><time>2026-04-05T08:30:05.985Z</time></trkpt><trkpt lat="43.055054652094476" lon="2.137604421995032"><ele>232.0</ele><time>2026-04-05T08:30:06.985Z</time></trkpt><trkpt lat="43.0549787013462" lon="2.1375749995863553"><ele>232.0</ele><time>2026-04-05T08:30:07.985Z</time></trkpt><trkpt lat="43.05490174164917" lon="2.1375869015171"><ele>232.25</ele><time>2026-04-05T08:30:08.985Z</time></trkpt><trkpt lat="43.0548083583629" lon="2.1376202686468173"><ele>232.5</ele><time>2026-04-05T08:30:09.985Z</time></trkpt><trkpt lat="43.05469356115467" lon="2.137659102575669"><ele>232.75</ele><time>2026-04-05T08:30:10.985Z</time></trkpt><trkpt lat="43.05456445140058" lon="2.1377044543038917"><ele>233.0</ele><time>2026-04-05T08:30:11.985Z</time></trkpt><trkpt lat="43.054431759609834" lon="2.1377490086530084"><ele>233.0</ele><time>2026-04-05T08:30:12.985Z</time></trkpt><trkpt lat="43.05429442521432" lon="2.1378029719058502"><ele>233.0</ele><time>2026-04-05T08:30:13.985Z</time></trkpt><trkpt lat="43.05415353012687" lon="2.137858439378445"><ele>233.0</ele><time>2026-04-05T08:30:14.985Z</time></trkpt><trkpt lat="43.054012857979444" lon="2.137911304760642"><ele>233.0</ele><time>2026-04-05T08:30:15.985Z</time></trkpt><trkpt lat="43.05386149655756" lon="2.137969360495598"><ele>233.0</ele><time>2026-04-05T08:30:16.985Z</time></trkpt><trkpt lat="43.0537097685403" lon="2.138030588198662"><ele>233.0</ele><time>2026-04-05T08:30:17.985Z</time></trkpt><trkpt lat="43.05356969079003" lon="2.1380880153045125"><ele>233.0</ele><time>2026-04-05T08:30:18.985Z</time></trkpt><trkpt lat="43.05344398943639" lon="2.1381351476390122"><ele>233.0</ele><time>2026-04-05T08:30:19.985Z</time></trkpt><trkpt lat="43.05333189498223" lon="2.138172540319083"><ele>233.0</ele><time>2026-04-05T08:30:20.985Z</time></trkpt><trkpt lat="43.05323558173317" lon="2.1381986008406715"><ele>233.0</ele><time>2026-04-05T08:30:21.985Z</time></trkpt><trkpt lat="43.05315841209069" lon="2.1382145625188436"><ele>233.0</ele><time>2026-04-05T08:30:22.985Z</time></trkpt><trkpt lat="43.0530935334382" lon="2.1382229938431756"><ele>233.0</ele><time>2026-04-05T08:30:23.985Z</time></trkpt><trkpt lat="43.053001273253564" lon="2.138213539816219"><ele>233.0</ele><time>2026-04-05T08:30:31.985Z</time></trkpt><trkpt lat="43.05286621813901" lon="2.138233778704647"><ele>233.2</ele><time>2026-04-05T08:30:33.985Z</time></trkpt><trkpt lat="43.052786683428195" lon="2.13824549968655"><ele>233.4</ele><time>2026-04-05T08:30:34.985Z</time></trkpt><trkpt lat="43.052686308095545" lon="2.138254316997625"><ele>233.59999999999997</ele><time>2026-04-05T08:30:35.985Z</time></trkpt><trkpt lat="43.052587247945844" lon="2.1382533440357814"><ele>233.79999999999998</ele><time>2026-04-05T08:30:36.985Z</time></trkpt><trkpt lat="43.052471411642536" lon="2.13825913036019"><ele>234.0</ele><time>2026-04-05T08:30:37.985Z</time></trkpt><trkpt lat="43.05235347729272" lon="2.138262369474829"><ele>234.75</ele><time>2026-04-05T08:30:38.985Z</time></trkpt><trkpt lat="43.052231695862574" lon="2.1382411771677887"><ele>235.5</ele><time>2026-04-05T08:30:39.985Z</time></trkpt><trkpt lat="43.05211060464713" lon="2.138236940296391"><ele>236.25</ele><time>2026-04-05T08:30:40.985Z</time></trkpt><trkpt lat="43.05199070993512" lon="2.1382235770470635"><ele>237.0</ele><time>2026-04-05T08:30:41.985Z</time></trkpt><trkpt lat="43.051871466148015" lon="2.1382169085583667"><ele>237.5</ele><time>2026-04-05T08:30:42.985Z</time></trkpt><trkpt lat="43.05175047968728" lon="2.1381831369706954"><ele>238.0</ele><time>2026-04-05T08:30:43.985Z</time></trkpt><trkpt lat="43.05163611696495" lon="2.1381500006090097"><ele>238.5</ele><time>2026-04-05T08:30:44.985Z</time></trkpt><trkpt lat="43.05151963568284" lon="2.1381172738537537"><ele>239.0</ele><time>2026-04-05T08:30:45.985Z</time></trkpt><trkpt lat="43.05139784636305" lon="2.1380940807925453"><ele>241.75</ele><time>2026-04-05T08:30:46.985Z</time></trkpt><trkpt lat="43.051272027969056" lon="2.138105554219586"><ele>244.5</ele><time>2026-04-05T08:30:47.985Z</time></trkpt><trkpt lat="43.05114711907384" lon="2.138151122611067"><ele>247.25</ele><time>2026-04-05T08:30:48.985Z</time></trkpt><trkpt lat="43.05102100856715" lon="2.138180404370588"><ele>250.0</ele><time>2026-04-05T08:30:49.985Z</time></trkpt><trkpt lat="43.050901270288215" lon="2.1382082943944116"><ele>252.5</ele><time>2026-04-05T08:30:50.985Z</time></trkpt><trkpt lat="43.05078479991697" lon="2.138236956064684"><ele>255.0</ele><time>2026-04-05T08:30:51.985Z</time></trkpt><trkpt lat="43.05066698273784" lon="2.138264198242375"><ele>257.5</ele><time>2026-04-05T08:30:52.985Z</time></trkpt><trkpt lat="43.050556074155594" lon="2.138278231003238"><ele>260.0</ele><time>2026-04-05T08:30:53.985Z</time></trkpt><trkpt lat="43.05044466885683" lon="2.1382627246418173"><ele>260.0</ele><time>2026-04-05T08:30:54.985Z</time></trkpt><trkpt lat="43.05033027977229" lon="2.1382481551646317"><ele>260.0</ele><time>2026-04-05T08:30:55.982Z</time></trkpt><trkpt lat="43.050214060205874" lon="2.1382351198649485"><ele>260.0</ele><time>2026-04-05T08:30:56.982Z</time></trkpt><trkpt lat="43.05009399965882" lon="2.1382238755078857"><ele>260.0</ele><time>2026-04-05T08:30:57.982Z</time></trkpt><trkpt lat="43.0499677743399" lon="2.1382083378697065"><ele>264.0</ele><time>2026-04-05T08:30:58.982Z</time></trkpt><trkpt lat="43.049850978677796" lon="2.138162541573678"><ele>268.0</ele><time>2026-04-05T08:30:59.983Z</time></trkpt><trkpt lat="43.04973176345443" lon="2.13812727593251"><ele>272.0</ele><time>2026-04-05T08:31:00.983Z</time></trkpt><trkpt lat="43.0496193967915" lon="2.138085954832876"><ele>276.0</ele><time>2026-04-05T08:31:01.982Z</time></trkpt><trkpt lat="43.04950587824662" lon="2.1380739015354466"><ele>276.0</ele><time>2026-04-05T08:31:02.982Z</time></trkpt><trkpt lat="43.04938650896226" lon="2.138077350341043"><ele>276.0</ele><time>2026-04-05T08:31:03.982Z</time></trkpt><trkpt lat="43.049280033178526" lon="2.138076993471278"><ele>276.0</ele><time>2026-04-05T08:31:04.982Z</time></trkpt><trkpt lat="43.04916981010263" lon="2.138039806579342"><ele>276.0</ele><time>2026-04-05T08:31:05.982Z</time></trkpt><trkpt lat="43.04905453024734" lon="2.138014819579612"><ele>278.0</ele><time>2026-04-05T08:31:06.982Z</time></trkpt><trkpt lat="43.04893337193352" lon="2.1379753834956374"><ele>280.0</ele><time>2026-04-05T08:31:07.982Z</time></trkpt><trkpt lat="43.0488136747808" lon="2.1379403435287787"><ele>282.0</ele><time>2026-04-05T08:31:08.983Z</time></trkpt><trkpt lat="43.048715648890415" lon="2.1379244494070067"><ele>284.0</ele><time>2026-04-05T08:31:09.983Z</time></trkpt><trkpt lat="43.048641620607945" lon="2.137913379243578"><ele>286.0</ele><time>2026-04-05T08:31:10.983Z</time></trkpt><trkpt lat="43.048543481089666" lon="2.1379247895008837"><ele>286.0</ele><time>2026-04-05T08:31:12.983Z</time></trkpt><trkpt lat="43.04846433829997" lon="2.138018293867099"><ele>286.0</ele><time>2026-04-05T08:31:15.983Z</time></trkpt><trkpt lat="43.0484101960892" lon="2.1380675800745785"><ele>286.0</ele><time>2026-04-05T08:31:16.983Z</time></trkpt><trkpt lat="43.04836175995474" lon="2.138149543398192"><ele>286.0</ele><time>2026-04-05T08:31:17.983Z</time></trkpt><trkpt lat="43.04832406913891" lon="2.1382467729429795"><ele>286.0</ele><time>2026-04-05T08:31:18.983Z</time></trkpt><trkpt lat="43.04824934343195" lon="2.138352972106712"><ele>286.0</ele><time>2026-04-05T08:31:20.983Z</time></trkpt><trkpt lat="43.048188759067244" lon="2.1383127430417996"><ele>284.66666666666663</ele><time>2026-04-05T08:31:23.983Z</time></trkpt><trkpt lat="43.048115003855415" lon="2.1382887191941427"><ele>283.3333333333333</ele><time>2026-04-05T08:31:25.983Z</time></trkpt><trkpt lat="43.0480728790943" lon="2.1382193667882077"><ele>282.0</ele><time>2026-04-05T08:31:26.983Z</time></trkpt><trkpt lat="43.0480260234158" lon="2.138121141500763"><ele>280.6666666666667</ele><time>2026-04-05T08:31:28.983Z</time></trkpt><trkpt lat="43.048000517872275" lon="2.1379978124602568"><ele>279.33333333333337</ele><time>2026-04-05T08:31:31.983Z</time></trkpt><trkpt lat="43.04800453303226" lon="2.137910306169586"><ele>278.0</ele><time>2026-04-05T08:31:32.983Z</time></trkpt><trkpt lat="43.04798810191019" lon="2.1377650227606764"><ele>278.0</ele><time>2026-04-05T08:31:34.983Z</time></trkpt><trkpt lat="43.04799661027977" lon="2.1376319828308956"><ele>278.0</ele><time>2026-04-05T08:31:38.983Z</time></trkpt><trkpt lat="43.04803815727729" lon="2.1375158360938356"><ele>278.0</ele><time>2026-04-05T08:31:40.983Z</time></trkpt><trkpt lat="43.04810385494967" lon="2.137378069139866"><ele>278.0</ele><time>2026-04-05T08:31:42.983Z</time></trkpt><trkpt lat="43.048151496344715" lon="2.137271586277668"><ele>278.0</ele><time>2026-04-05T08:31:44.983Z</time></trkpt><trkpt lat="43.04822998139839" lon="2.137181310426771"><ele>277.25</ele><time>2026-04-05T08:31:46.983Z</time></trkpt><trkpt lat="43.048024041433855" lon="2.137085645501608"><ele>276.5</ele><time>2026-04-05T08:31:51.983Z</time></trkpt><trkpt lat="43.04796448543397" lon="2.137114124472132"><ele>275.75</ele><time>2026-04-05T08:31:52.983Z</time></trkpt><trkpt lat="43.047866591615566" lon="2.137166161727172"><ele>275.0</ele><time>2026-04-05T08:31:54.983Z</time></trkpt><trkpt lat="43.04780130052945" lon="2.1370946791121663"><ele>275.0</ele><time>2026-04-05T08:31:56.983Z</time></trkpt><trkpt lat="43.04774845110079" lon="2.137041804907972"><ele>275.0</ele><time>2026-04-05T08:31:57.983Z</time></trkpt><trkpt lat="43.047695139908555" lon="2.1369904276431293"><ele>275.0</ele><time>2026-04-05T08:31:58.983Z</time></trkpt><trkpt lat="43.047625645835566" lon="2.1369541510219725"><ele>275.0</ele><time>2026-04-05T08:31:59.983Z</time></trkpt><trkpt lat="43.047572637681" lon="2.1368919710433345"><ele>275.0</ele><time>2026-04-05T08:32:00.983Z</time></trkpt><trkpt lat="43.047520197023125" lon="2.136841739476969"><ele>275.0</ele><time>2026-04-05T08:32:01.983Z</time></trkpt><trkpt lat="43.04745744214729" lon="2.1367938645158873"><ele>275.0</ele><time>2026-04-05T08:32:02.983Z</time></trkpt><trkpt lat="43.047339652703435" lon="2.1367117358026944"><ele>274.1666666666667</ele><time>2026-04-05T08:32:04.983Z</time></trkpt><trkpt lat="43.0472681829212" lon="2.136668057084939"><ele>273.33333333333337</ele><time>2026-04-05T08:32:05.983Z</time></trkpt><trkpt lat="43.04719782560248" lon="2.1366226693120267"><ele>272.5</ele><time>2026-04-05T08:32:06.983Z</time></trkpt><trkpt lat="43.047126839554544" lon="2.136582828195906"><ele>271.6666666666667</ele><time>2026-04-05T08:32:07.983Z</time></trkpt><trkpt lat="43.04704496583655" lon="2.1365394047499273"><ele>270.8333333333333</ele><time>2026-04-05T08:32:08.983Z</time></trkpt><trkpt lat="43.046979024134174" lon="2.1365059726512774"><ele>270.0</ele><time>2026-04-05T08:32:09.983Z</time></trkpt><trkpt lat="43.04690785560542" lon="2.136473213668836"><ele>270.0</ele><time>2026-04-05T08:32:11.983Z</time></trkpt><trkpt lat="43.04680493689394" lon="2.1364435970568967"><ele>270.0</ele><time>2026-04-05T08:32:15.983Z</time></trkpt><trkpt lat="43.04672256163514" lon="2.1364306687938783"><ele>270.0</ele><time>2026-04-05T08:32:16.983Z</time></trkpt><trkpt lat="43.04664979012158" lon="2.1364380800904543"><ele>270.0</ele><time>2026-04-05T08:32:17.983Z</time></trkpt><trkpt lat="43.04656421349888" lon="2.136454179503986"><ele>270.0</ele><time>2026-04-05T08:32:18.983Z</time></trkpt><trkpt lat="43.04648183176194" lon="2.136469595669553"><ele>270.0</ele><time>2026-04-05T08:32:19.983Z</time></trkpt><trkpt lat="43.04641492742559" lon="2.136513277753165"><ele>267.6666666666667</ele><time>2026-04-05T08:32:20.983Z</time></trkpt><trkpt lat="43.04638138546673" lon="2.1366013373060024"><ele>265.3333333333333</ele><time>2026-04-05T08:32:21.983Z</time></trkpt><trkpt lat="43.04632942083772" lon="2.136689396236631"><ele>263.0</ele><time>2026-04-05T08:32:22.983Z</time></trkpt><trkpt lat="43.04629505148813" lon="2.1368041976369185"><ele>260.66666666666663</ele><time>2026-04-05T08:32:23.983Z</time></trkpt><trkpt lat="43.046266210926206" lon="2.1369207332322784"><ele>258.3333333333333</ele><time>2026-04-05T08:32:24.983Z</time></trkpt><trkpt lat="43.0462430207375" lon="2.1370583271741284"><ele>256.0</ele><time>2026-04-05T08:32:25.983Z</time></trkpt><trkpt lat="43.0462323030827" lon="2.137201927769316"><ele>256.0</ele><time>2026-04-05T08:32:26.983Z</time></trkpt><trkpt lat="43.04622464359882" lon="2.1373495108520943"><ele>256.0</ele><time>2026-04-05T08:32:27.983Z</time></trkpt><trkpt lat="43.04620780115564" lon="2.137505663407505"><ele>256.0</ele><time>2026-04-05T08:32:28.983Z</time></trkpt><trkpt lat="43.04619074389513" lon="2.1376652618875367"><ele>256.0</ele><time>2026-04-05T08:32:29.983Z</time></trkpt><trkpt lat="43.046183619345875" lon="2.137835480906626"><ele>255.75</ele><time>2026-04-05T08:32:30.983Z</time></trkpt><trkpt lat="43.04614059680039" lon="2.137995199410911"><ele>255.5</ele><time>2026-04-05T08:32:31.983Z</time></trkpt><trkpt lat="43.046093390142204" lon="2.1381491707694975"><ele>255.25</ele><time>2026-04-05T08:32:32.983Z</time></trkpt><trkpt lat="43.04605236315654" lon="2.1382944919582445"><ele>255.0</ele><time>2026-04-05T08:32:33.983Z</time></trkpt><trkpt lat="43.04601451352172" lon="2.138437627061004"><ele>254.83333333333334</ele><time>2026-04-05T08:32:34.984Z</time></trkpt><trkpt lat="43.04598315262149" lon="2.138567320717261"><ele>254.66666666666669</ele><time>2026-04-05T08:32:35.984Z</time></trkpt><trkpt lat="43.045935846216615" lon="2.1386669776935134"><ele>254.5</ele><time>2026-04-05T08:32:36.984Z</time></trkpt><trkpt lat="43.04590646973357" lon="2.1387706839053835"><ele>254.33333333333334</ele><time>2026-04-05T08:32:37.984Z</time></trkpt><trkpt lat="43.04586108120383" lon="2.1388361759389367"><ele>254.16666666666669</ele><time>2026-04-05T08:32:38.984Z</time></trkpt><trkpt lat="43.04579798943568" lon="2.138833371976208"><ele>254.0</ele><time>2026-04-05T08:32:39.984Z</time></trkpt><trkpt lat="43.04571563247374" lon="2.1388298786493114"><ele>253.6</ele><time>2026-04-05T08:32:40.984Z</time></trkpt><trkpt lat="43.045622844541676" lon="2.1388133068445287"><ele>253.2</ele><time>2026-04-05T08:32:41.984Z</time></trkpt><trkpt lat="43.045513423875285" lon="2.1387930015793524"><ele>252.79999999999998</ele><time>2026-04-05T08:32:42.984Z</time></trkpt><trkpt lat="43.04540238895391" lon="2.1387754521185416"><ele>252.39999999999998</ele><time>2026-04-05T08:32:43.984Z</time></trkpt><trkpt lat="43.045294082047675" lon="2.1387688146184285"><ele>252.0</ele><time>2026-04-05T08:32:44.984Z</time></trkpt><trkpt lat="43.045191561639164" lon="2.1387889164456904"><ele>252.0</ele><time>2026-04-05T08:32:45.984Z</time></trkpt><trkpt lat="43.045110825324606" lon="2.1388011288951887"><ele>252.0</ele><time>2026-04-05T08:32:46.984Z</time></trkpt><trkpt lat="43.0450352554936" lon="2.138823194980528"><ele>252.0</ele><time>2026-04-05T08:32:47.984Z</time></trkpt><trkpt lat="43.044961496142605" lon="2.1388242073353787"><ele>252.0</ele><time>2026-04-05T08:32:48.984Z</time></trkpt><trkpt lat="43.04488843412297" lon="2.1388569898186764"><ele>252.0</ele><time>2026-04-05T08:32:49.984Z</time></trkpt><trkpt lat="43.044813244411806" lon="2.138929331404302"><ele>252.0</ele><time>2026-04-05T08:32:50.984Z</time></trkpt><trkpt lat="43.044743047238725" lon="2.1390044121670146"><ele>253.8</ele><time>2026-04-05T08:32:51.984Z</time></trkpt><trkpt lat="43.04468769134297" lon="2.1391056596523583"><ele>255.6</ele><time>2026-04-05T08:32:52.984Z</time></trkpt><trkpt lat="43.044651901833674" lon="2.139226498804276"><ele>257.40000000000003</ele><time>2026-04-05T08:32:53.984Z</time></trkpt><trkpt lat="43.0446192701223" lon="2.139352760046239"><ele>259.2</ele><time>2026-04-05T08:32:54.984Z</time></trkpt><trkpt lat="43.04459751661325" lon="2.1394888720562872"><ele>261.0</ele><time>2026-04-05T08:32:55.984Z</time></trkpt><trkpt lat="43.044572354878966" lon="2.1396202818938583"><ele>261.0</ele><time>2026-04-05T08:32:56.984Z</time></trkpt><trkpt lat="43.0445428368229" lon="2.139748627622753"><ele>261.0</ele><time>2026-04-05T08:32:57.984Z</time></trkpt><trkpt lat="43.04451555727346" lon="2.139870214814975"><ele>261.0</ele><time>2026-04-05T08:32:58.984Z</time></trkpt><trkpt lat="43.044483455783194" lon="2.1399827240597395"><ele>261.0</ele><time>2026-04-05T08:32:59.984Z</time></trkpt><trkpt lat="43.04442803089277" lon="2.1400538552870665"><ele>261.0</ele><time>2026-04-05T08:33:00.984Z</time></trkpt><trkpt lat="43.04437153414959" lon="2.1401268149347077"><ele>261.0</ele><time>2026-04-05T08:33:01.979Z</time></trkpt><trkpt lat="43.044287319024335" lon="2.140201378423159"><ele>260.8</ele><time>2026-04-05T08:33:03.979Z</time></trkpt><trkpt lat="43.04415170399328" lon="2.1401916187291645"><ele>260.6</ele><time>2026-04-05T08:33:05.979Z</time></trkpt><trkpt lat="43.04405840858259" lon="2.140180551882333"><ele>260.4</ele><time>2026-04-05T08:33:06.98Z</time></trkpt><trkpt lat="43.04396617091686" lon="2.140171604131939"><ele>260.2</ele><time>2026-04-05T08:33:07.979Z</time></trkpt><trkpt lat="43.04387188767777" lon="2.1401769951220357"><ele>260.0</ele><time>2026-04-05T08:33:08.979Z</time></trkpt><trkpt lat="43.04378766122027" lon="2.1401543411694544"><ele>260.0</ele><time>2026-04-05T08:33:09.979Z</time></trkpt><trkpt lat="43.04371396393598" lon="2.140128038293834"><ele>260.0</ele><time>2026-04-05T08:33:10.979Z</time></trkpt><trkpt lat="43.04365165556964" lon="2.1400895554688115"><ele>260.0</ele><time>2026-04-05T08:33:11.979Z</time></trkpt><trkpt lat="43.043568833656536" lon="2.1400220077779784"><ele>260.0</ele><time>2026-04-05T08:33:13.98Z</time></trkpt><trkpt lat="43.04347929355645" lon="2.1400629288391"><ele>260.0</ele><time>2026-04-05T08:33:15.979Z</time></trkpt><trkpt lat="43.04349466889428" lon="2.140241092567986"><ele>260.0</ele><time>2026-04-05T08:33:17.979Z</time></trkpt><trkpt lat="43.04350076515236" lon="2.14034112181751"><ele>260.0</ele><time>2026-04-05T08:33:18.979Z</time></trkpt><trkpt lat="43.043501423631525" lon="2.1404464995840478"><ele>260.0</ele><time>2026-04-05T08:33:19.979Z</time></trkpt><trkpt lat="43.04350424656268" lon="2.14056754466956"><ele>260.0</ele><time>2026-04-05T08:33:20.979Z</time></trkpt><trkpt lat="43.04352783960379" lon="2.140696051473826"><ele>260.0</ele><time>2026-04-05T08:33:21.979Z</time></trkpt><trkpt lat="43.043536197492884" lon="2.14083993626416"><ele>260.0</ele><time>2026-04-05T08:33:22.979Z</time></trkpt><trkpt lat="43.0435507779848" lon="2.140985138983718"><ele>261.1666666666667</ele><time>2026-04-05T08:33:23.979Z</time></trkpt><trkpt lat="43.043541568466765" lon="2.141100657806089"><ele>262.33333333333337</ele><time>2026-04-05T08:33:24.979Z</time></trkpt><trkpt lat="43.043539940439544" lon="2.141188618751325"><ele>263.5</ele><time>2026-04-05T08:33:25.979Z</time></trkpt><trkpt lat="43.043498384429185" lon="2.141305768460552"><ele>264.6666666666667</ele><time>2026-04-05T08:33:27.979Z</time></trkpt><trkpt lat="43.04346225755488" lon="2.1414010434438304"><ele>265.8333333333333</ele><time>2026-04-05T08:33:28.979Z</time></trkpt><trkpt lat="43.04343528234587" lon="2.141507121934671"><ele>267.0</ele><time>2026-04-05T08:33:29.979Z</time></trkpt><trkpt lat="43.04338760353986" lon="2.141627102983037"><ele>267.6</ele><time>2026-04-05T08:33:30.979Z</time></trkpt><trkpt lat="43.04333781998511" lon="2.141759177919567"><ele>268.2</ele><time>2026-04-05T08:33:31.979Z</time></trkpt><trkpt lat="43.04328353870684" lon="2.141893752648872"><ele>268.8</ele><time>2026-04-05T08:33:32.979Z</time></trkpt><trkpt lat="43.043232607012484" lon="2.142004578430132"><ele>269.4</ele><time>2026-04-05T08:33:33.979Z</time></trkpt><trkpt lat="43.04319107903867" lon="2.1420973866323716"><ele>270.0</ele><time>2026-04-05T08:33:34.979Z</time></trkpt><trkpt lat="43.04315902251196" lon="2.1421732199746653"><ele>272.3333333333333</ele><time>2026-04-05T08:33:35.979Z</time></trkpt><trkpt lat="43.04312848724448" lon="2.1422568797847403"><ele>274.6666666666667</ele><time>2026-04-05T08:33:36.979Z</time></trkpt><trkpt lat="43.0430813493607" lon="2.142325269778355"><ele>277.0</ele><time>2026-04-05T08:33:37.979Z</time></trkpt><trkpt lat="43.04305570415681" lon="2.1424470737993135"><ele>279.33333333333337</ele><time>2026-04-05T08:33:38.979Z</time></trkpt><trkpt lat="43.043014225722324" lon="2.142561094895876"><ele>281.6666666666667</ele><time>2026-04-05T08:33:39.979Z</time></trkpt><trkpt lat="43.04299034435963" lon="2.1426747760574907"><ele>284.0</ele><time>2026-04-05T08:33:40.979Z</time></trkpt><trkpt lat="43.042972703848825" lon="2.1427682989885897"><ele>284.0</ele><time>2026-04-05T08:33:41.979Z</time></trkpt><trkpt lat="43.042957964700825" lon="2.142858771456882"><ele>284.0</ele><time>2026-04-05T08:33:42.979Z</time></trkpt><trkpt lat="43.04294279400515" lon="2.1430085097127716"><ele>284.0</ele><time>2026-04-05T08:33:44.979Z</time></trkpt><trkpt lat="43.04294028765024" lon="2.143157058263746"><ele>284.0</ele><time>2026-04-05T08:33:46.98Z</time></trkpt><trkpt lat="43.042914961706984" lon="2.143273690061403"><ele>284.0</ele><time>2026-04-05T08:33:48.98Z</time></trkpt><trkpt lat="43.04290340550211" lon="2.143381206814516"><ele>284.59999999999997</ele><time>2026-04-05T08:33:50.98Z</time></trkpt><trkpt lat="43.0429086216606" lon="2.143492477497616"><ele>285.2</ele><time>2026-04-05T08:33:53.98Z</time></trkpt><trkpt lat="43.04299147191477" lon="2.1435638421957326"><ele>285.79999999999995</ele><time>2026-04-05T08:33:58.98Z</time></trkpt><trkpt lat="43.04299022587792" lon="2.1436857495125947"><ele>286.4</ele><time>2026-04-05T08:34:22.98Z</time></trkpt><trkpt lat="43.04296640396206" lon="2.1437917674889184"><ele>287.0</ele><time>2026-04-05T08:34:23.98Z</time></trkpt><trkpt lat="43.042928553163705" lon="2.1439281643067316"><ele>286.0</ele><time>2026-04-05T08:34:24.98Z</time></trkpt><trkpt lat="43.04287474173202" lon="2.144082819654261"><ele>285.0</ele><time>2026-04-05T08:34:25.98Z</time></trkpt><trkpt lat="43.042796007566466" lon="2.144265699113736"><ele>284.0</ele><time>2026-04-05T08:34:26.98Z</time></trkpt><trkpt lat="43.042710807703074" lon="2.1444572129665787"><ele>283.0</ele><time>2026-04-05T08:34:27.98Z</time></trkpt><trkpt lat="43.04264830850831" lon="2.1445874576131305"><ele>283.0</ele><time>2026-04-05T08:34:28.98Z</time></trkpt><trkpt lat="43.042598088454376" lon="2.1446821500638142"><ele>283.0</ele><time>2026-04-05T08:34:29.98Z</time></trkpt><trkpt lat="43.042543673495224" lon="2.144763158301059"><ele>283.0</ele><time>2026-04-05T08:34:30.98Z</time></trkpt><trkpt lat="43.04244210571319" lon="2.1447469665759207"><ele>283.0</ele><time>2026-04-05T08:34:32.98Z</time></trkpt><trkpt lat="43.042355673924426" lon="2.1447311028430223"><ele>283.0</ele><time>2026-04-05T08:34:33.98Z</time></trkpt><trkpt lat="43.04225811248297" lon="2.1447337806495397"><ele>285.3333333333333</ele><time>2026-04-05T08:34:34.98Z</time></trkpt><trkpt lat="43.042182738960115" lon="2.144721117957986"><ele>287.66666666666663</ele><time>2026-04-05T08:34:35.98Z</time></trkpt><trkpt lat="43.04209796688871" lon="2.1447044345415462"><ele>290.0</ele><time>2026-04-05T08:34:37.98Z</time></trkpt><trkpt lat="43.042025419029805" lon="2.1446886688711446"><ele>292.3333333333333</ele><time>2026-04-05T08:34:39.98Z</time></trkpt><trkpt lat="43.04194203077164" lon="2.1446767152277832"><ele>294.6666666666667</ele><time>2026-04-05T08:34:40.98Z</time></trkpt><trkpt lat="43.04185158554895" lon="2.144664284817377"><ele>297.0</ele><time>2026-04-05T08:34:41.98Z</time></trkpt><trkpt lat="43.0417544548223" lon="2.1446493644115012"><ele>297.0</ele><time>2026-04-05T08:34:42.98Z</time></trkpt><trkpt lat="43.04167374801204" lon="2.1446363983052428"><ele>297.0</ele><time>2026-04-05T08:34:43.98Z</time></trkpt><trkpt lat="43.04160023798115" lon="2.1446054091938773"><ele>297.0</ele><time>2026-04-05T08:34:45.98Z</time></trkpt><trkpt lat="43.041708735783175" lon="2.1446388907677307"><ele>297.0</ele><time>2026-04-05T08:34:52.98Z</time></trkpt><trkpt lat="43.04182797639535" lon="2.1446442717475205"><ele>297.0</ele><time>2026-04-05T08:34:53.98Z</time></trkpt><trkpt lat="43.04196937204643" lon="2.1446724019896974"><ele>297.0</ele><time>2026-04-05T08:34:54.98Z</time></trkpt><trkpt lat="43.04208417464285" lon="2.1446908718612905"><ele>297.0</ele><time>2026-04-05T08:34:55.98Z</time></trkpt><trkpt lat="43.042156680968475" lon="2.1446797985648547"><ele>297.0</ele><time>2026-04-05T08:34:56.98Z</time></trkpt><trkpt lat="43.042220087580965" lon="2.144700621595215"><ele>297.0</ele><time>2026-04-05T08:34:58.98Z</time></trkpt><trkpt lat="43.042116725995" lon="2.144750059412984"><ele>297.0</ele><time>2026-04-05T08:35:02.98Z</time></trkpt><trkpt lat="43.042029105677" lon="2.144779121781589"><ele>297.0</ele><time>2026-04-05T08:35:03.98Z</time></trkpt><trkpt lat="43.04193252777527" lon="2.144810540605965"><ele>297.0</ele><time>2026-04-05T08:35:04.98Z</time></trkpt><trkpt lat="43.04182362090503" lon="2.1447881615088153"><ele>297.0</ele><time>2026-04-05T08:35:05.98Z</time></trkpt><trkpt lat="43.04168323942936" lon="2.144748247079442"><ele>297.0</ele><time>2026-04-05T08:35:06.98Z</time></trkpt><trkpt lat="43.04156453761853" lon="2.144749033736983"><ele>299.8</ele><time>2026-04-05T08:35:07.978Z</time></trkpt><trkpt lat="43.04144913553677" lon="2.1447319205223905"><ele>302.6</ele><time>2026-04-05T08:35:08.978Z</time></trkpt><trkpt lat="43.041352348864265" lon="2.144756128859444"><ele>305.40000000000003</ele><time>2026-04-05T08:35:09.978Z</time></trkpt><trkpt lat="43.04124609191247" lon="2.144807803807078"><ele>308.2</ele><time>2026-04-05T08:35:10.978Z</time></trkpt><trkpt lat="43.04117179338585" lon="2.144821094504962"><ele>311.0</ele><time>2026-04-05T08:35:11.978Z</time></trkpt><trkpt lat="43.0411647871293" lon="2.144729609176014"><ele>311.0</ele><time>2026-04-05T08:35:14.978Z</time></trkpt><trkpt lat="43.041141464414615" lon="2.144638629759803"><ele>311.0</ele><time>2026-04-05T08:35:16.978Z</time></trkpt><trkpt lat="43.04105467178175" lon="2.1446531431093696"><ele>311.0</ele><time>2026-04-05T08:35:18.978Z</time></trkpt><trkpt lat="43.0409742240181" lon="2.1446379658158357"><ele>311.0</ele><time>2026-04-05T08:35:19.977Z</time></trkpt><trkpt lat="43.0408909450023" lon="2.144618175375261"><ele>311.0</ele><time>2026-04-05T08:35:20.978Z</time></trkpt><trkpt lat="43.04079482862956" lon="2.1445971414575404"><ele>311.0</ele><time>2026-04-05T08:35:21.978Z</time></trkpt><trkpt lat="43.04070159992703" lon="2.144581755290284"><ele>312.0</ele><time>2026-04-05T08:35:22.978Z</time></trkpt><trkpt lat="43.04060575742706" lon="2.1445602513383974"><ele>313.0</ele><time>2026-04-05T08:35:23.978Z</time></trkpt><trkpt lat="43.040505598578214" lon="2.144538368029977"><ele>314.0</ele><time>2026-04-05T08:35:24.978Z</time></trkpt><trkpt lat="43.04040909287161" lon="2.1445206843502715"><ele>315.0</ele><time>2026-04-05T08:35:25.978Z</time></trkpt><trkpt lat="43.04030145493714" lon="2.1445205716549243"><ele>316.0</ele><time>2026-04-05T08:35:27.978Z</time></trkpt><trkpt lat="43.04020982839931" lon="2.1445690218195326"><ele>316.0</ele><time>2026-04-05T08:35:29.978Z</time></trkpt><trkpt lat="43.04008471181305" lon="2.1445714900423267"><ele>316.0</ele><time>2026-04-05T08:35:31.978Z</time></trkpt><trkpt lat="43.04001565704324" lon="2.1445700628922526"><ele>316.0</ele><time>2026-04-05T08:35:32.978Z</time></trkpt><trkpt lat="43.03993510936336" lon="2.1445416533689285"><ele>316.0</ele><time>2026-04-05T08:35:34.978Z</time></trkpt><trkpt lat="43.03986705360107" lon="2.144426786148099"><ele>316.0</ele><time>2026-04-05T08:35:38.978Z</time></trkpt><trkpt lat="43.03984329734681" lon="2.1443093893024647"><ele>315.28571428571433</ele><time>2026-04-05T08:35:39.978Z</time></trkpt><trkpt lat="43.03982517381633" lon="2.144217676337629"><ele>314.57142857142856</ele><time>2026-04-05T08:35:40.978Z</time></trkpt><trkpt lat="43.03981432583403" lon="2.1441285610915335"><ele>313.8571428571429</ele><time>2026-04-05T08:35:42.978Z</time></trkpt><trkpt lat="43.03978304977632" lon="2.1440121679559385"><ele>313.14285714285717</ele><time>2026-04-05T08:35:45.978Z</time></trkpt><trkpt lat="43.03974952704279" lon="2.1439217578677554"><ele>312.42857142857144</ele><time>2026-04-05T08:35:46.978Z</time></trkpt><trkpt lat="43.03971729008969" lon="2.1438427426042197"><ele>311.7142857142857</ele><time>2026-04-05T08:35:47.978Z</time></trkpt><trkpt lat="43.039664213707546" lon="2.1437582550231054"><ele>311.0</ele><time>2026-04-05T08:35:49.978Z</time></trkpt><trkpt lat="43.03963484585637" lon="2.143640552074051"><ele>310.83333333333337</ele><time>2026-04-05T08:35:51.978Z</time></trkpt><trkpt lat="43.03962924573859" lon="2.1434827149349376"><ele>310.6666666666667</ele><time>2026-04-05T08:35:53.978Z</time></trkpt><trkpt lat="43.039567975857096" lon="2.14343491515818"><ele>310.5</ele><time>2026-04-05T08:35:55.978Z</time></trkpt><trkpt lat="43.039468678776494" lon="2.143447193880131"><ele>310.3333333333333</ele><time>2026-04-05T08:35:57.978Z</time></trkpt><trkpt lat="43.039385091696644" lon="2.1434450888300565"><ele>310.16666666666663</ele><time>2026-04-05T08:35:58.978Z</time></trkpt><trkpt lat="43.03931466737441" lon="2.1434399280275924"><ele>310.0</ele><time>2026-04-05T08:35:59.978Z</time></trkpt><trkpt lat="43.0391721328617" lon="2.1434379818828817"><ele>310.16666666666663</ele><time>2026-04-05T08:36:01.978Z</time></trkpt><trkpt lat="43.03909375802398" lon="2.143442827763887"><ele>310.3333333333333</ele><time>2026-04-05T08:36:02.978Z</time></trkpt><trkpt lat="43.03897019280877" lon="2.1434528375660014"><ele>310.5</ele><time>2026-04-05T08:36:04.978Z</time></trkpt><trkpt lat="43.03890595922842" lon="2.143458726108827"><ele>310.6666666666667</ele><time>2026-04-05T08:36:05.978Z</time></trkpt><trkpt lat="43.03883089094546" lon="2.143471436329674"><ele>310.83333333333337</ele><time>2026-04-05T08:36:06.978Z</time></trkpt><trkpt lat="43.038752388221894" lon="2.143483088161014"><ele>311.0</ele><time>2026-04-05T08:36:07.978Z</time></trkpt><trkpt lat="43.038674905687536" lon="2.1434822830395657"><ele>311.0</ele><time>2026-04-05T08:36:08.978Z</time></trkpt><trkpt lat="43.03859678758503" lon="2.143473104503262"><ele>311.0</ele><time>2026-04-05T08:36:09.978Z</time></trkpt><trkpt lat="43.038523105498534" lon="2.143458057468118"><ele>311.0</ele><time>2026-04-05T08:36:10.978Z</time></trkpt><trkpt lat="43.03842351052855" lon="2.1434491070762958"><ele>311.0</ele><time>2026-04-05T08:36:12.978Z</time></trkpt><trkpt lat="43.038356013778326" lon="2.1434751569588757"><ele>311.0</ele><time>2026-04-05T08:36:15.978Z</time></trkpt><trkpt lat="43.03832706647048" lon="2.1436310596284787"><ele>311.0</ele><time>2026-04-05T08:36:17.978Z</time></trkpt><trkpt lat="43.03832749575962" lon="2.1437505670074786"><ele>311.0</ele><time>2026-04-05T08:36:18.978Z</time></trkpt><trkpt lat="43.03834009341456" lon="2.143872107015454"><ele>311.0</ele><time>2026-04-05T08:36:19.978Z</time></trkpt><trkpt lat="43.03836414961442" lon="2.1439703019446457"><ele>311.0</ele><time>2026-04-05T08:36:20.978Z</time></trkpt><trkpt lat="43.038393271479926" lon="2.144069117618265"><ele>311.0</ele><time>2026-04-05T08:36:21.978Z</time></trkpt><trkpt lat="43.03843161985433" lon="2.1441389129489252"><ele>311.0</ele><time>2026-04-05T08:36:22.978Z</time></trkpt><trkpt lat="43.0384848721383" lon="2.1442875608189924"><ele>311.0</ele><time>2026-04-05T08:36:24.978Z</time></trkpt><trkpt lat="43.0384900998733" lon="2.144423225098392"><ele>311.40000000000003</ele><time>2026-04-05T08:36:26.979Z</time></trkpt><trkpt lat="43.03838609905205" lon="2.144454772033677"><ele>311.8</ele><time>2026-04-05T08:36:28.979Z</time></trkpt><trkpt lat="43.038292049601296" lon="2.1444714491372436"><ele>312.20000000000005</ele><time>2026-04-05T08:36:29.979Z</time></trkpt><trkpt lat="43.03818904550166" lon="2.1444859524921167"><ele>312.6</ele><time>2026-04-05T08:36:31.979Z</time></trkpt><trkpt lat="43.03812321528804" lon="2.1445249859604956"><ele>313.0</ele><time>2026-04-05T08:36:34.979Z</time></trkpt><trkpt lat="43.03806805409369" lon="2.1446139149906984"><ele>314.8333333333333</ele><time>2026-04-05T08:36:36.979Z</time></trkpt><trkpt lat="43.03805566591948" lon="2.1447446363241722"><ele>316.66666666666663</ele><time>2026-04-05T08:36:38.979Z</time></trkpt><trkpt lat="43.03800007866292" lon="2.1446582384022137"><ele>318.5</ele><time>2026-04-05T08:36:41.979Z</time></trkpt><trkpt lat="43.03796276281621" lon="2.144559674593369"><ele>320.3333333333333</ele><time>2026-04-05T08:36:42.979Z</time></trkpt><trkpt lat="43.03792983783032" lon="2.144454753572961"><ele>322.1666666666667</ele><time>2026-04-05T08:36:43.979Z</time></trkpt><trkpt lat="43.03789396746813" lon="2.144353620407245"><ele>324.0</ele><time>2026-04-05T08:36:44.979Z</time></trkpt><trkpt lat="43.037830385253706" lon="2.1442597943644714"><ele>324.0</ele><time>2026-04-05T08:36:45.979Z</time></trkpt><trkpt lat="43.03778717211519" lon="2.1441706894040986"><ele>324.0</ele><time>2026-04-05T08:36:46.979Z</time></trkpt><trkpt lat="43.03773922551624" lon="2.1440701972259943"><ele>324.0</ele><time>2026-04-05T08:36:47.979Z</time></trkpt><trkpt lat="43.03768545263213" lon="2.1439656292028353"><ele>324.0</ele><time>2026-04-05T08:36:48.979Z</time></trkpt><trkpt lat="43.03763876497697" lon="2.1438607088666948"><ele>324.0</ele><time>2026-04-05T08:36:49.979Z</time></trkpt><trkpt lat="43.03759265538175" lon="2.143725636769064"><ele>324.1666666666667</ele><time>2026-04-05T08:36:50.979Z</time></trkpt><trkpt lat="43.03756622379049" lon="2.1436274916620772"><ele>324.3333333333333</ele><time>2026-04-05T08:36:51.979Z</time></trkpt><trkpt lat="43.03753539674305" lon="2.1435415626749683"><ele>324.5</ele><time>2026-04-05T08:36:52.979Z</time></trkpt><trkpt lat="43.037486145614444" lon="2.143459261260545"><ele>324.66666666666663</ele><time>2026-04-05T08:36:53.979Z</time></trkpt><trkpt lat="43.03741887711356" lon="2.143373724322291"><ele>324.8333333333333</ele><time>2026-04-05T08:36:54.979Z</time></trkpt><trkpt lat="43.03737408089731" lon="2.1432851287655654"><ele>325.0</ele><time>2026-04-05T08:36:55.979Z</time></trkpt><trkpt lat="43.03734743903867" lon="2.143206814266"><ele>325.8333333333333</ele><time>2026-04-05T08:36:56.979Z</time></trkpt><trkpt lat="43.03729811711317" lon="2.143127529841284"><ele>326.66666666666663</ele><time>2026-04-05T08:36:59.979Z</time></trkpt><trkpt lat="43.037219560191204" lon="2.1431272844616576"><ele>327.5</ele><time>2026-04-05T08:37:01.979Z</time></trkpt><trkpt lat="43.03712702378801" lon="2.1431096692259124"><ele>328.3333333333333</ele><time>2026-04-05T08:37:03.979Z</time></trkpt><trkpt lat="43.03704974982752" lon="2.1430910679324775"><ele>329.1666666666667</ele><time>2026-04-05T08:37:04.979Z</time></trkpt><trkpt lat="43.0369745531665" lon="2.143081059578355"><ele>330.0</ele><time>2026-04-05T08:37:05.979Z</time></trkpt><trkpt lat="43.03688453362072" lon="2.1430669722917663"><ele>330.0</ele><time>2026-04-05T08:37:06.979Z</time></trkpt><trkpt lat="43.0368090122289" lon="2.1430378328010873"><ele>330.0</ele><time>2026-04-05T08:37:07.979Z</time></trkpt><trkpt lat="43.03673286154553" lon="2.143011351360749"><ele>330.0</ele><time>2026-04-05T08:37:09.979Z</time></trkpt><trkpt lat="43.036663608058056" lon="2.1429495737259234"><ele>330.0</ele><time>2026-04-05T08:37:11.979Z</time></trkpt><trkpt lat="43.03661400338553" lon="2.14286690264756"><ele>330.0</ele><time>2026-04-05T08:37:12.979Z</time></trkpt><trkpt lat="43.036565560163524" lon="2.142739399892615"><ele>330.0</ele><time>2026-04-05T08:37:14.977Z</time></trkpt><trkpt lat="43.03652050703518" lon="2.142660234241576"><ele>331.0</ele><time>2026-04-05T08:37:15.977Z</time></trkpt><trkpt lat="43.03647947441691" lon="2.142589542366885"><ele>332.0</ele><time>2026-04-05T08:37:16.977Z</time></trkpt><trkpt lat="43.03644456856365" lon="2.1425043766357934"><ele>333.0</ele><time>2026-04-05T08:37:17.977Z</time></trkpt><trkpt lat="43.03641327410052" lon="2.1423986109032676"><ele>334.0</ele><time>2026-04-05T08:37:18.977Z</time></trkpt><trkpt lat="43.03639380280924" lon="2.1423083787639836"><ele>335.0</ele><time>2026-04-05T08:37:19.977Z</time></trkpt><trkpt lat="43.03637948024609" lon="2.142215633452323"><ele>336.0</ele><time>2026-04-05T08:37:20.977Z</time></trkpt><trkpt lat="43.03635271917028" lon="2.142087396717882"><ele>336.5</ele><time>2026-04-05T08:37:21.977Z</time></trkpt><trkpt lat="43.03632253389774" lon="2.1419487070488543"><ele>337.0</ele><time>2026-04-05T08:37:22.977Z</time></trkpt><trkpt lat="43.03630266817528" lon="2.141782063216679"><ele>337.5</ele><time>2026-04-05T08:37:23.977Z</time></trkpt><trkpt lat="43.036292858851546" lon="2.1416053672788538"><ele>338.0</ele><time>2026-04-05T08:37:24.978Z</time></trkpt><trkpt lat="43.03627720130314" lon="2.141426421908527"><ele>339.33333333333337</ele><time>2026-04-05T08:37:25.977Z</time></trkpt><trkpt lat="43.03625560702362" lon="2.141213141882317"><ele>340.6666666666667</ele><time>2026-04-05T08:37:26.977Z</time></trkpt><trkpt lat="43.03623752796648" lon="2.1410087702687277"><ele>342.0</ele><time>2026-04-05T08:37:27.977Z</time></trkpt><trkpt lat="43.036184788603" lon="2.1408112339840835"><ele>343.6666666666667</ele><time>2026-04-05T08:37:28.977Z</time></trkpt><trkpt lat="43.036163106555996" lon="2.1405776743406664"><ele>345.33333333333337</ele><time>2026-04-05T08:37:29.977Z</time></trkpt><trkpt lat="43.03612958347113" lon="2.140320915912171"><ele>347.0</ele><time>2026-04-05T08:37:30.977Z</time></trkpt><trkpt lat="43.036111955016516" lon="2.1400864636796078"><ele>347.33333333333337</ele><time>2026-04-05T08:37:31.977Z</time></trkpt><trkpt lat="43.036084023594135" lon="2.1398591848356623"><ele>347.6666666666667</ele><time>2026-04-05T08:37:32.977Z</time></trkpt><trkpt lat="43.03606096665021" lon="2.139635862086068"><ele>348.0</ele><time>2026-04-05T08:37:33.977Z</time></trkpt><trkpt lat="43.03601607966008" lon="2.1394628635954627"><ele>348.0</ele><time>2026-04-05T08:37:34.977Z</time></trkpt><trkpt lat="43.03596920609431" lon="2.1393361045161488"><ele>348.0</ele><time>2026-04-05T08:37:35.977Z</time></trkpt><trkpt lat="43.03589372534905" lon="2.1391935571184426"><ele>348.0</ele><time>2026-04-05T08:37:36.977Z</time></trkpt><trkpt lat="43.03581190778374" lon="2.1390224625276533"><ele>348.0</ele><time>2026-04-05T08:37:37.977Z</time></trkpt><trkpt lat="43.035724031526776" lon="2.1388418707074845"><ele>352.3333333333333</ele><time>2026-04-05T08:37:38.977Z</time></trkpt><trkpt lat="43.035648140299486" lon="2.1386444152856554"><ele>356.66666666666663</ele><time>2026-04-05T08:37:39.977Z</time></trkpt><trkpt lat="43.03558305434086" lon="2.1384433842595123"><ele>361.0</ele><time>2026-04-05T08:37:40.977Z</time></trkpt><trkpt lat="43.03553644173509" lon="2.138271184939779"><ele>361.25</ele><time>2026-04-05T08:37:41.977Z</time></trkpt><trkpt lat="43.03549867193509" lon="2.1381112525981893"><ele>361.5</ele><time>2026-04-05T08:37:42.977Z</time></trkpt><trkpt lat="43.035463714866154" lon="2.137932518712061"><ele>361.75</ele><time>2026-04-05T08:37:43.977Z</time></trkpt><trkpt lat="43.03543672707014" lon="2.1377597923987013"><ele>362.0</ele><time>2026-04-05T08:37:44.977Z</time></trkpt><trkpt lat="43.035411033298715" lon="2.1376058469629324"><ele>362.0</ele><time>2026-04-05T08:37:45.977Z</time></trkpt><trkpt lat="43.03538712402817" lon="2.1374803408995158"><ele>362.0</ele><time>2026-04-05T08:37:46.977Z</time></trkpt><trkpt lat="43.0353697313608" lon="2.137377613760129"><ele>362.0</ele><time>2026-04-05T08:37:47.977Z</time></trkpt><trkpt lat="43.035355018294254" lon="2.1372931761086393"><ele>362.0</ele><time>2026-04-05T08:37:48.977Z</time></trkpt><trkpt lat="43.035332320468356" lon="2.1371559122564956"><ele>362.0</ele><time>2026-04-05T08:37:50.977Z</time></trkpt><trkpt lat="43.035302775783535" lon="2.1369532397131934"><ele>362.6</ele><time>2026-04-05T08:37:52.977Z</time></trkpt><trkpt lat="43.0352845442937" lon="2.1368123003443666"><ele>363.20000000000005</ele><time>2026-04-05T08:37:53.977Z</time></trkpt><trkpt lat="43.03526437755631" lon="2.1366595531915005"><ele>363.8</ele><time>2026-04-05T08:37:54.977Z</time></trkpt><trkpt lat="43.03524939896179" lon="2.136525519274005"><ele>364.4</ele><time>2026-04-05T08:37:55.977Z</time></trkpt><trkpt lat="43.035236256024525" lon="2.136419743843687"><ele>365.0</ele><time>2026-04-05T08:37:56.977Z</time></trkpt><trkpt lat="43.03522761684826" lon="2.136327811197235"><ele>366.6</ele><time>2026-04-05T08:37:57.977Z</time></trkpt><trkpt lat="43.03522934113154" lon="2.1361914238864506"><ele>368.2</ele><time>2026-04-05T08:37:59.977Z</time></trkpt><trkpt lat="43.03519958953929" lon="2.1360361456171866"><ele>369.79999999999995</ele><time>2026-04-05T08:38:01.977Z</time></trkpt><trkpt lat="43.03518693112684" lon="2.1359423273891642"><ele>371.4</ele><time>2026-04-05T08:38:02.977Z</time></trkpt><trkpt lat="43.03514419261453" lon="2.1357405262547156"><ele>373.0</ele><time>2026-04-05T08:38:04.977Z</time></trkpt><trkpt lat="43.035133523649925" lon="2.1355907355078374"><ele>375.0</ele><time>2026-04-05T08:38:05.977Z</time></trkpt><trkpt lat="43.03512037204587" lon="2.135435270173826"><ele>377.0</ele><time>2026-04-05T08:38:06.977Z</time></trkpt><trkpt lat="43.03511279023128" lon="2.135278115013578"><ele>379.0</ele><time>2026-04-05T08:38:07.977Z</time></trkpt><trkpt lat="43.03511886019255" lon="2.135125889835977"><ele>381.0</ele><time>2026-04-05T08:38:09.977Z</time></trkpt><trkpt lat="43.035114949118224" lon="2.1350235795146517"><ele>383.0</ele><time>2026-04-05T08:38:10.977Z</time></trkpt><trkpt lat="43.03516205491243" lon="2.134940567550629"><ele>384.33333333333337</ele><time>2026-04-05T08:38:11.977Z</time></trkpt><trkpt lat="43.03518501770158" lon="2.1348508101974866"><ele>385.6666666666667</ele><time>2026-04-05T08:38:12.977Z</time></trkpt><trkpt lat="43.035154077547936" lon="2.134721604150749"><ele>387.0</ele><time>2026-04-05T08:38:13.977Z</time></trkpt><trkpt lat="43.03514385207476" lon="2.1345863824399793"><ele>388.33333333333337</ele><time>2026-04-05T08:38:14.977Z</time></trkpt><trkpt lat="43.035124760611986" lon="2.1344968070429378"><ele>389.6666666666667</ele><time>2026-04-05T08:38:15.977Z</time></trkpt><trkpt lat="43.035131181563855" lon="2.1343816927109334"><ele>391.0</ele><time>2026-04-05T08:38:16.977Z</time></trkpt><trkpt lat="43.03510199091892" lon="2.1342138791975023"><ele>391.0</ele><time>2026-04-05T08:38:17.977Z</time></trkpt><trkpt lat="43.03506744862632" lon="2.13408826254917"><ele>391.0</ele><time>2026-04-05T08:38:18.977Z</time></trkpt><trkpt lat="43.03504087532821" lon="2.133969945798845"><ele>391.0</ele><time>2026-04-05T08:38:19.977Z</time></trkpt><trkpt lat="43.03502908097575" lon="2.1338633624861307"><ele>391.0</ele><time>2026-04-05T08:38:21.977Z</time></trkpt><trkpt lat="43.035032617618086" lon="2.1337017382784005"><ele>391.0</ele><time>2026-04-05T08:38:23.977Z</time></trkpt><trkpt lat="43.03506485658295" lon="2.1335389914995253"><ele>389.5</ele><time>2026-04-05T08:38:24.977Z</time></trkpt><trkpt lat="43.03512394043546" lon="2.1333808059631645"><ele>388.0</ele><time>2026-04-05T08:38:25.977Z</time></trkpt><trkpt lat="43.035164626919425" lon="2.1331610838462125"><ele>386.5</ele><time>2026-04-05T08:38:26.978Z</time></trkpt><trkpt lat="43.035200847530895" lon="2.1329581163047924"><ele>385.0</ele><time>2026-04-05T08:38:27.978Z</time></trkpt><trkpt lat="43.03524269577347" lon="2.132736784779966"><ele>382.4</ele><time>2026-04-05T08:38:28.978Z</time></trkpt><trkpt lat="43.03526159849809" lon="2.1326330374782785"><ele>379.8</ele><time>2026-04-05T08:38:29.978Z</time></trkpt><trkpt lat="43.03521624605799" lon="2.132554732306853"><ele>377.20000000000005</ele><time>2026-04-05T08:38:32.978Z</time></trkpt><trkpt lat="43.03515505683481" lon="2.132451412825205"><ele>374.6</ele><time>2026-04-05T08:38:34.978Z</time></trkpt><trkpt lat="43.03510187191227" lon="2.13227535461225"><ele>372.0</ele><time>2026-04-05T08:38:36.978Z</time></trkpt><trkpt lat="43.03509984365529" lon="2.1321712193712763"><ele>371.40000000000003</ele><time>2026-04-05T08:38:37.978Z</time></trkpt><trkpt lat="43.03510947023835" lon="2.132028604861815"><ele>370.8</ele><time>2026-04-05T08:38:38.978Z</time></trkpt><trkpt lat="43.03512500253014" lon="2.1318893034110804"><ele>370.2</ele><time>2026-04-05T08:38:39.978Z</time></trkpt><trkpt lat="43.035155570228156" lon="2.1317460764834872"><ele>369.6</ele><time>2026-04-05T08:38:40.978Z</time></trkpt><trkpt lat="43.035190232227905" lon="2.1316004840005487"><ele>369.0</ele><time>2026-04-05T08:38:41.978Z</time></trkpt><trkpt lat="43.035202532213226" lon="2.131479619680352"><ele>368.0</ele><time>2026-04-05T08:38:42.978Z</time></trkpt><trkpt lat="43.035218283962536" lon="2.1313766917723225"><ele>367.0</ele><time>2026-04-05T08:38:43.978Z</time></trkpt><trkpt lat="43.03524217512584" lon="2.131259391413774"><ele>366.0</ele><time>2026-04-05T08:38:44.978Z</time></trkpt><trkpt lat="43.03526285078726" lon="2.1311435913891335"><ele>365.0</ele><time>2026-04-05T08:38:45.978Z</time></trkpt><trkpt lat="43.03528396158736" lon="2.131019583170447"><ele>364.0</ele><time>2026-04-05T08:38:46.978Z</time></trkpt><trkpt lat="43.035306075476" lon="2.130888319758458"><ele>363.0</ele><time>2026-04-05T08:38:47.978Z</time></trkpt><trkpt lat="43.03533478331771" lon="2.130742250516123"><ele>362.8333333333333</ele><time>2026-04-05T08:38:48.978Z</time></trkpt><trkpt lat="43.03538289733731" lon="2.13062051715433"><ele>362.6666666666667</ele><time>2026-04-05T08:38:49.978Z</time></trkpt><trkpt lat="43.03539156736207" lon="2.130487970781318"><ele>362.5</ele><time>2026-04-05T08:38:50.978Z</time></trkpt><trkpt lat="43.0353713037607" lon="2.130373155341253"><ele>362.33333333333337</ele><time>2026-04-05T08:38:51.978Z</time></trkpt><trkpt lat="43.035328641228695" lon="2.1302862359498813"><ele>362.1666666666667</ele><time>2026-04-05T08:38:52.978Z</time></trkpt><trkpt lat="43.03525811992527" lon="2.1302525002226096"><ele>362.0</ele><time>2026-04-05T08:38:53.978Z</time></trkpt><trkpt lat="43.035156881443235" lon="2.130278583760626"><ele>362.0</ele><time>2026-04-05T08:38:54.978Z</time></trkpt><trkpt lat="43.03510391379401" lon="2.130229327645632"><ele>362.0</ele><time>2026-04-05T08:38:55.978Z</time></trkpt><trkpt lat="43.03502082830796" lon="2.1301787379842363"><ele>362.0</ele><time>2026-04-05T08:38:57.978Z</time></trkpt><trkpt lat="43.03494532354904" lon="2.130091699645819"><ele>362.0</ele><time>2026-04-05T08:38:59.978Z</time></trkpt><trkpt lat="43.0348736610314" lon="2.1299891567259612"><ele>362.0</ele><time>2026-04-05T08:39:01.978Z</time></trkpt><trkpt lat="43.03482166579905" lon="2.1298557300185097"><ele>356.8</ele><time>2026-04-05T08:39:03.978Z</time></trkpt><trkpt lat="43.034806224371174" lon="2.129691936495921"><ele>351.6</ele><time>2026-04-05T08:39:05.978Z</time></trkpt><trkpt lat="43.03478565453175" lon="2.1296033999665966"><ele>346.40000000000003</ele><time>2026-04-05T08:39:06.978Z</time></trkpt><trkpt lat="43.03476804092518" lon="2.129449479976042"><ele>341.20000000000005</ele><time>2026-04-05T08:39:08.978Z</time></trkpt><trkpt lat="43.03475982777927" lon="2.129301235255916"><ele>336.0</ele><time>2026-04-05T08:39:10.978Z</time></trkpt><trkpt lat="43.034753547023044" lon="2.1291589848099752"><ele>336.3333333333333</ele><time>2026-04-05T08:39:12.978Z</time></trkpt><trkpt lat="43.03475389674215" lon="2.129054812173889"><ele>336.6666666666667</ele><time>2026-04-05T08:39:13.978Z</time></trkpt><trkpt lat="43.03475208831236" lon="2.1289201894750414"><ele>337.0</ele><time>2026-04-05T08:39:14.978Z</time></trkpt><trkpt lat="43.0347453364731" lon="2.1287850873124"><ele>337.33333333333337</ele><time>2026-04-05T08:39:15.978Z</time></trkpt><trkpt lat="43.0347420097438" lon="2.1286737977465724"><ele>337.6666666666667</ele><time>2026-04-05T08:39:16.978Z</time></trkpt><trkpt lat="43.0347348670902" lon="2.128574315808574"><ele>338.0</ele><time>2026-04-05T08:39:17.978Z</time></trkpt><trkpt lat="43.03471850628328" lon="2.128484587826917"><ele>338.0</ele><time>2026-04-05T08:39:18.978Z</time></trkpt><trkpt lat="43.034695271923155" lon="2.128327866096026"><ele>338.0</ele><time>2026-04-05T08:39:20.976Z</time></trkpt><trkpt lat="43.034681151073976" lon="2.1282270529113587"><ele>338.0</ele><time>2026-04-05T08:39:21.976Z</time></trkpt><trkpt lat="43.03466314800617" lon="2.128094262583164"><ele>338.0</ele><time>2026-04-05T08:39:22.976Z</time></trkpt><trkpt lat="43.034644460622" lon="2.127951662970996"><ele>338.0</ele><time>2026-04-05T08:39:23.976Z</time></trkpt><trkpt lat="43.034618476539265" lon="2.127801889190796"><ele>338.79999999999995</ele><time>2026-04-05T08:39:24.976Z</time></trkpt><trkpt lat="43.03459015635499" lon="2.1276600867650286"><ele>339.6</ele><time>2026-04-05T08:39:25.976Z</time></trkpt><trkpt lat="43.03458520019516" lon="2.1275128808455097"><ele>340.4</ele><time>2026-04-05T08:39:26.976Z</time></trkpt><trkpt lat="43.03458149780976" lon="2.1273935215128867"><ele>341.20000000000005</ele><time>2026-04-05T08:39:27.976Z</time></trkpt><trkpt lat="43.03455469574097" lon="2.1272552940082745"><ele>342.0</ele><time>2026-04-05T08:39:29.976Z</time></trkpt><trkpt lat="43.034496143807154" lon="2.1271544412241834"><ele>342.0</ele><time>2026-04-05T08:39:31.976Z</time></trkpt><trkpt lat="43.03442033757801" lon="2.127143154680693"><ele>342.0</ele><time>2026-04-05T08:39:33.976Z</time></trkpt><trkpt lat="43.03438858204442" lon="2.1272347931894586"><ele>342.0</ele><time>2026-04-05T08:39:35.976Z</time></trkpt><trkpt lat="43.034355710455195" lon="2.1273186783821716"><ele>342.0</ele><time>2026-04-05T08:39:41.976Z</time></trkpt><trkpt lat="43.03432465226133" lon="2.127404426478511"><ele>342.0</ele><time>2026-04-05T08:39:42.976Z</time></trkpt><trkpt lat="43.0342950282432" lon="2.12750360230368"><ele>342.0</ele><time>2026-04-05T08:39:43.976Z</time></trkpt><trkpt lat="43.03425230435121" lon="2.1276110152882834"><ele>342.0</ele><time>2026-04-05T08:39:44.976Z</time></trkpt><trkpt lat="43.034199359436485" lon="2.1277023351482702"><ele>342.0</ele><time>2026-04-05T08:39:45.976Z</time></trkpt><trkpt lat="43.03414285382015" lon="2.1277821848988707"><ele>342.0</ele><time>2026-04-05T08:39:46.976Z</time></trkpt><trkpt lat="43.03408871760949" lon="2.127858568887758"><ele>342.0</ele><time>2026-04-05T08:39:47.976Z</time></trkpt><trkpt lat="43.03404473870553" lon="2.12794396476675"><ele>342.0</ele><time>2026-04-05T08:39:48.976Z</time></trkpt><trkpt lat="43.03401339478588" lon="2.128043896999257"><ele>342.0</ele><time>2026-04-05T08:39:49.976Z</time></trkpt><trkpt lat="43.03400458567008" lon="2.1281388731950246"><ele>338.8</ele><time>2026-04-05T08:39:50.976Z</time></trkpt><trkpt lat="43.03401632210118" lon="2.1282911793801125"><ele>335.6</ele><time>2026-04-05T08:39:52.976Z</time></trkpt><trkpt lat="43.033919628852225" lon="2.1282372703923405"><ele>332.40000000000003</ele><time>2026-04-05T08:39:56.976Z</time></trkpt><trkpt lat="43.03389658375923" lon="2.128141569397571"><ele>329.20000000000005</ele><time>2026-04-05T08:39:57.976Z</time></trkpt><trkpt lat="43.03385660532967" lon="2.128017471586103"><ele>326.0</ele><time>2026-04-05T08:39:58.976Z</time></trkpt><trkpt lat="43.03381259190012" lon="2.1278857919013734"><ele>326.0</ele><time>2026-04-05T08:39:59.976Z</time></trkpt><trkpt lat="43.033759855623224" lon="2.1277700919520144"><ele>326.0</ele><time>2026-04-05T08:40:00.976Z</time></trkpt><trkpt lat="43.033698324011844" lon="2.127670821184179"><ele>326.0</ele><time>2026-04-05T08:40:01.976Z</time></trkpt><trkpt lat="43.033630802901826" lon="2.1276247524426"><ele>326.0</ele><time>2026-04-05T08:40:02.976Z</time></trkpt><trkpt lat="43.03356271628788" lon="2.127586328726862"><ele>326.0</ele><time>2026-04-05T08:40:03.977Z</time></trkpt><trkpt lat="43.03349370696867" lon="2.1276422594843787"><ele>326.0</ele><time>2026-04-05T08:40:04.977Z</time></trkpt><trkpt lat="43.03343352038" lon="2.1276702019780434"><ele>326.0</ele><time>2026-04-05T08:40:05.977Z</time></trkpt><trkpt lat="43.033319922415195" lon="2.1276079443539504"><ele>326.0</ele><time>2026-04-05T08:40:07.977Z</time></trkpt><trkpt lat="43.03326439080983" lon="2.1275409458173122"><ele>326.0</ele><time>2026-04-05T08:40:08.977Z</time></trkpt><trkpt lat="43.03322925510708" lon="2.1274451906100222"><ele>326.0</ele><time>2026-04-05T08:40:09.977Z</time></trkpt><trkpt lat="43.03323292978939" lon="2.1273203656572592"><ele>326.0</ele><time>2026-04-05T08:40:10.977Z</time></trkpt><trkpt lat="43.03318866824061" lon="2.127188538961487"><ele>325.8</ele><time>2026-04-05T08:40:12.977Z</time></trkpt><trkpt lat="43.033034260193766" lon="2.127240932304592"><ele>325.6</ele><time>2026-04-05T08:40:14.977Z</time></trkpt><trkpt lat="43.032957853020136" lon="2.1273341027534913"><ele>325.4</ele><time>2026-04-05T08:40:15.977Z</time></trkpt><trkpt lat="43.032911261029625" lon="2.1274270864111897"><ele>325.2</ele><time>2026-04-05T08:40:16.977Z</time></trkpt><trkpt lat="43.032885977626485" lon="2.127507400006206"><ele>325.0</ele><time>2026-04-05T08:40:17.977Z</time></trkpt><trkpt lat="43.03290803631355" lon="2.1275997158892253"><ele>323.66666666666663</ele><time>2026-04-05T08:40:18.977Z</time></trkpt><trkpt lat="43.032958413185796" lon="2.1277014490463997"><ele>322.3333333333333</ele><time>2026-04-05T08:40:19.977Z</time></trkpt><trkpt lat="43.03296137768961" lon="2.1278288297814307"><ele>321.0</ele><time>2026-04-05T08:40:20.977Z</time></trkpt><trkpt lat="43.03297890374364" lon="2.1279463061135973"><ele>319.6666666666667</ele><time>2026-04-05T08:40:21.977Z</time></trkpt><trkpt lat="43.032959773540156" lon="2.1280610923437377"><ele>318.33333333333337</ele><time>2026-04-05T08:40:22.977Z</time></trkpt><trkpt lat="43.03294353008576" lon="2.1281636712949203"><ele>317.0</ele><time>2026-04-05T08:40:23.977Z</time></trkpt><trkpt lat="43.032886158002974" lon="2.128270836512124"><ele>317.0</ele><time>2026-04-05T08:40:25.977Z</time></trkpt><trkpt lat="43.0328029557076" lon="2.1282348790387275"><ele>317.0</ele><time>2026-04-05T08:40:27.977Z</time></trkpt><trkpt lat="43.03279266700715" lon="2.1281263982156804"><ele>317.0</ele><time>2026-04-05T08:40:28.977Z</time></trkpt><trkpt lat="43.03272254261675" lon="2.1280926657567965"><ele>317.0</ele><time>2026-04-05T08:40:29.977Z</time></trkpt><trkpt lat="43.03259952356464" lon="2.128048540996283"><ele>317.0</ele><time>2026-04-05T08:40:31.977Z</time></trkpt><trkpt lat="43.032496383190654" lon="2.1280770961858564"><ele>316.25</ele><time>2026-04-05T08:40:32.977Z</time></trkpt><trkpt lat="43.032380934119395" lon="2.128116015700379"><ele>315.5</ele><time>2026-04-05T08:40:33.977Z</time></trkpt><trkpt lat="43.03226544306868" lon="2.1281765112464215"><ele>314.75</ele><time>2026-04-05T08:40:34.977Z</time></trkpt><trkpt lat="43.032135660149784" lon="2.1282595520267296"><ele>314.0</ele><time>2026-04-05T08:40:35.977Z</time></trkpt><trkpt lat="43.03200811611678" lon="2.1283443079842366"><ele>311.0</ele><time>2026-04-05T08:40:36.977Z</time></trkpt><trkpt lat="43.031891848838505" lon="2.1284264590503983"><ele>308.0</ele><time>2026-04-05T08:40:37.977Z</time></trkpt><trkpt lat="43.03180278539858" lon="2.128509383547327"><ele>305.0</ele><time>2026-04-05T08:40:38.977Z</time></trkpt><trkpt lat="43.03172655742632" lon="2.128597880676765"><ele>302.0</ele><time>2026-04-05T08:40:39.977Z</time></trkpt><trkpt lat="43.03165143637346" lon="2.128726039102126"><ele>303.0</ele><time>2026-04-05T08:40:40.977Z</time></trkpt><trkpt lat="43.03157300611808" lon="2.128864452071499"><ele>304.0</ele><time>2026-04-05T08:40:41.977Z</time></trkpt><trkpt lat="43.031489690835755" lon="2.128994569802955"><ele>305.0</ele><time>2026-04-05T08:40:42.977Z</time></trkpt><trkpt lat="43.031419912209785" lon="2.129140226732972"><ele>306.0</ele><time>2026-04-05T08:40:43.977Z</time></trkpt><trkpt lat="43.03136157854382" lon="2.1293102410383655"><ele>306.0</ele><time>2026-04-05T08:40:44.977Z</time></trkpt><trkpt lat="43.03132260744831" lon="2.1294749424995625"><ele>306.0</ele><time>2026-04-05T08:40:45.977Z</time></trkpt><trkpt lat="43.031294334902825" lon="2.1296196965944336"><ele>306.0</ele><time>2026-04-05T08:40:46.977Z</time></trkpt><trkpt lat="43.0312527580567" lon="2.129753149114919"><ele>306.0</ele><time>2026-04-05T08:40:47.977Z</time></trkpt><trkpt lat="43.031185435410286" lon="2.1298674578468106"><ele>306.0</ele><time>2026-04-05T08:40:48.977Z</time></trkpt><trkpt lat="43.03111111679857" lon="2.130007800857782"><ele>304.25</ele><time>2026-04-05T08:40:49.977Z</time></trkpt><trkpt lat="43.03103864189118" lon="2.13013767278326"><ele>302.5</ele><time>2026-04-05T08:40:50.977Z</time></trkpt><trkpt lat="43.030963261710355" lon="2.130260964576903"><ele>300.75</ele><time>2026-04-05T08:40:51.977Z</time></trkpt><trkpt lat="43.03090854419013" lon="2.1303859006811496"><ele>299.0</ele><time>2026-04-05T08:40:52.977Z</time></trkpt><trkpt lat="43.03085663275643" lon="2.1305151917114653"><ele>299.1666666666667</ele><time>2026-04-05T08:40:53.977Z</time></trkpt><trkpt lat="43.0308057941366" lon="2.1306210305613944"><ele>299.33333333333337</ele><time>2026-04-05T08:40:54.977Z</time></trkpt><trkpt lat="43.03075926016002" lon="2.1307007592197893"><ele>299.5</ele><time>2026-04-05T08:40:55.977Z</time></trkpt><trkpt lat="43.03071540465194" lon="2.1307734366726034"><ele>299.6666666666667</ele><time>2026-04-05T08:40:56.977Z</time></trkpt><trkpt lat="43.03063933892042" lon="2.130881866070373"><ele>299.8333333333333</ele><time>2026-04-05T08:40:58.977Z</time></trkpt><trkpt lat="43.030555922409455" lon="2.1309558856402244"><ele>300.0</ele><time>2026-04-05T08:41:00.977Z</time></trkpt><trkpt lat="43.03048567806401" lon="2.131042917237907"><ele>300.0</ele><time>2026-04-05T08:41:02.977Z</time></trkpt><trkpt lat="43.03040586567483" lon="2.131197321649546"><ele>300.0</ele><time>2026-04-05T08:41:04.977Z</time></trkpt><trkpt lat="43.03034467107819" lon="2.1312721555109695"><ele>300.0</ele><time>2026-04-05T08:41:05.977Z</time></trkpt><trkpt lat="43.03029636068444" lon="2.1313581757453584"><ele>300.0</ele><time>2026-04-05T08:41:06.977Z</time></trkpt><trkpt lat="43.030253820722486" lon="2.1314284289895147"><ele>300.0</ele><time>2026-04-05T08:41:07.977Z</time></trkpt><trkpt lat="43.030183091562364" lon="2.1315684212765267"><ele>298.5</ele><time>2026-04-05T08:41:09.977Z</time></trkpt><trkpt lat="43.03010492333184" lon="2.131665289174927"><ele>297.0</ele><time>2026-04-05T08:41:11.977Z</time></trkpt><trkpt lat="43.030051691472345" lon="2.131730097713945"><ele>295.5</ele><time>2026-04-05T08:41:12.977Z</time></trkpt><trkpt lat="43.03001736510399" lon="2.1318296696531966"><ele>294.0</ele><time>2026-04-05T08:41:13.977Z</time></trkpt><trkpt lat="43.02997501264994" lon="2.1319010101374967"><ele>292.5</ele><time>2026-04-05T08:41:14.977Z</time></trkpt><trkpt lat="43.02992269238034" lon="2.1319817536216354"><ele>291.0</ele><time>2026-04-05T08:41:15.977Z</time></trkpt><trkpt lat="43.02986745362082" lon="2.1320572757552547"><ele>290.1428571428571</ele><time>2026-04-05T08:41:16.977Z</time></trkpt><trkpt lat="43.02981273524052" lon="2.1321160247516615"><ele>289.2857142857143</ele><time>2026-04-05T08:41:17.977Z</time></trkpt><trkpt lat="43.02975438688388" lon="2.132172088177494"><ele>288.42857142857144</ele><time>2026-04-05T08:41:18.977Z</time></trkpt><trkpt lat="43.0296866760843" lon="2.1322162943686322"><ele>287.57142857142856</ele><time>2026-04-05T08:41:19.977Z</time></trkpt><trkpt lat="43.02962548718844" lon="2.1322602618497934"><ele>286.7142857142857</ele><time>2026-04-05T08:41:20.977Z</time></trkpt><trkpt lat="43.02955909766697" lon="2.132302652679657"><ele>285.85714285714283</ele><time>2026-04-05T08:41:21.977Z</time></trkpt><trkpt lat="43.02951864115491" lon="2.1323698520372716"><ele>285.0</ele><time>2026-04-05T08:41:22.977Z</time></trkpt><trkpt lat="43.029473315663495" lon="2.13244080256418"><ele>285.0</ele><time>2026-04-05T08:41:24.977Z</time></trkpt><trkpt lat="43.02939605358834" lon="2.132315631352554"><ele>285.0</ele><time>2026-04-05T08:41:31.975Z</time></trkpt><trkpt lat="43.0293143708865" lon="2.1323652444607397"><ele>285.0</ele><time>2026-04-05T08:41:35.974Z</time></trkpt><trkpt lat="43.02924141985328" lon="2.1324886989921374"><ele>285.0</ele><time>2026-04-05T08:41:37.975Z</time></trkpt><trkpt lat="43.02909488540133" lon="2.1325744726828026"><ele>283.0</ele><time>2026-04-05T08:41:39.974Z</time></trkpt><trkpt lat="43.029001643370144" lon="2.1326520923032293"><ele>281.0</ele><time>2026-04-05T08:41:40.974Z</time></trkpt><trkpt lat="43.02889710164821" lon="2.132724105540216"><ele>279.0</ele><time>2026-04-05T08:41:41.974Z</time></trkpt><trkpt lat="43.028806195437646" lon="2.13279664051289"><ele>277.0</ele><time>2026-04-05T08:41:42.974Z</time></trkpt><trkpt lat="43.02873049984593" lon="2.132871338853654"><ele>275.0</ele><time>2026-04-05T08:41:43.974Z</time></trkpt><trkpt lat="43.028675444712185" lon="2.13295042933951"><ele>275.0</ele><time>2026-04-05T08:41:44.974Z</time></trkpt><trkpt lat="43.02863933338661" lon="2.133048548630336"><ele>275.0</ele><time>2026-04-05T08:41:45.974Z</time></trkpt><trkpt lat="43.02862010364366" lon="2.1331504113581823"><ele>275.0</ele><time>2026-04-05T08:41:46.974Z</time></trkpt><trkpt lat="43.02860806311295" lon="2.133253485489732"><ele>275.0</ele><time>2026-04-05T08:41:47.974Z</time></trkpt><trkpt lat="43.02862688648614" lon="2.133379445176347"><ele>275.0</ele><time>2026-04-05T08:41:48.974Z</time></trkpt><trkpt lat="43.02860436368506" lon="2.1334960219726358"><ele>275.0</ele><time>2026-04-05T08:41:49.974Z</time></trkpt><trkpt lat="43.02858953390286" lon="2.1335861052505956"><ele>275.33333333333337</ele><time>2026-04-05T08:41:50.974Z</time></trkpt><trkpt lat="43.02856415119135" lon="2.1336727656784404"><ele>275.6666666666667</ele><time>2026-04-05T08:41:51.974Z</time></trkpt><trkpt lat="43.02853261945644" lon="2.133775388841973"><ele>276.0</ele><time>2026-04-05T08:41:52.974Z</time></trkpt><trkpt lat="43.02849559034163" lon="2.133885035929844"><ele>276.3333333333333</ele><time>2026-04-05T08:41:53.974Z</time></trkpt><trkpt lat="43.0284608421024" lon="2.134002363137415"><ele>276.66666666666663</ele><time>2026-04-05T08:41:54.974Z</time></trkpt><trkpt lat="43.02842798802396" lon="2.1341253723398537"><ele>277.0</ele><time>2026-04-05T08:41:55.974Z</time></trkpt><trkpt lat="43.02839974540188" lon="2.1342575613941412"><ele>277.0</ele><time>2026-04-05T08:41:56.974Z</time></trkpt><trkpt lat="43.02836900110782" lon="2.134399649011576"><ele>277.0</ele><time>2026-04-05T08:41:57.974Z</time></trkpt><trkpt lat="43.02833560117344" lon="2.1345509221625045"><ele>277.0</ele><time>2026-04-05T08:41:58.974Z</time></trkpt><trkpt lat="43.0283063321058" lon="2.1346927314365227"><ele>277.0</ele><time>2026-04-05T08:41:59.974Z</time></trkpt><trkpt lat="43.028313870064494" lon="2.134813264058591"><ele>277.0</ele><time>2026-04-05T08:42:00.974Z</time></trkpt><trkpt lat="43.02832717892791" lon="2.134937706510497"><ele>277.0</ele><time>2026-04-05T08:42:01.974Z</time></trkpt><trkpt lat="43.02835273286277" lon="2.1350242656804026"><ele>277.0</ele><time>2026-04-05T08:42:02.974Z</time></trkpt><trkpt lat="43.02837162174835" lon="2.1351658228430463"><ele>277.0</ele><time>2026-04-05T08:42:04.974Z</time></trkpt><trkpt lat="43.02837783010203" lon="2.135296724681219"><ele>277.0</ele><time>2026-04-05T08:42:06.974Z</time></trkpt><trkpt lat="43.02839374523423" lon="2.13546734900534"><ele>277.0</ele><time>2026-04-05T08:42:08.974Z</time></trkpt><trkpt lat="43.02840046259594" lon="2.13556394938841"><ele>277.0</ele><time>2026-04-05T08:42:09.974Z</time></trkpt><trkpt lat="43.028407131203586" lon="2.1356605153384494"><ele>277.0</ele><time>2026-04-05T08:42:10.974Z</time></trkpt><trkpt lat="43.02841451075639" lon="2.1357565500395324"><ele>277.0</ele><time>2026-04-05T08:42:11.974Z</time></trkpt><trkpt lat="43.02842814104984" lon="2.135852531249118"><ele>277.0</ele><time>2026-04-05T08:42:12.974Z</time></trkpt><trkpt lat="43.02843110194168" lon="2.135944462335539"><ele>277.0</ele><time>2026-04-05T08:42:13.974Z</time></trkpt><trkpt lat="43.028426628748896" lon="2.136092924695897"><ele>277.0</ele><time>2026-04-05T08:42:15.974Z</time></trkpt><trkpt lat="43.028420860245944" lon="2.1362568926594943"><ele>277.6</ele><time>2026-04-05T08:42:17.974Z</time></trkpt><trkpt lat="43.02842381408717" lon="2.136393218023971"><ele>278.2</ele><time>2026-04-05T08:42:19.974Z</time></trkpt><trkpt lat="43.028396388983126" lon="2.1365001428288775"><ele>278.8</ele><time>2026-04-05T08:42:21.974Z</time></trkpt><trkpt lat="43.02831830694049" lon="2.1365833293436314"><ele>279.4</ele><time>2026-04-05T08:42:23.974Z</time></trkpt><trkpt lat="43.028209035784734" lon="2.136698378816322"><ele>280.0</ele><time>2026-04-05T08:42:25.975Z</time></trkpt><trkpt lat="43.028140475474615" lon="2.1367663202863354"><ele>280.0</ele><time>2026-04-05T08:42:26.975Z</time></trkpt><trkpt lat="43.02809351003112" lon="2.136859542938489"><ele>280.0</ele><time>2026-04-05T08:42:27.975Z</time></trkpt><trkpt lat="43.02805972549123" lon="2.1369430182465536"><ele>280.0</ele><time>2026-04-05T08:42:28.975Z</time></trkpt><trkpt lat="43.028056259363034" lon="2.137112034876971"><ele>280.0</ele><time>2026-04-05T08:42:30.975Z</time></trkpt><trkpt lat="43.02805548763164" lon="2.1372486424740855"><ele>280.0</ele><time>2026-04-05T08:42:32.975Z</time></trkpt><trkpt lat="43.02800885325972" lon="2.1373198797884436"><ele>280.0</ele><time>2026-04-05T08:42:34.975Z</time></trkpt><trkpt lat="43.02797924079984" lon="2.1374009036421695"><ele>279.0</ele><time>2026-04-05T08:42:37.975Z</time></trkpt><trkpt lat="43.02800741155769" lon="2.137547856660823"><ele>278.0</ele><time>2026-04-05T08:42:39.975Z</time></trkpt><trkpt lat="43.02802128097903" lon="2.137646509513674"><ele>277.0</ele><time>2026-04-05T08:42:40.975Z</time></trkpt><trkpt lat="43.02803909432225" lon="2.1377302127716207"><ele>276.0</ele><time>2026-04-05T08:42:41.975Z</time></trkpt><trkpt lat="43.02805578487081" lon="2.1378824478285834"><ele>275.0</ele><time>2026-04-05T08:42:43.975Z</time></trkpt><trkpt lat="43.028071981169575" lon="2.1379683047785063"><ele>274.0</ele><time>2026-04-05T08:42:44.975Z</time></trkpt><trkpt lat="43.028091078510506" lon="2.1380670691869663"><ele>274.0</ele><time>2026-04-05T08:42:45.975Z</time></trkpt><trkpt lat="43.028115916105634" lon="2.1381803833453827"><ele>274.0</ele><time>2026-04-05T08:42:46.975Z</time></trkpt><trkpt lat="43.0281547215572" lon="2.1382668839657315"><ele>274.0</ele><time>2026-04-05T08:42:47.975Z</time></trkpt><trkpt lat="43.02818358068945" lon="2.1384303009394987"><ele>274.0</ele><time>2026-04-05T08:42:49.975Z</time></trkpt><trkpt lat="43.02821590343447" lon="2.1385472792282627"><ele>274.0</ele><time>2026-04-05T08:42:51.975Z</time></trkpt><trkpt lat="43.028028328722975" lon="2.1386449148427147"><ele>273.59999999999997</ele><time>2026-04-05T08:42:57.975Z</time></trkpt><trkpt lat="43.0279426634869" lon="2.1386617841097824"><ele>273.2</ele><time>2026-04-05T08:42:58.975Z</time></trkpt><trkpt lat="43.027875033830796" lon="2.1386879213285024"><ele>272.79999999999995</ele><time>2026-04-05T08:42:59.975Z</time></trkpt><trkpt lat="43.02775487447571" lon="2.138728173367022"><ele>272.4</ele><time>2026-04-05T08:43:01.975Z</time></trkpt><trkpt lat="43.027689400018026" lon="2.1387481760872302"><ele>272.0</ele><time>2026-04-05T08:43:02.975Z</time></trkpt><trkpt lat="43.027573438189926" lon="2.138782356867992"><ele>272.0</ele><time>2026-04-05T08:43:04.975Z</time></trkpt><trkpt lat="43.02748761756802" lon="2.1387976364972263"><ele>272.0</ele><time>2026-04-05T08:43:06.975Z</time></trkpt><trkpt lat="43.02743093167705" lon="2.138756191159248"><ele>272.0</ele><time>2026-04-05T08:43:08.975Z</time></trkpt><trkpt lat="43.02739685425066" lon="2.1389342774605224"><ele>272.0</ele><time>2026-04-05T08:43:12.975Z</time></trkpt><trkpt lat="43.027382499640694" lon="2.139074540582341"><ele>272.0</ele><time>2026-04-05T08:43:13.975Z</time></trkpt><trkpt lat="43.02738829428574" lon="2.139176006396047"><ele>272.6</ele><time>2026-04-05T08:43:14.975Z</time></trkpt><trkpt lat="43.02743133920551" lon="2.1392893882128465"><ele>273.2</ele><time>2026-04-05T08:43:15.975Z</time></trkpt><trkpt lat="43.027435507270525" lon="2.1394377040992163"><ele>273.8</ele><time>2026-04-05T08:43:16.975Z</time></trkpt><trkpt lat="43.027445526997624" lon="2.1395726604769227"><ele>274.4</ele><time>2026-04-05T08:43:17.975Z</time></trkpt><trkpt lat="43.02746142651824" lon="2.1397268830743807"><ele>275.0</ele><time>2026-04-05T08:43:18.975Z</time></trkpt><trkpt lat="43.027481126073724" lon="2.13985527983743"><ele>275.4</ele><time>2026-04-05T08:43:19.975Z</time></trkpt><trkpt lat="43.02749068592605" lon="2.13999816480673"><ele>275.8</ele><time>2026-04-05T08:43:20.975Z</time></trkpt><trkpt lat="43.027511954840946" lon="2.1401307348078342"><ele>276.2</ele><time>2026-04-05T08:43:21.975Z</time></trkpt><trkpt lat="43.02753894792756" lon="2.140261053306085"><ele>276.6</ele><time>2026-04-05T08:43:22.975Z</time></trkpt><trkpt lat="43.0275587518889" lon="2.1403858336205865"><ele>277.0</ele><time>2026-04-05T08:43:23.975Z</time></trkpt><trkpt lat="43.027571654726025" lon="2.1404823314289088"><ele>277.0</ele><time>2026-04-05T08:43:24.975Z</time></trkpt><trkpt lat="43.027569004423114" lon="2.1405697613690693"><ele>277.0</ele><time>2026-04-05T08:43:25.975Z</time></trkpt><trkpt lat="43.027537495167074" lon="2.1406491630090185"><ele>277.0</ele><time>2026-04-05T08:43:26.975Z</time></trkpt><trkpt lat="43.027526990771236" lon="2.140751299797317"><ele>277.0</ele><time>2026-04-05T08:43:27.975Z</time></trkpt><trkpt lat="43.027491249158345" lon="2.1408655322616554"><ele>277.0</ele><time>2026-04-05T08:43:28.975Z</time></trkpt><trkpt lat="43.02745897528101" lon="2.1409805204419188"><ele>277.0</ele><time>2026-04-05T08:43:29.975Z</time></trkpt><trkpt lat="43.02743793961922" lon="2.141094725800284"><ele>281.2</ele><time>2026-04-05T08:43:30.975Z</time></trkpt><trkpt lat="43.02741770832393" lon="2.1412032374338392"><ele>285.4</ele><time>2026-04-05T08:43:31.971Z</time></trkpt><trkpt lat="43.02741291605391" lon="2.1413149979855537"><ele>289.6</ele><time>2026-04-05T08:43:32.971Z</time></trkpt><trkpt lat="43.02742319642923" lon="2.1414394760343765"><ele>293.8</ele><time>2026-04-05T08:43:33.971Z</time></trkpt><trkpt lat="43.02741210037808" lon="2.1415715176588197"><ele>298.0</ele><time>2026-04-05T08:43:34.971Z</time></trkpt><trkpt lat="43.027419125756474" lon="2.1417066974747043"><ele>298.2</ele><time>2026-04-05T08:43:35.97Z</time></trkpt><trkpt lat="43.02742725867457" lon="2.141841922609635"><ele>298.4</ele><time>2026-04-05T08:43:36.971Z</time></trkpt><trkpt lat="43.02743720045327" lon="2.1419838477689868"><ele>298.59999999999997</ele><time>2026-04-05T08:43:37.971Z</time></trkpt><trkpt lat="43.02744803530667" lon="2.142138522194524"><ele>298.8</ele><time>2026-04-05T08:43:38.97Z</time></trkpt><trkpt lat="43.027458686780015" lon="2.142290578720438"><ele>299.0</ele><time>2026-04-05T08:43:39.97Z</time></trkpt><trkpt lat="43.02747628263471" lon="2.142447298111756"><ele>294.5</ele><time>2026-04-05T08:43:40.971Z</time></trkpt><trkpt lat="43.027482188907676" lon="2.142604752901185"><ele>290.0</ele><time>2026-04-05T08:43:41.971Z</time></trkpt><trkpt lat="43.02749054868381" lon="2.142764382382896"><ele>285.5</ele><time>2026-04-05T08:43:42.971Z</time></trkpt><trkpt lat="43.02750059424407" lon="2.142927819447895"><ele>281.0</ele><time>2026-04-05T08:43:43.97Z</time></trkpt><trkpt lat="43.0275093478592" lon="2.143076415811556"><ele>280.8</ele><time>2026-04-05T08:43:44.97Z</time></trkpt><trkpt lat="43.02751717401327" lon="2.1432208724102613"><ele>280.6</ele><time>2026-04-05T08:43:45.97Z</time></trkpt><trkpt lat="43.02750232766612" lon="2.1433619908254173"><ele>280.4</ele><time>2026-04-05T08:43:46.97Z</time></trkpt><trkpt lat="43.027491215547876" lon="2.143502813529823"><ele>280.2</ele><time>2026-04-05T08:43:47.97Z</time></trkpt><trkpt lat="43.02747016580345" lon="2.143654427070581"><ele>280.0</ele><time>2026-04-05T08:43:48.97Z</time></trkpt><trkpt lat="43.02744341110601" lon="2.1438134672262006"><ele>282.0</ele><time>2026-04-05T08:43:49.971Z</time></trkpt><trkpt lat="43.02741264942547" lon="2.1439674368106947"><ele>284.0</ele><time>2026-04-05T08:43:50.971Z</time></trkpt><trkpt lat="43.02737990564645" lon="2.144109312190252"><ele>286.0</ele><time>2026-04-05T08:43:51.971Z</time></trkpt><trkpt lat="43.02733785900288" lon="2.144223387287152"><ele>288.0</ele><time>2026-04-05T08:43:52.971Z</time></trkpt><trkpt lat="43.02726026835429" lon="2.1443083073185902"><ele>290.0</ele><time>2026-04-05T08:43:53.971Z</time></trkpt><trkpt lat="43.02720246358589" lon="2.144418679791239"><ele>290.0</ele><time>2026-04-05T08:43:54.971Z</time></trkpt><trkpt lat="43.027154562052914" lon="2.1445584533812077"><ele>290.0</ele><time>2026-04-05T08:43:55.971Z</time></trkpt><trkpt lat="43.02713804178985" lon="2.1447058296084065"><ele>290.0</ele><time>2026-04-05T08:43:56.971Z</time></trkpt><trkpt lat="43.027099024273475" lon="2.1448470924738703"><ele>290.0</ele><time>2026-04-05T08:43:57.971Z</time></trkpt><trkpt lat="43.02707496438382" lon="2.1449982766479843"><ele>290.0</ele><time>2026-04-05T08:43:58.971Z</time></trkpt><trkpt lat="43.02705850772233" lon="2.145149877821334"><ele>290.6</ele><time>2026-04-05T08:43:59.971Z</time></trkpt><trkpt lat="43.027065035486" lon="2.1453020290525586"><ele>291.2</ele><time>2026-04-05T08:44:00.971Z</time></trkpt><trkpt lat="43.02711261293511" lon="2.145438907827527"><ele>291.8</ele><time>2026-04-05T08:44:01.971Z</time></trkpt><trkpt lat="43.027100736313514" lon="2.145578984941339"><ele>292.4</ele><time>2026-04-05T08:44:02.971Z</time></trkpt><trkpt lat="43.02708595177505" lon="2.1457252069021218"><ele>293.0</ele><time>2026-04-05T08:44:03.971Z</time></trkpt><trkpt lat="43.027066571062306" lon="2.1458834177510084"><ele>294.0</ele><time>2026-04-05T08:44:04.971Z</time></trkpt><trkpt lat="43.02707750527365" lon="2.1460490714295934"><ele>295.0</ele><time>2026-04-05T08:44:05.971Z</time></trkpt><trkpt lat="43.027067838784895" lon="2.146215700377568"><ele>296.0</ele><time>2026-04-05T08:44:06.971Z</time></trkpt><trkpt lat="43.02706729799988" lon="2.146386853031897"><ele>297.0</ele><time>2026-04-05T08:44:07.971Z</time></trkpt><trkpt lat="43.02706239939605" lon="2.1465505086523433"><ele>297.6</ele><time>2026-04-05T08:44:08.971Z</time></trkpt><trkpt lat="43.027054362305186" lon="2.146690190075278"><ele>298.2</ele><time>2026-04-05T08:44:09.971Z</time></trkpt><trkpt lat="43.027033066839344" lon="2.1468264677318225"><ele>298.8</ele><time>2026-04-05T08:44:10.971Z</time></trkpt><trkpt lat="43.02699512581117" lon="2.146980620076901"><ele>299.4</ele><time>2026-04-05T08:44:11.971Z</time></trkpt><trkpt lat="43.0269438143703" lon="2.1470874197223844"><ele>300.0</ele><time>2026-04-05T08:44:12.971Z</time></trkpt><trkpt lat="43.02688164084596" lon="2.147144206028546"><ele>300.0</ele><time>2026-04-05T08:44:13.971Z</time></trkpt><trkpt lat="43.02680295397412" lon="2.147207457544345"><ele>300.0</ele><time>2026-04-05T08:44:14.971Z</time></trkpt><trkpt lat="43.02672920542947" lon="2.1472659096537337"><ele>300.0</ele><time>2026-04-05T08:44:15.971Z</time></trkpt><trkpt lat="43.026675853396604" lon="2.1473210461829932"><ele>300.0</ele><time>2026-04-05T08:44:16.971Z</time></trkpt><trkpt lat="43.02663033119925" lon="2.147484962731203"><ele>300.0</ele><time>2026-04-05T08:44:18.971Z</time></trkpt><trkpt lat="43.02667791993223" lon="2.1475934427883803"><ele>300.0</ele><time>2026-04-05T08:44:19.971Z</time></trkpt><trkpt lat="43.02670473521748" lon="2.1476767715637655"><ele>300.0</ele><time>2026-04-05T08:44:20.971Z</time></trkpt><trkpt lat="43.02672911609783" lon="2.147782605467018"><ele>300.0</ele><time>2026-04-05T08:44:21.971Z</time></trkpt><trkpt lat="43.0267455545379" lon="2.1479131014336352"><ele>300.0</ele><time>2026-04-05T08:44:22.971Z</time></trkpt><trkpt lat="43.02671710709377" lon="2.1480286206069965"><ele>300.0</ele><time>2026-04-05T08:44:23.971Z</time></trkpt><trkpt lat="43.02667652573091" lon="2.148169606900561"><ele>300.0</ele><time>2026-04-05T08:44:24.971Z</time></trkpt><trkpt lat="43.02659441532035" lon="2.1483258871145305"><ele>306.0</ele><time>2026-04-05T08:44:25.971Z</time></trkpt><trkpt lat="43.02658648297417" lon="2.1485275022051935"><ele>312.0</ele><time>2026-04-05T08:44:26.971Z</time></trkpt><trkpt lat="43.02655931567821" lon="2.1487217652497232"><ele>318.0</ele><time>2026-04-05T08:44:27.971Z</time></trkpt><trkpt lat="43.02650915374502" lon="2.14889360178477"><ele>324.0</ele><time>2026-04-05T08:44:28.971Z</time></trkpt><trkpt lat="43.026470712556986" lon="2.149057804377941"><ele>324.0</ele><time>2026-04-05T08:44:29.971Z</time></trkpt><trkpt lat="43.02643685506868" lon="2.1492024272551102"><ele>324.0</ele><time>2026-04-05T08:44:30.971Z</time></trkpt><trkpt lat="43.026395926746225" lon="2.149318635106657"><ele>324.0</ele><time>2026-04-05T08:44:31.971Z</time></trkpt><trkpt lat="43.02635908058187" lon="2.149447424561005"><ele>324.0</ele><time>2026-04-05T08:44:32.971Z</time></trkpt><trkpt lat="43.02634146295738" lon="2.1496158560189107"><ele>324.0</ele><time>2026-04-05T08:44:33.971Z</time></trkpt><trkpt lat="43.02637334926407" lon="2.1497794793838425"><ele>323.6</ele><time>2026-04-05T08:44:34.971Z</time></trkpt><trkpt lat="43.02633557782306" lon="2.149915089958361"><ele>323.2</ele><time>2026-04-05T08:44:35.971Z</time></trkpt><trkpt lat="43.02630318810015" lon="2.1500544469780207"><ele>322.8</ele><time>2026-04-05T08:44:36.971Z</time></trkpt><trkpt lat="43.026255807707976" lon="2.150202049127055"><ele>322.40000000000003</ele><time>2026-04-05T08:44:37.971Z</time></trkpt><trkpt lat="43.02621406004639" lon="2.150344206885988"><ele>322.0</ele><time>2026-04-05T08:44:38.971Z</time></trkpt><trkpt lat="43.02615941203805" lon="2.150509521040638"><ele>322.0</ele><time>2026-04-05T08:44:39.971Z</time></trkpt><trkpt lat="43.026102800273655" lon="2.1506646430459466"><ele>322.0</ele><time>2026-04-05T08:44:40.971Z</time></trkpt><trkpt lat="43.02604844228263" lon="2.1508022928212873"><ele>322.0</ele><time>2026-04-05T08:44:41.971Z</time></trkpt><trkpt lat="43.025998115662595" lon="2.1509411457430856"><ele>322.0</ele><time>2026-04-05T08:44:42.971Z</time></trkpt><trkpt lat="43.02596082130913" lon="2.1510620137163885"><ele>322.25</ele><time>2026-04-05T08:44:43.971Z</time></trkpt><trkpt lat="43.025928876613506" lon="2.1512008709172554"><ele>322.5</ele><time>2026-04-05T08:44:44.971Z</time></trkpt><trkpt lat="43.02593172286567" lon="2.151385920494884"><ele>322.75</ele><time>2026-04-05T08:44:45.971Z</time></trkpt><trkpt lat="43.025940884565884" lon="2.151564078521731"><ele>323.0</ele><time>2026-04-05T08:44:46.971Z</time></trkpt><trkpt lat="43.02595094026164" lon="2.15172521385876"><ele>323.0</ele><time>2026-04-05T08:44:47.971Z</time></trkpt><trkpt lat="43.025958281913226" lon="2.151853627746026"><ele>323.0</ele><time>2026-04-05T08:44:48.971Z</time></trkpt><trkpt lat="43.02594563595354" lon="2.1519658606943137"><ele>323.0</ele><time>2026-04-05T08:44:49.971Z</time></trkpt><trkpt lat="43.025918485950505" lon="2.1520577197836297"><ele>323.0</ele><time>2026-04-05T08:44:50.971Z</time></trkpt><trkpt lat="43.02588275076861" lon="2.1521544776835375"><ele>323.0</ele><time>2026-04-05T08:44:51.971Z</time></trkpt><trkpt lat="43.02584752321536" lon="2.152314227481314"><ele>323.75</ele><time>2026-04-05T08:44:53.971Z</time></trkpt><trkpt lat="43.02583457334262" lon="2.152418403565472"><ele>324.5</ele><time>2026-04-05T08:44:55.971Z</time></trkpt><trkpt lat="43.0258348919317" lon="2.152563938427615"><ele>325.25</ele><time>2026-04-05T08:44:57.971Z</time></trkpt><trkpt lat="43.02585883833337" lon="2.1526750622067055"><ele>326.0</ele><time>2026-04-05T08:44:59.971Z</time></trkpt><trkpt lat="43.026028975608895" lon="2.152769803488842"><ele>326.0</ele><time>2026-04-05T08:45:01.971Z</time></trkpt><trkpt lat="43.02610023159516" lon="2.1528141088356803"><ele>326.0</ele><time>2026-04-05T08:45:02.971Z</time></trkpt><trkpt lat="43.02616847890247" lon="2.152860781784954"><ele>326.0</ele><time>2026-04-05T08:45:03.971Z</time></trkpt><trkpt lat="43.026231606040604" lon="2.152908005766077"><ele>326.0</ele><time>2026-04-05T08:45:04.971Z</time></trkpt><trkpt lat="43.02633168937759" lon="2.152982875650685"><ele>326.0</ele><time>2026-04-05T08:45:06.971Z</time></trkpt><trkpt lat="43.02641758915105" lon="2.153030104152691"><ele>326.0</ele><time>2026-04-05T08:45:08.971Z</time></trkpt><trkpt lat="43.02649476129536" lon="2.1530686718661936"><ele>326.0</ele><time>2026-04-05T08:45:10.971Z</time></trkpt><trkpt lat="43.026568795867924" lon="2.15300836171157"><ele>326.0</ele><time>2026-04-05T08:45:11.971Z</time></trkpt><trkpt lat="43.02662325427983" lon="2.1529325131753785"><ele>326.0</ele><time>2026-04-05T08:45:12.971Z</time></trkpt><trkpt lat="43.02667978988052" lon="2.1528667283745606"><ele>326.0</ele><time>2026-04-05T08:45:13.971Z</time></trkpt><trkpt lat="43.026737443217144" lon="2.152801927740838"><ele>326.0</ele><time>2026-04-05T08:45:14.971Z</time></trkpt><trkpt lat="43.0267901817157" lon="2.1527458157112758"><ele>326.0</ele><time>2026-04-05T08:45:15.972Z</time></trkpt><trkpt lat="43.02684361328594" lon="2.152687336841442"><ele>326.0</ele><time>2026-04-05T08:45:16.972Z</time></trkpt><trkpt lat="43.026898130050704" lon="2.152621458054407"><ele>326.4</ele><time>2026-04-05T08:45:17.972Z</time></trkpt><trkpt lat="43.026942668641375" lon="2.1525580288233646"><ele>326.8</ele><time>2026-04-05T08:45:18.972Z</time></trkpt><trkpt lat="43.02701883595224" lon="2.1524289671123884"><ele>327.2</ele><time>2026-04-05T08:45:20.972Z</time></trkpt><trkpt lat="43.027074227554024" lon="2.152295465307521"><ele>327.59999999999997</ele><time>2026-04-05T08:45:22.972Z</time></trkpt><trkpt lat="43.02710723703285" lon="2.152215730367034"><ele>328.0</ele><time>2026-04-05T08:45:23.972Z</time></trkpt><trkpt lat="43.02716912902009" lon="2.152085943270342"><ele>326.3333333333333</ele><time>2026-04-05T08:45:25.972Z</time></trkpt><trkpt lat="43.02722557093255" lon="2.1519667623373246"><ele>324.66666666666663</ele><time>2026-04-05T08:45:27.972Z</time></trkpt><trkpt lat="43.02727825778104" lon="2.151852618340954"><ele>323.0</ele><time>2026-04-05T08:45:29.972Z</time></trkpt><trkpt lat="43.02731481252475" lon="2.151765674635992"><ele>321.3333333333333</ele><time>2026-04-05T08:45:31.972Z</time></trkpt><trkpt lat="43.027364440134924" lon="2.1517024813355317"><ele>319.6666666666667</ele><time>2026-04-05T08:45:33.972Z</time></trkpt><trkpt lat="43.02742442419789" lon="2.1517668647072052"><ele>318.0</ele><time>2026-04-05T08:45:35.972Z</time></trkpt><trkpt lat="43.027363353260064" lon="2.1518132061666027"><ele>318.0</ele><time>2026-04-05T08:45:36.972Z</time></trkpt><trkpt lat="43.02729735635167" lon="2.151910164741088"><ele>318.0</ele><time>2026-04-05T08:45:40.968Z</time></trkpt><trkpt lat="43.02724614736932" lon="2.152035085049727"><ele>318.0</ele><time>2026-04-05T08:45:42.968Z</time></trkpt><trkpt lat="43.02720812324475" lon="2.152180362712061"><ele>318.0</ele><time>2026-04-05T08:45:44.967Z</time></trkpt><trkpt lat="43.02719194439654" lon="2.152331797980343"><ele>318.0</ele><time>2026-04-05T08:45:46.968Z</time></trkpt><trkpt lat="43.02719974864076" lon="2.152478253348522"><ele>319.6666666666667</ele><time>2026-04-05T08:45:48.968Z</time></trkpt><trkpt lat="43.02720678993501" lon="2.1526178305645804"><ele>321.3333333333333</ele><time>2026-04-05T08:45:50.968Z</time></trkpt><trkpt lat="43.027218892088" lon="2.1527548199694886"><ele>323.0</ele><time>2026-04-05T08:45:52.968Z</time></trkpt><trkpt lat="43.027223588424924" lon="2.1528562987207165"><ele>324.66666666666663</ele><time>2026-04-05T08:45:54.968Z</time></trkpt><trkpt lat="43.027229926767596" lon="2.1529507955334415"><ele>326.3333333333333</ele><time>2026-04-05T08:45:56.968Z</time></trkpt><trkpt lat="43.027263120389556" lon="2.1530606177987828"><ele>328.0</ele><time>2026-04-05T08:45:58.968Z</time></trkpt><trkpt lat="43.027302321119635" lon="2.15320361464532"><ele>330.79999999999995</ele><time>2026-04-05T08:46:00.968Z</time></trkpt><trkpt lat="43.02720233720841" lon="2.153345319355923"><ele>333.6</ele><time>2026-04-05T08:46:01.968Z</time></trkpt><trkpt lat="43.02724231228733" lon="2.153456573191238"><ele>336.4</ele><time>2026-04-05T08:46:02.968Z</time></trkpt><trkpt lat="43.027295863170544" lon="2.1535622485832557"><ele>339.20000000000005</ele><time>2026-04-05T08:46:03.968Z</time></trkpt><trkpt lat="43.02736009788357" lon="2.1536871145756935"><ele>342.0</ele><time>2026-04-05T08:46:04.968Z</time></trkpt><trkpt lat="43.027406312088786" lon="2.153846107941436"><ele>342.0</ele><time>2026-04-05T08:46:05.968Z</time></trkpt><trkpt lat="43.02745553199984" lon="2.153961444754109"><ele>342.0</ele><time>2026-04-05T08:46:06.968Z</time></trkpt><trkpt lat="43.027490106384676" lon="2.154077285782617"><ele>342.0</ele><time>2026-04-05T08:46:07.968Z</time></trkpt><trkpt lat="43.027526871976065" lon="2.1542147202540476"><ele>342.0</ele><time>2026-04-05T08:46:08.968Z</time></trkpt><trkpt lat="43.02758444604229" lon="2.1543635414794613"><ele>342.0</ele><time>2026-04-05T08:46:09.968Z</time></trkpt><trkpt lat="43.027648658787925" lon="2.154553230304834"><ele>342.6</ele><time>2026-04-05T08:46:10.968Z</time></trkpt><trkpt lat="43.02766397819626" lon="2.154719087986648"><ele>343.20000000000005</ele><time>2026-04-05T08:46:11.968Z</time></trkpt><trkpt lat="43.027700125898015" lon="2.1548587639320718"><ele>343.8</ele><time>2026-04-05T08:46:12.968Z</time></trkpt><trkpt lat="43.02774644412446" lon="2.154994232214861"><ele>344.4</ele><time>2026-04-05T08:46:13.968Z</time></trkpt><trkpt lat="43.027773940531276" lon="2.155129726758067"><ele>345.0</ele><time>2026-04-05T08:46:14.968Z</time></trkpt><trkpt lat="43.027789225040486" lon="2.1552894344122966"><ele>345.25</ele><time>2026-04-05T08:46:15.968Z</time></trkpt><trkpt lat="43.027808054518275" lon="2.155457295768177"><ele>345.5</ele><time>2026-04-05T08:46:16.968Z</time></trkpt><trkpt lat="43.02783320843486" lon="2.1556289199936334"><ele>345.75</ele><time>2026-04-05T08:46:17.968Z</time></trkpt><trkpt lat="43.027852395259195" lon="2.155778690705706"><ele>346.0</ele><time>2026-04-05T08:46:18.968Z</time></trkpt><trkpt lat="43.02785551137942" lon="2.1559341782204617"><ele>345.25</ele><time>2026-04-05T08:46:19.968Z</time></trkpt><trkpt lat="43.027857195849606" lon="2.1560938210558764"><ele>344.5</ele><time>2026-04-05T08:46:20.968Z</time></trkpt><trkpt lat="43.02787024135089" lon="2.1562603353283487"><ele>343.75</ele><time>2026-04-05T08:46:21.968Z</time></trkpt><trkpt lat="43.027871480606116" lon="2.1564252391914214"><ele>343.0</ele><time>2026-04-05T08:46:22.968Z</time></trkpt><trkpt lat="43.027871078761706" lon="2.156576216178031"><ele>343.0</ele><time>2026-04-05T08:46:23.968Z</time></trkpt><trkpt lat="43.027875570146755" lon="2.1567117412881025"><ele>343.0</ele><time>2026-04-05T08:46:24.968Z</time></trkpt><trkpt lat="43.027896749215074" lon="2.156873896870411"><ele>343.0</ele><time>2026-04-05T08:46:25.968Z</time></trkpt><trkpt lat="43.02794688157396" lon="2.1570597417780717"><ele>343.0</ele><time>2026-04-05T08:46:26.968Z</time></trkpt><trkpt lat="43.02800426418443" lon="2.1572624619858036"><ele>342.75</ele><time>2026-04-05T08:46:27.968Z</time></trkpt><trkpt lat="43.02805811332022" lon="2.1574840516157403"><ele>342.5</ele><time>2026-04-05T08:46:28.968Z</time></trkpt><trkpt lat="43.02808031973349" lon="2.157659966387481"><ele>342.25</ele><time>2026-04-05T08:46:29.968Z</time></trkpt><trkpt lat="43.02811258985429" lon="2.1578327580816894"><ele>342.0</ele><time>2026-04-05T08:46:30.968Z</time></trkpt><trkpt lat="43.02816544184622" lon="2.1580000748469628"><ele>342.0</ele><time>2026-04-05T08:46:31.968Z</time></trkpt><trkpt lat="43.028270960511215" lon="2.1581728195981404"><ele>342.0</ele><time>2026-04-05T08:46:32.968Z</time></trkpt><trkpt lat="43.02835834471964" lon="2.158355943042212"><ele>342.0</ele><time>2026-04-05T08:46:33.968Z</time></trkpt><trkpt lat="43.0284156939834" lon="2.15851054177501"><ele>337.75</ele><time>2026-04-05T08:46:34.968Z</time></trkpt><trkpt lat="43.028477803007306" lon="2.1586701350377173"><ele>333.5</ele><time>2026-04-05T08:46:35.968Z</time></trkpt><trkpt lat="43.02854325488512" lon="2.15883801010151"><ele>329.25</ele><time>2026-04-05T08:46:36.968Z</time></trkpt><trkpt lat="43.02859322133417" lon="2.1589957521425895"><ele>325.0</ele><time>2026-04-05T08:46:37.968Z</time></trkpt><trkpt lat="43.02862441990273" lon="2.159130703797723"><ele>324.0</ele><time>2026-04-05T08:46:38.968Z</time></trkpt><trkpt lat="43.028662607537164" lon="2.1592460532403566"><ele>323.0</ele><time>2026-04-05T08:46:39.968Z</time></trkpt><trkpt lat="43.0287161797845" lon="2.1593534904176295"><ele>322.0</ele><time>2026-04-05T08:46:40.968Z</time></trkpt><trkpt lat="43.028781199830284" lon="2.1594714403217874"><ele>321.0</ele><time>2026-04-05T08:46:41.968Z</time></trkpt><trkpt lat="43.028830142903786" lon="2.1595760016257857"><ele>320.0</ele><time>2026-04-05T08:46:42.968Z</time></trkpt><trkpt lat="43.028863631898616" lon="2.1596598641506635"><ele>320.0</ele><time>2026-04-05T08:46:43.968Z</time></trkpt><trkpt lat="43.028933689868516" lon="2.15974113255191"><ele>320.0</ele><time>2026-04-05T08:46:45.968Z</time></trkpt><trkpt lat="43.02905300391168" lon="2.159733886233469"><ele>320.0</ele><time>2026-04-05T08:46:47.969Z</time></trkpt><trkpt lat="43.02915495488991" lon="2.159676103269688"><ele>320.0</ele><time>2026-04-05T08:46:48.969Z</time></trkpt><trkpt lat="43.02927262570975" lon="2.1595840591357027"><ele>318.25</ele><time>2026-04-05T08:46:49.969Z</time></trkpt><trkpt lat="43.02941496012366" lon="2.1595109085502577"><ele>316.5</ele><time>2026-04-05T08:46:50.969Z</time></trkpt><trkpt lat="43.029552227077374" lon="2.1594804331146227"><ele>314.75</ele><time>2026-04-05T08:46:51.969Z</time></trkpt><trkpt lat="43.02965353518668" lon="2.1594469803711434"><ele>313.0</ele><time>2026-04-05T08:46:52.969Z</time></trkpt><trkpt lat="43.02973398878912" lon="2.159390069663871"><ele>313.0</ele><time>2026-04-05T08:46:53.969Z</time></trkpt><trkpt lat="43.02981361259135" lon="2.1593280848143146"><ele>313.0</ele><time>2026-04-05T08:46:54.969Z</time></trkpt><trkpt lat="43.02991865014721" lon="2.1592856858413416"><ele>313.0</ele><time>2026-04-05T08:46:55.969Z</time></trkpt><trkpt lat="43.0300153794363" lon="2.1592821125928636"><ele>313.0</ele><time>2026-04-05T08:46:56.969Z</time></trkpt><trkpt lat="43.030119311635886" lon="2.159297342543856"><ele>313.0</ele><time>2026-04-05T08:46:57.969Z</time></trkpt><trkpt lat="43.03022492520659" lon="2.1593426829687754"><ele>312.8</ele><time>2026-04-05T08:46:58.969Z</time></trkpt><trkpt lat="43.030313902996774" lon="2.1594263896340915"><ele>312.6</ele><time>2026-04-05T08:46:59.969Z</time></trkpt><trkpt lat="43.03038849654458" lon="2.159535946578735"><ele>312.4</ele><time>2026-04-05T08:47:00.969Z</time></trkpt><trkpt lat="43.030447838694386" lon="2.159655196852432"><ele>312.2</ele><time>2026-04-05T08:47:01.969Z</time></trkpt><trkpt lat="43.030461801842925" lon="2.1597464495877996"><ele>312.0</ele><time>2026-04-05T08:47:02.969Z</time></trkpt><trkpt lat="43.030552158976676" lon="2.1598902882858435"><ele>312.0</ele><time>2026-04-05T08:47:04.969Z</time></trkpt><trkpt lat="43.03062581602257" lon="2.159971511719427"><ele>312.0</ele><time>2026-04-05T08:47:05.969Z</time></trkpt><trkpt lat="43.03071376353653" lon="2.160018607598967"><ele>312.0</ele><time>2026-04-05T08:47:06.969Z</time></trkpt><trkpt lat="43.03077568125608" lon="2.160065129430884"><ele>312.0</ele><time>2026-04-05T08:47:07.969Z</time></trkpt><trkpt lat="43.03086785206254" lon="2.160198101553202"><ele>312.0</ele><time>2026-04-05T08:47:09.968Z</time></trkpt><trkpt lat="43.03090519798858" lon="2.160301596380655"><ele>313.0</ele><time>2026-04-05T08:47:10.968Z</time></trkpt><trkpt lat="43.03092974523196" lon="2.1603853352838027"><ele>314.0</ele><time>2026-04-05T08:47:11.968Z</time></trkpt><trkpt lat="43.03100423284129" lon="2.1604058307234824"><ele>315.0</ele><time>2026-04-05T08:47:13.967Z</time></trkpt><trkpt lat="43.03108892085218" lon="2.1604763336382478"><ele>316.0</ele><time>2026-04-05T08:47:15.967Z</time></trkpt><trkpt lat="43.031144496371994" lon="2.1605710331766548"><ele>317.0</ele><time>2026-04-05T08:47:16.967Z</time></trkpt><trkpt lat="43.03118987802161" lon="2.1606703642282596"><ele>318.0</ele><time>2026-04-05T08:47:17.967Z</time></trkpt><trkpt lat="43.03122510255386" lon="2.160756443360618"><ele>318.0</ele><time>2026-04-05T08:47:18.967Z</time></trkpt><trkpt lat="43.03125066122368" lon="2.160859733326721"><ele>318.0</ele><time>2026-04-05T08:47:19.967Z</time></trkpt><trkpt lat="43.03126800324032" lon="2.1609967066534637"><ele>318.0</ele><time>2026-04-05T08:47:20.967Z</time></trkpt><trkpt lat="43.03129188285151" lon="2.161123769925552"><ele>318.0</ele><time>2026-04-05T08:47:21.966Z</time></trkpt><trkpt lat="43.03131538580537" lon="2.1612238554602623"><ele>318.0</ele><time>2026-04-05T08:47:22.966Z</time></trkpt><trkpt lat="43.03134470382475" lon="2.1613052915897675"><ele>318.0</ele><time>2026-04-05T08:47:23.966Z</time></trkpt><trkpt lat="43.0313887557955" lon="2.1613948732823673"><ele>318.0</ele><time>2026-04-05T08:47:24.966Z</time></trkpt><trkpt lat="43.03144182772079" lon="2.1614728990491465"><ele>318.0</ele><time>2026-04-05T08:47:25.966Z</time></trkpt><trkpt lat="43.03151927848302" lon="2.161530707070267"><ele>318.0</ele><time>2026-04-05T08:47:26.966Z</time></trkpt><trkpt lat="43.03161523684562" lon="2.1616104625168107"><ele>318.0</ele><time>2026-04-05T08:47:27.966Z</time></trkpt><trkpt lat="43.03168342863069" lon="2.161696878303255"><ele>318.0</ele><time>2026-04-05T08:47:28.966Z</time></trkpt><trkpt lat="43.031769747442965" lon="2.1617624493678083"><ele>317.4</ele><time>2026-04-05T08:47:29.966Z</time></trkpt><trkpt lat="43.03182993807961" lon="2.161816013913792"><ele>316.8</ele><time>2026-04-05T08:47:30.966Z</time></trkpt><trkpt lat="43.031890181196566" lon="2.1619479058617976"><ele>316.2</ele><time>2026-04-05T08:47:32.966Z</time></trkpt><trkpt lat="43.03191751359951" lon="2.162065083010399"><ele>315.6</ele><time>2026-04-05T08:47:33.966Z</time></trkpt><trkpt lat="43.03196635037353" lon="2.162197203345391"><ele>315.0</ele><time>2026-04-05T08:47:34.966Z</time></trkpt><trkpt lat="43.03203392497311" lon="2.1623599920226506"><ele>315.4</ele><time>2026-04-05T08:47:35.966Z</time></trkpt><trkpt lat="43.03211306893085" lon="2.162497692714902"><ele>315.8</ele><time>2026-04-05T08:47:36.966Z</time></trkpt><trkpt lat="43.03215324475005" lon="2.1625861888647018"><ele>316.2</ele><time>2026-04-05T08:47:37.966Z</time></trkpt><trkpt lat="43.03219078636474" lon="2.162685726248289"><ele>316.6</ele><time>2026-04-05T08:47:38.966Z</time></trkpt><trkpt lat="43.03224163565431" lon="2.162778103341528"><ele>317.0</ele><time>2026-04-05T08:47:39.966Z</time></trkpt><trkpt lat="43.03232559551345" lon="2.1629119215293846"><ele>317.0</ele><time>2026-04-05T08:47:41.965Z</time></trkpt><trkpt lat="43.03234228138332" lon="2.1629992342551034"><ele>317.0</ele><time>2026-04-05T08:47:42.965Z</time></trkpt><trkpt lat="43.03245689105281" lon="2.163027004572043"><ele>317.0</ele><time>2026-04-05T08:47:46.96Z</time></trkpt><trkpt lat="43.03254437873809" lon="2.163030371146991"><ele>317.0</ele><time>2026-04-05T08:47:47.961Z</time></trkpt><trkpt lat="43.03262069333957" lon="2.163058322068632"><ele>317.0</ele><time>2026-04-05T08:47:48.961Z</time></trkpt><trkpt lat="43.032712678779056" lon="2.1631106760655996"><ele>317.0</ele><time>2026-04-05T08:47:49.96Z</time></trkpt><trkpt lat="43.03281608194477" lon="2.1631718926493266"><ele>319.0</ele><time>2026-04-05T08:47:50.96Z</time></trkpt><trkpt lat="43.03292204622704" lon="2.1632227558042723"><ele>321.0</ele><time>2026-04-05T08:47:51.96Z</time></trkpt><trkpt lat="43.03303359261654" lon="2.163249373032179"><ele>323.0</ele><time>2026-04-05T08:47:52.96Z</time></trkpt><trkpt lat="43.03314348152146" lon="2.163278391647439"><ele>325.0</ele><time>2026-04-05T08:47:53.96Z</time></trkpt><trkpt lat="43.03324302071155" lon="2.1632937082712607"><ele>327.0</ele><time>2026-04-05T08:47:54.96Z</time></trkpt><trkpt lat="43.03331358558414" lon="2.1633038520113654"><ele>327.0</ele><time>2026-04-05T08:47:55.96Z</time></trkpt><trkpt lat="43.03337747210657" lon="2.1633174147244922"><ele>327.0</ele><time>2026-04-05T08:47:56.96Z</time></trkpt><trkpt lat="43.03343733373729" lon="2.1633606162025694"><ele>327.0</ele><time>2026-04-05T08:47:57.96Z</time></trkpt><trkpt lat="43.033478479303504" lon="2.1634363847557263"><ele>327.0</ele><time>2026-04-05T08:47:58.96Z</time></trkpt><trkpt lat="43.03352289736817" lon="2.16352984381551"><ele>327.0</ele><time>2026-04-05T08:47:59.96Z</time></trkpt><trkpt lat="43.03358134219661" lon="2.163606992524876"><ele>327.0</ele><time>2026-04-05T08:48:00.96Z</time></trkpt><trkpt lat="43.03364543273097" lon="2.1636589237937516"><ele>327.0</ele><time>2026-04-05T08:48:01.96Z</time></trkpt><trkpt lat="43.03373189575507" lon="2.1636983818660083"><ele>327.0</ele><time>2026-04-05T08:48:02.96Z</time></trkpt><trkpt lat="43.03382017688388" lon="2.163673639034631"><ele>327.0</ele><time>2026-04-05T08:48:04.96Z</time></trkpt><trkpt lat="43.03383183206569" lon="2.1638019139999263"><ele>327.0</ele><time>2026-04-05T08:48:08.96Z</time></trkpt><trkpt lat="43.0337191386828" lon="2.163963258079622"><ele>327.0</ele><time>2026-04-05T08:48:10.96Z</time></trkpt><trkpt lat="43.03364148043501" lon="2.1640398416778908"><ele>327.0</ele><time>2026-04-05T08:48:11.96Z</time></trkpt><trkpt lat="43.03362937524567" lon="2.164165791162828"><ele>327.25</ele><time>2026-04-05T08:48:13.96Z</time></trkpt><trkpt lat="43.033678796744056" lon="2.1642303329593675"><ele>327.5</ele><time>2026-04-05T08:48:14.96Z</time></trkpt><trkpt lat="43.03379078251476" lon="2.164328324849571"><ele>327.75</ele><time>2026-04-05T08:48:15.96Z</time></trkpt><trkpt lat="43.03392710629601" lon="2.1644744270422303"><ele>328.0</ele><time>2026-04-05T08:48:16.96Z</time></trkpt><trkpt lat="43.034012227674815" lon="2.1646485728158043"><ele>328.0</ele><time>2026-04-05T08:48:17.96Z</time></trkpt><trkpt lat="43.03408566789876" lon="2.164793151860589"><ele>328.0</ele><time>2026-04-05T08:48:18.96Z</time></trkpt><trkpt lat="43.0342048989752" lon="2.164952812526776"><ele>328.0</ele><time>2026-04-05T08:48:19.96Z</time></trkpt><trkpt lat="43.03432938368354" lon="2.1650751534685075"><ele>328.0</ele><time>2026-04-05T08:48:20.96Z</time></trkpt><trkpt lat="43.03443010923693" lon="2.1651739274526065"><ele>324.0</ele><time>2026-04-05T08:48:21.96Z</time></trkpt><trkpt lat="43.034499314893566" lon="2.165267648738059"><ele>320.0</ele><time>2026-04-05T08:48:22.96Z</time></trkpt><trkpt lat="43.03454480487744" lon="2.1654043060931176"><ele>316.0</ele><time>2026-04-05T08:48:23.96Z</time></trkpt><trkpt lat="43.03461967265769" lon="2.1655711215016185"><ele>312.0</ele><time>2026-04-05T08:48:24.96Z</time></trkpt><trkpt lat="43.034684329409394" lon="2.165688757883955"><ele>311.5</ele><time>2026-04-05T08:48:25.96Z</time></trkpt><trkpt lat="43.034737002363045" lon="2.1658273380284903"><ele>311.0</ele><time>2026-04-05T08:48:26.96Z</time></trkpt><trkpt lat="43.034789180839894" lon="2.165905573976233"><ele>310.5</ele><time>2026-04-05T08:48:27.96Z</time></trkpt><trkpt lat="43.03483444817111" lon="2.1659859900703293"><ele>310.0</ele><time>2026-04-05T08:48:28.96Z</time></trkpt><trkpt lat="43.03489339875475" lon="2.166049798155681"><ele>309.5</ele><time>2026-04-05T08:48:29.96Z</time></trkpt><trkpt lat="43.034967078359855" lon="2.1661174599321713"><ele>309.0</ele><time>2026-04-05T08:48:30.96Z</time></trkpt><trkpt lat="43.03505370778079" lon="2.166182227391352"><ele>307.4</ele><time>2026-04-05T08:48:31.96Z</time></trkpt><trkpt lat="43.03512532300392" lon="2.1662070280249024"><ele>305.79999999999995</ele><time>2026-04-05T08:48:32.96Z</time></trkpt><trkpt lat="43.03522700064488" lon="2.166317537673088"><ele>304.20000000000005</ele><time>2026-04-05T08:48:34.96Z</time></trkpt><trkpt lat="43.03528003573007" lon="2.166434031096366"><ele>302.6</ele><time>2026-04-05T08:48:35.96Z</time></trkpt><trkpt lat="43.03531550327884" lon="2.166550632503893"><ele>301.0</ele><time>2026-04-05T08:48:36.96Z</time></trkpt><trkpt lat="43.03535735499663" lon="2.1666560003530844"><ele>300.0</ele><time>2026-04-05T08:48:37.96Z</time></trkpt><trkpt lat="43.03539607402019" lon="2.166732960531278"><ele>299.0</ele><time>2026-04-05T08:48:38.96Z</time></trkpt><trkpt lat="43.03546785240581" lon="2.1668246809970957"><ele>298.0</ele><time>2026-04-05T08:48:40.96Z</time></trkpt><trkpt lat="43.03557172527254" lon="2.1668686644492383"><ele>297.0</ele><time>2026-04-05T08:48:42.96Z</time></trkpt><trkpt lat="43.03563796273024" lon="2.166840201888382"><ele>296.0</ele><time>2026-04-05T08:48:43.96Z</time></trkpt><trkpt lat="43.03569646158985" lon="2.1667795001391474"><ele>295.0</ele><time>2026-04-05T08:48:44.96Z</time></trkpt><trkpt lat="43.03582357517835" lon="2.1667907033185907"><ele>295.0</ele><time>2026-04-05T08:48:46.96Z</time></trkpt><trkpt lat="43.03590003127075" lon="2.1668583595928923"><ele>295.0</ele><time>2026-04-05T08:48:48.96Z</time></trkpt><trkpt lat="43.035836627912225" lon="2.166908241229411"><ele>295.0</ele><time>2026-04-05T08:48:50.96Z</time></trkpt><trkpt lat="43.03579319978371" lon="2.1669771342496444"><ele>295.0</ele><time>2026-04-05T08:48:51.96Z</time></trkpt><trkpt lat="43.03575281261273" lon="2.1671364223612777"><ele>295.0</ele><time>2026-04-05T08:48:52.96Z</time></trkpt><trkpt lat="43.03569168343492" lon="2.1672946255971195"><ele>295.6</ele><time>2026-04-05T08:48:53.96Z</time></trkpt><trkpt lat="43.03559439155913" lon="2.167442906689924"><ele>296.2</ele><time>2026-04-05T08:48:54.96Z</time></trkpt><trkpt lat="43.03550529468076" lon="2.167543937742162"><ele>296.8</ele><time>2026-04-05T08:48:55.96Z</time></trkpt><trkpt lat="43.03545194578655" lon="2.1676259455440725"><ele>297.4</ele><time>2026-04-05T08:48:56.96Z</time></trkpt><trkpt lat="43.0354418319109" lon="2.1677336135641743"><ele>298.0</ele><time>2026-04-05T08:48:57.96Z</time></trkpt><trkpt lat="43.03542365431629" lon="2.167876639068741"><ele>298.0</ele><time>2026-04-05T08:48:58.96Z</time></trkpt><trkpt lat="43.03537179001099" lon="2.1680542145908426"><ele>298.0</ele><time>2026-04-05T08:48:59.96Z</time></trkpt><trkpt lat="43.03528669271612" lon="2.1682605231202317"><ele>298.0</ele><time>2026-04-05T08:49:00.96Z</time></trkpt><trkpt lat="43.035171361770296" lon="2.16848819494299"><ele>298.0</ele><time>2026-04-05T08:49:01.96Z</time></trkpt><trkpt lat="43.03506719565283" lon="2.1687464803782346"><ele>298.0</ele><time>2026-04-05T08:49:02.96Z</time></trkpt><trkpt lat="43.03497710865035" lon="2.1689786245305407"><ele>298.0</ele><time>2026-04-05T08:49:03.96Z</time></trkpt><trkpt lat="43.03489386293456" lon="2.1691846474632235"><ele>302.0</ele><time>2026-04-05T08:49:04.96Z</time></trkpt><trkpt lat="43.03481672992358" lon="2.1693673657606847"><ele>306.0</ele><time>2026-04-05T08:49:05.96Z</time></trkpt><trkpt lat="43.034766367859405" lon="2.1695245473193854"><ele>310.0</ele><time>2026-04-05T08:49:06.96Z</time></trkpt><trkpt lat="43.034714896876224" lon="2.169655290476383"><ele>314.0</ele><time>2026-04-05T08:49:07.96Z</time></trkpt><trkpt lat="43.034664154281145" lon="2.169770436346447"><ele>313.25</ele><time>2026-04-05T08:49:08.96Z</time></trkpt><trkpt lat="43.03463229842722" lon="2.1698700713947052"><ele>312.5</ele><time>2026-04-05T08:49:09.96Z</time></trkpt><trkpt lat="43.034618698926856" lon="2.1700177436109094"><ele>311.75</ele><time>2026-04-05T08:49:10.96Z</time></trkpt><trkpt lat="43.03461279480634" lon="2.170201740329688"><ele>311.0</ele><time>2026-04-05T08:49:11.96Z</time></trkpt><trkpt lat="43.034579347985314" lon="2.170394103304656"><ele>311.0</ele><time>2026-04-05T08:49:12.96Z</time></trkpt><trkpt lat="43.03454271209028" lon="2.17055133172756"><ele>311.0</ele><time>2026-04-05T08:49:13.96Z</time></trkpt><trkpt lat="43.03449618182249" lon="2.170691358213648"><ele>311.0</ele><time>2026-04-05T08:49:14.96Z</time></trkpt><trkpt lat="43.03442608320713" lon="2.17083864905978"><ele>311.0</ele><time>2026-04-05T08:49:15.96Z</time></trkpt><trkpt lat="43.0343458658174" lon="2.1710020970390307"><ele>311.75</ele><time>2026-04-05T08:49:16.96Z</time></trkpt><trkpt lat="43.03425399742674" lon="2.1711624555907525"><ele>312.5</ele><time>2026-04-05T08:49:17.96Z</time></trkpt><trkpt lat="43.03416707346106" lon="2.171316480428936"><ele>313.25</ele><time>2026-04-05T08:49:18.96Z</time></trkpt><trkpt lat="43.034089700253965" lon="2.1714949137467556"><ele>314.0</ele><time>2026-04-05T08:49:19.96Z</time></trkpt><trkpt lat="43.03401067855776" lon="2.171666812716542"><ele>317.0</ele><time>2026-04-05T08:49:20.96Z</time></trkpt><trkpt lat="43.03391942663906" lon="2.171854024322229"><ele>320.0</ele><time>2026-04-05T08:49:21.96Z</time></trkpt><trkpt lat="43.03385289979322" lon="2.1720523643351815"><ele>323.0</ele><time>2026-04-05T08:49:22.96Z</time></trkpt><trkpt lat="43.03381599739815" lon="2.172243352080927"><ele>318.33333333333337</ele><time>2026-04-05T08:49:23.96Z</time></trkpt><trkpt lat="43.03378748856872" lon="2.172468590171744"><ele>313.6666666666667</ele><time>2026-04-05T08:49:24.96Z</time></trkpt><trkpt lat="43.03376981343676" lon="2.1726883381268722"><ele>309.0</ele><time>2026-04-05T08:49:25.96Z</time></trkpt><trkpt lat="43.03371398228456" lon="2.172840340271146"><ele>309.0</ele><time>2026-04-05T08:49:26.96Z</time></trkpt><trkpt lat="43.03365605073554" lon="2.1729782972150167"><ele>309.0</ele><time>2026-04-05T08:49:27.96Z</time></trkpt><trkpt lat="43.03361018101534" lon="2.1730688918858223"><ele>309.0</ele><time>2026-04-05T08:49:28.96Z</time></trkpt><trkpt lat="43.03364674517665" lon="2.173153003980656"><ele>309.0</ele><time>2026-04-05T08:49:31.96Z</time></trkpt><trkpt lat="43.03370808633145" lon="2.1731305906512643"><ele>309.0</ele><time>2026-04-05T08:49:32.96Z</time></trkpt><trkpt lat="43.033780134244054" lon="2.1730744680793075"><ele>309.0</ele><time>2026-04-05T08:49:34.96Z</time></trkpt><trkpt lat="43.03384082275902" lon="2.1731974383035024"><ele>308.4</ele><time>2026-04-05T08:49:43.96Z</time></trkpt><trkpt lat="43.03383937373506" lon="2.173311136364641"><ele>307.79999999999995</ele><time>2026-04-05T08:49:44.961Z</time></trkpt><trkpt lat="43.03382998938227" lon="2.1734280228209357"><ele>307.20000000000005</ele><time>2026-04-05T08:49:45.961Z</time></trkpt><trkpt lat="43.03382124842465" lon="2.1735628111482344"><ele>306.6</ele><time>2026-04-05T08:49:46.961Z</time></trkpt><trkpt lat="43.03378253926762" lon="2.173724757794646"><ele>306.0</ele><time>2026-04-05T08:49:47.961Z</time></trkpt><trkpt lat="43.03376027050704" lon="2.1738773259644737"><ele>306.0</ele><time>2026-04-05T08:49:48.961Z</time></trkpt><trkpt lat="43.03375834746205" lon="2.174000023095849"><ele>306.0</ele><time>2026-04-05T08:49:49.956Z</time></trkpt><trkpt lat="43.0337504319923" lon="2.174136584745757"><ele>306.0</ele><time>2026-04-05T08:49:51.956Z</time></trkpt><trkpt lat="43.03366178442083" lon="2.174147188040886"><ele>306.0</ele><time>2026-04-05T08:49:53.956Z</time></trkpt><trkpt lat="43.03356786177055" lon="2.174228316558758"><ele>306.0</ele><time>2026-04-05T08:49:55.956Z</time></trkpt><trkpt lat="43.03354944655665" lon="2.1743486490109087"><ele>306.6666666666667</ele><time>2026-04-05T08:49:56.956Z</time></trkpt><trkpt lat="43.03351488011578" lon="2.1744270366995884"><ele>307.3333333333333</ele><time>2026-04-05T08:49:57.956Z</time></trkpt><trkpt lat="43.03345680788031" lon="2.174519161178077"><ele>308.0</ele><time>2026-04-05T08:49:58.955Z</time></trkpt><trkpt lat="43.03345722400448" lon="2.1746157562505024"><ele>308.66666666666663</ele><time>2026-04-05T08:49:59.956Z</time></trkpt><trkpt lat="43.03349852622653" lon="2.17474382448895"><ele>309.3333333333333</ele><time>2026-04-05T08:50:00.956Z</time></trkpt><trkpt lat="43.03352857722888" lon="2.1748694880456463"><ele>310.0</ele><time>2026-04-05T08:50:01.955Z</time></trkpt><trkpt lat="43.03355704439984" lon="2.174992960914571"><ele>310.0</ele><time>2026-04-05T08:50:03.956Z</time></trkpt><trkpt lat="43.03360262499045" lon="2.1751242432576494"><ele>310.0</ele><time>2026-04-05T08:50:05.956Z</time></trkpt><trkpt lat="43.03358312090508" lon="2.1752471504277024"><ele>310.0</ele><time>2026-04-05T08:50:07.956Z</time></trkpt><trkpt lat="43.03367694817592" lon="2.175311764366482"><ele>310.0</ele><time>2026-04-05T08:50:09.956Z</time></trkpt><trkpt lat="43.03367238940312" lon="2.1754749335613766"><ele>310.0</ele><time>2026-04-05T08:50:11.956Z</time></trkpt><trkpt lat="43.03368560576815" lon="2.175566614100534"><ele>309.16666666666663</ele><time>2026-04-05T08:50:12.956Z</time></trkpt><trkpt lat="43.033755704210684" lon="2.1756936017562487"><ele>308.3333333333333</ele><time>2026-04-05T08:50:14.956Z</time></trkpt><trkpt lat="43.033810056838476" lon="2.1757941685212945"><ele>307.5</ele><time>2026-04-05T08:50:17.956Z</time></trkpt><trkpt lat="43.033841912659405" lon="2.1759082600135677"><ele>306.6666666666667</ele><time>2026-04-05T08:50:18.956Z</time></trkpt><trkpt lat="43.03388984352574" lon="2.175991493372012"><ele>305.83333333333337</ele><time>2026-04-05T08:50:19.956Z</time></trkpt><trkpt lat="43.03394586149246" lon="2.176051911023262"><ele>305.0</ele><time>2026-04-05T08:50:20.956Z</time></trkpt><trkpt lat="43.03403179621388" lon="2.1761754180953012"><ele>305.0</ele><time>2026-04-05T08:50:22.956Z</time></trkpt><trkpt lat="43.034069892023155" lon="2.1763423121416245"><ele>305.0</ele><time>2026-04-05T08:50:24.956Z</time></trkpt><trkpt lat="43.034105446612074" lon="2.17643152255846"><ele>305.0</ele><time>2026-04-05T08:50:25.956Z</time></trkpt><trkpt lat="43.03416129498122" lon="2.1765165601648353"><ele>305.0</ele><time>2026-04-05T08:50:26.956Z</time></trkpt><trkpt lat="43.034221506047466" lon="2.1766019456766186"><ele>305.0</ele><time>2026-04-05T08:50:28.956Z</time></trkpt><trkpt lat="43.03428558062536" lon="2.176642114679337"><ele>305.0</ele><time>2026-04-05T08:50:36.956Z</time></trkpt><trkpt lat="43.03437130168901" lon="2.1767116388722263"><ele>308.1666666666667</ele><time>2026-04-05T08:50:38.956Z</time></trkpt><trkpt lat="43.03442037945619" lon="2.1767830976641975"><ele>311.33333333333337</ele><time>2026-04-05T08:50:39.956Z</time></trkpt><trkpt lat="43.03445525910289" lon="2.176873595699286"><ele>314.5</ele><time>2026-04-05T08:50:40.956Z</time></trkpt><trkpt lat="43.03447492930526" lon="2.176965825034236"><ele>317.6666666666667</ele><time>2026-04-05T08:50:41.956Z</time></trkpt><trkpt lat="43.03451871451785" lon="2.17703481843836"><ele>320.8333333333333</ele><time>2026-04-05T08:50:42.956Z</time></trkpt><trkpt lat="43.034573432160265" lon="2.1770934665495383"><ele>324.0</ele><time>2026-04-05T08:50:43.956Z</time></trkpt><trkpt lat="43.03465502335721" lon="2.177230038153734"><ele>324.0</ele><time>2026-04-05T08:50:45.956Z</time></trkpt><trkpt lat="43.034676875529776" lon="2.177316179005964"><ele>324.0</ele><time>2026-04-05T08:50:46.956Z</time></trkpt><trkpt lat="43.03471873140463" lon="2.177438033475829"><ele>324.0</ele><time>2026-04-05T08:50:48.956Z</time></trkpt><trkpt lat="43.03475521724903" lon="2.1775840114019553"><ele>324.0</ele><time>2026-04-05T08:50:50.956Z</time></trkpt><trkpt lat="43.03483071415228" lon="2.1777098056215816"><ele>324.0</ele><time>2026-04-05T08:50:52.956Z</time></trkpt><trkpt lat="43.034884188520486" lon="2.177783996672764"><ele>324.5</ele><time>2026-04-05T08:50:53.956Z</time></trkpt><trkpt lat="43.03490333236437" lon="2.177873698686293"><ele>325.0</ele><time>2026-04-05T08:50:54.956Z</time></trkpt><trkpt lat="43.0349322169274" lon="2.17796978588907"><ele>325.5</ele><time>2026-04-05T08:50:55.956Z</time></trkpt><trkpt lat="43.03492638642058" lon="2.1780581963917"><ele>326.0</ele><time>2026-04-05T08:50:57.956Z</time></trkpt><trkpt lat="43.03498291687141" lon="2.178230687899378"><ele>326.5</ele><time>2026-04-05T08:50:59.956Z</time></trkpt><trkpt lat="43.0350109858808" lon="2.1783372333691053"><ele>327.0</ele><time>2026-04-05T08:51:00.956Z</time></trkpt><trkpt lat="43.03504337801909" lon="2.1784654020580425"><ele>332.0</ele><time>2026-04-05T08:51:04.956Z</time></trkpt><trkpt lat="43.03509650110942" lon="2.178550620224157"><ele>337.0</ele><time>2026-04-05T08:51:05.956Z</time></trkpt><trkpt lat="43.03515273769033" lon="2.178598334424428"><ele>342.0</ele><time>2026-04-05T08:51:06.956Z</time></trkpt><trkpt lat="43.03525366283187" lon="2.178640316075104"><ele>347.0</ele><time>2026-04-05T08:51:08.956Z</time></trkpt><trkpt lat="43.035316640375136" lon="2.1785987556362185"><ele>352.0</ele><time>2026-04-05T08:51:09.956Z</time></trkpt><trkpt lat="43.035390168787295" lon="2.178660374688535"><ele>357.0</ele><time>2026-04-05T08:51:11.956Z</time></trkpt><trkpt lat="43.035398400055264" lon="2.178781611676552"><ele>357.0</ele><time>2026-04-05T08:51:12.956Z</time></trkpt><trkpt lat="43.03539734436379" lon="2.178872661773766"><ele>357.0</ele><time>2026-04-05T08:51:13.956Z</time></trkpt><trkpt lat="43.03549682406546" lon="2.1789648285729677"><ele>357.0</ele><time>2026-04-05T08:51:15.956Z</time></trkpt><trkpt lat="43.03555727033545" lon="2.179011996081674"><ele>357.0</ele><time>2026-04-05T08:51:16.956Z</time></trkpt><trkpt lat="43.03565395137347" lon="2.1791037791522068"><ele>357.0</ele><time>2026-04-05T08:51:18.956Z</time></trkpt><trkpt lat="43.03572001849081" lon="2.179140329193246"><ele>357.0</ele><time>2026-04-05T08:51:20.956Z</time></trkpt><trkpt lat="43.035796865085935" lon="2.1792265600066854"><ele>357.6666666666667</ele><time>2026-04-05T08:51:22.956Z</time></trkpt><trkpt lat="43.03585588471259" lon="2.1792721068540986"><ele>358.3333333333333</ele><time>2026-04-05T08:51:23.956Z</time></trkpt><trkpt lat="43.035870921902415" lon="2.179405128102186"><ele>359.0</ele><time>2026-04-05T08:51:25.957Z</time></trkpt><trkpt lat="43.035859869695415" lon="2.179509879243514"><ele>359.66666666666663</ele><time>2026-04-05T08:51:26.957Z</time></trkpt><trkpt lat="43.035873270760355" lon="2.1796356961002763"><ele>360.3333333333333</ele><time>2026-04-05T08:51:28.957Z</time></trkpt><trkpt lat="43.03587294193024" lon="2.179758085374193"><ele>361.0</ele><time>2026-04-05T08:51:30.957Z</time></trkpt><trkpt lat="43.03583281350301" lon="2.179892240493435"><ele>361.0</ele><time>2026-04-05T08:51:32.957Z</time></trkpt><trkpt lat="43.03582094411014" lon="2.180032241838493"><ele>361.0</ele><time>2026-04-05T08:51:34.957Z</time></trkpt><trkpt lat="43.03583879912056" lon="2.180185010003669"><ele>361.0</ele><time>2026-04-05T08:51:36.957Z</time></trkpt><trkpt lat="43.03590879168481" lon="2.180317434608908"><ele>361.0</ele><time>2026-04-05T08:51:38.957Z</time></trkpt><trkpt lat="43.0359720193923" lon="2.18038455245104"><ele>361.0</ele><time>2026-04-05T08:51:41.957Z</time></trkpt><trkpt lat="43.03602685711581" lon="2.180437813361922"><ele>361.0</ele><time>2026-04-05T08:51:47.957Z</time></trkpt><trkpt lat="43.036099173466376" lon="2.1805109303210237"><ele>361.0</ele><time>2026-04-05T08:51:49.957Z</time></trkpt><trkpt lat="43.03617207974429" lon="2.1805964486248857"><ele>361.0</ele><time>2026-04-05T08:51:51.957Z</time></trkpt><trkpt lat="43.036229281196384" lon="2.180653612385567"><ele>361.0</ele><time>2026-04-05T08:51:53.957Z</time></trkpt><trkpt lat="43.03632470067581" lon="2.180758324685586"><ele>361.0</ele><time>2026-04-05T08:51:55.954Z</time></trkpt><trkpt lat="43.03641707435265" lon="2.180881342720457"><ele>360.8333333333333</ele><time>2026-04-05T08:51:57.953Z</time></trkpt><trkpt lat="43.03646553585924" lon="2.180942785361356"><ele>360.66666666666663</ele><time>2026-04-05T08:51:58.954Z</time></trkpt><trkpt lat="43.036510381836806" lon="2.1810057643328458"><ele>360.5</ele><time>2026-04-05T08:51:59.954Z</time></trkpt><trkpt lat="43.036577604718566" lon="2.181132861539835"><ele>360.3333333333333</ele><time>2026-04-05T08:52:01.953Z</time></trkpt><trkpt lat="43.03661731827894" lon="2.1812058034800983"><ele>360.1666666666667</ele><time>2026-04-05T08:52:02.953Z</time></trkpt><trkpt lat="43.036645136448605" lon="2.1813260908098924"><ele>360.0</ele><time>2026-04-05T08:52:04.953Z</time></trkpt><trkpt lat="43.036667355391636" lon="2.1814162117530573"><ele>360.0</ele><time>2026-04-05T08:52:05.953Z</time></trkpt><trkpt lat="43.0367069454248" lon="2.1815048683029503"><ele>360.0</ele><time>2026-04-05T08:52:06.953Z</time></trkpt><trkpt lat="43.036742981986215" lon="2.1815758457218317"><ele>360.0</ele><time>2026-04-05T08:52:07.953Z</time></trkpt><trkpt lat="43.036787982030184" lon="2.1817171595624507"><ele>360.0</ele><time>2026-04-05T08:52:09.953Z</time></trkpt><trkpt lat="43.0368515454811" lon="2.18189908451252"><ele>360.0</ele><time>2026-04-05T08:52:11.953Z</time></trkpt><trkpt lat="43.03688409473351" lon="2.1819917100672974"><ele>358.0</ele><time>2026-04-05T08:52:12.953Z</time></trkpt><trkpt lat="43.036905414892175" lon="2.1821318843130246"><ele>356.0</ele><time>2026-04-05T08:52:14.953Z</time></trkpt><trkpt lat="43.03698391074434" lon="2.182251577177565"><ele>354.0</ele><time>2026-04-05T08:52:16.953Z</time></trkpt><trkpt lat="43.03707628230909" lon="2.182332230139901"><ele>352.0</ele><time>2026-04-05T08:52:18.953Z</time></trkpt><trkpt lat="43.037136636655134" lon="2.1823875796997414"><ele>350.0</ele><time>2026-04-05T08:52:20.953Z</time></trkpt><trkpt lat="43.03712254553986" lon="2.1825752889768997"><ele>347.33333333333337</ele><time>2026-04-05T08:52:23.953Z</time></trkpt><trkpt lat="43.037124683301684" lon="2.1826718009742954"><ele>344.6666666666667</ele><time>2026-04-05T08:52:24.953Z</time></trkpt><trkpt lat="43.037147611371125" lon="2.182774062636177"><ele>342.0</ele><time>2026-04-05T08:52:25.953Z</time></trkpt><trkpt lat="43.0371736314554" lon="2.182862448129897"><ele>339.3333333333333</ele><time>2026-04-05T08:52:26.953Z</time></trkpt><trkpt lat="43.03720522794592" lon="2.1829456391922286"><ele>336.66666666666663</ele><time>2026-04-05T08:52:27.953Z</time></trkpt><trkpt lat="43.03727009946699" lon="2.1830579566698782"><ele>334.0</ele><time>2026-04-05T08:52:29.953Z</time></trkpt><trkpt lat="43.03730157305822" lon="2.183143352062215"><ele>331.0</ele><time>2026-04-05T08:52:30.953Z</time></trkpt><trkpt lat="43.03733530838769" lon="2.1832901032771432"><ele>328.0</ele><time>2026-04-05T08:52:33.953Z</time></trkpt><trkpt lat="43.037339932591046" lon="2.1834128922870724"><ele>325.0</ele><time>2026-04-05T08:52:34.953Z</time></trkpt><trkpt lat="43.037365515429684" lon="2.1835551962667856"><ele>322.0</ele><time>2026-04-05T08:52:35.953Z</time></trkpt><trkpt lat="43.03738562010591" lon="2.183659650479268"><ele>319.0</ele><time>2026-04-05T08:52:36.953Z</time></trkpt><trkpt lat="43.037400666604746" lon="2.183800853700296"><ele>319.0</ele><time>2026-04-05T08:52:38.953Z</time></trkpt><trkpt lat="43.03738848736825" lon="2.183888769918611"><ele>319.0</ele><time>2026-04-05T08:52:39.954Z</time></trkpt><trkpt lat="43.03739947170674" lon="2.1839869313905163"><ele>319.0</ele><time>2026-04-05T08:52:40.954Z</time></trkpt><trkpt lat="43.037440389305374" lon="2.1840861162528435"><ele>319.0</ele><time>2026-04-05T08:52:41.954Z</time></trkpt><trkpt lat="43.03746854187446" lon="2.1842076098227188"><ele>319.0</ele><time>2026-04-05T08:52:42.954Z</time></trkpt><trkpt lat="43.03747245016154" lon="2.184300087829837"><ele>319.0</ele><time>2026-04-05T08:52:43.954Z</time></trkpt><trkpt lat="43.03750841899676" lon="2.18446071870642"><ele>317.0</ele><time>2026-04-05T08:52:45.954Z</time></trkpt><trkpt lat="43.03753097920655" lon="2.1845864285137004"><ele>315.0</ele><time>2026-04-05T08:52:47.954Z</time></trkpt><trkpt lat="43.037493520735936" lon="2.1847163809153964"><ele>313.0</ele><time>2026-04-05T08:52:49.954Z</time></trkpt><trkpt lat="43.03746801558405" lon="2.1848108102384014"><ele>311.0</ele><time>2026-04-05T08:52:51.954Z</time></trkpt><trkpt lat="43.03749786216111" lon="2.1848906915920123"><ele>309.0</ele><time>2026-04-05T08:52:53.954Z</time></trkpt><trkpt lat="43.03752799357694" lon="2.1849934554041694"><ele>307.0</ele><time>2026-04-05T08:52:55.954Z</time></trkpt><trkpt lat="43.03756922774913" lon="2.1851079491856304"><ele>313.0</ele><time>2026-04-05T08:52:57.954Z</time></trkpt><trkpt lat="43.037535295616074" lon="2.185203423091172"><ele>319.0</ele><time>2026-04-05T08:53:01.954Z</time></trkpt><trkpt lat="43.03753221326945" lon="2.1853688657167174"><ele>325.0</ele><time>2026-04-05T08:53:03.954Z</time></trkpt><trkpt lat="43.037484530261814" lon="2.1854936228159048"><ele>331.0</ele><time>2026-04-05T08:53:05.954Z</time></trkpt><trkpt lat="43.03750913828149" lon="2.185627162203099"><ele>337.0</ele><time>2026-04-05T08:53:07.954Z</time></trkpt><trkpt lat="43.037495116997405" lon="2.1857711165435387"><ele>338.6</ele><time>2026-04-05T08:53:10.954Z</time></trkpt><trkpt lat="43.037470857217535" lon="2.1858795853941455"><ele>340.20000000000005</ele><time>2026-04-05T08:53:12.954Z</time></trkpt><trkpt lat="43.03744844566481" lon="2.1860075609084304"><ele>341.8</ele><time>2026-04-05T08:53:14.954Z</time></trkpt><trkpt lat="43.03744916007477" lon="2.1861813552800826"><ele>343.4</ele><time>2026-04-05T08:53:16.954Z</time></trkpt><trkpt lat="43.037460607977906" lon="2.186271719285773"><ele>345.0</ele><time>2026-04-05T08:53:17.954Z</time></trkpt><trkpt lat="43.03747567041165" lon="2.186417645683623"><ele>345.0</ele><time>2026-04-05T08:53:19.954Z</time></trkpt><trkpt lat="43.03748655870068" lon="2.1865085577517185"><ele>345.0</ele><time>2026-04-05T08:53:21.954Z</time></trkpt><trkpt lat="43.03746612636496" lon="2.1866105740844315"><ele>345.0</ele><time>2026-04-05T08:53:23.954Z</time></trkpt><trkpt lat="43.0374563641343" lon="2.1867325497541086"><ele>345.0</ele><time>2026-04-05T08:53:25.954Z</time></trkpt><trkpt lat="43.03743416648897" lon="2.186881537659377"><ele>345.0</ele><time>2026-04-05T08:53:27.954Z</time></trkpt><trkpt lat="43.03741291589534" lon="2.1870241260807943"><ele>342.6666666666667</ele><time>2026-04-05T08:53:29.954Z</time></trkpt><trkpt lat="43.03738396735271" lon="2.187172512394138"><ele>340.3333333333333</ele><time>2026-04-05T08:53:31.954Z</time></trkpt><trkpt lat="43.03736113721393" lon="2.187256793010263"><ele>338.0</ele><time>2026-04-05T08:53:32.954Z</time></trkpt><trkpt lat="43.03734345448121" lon="2.187343053289548"><ele>335.66666666666663</ele><time>2026-04-05T08:53:33.954Z</time></trkpt><trkpt lat="43.0373273320877" lon="2.1874350040430133"><ele>333.3333333333333</ele><time>2026-04-05T08:53:34.954Z</time></trkpt><trkpt lat="43.037332851568145" lon="2.187538267471913"><ele>331.0</ele><time>2026-04-05T08:53:36.954Z</time></trkpt><trkpt lat="43.03731127117964" lon="2.187630686189965"><ele>331.0</ele><time>2026-04-05T08:53:47.954Z</time></trkpt><trkpt lat="43.03725255951852" lon="2.1876974482499576"><ele>331.0</ele><time>2026-04-05T08:53:49.954Z</time></trkpt><trkpt lat="43.03724307132684" lon="2.1878191417513557"><ele>331.0</ele><time>2026-04-05T08:53:51.954Z</time></trkpt><trkpt lat="43.0372672448734" lon="2.187995732349427"><ele>331.0</ele><time>2026-04-05T08:53:53.954Z</time></trkpt><trkpt lat="43.037279217208116" lon="2.188081335161415"><ele>331.0</ele><time>2026-04-05T08:53:54.954Z</time></trkpt><trkpt lat="43.03730359768976" lon="2.1882269043174065"><ele>332.0</ele><time>2026-04-05T08:53:56.954Z</time></trkpt><trkpt lat="43.03730667563868" lon="2.1883376070112606"><ele>333.0</ele><time>2026-04-05T08:53:58.954Z</time></trkpt><trkpt lat="43.037328391332814" lon="2.1884199802436815"><ele>334.0</ele><time>2026-04-05T08:54:00.954Z</time></trkpt><trkpt lat="43.037310763087" lon="2.188516153725762"><ele>335.0</ele><time>2026-04-05T08:54:02.951Z</time></trkpt><trkpt lat="43.03731532370629" lon="2.1886136175636777"><ele>336.0</ele><time>2026-04-05T08:54:04.95Z</time></trkpt><trkpt lat="43.037343510721726" lon="2.1886972355895704"><ele>337.0</ele><time>2026-04-05T08:54:06.95Z</time></trkpt><trkpt lat="43.03731184231459" lon="2.188819597559621"><ele>337.0</ele><time>2026-04-05T08:54:08.95Z</time></trkpt><trkpt lat="43.03730627757062" lon="2.1889090427841142"><ele>337.0</ele><time>2026-04-05T08:54:09.95Z</time></trkpt><trkpt lat="43.03728689697287" lon="2.1890013939671995"><ele>337.0</ele><time>2026-04-05T08:54:10.95Z</time></trkpt><trkpt lat="43.037267581292255" lon="2.1890908713827573"><ele>337.0</ele><time>2026-04-05T08:54:11.95Z</time></trkpt><trkpt lat="43.037243065752875" lon="2.189233310469204"><ele>337.0</ele><time>2026-04-05T08:54:13.95Z</time></trkpt><trkpt lat="43.0371993766505" lon="2.1893752986837383"><ele>337.0</ele><time>2026-04-05T08:54:15.95Z</time></trkpt><trkpt lat="43.037179978536095" lon="2.189457577317403"><ele>339.20000000000005</ele><time>2026-04-05T08:54:16.95Z</time></trkpt><trkpt lat="43.03715586383084" lon="2.1895425265035704"><ele>341.4</ele><time>2026-04-05T08:54:17.95Z</time></trkpt><trkpt lat="43.03711439399106" lon="2.1896878189721485"><ele>343.6</ele><time>2026-04-05T08:54:19.95Z</time></trkpt><trkpt lat="43.037077574103414" lon="2.1897797317789776"><ele>345.79999999999995</ele><time>2026-04-05T08:54:21.95Z</time></trkpt><trkpt lat="43.03704997001736" lon="2.189914911848008"><ele>348.0</ele><time>2026-04-05T08:54:23.95Z</time></trkpt><trkpt lat="43.03701028980585" lon="2.1900375035724187"><ele>350.2</ele><time>2026-04-05T08:54:25.95Z</time></trkpt><trkpt lat="43.03700344348091" lon="2.190169311487221"><ele>352.4</ele><time>2026-04-05T08:54:27.95Z</time></trkpt><trkpt lat="43.03699017731066" lon="2.1902713023813263"><ele>354.59999999999997</ele><time>2026-04-05T08:54:29.95Z</time></trkpt><trkpt lat="43.03701313266951" lon="2.190409900703641"><ele>356.79999999999995</ele><time>2026-04-05T08:54:32.95Z</time></trkpt><trkpt lat="43.03706372300783" lon="2.1905059733748375"><ele>359.0</ele><time>2026-04-05T08:54:34.95Z</time></trkpt><trkpt lat="43.03713783148321" lon="2.1906447061626833"><ele>358.6666666666667</ele><time>2026-04-05T08:54:36.95Z</time></trkpt><trkpt lat="43.03717546126806" lon="2.1908127539357483"><ele>358.33333333333337</ele><time>2026-04-05T08:54:38.95Z</time></trkpt><trkpt lat="43.03719724146584" lon="2.1909119611205634"><ele>358.0</ele><time>2026-04-05T08:54:39.95Z</time></trkpt><trkpt lat="43.0372255322485" lon="2.191004324276893"><ele>357.6666666666667</ele><time>2026-04-05T08:54:40.95Z</time></trkpt><trkpt lat="43.03725942200266" lon="2.1910925875818985"><ele>357.3333333333333</ele><time>2026-04-05T08:54:41.95Z</time></trkpt><trkpt lat="43.03728836679618" lon="2.191176558551231"><ele>357.0</ele><time>2026-04-05T08:54:42.95Z</time></trkpt><trkpt lat="43.03730273332719" lon="2.191271792217926"><ele>357.0</ele><time>2026-04-05T08:54:43.95Z</time></trkpt><trkpt lat="43.037319739115674" lon="2.1913860957605116"><ele>357.0</ele><time>2026-04-05T08:54:44.95Z</time></trkpt><trkpt lat="43.03732860219866" lon="2.1915137881343707"><ele>357.0</ele><time>2026-04-05T08:54:45.95Z</time></trkpt><trkpt lat="43.03733762254046" lon="2.1916277534991284"><ele>357.0</ele><time>2026-04-05T08:54:46.95Z</time></trkpt><trkpt lat="43.03735697931268" lon="2.19178160038121"><ele>357.0</ele><time>2026-04-05T08:54:48.95Z</time></trkpt><trkpt lat="43.03735509305357" lon="2.19190350260873"><ele>357.3333333333333</ele><time>2026-04-05T08:54:50.95Z</time></trkpt><trkpt lat="43.03734523120511" lon="2.1920530118929498"><ele>357.6666666666667</ele><time>2026-04-05T08:54:52.951Z</time></trkpt><trkpt lat="43.037342054505956" lon="2.192195674488251"><ele>358.0</ele><time>2026-04-05T08:54:54.951Z</time></trkpt><trkpt lat="43.03736422602869" lon="2.1922811637889494"><ele>358.33333333333337</ele><time>2026-04-05T08:54:56.951Z</time></trkpt><trkpt lat="43.037332153362065" lon="2.192370317772591"><ele>358.6666666666667</ele><time>2026-04-05T08:54:59.951Z</time></trkpt><trkpt lat="43.037282606477696" lon="2.1924687250173114"><ele>359.0</ele><time>2026-04-05T08:55:01.951Z</time></trkpt><trkpt lat="43.037246965224035" lon="2.192552891602177"><ele>359.0</ele><time>2026-04-05T08:55:03.951Z</time></trkpt><trkpt lat="43.03723176621234" lon="2.192668401514708"><ele>359.0</ele><time>2026-04-05T08:55:07.951Z</time></trkpt><trkpt lat="43.03722476809104" lon="2.1927598437512614"><ele>359.0</ele><time>2026-04-05T08:55:08.951Z</time></trkpt><trkpt lat="43.03721130452262" lon="2.1928487183787646"><ele>359.0</ele><time>2026-04-05T08:55:09.951Z</time></trkpt><trkpt lat="43.03722977464007" lon="2.192987944795694"><ele>359.0</ele><time>2026-04-05T08:55:11.951Z</time></trkpt><trkpt lat="43.037221043041335" lon="2.1931626911213846"><ele>359.5</ele><time>2026-04-05T08:55:13.951Z</time></trkpt><trkpt lat="43.037219447214035" lon="2.1932903097318057"><ele>360.0</ele><time>2026-04-05T08:55:14.951Z</time></trkpt><trkpt lat="43.03723376141984" lon="2.193405412554225"><ele>360.5</ele><time>2026-04-05T08:55:15.951Z</time></trkpt><trkpt lat="43.03725393674682" lon="2.1935136530542074"><ele>361.0</ele><time>2026-04-05T08:55:16.951Z</time></trkpt><trkpt lat="43.03727880766378" lon="2.193617712235328"><ele>361.5</ele><time>2026-04-05T08:55:17.951Z</time></trkpt><trkpt lat="43.03729790875574" lon="2.1937201072496366"><ele>362.0</ele><time>2026-04-05T08:55:18.951Z</time></trkpt><trkpt lat="43.0373106750184" lon="2.1938209419301984"><ele>362.0</ele><time>2026-04-05T08:55:19.951Z</time></trkpt><trkpt lat="43.03726707820223" lon="2.1939358699397324"><ele>362.0</ele><time>2026-04-05T08:55:21.951Z</time></trkpt><trkpt lat="43.03720827086922" lon="2.194124918729674"><ele>362.0</ele><time>2026-04-05T08:55:23.951Z</time></trkpt><trkpt lat="43.037184868469254" lon="2.1942543541714894"><ele>362.0</ele><time>2026-04-05T08:55:24.951Z</time></trkpt><trkpt lat="43.037203610991035" lon="2.19438022842943"><ele>362.0</ele><time>2026-04-05T08:55:26.951Z</time></trkpt><trkpt lat="43.03720560640618" lon="2.194480010075126"><ele>362.6</ele><time>2026-04-05T08:55:28.951Z</time></trkpt><trkpt lat="43.037200474103535" lon="2.1946767597503443"><ele>363.20000000000005</ele><time>2026-04-05T08:55:30.951Z</time></trkpt><trkpt lat="43.03720467477669" lon="2.194762790546113"><ele>363.8</ele><time>2026-04-05T08:55:31.951Z</time></trkpt><trkpt lat="43.03724209346768" lon="2.194918055743676"><ele>364.4</ele><time>2026-04-05T08:55:33.951Z</time></trkpt><trkpt lat="43.03727542759619" lon="2.1950030035621784"><ele>365.0</ele><time>2026-04-05T08:55:34.951Z</time></trkpt><trkpt lat="43.0372642368086" lon="2.1951250507377438"><ele>365.4</ele><time>2026-04-05T08:55:36.951Z</time></trkpt><trkpt lat="43.037275113032656" lon="2.1952489342363863"><ele>365.8</ele><time>2026-04-05T08:55:37.951Z</time></trkpt><trkpt lat="43.03728149372568" lon="2.195365425237393"><ele>366.20000000000005</ele><time>2026-04-05T08:55:38.951Z</time></trkpt><trkpt lat="43.037282908451516" lon="2.1954577604841994"><ele>366.6</ele><time>2026-04-05T08:55:39.951Z</time></trkpt><trkpt lat="43.037332280367444" lon="2.1956411563549882"><ele>367.0</ele><time>2026-04-05T08:55:41.951Z</time></trkpt><trkpt lat="43.03737468065749" lon="2.1957904364022496"><ele>367.0</ele><time>2026-04-05T08:55:42.951Z</time></trkpt><trkpt lat="43.03740151323079" lon="2.1959214309600434"><ele>367.0</ele><time>2026-04-05T08:55:43.951Z</time></trkpt><trkpt lat="43.03741400389266" lon="2.1960362372204725"><ele>367.0</ele><time>2026-04-05T08:55:44.951Z</time></trkpt><trkpt lat="43.03744077777956" lon="2.196175667083747"><ele>367.0</ele><time>2026-04-05T08:55:45.951Z</time></trkpt><trkpt lat="43.03746669984925" lon="2.196294754470337"><ele>367.0</ele><time>2026-04-05T08:55:46.951Z</time></trkpt><trkpt lat="43.03749764863854" lon="2.1963939641837564"><ele>368.8333333333333</ele><time>2026-04-05T08:55:47.951Z</time></trkpt><trkpt lat="43.037531837873" lon="2.196486631055233"><ele>370.66666666666663</ele><time>2026-04-05T08:55:48.951Z</time></trkpt><trkpt lat="43.03755614882365" lon="2.1965791145026263"><ele>372.5</ele><time>2026-04-05T08:55:49.951Z</time></trkpt><trkpt lat="43.03757034169513" lon="2.1966885504310514"><ele>374.3333333333333</ele><time>2026-04-05T08:55:50.951Z</time></trkpt><trkpt lat="43.03760116717008" lon="2.1967847603587085"><ele>376.1666666666667</ele><time>2026-04-05T08:55:51.951Z</time></trkpt><trkpt lat="43.03762644950739" lon="2.1968945383837575"><ele>378.0</ele><time>2026-04-05T08:55:52.951Z</time></trkpt><trkpt lat="43.03764589996146" lon="2.196979364782429"><ele>378.0</ele><time>2026-04-05T08:55:53.951Z</time></trkpt><trkpt lat="43.03767729773057" lon="2.1970898914918466"><ele>378.0</ele><time>2026-04-05T08:55:55.951Z</time></trkpt><trkpt lat="43.03771499733862" lon="2.1972535461673877"><ele>378.0</ele><time>2026-04-05T08:55:57.951Z</time></trkpt><trkpt lat="43.0377320957072" lon="2.1973688231425745"><ele>378.0</ele><time>2026-04-05T08:55:58.951Z</time></trkpt><trkpt lat="43.03774770780264" lon="2.1974827073495304"><ele>378.0</ele><time>2026-04-05T08:55:59.951Z</time></trkpt><trkpt lat="43.03774982616878" lon="2.1975929041748747"><ele>377.75</ele><time>2026-04-05T08:56:00.951Z</time></trkpt><trkpt lat="43.03776513995898" lon="2.1977235643712185"><ele>377.5</ele><time>2026-04-05T08:56:01.951Z</time></trkpt><trkpt lat="43.03777412342382" lon="2.1978718677675317"><ele>377.25</ele><time>2026-04-05T08:56:02.951Z</time></trkpt><trkpt lat="43.037790776769555" lon="2.1980744819251226"><ele>377.0</ele><time>2026-04-05T08:56:03.951Z</time></trkpt><trkpt lat="43.03784700390618" lon="2.1982329917791987"><ele>376.33333333333337</ele><time>2026-04-05T08:56:04.951Z</time></trkpt><trkpt lat="43.03789518915102" lon="2.198350632507775"><ele>375.6666666666667</ele><time>2026-04-05T08:56:05.951Z</time></trkpt><trkpt lat="43.03795301142186" lon="2.198433153236808"><ele>375.0</ele><time>2026-04-05T08:56:06.951Z</time></trkpt><trkpt lat="43.0378757745787" lon="2.198334490379868"><ele>374.3333333333333</ele><time>2026-04-05T08:56:07.947Z</time></trkpt><trkpt lat="43.03786296936705" lon="2.1984352048142455"><ele>373.66666666666663</ele><time>2026-04-05T08:56:09.947Z</time></trkpt><trkpt lat="43.037843098981355" lon="2.198519793564088"><ele>373.0</ele><time>2026-04-05T08:56:11.947Z</time></trkpt><trkpt lat="43.03789408738478" lon="2.1987106771839806"><ele>373.0</ele><time>2026-04-05T08:56:13.947Z</time></trkpt><trkpt lat="43.037943365352035" lon="2.198814089786996"><ele>373.0</ele><time>2026-04-05T08:56:14.946Z</time></trkpt><trkpt lat="43.03799743632782" lon="2.198961549599967"><ele>373.0</ele><time>2026-04-05T08:56:15.947Z</time></trkpt><trkpt lat="43.03803803587746" lon="2.1990754695650554"><ele>373.0</ele><time>2026-04-05T08:56:16.947Z</time></trkpt><trkpt lat="43.038070044440985" lon="2.199172868077878"><ele>373.0</ele><time>2026-04-05T08:56:17.947Z</time></trkpt><trkpt lat="43.03811037076248" lon="2.1992665278328323"><ele>371.0</ele><time>2026-04-05T08:56:19.947Z</time></trkpt><trkpt lat="43.03814265642365" lon="2.1993546062971037"><ele>369.0</ele><time>2026-04-05T08:56:20.947Z</time></trkpt><trkpt lat="43.038165157412216" lon="2.1994509823584862"><ele>367.0</ele><time>2026-04-05T08:56:21.947Z</time></trkpt><trkpt lat="43.03817299554066" lon="2.1996193807777447"><ele>365.0</ele><time>2026-04-05T08:56:23.947Z</time></trkpt><trkpt lat="43.038224778973884" lon="2.199710535590816"><ele>363.0</ele><time>2026-04-05T08:56:24.947Z</time></trkpt><trkpt lat="43.03825710350517" lon="2.199795448802844"><ele>361.0</ele><time>2026-04-05T08:56:25.947Z</time></trkpt><trkpt lat="43.03826421647364" lon="2.199902116875305"><ele>359.16666666666663</ele><time>2026-04-05T08:56:26.947Z</time></trkpt><trkpt lat="43.03828927747797" lon="2.2000067848033718"><ele>357.3333333333333</ele><time>2026-04-05T08:56:27.947Z</time></trkpt><trkpt lat="43.03833140888682" lon="2.2001145757544176"><ele>355.5</ele><time>2026-04-05T08:56:28.947Z</time></trkpt><trkpt lat="43.03838123036248" lon="2.20020869104632"><ele>353.6666666666667</ele><time>2026-04-05T08:56:29.947Z</time></trkpt><trkpt lat="43.03839819362623" lon="2.2002944763268744"><ele>351.83333333333337</ele><time>2026-04-05T08:56:31.947Z</time></trkpt><trkpt lat="43.03847649558899" lon="2.2003825271958113"><ele>350.0</ele><time>2026-04-05T08:56:36.947Z</time></trkpt><trkpt lat="43.03852047401831" lon="2.2005176300598377"><ele>354.6</ele><time>2026-04-05T08:56:39.947Z</time></trkpt><trkpt lat="43.03855788716433" lon="2.2006279737277707"><ele>359.2</ele><time>2026-04-05T08:56:40.947Z</time></trkpt><trkpt lat="43.038578995749894" lon="2.2007119950655567"><ele>363.79999999999995</ele><time>2026-04-05T08:56:41.947Z</time></trkpt><trkpt lat="43.038600845367604" lon="2.200823236500169"><ele>368.4</ele><time>2026-04-05T08:56:43.947Z</time></trkpt><trkpt lat="43.03866692078809" lon="2.200999545103448"><ele>373.0</ele><time>2026-04-05T08:56:45.947Z</time></trkpt><trkpt lat="43.03872835225838" lon="2.201060848592905"><ele>373.0</ele><time>2026-04-05T08:56:47.947Z</time></trkpt><trkpt lat="43.03879724712788" lon="2.2012385780404644"><ele>373.0</ele><time>2026-04-05T08:56:50.947Z</time></trkpt><trkpt lat="43.0388405234661" lon="2.2013660999631037"><ele>373.0</ele><time>2026-04-05T08:56:51.947Z</time></trkpt><trkpt lat="43.038877291079515" lon="2.201487985971245"><ele>373.0</ele><time>2026-04-05T08:56:52.947Z</time></trkpt><trkpt lat="43.03891656993596" lon="2.201587336502622"><ele>373.0</ele><time>2026-04-05T08:56:53.947Z</time></trkpt><trkpt lat="43.03894487413815" lon="2.2016776887602822"><ele>371.4</ele><time>2026-04-05T08:56:54.947Z</time></trkpt><trkpt lat="43.038959937802346" lon="2.2018505488626525"><ele>369.79999999999995</ele><time>2026-04-05T08:56:56.947Z</time></trkpt><trkpt lat="43.03896885971417" lon="2.20196495592535"><ele>368.2</ele><time>2026-04-05T08:56:57.947Z</time></trkpt><trkpt lat="43.03899765236245" lon="2.2020661685126184"><ele>366.6</ele><time>2026-04-05T08:56:58.947Z</time></trkpt><trkpt lat="43.039023505316685" lon="2.202149459855302"><ele>365.0</ele><time>2026-04-05T08:56:59.947Z</time></trkpt><trkpt lat="43.039075164200675" lon="2.202287820262417"><ele>366.2</ele><time>2026-04-05T08:57:01.947Z</time></trkpt><trkpt lat="43.039087253316836" lon="2.2023734472970338"><ele>367.4</ele><time>2026-04-05T08:57:02.947Z</time></trkpt><trkpt lat="43.03909534817166" lon="2.2024909513448154"><ele>368.6</ele><time>2026-04-05T08:57:03.947Z</time></trkpt><trkpt lat="43.039107804056776" lon="2.20265012453399"><ele>369.8</ele><time>2026-04-05T08:57:05.947Z</time></trkpt><trkpt lat="43.03912715544616" lon="2.2027442510686726"><ele>371.0</ele><time>2026-04-05T08:57:06.947Z</time></trkpt><trkpt lat="43.03917438748941" lon="2.2029092858073027"><ele>371.0</ele><time>2026-04-05T08:57:08.947Z</time></trkpt><trkpt lat="43.039195223800164" lon="2.2030327354595034"><ele>371.0</ele><time>2026-04-05T08:57:09.947Z</time></trkpt><trkpt lat="43.03921849857989" lon="2.203132326639791"><ele>371.0</ele><time>2026-04-05T08:57:10.947Z</time></trkpt><trkpt lat="43.03923390195227" lon="2.203227986413501"><ele>371.0</ele><time>2026-04-05T08:57:11.947Z</time></trkpt><trkpt lat="43.03923306003521" lon="2.2033142688761522"><ele>371.0</ele><time>2026-04-05T08:57:12.947Z</time></trkpt><trkpt lat="43.03922972558474" lon="2.2034560970718227"><ele>371.0</ele><time>2026-04-05T08:57:13.947Z</time></trkpt><trkpt lat="43.03924158133463" lon="2.20360706572486"><ele>371.0</ele><time>2026-04-05T08:57:14.947Z</time></trkpt><trkpt lat="43.039262751772824" lon="2.203738379570586"><ele>371.0</ele><time>2026-04-05T08:57:15.947Z</time></trkpt><trkpt lat="43.03927477196283" lon="2.2038587556510993"><ele>371.0</ele><time>2026-04-05T08:57:16.947Z</time></trkpt><trkpt lat="43.039279090751144" lon="2.2039932490815564"><ele>371.0</ele><time>2026-04-05T08:57:17.947Z</time></trkpt><trkpt lat="43.03927090974412" lon="2.204086175396731"><ele>371.0</ele><time>2026-04-05T08:57:18.947Z</time></trkpt><trkpt lat="43.03927284438238" lon="2.2041732940280143"><ele>371.0</ele><time>2026-04-05T08:57:19.947Z</time></trkpt><trkpt lat="43.03929148118553" lon="2.204274079610649"><ele>370.33333333333337</ele><time>2026-04-05T08:57:20.947Z</time></trkpt><trkpt lat="43.03935899028994" lon="2.204400244061416"><ele>369.6666666666667</ele><time>2026-04-05T08:57:22.947Z</time></trkpt><trkpt lat="43.039430571154206" lon="2.2044471926150098"><ele>369.0</ele><time>2026-04-05T08:57:23.947Z</time></trkpt><trkpt lat="43.039486935868744" lon="2.2044922133438805"><ele>368.3333333333333</ele><time>2026-04-05T08:57:24.947Z</time></trkpt><trkpt lat="43.03954006418111" lon="2.204545421515756"><ele>367.66666666666663</ele><time>2026-04-05T08:57:25.947Z</time></trkpt><trkpt lat="43.039595523292576" lon="2.204592609664176"><ele>367.0</ele><time>2026-04-05T08:57:26.947Z</time></trkpt><trkpt lat="43.03966362946093" lon="2.204710579775605"><ele>367.0</ele><time>2026-04-05T08:57:29.947Z</time></trkpt><trkpt lat="43.03973927203602" lon="2.204742973309154"><ele>367.0</ele><time>2026-04-05T08:57:30.947Z</time></trkpt><trkpt lat="43.03980802686104" lon="2.204766637983856"><ele>367.0</ele><time>2026-04-05T08:57:31.948Z</time></trkpt><trkpt lat="43.03989381749632" lon="2.2048576580102273"><ele>367.0</ele><time>2026-04-05T08:57:33.948Z</time></trkpt><trkpt lat="43.039970950702546" lon="2.2049324993582733"><ele>367.0</ele><time>2026-04-05T08:57:35.948Z</time></trkpt><trkpt lat="43.04005286852513" lon="2.204901405511438"><ele>367.0</ele><time>2026-04-05T08:57:37.948Z</time></trkpt><trkpt lat="43.04010864534902" lon="2.2049627569559505"><ele>365.40000000000003</ele><time>2026-04-05T08:57:39.948Z</time></trkpt><trkpt lat="43.040151750628716" lon="2.2050329047689985"><ele>363.8</ele><time>2026-04-05T08:57:40.948Z</time></trkpt><trkpt lat="43.040234616042326" lon="2.2051312833541266"><ele>362.2</ele><time>2026-04-05T08:57:41.948Z</time></trkpt><trkpt lat="43.040318497181644" lon="2.205234171595545"><ele>360.6</ele><time>2026-04-05T08:57:42.948Z</time></trkpt><trkpt lat="43.040396229208554" lon="2.2053148776269866"><ele>359.0</ele><time>2026-04-05T08:57:43.948Z</time></trkpt><trkpt lat="43.04047288152581" lon="2.205379370760183"><ele>359.0</ele><time>2026-04-05T08:57:44.948Z</time></trkpt><trkpt lat="43.04053160892588" lon="2.2054666184775606"><ele>359.0</ele><time>2026-04-05T08:57:45.948Z</time></trkpt><trkpt lat="43.04060244726424" lon="2.205560442005591"><ele>359.0</ele><time>2026-04-05T08:57:46.948Z</time></trkpt><trkpt lat="43.04066664909745" lon="2.2056352173710674"><ele>359.0</ele><time>2026-04-05T08:57:47.948Z</time></trkpt><trkpt lat="43.04075081951462" lon="2.2057080475312922"><ele>359.0</ele><time>2026-04-05T08:57:48.948Z</time></trkpt><trkpt lat="43.040828139067884" lon="2.2058059120324307"><ele>355.79999999999995</ele><time>2026-04-05T08:57:49.948Z</time></trkpt><trkpt lat="43.04091241341212" lon="2.2059287573494304"><ele>352.59999999999997</ele><time>2026-04-05T08:57:50.948Z</time></trkpt><trkpt lat="43.04100609045851" lon="2.206043534487994"><ele>349.4</ele><time>2026-04-05T08:57:51.948Z</time></trkpt><trkpt lat="43.04106902701491" lon="2.2061399536140183"><ele>346.2</ele><time>2026-04-05T08:57:52.948Z</time></trkpt><trkpt lat="43.04112196242816" lon="2.2062233815735803"><ele>343.0</ele><time>2026-04-05T08:57:53.948Z</time></trkpt><trkpt lat="43.04117013177111" lon="2.206304945973852"><ele>343.0</ele><time>2026-04-05T08:57:54.948Z</time></trkpt><trkpt lat="43.0412038172673" lon="2.2064043166297465"><ele>343.0</ele><time>2026-04-05T08:57:55.948Z</time></trkpt><trkpt lat="43.04122894616236" lon="2.2065174831106074"><ele>343.0</ele><time>2026-04-05T08:57:56.948Z</time></trkpt><trkpt lat="43.04124100617388" lon="2.206628803487521"><ele>343.0</ele><time>2026-04-05T08:57:57.948Z</time></trkpt><trkpt lat="43.041273577443704" lon="2.2067501460959953"><ele>343.0</ele><time>2026-04-05T08:57:58.948Z</time></trkpt><trkpt lat="43.04133223209348" lon="2.206873327597219"><ele>340.4</ele><time>2026-04-05T08:57:59.948Z</time></trkpt><trkpt lat="43.04139455946128" lon="2.206976040676856"><ele>337.79999999999995</ele><time>2026-04-05T08:58:00.948Z</time></trkpt><trkpt lat="43.04145652587679" lon="2.2070661500427335"><ele>335.2</ele><time>2026-04-05T08:58:01.948Z</time></trkpt><trkpt lat="43.0415059033129" lon="2.207168978832227"><ele>332.6</ele><time>2026-04-05T08:58:02.948Z</time></trkpt><trkpt lat="43.04155811031721" lon="2.2072960538040034"><ele>330.0</ele><time>2026-04-05T08:58:03.948Z</time></trkpt><trkpt lat="43.041615310375285" lon="2.2074227620252582"><ele>331.0</ele><time>2026-04-05T08:58:04.948Z</time></trkpt><trkpt lat="43.04166251493563" lon="2.207570539966932"><ele>332.0</ele><time>2026-04-05T08:58:05.948Z</time></trkpt><trkpt lat="43.041695737457744" lon="2.2077462942373627"><ele>333.0</ele><time>2026-04-05T08:58:06.948Z</time></trkpt><trkpt lat="43.04172717944431" lon="2.2079221906247213"><ele>334.0</ele><time>2026-04-05T08:58:07.948Z</time></trkpt><trkpt lat="43.0417573949885" lon="2.2080512923478106"><ele>334.0</ele><time>2026-04-05T08:58:08.948Z</time></trkpt><trkpt lat="43.04180830187662" lon="2.2081577227508062"><ele>334.0</ele><time>2026-04-05T08:58:09.948Z</time></trkpt><trkpt lat="43.04186695109495" lon="2.2082594388467562"><ele>334.0</ele><time>2026-04-05T08:58:10.948Z</time></trkpt><trkpt lat="43.041924562657194" lon="2.2083656891412007"><ele>334.0</ele><time>2026-04-05T08:58:11.948Z</time></trkpt><trkpt lat="43.04197768674509" lon="2.208460629313234"><ele>334.0</ele><time>2026-04-05T08:58:12.948Z</time></trkpt><trkpt lat="43.04204218536517" lon="2.208535836742236"><ele>333.4</ele><time>2026-04-05T08:58:13.944Z</time></trkpt><trkpt lat="43.04210401926572" lon="2.208605243551331"><ele>332.79999999999995</ele><time>2026-04-05T08:58:14.945Z</time></trkpt><trkpt lat="43.0421779686672" lon="2.208677233186818"><ele>332.20000000000005</ele><time>2026-04-05T08:58:15.945Z</time></trkpt><trkpt lat="43.04225893694549" lon="2.208747763503607"><ele>331.6</ele><time>2026-04-05T08:58:16.944Z</time></trkpt><trkpt lat="43.04234281599895" lon="2.2088256643105524"><ele>331.0</ele><time>2026-04-05T08:58:17.944Z</time></trkpt><trkpt lat="43.04242686744689" lon="2.208904353665706"><ele>330.8</ele><time>2026-04-05T08:58:18.944Z</time></trkpt><trkpt lat="43.042498893171555" lon="2.208974637197949"><ele>330.6</ele><time>2026-04-05T08:58:19.945Z</time></trkpt><trkpt lat="43.042542385409085" lon="2.209048518343753"><ele>330.4</ele><time>2026-04-05T08:58:20.944Z</time></trkpt><trkpt lat="43.042559074963975" lon="2.209133401726084"><ele>330.2</ele><time>2026-04-05T08:58:21.944Z</time></trkpt><trkpt lat="43.04261802538371" lon="2.209285823374146"><ele>330.0</ele><time>2026-04-05T08:58:23.945Z</time></trkpt><trkpt lat="43.042706833175316" lon="2.2093614084590887"><ele>331.0</ele><time>2026-04-05T08:58:24.945Z</time></trkpt><trkpt lat="43.04279756663631" lon="2.2094573607669385"><ele>332.0</ele><time>2026-04-05T08:58:25.944Z</time></trkpt><trkpt lat="43.04287048226823" lon="2.2095667630883202"><ele>333.0</ele><time>2026-04-05T08:58:26.944Z</time></trkpt><trkpt lat="43.042943520979044" lon="2.209692288905778"><ele>334.0</ele><time>2026-04-05T08:58:27.944Z</time></trkpt><trkpt lat="43.04300242121852" lon="2.209821336680259"><ele>331.5</ele><time>2026-04-05T08:58:28.944Z</time></trkpt><trkpt lat="43.043050194738996" lon="2.209964008253609"><ele>329.0</ele><time>2026-04-05T08:58:29.944Z</time></trkpt><trkpt lat="43.04310151118143" lon="2.210113014961766"><ele>326.5</ele><time>2026-04-05T08:58:30.944Z</time></trkpt><trkpt lat="43.04316748974433" lon="2.2102584713650164"><ele>324.0</ele><time>2026-04-05T08:58:31.944Z</time></trkpt><trkpt lat="43.043199209462315" lon="2.2104115406754636"><ele>324.0</ele><time>2026-04-05T08:58:32.944Z</time></trkpt><trkpt lat="43.04326321643978" lon="2.2106015949251874"><ele>324.0</ele><time>2026-04-05T08:58:33.944Z</time></trkpt><trkpt lat="43.0433336843227" lon="2.210778353677234"><ele>324.0</ele><time>2026-04-05T08:58:34.944Z</time></trkpt><trkpt lat="43.043398452551436" lon="2.2109275746622816"><ele>324.0</ele><time>2026-04-05T08:58:35.944Z</time></trkpt><trkpt lat="43.04345137162137" lon="2.2110326937525486"><ele>323.79999999999995</ele><time>2026-04-05T08:58:36.944Z</time></trkpt><trkpt lat="43.043581377302615" lon="2.2111177686393324"><ele>323.59999999999997</ele><time>2026-04-05T08:58:37.944Z</time></trkpt><trkpt lat="43.043692109078634" lon="2.211179408845488"><ele>323.4</ele><time>2026-04-05T08:58:38.944Z</time></trkpt><trkpt lat="43.043756306663624" lon="2.2112708041253155"><ele>323.2</ele><time>2026-04-05T08:58:39.944Z</time></trkpt><trkpt lat="43.04378999824106" lon="2.211379756779402"><ele>323.0</ele><time>2026-04-05T08:58:40.944Z</time></trkpt><trkpt lat="43.04381547032332" lon="2.211503771682221"><ele>323.0</ele><time>2026-04-05T08:58:41.944Z</time></trkpt><trkpt lat="43.0438897847499" lon="2.2116280328546245"><ele>323.0</ele><time>2026-04-05T08:58:42.944Z</time></trkpt><trkpt lat="43.04394080868293" lon="2.211758190209849"><ele>323.0</ele><time>2026-04-05T08:58:43.944Z</time></trkpt><trkpt lat="43.04396040703812" lon="2.211898145587538"><ele>323.0</ele><time>2026-04-05T08:58:44.944Z</time></trkpt><trkpt lat="43.04400428310248" lon="2.212017161406978"><ele>323.0</ele><time>2026-04-05T08:58:45.944Z</time></trkpt><trkpt lat="43.0440874160852" lon="2.2121351843862422"><ele>323.0</ele><time>2026-04-05T08:58:46.944Z</time></trkpt><trkpt lat="43.04417625491528" lon="2.2122396612160844"><ele>323.0</ele><time>2026-04-05T08:58:47.944Z</time></trkpt><trkpt lat="43.044240466765245" lon="2.2123255397576953"><ele>323.0</ele><time>2026-04-05T08:58:48.944Z</time></trkpt><trkpt lat="43.04428068891767" lon="2.2124118399887904"><ele>323.0</ele><time>2026-04-05T08:58:49.944Z</time></trkpt><trkpt lat="43.044311617597145" lon="2.2125143851021556"><ele>323.0</ele><time>2026-04-05T08:58:50.944Z</time></trkpt><trkpt lat="43.0443424430712" lon="2.212615360762393"><ele>323.0</ele><time>2026-04-05T08:58:51.944Z</time></trkpt><trkpt lat="43.04437600429809" lon="2.2127142872815617"><ele>321.7142857142857</ele><time>2026-04-05T08:58:52.944Z</time></trkpt><trkpt lat="43.04441046624019" lon="2.212817857138426"><ele>320.42857142857144</ele><time>2026-04-05T08:58:53.944Z</time></trkpt><trkpt lat="43.04444894715612" lon="2.212908868409638"><ele>319.1428571428571</ele><time>2026-04-05T08:58:54.944Z</time></trkpt><trkpt lat="43.04448699224642" lon="2.212987703318551"><ele>317.8571428571429</ele><time>2026-04-05T08:58:55.944Z</time></trkpt><trkpt lat="43.044521467259344" lon="2.2130716627323817"><ele>316.57142857142856</ele><time>2026-04-05T08:58:56.944Z</time></trkpt><trkpt lat="43.044557391978586" lon="2.213155930607221"><ele>315.2857142857143</ele><time>2026-04-05T08:58:57.944Z</time></trkpt><trkpt lat="43.04459139770875" lon="2.2132457828059713"><ele>314.0</ele><time>2026-04-05T08:58:58.944Z</time></trkpt><trkpt lat="43.04463277131457" lon="2.21334123723624"><ele>311.59999999999997</ele><time>2026-04-05T08:58:59.944Z</time></trkpt><trkpt lat="43.04467817730493" lon="2.2134333063138705"><ele>309.2</ele><time>2026-04-05T08:59:00.944Z</time></trkpt><trkpt lat="43.04472978134319" lon="2.213527989752783"><ele>306.79999999999995</ele><time>2026-04-05T08:59:01.944Z</time></trkpt><trkpt lat="43.044783885853356" lon="2.21363617951939"><ele>304.4</ele><time>2026-04-05T08:59:02.944Z</time></trkpt><trkpt lat="43.044838995441935" lon="2.213747439984733"><ele>302.0</ele><time>2026-04-05T08:59:03.944Z</time></trkpt><trkpt lat="43.04487302638622" lon="2.213866873612427"><ele>302.0</ele><time>2026-04-05T08:59:04.944Z</time></trkpt><trkpt lat="43.044897538186575" lon="2.2139728925303914"><ele>302.0</ele><time>2026-04-05T08:59:05.944Z</time></trkpt><trkpt lat="43.044933361352136" lon="2.2140865628788857"><ele>302.0</ele><time>2026-04-05T08:59:06.944Z</time></trkpt><trkpt lat="43.04497430129557" lon="2.214188890173328"><ele>302.0</ele><time>2026-04-05T08:59:07.944Z</time></trkpt><trkpt lat="43.04501535523321" lon="2.214270350793814"><ele>302.0</ele><time>2026-04-05T08:59:08.944Z</time></trkpt><trkpt lat="43.04508855152802" lon="2.2143491218752684"><ele>302.0</ele><time>2026-04-05T08:59:10.944Z</time></trkpt><trkpt lat="43.04518618229646" lon="2.214438132159502"><ele>301.4</ele><time>2026-04-05T08:59:12.944Z</time></trkpt><trkpt lat="43.04521493188258" lon="2.2145206046911468"><ele>300.79999999999995</ele><time>2026-04-05T08:59:13.944Z</time></trkpt><trkpt lat="43.045239143691816" lon="2.2146337763356083"><ele>300.2</ele><time>2026-04-05T08:59:14.944Z</time></trkpt><trkpt lat="43.04528040438206" lon="2.2147599428507863"><ele>299.59999999999997</ele><time>2026-04-05T08:59:15.944Z</time></trkpt><trkpt lat="43.04532576156908" lon="2.214890954222475"><ele>299.0</ele><time>2026-04-05T08:59:16.944Z</time></trkpt><trkpt lat="43.045364071984174" lon="2.215034902494756"><ele>299.0</ele><time>2026-04-05T08:59:17.944Z</time></trkpt><trkpt lat="43.04538324125422" lon="2.2151649887611"><ele>299.0</ele><time>2026-04-05T08:59:18.944Z</time></trkpt><trkpt lat="43.045389829975484" lon="2.2152662976630104"><ele>299.0</ele><time>2026-04-05T08:59:19.944Z</time></trkpt><trkpt lat="43.045375265340304" lon="2.2154287654565072"><ele>299.0</ele><time>2026-04-05T08:59:21.944Z</time></trkpt><trkpt lat="43.045411064120565" lon="2.2155847650857616"><ele>299.0</ele><time>2026-04-05T08:59:23.944Z</time></trkpt><trkpt lat="43.045460409938386" lon="2.2157185396775225"><ele>297.83333333333337</ele><time>2026-04-05T08:59:25.944Z</time></trkpt><trkpt lat="43.045504754549604" lon="2.2157862857126283"><ele>296.6666666666667</ele><time>2026-04-05T08:59:26.944Z</time></trkpt><trkpt lat="43.0455598469773" lon="2.215857144643917"><ele>295.5</ele><time>2026-04-05T08:59:27.944Z</time></trkpt><trkpt lat="43.04560749963188" lon="2.2159414892640235"><ele>294.3333333333333</ele><time>2026-04-05T08:59:28.945Z</time></trkpt><trkpt lat="43.04564410301763" lon="2.216031479204698"><ele>293.16666666666663</ele><time>2026-04-05T08:59:29.945Z</time></trkpt><trkpt lat="43.04566644852756" lon="2.2161229006865044"><ele>292.0</ele><time>2026-04-05T08:59:30.945Z</time></trkpt><trkpt lat="43.04568340468129" lon="2.2162941985091327"><ele>292.0</ele><time>2026-04-05T08:59:32.945Z</time></trkpt><trkpt lat="43.04570098065878" lon="2.2164545980242565"><ele>292.0</ele><time>2026-04-05T08:59:34.945Z</time></trkpt><trkpt lat="43.04569987837881" lon="2.2165680639900542"><ele>292.0</ele><time>2026-04-05T08:59:36.945Z</time></trkpt><trkpt lat="43.045694090569" lon="2.216658826894053"><ele>292.0</ele><time>2026-04-05T08:59:39.945Z</time></trkpt><trkpt lat="43.04569354216465" lon="2.2167583754691265"><ele>292.0</ele><time>2026-04-05T09:03:31.003Z</time></trkpt><trkpt lat="43.04574501963723" lon="2.2168833180097876"><ele>292.0</ele><time>2026-04-05T09:03:33.003Z</time></trkpt><trkpt lat="43.04579882324935" lon="2.2169792269190727"><ele>292.0</ele><time>2026-04-05T09:03:34.003Z</time></trkpt><trkpt lat="43.045863797428105" lon="2.2170799784531723"><ele>292.0</ele><time>2026-04-05T09:03:35.003Z</time></trkpt><trkpt lat="43.04592944342719" lon="2.217173460820183"><ele>292.0</ele><time>2026-04-05T09:03:36.003Z</time></trkpt><trkpt lat="43.045992986964436" lon="2.2172781902386136"><ele>292.0</ele><time>2026-04-05T09:03:37.003Z</time></trkpt><trkpt lat="43.04603461359119" lon="2.2173675646364255"><ele>292.0</ele><time>2026-04-05T09:03:38.003Z</time></trkpt><trkpt lat="43.04609191506672" lon="2.2174311881171644"><ele>292.0</ele><time>2026-04-05T09:03:39.003Z</time></trkpt><trkpt lat="43.0461528870276" lon="2.2175122710244306"><ele>290.0</ele><time>2026-04-05T09:03:41.004Z</time></trkpt><trkpt lat="43.04610634055589" lon="2.2175960854927355"><ele>288.0</ele><time>2026-04-05T09:03:43.004Z</time></trkpt><trkpt lat="43.04607796927159" lon="2.2176990068354097"><ele>286.0</ele><time>2026-04-05T09:03:45.004Z</time></trkpt><trkpt lat="43.04618657928673" lon="2.217655438108295"><ele>284.0</ele><time>2026-04-05T09:03:47.004Z</time></trkpt><trkpt lat="43.04625462694177" lon="2.217593271457685"><ele>282.0</ele><time>2026-04-05T09:03:48.004Z</time></trkpt><trkpt lat="43.046349081205655" lon="2.217474708734409"><ele>282.0</ele><time>2026-04-05T09:03:49.004Z</time></trkpt><trkpt lat="43.04643525338051" lon="2.217415576610331"><ele>282.0</ele><time>2026-04-05T09:03:50.004Z</time></trkpt><trkpt lat="43.046510781969744" lon="2.217376098623764"><ele>282.0</ele><time>2026-04-05T09:03:51.004Z</time></trkpt><trkpt lat="43.0466021685252" lon="2.2173612984802067"><ele>282.0</ele><time>2026-04-05T09:03:52.004Z</time></trkpt><trkpt lat="43.04669810997678" lon="2.2173578999677117"><ele>282.0</ele><time>2026-04-05T09:03:53.004Z</time></trkpt><trkpt lat="43.0467783330188" lon="2.217342725194598"><ele>282.0</ele><time>2026-04-05T09:03:54.004Z</time></trkpt><trkpt lat="43.046864064977946" lon="2.2173561780865882"><ele>281.3333333333333</ele><time>2026-04-05T09:03:55.004Z</time></trkpt><trkpt lat="43.04693724075259" lon="2.217373318241663"><ele>280.6666666666667</ele><time>2026-04-05T09:03:56.004Z</time></trkpt><trkpt lat="43.04703302227518" lon="2.217382958367393"><ele>280.0</ele><time>2026-04-05T09:03:57.004Z</time></trkpt><trkpt lat="43.04712926135929" lon="2.2173896710465932"><ele>279.33333333333337</ele><time>2026-04-05T09:03:58.004Z</time></trkpt><trkpt lat="43.04721001336107" lon="2.217417286797967"><ele>278.6666666666667</ele><time>2026-04-05T09:03:59.004Z</time></trkpt><trkpt lat="43.04729898653722" lon="2.217440708645507"><ele>278.0</ele><time>2026-04-05T09:04:00.004Z</time></trkpt><trkpt lat="43.04738639575569" lon="2.21745780874057"><ele>274.83333333333337</ele><time>2026-04-05T09:04:01.004Z</time></trkpt><trkpt lat="43.04747056887707" lon="2.2174747873369416"><ele>271.6666666666667</ele><time>2026-04-05T09:04:02.004Z</time></trkpt><trkpt lat="43.04756778074261" lon="2.217478175658957"><ele>268.5</ele><time>2026-04-05T09:04:03.004Z</time></trkpt><trkpt lat="43.04765303001102" lon="2.2174497706302474"><ele>265.3333333333333</ele><time>2026-04-05T09:04:04.004Z</time></trkpt><trkpt lat="43.04773281140625" lon="2.2174141748789062"><ele>262.16666666666663</ele><time>2026-04-05T09:04:05.004Z</time></trkpt><trkpt lat="43.04781704468009" lon="2.2173864161686834"><ele>259.0</ele><time>2026-04-05T09:04:06.004Z</time></trkpt><trkpt lat="43.04787955219268" lon="2.217363574871354"><ele>260.2</ele><time>2026-04-05T09:04:07.004Z</time></trkpt><trkpt lat="43.047979106814005" lon="2.2173135530427226"><ele>261.4</ele><time>2026-04-05T09:04:09.004Z</time></trkpt><trkpt lat="43.048055450030255" lon="2.217283779169163"><ele>262.6</ele><time>2026-04-05T09:04:16.005Z</time></trkpt><trkpt lat="43.048194976927824" lon="2.2172044916344693"><ele>263.8</ele><time>2026-04-05T09:04:18.005Z</time></trkpt><trkpt lat="43.048282289344804" lon="2.2171484089322817"><ele>265.0</ele><time>2026-04-05T09:04:19.005Z</time></trkpt><trkpt lat="43.048364181012076" lon="2.2170809656192194"><ele>261.2</ele><time>2026-04-05T09:04:20.005Z</time></trkpt><trkpt lat="43.04844297176897" lon="2.2170257373119515"><ele>257.4</ele><time>2026-04-05T09:04:21.005Z</time></trkpt><trkpt lat="43.04852366369664" lon="2.2169707373183565"><ele>253.60000000000002</ele><time>2026-04-05T09:04:22.005Z</time></trkpt><trkpt lat="43.04860342397009" lon="2.2169075440626838"><ele>249.8</ele><time>2026-04-05T09:04:23.005Z</time></trkpt><trkpt lat="43.04868309966387" lon="2.2168385520639338"><ele>246.0</ele><time>2026-04-05T09:04:24.005Z</time></trkpt><trkpt lat="43.04875647070743" lon="2.2167680401121728"><ele>246.0</ele><time>2026-04-05T09:04:25.005Z</time></trkpt><trkpt lat="43.048829753107874" lon="2.216702013446648"><ele>246.00000000000003</ele><time>2026-04-05T09:04:26.005Z</time></trkpt><trkpt lat="43.04890871719725" lon="2.2166439583741626"><ele>246.00000000000003</ele><time>2026-04-05T09:04:27.005Z</time></trkpt><trkpt lat="43.04899063489745" lon="2.216583852472099"><ele>246.0</ele><time>2026-04-05T09:04:28.005Z</time></trkpt><trkpt lat="43.04907283431978" lon="2.2165146143902343"><ele>246.0</ele><time>2026-04-05T09:04:29.005Z</time></trkpt><trkpt lat="43.04915667734742" lon="2.216441143584034"><ele>244.0</ele><time>2026-04-05T09:04:30.005Z</time></trkpt><trkpt lat="43.04922891058395" lon="2.2163799453616284"><ele>242.0</ele><time>2026-04-05T09:04:31.005Z</time></trkpt><trkpt lat="43.04928657877307" lon="2.21632145920626"><ele>240.0</ele><time>2026-04-05T09:04:32.005Z</time></trkpt><trkpt lat="43.04935796393146" lon="2.2162661123055254"><ele>238.0</ele><time>2026-04-05T09:04:33.005Z</time></trkpt><trkpt lat="43.049413959804426" lon="2.216203041880091"><ele>236.0</ele><time>2026-04-05T09:04:34.005Z</time></trkpt><trkpt lat="43.04946676241665" lon="2.216154012632716"><ele>234.0</ele><time>2026-04-05T09:04:35.005Z</time></trkpt><trkpt lat="43.04953554099526" lon="2.216108159736991"><ele>234.0</ele><time>2026-04-05T09:04:36.005Z</time></trkpt><trkpt lat="43.04960692364635" lon="2.216060121599299"><ele>233.99999999999997</ele><time>2026-04-05T09:04:37.005Z</time></trkpt><trkpt lat="43.0496639391984" lon="2.216018571510826"><ele>233.99999999999997</ele><time>2026-04-05T09:04:38.005Z</time></trkpt><trkpt lat="43.04974839033423" lon="2.2159626451138816"><ele>234.0</ele><time>2026-04-05T09:04:40.005Z</time></trkpt><trkpt lat="43.04984736721506" lon="2.215849961088274"><ele>234.0</ele><time>2026-04-05T09:04:42.005Z</time></trkpt><trkpt lat="43.049917009539584" lon="2.2157505265833293"><ele>229.66666666666666</ele><time>2026-04-05T09:04:44.005Z</time></trkpt><trkpt lat="43.049986733174386" lon="2.215758084995386"><ele>225.33333333333331</ele><time>2026-04-05T09:04:46.005Z</time></trkpt><trkpt lat="43.05004657231679" lon="2.215796323096199"><ele>221.0</ele><time>2026-04-05T09:04:47.005Z</time></trkpt><trkpt lat="43.05010249747364" lon="2.215836761295414"><ele>216.66666666666666</ele><time>2026-04-05T09:04:48.006Z</time></trkpt><trkpt lat="43.05023375148864" lon="2.2158466810913637"><ele>212.33333333333331</ele><time>2026-04-05T09:04:50.006Z</time></trkpt><trkpt lat="43.050313328453555" lon="2.2158447881397274"><ele>208.0</ele><time>2026-04-05T09:04:51.006Z</time></trkpt><trkpt lat="43.050381802878434" lon="2.2158229759796764"><ele>208.0</ele><time>2026-04-05T09:04:52.006Z</time></trkpt><trkpt lat="43.050455458059346" lon="2.215830888405109"><ele>208.0</ele><time>2026-04-05T09:04:54.006Z</time></trkpt><trkpt lat="43.05047156950898" lon="2.2159244726421625"><ele>208.0</ele><time>2026-04-05T09:04:58.006Z</time></trkpt><trkpt lat="43.05039325278842" lon="2.2160093146311617"><ele>208.0</ele><time>2026-04-05T09:05:00.006Z</time></trkpt><trkpt lat="43.05034247687496" lon="2.2160626738318845"><ele>208.0</ele><time>2026-04-05T09:05:01.006Z</time></trkpt><trkpt lat="43.05030237454743" lon="2.216129995151693"><ele>208.0</ele><time>2026-04-05T09:05:02.006Z</time></trkpt><trkpt lat="43.0502478101766" lon="2.2161935626950284"><ele>208.0</ele><time>2026-04-05T09:05:03.006Z</time></trkpt><trkpt lat="43.05016668954722" lon="2.2163039145728125"><ele>207.99999999999997</ele><time>2026-04-05T09:05:05.006Z</time></trkpt><trkpt lat="43.050121893337085" lon="2.2164348759020522"><ele>208.0</ele><time>2026-04-05T09:05:07.006Z</time></trkpt><trkpt lat="43.050071701615344" lon="2.2165232773166648"><ele>208.0</ele><time>2026-04-05T09:05:08.006Z</time></trkpt><trkpt lat="43.05002622577057" lon="2.2165996057419446"><ele>208.0</ele><time>2026-04-05T09:05:09.006Z</time></trkpt><trkpt lat="43.04998076750208" lon="2.216673943250973"><ele>207.99999999999997</ele><time>2026-04-05T09:05:10.006Z</time></trkpt><trkpt lat="43.04994189704135" lon="2.216748818921507"><ele>208.0</ele><time>2026-04-05T09:05:11.006Z</time></trkpt><trkpt lat="43.04990418097876" lon="2.2168317879024286"><ele>205.49999999999997</ele><time>2026-04-05T09:05:12.006Z</time></trkpt><trkpt lat="43.04988106526441" lon="2.2170012551138503"><ele>203.0</ele><time>2026-04-05T09:05:14.006Z</time></trkpt><trkpt lat="43.04990642642036" lon="2.217082810563326"><ele>200.5</ele><time>2026-04-05T09:05:15.006Z</time></trkpt><trkpt lat="43.04994247450924" lon="2.2171580419864223"><ele>198.0</ele><time>2026-04-05T09:05:16.006Z</time></trkpt><trkpt lat="43.05000473393394" lon="2.217251374439658"><ele>195.49999999999997</ele><time>2026-04-05T09:05:17.006Z</time></trkpt><trkpt lat="43.05007151580412" lon="2.2173462839490075"><ele>193.0</ele><time>2026-04-05T09:05:18.006Z</time></trkpt><trkpt lat="43.05014480911118" lon="2.2174544352236887"><ele>189.8</ele><time>2026-04-05T09:05:19.006Z</time></trkpt><trkpt lat="43.050215209751336" lon="2.2175651899859745"><ele>186.60000000000002</ele><time>2026-04-05T09:05:20.006Z</time></trkpt><trkpt lat="43.050276029685755" lon="2.2176727724124037"><ele>183.39999999999998</ele><time>2026-04-05T09:05:21.007Z</time></trkpt><trkpt lat="43.05035451872185" lon="2.2177700310528365"><ele>180.2</ele><time>2026-04-05T09:05:22.007Z</time></trkpt><trkpt lat="43.05042312579323" lon="2.2178527677633317"><ele>177.0</ele><time>2026-04-05T09:05:23.007Z</time></trkpt><trkpt lat="43.050483119345785" lon="2.217927587296357"><ele>177.0</ele><time>2026-04-05T09:05:24.007Z</time></trkpt><trkpt lat="43.050516231900446" lon="2.2180171802106665"><ele>177.0</ele><time>2026-04-05T09:05:25.007Z</time></trkpt><trkpt lat="43.050555572114476" lon="2.2180884331351023"><ele>177.0</ele><time>2026-04-05T09:05:26.007Z</time></trkpt><trkpt lat="43.050627581259164" lon="2.218174807265172"><ele>177.0</ele><time>2026-04-05T09:05:37.007Z</time></trkpt><trkpt lat="43.05068385077883" lon="2.2182413294357124"><ele>177.0</ele><time>2026-04-05T09:05:39.007Z</time></trkpt><trkpt lat="43.05074513507355" lon="2.218308481894006"><ele>177.0</ele><time>2026-04-05T09:05:41.007Z</time></trkpt><trkpt lat="43.0507745353341" lon="2.218404800504002"><ele>176.39999999999998</ele><time>2026-04-05T09:05:42.007Z</time></trkpt><trkpt lat="43.050766229626156" lon="2.218527263143395"><ele>175.79999999999998</ele><time>2026-04-05T09:05:43.007Z</time></trkpt><trkpt lat="43.050714336454284" lon="2.218647027772024"><ele>175.2</ele><time>2026-04-05T09:05:44.007Z</time></trkpt><trkpt lat="43.05069650352508" lon="2.2187913528535734"><ele>174.6</ele><time>2026-04-05T09:05:45.007Z</time></trkpt><trkpt lat="43.05073830033326" lon="2.2189306454378"><ele>174.0</ele><time>2026-04-05T09:05:46.007Z</time></trkpt><trkpt lat="43.050758135899095" lon="2.2190806518306045"><ele>174.0</ele><time>2026-04-05T09:05:47.007Z</time></trkpt><trkpt lat="43.05077644610997" lon="2.219219122710061"><ele>174.0</ele><time>2026-04-05T09:05:48.007Z</time></trkpt><trkpt lat="43.05079532175761" lon="2.219350303104787"><ele>174.0</ele><time>2026-04-05T09:05:49.007Z</time></trkpt><trkpt lat="43.050816142371104" lon="2.2194710637873505"><ele>174.0</ele><time>2026-04-05T09:05:50.007Z</time></trkpt><trkpt lat="43.05083735574776" lon="2.2195879899857207"><ele>174.0</ele><time>2026-04-05T09:05:51.007Z</time></trkpt><trkpt lat="43.05085308779146" lon="2.21968336112134"><ele>173.79999999999998</ele><time>2026-04-05T09:05:52.007Z</time></trkpt><trkpt lat="43.05086831621406" lon="2.219843994204044"><ele>173.6</ele><time>2026-04-05T09:05:54.008Z</time></trkpt><trkpt lat="43.05087763805156" lon="2.219939606318451"><ele>173.4</ele><time>2026-04-05T09:05:55.008Z</time></trkpt><trkpt lat="43.05089196871071" lon="2.220063282539472"><ele>173.2</ele><time>2026-04-05T09:05:56.008Z</time></trkpt><trkpt lat="43.05089789704081" lon="2.2201897873475325"><ele>173.0</ele><time>2026-04-05T09:05:57.008Z</time></trkpt><trkpt lat="43.05092137353965" lon="2.220334567304008"><ele>173.0</ele><time>2026-04-05T09:05:58.008Z</time></trkpt><trkpt lat="43.05095751408842" lon="2.2204408110964153"><ele>173.0</ele><time>2026-04-05T09:05:59.008Z</time></trkpt><trkpt lat="43.05093202394474" lon="2.2205647330669156"><ele>173.0</ele><time>2026-04-05T09:06:01.008Z</time></trkpt><trkpt lat="43.050968116800775" lon="2.220689626467005"><ele>173.0</ele><time>2026-04-05T09:06:10.008Z</time></trkpt><trkpt lat="43.05109643989109" lon="2.2207583881070097"><ele>173.0</ele><time>2026-04-05T09:06:12.008Z</time></trkpt><trkpt lat="43.05116141359025" lon="2.2207747286518495"><ele>172.5</ele><time>2026-04-05T09:06:13.008Z</time></trkpt><trkpt lat="43.051234711126746" lon="2.2208001648035194"><ele>172.0</ele><time>2026-04-05T09:06:14.008Z</time></trkpt><trkpt lat="43.05129375824444" lon="2.220836474409276"><ele>171.5</ele><time>2026-04-05T09:06:15.008Z</time></trkpt><trkpt lat="43.05133461406165" lon="2.2209021276555774"><ele>171.0</ele><time>2026-04-05T09:06:16.008Z</time></trkpt><trkpt lat="43.05137893201834" lon="2.2210034339470357"><ele>170.5</ele><time>2026-04-05T09:06:17.008Z</time></trkpt><trkpt lat="43.051418430433536" lon="2.2211027716661293"><ele>170.0</ele><time>2026-04-05T09:06:18.008Z</time></trkpt><trkpt lat="43.051460425625024" lon="2.2211944500566263"><ele>170.0</ele><time>2026-04-05T09:06:19.008Z</time></trkpt><trkpt lat="43.05150300596523" lon="2.221281965662936"><ele>170.0</ele><time>2026-04-05T09:06:20.008Z</time></trkpt><trkpt lat="43.05154741128103" lon="2.221370438125904"><ele>170.0</ele><time>2026-04-05T09:06:21.008Z</time></trkpt><trkpt lat="43.05158487039323" lon="2.2214498160107654"><ele>170.0</ele><time>2026-04-05T09:06:22.008Z</time></trkpt><trkpt lat="43.051649136494134" lon="2.2215829833702787"><ele>170.0</ele><time>2026-04-05T09:06:24.008Z</time></trkpt><trkpt lat="43.05157962731119" lon="2.221922955977177"><ele>170.0</ele><time>2026-04-05T09:06:37.009Z</time></trkpt><trkpt lat="43.05150878425676" lon="2.2219595495984246"><ele>170.0</ele><time>2026-04-05T09:06:39.009Z</time></trkpt><trkpt lat="43.05152290892447" lon="2.2221409867464583"><ele>170.0</ele><time>2026-04-05T09:06:41.009Z</time></trkpt><trkpt lat="43.05161593853726" lon="2.222216408170715"><ele>170.0</ele><time>2026-04-05T09:06:42.009Z</time></trkpt><trkpt lat="43.05167432475316" lon="2.2222991235680736"><ele>170.0</ele><time>2026-04-05T09:06:43.009Z</time></trkpt><trkpt lat="43.05173547712348" lon="2.222362050253164"><ele>170.0</ele><time>2026-04-05T09:06:44.009Z</time></trkpt><trkpt lat="43.051798937869464" lon="2.222427584200651"><ele>170.0</ele><time>2026-04-05T09:06:45.009Z</time></trkpt><trkpt lat="43.051864107078046" lon="2.2224920920934506"><ele>170.0</ele><time>2026-04-05T09:06:46.009Z</time></trkpt><trkpt lat="43.05193587767" lon="2.222563134376203"><ele>170.0</ele><time>2026-04-05T09:06:47.009Z</time></trkpt><trkpt lat="43.05201544163602" lon="2.2226418909479357"><ele>170.0</ele><time>2026-04-05T09:06:48.009Z</time></trkpt><trkpt lat="43.05208540075064" lon="2.2227101849514157"><ele>170.0</ele><time>2026-04-05T09:06:49.009Z</time></trkpt><trkpt lat="43.05214382458211" lon="2.2227663084355003"><ele>170.0</ele><time>2026-04-05T09:06:50.009Z</time></trkpt><trkpt lat="43.05220102209111" lon="2.2228212538817136"><ele>170.0</ele><time>2026-04-05T09:06:51.009Z</time></trkpt><trkpt lat="43.05226986216022" lon="2.2228873834626626"><ele>170.0</ele><time>2026-04-05T09:06:52.009Z</time></trkpt><trkpt lat="43.05236367085134" lon="2.2229842105102766"><ele>170.0</ele><time>2026-04-05T09:06:53.009Z</time></trkpt><trkpt lat="43.05248865477118" lon="2.223013329434589"><ele>170.0</ele><time>2026-04-05T09:06:54.009Z</time></trkpt><trkpt lat="43.05258023919074" lon="2.223001046262114"><ele>170.33333333333331</ele><time>2026-04-05T09:06:55.009Z</time></trkpt><trkpt lat="43.052659407504585" lon="2.2229884711827066"><ele>170.66666666666666</ele><time>2026-04-05T09:06:56.009Z</time></trkpt><trkpt lat="43.05274603733534" lon="2.2229786638049656"><ele>171.0</ele><time>2026-04-05T09:06:57.009Z</time></trkpt><trkpt lat="43.052832330713024" lon="2.2229678849786323"><ele>171.33333333333334</ele><time>2026-04-05T09:06:58.009Z</time></trkpt><trkpt lat="43.05291287064213" lon="2.2229569603279855"><ele>171.66666666666669</ele><time>2026-04-05T09:06:59.009Z</time></trkpt><trkpt lat="43.05299073369454" lon="2.2229463987460423"><ele>172.0</ele><time>2026-04-05T09:07:00.009Z</time></trkpt><trkpt lat="43.05307684743322" lon="2.2229191273169295"><ele>172.0</ele><time>2026-04-05T09:07:01.01Z</time></trkpt><trkpt lat="43.05317466942971" lon="2.2229113025291687"><ele>172.0</ele><time>2026-04-05T09:07:02.01Z</time></trkpt><trkpt lat="43.05327615418827" lon="2.2229024816162326"><ele>172.0</ele><time>2026-04-05T09:07:03.01Z</time></trkpt><trkpt lat="43.0533788812359" lon="2.222899576506861"><ele>172.0</ele><time>2026-04-05T09:07:04.01Z</time></trkpt><trkpt lat="43.053473369803456" lon="2.22289398856138"><ele>172.0</ele><time>2026-04-05T09:07:05.01Z</time></trkpt><trkpt lat="43.05356036843018" lon="2.2228821559011362"><ele>172.16666666666669</ele><time>2026-04-05T09:07:06.01Z</time></trkpt><trkpt lat="43.0536416138492" lon="2.222868922727501"><ele>172.33333333333334</ele><time>2026-04-05T09:07:07.01Z</time></trkpt><trkpt lat="43.05371838180654" lon="2.2228591227370953"><ele>172.5</ele><time>2026-04-05T09:07:08.01Z</time></trkpt><trkpt lat="43.05378600259549" lon="2.222846074313753"><ele>172.66666666666666</ele><time>2026-04-05T09:07:09.01Z</time></trkpt><trkpt lat="43.053891776260286" lon="2.222835065765406"><ele>172.83333333333331</ele><time>2026-04-05T09:07:11.01Z</time></trkpt><trkpt lat="43.053976535810236" lon="2.222823800920704"><ele>173.0</ele><time>2026-04-05T09:07:13.01Z</time></trkpt><trkpt lat="43.054052328638925" lon="2.2228269513632"><ele>173.0</ele><time>2026-04-05T09:07:17.01Z</time></trkpt><trkpt lat="43.05405733812776" lon="2.222951051109775"><ele>173.0</ele><time>2026-04-05T09:07:21.01Z</time></trkpt><trkpt lat="43.05403099332161" lon="2.2230734314350267"><ele>173.0</ele><time>2026-04-05T09:07:23.01Z</time></trkpt><trkpt lat="43.0540066839692" lon="2.223194359745176"><ele>173.0</ele><time>2026-04-05T09:07:25.01Z</time></trkpt><trkpt lat="43.0539611577823" lon="2.2233101325191953"><ele>173.0</ele><time>2026-04-05T09:07:30.01Z</time></trkpt><trkpt lat="43.053943841414835" lon="2.223411460131712"><ele>173.0</ele><time>2026-04-05T09:07:31.01Z</time></trkpt><trkpt lat="43.05391533501557" lon="2.223533031044994"><ele>175.5</ele><time>2026-04-05T09:07:32.01Z</time></trkpt><trkpt lat="43.05385059202389" lon="2.223719808646565"><ele>178.0</ele><time>2026-04-05T09:07:33.01Z</time></trkpt><trkpt lat="43.053813055692196" lon="2.223932633920292"><ele>180.5</ele><time>2026-04-05T09:07:35.011Z</time></trkpt><trkpt lat="43.05376632276205" lon="2.2240821453655335"><ele>183.0</ele><time>2026-04-05T09:07:36.011Z</time></trkpt><trkpt lat="43.053724913882895" lon="2.224242672525113"><ele>186.25</ele><time>2026-04-05T09:07:37.011Z</time></trkpt><trkpt lat="43.05367858736058" lon="2.224393161195219"><ele>189.5</ele><time>2026-04-05T09:07:38.011Z</time></trkpt><trkpt lat="43.05364944707754" lon="2.2245489188261884"><ele>192.75</ele><time>2026-04-05T09:07:39.011Z</time></trkpt><trkpt lat="43.053624288180664" lon="2.2246945199575334"><ele>196.0</ele><time>2026-04-05T09:07:40.011Z</time></trkpt><trkpt lat="43.053601885121516" lon="2.2248358617351323"><ele>197.4</ele><time>2026-04-05T09:07:41.011Z</time></trkpt><trkpt lat="43.05358426007961" lon="2.2249794377815237"><ele>198.8</ele><time>2026-04-05T09:07:42.011Z</time></trkpt><trkpt lat="43.05356666377761" lon="2.225125863695089"><ele>200.20000000000002</ele><time>2026-04-05T09:07:43.011Z</time></trkpt><trkpt lat="43.053564552245994" lon="2.225278557093963"><ele>201.60000000000002</ele><time>2026-04-05T09:07:44.011Z</time></trkpt><trkpt lat="43.05358947850422" lon="2.225436936083798"><ele>203.0</ele><time>2026-04-05T09:07:45.011Z</time></trkpt><trkpt lat="43.05362204670487" lon="2.225589260376354"><ele>204.2</ele><time>2026-04-05T09:07:46.011Z</time></trkpt><trkpt lat="43.05365983912856" lon="2.225726843410394"><ele>205.4</ele><time>2026-04-05T09:07:47.011Z</time></trkpt><trkpt lat="43.05371098585565" lon="2.225818858298"><ele>206.6</ele><time>2026-04-05T09:07:48.011Z</time></trkpt><trkpt lat="43.05380081799901" lon="2.225851393252645"><ele>207.79999999999998</ele><time>2026-04-05T09:07:49.011Z</time></trkpt><trkpt lat="43.05388703373019" lon="2.225916018292479"><ele>209.0</ele><time>2026-04-05T09:07:50.011Z</time></trkpt><trkpt lat="43.053978370945366" lon="2.225971253833507"><ele>209.0</ele><time>2026-04-05T09:07:51.011Z</time></trkpt><trkpt lat="43.05406130567524" lon="2.226053987460805"><ele>209.0</ele><time>2026-04-05T09:07:52.011Z</time></trkpt><trkpt lat="43.054153975953604" lon="2.226154911610203"><ele>209.0</ele><time>2026-04-05T09:07:53.011Z</time></trkpt><trkpt lat="43.054243365358545" lon="2.2262936466525742"><ele>209.0</ele><time>2026-04-05T09:07:54.011Z</time></trkpt><trkpt lat="43.054336059137086" lon="2.2264335065878984"><ele>209.5</ele><time>2026-04-05T09:07:55.011Z</time></trkpt><trkpt lat="43.05442977328345" lon="2.2265773858226536"><ele>210.0</ele><time>2026-04-05T09:07:56.011Z</time></trkpt><trkpt lat="43.054514513036814" lon="2.226730484020831"><ele>210.5</ele><time>2026-04-05T09:07:57.011Z</time></trkpt><trkpt lat="43.05458862372634" lon="2.226900203850239"><ele>211.0</ele><time>2026-04-05T09:07:58.011Z</time></trkpt><trkpt lat="43.05466144919988" lon="2.2270571837621738"><ele>211.0</ele><time>2026-04-05T09:07:59.011Z</time></trkpt><trkpt lat="43.05473648226493" lon="2.227218205535983"><ele>211.0</ele><time>2026-04-05T09:08:00.011Z</time></trkpt><trkpt lat="43.05481420742298" lon="2.227373678828466"><ele>211.0</ele><time>2026-04-05T09:08:01.011Z</time></trkpt><trkpt lat="43.05487669827839" lon="2.2275341954349677"><ele>211.0</ele><time>2026-04-05T09:08:02.011Z</time></trkpt><trkpt lat="43.054956475091615" lon="2.2276795948527326"><ele>211.75</ele><time>2026-04-05T09:08:03.011Z</time></trkpt><trkpt lat="43.05503534085846" lon="2.227803723854105"><ele>212.5</ele><time>2026-04-05T09:08:04.011Z</time></trkpt><trkpt lat="43.05512638172045" lon="2.2279019277656285"><ele>213.25</ele><time>2026-04-05T09:08:05.011Z</time></trkpt><trkpt lat="43.055215495226" lon="2.228015864378938"><ele>214.0</ele><time>2026-04-05T09:08:06.011Z</time></trkpt><trkpt lat="43.05530503319023" lon="2.2281369924603167"><ele>215.25</ele><time>2026-04-05T09:08:07.011Z</time></trkpt><trkpt lat="43.055400526971844" lon="2.228250299732412"><ele>216.5</ele><time>2026-04-05T09:08:08.012Z</time></trkpt><trkpt lat="43.05549335333171" lon="2.228361841078656"><ele>217.75</ele><time>2026-04-05T09:08:09.012Z</time></trkpt><trkpt lat="43.055586429523075" lon="2.2284796145760475"><ele>219.0</ele><time>2026-04-05T09:08:10.012Z</time></trkpt><trkpt lat="43.055658339169376" lon="2.2286233083504845"><ele>219.0</ele><time>2026-04-05T09:08:11.012Z</time></trkpt><trkpt lat="43.05573388634303" lon="2.2287612847404206"><ele>219.0</ele><time>2026-04-05T09:08:12.012Z</time></trkpt><trkpt lat="43.05580793136257" lon="2.2289027379729385"><ele>219.0</ele><time>2026-04-05T09:08:13.012Z</time></trkpt><trkpt lat="43.055880253263346" lon="2.229051787198794"><ele>219.0</ele><time>2026-04-05T09:08:14.012Z</time></trkpt><trkpt lat="43.055952618747554" lon="2.2292032012550527"><ele>219.5</ele><time>2026-04-05T09:08:15.012Z</time></trkpt><trkpt lat="43.05602286750142" lon="2.2293519309540875"><ele>220.0</ele><time>2026-04-05T09:08:16.012Z</time></trkpt><trkpt lat="43.05606323165238" lon="2.2294906616331027"><ele>220.5</ele><time>2026-04-05T09:08:17.012Z</time></trkpt><trkpt lat="43.056107362400226" lon="2.2296299161229793"><ele>221.0</ele><time>2026-04-05T09:08:18.012Z</time></trkpt><trkpt lat="43.05615308896318" lon="2.229788418018485"><ele>223.0</ele><time>2026-04-05T09:08:19.012Z</time></trkpt><trkpt lat="43.056193273041856" lon="2.229960880326744"><ele>225.0</ele><time>2026-04-05T09:08:20.012Z</time></trkpt><trkpt lat="43.05621674798567" lon="2.230126393824909"><ele>227.0</ele><time>2026-04-05T09:08:21.012Z</time></trkpt><trkpt lat="43.056231851101934" lon="2.2303009269964953"><ele>229.0</ele><time>2026-04-05T09:08:22.012Z</time></trkpt><trkpt lat="43.056242081166424" lon="2.230487346069295"><ele>229.33333333333331</ele><time>2026-04-05T09:08:23.012Z</time></trkpt><trkpt lat="43.05625169523682" lon="2.2306852460683557"><ele>229.66666666666669</ele><time>2026-04-05T09:08:24.012Z</time></trkpt><trkpt lat="43.0562630780129" lon="2.2308939998670376"><ele>230.0</ele><time>2026-04-05T09:08:25.012Z</time></trkpt><trkpt lat="43.05627372632801" lon="2.2311107998533974"><ele>230.0</ele><time>2026-04-05T09:08:26.012Z</time></trkpt><trkpt lat="43.05627723006686" lon="2.2312650242252077"><ele>230.0</ele><time>2026-04-05T09:08:27.012Z</time></trkpt><trkpt lat="43.05629963746617" lon="2.231374396751981"><ele>230.0</ele><time>2026-04-05T09:08:29.012Z</time></trkpt><trkpt lat="43.05635102704807" lon="2.2315507600431363"><ele>230.0</ele><time>2026-04-05T09:08:31.012Z</time></trkpt><trkpt lat="43.056453195171265" lon="2.2316369524848807"><ele>229.75</ele><time>2026-04-05T09:08:32.012Z</time></trkpt><trkpt lat="43.05655232500048" lon="2.2317654059537246"><ele>229.5</ele><time>2026-04-05T09:08:33.012Z</time></trkpt><trkpt lat="43.05664518944187" lon="2.2318671479492247"><ele>229.25</ele><time>2026-04-05T09:08:34.012Z</time></trkpt><trkpt lat="43.05672690038636" lon="2.2319642101975306"><ele>229.0</ele><time>2026-04-05T09:08:35.012Z</time></trkpt><trkpt lat="43.05679100107295" lon="2.232045471596936"><ele>227.83333333333331</ele><time>2026-04-05T09:08:36.012Z</time></trkpt><trkpt lat="43.05683577343128" lon="2.232108006783381"><ele>226.66666666666666</ele><time>2026-04-05T09:08:37.012Z</time></trkpt><trkpt lat="43.05689499903762" lon="2.2322030301507594"><ele>225.5</ele><time>2026-04-05T09:08:39.012Z</time></trkpt><trkpt lat="43.05692102091623" lon="2.2322993962041777"><ele>224.33333333333331</ele><time>2026-04-05T09:08:41.013Z</time></trkpt><trkpt lat="43.05694453894034" lon="2.2323812711696718"><ele>223.16666666666666</ele><time>2026-04-05T09:08:43.013Z</time></trkpt><trkpt lat="43.05696455007298" lon="2.232483780174718"><ele>222.0</ele><time>2026-04-05T09:08:46.013Z</time></trkpt><trkpt lat="43.05699223664164" lon="2.2326863070659755"><ele>222.0</ele><time>2026-04-05T09:08:48.013Z</time></trkpt><trkpt lat="43.05701843803086" lon="2.2328263355154783"><ele>222.0</ele><time>2026-04-05T09:08:49.013Z</time></trkpt><trkpt lat="43.057045823679886" lon="2.2329779058708756"><ele>222.0</ele><time>2026-04-05T09:08:50.013Z</time></trkpt><trkpt lat="43.05706619523406" lon="2.233144787044898"><ele>222.0</ele><time>2026-04-05T09:08:51.013Z</time></trkpt><trkpt lat="43.057073969130464" lon="2.2333085982410323"><ele>223.25</ele><time>2026-04-05T09:08:52.013Z</time></trkpt><trkpt lat="43.05706206148022" lon="2.2334556385398248"><ele>224.5</ele><time>2026-04-05T09:08:53.013Z</time></trkpt><trkpt lat="43.05700198444182" lon="2.233572263099168"><ele>225.75</ele><time>2026-04-05T09:08:54.013Z</time></trkpt><trkpt lat="43.05693563063213" lon="2.233718200733152"><ele>227.0</ele><time>2026-04-05T09:08:55.013Z</time></trkpt><trkpt lat="43.05685420805436" lon="2.2338898913178102"><ele>228.33333333333334</ele><time>2026-04-05T09:08:56.013Z</time></trkpt><trkpt lat="43.05676126727949" lon="2.2340924398480806"><ele>229.66666666666669</ele><time>2026-04-05T09:08:57.013Z</time></trkpt><trkpt lat="43.056629093500426" lon="2.234242682837174"><ele>231.0</ele><time>2026-04-05T09:08:58.013Z</time></trkpt><trkpt lat="43.05656862222744" lon="2.2343789370865617"><ele>232.25</ele><time>2026-04-05T09:08:59.013Z</time></trkpt><trkpt lat="43.056525122128505" lon="2.234506976346276"><ele>233.5</ele><time>2026-04-05T09:09:00.013Z</time></trkpt><trkpt lat="43.05651686323549" lon="2.234665505370585"><ele>234.75</ele><time>2026-04-05T09:09:01.013Z</time></trkpt><trkpt lat="43.056495904279096" lon="2.2348351395045114"><ele>236.0</ele><time>2026-04-05T09:09:02.013Z</time></trkpt><trkpt lat="43.05647293696118" lon="2.2350171366840272"><ele>236.75</ele><time>2026-04-05T09:09:03.013Z</time></trkpt><trkpt lat="43.05645156471291" lon="2.235191615527487"><ele>237.5</ele><time>2026-04-05T09:09:04.013Z</time></trkpt><trkpt lat="43.05646756951256" lon="2.2353706671924423"><ele>238.25</ele><time>2026-04-05T09:09:05.013Z</time></trkpt><trkpt lat="43.05650509790961" lon="2.235531867503638"><ele>239.0</ele><time>2026-04-05T09:09:06.013Z</time></trkpt><trkpt lat="43.05657618723391" lon="2.235684911718542"><ele>238.66666666666669</ele><time>2026-04-05T09:09:07.013Z</time></trkpt><trkpt lat="43.05665439021366" lon="2.2358741132775726"><ele>238.33333333333331</ele><time>2026-04-05T09:09:08.013Z</time></trkpt><trkpt lat="43.056714375988754" lon="2.2360753421768442"><ele>238.0</ele><time>2026-04-05T09:09:09.013Z</time></trkpt><trkpt lat="43.056731839381584" lon="2.2362832318501855"><ele>239.0</ele><time>2026-04-05T09:09:10.013Z</time></trkpt><trkpt lat="43.05673561113973" lon="2.2364931261729555"><ele>240.0</ele><time>2026-04-05T09:09:11.013Z</time></trkpt><trkpt lat="43.056710807218934" lon="2.236716892439046"><ele>241.0</ele><time>2026-04-05T09:09:12.013Z</time></trkpt><trkpt lat="43.056658297728305" lon="2.236974938922086"><ele>242.66666666666666</ele><time>2026-04-05T09:09:13.013Z</time></trkpt><trkpt lat="43.056594180818614" lon="2.2372444814479846"><ele>244.33333333333331</ele><time>2026-04-05T09:09:14.014Z</time></trkpt><trkpt lat="43.05651769398224" lon="2.237458072974063"><ele>246.0</ele><time>2026-04-05T09:09:15.014Z</time></trkpt><trkpt lat="43.05646740333285" lon="2.237651291453379"><ele>246.8</ele><time>2026-04-05T09:09:16.014Z</time></trkpt><trkpt lat="43.05643027781899" lon="2.2378117976331633"><ele>247.60000000000002</ele><time>2026-04-05T09:09:17.014Z</time></trkpt><trkpt lat="43.05639702592287" lon="2.2379460460920058"><ele>248.4</ele><time>2026-04-05T09:09:18.014Z</time></trkpt><trkpt lat="43.05636546852384" lon="2.238068777330263"><ele>249.2</ele><time>2026-04-05T09:09:19.014Z</time></trkpt><trkpt lat="43.05632844024747" lon="2.2381535524553673"><ele>250.0</ele><time>2026-04-05T09:09:20.014Z</time></trkpt><trkpt lat="43.05629411718999" lon="2.238225794352813"><ele>251.2</ele><time>2026-04-05T09:09:21.014Z</time></trkpt><trkpt lat="43.05623057678316" lon="2.2383454958729696"><ele>252.4</ele><time>2026-04-05T09:09:23.014Z</time></trkpt><trkpt lat="43.05616561773133" lon="2.2384550149423843"><ele>253.60000000000002</ele><time>2026-04-05T09:09:33.014Z</time></trkpt><trkpt lat="43.0561104761534" lon="2.238555989064208"><ele>254.8</ele><time>2026-04-05T09:09:34.014Z</time></trkpt><trkpt lat="43.05607449975767" lon="2.238686448358566"><ele>256.0</ele><time>2026-04-05T09:09:35.014Z</time></trkpt><trkpt lat="43.056042068111864" lon="2.2388004474633796"><ele>256.0</ele><time>2026-04-05T09:09:36.014Z</time></trkpt><trkpt lat="43.056029571545345" lon="2.238939423187506"><ele>256.0</ele><time>2026-04-05T09:09:37.014Z</time></trkpt><trkpt lat="43.056039821304545" lon="2.239113470011073"><ele>256.0</ele><time>2026-04-05T09:09:38.014Z</time></trkpt><trkpt lat="43.0560876720652" lon="2.239273319769905"><ele>256.0</ele><time>2026-04-05T09:09:39.014Z</time></trkpt><trkpt lat="43.05609379622823" lon="2.239383714977412"><ele>256.0</ele><time>2026-04-05T09:09:40.014Z</time></trkpt><trkpt lat="43.055980561192285" lon="2.2394117777456866"><ele>256.5</ele><time>2026-04-05T09:09:42.014Z</time></trkpt><trkpt lat="43.055912209587184" lon="2.239490354029639"><ele>257.0</ele><time>2026-04-05T09:09:43.014Z</time></trkpt><trkpt lat="43.055853296479874" lon="2.2395580790167506"><ele>257.5</ele><time>2026-04-05T09:09:44.014Z</time></trkpt><trkpt lat="43.055832418009146" lon="2.239665936388427"><ele>258.0</ele><time>2026-04-05T09:09:45.014Z</time></trkpt><trkpt lat="43.055822503511834" lon="2.2397511312172096"><ele>258.5</ele><time>2026-04-05T09:09:46.014Z</time></trkpt><trkpt lat="43.05582442294288" lon="2.2398556425202263"><ele>259.0</ele><time>2026-04-05T09:09:47.014Z</time></trkpt><trkpt lat="43.0558330108738" lon="2.2399776489509042"><ele>259.3333333333333</ele><time>2026-04-05T09:09:48.015Z</time></trkpt><trkpt lat="43.05586098779813" lon="2.24009657536185"><ele>259.66666666666663</ele><time>2026-04-05T09:09:49.015Z</time></trkpt><trkpt lat="43.05585715959379" lon="2.24020967829891"><ele>260.0</ele><time>2026-04-05T09:09:50.015Z</time></trkpt><trkpt lat="43.05582316497351" lon="2.2403192901772186"><ele>260.3333333333333</ele><time>2026-04-05T09:09:52.015Z</time></trkpt><trkpt lat="43.055752413915286" lon="2.240315547620993"><ele>260.6666666666667</ele><time>2026-04-05T09:09:54.015Z</time></trkpt><trkpt lat="43.0556540660265" lon="2.2403553904724802"><ele>261.0</ele><time>2026-04-05T09:09:56.015Z</time></trkpt><trkpt lat="43.055599273080844" lon="2.2404180897524286"><ele>262.1666666666667</ele><time>2026-04-05T09:09:57.015Z</time></trkpt><trkpt lat="43.055546137945534" lon="2.2404943555864034"><ele>263.3333333333333</ele><time>2026-04-05T09:09:58.015Z</time></trkpt><trkpt lat="43.05550614578704" lon="2.2405614354736985"><ele>264.5</ele><time>2026-04-05T09:09:59.015Z</time></trkpt><trkpt lat="43.05544721564847" lon="2.240711002344303"><ele>265.66666666666663</ele><time>2026-04-05T09:10:01.015Z</time></trkpt><trkpt lat="43.055411409792804" lon="2.240781919711939"><ele>266.8333333333333</ele><time>2026-04-05T09:10:02.015Z</time></trkpt><trkpt lat="43.055355670525906" lon="2.2409189370995746"><ele>268.0</ele><time>2026-04-05T09:10:04.015Z</time></trkpt><trkpt lat="43.05531799193336" lon="2.24099105739845"><ele>268.66666666666663</ele><time>2026-04-05T09:10:05.015Z</time></trkpt><trkpt lat="43.05527713889662" lon="2.2410754021210524"><ele>269.3333333333333</ele><time>2026-04-05T09:10:06.015Z</time></trkpt><trkpt lat="43.05523512511495" lon="2.241170204285334"><ele>270.0</ele><time>2026-04-05T09:10:07.015Z</time></trkpt><trkpt lat="43.05519468264546" lon="2.2412878108704666"><ele>270.6666666666667</ele><time>2026-04-05T09:10:08.015Z</time></trkpt><trkpt lat="43.05514596343825" lon="2.241405263093971"><ele>271.33333333333337</ele><time>2026-04-05T09:10:09.015Z</time></trkpt><trkpt lat="43.05511680127894" lon="2.241520156427367"><ele>272.0</ele><time>2026-04-05T09:10:10.015Z</time></trkpt><trkpt lat="43.055089359478515" lon="2.241637024059815"><ele>273.75</ele><time>2026-04-05T09:10:11.015Z</time></trkpt><trkpt lat="43.0550775107224" lon="2.2417465169778126"><ele>275.5</ele><time>2026-04-05T09:10:13.015Z</time></trkpt><trkpt lat="43.05527928400854" lon="2.2418480263041194"><ele>277.25</ele><time>2026-04-05T09:10:14.015Z</time></trkpt><trkpt lat="43.055386858461574" lon="2.2419514825844926"><ele>279.0</ele><time>2026-04-05T09:10:15.015Z</time></trkpt><trkpt lat="43.05549577417951" lon="2.242074477651726"><ele>279.0</ele><time>2026-04-05T09:10:16.015Z</time></trkpt><trkpt lat="43.055603583411816" lon="2.2422023588317463"><ele>279.0</ele><time>2026-04-05T09:10:17.015Z</time></trkpt><trkpt lat="43.05571537432788" lon="2.242349533637716"><ele>279.0</ele><time>2026-04-05T09:10:18.015Z</time></trkpt><trkpt lat="43.05581718288922" lon="2.2424659367335518"><ele>279.0</ele><time>2026-04-05T09:10:19.015Z</time></trkpt><trkpt lat="43.0559129789107" lon="2.24256776708323"><ele>279.0</ele><time>2026-04-05T09:10:20.015Z</time></trkpt><trkpt lat="43.056005825742076" lon="2.2426646500475447"><ele>279.0</ele><time>2026-04-05T09:10:21.016Z</time></trkpt><trkpt lat="43.056080767676825" lon="2.2427029011664925"><ele>279.0</ele><time>2026-04-05T09:10:22.016Z</time></trkpt><trkpt lat="43.0561483011875" lon="2.2427977170968387"><ele>279.0</ele><time>2026-04-05T09:10:23.016Z</time></trkpt><trkpt lat="43.05622693107943" lon="2.242897797665854"><ele>279.0</ele><time>2026-04-05T09:10:24.016Z</time></trkpt><trkpt lat="43.05629775576735" lon="2.2429541881060553"><ele>279.0</ele><time>2026-04-05T09:10:26.016Z</time></trkpt><trkpt lat="43.05637063379344" lon="2.242884635597791"><ele>279.0</ele><time>2026-04-05T09:10:28.016Z</time></trkpt><trkpt lat="43.05643901958171" lon="2.2427730936979264"><ele>279.0</ele><time>2026-04-05T09:10:29.016Z</time></trkpt><trkpt lat="43.05651110007804" lon="2.2426222487448895"><ele>279.0</ele><time>2026-04-05T09:10:30.016Z</time></trkpt><trkpt lat="43.05660981372291" lon="2.24245670629159"><ele>274.0</ele><time>2026-04-05T09:10:31.016Z</time></trkpt><trkpt lat="43.05674701942361" lon="2.2422623780841913"><ele>269.0</ele><time>2026-04-05T09:10:32.016Z</time></trkpt><trkpt lat="43.05689803646112" lon="2.2420485203606115"><ele>264.0</ele><time>2026-04-05T09:10:33.016Z</time></trkpt><trkpt lat="43.05701832541762" lon="2.241873508683375"><ele>264.0</ele><time>2026-04-05T09:10:34.016Z</time></trkpt><trkpt lat="43.057072979221665" lon="2.241785528074362"><ele>264.0</ele><time>2026-04-05T09:10:36.016Z</time></trkpt><trkpt lat="43.057123389809874" lon="2.2417055160636594"><ele>264.0</ele><time>2026-04-05T09:10:37.016Z</time></trkpt><trkpt lat="43.057213120934826" lon="2.241636437185169"><ele>264.0</ele><time>2026-04-05T09:10:39.016Z</time></trkpt><trkpt lat="43.05730109831446" lon="2.2416935534796862"><ele>264.0</ele><time>2026-04-05T09:10:41.016Z</time></trkpt><trkpt lat="43.05735773339239" lon="2.2417928610573785"><ele>264.0</ele><time>2026-04-05T09:10:43.016Z</time></trkpt><trkpt lat="43.057372224550264" lon="2.2416636222999458"><ele>264.0</ele><time>2026-04-05T09:10:47.016Z</time></trkpt><trkpt lat="43.05735135124297" lon="2.241553669048409"><ele>264.0</ele><time>2026-04-05T09:10:48.016Z</time></trkpt><trkpt lat="43.057382582275885" lon="2.2417087176118957"><ele>264.0</ele><time>2026-04-05T09:10:54.017Z</time></trkpt><trkpt lat="43.057406664144466" lon="2.2418160418277697"><ele>264.0</ele><time>2026-04-05T09:10:55.017Z</time></trkpt><trkpt lat="43.05742197274139" lon="2.2419160009082577"><ele>264.0</ele><time>2026-04-05T09:10:56.017Z</time></trkpt><trkpt lat="43.05743530869357" lon="2.2420400263813676"><ele>264.0</ele><time>2026-04-05T09:10:58.017Z</time></trkpt><trkpt lat="43.05747374030408" lon="2.242125099455258"><ele>264.0</ele><time>2026-04-05T09:10:59.017Z</time></trkpt><trkpt lat="43.05747689845076" lon="2.2422614372574032"><ele>264.0</ele><time>2026-04-05T09:11:00.017Z</time></trkpt><trkpt lat="43.05749304130256" lon="2.2423999373907706"><ele>264.0</ele><time>2026-04-05T09:11:01.017Z</time></trkpt><trkpt lat="43.05750927173869" lon="2.242510629084542"><ele>264.0</ele><time>2026-04-05T09:11:02.017Z</time></trkpt><trkpt lat="43.05756875542509" lon="2.242570563265467"><ele>262.25</ele><time>2026-04-05T09:11:03.017Z</time></trkpt><trkpt lat="43.05767556282988" lon="2.2426402472806317"><ele>260.5</ele><time>2026-04-05T09:11:04.017Z</time></trkpt><trkpt lat="43.05775922020179" lon="2.2427124972718735"><ele>258.75</ele><time>2026-04-05T09:11:05.017Z</time></trkpt><trkpt lat="43.05780279343746" lon="2.2428182601498334"><ele>257.0</ele><time>2026-04-05T09:11:06.017Z</time></trkpt><trkpt lat="43.05775182151603" lon="2.243009814639703"><ele>259.0</ele><time>2026-04-05T09:11:07.017Z</time></trkpt><trkpt lat="43.05772191652141" lon="2.2432014534963907"><ele>261.0</ele><time>2026-04-05T09:11:08.017Z</time></trkpt><trkpt lat="43.057707150207484" lon="2.243388844726866"><ele>263.0</ele><time>2026-04-05T09:11:09.017Z</time></trkpt><trkpt lat="43.05770370147121" lon="2.2435948885565766"><ele>265.0</ele><time>2026-04-05T09:11:10.017Z</time></trkpt><trkpt lat="43.057724728707974" lon="2.243734876492665"><ele>265.0</ele><time>2026-04-05T09:11:11.017Z</time></trkpt><trkpt lat="43.05771554796274" lon="2.243820115287736"><ele>265.0</ele><time>2026-04-05T09:11:12.017Z</time></trkpt><trkpt lat="43.057764082340384" lon="2.2440201264523343"><ele>265.0</ele><time>2026-04-05T09:11:13.017Z</time></trkpt><trkpt lat="43.057834999133405" lon="2.2441830878933677"><ele>265.0</ele><time>2026-04-05T09:11:14.017Z</time></trkpt><trkpt lat="43.05792121929741" lon="2.2443572968508123"><ele>267.66666666666663</ele><time>2026-04-05T09:11:15.017Z</time></trkpt><trkpt lat="43.05799268407142" lon="2.244554341017657"><ele>270.3333333333333</ele><time>2026-04-05T09:11:16.017Z</time></trkpt><trkpt lat="43.05806279241558" lon="2.244771057326947"><ele>273.0</ele><time>2026-04-05T09:11:17.017Z</time></trkpt><trkpt lat="43.05812721752708" lon="2.2449696680708846"><ele>275.0</ele><time>2026-04-05T09:11:18.017Z</time></trkpt><trkpt lat="43.05817450331244" lon="2.245165684957693"><ele>277.0</ele><time>2026-04-05T09:11:19.017Z</time></trkpt><trkpt lat="43.05821039594084" lon="2.245380915084984"><ele>279.0</ele><time>2026-04-05T09:11:20.017Z</time></trkpt><trkpt lat="43.05827580620943" lon="2.245557587229379"><ele>281.5</ele><time>2026-04-05T09:11:21.017Z</time></trkpt><trkpt lat="43.05835465063431" lon="2.245717792758049"><ele>284.0</ele><time>2026-04-05T09:11:22.017Z</time></trkpt><trkpt lat="43.05844889739645" lon="2.2459213870345462"><ele>286.5</ele><time>2026-04-05T09:11:23.017Z</time></trkpt><trkpt lat="43.058516804759286" lon="2.246066056680826"><ele>289.0</ele><time>2026-04-05T09:11:24.017Z</time></trkpt><trkpt lat="43.05851362197328" lon="2.246191554587608"><ele>289.0</ele><time>2026-04-05T09:11:25.017Z</time></trkpt><trkpt lat="43.0585280495093" lon="2.2462963903494124"><ele>289.0</ele><time>2026-04-05T09:11:26.017Z</time></trkpt><trkpt lat="43.05852606819038" lon="2.246409867962571"><ele>289.0</ele><time>2026-04-05T09:11:27.018Z</time></trkpt><trkpt lat="43.05851981944751" lon="2.246553265830299"><ele>289.0</ele><time>2026-04-05T09:11:28.018Z</time></trkpt><trkpt lat="43.05850918393033" lon="2.24671604309459"><ele>289.0</ele><time>2026-04-05T09:11:29.018Z</time></trkpt><trkpt lat="43.058498717988925" lon="2.2469061601204308"><ele>291.3333333333333</ele><time>2026-04-05T09:11:30.018Z</time></trkpt><trkpt lat="43.0584972813932" lon="2.247111304687091"><ele>293.6666666666667</ele><time>2026-04-05T09:11:31.018Z</time></trkpt><trkpt lat="43.05855360445082" lon="2.2472931471799282"><ele>296.0</ele><time>2026-04-05T09:11:32.018Z</time></trkpt><trkpt lat="43.05863117291918" lon="2.247522029381489"><ele>298.0</ele><time>2026-04-05T09:11:33.018Z</time></trkpt><trkpt lat="43.05872846369594" lon="2.2477759355977427"><ele>300.0</ele><time>2026-04-05T09:11:34.018Z</time></trkpt><trkpt lat="43.05878203941599" lon="2.247954901326991"><ele>302.0</ele><time>2026-04-05T09:11:35.018Z</time></trkpt><trkpt lat="43.058838103166494" lon="2.248107876663662"><ele>302.83333333333337</ele><time>2026-04-05T09:11:36.018Z</time></trkpt><trkpt lat="43.0588855465854" lon="2.248223700675354"><ele>303.6666666666667</ele><time>2026-04-05T09:11:37.018Z</time></trkpt><trkpt lat="43.05892552367289" lon="2.248332685327504"><ele>304.5</ele><time>2026-04-05T09:11:38.018Z</time></trkpt><trkpt lat="43.058961535727505" lon="2.2484346386947913"><ele>305.3333333333333</ele><time>2026-04-05T09:11:39.018Z</time></trkpt><trkpt lat="43.0589867578701" lon="2.2485264663095372"><ele>306.16666666666663</ele><time>2026-04-05T09:11:40.018Z</time></trkpt><trkpt lat="43.05901419694437" lon="2.2486050562023885"><ele>307.0</ele><time>2026-04-05T09:11:41.018Z</time></trkpt><trkpt lat="43.05899774742524" lon="2.2487097320491527"><ele>307.0</ele><time>2026-04-05T09:11:42.018Z</time></trkpt><trkpt lat="43.05898233885187" lon="2.248846971324382"><ele>307.0</ele><time>2026-04-05T09:11:43.018Z</time></trkpt><trkpt lat="43.058949226346535" lon="2.248968558696296"><ele>307.0</ele><time>2026-04-05T09:11:44.018Z</time></trkpt><trkpt lat="43.058909350268756" lon="2.249129570421875"><ele>307.0</ele><time>2026-04-05T09:11:45.018Z</time></trkpt><trkpt lat="43.05885057645335" lon="2.2492939480639516"><ele>307.5</ele><time>2026-04-05T09:11:46.018Z</time></trkpt><trkpt lat="43.058801833945466" lon="2.249463742916552"><ele>308.0</ele><time>2026-04-05T09:11:47.018Z</time></trkpt><trkpt lat="43.05874921715112" lon="2.2496360598767553"><ele>308.5</ele><time>2026-04-05T09:11:48.018Z</time></trkpt><trkpt lat="43.05870046275925" lon="2.2498069759376103"><ele>309.0</ele><time>2026-04-05T09:11:49.018Z</time></trkpt><trkpt lat="43.058643987206175" lon="2.249984641822717"><ele>307.25</ele><time>2026-04-05T09:11:50.018Z</time></trkpt><trkpt lat="43.0585895692519" lon="2.2501505381717317"><ele>305.5</ele><time>2026-04-05T09:11:51.018Z</time></trkpt><trkpt lat="43.0585337858817" lon="2.250301899836086"><ele>303.75</ele><time>2026-04-05T09:11:52.018Z</time></trkpt><trkpt lat="43.058469475947135" lon="2.2504722077075483"><ele>302.0</ele><time>2026-04-05T09:11:53.018Z</time></trkpt><trkpt lat="43.05841972770791" lon="2.2506264566258007"><ele>304.5</ele><time>2026-04-05T09:11:54.018Z</time></trkpt><trkpt lat="43.05837149626241" lon="2.250771455539995"><ele>307.0</ele><time>2026-04-05T09:11:55.018Z</time></trkpt><trkpt lat="43.05830324204852" lon="2.2509208162971808"><ele>309.5</ele><time>2026-04-05T09:11:56.018Z</time></trkpt><trkpt lat="43.058232772087365" lon="2.251083233028467"><ele>312.0</ele><time>2026-04-05T09:11:57.018Z</time></trkpt><trkpt lat="43.05815612643524" lon="2.251271010799543"><ele>307.6666666666667</ele><time>2026-04-05T09:11:58.018Z</time></trkpt><trkpt lat="43.05808033826857" lon="2.2514602800699373"><ele>303.33333333333337</ele><time>2026-04-05T09:11:59.018Z</time></trkpt><trkpt lat="43.057992759201085" lon="2.2516428348760207"><ele>299.0</ele><time>2026-04-05T09:12:00.018Z</time></trkpt><trkpt lat="43.05790502600379" lon="2.2518018048433404"><ele>299.0</ele><time>2026-04-05T09:12:01.019Z</time></trkpt><trkpt lat="43.05780521982474" lon="2.251955970968651"><ele>299.0</ele><time>2026-04-05T09:12:02.019Z</time></trkpt><trkpt lat="43.05771112078867" lon="2.252108400088887"><ele>299.0</ele><time>2026-04-05T09:12:03.019Z</time></trkpt><trkpt lat="43.05761780568992" lon="2.252256743284058"><ele>299.0</ele><time>2026-04-05T09:12:04.019Z</time></trkpt><trkpt lat="43.057533248664406" lon="2.2523642201623173"><ele>300.1666666666667</ele><time>2026-04-05T09:12:05.019Z</time></trkpt><trkpt lat="43.05747414986697" lon="2.2524333078566405"><ele>301.33333333333337</ele><time>2026-04-05T09:12:06.019Z</time></trkpt><trkpt lat="43.05742401850019" lon="2.252496570988784"><ele>302.5</ele><time>2026-04-05T09:12:07.019Z</time></trkpt><trkpt lat="43.057346762339556" lon="2.2526053988046706"><ele>303.6666666666667</ele><time>2026-04-05T09:12:09.019Z</time></trkpt><trkpt lat="43.057268405000094" lon="2.2527151501009293"><ele>304.8333333333333</ele><time>2026-04-05T09:12:11.019Z</time></trkpt><trkpt lat="43.05720676575973" lon="2.2527754737590056"><ele>306.0</ele><time>2026-04-05T09:12:13.019Z</time></trkpt><trkpt lat="43.057104714279646" lon="2.2528741692208922"><ele>306.0</ele><time>2026-04-05T09:12:15.019Z</time></trkpt><trkpt lat="43.0570433785396" lon="2.2529953568811365"><ele>306.0</ele><time>2026-04-05T09:12:17.019Z</time></trkpt><trkpt lat="43.05700583927546" lon="2.2530800527766597"><ele>306.0</ele><time>2026-04-05T09:12:18.019Z</time></trkpt><trkpt lat="43.0569557172257" lon="2.2531780298915822"><ele>306.0</ele><time>2026-04-05T09:12:19.019Z</time></trkpt><trkpt lat="43.056897929528326" lon="2.253278179980748"><ele>306.0</ele><time>2026-04-05T09:12:20.019Z</time></trkpt><trkpt lat="43.05685061868668" lon="2.2533711567081536"><ele>306.0</ele><time>2026-04-05T09:12:21.019Z</time></trkpt><trkpt lat="43.05682832640407" lon="2.2534517873968287"><ele>303.2</ele><time>2026-04-05T09:12:22.019Z</time></trkpt><trkpt lat="43.05681586223145" lon="2.253566083569284"><ele>300.40000000000003</ele><time>2026-04-05T09:12:24.019Z</time></trkpt><trkpt lat="43.05683697828754" lon="2.2536984485319245"><ele>297.6</ele><time>2026-04-05T09:12:26.019Z</time></trkpt><trkpt lat="43.056775206666686" lon="2.2538732947602056"><ele>294.8</ele><time>2026-04-05T09:12:28.019Z</time></trkpt><trkpt lat="43.05672919503071" lon="2.253977320621215"><ele>292.0</ele><time>2026-04-05T09:12:29.019Z</time></trkpt><trkpt lat="43.05667358521127" lon="2.254112079732931"><ele>294.5</ele><time>2026-04-05T09:12:30.019Z</time></trkpt><trkpt lat="43.0566024962285" lon="2.254227831329059"><ele>297.0</ele><time>2026-04-05T09:12:31.019Z</time></trkpt><trkpt lat="43.056493396148994" lon="2.2543102551975123"><ele>299.5</ele><time>2026-04-05T09:12:32.019Z</time></trkpt><trkpt lat="43.056354335103265" lon="2.2544035871704873"><ele>302.0</ele><time>2026-04-05T09:12:33.019Z</time></trkpt><trkpt lat="43.056214693690244" lon="2.2545209424799344"><ele>302.0</ele><time>2026-04-05T09:12:34.02Z</time></trkpt><trkpt lat="43.05608607924889" lon="2.2546420677732324"><ele>302.0</ele><time>2026-04-05T09:12:35.02Z</time></trkpt><trkpt lat="43.05596670296749" lon="2.2547674477259227"><ele>302.0</ele><time>2026-04-05T09:12:36.02Z</time></trkpt><trkpt lat="43.05585440273872" lon="2.254868382246098"><ele>302.0</ele><time>2026-04-05T09:12:37.02Z</time></trkpt><trkpt lat="43.05572839467947" lon="2.254985143326494"><ele>304.6666666666667</ele><time>2026-04-05T09:12:38.02Z</time></trkpt><trkpt lat="43.055618518411016" lon="2.255119520269621"><ele>307.3333333333333</ele><time>2026-04-05T09:12:39.02Z</time></trkpt><trkpt lat="43.05549807845618" lon="2.255265401219487"><ele>310.0</ele><time>2026-04-05T09:12:40.02Z</time></trkpt><trkpt lat="43.0553735971564" lon="2.2553886493716395"><ele>310.0</ele><time>2026-04-05T09:12:41.02Z</time></trkpt><trkpt lat="43.05525097843072" lon="2.2554931773934572"><ele>310.0</ele><time>2026-04-05T09:12:42.02Z</time></trkpt><trkpt lat="43.05511659550817" lon="2.2555808691843473"><ele>310.0</ele><time>2026-04-05T09:12:43.02Z</time></trkpt><trkpt lat="43.05501660801968" lon="2.2556246766141697"><ele>310.0</ele><time>2026-04-05T09:12:44.02Z</time></trkpt><trkpt lat="43.05494528882311" lon="2.255673937550884"><ele>310.8</ele><time>2026-04-05T09:12:45.02Z</time></trkpt><trkpt lat="43.05491300700145" lon="2.255790379341253"><ele>311.6</ele><time>2026-04-05T09:12:47.02Z</time></trkpt><trkpt lat="43.05490773402495" lon="2.2559355303356576"><ele>312.4</ele><time>2026-04-05T09:12:48.02Z</time></trkpt><trkpt lat="43.054887507061174" lon="2.256041729862015"><ele>313.2</ele><time>2026-04-05T09:12:49.02Z</time></trkpt><trkpt lat="43.05489269602744" lon="2.2561520638182366"><ele>314.0</ele><time>2026-04-05T09:12:50.02Z</time></trkpt><trkpt lat="43.05494425223865" lon="2.256299896041924"><ele>314.75</ele><time>2026-04-05T09:12:51.02Z</time></trkpt><trkpt lat="43.05499595599686" lon="2.25646428345636"><ele>315.5</ele><time>2026-04-05T09:12:52.02Z</time></trkpt><trkpt lat="43.05500387114352" lon="2.2566392603392385"><ele>316.25</ele><time>2026-04-05T09:12:53.02Z</time></trkpt><trkpt lat="43.05501614313488" lon="2.2568663613492754"><ele>317.0</ele><time>2026-04-05T09:12:54.02Z</time></trkpt><trkpt lat="43.0550414467942" lon="2.2570702688374604"><ele>317.0</ele><time>2026-04-05T09:12:55.02Z</time></trkpt><trkpt lat="43.055062257099635" lon="2.2572490868136676"><ele>317.0</ele><time>2026-04-05T09:12:56.02Z</time></trkpt><trkpt lat="43.05506821748297" lon="2.2574453365184284"><ele>317.0</ele><time>2026-04-05T09:12:57.02Z</time></trkpt><trkpt lat="43.055064069646185" lon="2.2576480560081698"><ele>317.0</ele><time>2026-04-05T09:12:58.02Z</time></trkpt><trkpt lat="43.055055073829045" lon="2.257820466678659"><ele>320.5</ele><time>2026-04-05T09:12:59.02Z</time></trkpt><trkpt lat="43.055048310364434" lon="2.2579821241061024"><ele>324.0</ele><time>2026-04-05T09:13:00.02Z</time></trkpt><trkpt lat="43.05504752490291" lon="2.2582032242932515"><ele>327.5</ele><time>2026-04-05T09:13:01.02Z</time></trkpt><trkpt lat="43.05503345740387" lon="2.2584089600620367"><ele>331.0</ele><time>2026-04-05T09:13:02.02Z</time></trkpt><trkpt lat="43.055037404817476" lon="2.2586299363963747"><ele>334.5</ele><time>2026-04-05T09:13:03.02Z</time></trkpt><trkpt lat="43.05503375111603" lon="2.258856606096234"><ele>338.0</ele><time>2026-04-05T09:13:04.02Z</time></trkpt><trkpt lat="43.05504882064548" lon="2.2590450866556964"><ele>341.5</ele><time>2026-04-05T09:13:05.02Z</time></trkpt><trkpt lat="43.05506808192801" lon="2.2591831188873854"><ele>345.0</ele><time>2026-04-05T09:13:06.02Z</time></trkpt><trkpt lat="43.055099231172996" lon="2.2592587062374228"><ele>348.2</ele><time>2026-04-05T09:13:07.021Z</time></trkpt><trkpt lat="43.055124305151985" lon="2.2593423820979384"><ele>351.4</ele><time>2026-04-05T09:13:20.021Z</time></trkpt><trkpt lat="43.05525174612578" lon="2.2591923567714924"><ele>354.6</ele><time>2026-04-05T09:13:22.021Z</time></trkpt><trkpt lat="43.055337475176216" lon="2.2590901731020625"><ele>357.8</ele><time>2026-04-05T09:13:23.021Z</time></trkpt><trkpt lat="43.05541326920207" lon="2.259001698816447"><ele>361.0</ele><time>2026-04-05T09:13:24.021Z</time></trkpt><trkpt lat="43.05547608372392" lon="2.2590297643187314"><ele>361.0</ele><time>2026-04-05T09:13:27.021Z</time></trkpt><trkpt lat="43.055425711851484" lon="2.2591847731841126"><ele>361.0</ele><time>2026-04-05T09:13:29.021Z</time></trkpt><trkpt lat="43.055377278703666" lon="2.2593310780147746"><ele>361.0</ele><time>2026-04-05T09:13:30.021Z</time></trkpt><trkpt lat="43.055324779188645" lon="2.2594529902235885"><ele>361.0</ele><time>2026-04-05T09:13:31.021Z</time></trkpt><trkpt lat="43.05526220434553" lon="2.2595699810720085"><ele>361.0</ele><time>2026-04-05T09:13:32.021Z</time></trkpt><trkpt lat="43.05518799353618" lon="2.2596922513955646"><ele>361.0</ele><time>2026-04-05T09:13:33.021Z</time></trkpt><trkpt lat="43.055136883311356" lon="2.259778027846841"><ele>361.0</ele><time>2026-04-05T09:13:34.021Z</time></trkpt><trkpt lat="43.055108377056534" lon="2.259908389560838"><ele>361.0</ele><time>2026-04-05T09:13:35.021Z</time></trkpt><trkpt lat="43.05510785808114" lon="2.260061931046585"><ele>361.0</ele><time>2026-04-05T09:13:36.021Z</time></trkpt><trkpt lat="43.05512002549654" lon="2.260205601470029"><ele>363.20000000000005</ele><time>2026-04-05T09:13:37.021Z</time></trkpt><trkpt lat="43.055169899758866" lon="2.2603478594876156"><ele>365.40000000000003</ele><time>2026-04-05T09:13:38.021Z</time></trkpt><trkpt lat="43.055215109618075" lon="2.2604892783965713"><ele>367.6</ele><time>2026-04-05T09:13:39.021Z</time></trkpt><trkpt lat="43.05524788183588" lon="2.2606227081604016"><ele>369.8</ele><time>2026-04-05T09:13:40.021Z</time></trkpt><trkpt lat="43.055257923581905" lon="2.260754513457725"><ele>372.0</ele><time>2026-04-05T09:13:41.022Z</time></trkpt><trkpt lat="43.05526694202618" lon="2.2608825333477856"><ele>372.0</ele><time>2026-04-05T09:13:42.022Z</time></trkpt><trkpt lat="43.055262720597966" lon="2.260970648265914"><ele>372.0</ele><time>2026-04-05T09:13:43.022Z</time></trkpt><trkpt lat="43.05525418452268" lon="2.2610841925389757"><ele>372.0</ele><time>2026-04-05T09:13:45.022Z</time></trkpt><trkpt lat="43.055229303132286" lon="2.261226010111026"><ele>372.0</ele><time>2026-04-05T09:13:47.022Z</time></trkpt><trkpt lat="43.055207722343155" lon="2.2613535920874015"><ele>372.0</ele><time>2026-04-05T09:13:48.022Z</time></trkpt><trkpt lat="43.05519165104371" lon="2.261477616220525"><ele>372.0</ele><time>2026-04-05T09:13:49.022Z</time></trkpt><trkpt lat="43.055173329901855" lon="2.2616074007013927"><ele>370.8</ele><time>2026-04-05T09:13:50.022Z</time></trkpt><trkpt lat="43.05515947526926" lon="2.261726252759214"><ele>369.6</ele><time>2026-04-05T09:13:51.022Z</time></trkpt><trkpt lat="43.05511008860952" lon="2.261883485423631"><ele>368.40000000000003</ele><time>2026-04-05T09:13:53.022Z</time></trkpt><trkpt lat="43.055077100739844" lon="2.261977377838315"><ele>367.20000000000005</ele><time>2026-04-05T09:13:54.022Z</time></trkpt><trkpt lat="43.05509264945049" lon="2.2621093707060447"><ele>366.0</ele><time>2026-04-05T09:13:56.022Z</time></trkpt><trkpt lat="43.05514556196383" lon="2.26230590580237"><ele>365.0</ele><time>2026-04-05T09:13:58.022Z</time></trkpt><trkpt lat="43.055175236561475" lon="2.2623946245511926"><ele>364.0</ele><time>2026-04-05T09:13:59.022Z</time></trkpt><trkpt lat="43.05521082262493" lon="2.2624846746321956"><ele>363.0</ele><time>2026-04-05T09:14:00.022Z</time></trkpt><trkpt lat="43.0552419823967" lon="2.262592746129923"><ele>362.0</ele><time>2026-04-05T09:14:01.022Z</time></trkpt><trkpt lat="43.05527160239374" lon="2.2627122649481355"><ele>361.0</ele><time>2026-04-05T09:14:02.022Z</time></trkpt><trkpt lat="43.05529572113958" lon="2.262864399256539"><ele>360.0</ele><time>2026-04-05T09:14:03.022Z</time></trkpt><trkpt lat="43.055320271956184" lon="2.262954051118087"><ele>360.0</ele><time>2026-04-05T09:14:04.022Z</time></trkpt><trkpt lat="43.05535400577064" lon="2.263047252987122"><ele>360.0</ele><time>2026-04-05T09:14:05.022Z</time></trkpt><trkpt lat="43.05540777611775" lon="2.2631974915094486"><ele>360.0</ele><time>2026-04-05T09:14:06.022Z</time></trkpt><trkpt lat="43.055472069479144" lon="2.263364394376224"><ele>360.0</ele><time>2026-04-05T09:14:07.022Z</time></trkpt><trkpt lat="43.055496362878046" lon="2.2634812953103274"><ele>360.0</ele><time>2026-04-05T09:14:08.022Z</time></trkpt><trkpt lat="43.05551366199975" lon="2.26361988594221"><ele>358.4</ele><time>2026-04-05T09:14:09.022Z</time></trkpt><trkpt lat="43.055537658533694" lon="2.263763072834836"><ele>356.8</ele><time>2026-04-05T09:14:10.022Z</time></trkpt><trkpt lat="43.05556695754648" lon="2.2638954791389208"><ele>355.20000000000005</ele><time>2026-04-05T09:14:11.022Z</time></trkpt><trkpt lat="43.055601536201856" lon="2.2639796135050263"><ele>353.6</ele><time>2026-04-05T09:14:12.022Z</time></trkpt><trkpt lat="43.05561877639405" lon="2.2640945930540983"><ele>352.0</ele><time>2026-04-05T09:14:14.023Z</time></trkpt><trkpt lat="43.05570893237915" lon="2.2640561357247004"><ele>349.6</ele><time>2026-04-05T09:14:17.023Z</time></trkpt><trkpt lat="43.05578788694534" lon="2.264061538341579"><ele>347.20000000000005</ele><time>2026-04-05T09:14:20.023Z</time></trkpt><trkpt lat="43.05571050443743" lon="2.264193187986228"><ele>344.8</ele><time>2026-04-05T09:14:25.023Z</time></trkpt><trkpt lat="43.0556482152415" lon="2.2642689229099844"><ele>342.4</ele><time>2026-04-05T09:14:26.023Z</time></trkpt><trkpt lat="43.05557749262751" lon="2.2643194984742827"><ele>340.0</ele><time>2026-04-05T09:14:27.023Z</time></trkpt><trkpt lat="43.05547936849775" lon="2.264366611650314"><ele>340.0</ele><time>2026-04-05T09:14:28.023Z</time></trkpt><trkpt lat="43.055362476449154" lon="2.2643998846465574"><ele>340.0</ele><time>2026-04-05T09:14:29.023Z</time></trkpt><trkpt lat="43.05525102219881" lon="2.264435774179407"><ele>340.0</ele><time>2026-04-05T09:14:30.023Z</time></trkpt><trkpt lat="43.055145754801295" lon="2.2644933451242633"><ele>340.0</ele><time>2026-04-05T09:14:31.023Z</time></trkpt><trkpt lat="43.05502220111869" lon="2.264563870069562"><ele>340.25</ele><time>2026-04-05T09:14:32.023Z</time></trkpt><trkpt lat="43.05489035514853" lon="2.264633230429733"><ele>340.5</ele><time>2026-04-05T09:14:33.023Z</time></trkpt><trkpt lat="43.05475559409255" lon="2.264707159157921"><ele>340.75</ele><time>2026-04-05T09:14:34.023Z</time></trkpt><trkpt lat="43.054609300712244" lon="2.264796220102012"><ele>341.0</ele><time>2026-04-05T09:14:35.023Z</time></trkpt><trkpt lat="43.054464405429314" lon="2.2648637481904452"><ele>341.0</ele><time>2026-04-05T09:14:36.023Z</time></trkpt><trkpt lat="43.054334406886305" lon="2.2649134274533527"><ele>341.0</ele><time>2026-04-05T09:14:37.023Z</time></trkpt><trkpt lat="43.054181074900725" lon="2.2649690327723633"><ele>341.0</ele><time>2026-04-05T09:14:38.023Z</time></trkpt><trkpt lat="43.05403225221892" lon="2.265023889958377"><ele>341.0</ele><time>2026-04-05T09:14:39.023Z</time></trkpt><trkpt lat="43.05387688906912" lon="2.265095138140372"><ele>344.0</ele><time>2026-04-05T09:14:40.023Z</time></trkpt><trkpt lat="43.05372721167484" lon="2.2651912579933504"><ele>347.0</ele><time>2026-04-05T09:14:41.023Z</time></trkpt><trkpt lat="43.05361779568682" lon="2.2652650880218284"><ele>350.0</ele><time>2026-04-05T09:14:42.023Z</time></trkpt><trkpt lat="43.05353744213129" lon="2.2653329853202835"><ele>353.0</ele><time>2026-04-05T09:14:43.023Z</time></trkpt><trkpt lat="43.05346219825836" lon="2.2653648179302035"><ele>353.0</ele><time>2026-04-05T09:14:44.023Z</time></trkpt><trkpt lat="43.05337553409261" lon="2.2653809398958753"><ele>353.0</ele><time>2026-04-05T09:14:45.023Z</time></trkpt><trkpt lat="43.05330637407445" lon="2.2653634010506862"><ele>353.0</ele><time>2026-04-05T09:14:46.023Z</time></trkpt><trkpt lat="43.05323858367541" lon="2.2653153184946646"><ele>353.0</ele><time>2026-04-05T09:14:47.024Z</time></trkpt><trkpt lat="43.05314349889364" lon="2.2652151370684583"><ele>353.0</ele><time>2026-04-05T09:14:49.024Z</time></trkpt><trkpt lat="43.05307977722495" lon="2.265187727656981"><ele>353.0</ele><time>2026-04-05T09:14:51.024Z</time></trkpt><trkpt lat="43.05304996353451" lon="2.265083691858521"><ele>351.4</ele><time>2026-04-05T09:14:54.024Z</time></trkpt><trkpt lat="43.05299502115781" lon="2.264979364872962"><ele>349.79999999999995</ele><time>2026-04-05T09:14:56.024Z</time></trkpt><trkpt lat="43.05291850303417" lon="2.265003472365911"><ele>348.2</ele><time>2026-04-05T09:14:57.024Z</time></trkpt><trkpt lat="43.052860983754705" lon="2.2649081853732413"><ele>346.6</ele><time>2026-04-05T09:14:59.024Z</time></trkpt><trkpt lat="43.05281828468434" lon="2.264840147883299"><ele>345.0</ele><time>2026-04-05T09:15:01.024Z</time></trkpt><trkpt lat="43.05270271397585" lon="2.2647597343723085"><ele>344.6666666666667</ele><time>2026-04-05T09:15:10.024Z</time></trkpt><trkpt lat="43.05261149293423" lon="2.2647600706293423"><ele>344.3333333333333</ele><time>2026-04-05T09:15:12.024Z</time></trkpt><trkpt lat="43.0525134869903" lon="2.264767997565386"><ele>344.0</ele><time>2026-04-05T09:15:15.024Z</time></trkpt><trkpt lat="43.052418791603195" lon="2.2647994674037197"><ele>343.66666666666663</ele><time>2026-04-05T09:15:17.024Z</time></trkpt><trkpt lat="43.0523609951832" lon="2.264841027105452"><ele>343.3333333333333</ele><time>2026-04-05T09:15:19.024Z</time></trkpt><trkpt lat="43.052289985558254" lon="2.2648611601284463"><ele>343.0</ele><time>2026-04-05T09:15:25.025Z</time></trkpt><trkpt lat="43.05238335191324" lon="2.2648803553123478"><ele>340.4</ele><time>2026-04-05T09:15:34.025Z</time></trkpt><trkpt lat="43.05233462003861" lon="2.2649779083087593"><ele>337.79999999999995</ele><time>2026-04-05T09:15:36.025Z</time></trkpt><trkpt lat="43.05225619714422" lon="2.2650754527346506"><ele>335.2</ele><time>2026-04-05T09:15:38.025Z</time></trkpt><trkpt lat="43.052205922181074" lon="2.2651339315451424"><ele>332.6</ele><time>2026-04-05T09:15:39.025Z</time></trkpt><trkpt lat="43.05207570021988" lon="2.2649599274858896"><ele>330.0</ele><time>2026-04-05T09:15:40.025Z</time></trkpt><trkpt lat="43.05232164854848" lon="2.264829170416155"><ele>330.0</ele><time>2026-04-05T09:15:41.025Z</time></trkpt><trkpt lat="43.05230903526441" lon="2.2650311256177575"><ele>330.0</ele><time>2026-04-05T09:15:42.025Z</time></trkpt><trkpt lat="43.05226335635719" lon="2.2650909770045713"><ele>330.0</ele><time>2026-04-05T09:15:43.025Z</time></trkpt><trkpt lat="43.052224630232686" lon="2.2652170168565515"><ele>330.0</ele><time>2026-04-05T09:15:45.025Z</time></trkpt><trkpt lat="43.05216716955652" lon="2.265319038561758"><ele>330.0</ele><time>2026-04-05T09:15:47.025Z</time></trkpt><trkpt lat="43.05212308875324" lon="2.26545259139795"><ele>330.0</ele><time>2026-04-05T09:15:49.025Z</time></trkpt><trkpt lat="43.05210536596682" lon="2.2655440747291484"><ele>330.0</ele><time>2026-04-05T09:15:50.025Z</time></trkpt><trkpt lat="43.052078071378695" lon="2.265629445289878"><ele>330.0</ele><time>2026-04-05T09:15:51.025Z</time></trkpt><trkpt lat="43.05206367959118" lon="2.26579047303789"><ele>330.0</ele><time>2026-04-05T09:15:53.025Z</time></trkpt><trkpt lat="43.052047169820945" lon="2.2658873684208496"><ele>330.0</ele><time>2026-04-05T09:15:54.026Z</time></trkpt><trkpt lat="43.05204597944705" lon="2.265974658573836"><ele>330.0</ele><time>2026-04-05T09:15:55.026Z</time></trkpt><trkpt lat="43.05204733220621" lon="2.26606512032784"><ele>333.0</ele><time>2026-04-05T09:15:56.026Z</time></trkpt><trkpt lat="43.052035917311805" lon="2.2662133073716086"><ele>336.0</ele><time>2026-04-05T09:15:58.026Z</time></trkpt><trkpt lat="43.05204071997009" lon="2.266324808555268"><ele>339.0</ele><time>2026-04-05T09:16:00.026Z</time></trkpt><trkpt lat="43.052052250225586" lon="2.2664448713432233"><ele>342.0</ele><time>2026-04-05T09:16:02.026Z</time></trkpt><trkpt lat="43.05205383368356" lon="2.266614403515223"><ele>345.0</ele><time>2026-04-05T09:16:04.026Z</time></trkpt><trkpt lat="43.05206088837148" lon="2.266744369124402"><ele>346.1666666666667</ele><time>2026-04-05T09:16:06.026Z</time></trkpt><trkpt lat="43.052082132331186" lon="2.2669057226092195"><ele>347.3333333333333</ele><time>2026-04-05T09:16:08.026Z</time></trkpt><trkpt lat="43.05210891746187" lon="2.2670034817978104"><ele>348.5</ele><time>2026-04-05T09:16:09.026Z</time></trkpt><trkpt lat="43.052131537514995" lon="2.2670995318408886"><ele>349.66666666666663</ele><time>2026-04-05T09:16:10.026Z</time></trkpt><trkpt lat="43.05215013990969" lon="2.2672214128357506"><ele>350.8333333333333</ele><time>2026-04-05T09:16:12.026Z</time></trkpt><trkpt lat="43.05218985470502" lon="2.267294041839641"><ele>352.0</ele><time>2026-04-05T09:16:13.026Z</time></trkpt><trkpt lat="43.05227909059905" lon="2.267399160571587"><ele>352.20000000000005</ele><time>2026-04-05T09:16:15.026Z</time></trkpt><trkpt lat="43.05234420609656" lon="2.267477256266041"><ele>352.4</ele><time>2026-04-05T09:16:17.026Z</time></trkpt><trkpt lat="43.052419873106395" lon="2.267573973422486"><ele>352.6</ele><time>2026-04-05T09:16:20.026Z</time></trkpt><trkpt lat="43.05250653290429" lon="2.2676604698366924"><ele>352.79999999999995</ele><time>2026-04-05T09:16:22.026Z</time></trkpt><trkpt lat="43.052547005774414" lon="2.267757265887608"><ele>353.0</ele><time>2026-04-05T09:16:24.026Z</time></trkpt><trkpt lat="43.05264715769582" lon="2.2678116733375546"><ele>355.1666666666667</ele><time>2026-04-05T09:16:26.026Z</time></trkpt><trkpt lat="43.05273578546396" lon="2.267766117374846"><ele>357.33333333333337</ele><time>2026-04-05T09:16:29.027Z</time></trkpt><trkpt lat="43.05280025135796" lon="2.267776238669671"><ele>359.5</ele><time>2026-04-05T09:16:31.027Z</time></trkpt><trkpt lat="43.05286035727327" lon="2.26773994546994"><ele>361.6666666666667</ele><time>2026-04-05T09:16:34.027Z</time></trkpt><trkpt lat="43.05288830254437" lon="2.267627429142027"><ele>363.8333333333333</ele><time>2026-04-05T09:16:36.027Z</time></trkpt><trkpt lat="43.05294746729169" lon="2.2675456835410266"><ele>366.0</ele><time>2026-04-05T09:16:38.027Z</time></trkpt><trkpt lat="43.05303304346032" lon="2.2675302092224996"><ele>366.0</ele><time>2026-04-05T09:16:40.027Z</time></trkpt><trkpt lat="43.05311009195061" lon="2.2675211844649144"><ele>366.0</ele><time>2026-04-05T09:16:42.027Z</time></trkpt><trkpt lat="43.053170283605375" lon="2.267456568624746"><ele>366.0</ele><time>2026-04-05T09:16:44.027Z</time></trkpt><trkpt lat="43.053232308070655" lon="2.267410680659848"><ele>366.0</ele><time>2026-04-05T09:16:47.027Z</time></trkpt><trkpt lat="43.05327337147644" lon="2.2672734008434348"><ele>366.0</ele><time>2026-04-05T09:16:50.027Z</time></trkpt><trkpt lat="43.05332405591193" lon="2.267327481824341"><ele>366.0</ele><time>2026-04-05T09:16:52.027Z</time></trkpt><trkpt lat="43.0533895042991" lon="2.2675250796242543"><ele>366.20000000000005</ele><time>2026-04-05T09:16:54.027Z</time></trkpt><trkpt lat="43.053411233365686" lon="2.2676569596630345"><ele>366.40000000000003</ele><time>2026-04-05T09:16:55.027Z</time></trkpt><trkpt lat="43.05342095486752" lon="2.267806724214257"><ele>366.6</ele><time>2026-04-05T09:16:56.027Z</time></trkpt><trkpt lat="43.053440361957534" lon="2.2679646109056057"><ele>366.8</ele><time>2026-04-05T09:16:57.027Z</time></trkpt><trkpt lat="43.05344968601128" lon="2.268095808218697"><ele>367.0</ele><time>2026-04-05T09:16:58.027Z</time></trkpt><trkpt lat="43.05346167069046" lon="2.2682581055538673"><ele>368.3333333333333</ele><time>2026-04-05T09:16:59.027Z</time></trkpt><trkpt lat="43.05348000856455" lon="2.268395484155777"><ele>369.6666666666667</ele><time>2026-04-05T09:17:00.027Z</time></trkpt><trkpt lat="43.05352876610989" lon="2.268571451577892"><ele>371.0</ele><time>2026-04-05T09:17:01.028Z</time></trkpt><trkpt lat="43.05360053535035" lon="2.2688622276762933"><ele>371.6666666666667</ele><time>2026-04-05T09:17:02.028Z</time></trkpt><trkpt lat="43.05366529241343" lon="2.2691448527682216"><ele>372.3333333333333</ele><time>2026-04-05T09:17:03.028Z</time></trkpt><trkpt lat="43.05374422758063" lon="2.2694141599622575"><ele>373.0</ele><time>2026-04-05T09:17:04.028Z</time></trkpt><trkpt lat="43.05381027827471" lon="2.2696406301678076"><ele>371.75</ele><time>2026-04-05T09:17:05.028Z</time></trkpt><trkpt lat="43.0538700799682" lon="2.2698273064902055"><ele>370.5</ele><time>2026-04-05T09:17:06.028Z</time></trkpt><trkpt lat="43.05392128803665" lon="2.2699940301494808"><ele>369.25</ele><time>2026-04-05T09:17:07.028Z</time></trkpt><trkpt lat="43.05394164316627" lon="2.270159479979283"><ele>368.0</ele><time>2026-04-05T09:17:08.028Z</time></trkpt><trkpt lat="43.053966596259" lon="2.2702960342164227"><ele>368.0</ele><time>2026-04-05T09:17:09.028Z</time></trkpt><trkpt lat="43.053983062334396" lon="2.270407456856829"><ele>368.0</ele><time>2026-04-05T09:17:10.028Z</time></trkpt><trkpt lat="43.054005263326694" lon="2.2705212282799923"><ele>368.0</ele><time>2026-04-05T09:17:11.028Z</time></trkpt><trkpt lat="43.054037737542515" lon="2.2706402162549275"><ele>368.0</ele><time>2026-04-05T09:17:12.028Z</time></trkpt><trkpt lat="43.05407786177023" lon="2.270773560612794"><ele>368.0</ele><time>2026-04-05T09:17:13.028Z</time></trkpt><trkpt lat="43.05411518887402" lon="2.270930397968158"><ele>371.0</ele><time>2026-04-05T09:17:14.028Z</time></trkpt><trkpt lat="43.05413647931185" lon="2.271076694526945"><ele>374.0</ele><time>2026-04-05T09:17:15.028Z</time></trkpt><trkpt lat="43.05416230838181" lon="2.2712147768392024"><ele>377.0</ele><time>2026-04-05T09:17:16.028Z</time></trkpt><trkpt lat="43.05418771372824" lon="2.2713506419390126"><ele>380.0</ele><time>2026-04-05T09:17:17.028Z</time></trkpt><trkpt lat="43.05420359530036" lon="2.2714868133234196"><ele>383.0</ele><time>2026-04-05T09:17:18.028Z</time></trkpt><trkpt lat="43.054213554502866" lon="2.271639953675438"><ele>383.5</ele><time>2026-04-05T09:17:19.028Z</time></trkpt><trkpt lat="43.054220469724605" lon="2.271764422653386"><ele>384.0</ele><time>2026-04-05T09:17:20.028Z</time></trkpt><trkpt lat="43.05421561478851" lon="2.2718890098850064"><ele>384.5</ele><time>2026-04-05T09:17:21.028Z</time></trkpt><trkpt lat="43.05421705575692" lon="2.2720148438123595"><ele>385.0</ele><time>2026-04-05T09:17:22.028Z</time></trkpt><trkpt lat="43.0542216110253" lon="2.2721159677213723"><ele>385.49999999999994</ele><time>2026-04-05T09:17:23.028Z</time></trkpt><trkpt lat="43.05423621422464" lon="2.2722237555011606"><ele>386.0</ele><time>2026-04-05T09:17:24.028Z</time></trkpt><trkpt lat="43.054245257747006" lon="2.2723325541624058"><ele>386.6</ele><time>2026-04-05T09:17:25.028Z</time></trkpt><trkpt lat="43.05424390107582" lon="2.2724297121791395"><ele>387.20000000000005</ele><time>2026-04-05T09:17:26.028Z</time></trkpt><trkpt lat="43.05423430831427" lon="2.2725564921200694"><ele>387.79999999999995</ele><time>2026-04-05T09:17:28.028Z</time></trkpt><trkpt lat="43.054233850713814" lon="2.2726457328846204"><ele>388.4</ele><time>2026-04-05T09:17:29.028Z</time></trkpt><trkpt lat="43.05425475297338" lon="2.272840176747957"><ele>389.0</ele><time>2026-04-05T09:17:31.028Z</time></trkpt><trkpt lat="43.05424566969343" lon="2.272944473875174"><ele>388.99999999999994</ele><time>2026-04-05T09:17:32.028Z</time></trkpt><trkpt lat="43.05424121633262" lon="2.2730381966627276"><ele>389.0</ele><time>2026-04-05T09:17:33.028Z</time></trkpt><trkpt lat="43.05424214648661" lon="2.273137270270298"><ele>389.0</ele><time>2026-04-05T09:17:34.029Z</time></trkpt><trkpt lat="43.05418812577103" lon="2.273306803475215"><ele>389.0</ele><time>2026-04-05T09:17:36.029Z</time></trkpt><trkpt lat="43.05419045048423" lon="2.2734080134320687"><ele>388.99999999999994</ele><time>2026-04-05T09:17:37.029Z</time></trkpt><trkpt lat="43.054206686104415" lon="2.2734982089044293"><ele>389.0</ele><time>2026-04-05T09:17:38.029Z</time></trkpt><trkpt lat="43.054239761359796" lon="2.2735885081051626"><ele>388.66666666666663</ele><time>2026-04-05T09:17:39.029Z</time></trkpt><trkpt lat="43.05426408152297" lon="2.273687217100641"><ele>388.3333333333333</ele><time>2026-04-05T09:17:40.029Z</time></trkpt><trkpt lat="43.054306527703446" lon="2.2737543587379254"><ele>388.0</ele><time>2026-04-05T09:17:41.029Z</time></trkpt><trkpt lat="43.054411067712486" lon="2.273800284290709"><ele>387.66666666666663</ele><time>2026-04-05T09:17:43.029Z</time></trkpt><trkpt lat="43.05446988632415" lon="2.2738636412495405"><ele>387.3333333333333</ele><time>2026-04-05T09:17:46.029Z</time></trkpt><trkpt lat="43.054571808179254" lon="2.2739411635440328"><ele>387.0</ele><time>2026-04-05T09:17:48.029Z</time></trkpt><trkpt lat="43.05464411710808" lon="2.2740033940439712"><ele>386.5</ele><time>2026-04-05T09:17:49.029Z</time></trkpt><trkpt lat="43.05471048287727" lon="2.274085528367203"><ele>386.0</ele><time>2026-04-05T09:17:51.029Z</time></trkpt><trkpt lat="43.054810586715966" lon="2.2741577302686493"><ele>385.5</ele><time>2026-04-05T09:17:54.029Z</time></trkpt><trkpt lat="43.05487265970596" lon="2.274212657037814"><ele>385.0</ele><time>2026-04-05T09:17:55.029Z</time></trkpt><trkpt lat="43.054926231107395" lon="2.274277435441239"><ele>384.5</ele><time>2026-04-05T09:17:56.029Z</time></trkpt><trkpt lat="43.05499275861833" lon="2.274345066548831"><ele>384.0</ele><time>2026-04-05T09:17:57.029Z</time></trkpt><trkpt lat="43.05508778045738" lon="2.2744201884489805"><ele>384.0</ele><time>2026-04-05T09:17:58.029Z</time></trkpt><trkpt lat="43.05516053131665" lon="2.2744819250326573"><ele>384.0</ele><time>2026-04-05T09:17:59.029Z</time></trkpt><trkpt lat="43.05504723354501" lon="2.2744035503662308"><ele>384.0</ele><time>2026-04-05T09:18:04.029Z</time></trkpt><trkpt lat="43.05496480685519" lon="2.2743459501093715"><ele>384.0</ele><time>2026-04-05T09:18:05.029Z</time></trkpt><trkpt lat="43.05490844105482" lon="2.27427904100452"><ele>384.0</ele><time>2026-04-05T09:18:06.029Z</time></trkpt><trkpt lat="43.05483797839134" lon="2.2741866039738885"><ele>384.0</ele><time>2026-04-05T09:18:08.03Z</time></trkpt><trkpt lat="43.05477749826435" lon="2.2741553016639067"><ele>384.0</ele><time>2026-04-05T09:18:10.03Z</time></trkpt><trkpt lat="43.05471188769664" lon="2.2742685504147926"><ele>384.0</ele><time>2026-04-05T09:18:12.03Z</time></trkpt><trkpt lat="43.05461287150101" lon="2.2743388592125076"><ele>384.0</ele><time>2026-04-05T09:18:19.03Z</time></trkpt><trkpt lat="43.054549322176086" lon="2.2744019819931025"><ele>384.0</ele><time>2026-04-05T09:18:22.03Z</time></trkpt><trkpt lat="43.05448217642619" lon="2.274435302290664"><ele>384.0</ele><time>2026-04-05T09:18:24.03Z</time></trkpt><trkpt lat="43.05440719288265" lon="2.2744996343474178"><ele>383.99999999999994</ele><time>2026-04-05T09:18:27.03Z</time></trkpt><trkpt lat="43.05437286224156" lon="2.2746018614780095"><ele>384.0</ele><time>2026-04-05T09:18:31.03Z</time></trkpt><trkpt lat="43.05434178840652" lon="2.2746792905876485"><ele>384.0</ele><time>2026-04-05T09:18:38.03Z</time></trkpt><trkpt lat="43.05439190502497" lon="2.2746011239886186"><ele>384.0</ele><time>2026-04-05T09:18:56.031Z</time></trkpt><trkpt lat="43.054463472369" lon="2.274547022809454"><ele>384.0</ele><time>2026-04-05T09:19:04.031Z</time></trkpt><trkpt lat="43.05451722291087" lon="2.2745018478551593"><ele>383.99999999999994</ele><time>2026-04-05T09:19:06.031Z</time></trkpt><trkpt lat="43.05459174004056" lon="2.2744600982217804"><ele>384.0</ele><time>2026-04-05T09:19:10.031Z</time></trkpt><trkpt lat="43.05462901482501" lon="2.2743829644175437"><ele>384.0</ele><time>2026-04-05T09:19:13.031Z</time></trkpt><trkpt lat="43.05468046486125" lon="2.274331924665664"><ele>384.0</ele><time>2026-04-05T09:19:17.032Z</time></trkpt><trkpt lat="43.054783210005176" lon="2.2742633946624333"><ele>384.0</ele><time>2026-04-05T09:19:20.032Z</time></trkpt><trkpt lat="43.054859362981425" lon="2.2743095873897956"><ele>384.0</ele><time>2026-04-05T09:19:22.032Z</time></trkpt><trkpt lat="43.05491099305031" lon="2.2743616608162673"><ele>384.0</ele><time>2026-04-05T09:19:23.032Z</time></trkpt><trkpt lat="43.054988685782476" lon="2.2744401094078603"><ele>384.0</ele><time>2026-04-05T09:19:24.032Z</time></trkpt><trkpt lat="43.05508267817387" lon="2.2745134616962988"><ele>383.4</ele><time>2026-04-05T09:19:25.032Z</time></trkpt><trkpt lat="43.05517632669804" lon="2.2745847998323647"><ele>382.79999999999995</ele><time>2026-04-05T09:19:26.032Z</time></trkpt><trkpt lat="43.0552714879322" lon="2.274645488227415"><ele>382.20000000000005</ele><time>2026-04-05T09:19:27.032Z</time></trkpt><trkpt lat="43.05537554098976" lon="2.2747028450298803"><ele>381.6</ele><time>2026-04-05T09:19:28.032Z</time></trkpt><trkpt lat="43.05548869797632" lon="2.2747632106055873"><ele>381.0</ele><time>2026-04-05T09:19:29.032Z</time></trkpt><trkpt lat="43.05561614234582" lon="2.2748215774389"><ele>380.5</ele><time>2026-04-05T09:19:30.032Z</time></trkpt><trkpt lat="43.05575296341487" lon="2.2748789127162117"><ele>380.0</ele><time>2026-04-05T09:19:31.032Z</time></trkpt><trkpt lat="43.055898704981296" lon="2.274961826364739"><ele>379.5</ele><time>2026-04-05T09:19:32.032Z</time></trkpt><trkpt lat="43.05601950690618" lon="2.2750389089192153"><ele>379.0</ele><time>2026-04-05T09:19:33.032Z</time></trkpt><trkpt lat="43.05611420044716" lon="2.2750930655775985"><ele>379.00000000000006</ele><time>2026-04-05T09:19:34.032Z</time></trkpt><trkpt lat="43.056040624580845" lon="2.275032248254927"><ele>379.0</ele><time>2026-04-05T09:19:49.033Z</time></trkpt><trkpt lat="43.05597565683767" lon="2.275029738658595"><ele>379.0</ele><time>2026-04-05T09:19:50.033Z</time></trkpt><trkpt lat="43.05591143820527" lon="2.275044747549322"><ele>379.0</ele><time>2026-04-05T09:19:51.033Z</time></trkpt><trkpt lat="43.055847399911485" lon="2.2750648905054316"><ele>379.0</ele><time>2026-04-05T09:19:52.033Z</time></trkpt><trkpt lat="43.055776603019375" lon="2.275078956748855"><ele>379.00000000000006</ele><time>2026-04-05T09:19:53.033Z</time></trkpt><trkpt lat="43.055686454311925" lon="2.2750978758164697"><ele>379.0</ele><time>2026-04-05T09:19:54.033Z</time></trkpt><trkpt lat="43.05560310703255" lon="2.2751188691217266"><ele>379.0</ele><time>2026-04-05T09:19:55.033Z</time></trkpt><trkpt lat="43.05552366464291" lon="2.2751324032831737"><ele>379.0</ele><time>2026-04-05T09:19:56.033Z</time></trkpt><trkpt lat="43.05543951624791" lon="2.2751417055216896"><ele>379.0</ele><time>2026-04-05T09:19:57.033Z</time></trkpt><trkpt lat="43.05536208206734" lon="2.2751480352112567"><ele>379.0</ele><time>2026-04-05T09:19:58.033Z</time></trkpt><trkpt lat="43.055296019676696" lon="2.2751415400826964"><ele>379.0</ele><time>2026-04-05T09:19:59.033Z</time></trkpt><trkpt lat="43.0552196367415" lon="2.2751256522505368"><ele>379.0</ele><time>2026-04-05T09:20:00.033Z</time></trkpt><trkpt lat="43.055143099045374" lon="2.27509569701765"><ele>379.0</ele><time>2026-04-05T09:20:01.033Z</time></trkpt><trkpt lat="43.05506359173801" lon="2.275094809431722"><ele>379.0</ele><time>2026-04-05T09:20:02.033Z</time></trkpt><trkpt lat="43.05497206182186" lon="2.2751077195958103"><ele>379.0</ele><time>2026-04-05T09:20:03.033Z</time></trkpt><trkpt lat="43.05488768593113" lon="2.2751135725275606"><ele>379.0</ele><time>2026-04-05T09:20:04.033Z</time></trkpt><trkpt lat="43.05480718893492" lon="2.275139277163533"><ele>379.0</ele><time>2026-04-05T09:20:06.033Z</time></trkpt><trkpt lat="43.05475853072167" lon="2.275208952497073"><ele>379.0</ele><time>2026-04-05T09:20:07.033Z</time></trkpt><trkpt lat="43.054710636814725" lon="2.2753318860459886"><ele>378.4</ele><time>2026-04-05T09:20:10.033Z</time></trkpt><trkpt lat="43.054674994217606" lon="2.2754106873484665"><ele>377.79999999999995</ele><time>2026-04-05T09:20:11.033Z</time></trkpt><trkpt lat="43.0546319482581" lon="2.275488579700201"><ele>377.20000000000005</ele><time>2026-04-05T09:20:12.033Z</time></trkpt><trkpt lat="43.054568121773016" lon="2.2756641428405215"><ele>376.6</ele><time>2026-04-05T09:20:14.033Z</time></trkpt><trkpt lat="43.05453236089891" lon="2.275790068301976"><ele>376.0</ele><time>2026-04-05T09:20:15.033Z</time></trkpt><trkpt lat="43.0544919815426" lon="2.27590782182394"><ele>373.4</ele><time>2026-04-05T09:20:16.033Z</time></trkpt><trkpt lat="43.054423291637576" lon="2.275985245035521"><ele>370.8</ele><time>2026-04-05T09:20:19.033Z</time></trkpt><trkpt lat="43.05440608072303" lon="2.276085488100348"><ele>368.2</ele><time>2026-04-05T09:20:21.034Z</time></trkpt><trkpt lat="43.05439025951624" lon="2.2762483338526445"><ele>365.59999999999997</ele><time>2026-04-05T09:20:23.034Z</time></trkpt><trkpt lat="43.05437964331702" lon="2.276388399366787"><ele>363.0</ele><time>2026-04-05T09:20:24.034Z</time></trkpt><trkpt lat="43.05434305799116" lon="2.276526787264696"><ele>361.2</ele><time>2026-04-05T09:20:25.034Z</time></trkpt><trkpt lat="43.05431914945374" lon="2.2766401650137116"><ele>359.4</ele><time>2026-04-05T09:20:26.034Z</time></trkpt><trkpt lat="43.054318733104225" lon="2.2767362446215342"><ele>357.59999999999997</ele><time>2026-04-05T09:20:27.034Z</time></trkpt><trkpt lat="43.05434275657028" lon="2.276846322529475"><ele>355.79999999999995</ele><time>2026-04-05T09:20:28.034Z</time></trkpt><trkpt lat="43.05435458320895" lon="2.2769972858972625"><ele>354.0</ele><time>2026-04-05T09:20:29.034Z</time></trkpt><trkpt lat="43.054348507296126" lon="2.277156625334501"><ele>353.2</ele><time>2026-04-05T09:20:30.034Z</time></trkpt><trkpt lat="43.05433882791872" lon="2.2773048753178284"><ele>352.4</ele><time>2026-04-05T09:20:31.034Z</time></trkpt><trkpt lat="43.05433149416458" lon="2.2774425822511897"><ele>351.6</ele><time>2026-04-05T09:20:32.034Z</time></trkpt><trkpt lat="43.0543091737641" lon="2.2775787316921745"><ele>350.8</ele><time>2026-04-05T09:20:33.034Z</time></trkpt><trkpt lat="43.054292618857616" lon="2.277704797013552"><ele>350.0</ele><time>2026-04-05T09:20:34.034Z</time></trkpt><trkpt lat="43.05427963842472" lon="2.2778193122533956"><ele>350.0</ele><time>2026-04-05T09:20:35.034Z</time></trkpt><trkpt lat="43.05429824334165" lon="2.277954113403768"><ele>350.0</ele><time>2026-04-05T09:20:36.034Z</time></trkpt><trkpt lat="43.05431996528166" lon="2.27812328629422"><ele>350.0</ele><time>2026-04-05T09:20:38.034Z</time></trkpt><trkpt lat="43.05431855170653" lon="2.278262723769993"><ele>350.0</ele><time>2026-04-05T09:20:39.034Z</time></trkpt><trkpt lat="43.05430328503601" lon="2.2783787896691416"><ele>350.0</ele><time>2026-04-05T09:20:40.034Z</time></trkpt><trkpt lat="43.0542816871844" lon="2.278508599301657"><ele>348.5</ele><time>2026-04-05T09:20:41.034Z</time></trkpt><trkpt lat="43.054272831961136" lon="2.278616428263057"><ele>347.0</ele><time>2026-04-05T09:20:42.034Z</time></trkpt><trkpt lat="43.05425612744699" lon="2.278737362509532"><ele>345.5</ele><time>2026-04-05T09:20:43.034Z</time></trkpt><trkpt lat="43.05422521471975" lon="2.2788469526144346"><ele>344.0</ele><time>2026-04-05T09:20:44.034Z</time></trkpt><trkpt lat="43.05420771528473" lon="2.278951259124907"><ele>342.5</ele><time>2026-04-05T09:20:45.034Z</time></trkpt><trkpt lat="43.05419205775963" lon="2.2790579674279643"><ele>341.0</ele><time>2026-04-05T09:20:46.034Z</time></trkpt><trkpt lat="43.05416947615969" lon="2.27915751965229"><ele>339.6</ele><time>2026-04-05T09:20:47.034Z</time></trkpt><trkpt lat="43.05414495424522" lon="2.27928995755239"><ele>338.20000000000005</ele><time>2026-04-05T09:20:48.034Z</time></trkpt><trkpt lat="43.05412168649682" lon="2.2794141965625605"><ele>336.79999999999995</ele><time>2026-04-05T09:20:49.034Z</time></trkpt><trkpt lat="43.054096495851525" lon="2.279554434693515"><ele>335.4</ele><time>2026-04-05T09:20:50.034Z</time></trkpt><trkpt lat="43.05407689717867" lon="2.279677536576028"><ele>334.0</ele><time>2026-04-05T09:20:51.034Z</time></trkpt><trkpt lat="43.05405957157269" lon="2.279794135705568"><ele>332.0</ele><time>2026-04-05T09:20:52.034Z</time></trkpt><trkpt lat="43.05404133756245" lon="2.279911037631317"><ele>330.0</ele><time>2026-04-05T09:20:53.034Z</time></trkpt><trkpt lat="43.05402218691937" lon="2.280023274601086"><ele>328.0</ele><time>2026-04-05T09:20:54.035Z</time></trkpt><trkpt lat="43.05400159191059" lon="2.2801312443354322"><ele>326.0</ele><time>2026-04-05T09:20:55.035Z</time></trkpt><trkpt lat="43.05398833525816" lon="2.280237652393463"><ele>324.0</ele><time>2026-04-05T09:20:56.035Z</time></trkpt><trkpt lat="43.05401401114702" lon="2.280389860075495"><ele>322.0</ele><time>2026-04-05T09:20:58.035Z</time></trkpt><trkpt lat="43.05410621292179" lon="2.2804226036388604"><ele>322.16666666666663</ele><time>2026-04-05T09:21:00.035Z</time></trkpt><trkpt lat="43.054169654091275" lon="2.280380848010171"><ele>322.3333333333333</ele><time>2026-04-05T09:21:01.035Z</time></trkpt><trkpt lat="43.054244389872395" lon="2.280302623174774"><ele>322.5</ele><time>2026-04-05T09:21:02.035Z</time></trkpt><trkpt lat="43.05432756430557" lon="2.280247200735544"><ele>322.6666666666667</ele><time>2026-04-05T09:21:03.035Z</time></trkpt><trkpt lat="43.05438662011001" lon="2.2802165380471506"><ele>322.83333333333337</ele><time>2026-04-05T09:21:04.035Z</time></trkpt><trkpt lat="43.054462842946194" lon="2.2802443182681325"><ele>323.0</ele><time>2026-04-05T09:21:06.035Z</time></trkpt><trkpt lat="43.054468370263905" lon="2.2803707586299167"><ele>323.0</ele><time>2026-04-05T09:21:08.035Z</time></trkpt><trkpt lat="43.05446584278137" lon="2.280468090680672"><ele>323.0</ele><time>2026-04-05T09:21:09.035Z</time></trkpt><trkpt lat="43.054453250202" lon="2.2805946740478036"><ele>323.0</ele><time>2026-04-05T09:21:10.035Z</time></trkpt><trkpt lat="43.05444283774722" lon="2.2806963054207543"><ele>323.0</ele><time>2026-04-05T09:21:11.035Z</time></trkpt><trkpt lat="43.05442302146528" lon="2.2808589592889446"><ele>323.0</ele><time>2026-04-05T09:21:13.035Z</time></trkpt><trkpt lat="43.054401520591774" lon="2.280940683593029"><ele>323.0</ele><time>2026-04-05T09:21:14.035Z</time></trkpt><trkpt lat="43.05437152117251" lon="2.2810313107856404"><ele>321.5</ele><time>2026-04-05T09:21:15.035Z</time></trkpt><trkpt lat="43.05433152687041" lon="2.2811227970857564"><ele>320.0</ele><time>2026-04-05T09:21:16.035Z</time></trkpt><trkpt lat="43.05428780769607" lon="2.281210204969399"><ele>318.5</ele><time>2026-04-05T09:21:17.035Z</time></trkpt><trkpt lat="43.054256990491595" lon="2.2812879878384833"><ele>317.0</ele><time>2026-04-05T09:21:18.035Z</time></trkpt><trkpt lat="43.054218546990946" lon="2.2813612963314167"><ele>315.5</ele><time>2026-04-05T09:21:20.035Z</time></trkpt><trkpt lat="43.054144348625485" lon="2.281408675629309"><ele>314.0</ele><time>2026-04-05T09:21:22.035Z</time></trkpt><trkpt lat="43.05404514925852" lon="2.281403955185468"><ele>312.83333333333337</ele><time>2026-04-05T09:21:24.035Z</time></trkpt><trkpt lat="43.05399185628874" lon="2.2814965931830793"><ele>311.6666666666667</ele><time>2026-04-05T09:21:26.035Z</time></trkpt><trkpt lat="43.05402395266393" lon="2.2816211124303116"><ele>310.5</ele><time>2026-04-05T09:21:28.036Z</time></trkpt><trkpt lat="43.05405386223219" lon="2.2816976293424824"><ele>309.3333333333333</ele><time>2026-04-05T09:21:29.036Z</time></trkpt><trkpt lat="43.05407785386048" lon="2.281875377665493"><ele>308.16666666666663</ele><time>2026-04-05T09:21:31.036Z</time></trkpt><trkpt lat="43.05410740678541" lon="2.2819607508559443"><ele>307.0</ele><time>2026-04-05T09:21:32.036Z</time></trkpt><trkpt lat="43.05416314703645" lon="2.2820123026069394"><ele>307.0</ele><time>2026-04-05T09:21:33.036Z</time></trkpt><trkpt lat="43.05422505011063" lon="2.282044368451323"><ele>307.0</ele><time>2026-04-05T09:21:35.036Z</time></trkpt><trkpt lat="43.05414554953997" lon="2.2821005017247398"><ele>307.0</ele><time>2026-04-05T09:21:38.036Z</time></trkpt><trkpt lat="43.05405074242144" lon="2.28219160976178"><ele>307.0</ele><time>2026-04-05T09:21:40.036Z</time></trkpt><trkpt lat="43.05400081227224" lon="2.2822571627136585"><ele>307.0</ele><time>2026-04-05T09:21:41.036Z</time></trkpt><trkpt lat="43.053944644360165" lon="2.2823224584034434"><ele>307.0</ele><time>2026-04-05T09:21:42.036Z</time></trkpt><trkpt lat="43.05386167741481" lon="2.2824223230462097"><ele>305.4</ele><time>2026-04-05T09:21:44.036Z</time></trkpt><trkpt lat="43.05378919840058" lon="2.282494159133671"><ele>303.79999999999995</ele><time>2026-04-05T09:21:46.036Z</time></trkpt><trkpt lat="43.053688687057964" lon="2.28256357592258"><ele>302.2</ele><time>2026-04-05T09:21:47.994Z</time></trkpt><trkpt lat="43.053586559518415" lon="2.282626583075836"><ele>300.59999999999997</ele><time>2026-04-05T09:21:49.994Z</time></trkpt><trkpt lat="43.05350657239995" lon="2.2825972804981522"><ele>299.0</ele><time>2026-04-05T09:21:51.992Z</time></trkpt><trkpt lat="43.05343236393869" lon="2.2825288937406825"><ele>299.0</ele><time>2026-04-05T09:21:53.99Z</time></trkpt><trkpt lat="43.05345612715807" lon="2.2823949034280475"><ele>299.0</ele><time>2026-04-05T09:21:55.987Z</time></trkpt><trkpt lat="43.053472922371164" lon="2.282281380294799"><ele>299.0</ele><time>2026-04-05T09:21:56.986Z</time></trkpt><trkpt lat="43.05346787101879" lon="2.282174515452047"><ele>299.0</ele><time>2026-04-05T09:21:57.986Z</time></trkpt><trkpt lat="43.053455938344946" lon="2.28205911198039"><ele>299.0</ele><time>2026-04-05T09:21:58.985Z</time></trkpt><trkpt lat="43.053449037662986" lon="2.281951094263783"><ele>299.0</ele><time>2026-04-05T09:21:59.984Z</time></trkpt><trkpt lat="43.053424332072076" lon="2.2818636995516908"><ele>300.33333333333337</ele><time>2026-04-05T09:22:00.983Z</time></trkpt><trkpt lat="43.05335744770128" lon="2.2817902991687853"><ele>301.6666666666667</ele><time>2026-04-05T09:22:02.982Z</time></trkpt><trkpt lat="43.0533063301815" lon="2.281705276474995"><ele>303.0</ele><time>2026-04-05T09:22:04.98Z</time></trkpt><trkpt lat="43.053260124477085" lon="2.2816404084555995"><ele>304.3333333333333</ele><time>2026-04-05T09:22:05.98Z</time></trkpt><trkpt lat="43.053181656309086" lon="2.2815322392609576"><ele>305.66666666666663</ele><time>2026-04-05T09:22:07.979Z</time></trkpt><trkpt lat="43.05314572122836" lon="2.281454104214406"><ele>307.0</ele><time>2026-04-05T09:22:10.978Z</time></trkpt><trkpt lat="43.05310789693382" lon="2.281346750286829"><ele>307.99999999999994</ele><time>2026-04-05T09:22:12.977Z</time></trkpt><trkpt lat="43.053089478597" lon="2.2812138948230616"><ele>309.0</ele><time>2026-04-05T09:22:14.976Z</time></trkpt><trkpt lat="43.05308893853893" lon="2.281127401872766"><ele>310.0</ele><time>2026-04-05T09:22:16.976Z</time></trkpt><trkpt lat="43.05306940721774" lon="2.2810299877629525"><ele>311.0</ele><time>2026-04-05T09:22:20.975Z</time></trkpt><trkpt lat="43.05312044117784" lon="2.2809622152103173"><ele>312.0</ele><time>2026-04-05T09:22:33.968Z</time></trkpt><trkpt lat="43.05318729851584" lon="2.280931292258691"><ele>312.99999999999994</ele><time>2026-04-05T09:22:35.968Z</time></trkpt><trkpt lat="43.05324556947455" lon="2.2808836960163426"><ele>314.0</ele><time>2026-04-05T09:22:37.968Z</time></trkpt><trkpt lat="43.05331291079847" lon="2.2808436055832386"><ele>314.0</ele><time>2026-04-05T09:22:39.968Z</time></trkpt><trkpt lat="43.053388943810106" lon="2.2808006241565555"><ele>314.0</ele><time>2026-04-05T09:22:41.968Z</time></trkpt><trkpt lat="43.053431211974626" lon="2.280730504743613"><ele>314.0</ele><time>2026-04-05T09:22:45.967Z</time></trkpt><trkpt lat="43.05333999066234" lon="2.2807445594029105"><ele>314.0</ele><time>2026-04-05T09:22:49.967Z</time></trkpt><trkpt lat="43.053235466702816" lon="2.2808111077602713"><ele>314.0</ele><time>2026-04-05T09:22:51.967Z</time></trkpt><trkpt lat="43.053126242788046" lon="2.280859245683981"><ele>315.79999999999995</ele><time>2026-04-05T09:22:53.967Z</time></trkpt><trkpt lat="43.05303953726708" lon="2.280897317288605"><ele>317.59999999999997</ele><time>2026-04-05T09:22:55.967Z</time></trkpt><trkpt lat="43.05295480804739" lon="2.2809233014640555"><ele>319.4</ele><time>2026-04-05T09:22:57.967Z</time></trkpt><trkpt lat="43.05290441716787" lon="2.2808205604224048"><ele>321.2</ele><time>2026-04-05T09:23:00.967Z</time></trkpt><trkpt lat="43.05290624101369" lon="2.2807134765306394"><ele>323.0</ele><time>2026-04-05T09:23:01.967Z</time></trkpt><trkpt lat="43.052964633650134" lon="2.2805502541055525"><ele>323.0</ele><time>2026-04-05T09:23:03.967Z</time></trkpt><trkpt lat="43.0529988977593" lon="2.280471187823581"><ele>323.0</ele><time>2026-04-05T09:23:04.967Z</time></trkpt><trkpt lat="43.05303987043833" lon="2.2803612954978343"><ele>323.0</ele><time>2026-04-05T09:23:06.967Z</time></trkpt><trkpt lat="43.053066930730544" lon="2.2802629118272866"><ele>323.0</ele><time>2026-04-05T09:23:09.967Z</time></trkpt><trkpt lat="43.05310364946671" lon="2.280144433078516"><ele>323.0</ele><time>2026-04-05T09:23:11.967Z</time></trkpt><trkpt lat="43.0531458940406" lon="2.2800333393498793"><ele>323.0</ele><time>2026-04-05T09:23:13.967Z</time></trkpt><trkpt lat="43.053189893817944" lon="2.2799264956435894"><ele>323.00000000000006</ele><time>2026-04-05T09:23:16.967Z</time></trkpt><trkpt lat="43.05322839979119" lon="2.2798539248062992"><ele>323.0</ele><time>2026-04-05T09:23:18.967Z</time></trkpt><trkpt lat="43.0532987762653" lon="2.2797876814412548"><ele>323.0</ele><time>2026-04-05T09:23:21.967Z</time></trkpt><trkpt lat="43.05336363056582" lon="2.2797519303950864"><ele>323.0</ele><time>2026-04-05T09:23:24.967Z</time></trkpt><trkpt lat="43.05342904205929" lon="2.2797277550110464"><ele>323.0</ele><time>2026-04-05T09:23:26.967Z</time></trkpt><trkpt lat="43.05351719945312" lon="2.2797084410114756"><ele>323.00000000000006</ele><time>2026-04-05T09:23:28.967Z</time></trkpt><trkpt lat="43.05357412529613" lon="2.279657922933047"><ele>323.0</ele><time>2026-04-05T09:23:30.967Z</time></trkpt><trkpt lat="43.0536171602733" lon="2.2795308867740194"><ele>324.42857142857144</ele><time>2026-04-05T09:23:32.967Z</time></trkpt><trkpt lat="43.05365798744098" lon="2.2794434666699552"><ele>325.8571428571429</ele><time>2026-04-05T09:23:34.967Z</time></trkpt><trkpt lat="43.053696023083674" lon="2.279338708720122"><ele>327.28571428571433</ele><time>2026-04-05T09:23:36.967Z</time></trkpt><trkpt lat="43.05368141332368" lon="2.2792397655402485"><ele>328.7142857142857</ele><time>2026-04-05T09:23:38.967Z</time></trkpt><trkpt lat="43.053619499730864" lon="2.279191519348192"><ele>330.1428571428571</ele><time>2026-04-05T09:23:40.967Z</time></trkpt><trkpt lat="43.05355679559503" lon="2.2791775485973496"><ele>331.5714285714286</ele><time>2026-04-05T09:23:41.967Z</time></trkpt><trkpt lat="43.05349259683147" lon="2.2791585741287435"><ele>333.0</ele><time>2026-04-05T09:23:42.967Z</time></trkpt><trkpt lat="43.05342420462387" lon="2.279125776273926"><ele>333.0</ele><time>2026-04-05T09:23:43.967Z</time></trkpt><trkpt lat="43.05334709449786" lon="2.279102796601292"><ele>333.0</ele><time>2026-04-05T09:23:44.967Z</time></trkpt><trkpt lat="43.05328301280136" lon="2.2790785755203187"><ele>333.0</ele><time>2026-04-05T09:23:45.967Z</time></trkpt><trkpt lat="43.05322097370708" lon="2.279059045667057"><ele>333.0</ele><time>2026-04-05T09:23:46.967Z</time></trkpt><trkpt lat="43.05315191975763" lon="2.2790388008986397"><ele>333.0</ele><time>2026-04-05T09:23:49.967Z</time></trkpt><trkpt lat="43.053128505346294" lon="2.2791296010972295"><ele>333.0</ele><time>2026-04-05T09:23:51.967Z</time></trkpt><trkpt lat="43.05312532270509" lon="2.279232561327332"><ele>333.0</ele><time>2026-04-05T09:23:52.967Z</time></trkpt><trkpt lat="43.053100781434054" lon="2.2793520270275156"><ele>331.2</ele><time>2026-04-05T09:23:53.967Z</time></trkpt><trkpt lat="43.053057866274365" lon="2.2794699814882393"><ele>329.4</ele><time>2026-04-05T09:23:54.967Z</time></trkpt><trkpt lat="43.053011682820106" lon="2.2796012769080667"><ele>327.59999999999997</ele><time>2026-04-05T09:23:55.968Z</time></trkpt><trkpt lat="43.052965910815836" lon="2.2797381614201506"><ele>325.79999999999995</ele><time>2026-04-05T09:23:56.968Z</time></trkpt><trkpt lat="43.05292427991409" lon="2.279859027532531"><ele>324.0</ele><time>2026-04-05T09:23:57.968Z</time></trkpt><trkpt lat="43.05288594233432" lon="2.27996964329765"><ele>323.8333333333333</ele><time>2026-04-05T09:23:58.968Z</time></trkpt><trkpt lat="43.052847489607416" lon="2.280077126857236"><ele>323.6666666666667</ele><time>2026-04-05T09:23:59.968Z</time></trkpt><trkpt lat="43.05281136338667" lon="2.280187262688222"><ele>323.5</ele><time>2026-04-05T09:24:00.968Z</time></trkpt><trkpt lat="43.05278415869267" lon="2.280279533378843"><ele>323.33333333333337</ele><time>2026-04-05T09:24:01.968Z</time></trkpt><trkpt lat="43.05275505398867" lon="2.280368145988485"><ele>323.1666666666667</ele><time>2026-04-05T09:24:02.968Z</time></trkpt><trkpt lat="43.05272764389804" lon="2.2804526550694644"><ele>323.0</ele><time>2026-04-05T09:24:03.968Z</time></trkpt><trkpt lat="43.0526942630276" lon="2.2805510738053996"><ele>323.0</ele><time>2026-04-05T09:24:04.968Z</time></trkpt><trkpt lat="43.05265784780957" lon="2.2806610010192654"><ele>323.0</ele><time>2026-04-05T09:24:05.968Z</time></trkpt><trkpt lat="43.05263593828215" lon="2.280742596725793"><ele>323.0</ele><time>2026-04-05T09:24:06.968Z</time></trkpt><trkpt lat="43.052614503283934" lon="2.2808292431001664"><ele>323.0</ele><time>2026-04-05T09:24:07.968Z</time></trkpt><trkpt lat="43.05257949495252" lon="2.2809596687266476"><ele>323.0</ele><time>2026-04-05T09:24:09.968Z</time></trkpt><trkpt lat="43.052538297252" lon="2.281057853260922"><ele>323.0</ele><time>2026-04-05T09:24:11.968Z</time></trkpt><trkpt lat="43.052585290464584" lon="2.2808980221803714"><ele>323.0</ele><time>2026-04-05T09:24:16.968Z</time></trkpt><trkpt lat="43.05260874903165" lon="2.2808055481044645"><ele>323.0</ele><time>2026-04-05T09:24:17.968Z</time></trkpt><trkpt lat="43.052639451398704" lon="2.280705365241729"><ele>323.0</ele><time>2026-04-05T09:24:18.968Z</time></trkpt><trkpt lat="43.05267507327989" lon="2.280603848120643"><ele>323.0</ele><time>2026-04-05T09:24:19.968Z</time></trkpt><trkpt lat="43.05271142985101" lon="2.2804888222154616"><ele>323.0</ele><time>2026-04-05T09:24:20.968Z</time></trkpt><trkpt lat="43.052733123287716" lon="2.280386351143063"><ele>323.0</ele><time>2026-04-05T09:24:21.968Z</time></trkpt><trkpt lat="43.052759718176546" lon="2.280304252605212"><ele>323.0</ele><time>2026-04-05T09:24:22.968Z</time></trkpt><trkpt lat="43.0528318716765" lon="2.28012281019883"><ele>323.0</ele><time>2026-04-05T09:24:24.968Z</time></trkpt><trkpt lat="43.05287025981509" lon="2.2799998349411528"><ele>323.0</ele><time>2026-04-05T09:24:25.968Z</time></trkpt><trkpt lat="43.05292491550558" lon="2.279848399915531"><ele>323.0</ele><time>2026-04-05T09:24:26.968Z</time></trkpt><trkpt lat="43.05297841094158" lon="2.2797107991890333"><ele>323.1666666666667</ele><time>2026-04-05T09:24:27.968Z</time></trkpt><trkpt lat="43.053019898139326" lon="2.279598480943754"><ele>323.33333333333337</ele><time>2026-04-05T09:24:28.968Z</time></trkpt><trkpt lat="43.05305322594886" lon="2.279485663111478"><ele>323.5</ele><time>2026-04-05T09:24:29.968Z</time></trkpt><trkpt lat="43.053068310379444" lon="2.2793995753367993"><ele>323.6666666666667</ele><time>2026-04-05T09:24:30.968Z</time></trkpt><trkpt lat="43.0531064715005" lon="2.2792800949999896"><ele>323.8333333333333</ele><time>2026-04-05T09:24:31.968Z</time></trkpt><trkpt lat="43.05314166448155" lon="2.2791636472094643"><ele>324.0</ele><time>2026-04-05T09:24:32.968Z</time></trkpt><trkpt lat="43.05316585939592" lon="2.279081920111698"><ele>324.0</ele><time>2026-04-05T09:24:33.968Z</time></trkpt><trkpt lat="43.053178966125074" lon="2.2789609987885613"><ele>324.0</ele><time>2026-04-05T09:24:35.968Z</time></trkpt><trkpt lat="43.053192649477765" lon="2.278860691342326"><ele>324.0</ele><time>2026-04-05T09:24:36.968Z</time></trkpt><trkpt lat="43.053209185615806" lon="2.2787502314974364"><ele>324.0</ele><time>2026-04-05T09:24:37.968Z</time></trkpt><trkpt lat="43.05321034505233" lon="2.278629064749674"><ele>324.0</ele><time>2026-04-05T09:24:38.964Z</time></trkpt><trkpt lat="43.053186441070906" lon="2.278506515322629"><ele>324.0</ele><time>2026-04-05T09:24:39.964Z</time></trkpt><trkpt lat="43.05314239971381" lon="2.2783774236108423"><ele>324.8333333333333</ele><time>2026-04-05T09:24:40.964Z</time></trkpt><trkpt lat="43.05310656659316" lon="2.278261276246886"><ele>325.6666666666667</ele><time>2026-04-05T09:24:41.965Z</time></trkpt><trkpt lat="43.05308260203972" lon="2.2781378265195342"><ele>326.5</ele><time>2026-04-05T09:24:42.964Z</time></trkpt><trkpt lat="43.053082652629854" lon="2.2780214078438457"><ele>327.33333333333337</ele><time>2026-04-05T09:24:43.964Z</time></trkpt><trkpt lat="43.05309967828838" lon="2.2779122699147174"><ele>328.1666666666667</ele><time>2026-04-05T09:24:44.965Z</time></trkpt><trkpt lat="43.05312615146583" lon="2.277813578189832"><ele>329.0</ele><time>2026-04-05T09:24:45.964Z</time></trkpt><trkpt lat="43.05313859637956" lon="2.2777148298799417"><ele>330.4</ele><time>2026-04-05T09:24:46.964Z</time></trkpt><trkpt lat="43.05311507230227" lon="2.2775531846687005"><ele>331.79999999999995</ele><time>2026-04-05T09:24:48.964Z</time></trkpt><trkpt lat="43.05307525063209" lon="2.277475135883549"><ele>333.20000000000005</ele><time>2026-04-05T09:24:49.964Z</time></trkpt><trkpt lat="43.05300997125071" lon="2.2773872910794313"><ele>334.6</ele><time>2026-04-05T09:24:50.964Z</time></trkpt><trkpt lat="43.05292271775745" lon="2.2772770445876875"><ele>336.0</ele><time>2026-04-05T09:24:51.965Z</time></trkpt><trkpt lat="43.05283895725485" lon="2.2771789959249675"><ele>336.0</ele><time>2026-04-05T09:24:52.965Z</time></trkpt><trkpt lat="43.052751207095824" lon="2.2771003416381363"><ele>336.0</ele><time>2026-04-05T09:24:53.965Z</time></trkpt><trkpt lat="43.05269894850549" lon="2.2770158612561873"><ele>336.0</ele><time>2026-04-05T09:24:54.965Z</time></trkpt><trkpt lat="43.052673274331255" lon="2.2769260010049455"><ele>336.0</ele><time>2026-04-05T09:24:55.965Z</time></trkpt><trkpt lat="43.05266868660884" lon="2.2768341423128877"><ele>336.0</ele><time>2026-04-05T09:24:56.965Z</time></trkpt><trkpt lat="43.05268923288814" lon="2.2767309470376684"><ele>336.0</ele><time>2026-04-05T09:24:57.965Z</time></trkpt><trkpt lat="43.05271062668465" lon="2.2766285858832704"><ele>336.0</ele><time>2026-04-05T09:24:58.965Z</time></trkpt><trkpt lat="43.05270844672103" lon="2.2765165693259695"><ele>336.0</ele><time>2026-04-05T09:24:59.965Z</time></trkpt><trkpt lat="43.05267881276041" lon="2.2764019892050817"><ele>336.0</ele><time>2026-04-05T09:25:00.965Z</time></trkpt><trkpt lat="43.052680048641534" lon="2.2762244843542527"><ele>336.0</ele><time>2026-04-05T09:25:02.965Z</time></trkpt><trkpt lat="43.05269025210995" lon="2.276131428823728"><ele>336.0</ele><time>2026-04-05T09:25:03.965Z</time></trkpt><trkpt lat="43.052708493600036" lon="2.276026712166013"><ele>336.0</ele><time>2026-04-05T09:25:04.965Z</time></trkpt><trkpt lat="43.05271775419186" lon="2.2759217681176653"><ele>335.3333333333333</ele><time>2026-04-05T09:25:05.965Z</time></trkpt><trkpt lat="43.05271543236276" lon="2.275812141213456"><ele>334.6666666666667</ele><time>2026-04-05T09:25:06.965Z</time></trkpt><trkpt lat="43.0527304906095" lon="2.275722307983664"><ele>334.0</ele><time>2026-04-05T09:25:07.965Z</time></trkpt><trkpt lat="43.05282685122739" lon="2.2756268571912455"><ele>333.33333333333337</ele><time>2026-04-05T09:25:09.965Z</time></trkpt><trkpt lat="43.052895445546675" lon="2.2756126854054757"><ele>332.6666666666667</ele><time>2026-04-05T09:25:10.965Z</time></trkpt><trkpt lat="43.05296627633412" lon="2.275575593474024"><ele>332.0</ele><time>2026-04-05T09:25:11.965Z</time></trkpt><trkpt lat="43.05301573204465" lon="2.2755190935643186"><ele>333.33333333333337</ele><time>2026-04-05T09:25:12.965Z</time></trkpt><trkpt lat="43.05306822413742" lon="2.275399310391068"><ele>334.6666666666667</ele><time>2026-04-05T09:25:14.965Z</time></trkpt><trkpt lat="43.05314684949988" lon="2.2754262021632132"><ele>336.0</ele><time>2026-04-05T09:25:16.965Z</time></trkpt><trkpt lat="43.05320517153275" lon="2.2754822055632586"><ele>337.3333333333333</ele><time>2026-04-05T09:25:17.965Z</time></trkpt><trkpt lat="43.053286723791814" lon="2.275544553380859"><ele>338.66666666666663</ele><time>2026-04-05T09:25:18.965Z</time></trkpt><trkpt lat="43.05336045821955" lon="2.2756325515573304"><ele>340.0</ele><time>2026-04-05T09:25:19.965Z</time></trkpt><trkpt lat="43.053445949160185" lon="2.2757134045619756"><ele>340.8</ele><time>2026-04-05T09:25:20.965Z</time></trkpt><trkpt lat="43.053538542751916" lon="2.275806393784574"><ele>341.6</ele><time>2026-04-05T09:25:21.965Z</time></trkpt><trkpt lat="43.053633839282085" lon="2.2758808714656755"><ele>342.4</ele><time>2026-04-05T09:25:22.965Z</time></trkpt><trkpt lat="43.05373247080929" lon="2.2759498749204194"><ele>343.2</ele><time>2026-04-05T09:25:23.965Z</time></trkpt><trkpt lat="43.05382977696778" lon="2.276025194960322"><ele>344.0</ele><time>2026-04-05T09:25:24.965Z</time></trkpt><trkpt lat="43.05392022924213" lon="2.276099002542009"><ele>344.0</ele><time>2026-04-05T09:25:25.965Z</time></trkpt><trkpt lat="43.053998199012824" lon="2.276189638200168"><ele>344.0</ele><time>2026-04-05T09:25:26.965Z</time></trkpt><trkpt lat="43.05407064931084" lon="2.2762863634586887"><ele>344.0</ele><time>2026-04-05T09:25:27.965Z</time></trkpt><trkpt lat="43.054122552088955" lon="2.276417682413719"><ele>344.0</ele><time>2026-04-05T09:25:28.965Z</time></trkpt><trkpt lat="43.05416532182362" lon="2.276555841067985"><ele>344.0</ele><time>2026-04-05T09:25:29.965Z</time></trkpt><trkpt lat="43.054210365991175" lon="2.276662911436901"><ele>345.0</ele><time>2026-04-05T09:25:30.965Z</time></trkpt><trkpt lat="43.054243088972754" lon="2.2767365993937982"><ele>346.0</ele><time>2026-04-05T09:25:31.965Z</time></trkpt><trkpt lat="43.05430802847541" lon="2.27681954838787"><ele>347.0</ele><time>2026-04-05T09:25:33.965Z</time></trkpt><trkpt lat="43.05432785501436" lon="2.2769423986318236"><ele>348.0</ele><time>2026-04-05T09:25:35.965Z</time></trkpt><trkpt lat="43.054334676816836" lon="2.2770694026512617"><ele>349.0</ele><time>2026-04-05T09:25:36.965Z</time></trkpt><trkpt lat="43.05433843877656" lon="2.2772127527922104"><ele>350.0</ele><time>2026-04-05T09:25:37.965Z</time></trkpt><trkpt lat="43.05433036741412" lon="2.2773592029845555"><ele>350.0</ele><time>2026-04-05T09:25:38.965Z</time></trkpt><trkpt lat="43.05431603402473" lon="2.2774892433346814"><ele>350.0</ele><time>2026-04-05T09:25:39.965Z</time></trkpt><trkpt lat="43.05429767359776" lon="2.277595866036948"><ele>350.0</ele><time>2026-04-05T09:25:40.965Z</time></trkpt><trkpt lat="43.05427745883074" lon="2.2777038018420646"><ele>350.0</ele><time>2026-04-05T09:25:41.965Z</time></trkpt><trkpt lat="43.05427739329207" lon="2.277823076168285"><ele>350.0</ele><time>2026-04-05T09:25:42.965Z</time></trkpt><trkpt lat="43.054294184257806" lon="2.2779301642888328"><ele>350.0</ele><time>2026-04-05T09:25:43.965Z</time></trkpt><trkpt lat="43.054313734614404" lon="2.278052525299911"><ele>348.5</ele><time>2026-04-05T09:25:44.965Z</time></trkpt><trkpt lat="43.054327752070265" lon="2.278175255179542"><ele>347.0</ele><time>2026-04-05T09:25:45.965Z</time></trkpt><trkpt lat="43.05432264198446" lon="2.278293554516027"><ele>345.5</ele><time>2026-04-05T09:25:46.965Z</time></trkpt><trkpt lat="43.05431094687405" lon="2.278404155514348"><ele>344.0</ele><time>2026-04-05T09:25:47.965Z</time></trkpt><trkpt lat="43.054297187625274" lon="2.278519262947685"><ele>342.5</ele><time>2026-04-05T09:25:48.965Z</time></trkpt><trkpt lat="43.0542820399671" lon="2.278639913582801"><ele>341.0</ele><time>2026-04-05T09:25:49.965Z</time></trkpt><trkpt lat="43.05425900945889" lon="2.2787455015258136"><ele>341.0</ele><time>2026-04-05T09:25:50.965Z</time></trkpt><trkpt lat="43.054231289031755" lon="2.2788568480248492"><ele>341.0</ele><time>2026-04-05T09:25:51.965Z</time></trkpt><trkpt lat="43.0542126258105" lon="2.2789712377162505"><ele>341.0</ele><time>2026-04-05T09:25:52.965Z</time></trkpt><trkpt lat="43.054190585488584" lon="2.279079829756003"><ele>341.0</ele><time>2026-04-05T09:25:53.965Z</time></trkpt><trkpt lat="43.05417027112641" lon="2.279181143480039"><ele>341.0</ele><time>2026-04-05T09:25:54.965Z</time></trkpt><trkpt lat="43.054145833076824" lon="2.2792942770128257"><ele>341.0</ele><time>2026-04-05T09:25:55.965Z</time></trkpt><trkpt lat="43.05413226893141" lon="2.2793875555272747"><ele>339.4</ele><time>2026-04-05T09:25:56.965Z</time></trkpt><trkpt lat="43.054105420276905" lon="2.279535486509082"><ele>337.8</ele><time>2026-04-05T09:25:58.965Z</time></trkpt><trkpt lat="43.054086644012656" lon="2.279691638164903"><ele>336.2</ele><time>2026-04-05T09:26:00.965Z</time></trkpt><trkpt lat="43.05405198180439" lon="2.279827149183148"><ele>334.59999999999997</ele><time>2026-04-05T09:26:02.965Z</time></trkpt><trkpt lat="43.05403151260126" lon="2.2799739582436747"><ele>333.0</ele><time>2026-04-05T09:26:04.965Z</time></trkpt><trkpt lat="43.054005800429515" lon="2.280134984609103"><ele>331.0</ele><time>2026-04-05T09:26:06.965Z</time></trkpt><trkpt lat="43.0539888925749" lon="2.2802261721721226"><ele>329.0</ele><time>2026-04-05T09:26:07.965Z</time></trkpt><trkpt lat="43.05400018053657" lon="2.2803816253846567"><ele>327.0</ele><time>2026-04-05T09:26:09.965Z</time></trkpt><trkpt lat="43.054108970275614" lon="2.280432636747334"><ele>325.0</ele><time>2026-04-05T09:26:11.965Z</time></trkpt><trkpt lat="43.05419268535163" lon="2.280356225136316"><ele>323.0</ele><time>2026-04-05T09:26:13.965Z</time></trkpt><trkpt lat="43.05424903795345" lon="2.2803111230956494"><ele>323.0</ele><time>2026-04-05T09:26:14.965Z</time></trkpt><trkpt lat="43.05430375241805" lon="2.280258410576437"><ele>323.0</ele><time>2026-04-05T09:26:15.965Z</time></trkpt><trkpt lat="43.054358573130976" lon="2.280200837990347"><ele>323.0</ele><time>2026-04-05T09:26:16.965Z</time></trkpt><trkpt lat="43.05443609046424" lon="2.2801687016388508"><ele>323.0</ele><time>2026-04-05T09:26:18.965Z</time></trkpt><trkpt lat="43.05446305478971" lon="2.2802695351359485"><ele>323.0</ele><time>2026-04-05T09:26:20.965Z</time></trkpt><trkpt lat="43.054461386516174" lon="2.280407870132244"><ele>323.0</ele><time>2026-04-05T09:26:22.966Z</time></trkpt><trkpt lat="43.05443113605203" lon="2.280568993153322"><ele>320.6666666666667</ele><time>2026-04-05T09:26:24.966Z</time></trkpt><trkpt lat="43.05441011843581" lon="2.2807322458347428"><ele>318.33333333333337</ele><time>2026-04-05T09:26:26.966Z</time></trkpt><trkpt lat="43.05439646677954" lon="2.28082128094402"><ele>316.0</ele><time>2026-04-05T09:26:27.966Z</time></trkpt><trkpt lat="43.0543740842797" lon="2.2809156800127837"><ele>313.6666666666667</ele><time>2026-04-05T09:26:28.966Z</time></trkpt><trkpt lat="43.05434411692036" lon="2.280997758297157"><ele>311.3333333333333</ele><time>2026-04-05T09:26:29.966Z</time></trkpt><trkpt lat="43.0543095009349" lon="2.281094824571321"><ele>309.0</ele><time>2026-04-05T09:26:30.966Z</time></trkpt><trkpt lat="43.05427502291795" lon="2.281175670266703"><ele>309.0</ele><time>2026-04-05T09:26:31.966Z</time></trkpt><trkpt lat="43.054231784662626" lon="2.2813005770197807"><ele>309.0</ele><time>2026-04-05T09:26:33.966Z</time></trkpt><trkpt lat="43.05416559878843" lon="2.2813698544070498"><ele>309.0</ele><time>2026-04-05T09:26:35.966Z</time></trkpt><trkpt lat="43.0540901557315" lon="2.2813988496100643"><ele>309.0</ele><time>2026-04-05T09:26:37.966Z</time></trkpt><trkpt lat="43.054018792687536" lon="2.2814452566257564"><ele>309.0</ele><time>2026-04-05T09:26:39.966Z</time></trkpt><trkpt lat="43.054005820021885" lon="2.281563728221895"><ele>309.0</ele><time>2026-04-05T09:26:41.966Z</time></trkpt><trkpt lat="43.05402387110418" lon="2.281668368724492"><ele>308.6666666666667</ele><time>2026-04-05T09:26:43.966Z</time></trkpt><trkpt lat="43.05404604308363" lon="2.2818124204984493"><ele>308.3333333333333</ele><time>2026-04-05T09:26:45.961Z</time></trkpt><trkpt lat="43.05407394830219" lon="2.2818974004634276"><ele>308.0</ele><time>2026-04-05T09:26:46.961Z</time></trkpt><trkpt lat="43.05411495090333" lon="2.281967627555182"><ele>307.66666666666663</ele><time>2026-04-05T09:26:47.961Z</time></trkpt><trkpt lat="43.05418033510225" lon="2.2820222403415364"><ele>307.3333333333333</ele><time>2026-04-05T09:26:48.961Z</time></trkpt><trkpt lat="43.0542544623387" lon="2.2820383312494505"><ele>307.0</ele><time>2026-04-05T09:26:49.961Z</time></trkpt><trkpt lat="43.054331294522804" lon="2.282001043215149"><ele>305.16666666666663</ele><time>2026-04-05T09:26:50.961Z</time></trkpt><trkpt lat="43.05439695727465" lon="2.28196124359844"><ele>303.3333333333333</ele><time>2026-04-05T09:26:51.961Z</time></trkpt><trkpt lat="43.05450848289354" lon="2.2819741069467643"><ele>301.5</ele><time>2026-04-05T09:26:53.961Z</time></trkpt><trkpt lat="43.05458675614931" lon="2.282047632630575"><ele>299.6666666666667</ele><time>2026-04-05T09:26:55.96Z</time></trkpt><trkpt lat="43.05467045036809" lon="2.282107990755865"><ele>297.83333333333337</ele><time>2026-04-05T09:26:57.96Z</time></trkpt><trkpt lat="43.05472036310126" lon="2.2821753713482322"><ele>296.0</ele><time>2026-04-05T09:26:58.96Z</time></trkpt><trkpt lat="43.05473928152512" lon="2.2822666834015637"><ele>294.8</ele><time>2026-04-05T09:26:59.96Z</time></trkpt><trkpt lat="43.05472748704726" lon="2.2824097110939516"><ele>293.6</ele><time>2026-04-05T09:27:01.961Z</time></trkpt><trkpt lat="43.054682353996924" lon="2.2824806129678894"><ele>292.4</ele><time>2026-04-05T09:27:02.961Z</time></trkpt><trkpt lat="43.05462764744866" lon="2.282579765102612"><ele>291.2</ele><time>2026-04-05T09:27:03.961Z</time></trkpt><trkpt lat="43.05459131407987" lon="2.282693748724363"><ele>290.0</ele><time>2026-04-05T09:27:04.961Z</time></trkpt><trkpt lat="43.05452308334812" lon="2.2827940388948202"><ele>290.0</ele><time>2026-04-05T09:27:05.961Z</time></trkpt><trkpt lat="43.05446604728823" lon="2.2829115685057757"><ele>290.0</ele><time>2026-04-05T09:27:06.961Z</time></trkpt><trkpt lat="43.054422416522584" lon="2.2830393203412593"><ele>290.0</ele><time>2026-04-05T09:27:07.961Z</time></trkpt><trkpt lat="43.05437449474798" lon="2.2831553845724626"><ele>290.0</ele><time>2026-04-05T09:27:08.961Z</time></trkpt><trkpt lat="43.054333665234495" lon="2.2832840426875567"><ele>290.0</ele><time>2026-04-05T09:27:09.961Z</time></trkpt><trkpt lat="43.05428481745455" lon="2.2834012787770885"><ele>290.33333333333337</ele><time>2026-04-05T09:27:10.961Z</time></trkpt><trkpt lat="43.054214851688705" lon="2.283499382300227"><ele>290.6666666666667</ele><time>2026-04-05T09:27:11.961Z</time></trkpt><trkpt lat="43.05412864058361" lon="2.2835530720049526"><ele>291.0</ele><time>2026-04-05T09:27:12.961Z</time></trkpt><trkpt lat="43.054048753766864" lon="2.283597460816442"><ele>291.3333333333333</ele><time>2026-04-05T09:27:13.961Z</time></trkpt><trkpt lat="43.05398823304426" lon="2.2836576561826676"><ele>291.66666666666663</ele><time>2026-04-05T09:27:14.961Z</time></trkpt><trkpt lat="43.053970145378585" lon="2.283748077524951"><ele>292.0</ele><time>2026-04-05T09:27:15.961Z</time></trkpt><trkpt lat="43.05397355010573" lon="2.2838472232879483"><ele>290.3333333333333</ele><time>2026-04-05T09:27:16.961Z</time></trkpt><trkpt lat="43.05401178850275" lon="2.283946465064229"><ele>288.66666666666663</ele><time>2026-04-05T09:27:17.961Z</time></trkpt><trkpt lat="43.05405542866913" lon="2.284044713895679"><ele>287.0</ele><time>2026-04-05T09:27:18.961Z</time></trkpt><trkpt lat="43.05408832491198" lon="2.2841441439386356"><ele>285.3333333333333</ele><time>2026-04-05T09:27:19.961Z</time></trkpt><trkpt lat="43.05410259581541" lon="2.2842411207907696"><ele>283.6666666666667</ele><time>2026-04-05T09:27:20.961Z</time></trkpt><trkpt lat="43.054096065827444" lon="2.2843417206549392"><ele>282.0</ele><time>2026-04-05T09:27:21.961Z</time></trkpt><trkpt lat="43.0540946611813" lon="2.2844398976566476"><ele>282.0</ele><time>2026-04-05T09:27:22.961Z</time></trkpt><trkpt lat="43.054050356287114" lon="2.2845505885247808"><ele>282.0</ele><time>2026-04-05T09:27:23.961Z</time></trkpt><trkpt lat="43.05397629224939" lon="2.2846135983292934"><ele>282.0</ele><time>2026-04-05T09:27:24.961Z</time></trkpt><trkpt lat="43.05391145779873" lon="2.284716401506099"><ele>282.0</ele><time>2026-04-05T09:27:25.961Z</time></trkpt><trkpt lat="43.053828318805415" lon="2.2848006575329376"><ele>282.0</ele><time>2026-04-05T09:27:26.961Z</time></trkpt><trkpt lat="43.05374723162922" lon="2.284897522634298"><ele>283.0</ele><time>2026-04-05T09:27:27.961Z</time></trkpt><trkpt lat="43.05366779000018" lon="2.2850015626251134"><ele>284.0</ele><time>2026-04-05T09:27:28.961Z</time></trkpt><trkpt lat="43.05360201897123" lon="2.2851205622722883"><ele>285.0</ele><time>2026-04-05T09:27:29.961Z</time></trkpt><trkpt lat="43.05352901174081" lon="2.28523115347498"><ele>286.0</ele><time>2026-04-05T09:27:30.961Z</time></trkpt><trkpt lat="43.05348095105211" lon="2.285377738888187"><ele>287.0</ele><time>2026-04-05T09:27:31.961Z</time></trkpt><trkpt lat="43.053425937354014" lon="2.2855134105215797"><ele>287.4</ele><time>2026-04-05T09:27:32.961Z</time></trkpt><trkpt lat="43.05338374161598" lon="2.2856495213701895"><ele>287.79999999999995</ele><time>2026-04-05T09:27:33.961Z</time></trkpt><trkpt lat="43.05335180625137" lon="2.285782411344881"><ele>288.2</ele><time>2026-04-05T09:27:34.961Z</time></trkpt><trkpt lat="43.053324763329115" lon="2.285908604389844"><ele>288.59999999999997</ele><time>2026-04-05T09:27:35.961Z</time></trkpt><trkpt lat="43.053286628317146" lon="2.2860027747799685"><ele>289.0</ele><time>2026-04-05T09:27:36.961Z</time></trkpt><trkpt lat="43.05323104091942" lon="2.286063107666041"><ele>289.25</ele><time>2026-04-05T09:27:37.961Z</time></trkpt><trkpt lat="43.053131680412605" lon="2.286100752876368"><ele>289.5</ele><time>2026-04-05T09:27:38.961Z</time></trkpt><trkpt lat="43.05303532434852" lon="2.286184246871844"><ele>289.75</ele><time>2026-04-05T09:27:39.961Z</time></trkpt><trkpt lat="43.05291629501843" lon="2.286255908747471"><ele>290.0</ele><time>2026-04-05T09:27:40.961Z</time></trkpt><trkpt lat="43.05280892213129" lon="2.2863465728010666"><ele>290.0</ele><time>2026-04-05T09:27:41.961Z</time></trkpt><trkpt lat="43.05270242889144" lon="2.286428457912832"><ele>290.0</ele><time>2026-04-05T09:27:42.961Z</time></trkpt><trkpt lat="43.05258650367305" lon="2.2864923886633215"><ele>290.0</ele><time>2026-04-05T09:27:43.961Z</time></trkpt><trkpt lat="43.05246676294635" lon="2.286547985709452"><ele>290.0</ele><time>2026-04-05T09:27:44.961Z</time></trkpt><trkpt lat="43.05236866264542" lon="2.286605683488196"><ele>290.25</ele><time>2026-04-05T09:27:45.961Z</time></trkpt><trkpt lat="43.05227837570372" lon="2.2866976951308793"><ele>290.5</ele><time>2026-04-05T09:27:46.961Z</time></trkpt><trkpt lat="43.05219576102687" lon="2.2868083861356086"><ele>290.75</ele><time>2026-04-05T09:27:47.961Z</time></trkpt><trkpt lat="43.05211273855563" lon="2.286923590491307"><ele>291.0</ele><time>2026-04-05T09:27:48.961Z</time></trkpt><trkpt lat="43.05205345428758" lon="2.287039705010282"><ele>291.0</ele><time>2026-04-05T09:27:49.961Z</time></trkpt><trkpt lat="43.05198564281603" lon="2.287137070473177"><ele>291.0</ele><time>2026-04-05T09:27:50.961Z</time></trkpt><trkpt lat="43.05190781485278" lon="2.2872095883140067"><ele>291.0</ele><time>2026-04-05T09:27:51.961Z</time></trkpt><trkpt lat="43.051840801640736" lon="2.2872972151101574"><ele>291.0</ele><time>2026-04-05T09:27:52.961Z</time></trkpt><trkpt lat="43.05176224140475" lon="2.2873885069368205"><ele>291.0</ele><time>2026-04-05T09:27:53.961Z</time></trkpt><trkpt lat="43.05167036250057" lon="2.2874805698030753"><ele>288.0</ele><time>2026-04-05T09:27:54.961Z</time></trkpt><trkpt lat="43.05156933963029" lon="2.287559863441559"><ele>285.0</ele><time>2026-04-05T09:27:55.961Z</time></trkpt><trkpt lat="43.051452601323064" lon="2.2876264459004565"><ele>282.0</ele><time>2026-04-05T09:27:56.961Z</time></trkpt><trkpt lat="43.05131945010058" lon="2.2877044897740086"><ele>279.0</ele><time>2026-04-05T09:27:57.961Z</time></trkpt><trkpt lat="43.051199972298015" lon="2.287803751478785"><ele>279.0</ele><time>2026-04-05T09:27:58.961Z</time></trkpt><trkpt lat="43.0510909232401" lon="2.2879037665776063"><ele>279.0</ele><time>2026-04-05T09:27:59.961Z</time></trkpt><trkpt lat="43.05099748147723" lon="2.2879796532522385"><ele>279.0</ele><time>2026-04-05T09:28:00.961Z</time></trkpt><trkpt lat="43.05091072788105" lon="2.2880693811839077"><ele>279.0</ele><time>2026-04-05T09:28:01.961Z</time></trkpt><trkpt lat="43.050827109966626" lon="2.2881712681297017"><ele>280.25</ele><time>2026-04-05T09:28:02.961Z</time></trkpt><trkpt lat="43.050737314231114" lon="2.288277056830874"><ele>281.5</ele><time>2026-04-05T09:28:03.961Z</time></trkpt><trkpt lat="43.050644894238154" lon="2.2883920697968434"><ele>282.75</ele><time>2026-04-05T09:28:04.961Z</time></trkpt><trkpt lat="43.05056242454545" lon="2.288513979024647"><ele>284.0</ele><time>2026-04-05T09:28:05.961Z</time></trkpt><trkpt lat="43.0504819090211" lon="2.2886363749440974"><ele>284.0</ele><time>2026-04-05T09:28:06.961Z</time></trkpt><trkpt lat="43.05041368692968" lon="2.2887488113188557"><ele>284.0</ele><time>2026-04-05T09:28:07.961Z</time></trkpt><trkpt lat="43.050363320667564" lon="2.288871754201398"><ele>284.0</ele><time>2026-04-05T09:28:08.961Z</time></trkpt><trkpt lat="43.05031399459778" lon="2.28900680976479"><ele>284.0</ele><time>2026-04-05T09:28:09.961Z</time></trkpt><trkpt lat="43.05026436344667" lon="2.2891386303213546"><ele>284.0</ele><time>2026-04-05T09:28:10.961Z</time></trkpt><trkpt lat="43.05020962498264" lon="2.289276157639868"><ele>284.2</ele><time>2026-04-05T09:28:11.961Z</time></trkpt><trkpt lat="43.05016268050334" lon="2.2894049455674694"><ele>284.4</ele><time>2026-04-05T09:28:12.961Z</time></trkpt><trkpt lat="43.05012358376163" lon="2.2895174214290996"><ele>284.6</ele><time>2026-04-05T09:28:13.961Z</time></trkpt><trkpt lat="43.050087308513824" lon="2.289631032549308"><ele>284.8</ele><time>2026-04-05T09:28:14.961Z</time></trkpt><trkpt lat="43.05005250621857" lon="2.289764327080981"><ele>285.0</ele><time>2026-04-05T09:28:15.961Z</time></trkpt><trkpt lat="43.05001620257157" lon="2.289907177303607"><ele>285.5</ele><time>2026-04-05T09:28:16.961Z</time></trkpt><trkpt lat="43.050000152224484" lon="2.2900603141518223"><ele>286.0</ele><time>2026-04-05T09:28:17.961Z</time></trkpt><trkpt lat="43.049975769206625" lon="2.290224398761051"><ele>286.5</ele><time>2026-04-05T09:28:18.961Z</time></trkpt><trkpt lat="43.049975083826624" lon="2.290403498488775"><ele>287.0</ele><time>2026-04-05T09:28:19.961Z</time></trkpt><trkpt lat="43.04998459945908" lon="2.2905579222432864"><ele>286.83333333333337</ele><time>2026-04-05T09:28:20.961Z</time></trkpt><trkpt lat="43.049978816485606" lon="2.2906883790693917"><ele>286.6666666666667</ele><time>2026-04-05T09:28:21.961Z</time></trkpt><trkpt lat="43.049953585900035" lon="2.290806409556799"><ele>286.5</ele><time>2026-04-05T09:28:22.961Z</time></trkpt><trkpt lat="43.04990602310197" lon="2.290905262813129"><ele>286.3333333333333</ele><time>2026-04-05T09:28:23.961Z</time></trkpt><trkpt lat="43.04987303780016" lon="2.291001592040128"><ele>286.16666666666663</ele><time>2026-04-05T09:28:24.961Z</time></trkpt><trkpt lat="43.04982422192741" lon="2.291073377785661"><ele>286.0</ele><time>2026-04-05T09:28:26.961Z</time></trkpt><trkpt lat="43.0497616101514" lon="2.290930514767024"><ele>284.8</ele><time>2026-04-05T09:28:29.961Z</time></trkpt><trkpt lat="43.049693514731075" lon="2.290839509042358"><ele>283.6</ele><time>2026-04-05T09:28:30.961Z</time></trkpt><trkpt lat="43.0496362838676" lon="2.2907238298161823"><ele>282.4</ele><time>2026-04-05T09:28:31.961Z</time></trkpt><trkpt lat="43.049553201892884" lon="2.2906258356258222"><ele>281.2</ele><time>2026-04-05T09:28:32.962Z</time></trkpt><trkpt lat="43.049510190603094" lon="2.29052826880094"><ele>280.0</ele><time>2026-04-05T09:28:33.962Z</time></trkpt><trkpt lat="43.04964165615647" lon="2.2906968841389204"><ele>280.0</ele><time>2026-04-05T09:28:42.962Z</time></trkpt><trkpt lat="43.049687769043544" lon="2.2907801377010863"><ele>280.0</ele><time>2026-04-05T09:28:43.962Z</time></trkpt><trkpt lat="43.049701268636966" lon="2.290902894796885"><ele>280.0</ele><time>2026-04-05T09:28:45.962Z</time></trkpt><trkpt lat="43.049699371096786" lon="2.291019523917318"><ele>280.0</ele><time>2026-04-05T09:28:46.962Z</time></trkpt><trkpt lat="43.04969456961556" lon="2.2911540631004748"><ele>280.0</ele><time>2026-04-05T09:28:47.962Z</time></trkpt><trkpt lat="43.0499687001385" lon="2.291519066679603"><ele>282.0</ele><time>2026-04-05T09:28:48.962Z</time></trkpt><trkpt lat="43.05001694355736" lon="2.29168643680374"><ele>284.0</ele><time>2026-04-05T09:28:49.962Z</time></trkpt><trkpt lat="43.049993806975415" lon="2.2918687187364717"><ele>286.0</ele><time>2026-04-05T09:28:50.957Z</time></trkpt><trkpt lat="43.049993241918" lon="2.2920453567318293"><ele>288.0</ele><time>2026-04-05T09:28:51.958Z</time></trkpt><trkpt lat="43.04997950668387" lon="2.2922241673333734"><ele>288.25</ele><time>2026-04-05T09:28:52.958Z</time></trkpt><trkpt lat="43.04995882520881" lon="2.292410561383299"><ele>288.5</ele><time>2026-04-05T09:28:53.958Z</time></trkpt><trkpt lat="43.049938605190704" lon="2.2925806304833127"><ele>288.75</ele><time>2026-04-05T09:28:54.957Z</time></trkpt><trkpt lat="43.04993861441445" lon="2.292728270299042"><ele>289.0</ele><time>2026-04-05T09:28:55.957Z</time></trkpt><trkpt lat="43.049924965999" lon="2.292847183777635"><ele>287.0</ele><time>2026-04-05T09:28:56.958Z</time></trkpt><trkpt lat="43.049898605170426" lon="2.292971519185242"><ele>285.0</ele><time>2026-04-05T09:28:58.957Z</time></trkpt><trkpt lat="43.04959054966791" lon="2.293307980731911"><ele>285.0</ele><time>2026-04-05T09:29:01.958Z</time></trkpt><trkpt lat="43.04955633461164" lon="2.293432505222856"><ele>285.0</ele><time>2026-04-05T09:29:02.957Z</time></trkpt><trkpt lat="43.04942174412912" lon="2.2934730480189365"><ele>285.0</ele><time>2026-04-05T09:29:04.957Z</time></trkpt><trkpt lat="43.049226111416544" lon="2.2928336082958847"><ele>283.0</ele><time>2026-04-05T09:29:05.957Z</time></trkpt><trkpt lat="43.04908776094816" lon="2.2927679159513508"><ele>281.0</ele><time>2026-04-05T09:29:06.957Z</time></trkpt><trkpt lat="43.04892716254077" lon="2.292729826089632"><ele>279.0</ele><time>2026-04-05T09:29:07.957Z</time></trkpt><trkpt lat="43.04877651821472" lon="2.2926972505219707"><ele>279.0</ele><time>2026-04-05T09:29:08.957Z</time></trkpt><trkpt lat="43.04865331172285" lon="2.2926213442413794"><ele>279.0</ele><time>2026-04-05T09:29:09.957Z</time></trkpt><trkpt lat="43.04852316292004" lon="2.2925008560877114"><ele>279.0</ele><time>2026-04-05T09:29:10.957Z</time></trkpt><trkpt lat="43.048391932283714" lon="2.292428471551071"><ele>279.0</ele><time>2026-04-05T09:29:11.957Z</time></trkpt><trkpt lat="43.048298331586544" lon="2.292404817559744"><ele>278.8</ele><time>2026-04-05T09:29:12.957Z</time></trkpt><trkpt lat="43.04822166025622" lon="2.2924114389595545"><ele>278.59999999999997</ele><time>2026-04-05T09:29:13.957Z</time></trkpt><trkpt lat="43.04814819559277" lon="2.292428268077488"><ele>278.4</ele><time>2026-04-05T09:29:14.957Z</time></trkpt><trkpt lat="43.04804454554745" lon="2.2923771339594814"><ele>278.2</ele><time>2026-04-05T09:29:15.957Z</time></trkpt><trkpt lat="43.04790760013798" lon="2.2923701842386484"><ele>278.0</ele><time>2026-04-05T09:29:16.957Z</time></trkpt><trkpt lat="43.047763889872435" lon="2.29234204772663"><ele>278.0</ele><time>2026-04-05T09:29:17.957Z</time></trkpt><trkpt lat="43.04759508178757" lon="2.29229011310281"><ele>278.0</ele><time>2026-04-05T09:29:18.957Z</time></trkpt><trkpt lat="43.04740200227666" lon="2.292250045847107"><ele>278.0</ele><time>2026-04-05T09:29:19.957Z</time></trkpt><trkpt lat="43.0472375209685" lon="2.292194357876535"><ele>278.0</ele><time>2026-04-05T09:29:20.957Z</time></trkpt><trkpt lat="43.047022922327066" lon="2.292140969664916"><ele>278.0</ele><time>2026-04-05T09:29:21.957Z</time></trkpt><trkpt lat="43.046809351974396" lon="2.292102811187653"><ele>278.0</ele><time>2026-04-05T09:29:22.957Z</time></trkpt><trkpt lat="43.04661297554821" lon="2.292075276436019"><ele>277.5</ele><time>2026-04-05T09:29:23.957Z</time></trkpt><trkpt lat="43.04646612132336" lon="2.292046898911685"><ele>277.0</ele><time>2026-04-05T09:29:24.957Z</time></trkpt><trkpt lat="43.04638215121996" lon="2.2919852207434936"><ele>276.5</ele><time>2026-04-05T09:29:25.957Z</time></trkpt><trkpt lat="43.04630519613059" lon="2.291928107635724"><ele>276.0</ele><time>2026-04-05T09:29:26.957Z</time></trkpt><trkpt lat="43.04617974570254" lon="2.291836100957624"><ele>276.0</ele><time>2026-04-05T09:29:27.957Z</time></trkpt><trkpt lat="43.04602952467085" lon="2.291765737475456"><ele>276.0</ele><time>2026-04-05T09:29:28.957Z</time></trkpt><trkpt lat="43.045886890437956" lon="2.291691568639488"><ele>276.0</ele><time>2026-04-05T09:29:29.957Z</time></trkpt><trkpt lat="43.04574718240636" lon="2.2916275015974135"><ele>275.8</ele><time>2026-04-05T09:29:30.957Z</time></trkpt><trkpt lat="43.04563738269291" lon="2.2915587133792172"><ele>275.6</ele><time>2026-04-05T09:29:31.957Z</time></trkpt><trkpt lat="43.0455471438617" lon="2.2914865785271155"><ele>275.4</ele><time>2026-04-05T09:29:32.957Z</time></trkpt><trkpt lat="43.0454912271758" lon="2.2914121033263943"><ele>275.2</ele><time>2026-04-05T09:29:33.957Z</time></trkpt><trkpt lat="43.04545316826109" lon="2.2912981188092796"><ele>275.0</ele><time>2026-04-05T09:29:34.957Z</time></trkpt><trkpt lat="43.04538569295861" lon="2.291169111191806"><ele>275.0</ele><time>2026-04-05T09:29:35.957Z</time></trkpt><trkpt lat="43.045303122215905" lon="2.291055136237864"><ele>275.0</ele><time>2026-04-05T09:29:36.957Z</time></trkpt><trkpt lat="43.045221997447875" lon="2.290913360859897"><ele>275.0</ele><time>2026-04-05T09:29:37.957Z</time></trkpt><trkpt lat="43.0451626910681" lon="2.2908271183674622"><ele>275.0</ele><time>2026-04-05T09:29:38.957Z</time></trkpt><trkpt lat="43.04510945795608" lon="2.290748641201219"><ele>275.0</ele><time>2026-04-05T09:29:39.958Z</time></trkpt><trkpt lat="43.045059708828646" lon="2.2906763721279186"><ele>275.4</ele><time>2026-04-05T09:29:40.958Z</time></trkpt><trkpt lat="43.045016254745924" lon="2.2905848598467364"><ele>275.8</ele><time>2026-04-05T09:29:42.958Z</time></trkpt><trkpt lat="43.04491329196006" lon="2.2904706634235965"><ele>276.2</ele><time>2026-04-05T09:29:44.958Z</time></trkpt><trkpt lat="43.0448609624118" lon="2.2903892970619184"><ele>276.6</ele><time>2026-04-05T09:29:45.958Z</time></trkpt><trkpt lat="43.04480584865738" lon="2.2903034030068463"><ele>277.0</ele><time>2026-04-05T09:29:46.958Z</time></trkpt><trkpt lat="43.044757437017914" lon="2.2902091898442523"><ele>277.2</ele><time>2026-04-05T09:29:47.958Z</time></trkpt><trkpt lat="43.04467825865336" lon="2.2901515994140826"><ele>277.4</ele><time>2026-04-05T09:29:48.958Z</time></trkpt><trkpt lat="43.04457603958193" lon="2.2901141893344783"><ele>277.6</ele><time>2026-04-05T09:29:49.958Z</time></trkpt><trkpt lat="43.0444703686898" lon="2.290091173523801"><ele>277.8</ele><time>2026-04-05T09:29:50.958Z</time></trkpt><trkpt lat="43.04437723511338" lon="2.2900616764563355"><ele>278.0</ele><time>2026-04-05T09:29:51.958Z</time></trkpt><trkpt lat="43.044295027390476" lon="2.290044069800565"><ele>278.0</ele><time>2026-04-05T09:29:52.958Z</time></trkpt><trkpt lat="43.044227536396136" lon="2.2900434301467243"><ele>278.0</ele><time>2026-04-05T09:29:53.958Z</time></trkpt><trkpt lat="43.04415230028962" lon="2.2900470555796386"><ele>278.0</ele><time>2026-04-05T09:29:54.958Z</time></trkpt><trkpt lat="43.04406652336803" lon="2.290069339340396"><ele>278.0</ele><time>2026-04-05T09:29:55.958Z</time></trkpt><trkpt lat="43.04398355361109" lon="2.290088194728265"><ele>278.0</ele><time>2026-04-05T09:29:56.958Z</time></trkpt><trkpt lat="43.04389759722886" lon="2.2901184537181107"><ele>278.0</ele><time>2026-04-05T09:29:57.958Z</time></trkpt><trkpt lat="43.0437950131725" lon="2.2901494884808815"><ele>277.2</ele><time>2026-04-05T09:29:58.958Z</time></trkpt><trkpt lat="43.04370389714544" lon="2.2901558409216687"><ele>276.4</ele><time>2026-04-05T09:29:59.958Z</time></trkpt><trkpt lat="43.04362505913407" lon="2.290144801150109"><ele>275.59999999999997</ele><time>2026-04-05T09:30:00.958Z</time></trkpt><trkpt lat="43.04354437196502" lon="2.29011925317075"><ele>274.8</ele><time>2026-04-05T09:30:01.958Z</time></trkpt><trkpt lat="43.04344893224479" lon="2.2900648566579784"><ele>274.0</ele><time>2026-04-05T09:30:02.958Z</time></trkpt><trkpt lat="43.04335272360835" lon="2.2900032214511925"><ele>270.4</ele><time>2026-04-05T09:30:03.958Z</time></trkpt><trkpt lat="43.043245355021504" lon="2.2899304678820442"><ele>266.79999999999995</ele><time>2026-04-05T09:30:04.958Z</time></trkpt><trkpt lat="43.04312873812029" lon="2.2898947919093144"><ele>263.20000000000005</ele><time>2026-04-05T09:30:05.958Z</time></trkpt><trkpt lat="43.04303940897721" lon="2.2898804490195235"><ele>259.6</ele><time>2026-04-05T09:30:06.958Z</time></trkpt><trkpt lat="43.04296216201773" lon="2.2898904666988553"><ele>256.0</ele><time>2026-04-05T09:30:07.958Z</time></trkpt><trkpt lat="43.04286687312965" lon="2.289933141348574"><ele>256.0</ele><time>2026-04-05T09:30:08.958Z</time></trkpt><trkpt lat="43.04278474444595" lon="2.289963828906116"><ele>256.0</ele><time>2026-04-05T09:30:09.958Z</time></trkpt><trkpt lat="43.0426719821116" lon="2.2900090841305087"><ele>256.0</ele><time>2026-04-05T09:30:11.958Z</time></trkpt><trkpt lat="43.04257440447574" lon="2.2900468103991876"><ele>256.0</ele><time>2026-04-05T09:30:13.958Z</time></trkpt><trkpt lat="43.042469915464046" lon="2.290037372185977"><ele>256.0</ele><time>2026-04-05T09:30:15.958Z</time></trkpt><trkpt lat="43.04241202666308" lon="2.289886560760263"><ele>251.60000000000002</ele><time>2026-04-05T09:30:17.958Z</time></trkpt><trkpt lat="43.04235410989649" lon="2.2897951547815656"><ele>247.20000000000002</ele><time>2026-04-05T09:30:18.958Z</time></trkpt><trkpt lat="43.042303039085745" lon="2.2896951339580727"><ele>242.79999999999998</ele><time>2026-04-05T09:30:19.958Z</time></trkpt><trkpt lat="43.04227006759783" lon="2.289577293019027"><ele>238.39999999999998</ele><time>2026-04-05T09:30:20.958Z</time></trkpt><trkpt lat="43.04223348370174" lon="2.2894624977721683"><ele>234.0</ele><time>2026-04-05T09:30:21.958Z</time></trkpt><trkpt lat="43.04219892654897" lon="2.289338163846767"><ele>234.0</ele><time>2026-04-05T09:30:22.958Z</time></trkpt><trkpt lat="43.04216503747331" lon="2.2892148699403707"><ele>234.0</ele><time>2026-04-05T09:30:23.958Z</time></trkpt><trkpt lat="43.042134117997335" lon="2.289096638234167"><ele>234.0</ele><time>2026-04-05T09:30:24.958Z</time></trkpt><trkpt lat="43.042103780680876" lon="2.2889861318378872"><ele>234.0</ele><time>2026-04-05T09:30:25.958Z</time></trkpt><trkpt lat="43.042081097411724" lon="2.2888825805991373"><ele>234.0</ele><time>2026-04-05T09:30:26.958Z</time></trkpt><trkpt lat="43.04205920835527" lon="2.288785251998604"><ele>234.0</ele><time>2026-04-05T09:30:27.958Z</time></trkpt><trkpt lat="43.04203214977105" lon="2.288692772640394"><ele>234.0</ele><time>2026-04-05T09:30:28.958Z</time></trkpt><trkpt lat="43.04199528844096" lon="2.2885785573986355"><ele>233.99999999999997</ele><time>2026-04-05T09:30:30.958Z</time></trkpt><trkpt lat="43.04190341228547" lon="2.288759551242255"><ele>233.99999999999997</ele><time>2026-04-05T09:30:34.958Z</time></trkpt><trkpt lat="43.041885682295806" lon="2.2888596213761545"><ele>234.0</ele><time>2026-04-05T09:30:35.958Z</time></trkpt><trkpt lat="43.04185965633776" lon="2.2889430767663383"><ele>234.0</ele><time>2026-04-05T09:30:36.958Z</time></trkpt><trkpt lat="43.0418283893288" lon="2.2890219229303987"><ele>234.0</ele><time>2026-04-05T09:30:37.958Z</time></trkpt><trkpt lat="43.04179500179312" lon="2.2890967671688456"><ele>234.0</ele><time>2026-04-05T09:30:38.958Z</time></trkpt><trkpt lat="43.041708585541755" lon="2.2892109219600676"><ele>234.0</ele><time>2026-04-05T09:30:40.958Z</time></trkpt><trkpt lat="43.041645029933576" lon="2.2892699569244876"><ele>234.0</ele><time>2026-04-05T09:30:41.958Z</time></trkpt><trkpt lat="43.04158242090574" lon="2.28930825746252"><ele>234.0</ele><time>2026-04-05T09:30:42.958Z</time></trkpt><trkpt lat="43.041532402387894" lon="2.2893766068827253"><ele>234.0</ele><time>2026-04-05T09:30:43.958Z</time></trkpt><trkpt lat="43.041430378867844" lon="2.2894482688084263"><ele>233.0</ele><time>2026-04-05T09:30:45.958Z</time></trkpt><trkpt lat="43.04136543222042" lon="2.2894574624580324"><ele>232.0</ele><time>2026-04-05T09:30:47.958Z</time></trkpt><trkpt lat="43.04128668856378" lon="2.289461638060011"><ele>231.0</ele><time>2026-04-05T09:31:00.953Z</time></trkpt><trkpt lat="43.04119309066273" lon="2.2894470616636746"><ele>230.0</ele><time>2026-04-05T09:31:03.952Z</time></trkpt><trkpt lat="43.0411250485465" lon="2.289435961423322"><ele>229.0</ele><time>2026-04-05T09:31:05.952Z</time></trkpt><trkpt lat="43.041042444166" lon="2.2894166766855837"><ele>228.0</ele><time>2026-04-05T09:31:07.952Z</time></trkpt><trkpt lat="43.04095567145355" lon="2.2894004672674133"><ele>228.0</ele><time>2026-04-05T09:31:08.952Z</time></trkpt><trkpt lat="43.040884205827304" lon="2.2893974621951116"><ele>228.0</ele><time>2026-04-05T09:31:09.953Z</time></trkpt><trkpt lat="43.04082006489769" lon="2.2893962996310284"><ele>228.0</ele><time>2026-04-05T09:31:10.953Z</time></trkpt><trkpt lat="43.040752627116504" lon="2.2893944910487507"><ele>228.0</ele><time>2026-04-05T09:31:11.953Z</time></trkpt><trkpt lat="43.04062622093433" lon="2.2894120178446618"><ele>228.0</ele><time>2026-04-05T09:31:13.953Z</time></trkpt><trkpt lat="43.04056066867021" lon="2.2894283234712356"><ele>228.0</ele><time>2026-04-05T09:31:14.953Z</time></trkpt><trkpt lat="43.040488274352974" lon="2.289448593219031"><ele>228.33333333333334</ele><time>2026-04-05T09:31:15.953Z</time></trkpt><trkpt lat="43.04041822184333" lon="2.2894759929174193"><ele>228.66666666666669</ele><time>2026-04-05T09:31:16.953Z</time></trkpt><trkpt lat="43.04035137053084" lon="2.2895133303494717"><ele>229.0</ele><time>2026-04-05T09:31:17.953Z</time></trkpt><trkpt lat="43.040281391891085" lon="2.289540262910063"><ele>229.33333333333334</ele><time>2026-04-05T09:31:18.953Z</time></trkpt><trkpt lat="43.040219926536615" lon="2.2895705192221385"><ele>229.66666666666669</ele><time>2026-04-05T09:31:19.953Z</time></trkpt><trkpt lat="43.04012990544276" lon="2.289621899812931"><ele>230.0</ele><time>2026-04-05T09:31:21.953Z</time></trkpt><trkpt lat="43.040041256236904" lon="2.2896892843686554"><ele>230.0</ele><time>2026-04-05T09:31:23.953Z</time></trkpt><trkpt lat="43.04004080145572" lon="2.289846335633061"><ele>230.0</ele><time>2026-04-05T09:31:24.953Z</time></trkpt><trkpt lat="43.04001592195257" lon="2.289948458984142"><ele>230.0</ele><time>2026-04-05T09:31:25.953Z</time></trkpt><trkpt lat="43.04000770234376" lon="2.290064621642268"><ele>230.0</ele><time>2026-04-05T09:31:26.953Z</time></trkpt><trkpt lat="43.04000676092262" lon="2.2901866474081896"><ele>230.0</ele><time>2026-04-05T09:31:27.953Z</time></trkpt><trkpt lat="43.04000693403064" lon="2.290314401107918"><ele>230.00000000000003</ele><time>2026-04-05T09:31:28.953Z</time></trkpt><trkpt lat="43.0400030095644" lon="2.290438585210946"><ele>230.0</ele><time>2026-04-05T09:31:29.953Z</time></trkpt><trkpt lat="43.040000228875236" lon="2.2905579988719387"><ele>230.0</ele><time>2026-04-05T09:31:30.953Z</time></trkpt><trkpt lat="43.03997260045416" lon="2.2906648639838245"><ele>230.0</ele><time>2026-04-05T09:31:31.953Z</time></trkpt><trkpt lat="43.03997157058225" lon="2.290767300986393"><ele>230.00000000000003</ele><time>2026-04-05T09:31:32.953Z</time></trkpt><trkpt lat="43.039939427092705" lon="2.290857206177561"><ele>230.0</ele><time>2026-04-05T09:31:33.953Z</time></trkpt><trkpt lat="43.03989286660344" lon="2.2909399732646807"><ele>233.8</ele><time>2026-04-05T09:31:34.953Z</time></trkpt><trkpt lat="43.039831511736956" lon="2.291024313778869"><ele>237.6</ele><time>2026-04-05T09:31:35.953Z</time></trkpt><trkpt lat="43.03975803450351" lon="2.291096167845229"><ele>241.39999999999998</ele><time>2026-04-05T09:31:36.953Z</time></trkpt><trkpt lat="43.03968016940039" lon="2.291162723446835"><ele>245.2</ele><time>2026-04-05T09:31:37.953Z</time></trkpt><trkpt lat="43.03958143951993" lon="2.291220644473721"><ele>249.0</ele><time>2026-04-05T09:31:38.953Z</time></trkpt><trkpt lat="43.039474196208545" lon="2.291282995271018"><ele>249.0</ele><time>2026-04-05T09:31:39.953Z</time></trkpt><trkpt lat="43.03936657411374" lon="2.2913549359426932"><ele>249.0</ele><time>2026-04-05T09:31:40.953Z</time></trkpt><trkpt lat="43.03926409855325" lon="2.291423029675781"><ele>249.0</ele><time>2026-04-05T09:31:41.953Z</time></trkpt><trkpt lat="43.03915764676598" lon="2.2914952534183044"><ele>249.0</ele><time>2026-04-05T09:31:42.953Z</time></trkpt><trkpt lat="43.03905459237504" lon="2.2915694945057994"><ele>251.0</ele><time>2026-04-05T09:31:43.953Z</time></trkpt><trkpt lat="43.03896135265946" lon="2.291662729293148"><ele>253.0</ele><time>2026-04-05T09:31:44.953Z</time></trkpt><trkpt lat="43.038874927084095" lon="2.2917712593294777"><ele>255.0</ele><time>2026-04-05T09:31:45.953Z</time></trkpt><trkpt lat="43.03879771684065" lon="2.2918958301689663"><ele>257.0</ele><time>2026-04-05T09:31:46.953Z</time></trkpt><trkpt lat="43.03873261976461" lon="2.2920232822101103"><ele>257.0</ele><time>2026-04-05T09:31:47.953Z</time></trkpt><trkpt lat="43.03866998135219" lon="2.2921515883419357"><ele>257.0</ele><time>2026-04-05T09:31:48.953Z</time></trkpt><trkpt lat="43.038622247002586" lon="2.292278232834482"><ele>257.0</ele><time>2026-04-05T09:31:49.953Z</time></trkpt><trkpt lat="43.03856268686427" lon="2.292386937105743"><ele>257.0</ele><time>2026-04-05T09:31:50.953Z</time></trkpt><trkpt lat="43.038509481087374" lon="2.292477124576182"><ele>257.0</ele><time>2026-04-05T09:31:51.953Z</time></trkpt><trkpt lat="43.038460899142656" lon="2.2925449610373727"><ele>257.83333333333337</ele><time>2026-04-05T09:31:52.953Z</time></trkpt><trkpt lat="43.03841425439733" lon="2.2926188147274362"><ele>258.6666666666667</ele><time>2026-04-05T09:31:53.953Z</time></trkpt><trkpt lat="43.0383607222356" lon="2.2927192044391616"><ele>259.5</ele><time>2026-04-05T09:31:54.953Z</time></trkpt><trkpt lat="43.038333267290604" lon="2.2928328481361118"><ele>260.3333333333333</ele><time>2026-04-05T09:31:55.953Z</time></trkpt><trkpt lat="43.03829693115278" lon="2.2929483494515304"><ele>261.16666666666663</ele><time>2026-04-05T09:31:56.953Z</time></trkpt><trkpt lat="43.038259326772355" lon="2.2930725595684684"><ele>262.0</ele><time>2026-04-05T09:31:57.953Z</time></trkpt><trkpt lat="43.03822127032971" lon="2.293204875555552"><ele>262.4</ele><time>2026-04-05T09:31:58.953Z</time></trkpt><trkpt lat="43.03818059852401" lon="2.2933326674552204"><ele>262.79999999999995</ele><time>2026-04-05T09:31:59.953Z</time></trkpt><trkpt lat="43.038145359095104" lon="2.2934591643748026"><ele>263.2</ele><time>2026-04-05T09:32:00.953Z</time></trkpt><trkpt lat="43.0381200784796" lon="2.293546012815607"><ele>263.59999999999997</ele><time>2026-04-05T09:32:01.953Z</time></trkpt><trkpt lat="43.0380923279708" lon="2.2936461970084734"><ele>264.0</ele><time>2026-04-05T09:32:03.953Z</time></trkpt><trkpt lat="43.03813732028251" lon="2.293421962155502"><ele>264.0</ele><time>2026-04-05T09:32:17.953Z</time></trkpt><trkpt lat="43.038165176048125" lon="2.2932786188686016"><ele>264.0</ele><time>2026-04-05T09:32:19.953Z</time></trkpt><trkpt lat="43.038197560810346" lon="2.2931876093165116"><ele>264.0</ele><time>2026-04-05T09:32:20.953Z</time></trkpt><trkpt lat="43.03823042770805" lon="2.2930923115842345"><ele>264.0</ele><time>2026-04-05T09:32:21.953Z</time></trkpt><trkpt lat="43.03825435575246" lon="2.2929820498051816"><ele>264.0</ele><time>2026-04-05T09:32:22.953Z</time></trkpt><trkpt lat="43.03827379013511" lon="2.2928671137243097"><ele>264.0</ele><time>2026-04-05T09:32:23.953Z</time></trkpt><trkpt lat="43.03829902156966" lon="2.292755188812711"><ele>262.8333333333333</ele><time>2026-04-05T09:32:24.953Z</time></trkpt><trkpt lat="43.03833303406677" lon="2.2926275772847613"><ele>261.6666666666667</ele><time>2026-04-05T09:32:25.953Z</time></trkpt><trkpt lat="43.03837713834952" lon="2.292512883726208"><ele>260.5</ele><time>2026-04-05T09:32:26.954Z</time></trkpt><trkpt lat="43.0384241243491" lon="2.2924046384963828"><ele>259.33333333333337</ele><time>2026-04-05T09:32:27.954Z</time></trkpt><trkpt lat="43.03845601656927" lon="2.2923036456211956"><ele>258.1666666666667</ele><time>2026-04-05T09:32:28.954Z</time></trkpt><trkpt lat="43.03847072887958" lon="2.2922126524172035"><ele>257.0</ele><time>2026-04-05T09:32:29.954Z</time></trkpt><trkpt lat="43.03846840021513" lon="2.292065225586936"><ele>257.0</ele><time>2026-04-05T09:32:31.954Z</time></trkpt><trkpt lat="43.03836983920048" lon="2.2919638395012805"><ele>257.0</ele><time>2026-04-05T09:32:33.954Z</time></trkpt><trkpt lat="43.03827693939503" lon="2.291950631488519"><ele>257.0</ele><time>2026-04-05T09:32:34.954Z</time></trkpt><trkpt lat="43.03815988629007" lon="2.291923892513843"><ele>257.0</ele><time>2026-04-05T09:32:35.954Z</time></trkpt><trkpt lat="43.03805002463795" lon="2.291901059878476"><ele>257.0</ele><time>2026-04-05T09:32:36.954Z</time></trkpt><trkpt lat="43.037933515433146" lon="2.291871188938109"><ele>256.6</ele><time>2026-04-05T09:32:37.954Z</time></trkpt><trkpt lat="43.03781806525167" lon="2.291840436091838"><ele>256.2</ele><time>2026-04-05T09:32:38.954Z</time></trkpt><trkpt lat="43.037705057774865" lon="2.2918135911192716"><ele>255.8</ele><time>2026-04-05T09:32:39.954Z</time></trkpt><trkpt lat="43.037609492029986" lon="2.2918158575543597"><ele>255.4</ele><time>2026-04-05T09:32:41.954Z</time></trkpt><trkpt lat="43.0375014519879" lon="2.2918024668810375"><ele>255.0</ele><time>2026-04-05T09:32:46.954Z</time></trkpt><trkpt lat="43.037144318766046" lon="2.2915978317919126"><ele>255.0</ele><time>2026-04-05T09:32:47.954Z</time></trkpt><trkpt lat="43.03706748229008" lon="2.2917340426611674"><ele>255.0</ele><time>2026-04-05T09:32:49.954Z</time></trkpt><trkpt lat="43.037053436578226" lon="2.2918699273266916"><ele>255.0</ele><time>2026-04-05T09:32:50.954Z</time></trkpt><trkpt lat="43.03702654395483" lon="2.292014341845767"><ele>255.0</ele><time>2026-04-05T09:32:51.954Z</time></trkpt><trkpt lat="43.036988796595686" lon="2.2921188920762567"><ele>255.0</ele><time>2026-04-05T09:32:52.954Z</time></trkpt><trkpt lat="43.03694110089405" lon="2.292199923228384"><ele>256.4</ele><time>2026-04-05T09:32:53.954Z</time></trkpt><trkpt lat="43.036879342799246" lon="2.2922756232363732"><ele>257.8</ele><time>2026-04-05T09:32:54.954Z</time></trkpt><trkpt lat="43.03681664911825" lon="2.292315313471337"><ele>259.2</ele><time>2026-04-05T09:32:55.954Z</time></trkpt><trkpt lat="43.03666629784308" lon="2.292264913591539"><ele>260.6</ele><time>2026-04-05T09:32:57.954Z</time></trkpt><trkpt lat="43.03657314489501" lon="2.2922229836356944"><ele>262.0</ele><time>2026-04-05T09:32:58.954Z</time></trkpt><trkpt lat="43.036492484700645" lon="2.2922027809596686"><ele>260.8</ele><time>2026-04-05T09:32:59.954Z</time></trkpt><trkpt lat="43.036425676767365" lon="2.292185999983042"><ele>259.6</ele><time>2026-04-05T09:33:00.954Z</time></trkpt><trkpt lat="43.0363327760184" lon="2.292196358967139"><ele>258.40000000000003</ele><time>2026-04-05T09:33:02.949Z</time></trkpt><trkpt lat="43.03625949968618" lon="2.292315206254627"><ele>257.2</ele><time>2026-04-05T09:33:04.948Z</time></trkpt><trkpt lat="43.03617281162525" lon="2.2923877620655615"><ele>256.0</ele><time>2026-04-05T09:33:05.948Z</time></trkpt><trkpt lat="43.036092718432805" lon="2.292467482151815"><ele>256.0</ele><time>2026-04-05T09:33:06.948Z</time></trkpt><trkpt lat="43.03604529360183" lon="2.2925349912249953"><ele>255.99999999999997</ele><time>2026-04-05T09:33:07.948Z</time></trkpt><trkpt lat="43.0360138488152" lon="2.292621469744307"><ele>256.0</ele><time>2026-04-05T09:33:08.947Z</time></trkpt><trkpt lat="43.03599257793595" lon="2.2927201882614128"><ele>256.0</ele><time>2026-04-05T09:33:09.948Z</time></trkpt><trkpt lat="43.0359721807406" lon="2.292823631768566"><ele>255.99999999999997</ele><time>2026-04-05T09:33:10.948Z</time></trkpt><trkpt lat="43.03595463327197" lon="2.292914128711615"><ele>256.0</ele><time>2026-04-05T09:33:11.947Z</time></trkpt><trkpt lat="43.03596870560183" lon="2.2930234620658854"><ele>256.0</ele><time>2026-04-05T09:33:12.947Z</time></trkpt><trkpt lat="43.035979505983505" lon="2.2931515945387826"><ele>257.8</ele><time>2026-04-05T09:33:13.947Z</time></trkpt><trkpt lat="43.03597029118284" lon="2.2932845967779847"><ele>259.6</ele><time>2026-04-05T09:33:14.948Z</time></trkpt><trkpt lat="43.035941119780894" lon="2.2934257195799663"><ele>261.4</ele><time>2026-04-05T09:33:15.948Z</time></trkpt><trkpt lat="43.03591345478987" lon="2.29354899714664"><ele>263.2</ele><time>2026-04-05T09:33:16.948Z</time></trkpt><trkpt lat="43.03588564696149" lon="2.293657418476629"><ele>265.0</ele><time>2026-04-05T09:33:17.948Z</time></trkpt><trkpt lat="43.03585616227966" lon="2.293758445086654"><ele>265.0</ele><time>2026-04-05T09:33:18.948Z</time></trkpt><trkpt lat="43.03582689072054" lon="2.2938712525772518"><ele>265.0</ele><time>2026-04-05T09:33:19.948Z</time></trkpt><trkpt lat="43.035800128332966" lon="2.294008132589388"><ele>265.0</ele><time>2026-04-05T09:33:20.948Z</time></trkpt><trkpt lat="43.0357757833422" lon="2.2941470494713987"><ele>265.0</ele><time>2026-04-05T09:33:21.948Z</time></trkpt><trkpt lat="43.03575756107376" lon="2.2942985553992385"><ele>265.0</ele><time>2026-04-05T09:33:22.948Z</time></trkpt><trkpt lat="43.03572591937084" lon="2.294441290425434"><ele>264.4</ele><time>2026-04-05T09:33:23.948Z</time></trkpt><trkpt lat="43.03571085041317" lon="2.2945760988662967"><ele>263.8</ele><time>2026-04-05T09:33:24.948Z</time></trkpt><trkpt lat="43.03570007942516" lon="2.2947159393745964"><ele>263.2</ele><time>2026-04-05T09:33:25.948Z</time></trkpt><trkpt lat="43.03568077404075" lon="2.2948521992609576"><ele>262.6</ele><time>2026-04-05T09:33:26.948Z</time></trkpt><trkpt lat="43.03565870808435" lon="2.294995466514929"><ele>262.0</ele><time>2026-04-05T09:33:27.948Z</time></trkpt><trkpt lat="43.0356339864803" lon="2.2951354026689175"><ele>262.0</ele><time>2026-04-05T09:33:28.948Z</time></trkpt><trkpt lat="43.03560734412457" lon="2.295260257587941"><ele>262.0</ele><time>2026-04-05T09:33:29.948Z</time></trkpt><trkpt lat="43.035591059052955" lon="2.2953769281697363"><ele>262.0</ele><time>2026-04-05T09:33:30.948Z</time></trkpt><trkpt lat="43.035574110811986" lon="2.2955175704857393"><ele>262.0</ele><time>2026-04-05T09:33:31.948Z</time></trkpt><trkpt lat="43.03554323070695" lon="2.2956388342775638"><ele>262.0</ele><time>2026-04-05T09:33:32.948Z</time></trkpt><trkpt lat="43.03551254898062" lon="2.2957631043046853"><ele>263.4</ele><time>2026-04-05T09:33:33.948Z</time></trkpt><trkpt lat="43.035495776358495" lon="2.2959155475016595"><ele>264.79999999999995</ele><time>2026-04-05T09:33:34.948Z</time></trkpt><trkpt lat="43.03548722733729" lon="2.29607199395434"><ele>266.2</ele><time>2026-04-05T09:33:35.948Z</time></trkpt><trkpt lat="43.035467223686986" lon="2.296209036247666"><ele>267.59999999999997</ele><time>2026-04-05T09:33:36.948Z</time></trkpt><trkpt lat="43.035441738657866" lon="2.296327171713219"><ele>269.0</ele><time>2026-04-05T09:33:37.948Z</time></trkpt><trkpt lat="43.03543197704014" lon="2.296413055842432"><ele>270.2</ele><time>2026-04-05T09:33:38.948Z</time></trkpt><trkpt lat="43.03543505279347" lon="2.2965077115253028"><ele>271.4</ele><time>2026-04-05T09:33:39.948Z</time></trkpt><trkpt lat="43.03543545252926" lon="2.296619686912861"><ele>272.6</ele><time>2026-04-05T09:33:40.948Z</time></trkpt><trkpt lat="43.03543801051586" lon="2.2967548579315467"><ele>273.8</ele><time>2026-04-05T09:33:41.948Z</time></trkpt><trkpt lat="43.03542640824186" lon="2.29689327584928"><ele>275.0</ele><time>2026-04-05T09:33:42.948Z</time></trkpt><trkpt lat="43.03541750093325" lon="2.29704574032335"><ele>275.0</ele><time>2026-04-05T09:33:43.948Z</time></trkpt><trkpt lat="43.03541416079412" lon="2.2972030093967235"><ele>275.0</ele><time>2026-04-05T09:33:44.948Z</time></trkpt><trkpt lat="43.03542532447591" lon="2.297330065471984"><ele>275.0</ele><time>2026-04-05T09:33:45.948Z</time></trkpt><trkpt lat="43.0354340974434" lon="2.2974476778614967"><ele>275.0</ele><time>2026-04-05T09:33:46.948Z</time></trkpt><trkpt lat="43.035453196197516" lon="2.2975816252364845"><ele>275.0</ele><time>2026-04-05T09:33:47.948Z</time></trkpt><trkpt lat="43.03547530218057" lon="2.297731249563754"><ele>275.2</ele><time>2026-04-05T09:33:48.948Z</time></trkpt><trkpt lat="43.0354961690058" lon="2.2978604972005985"><ele>275.4</ele><time>2026-04-05T09:33:49.948Z</time></trkpt><trkpt lat="43.035502081521905" lon="2.2979679586049326"><ele>275.6</ele><time>2026-04-05T09:33:50.948Z</time></trkpt><trkpt lat="43.035486201844634" lon="2.298105184042341"><ele>275.8</ele><time>2026-04-05T09:33:51.948Z</time></trkpt><trkpt lat="43.035463612604126" lon="2.298237805385459"><ele>276.0</ele><time>2026-04-05T09:33:52.948Z</time></trkpt><trkpt lat="43.03545035552764" lon="2.298389032614643"><ele>276.6</ele><time>2026-04-05T09:33:53.948Z</time></trkpt><trkpt lat="43.03543400650411" lon="2.2985427082174974"><ele>277.20000000000005</ele><time>2026-04-05T09:33:54.948Z</time></trkpt><trkpt lat="43.03542373283892" lon="2.298706799342844"><ele>277.79999999999995</ele><time>2026-04-05T09:33:55.948Z</time></trkpt><trkpt lat="43.035413693600866" lon="2.2988529306565044"><ele>278.4</ele><time>2026-04-05T09:33:56.948Z</time></trkpt><trkpt lat="43.03540198212567" lon="2.2989745399591075"><ele>279.0</ele><time>2026-04-05T09:33:57.948Z</time></trkpt><trkpt lat="43.035396134747984" lon="2.2990812236511013"><ele>280.2</ele><time>2026-04-05T09:33:58.948Z</time></trkpt><trkpt lat="43.03541024499388" lon="2.2991916366484917"><ele>281.4</ele><time>2026-04-05T09:33:59.948Z</time></trkpt><trkpt lat="43.03542843535302" lon="2.2993112013677424"><ele>282.6</ele><time>2026-04-05T09:34:00.948Z</time></trkpt><trkpt lat="43.035449267778034" lon="2.2994571939121338"><ele>283.8</ele><time>2026-04-05T09:34:01.948Z</time></trkpt><trkpt lat="43.03546390079242" lon="2.2995878285124287"><ele>285.0</ele><time>2026-04-05T09:34:02.948Z</time></trkpt><trkpt lat="43.03546675937054" lon="2.2997110901827704"><ele>285.4</ele><time>2026-04-05T09:34:03.948Z</time></trkpt><trkpt lat="43.03545171576986" lon="2.2998262170601453"><ele>285.8</ele><time>2026-04-05T09:34:04.948Z</time></trkpt><trkpt lat="43.03543181439727" lon="2.299942320719724"><ele>286.2</ele><time>2026-04-05T09:34:05.948Z</time></trkpt><trkpt lat="43.035435811183476" lon="2.3000822876934013"><ele>286.6</ele><time>2026-04-05T09:34:06.948Z</time></trkpt><trkpt lat="43.035451723325366" lon="2.300241123101698"><ele>287.0</ele><time>2026-04-05T09:34:07.948Z</time></trkpt><trkpt lat="43.03546560153557" lon="2.3003986113339603"><ele>287.0</ele><time>2026-04-05T09:34:08.948Z</time></trkpt><trkpt lat="43.0354649398189" lon="2.300552977345686"><ele>287.0</ele><time>2026-04-05T09:34:09.948Z</time></trkpt><trkpt lat="43.03546374185602" lon="2.3006935450034334"><ele>287.0</ele><time>2026-04-05T09:34:10.948Z</time></trkpt><trkpt lat="43.03547482989416" lon="2.3008231446976457"><ele>287.0</ele><time>2026-04-05T09:34:11.948Z</time></trkpt><trkpt lat="43.03549870209112" lon="2.3009291486732586"><ele>287.0</ele><time>2026-04-05T09:34:12.948Z</time></trkpt><trkpt lat="43.035525983550095" lon="2.301035717861253"><ele>286.8</ele><time>2026-04-05T09:34:13.948Z</time></trkpt><trkpt lat="43.03554681640204" lon="2.3011227496784357"><ele>286.6</ele><time>2026-04-05T09:34:14.948Z</time></trkpt><trkpt lat="43.03553414944139" lon="2.3012810665153203"><ele>286.40000000000003</ele><time>2026-04-05T09:34:16.948Z</time></trkpt><trkpt lat="43.03551128420256" lon="2.3014461374345356"><ele>286.2</ele><time>2026-04-05T09:34:18.948Z</time></trkpt><trkpt lat="43.03548753608767" lon="2.3015752945402417"><ele>286.0</ele><time>2026-04-05T09:34:19.948Z</time></trkpt><trkpt lat="43.035469127764486" lon="2.30172504936768"><ele>286.75</ele><time>2026-04-05T09:34:20.948Z</time></trkpt><trkpt lat="43.03545110249583" lon="2.3018877834433686"><ele>287.5</ele><time>2026-04-05T09:34:21.948Z</time></trkpt><trkpt lat="43.03543900821876" lon="2.302032915110078"><ele>288.25</ele><time>2026-04-05T09:34:22.948Z</time></trkpt><trkpt lat="43.03541696926113" lon="2.3021845500849647"><ele>289.0</ele><time>2026-04-05T09:34:23.948Z</time></trkpt><trkpt lat="43.03540405549314" lon="2.302344059066266"><ele>290.5</ele><time>2026-04-05T09:34:24.948Z</time></trkpt><trkpt lat="43.03539109220227" lon="2.3024806934139903"><ele>292.0</ele><time>2026-04-05T09:34:25.948Z</time></trkpt><trkpt lat="43.03537693553089" lon="2.3026497052813544"><ele>293.5</ele><time>2026-04-05T09:34:26.948Z</time></trkpt><trkpt lat="43.03533594562346" lon="2.3028111998374308"><ele>295.0</ele><time>2026-04-05T09:34:27.948Z</time></trkpt><trkpt lat="43.03529188525696" lon="2.3029762365387225"><ele>297.25</ele><time>2026-04-05T09:34:28.948Z</time></trkpt><trkpt lat="43.03524146601756" lon="2.303122534062432"><ele>299.5</ele><time>2026-04-05T09:34:29.948Z</time></trkpt><trkpt lat="43.03518799706121" lon="2.303269132189353"><ele>301.75</ele><time>2026-04-05T09:34:30.948Z</time></trkpt><trkpt lat="43.03513561312495" lon="2.3034061932376044"><ele>304.0</ele><time>2026-04-05T09:34:31.948Z</time></trkpt><trkpt lat="43.035062063490656" lon="2.3035459838048653"><ele>304.0</ele><time>2026-04-05T09:34:32.948Z</time></trkpt><trkpt lat="43.03498303947877" lon="2.303693923872686"><ele>304.0</ele><time>2026-04-05T09:34:33.948Z</time></trkpt><trkpt lat="43.03492936860608" lon="2.303855824723287"><ele>304.0</ele><time>2026-04-05T09:34:34.948Z</time></trkpt><trkpt lat="43.0348841362708" lon="2.3040213620104164"><ele>304.0</ele><time>2026-04-05T09:34:35.948Z</time></trkpt><trkpt lat="43.03484272212663" lon="2.3041885853748374"><ele>305.59999999999997</ele><time>2026-04-05T09:34:36.948Z</time></trkpt><trkpt lat="43.03479357704835" lon="2.3043415385896666"><ele>307.2</ele><time>2026-04-05T09:34:37.948Z</time></trkpt><trkpt lat="43.034748100755486" lon="2.3044747427996706"><ele>308.79999999999995</ele><time>2026-04-05T09:34:38.948Z</time></trkpt><trkpt lat="43.034691973872" lon="2.3045792967245133"><ele>310.4</ele><time>2026-04-05T09:34:39.948Z</time></trkpt><trkpt lat="43.03461828721022" lon="2.3046457743633515"><ele>312.0</ele><time>2026-04-05T09:34:40.948Z</time></trkpt><trkpt lat="43.03452824227998" lon="2.3046762175284567"><ele>312.0</ele><time>2026-04-05T09:34:41.948Z</time></trkpt><trkpt lat="43.03444392933618" lon="2.304672491728475"><ele>312.0</ele><time>2026-04-05T09:34:42.948Z</time></trkpt><trkpt lat="43.034378629832005" lon="2.304650021511279"><ele>312.0</ele><time>2026-04-05T09:34:43.949Z</time></trkpt><trkpt lat="43.03431149598843" lon="2.3046116393897824"><ele>312.0</ele><time>2026-04-05T09:34:45.949Z</time></trkpt><trkpt lat="43.034364397969874" lon="2.304660658654491"><ele>312.0</ele><time>2026-04-05T09:34:53.949Z</time></trkpt><trkpt lat="43.0344709604959" lon="2.3047300516102904"><ele>312.0</ele><time>2026-04-05T09:34:55.949Z</time></trkpt><trkpt lat="43.034566278753346" lon="2.304705933214807"><ele>312.0</ele><time>2026-04-05T09:34:56.949Z</time></trkpt><trkpt lat="43.03465517624285" lon="2.304650994430613"><ele>312.0</ele><time>2026-04-05T09:34:57.949Z</time></trkpt><trkpt lat="43.03471654676377" lon="2.3045838124589566"><ele>312.0</ele><time>2026-04-05T09:34:58.949Z</time></trkpt><trkpt lat="43.03474376383225" lon="2.3044664280612657"><ele>312.0</ele><time>2026-04-05T09:35:00.949Z</time></trkpt><trkpt lat="43.03478778502497" lon="2.3043742713132884"><ele>312.0</ele><time>2026-04-05T09:35:03.949Z</time></trkpt><trkpt lat="43.034730510700165" lon="2.304474343673929"><ele>312.0</ele><time>2026-04-05T09:35:13.944Z</time></trkpt><trkpt lat="43.03478281986005" lon="2.3044015554729067"><ele>312.0</ele><time>2026-04-05T09:35:32.944Z</time></trkpt><trkpt lat="43.03482535988844" lon="2.304255538597237"><ele>312.0</ele><time>2026-04-05T09:35:33.944Z</time></trkpt><trkpt lat="43.03485583428628" lon="2.3041487948074706"><ele>312.0</ele><time>2026-04-05T09:35:34.944Z</time></trkpt><trkpt lat="43.034889359701666" lon="2.3040344669835204"><ele>312.0</ele><time>2026-04-05T09:35:35.944Z</time></trkpt><trkpt lat="43.03492786715419" lon="2.3039134809902406"><ele>312.0</ele><time>2026-04-05T09:35:36.944Z</time></trkpt><trkpt lat="43.03495909581151" lon="2.3038214137943345"><ele>310.6666666666667</ele><time>2026-04-05T09:35:37.944Z</time></trkpt><trkpt lat="43.03498545777139" lon="2.3037329189234916"><ele>309.3333333333333</ele><time>2026-04-05T09:35:38.944Z</time></trkpt><trkpt lat="43.03502985436552" lon="2.303635267068426"><ele>308.0</ele><time>2026-04-05T09:35:39.944Z</time></trkpt><trkpt lat="43.03508155202298" lon="2.303533656102787"><ele>306.66666666666663</ele><time>2026-04-05T09:35:40.944Z</time></trkpt><trkpt lat="43.03513211453922" lon="2.3034370604146694"><ele>305.3333333333333</ele><time>2026-04-05T09:35:41.944Z</time></trkpt><trkpt lat="43.035183558362114" lon="2.3033276642752023"><ele>304.0</ele><time>2026-04-05T09:35:42.944Z</time></trkpt><trkpt lat="43.0352296094708" lon="2.3032065120514535"><ele>302.5</ele><time>2026-04-05T09:35:43.944Z</time></trkpt><trkpt lat="43.03527387135297" lon="2.3030778946245123"><ele>301.0</ele><time>2026-04-05T09:35:44.944Z</time></trkpt><trkpt lat="43.03530677539022" lon="2.3029717569211763"><ele>299.5</ele><time>2026-04-05T09:35:45.944Z</time></trkpt><trkpt lat="43.035330782848824" lon="2.3028785888763768"><ele>298.0</ele><time>2026-04-05T09:35:46.944Z</time></trkpt><trkpt lat="43.035372164881174" lon="2.3027905658043486"><ele>296.5</ele><time>2026-04-05T09:35:48.944Z</time></trkpt><trkpt lat="43.03543890743455" lon="2.302692479849788"><ele>295.0</ele><time>2026-04-05T09:35:51.944Z</time></trkpt><trkpt lat="43.03532011426569" lon="2.302790860757668"><ele>295.0</ele><time>2026-04-05T09:35:58.944Z</time></trkpt><trkpt lat="43.0352508730103" lon="2.3027848195358525"><ele>295.0</ele><time>2026-04-05T09:35:59.944Z</time></trkpt><trkpt lat="43.035240667541366" lon="2.302885552986455"><ele>295.0</ele><time>2026-04-05T09:36:01.944Z</time></trkpt><trkpt lat="43.03531491989855" lon="2.3030124469079594"><ele>295.0</ele><time>2026-04-05T09:36:02.944Z</time></trkpt><trkpt lat="43.03533177121891" lon="2.303115951550774"><ele>295.0</ele><time>2026-04-05T09:36:04.944Z</time></trkpt><trkpt lat="43.03526716183579" lon="2.303211376911954"><ele>295.0</ele><time>2026-04-05T09:36:06.944Z</time></trkpt><trkpt lat="43.035193059943445" lon="2.3033557663537634"><ele>296.8</ele><time>2026-04-05T09:36:08.944Z</time></trkpt><trkpt lat="43.03515361832187" lon="2.3034517216510024"><ele>298.6</ele><time>2026-04-05T09:36:09.944Z</time></trkpt><trkpt lat="43.03509980722489" lon="2.303561398562122"><ele>300.4</ele><time>2026-04-05T09:36:10.944Z</time></trkpt><trkpt lat="43.035053959571236" lon="2.303674438899832"><ele>302.2</ele><time>2026-04-05T09:36:11.944Z</time></trkpt><trkpt lat="43.035015680502696" lon="2.3038069849046305"><ele>304.0</ele><time>2026-04-05T09:36:12.944Z</time></trkpt><trkpt lat="43.034981568122895" lon="2.303955333458843"><ele>306.0</ele><time>2026-04-05T09:36:13.944Z</time></trkpt><trkpt lat="43.03495852330052" lon="2.3041201488537384"><ele>308.0</ele><time>2026-04-05T09:36:14.944Z</time></trkpt><trkpt lat="43.03494175455397" lon="2.304292036339775"><ele>310.0</ele><time>2026-04-05T09:36:15.944Z</time></trkpt><trkpt lat="43.03491099402906" lon="2.3044649064452543"><ele>312.0</ele><time>2026-04-05T09:36:16.944Z</time></trkpt><trkpt lat="43.03486969334987" lon="2.3046238517198043"><ele>312.75</ele><time>2026-04-05T09:36:17.944Z</time></trkpt><trkpt lat="43.03482500620858" lon="2.3047748552121035"><ele>313.5</ele><time>2026-04-05T09:36:18.944Z</time></trkpt><trkpt lat="43.03476969708376" lon="2.304920089502847"><ele>314.25</ele><time>2026-04-05T09:36:19.944Z</time></trkpt><trkpt lat="43.03471690307937" lon="2.3050509726834587"><ele>315.0</ele><time>2026-04-05T09:36:20.944Z</time></trkpt><trkpt lat="43.03466164921671" lon="2.305182498658677"><ele>315.0</ele><time>2026-04-05T09:36:21.944Z</time></trkpt><trkpt lat="43.034609703110945" lon="2.305318664674503"><ele>315.0</ele><time>2026-04-05T09:36:22.944Z</time></trkpt><trkpt lat="43.034544548409244" lon="2.305437628469661"><ele>315.0</ele><time>2026-04-05T09:36:23.944Z</time></trkpt><trkpt lat="43.0344883636942" lon="2.3055738800203596"><ele>315.0</ele><time>2026-04-05T09:36:24.944Z</time></trkpt><trkpt lat="43.034417367843965" lon="2.3057042678598054"><ele>317.25</ele><time>2026-04-05T09:36:25.944Z</time></trkpt><trkpt lat="43.03434439357488" lon="2.3058243278688533"><ele>319.5</ele><time>2026-04-05T09:36:26.944Z</time></trkpt><trkpt lat="43.03426731320146" lon="2.3059433527828235"><ele>321.75</ele><time>2026-04-05T09:36:27.944Z</time></trkpt><trkpt lat="43.0341930281213" lon="2.3060658743616718"><ele>324.0</ele><time>2026-04-05T09:36:28.944Z</time></trkpt><trkpt lat="43.034108580656564" lon="2.3061810354169987"><ele>325.25</ele><time>2026-04-05T09:36:29.944Z</time></trkpt><trkpt lat="43.03402078913271" lon="2.3062837100607885"><ele>326.5</ele><time>2026-04-05T09:36:30.944Z</time></trkpt><trkpt lat="43.03392161851602" lon="2.3063755635957244"><ele>327.75</ele><time>2026-04-05T09:36:31.944Z</time></trkpt><trkpt lat="43.033830598666746" lon="2.3064795209020774"><ele>329.0</ele><time>2026-04-05T09:36:32.944Z</time></trkpt><trkpt lat="43.03375561694902" lon="2.3066005370371823"><ele>330.75</ele><time>2026-04-05T09:36:33.944Z</time></trkpt><trkpt lat="43.033680042553584" lon="2.306741061118095"><ele>332.5</ele><time>2026-04-05T09:36:34.944Z</time></trkpt><trkpt lat="43.03360441509564" lon="2.3068837625856617"><ele>334.25</ele><time>2026-04-05T09:36:35.944Z</time></trkpt><trkpt lat="43.033521067610174" lon="2.3070307620165273"><ele>336.0</ele><time>2026-04-05T09:36:36.944Z</time></trkpt><trkpt lat="43.03343275864917" lon="2.3071694730393326"><ele>338.5</ele><time>2026-04-05T09:36:37.944Z</time></trkpt><trkpt lat="43.03334834004248" lon="2.307298432524631"><ele>341.0</ele><time>2026-04-05T09:36:38.944Z</time></trkpt><trkpt lat="43.033268492259324" lon="2.3074062150088217"><ele>343.5</ele><time>2026-04-05T09:36:39.944Z</time></trkpt><trkpt lat="43.033186985217895" lon="2.307511054492657"><ele>346.0</ele><time>2026-04-05T09:36:40.944Z</time></trkpt><trkpt lat="43.033103391950455" lon="2.3076295454856726"><ele>346.0</ele><time>2026-04-05T09:36:41.944Z</time></trkpt><trkpt lat="43.03301638479918" lon="2.307758404649573"><ele>346.0</ele><time>2026-04-05T09:36:42.945Z</time></trkpt><trkpt lat="43.032930870471766" lon="2.3079027562785335"><ele>346.0</ele><time>2026-04-05T09:36:43.945Z</time></trkpt><trkpt lat="43.032856755917095" lon="2.3080541043236247"><ele>346.0</ele><time>2026-04-05T09:36:44.945Z</time></trkpt><trkpt lat="43.032799212148376" lon="2.308211195080239"><ele>346.25</ele><time>2026-04-05T09:36:45.945Z</time></trkpt><trkpt lat="43.032753202403356" lon="2.3083747450711716"><ele>346.5</ele><time>2026-04-05T09:36:46.945Z</time></trkpt><trkpt lat="43.03270075013077" lon="2.308536116206208"><ele>346.75</ele><time>2026-04-05T09:36:47.945Z</time></trkpt><trkpt lat="43.03263267127627" lon="2.308681185081813"><ele>347.0</ele><time>2026-04-05T09:36:48.945Z</time></trkpt><trkpt lat="43.032551128113596" lon="2.3088029743488714"><ele>350.25</ele><time>2026-04-05T09:36:49.945Z</time></trkpt><trkpt lat="43.032442064897275" lon="2.308884723122979"><ele>353.5</ele><time>2026-04-05T09:36:50.945Z</time></trkpt><trkpt lat="43.03232797209646" lon="2.3089333259528564"><ele>356.75</ele><time>2026-04-05T09:36:51.945Z</time></trkpt><trkpt lat="43.03220421145467" lon="2.308980475948782"><ele>360.0</ele><time>2026-04-05T09:36:52.945Z</time></trkpt><trkpt lat="43.03208612420101" lon="2.309051305227668"><ele>360.0</ele><time>2026-04-05T09:36:53.945Z</time></trkpt><trkpt lat="43.0319732765473" lon="2.3091443974111736"><ele>360.0</ele><time>2026-04-05T09:36:54.945Z</time></trkpt><trkpt lat="43.03186897986842" lon="2.309269476094002"><ele>360.0</ele><time>2026-04-05T09:36:55.945Z</time></trkpt><trkpt lat="43.03177551198284" lon="2.3093988513744086"><ele>360.0</ele><time>2026-04-05T09:36:56.945Z</time></trkpt><trkpt lat="43.03168264759829" lon="2.309517409358995"><ele>363.5</ele><time>2026-04-05T09:36:57.945Z</time></trkpt><trkpt lat="43.03158739487385" lon="2.309636587308288"><ele>367.0</ele><time>2026-04-05T09:36:58.945Z</time></trkpt><trkpt lat="43.031485188817314" lon="2.30977223931374"><ele>370.5</ele><time>2026-04-05T09:36:59.945Z</time></trkpt><trkpt lat="43.031378765978786" lon="2.3099080120037474"><ele>374.0</ele><time>2026-04-05T09:37:00.945Z</time></trkpt><trkpt lat="43.03128285724694" lon="2.310003237631364"><ele>374.0</ele><time>2026-04-05T09:37:01.945Z</time></trkpt><trkpt lat="43.031196578360905" lon="2.310083300799339"><ele>374.0</ele><time>2026-04-05T09:37:02.945Z</time></trkpt><trkpt lat="43.031105442217694" lon="2.310165530973957"><ele>374.0</ele><time>2026-04-05T09:37:03.945Z</time></trkpt><trkpt lat="43.03101930034309" lon="2.31027909512327"><ele>374.0</ele><time>2026-04-05T09:37:04.945Z</time></trkpt><trkpt lat="43.03095403898922" lon="2.310414767975175"><ele>374.0</ele><time>2026-04-05T09:37:05.945Z</time></trkpt><trkpt lat="43.03091719999517" lon="2.3105534900861837"><ele>374.0</ele><time>2026-04-05T09:37:06.945Z</time></trkpt><trkpt lat="43.030919033811514" lon="2.3106888373327905"><ele>374.0</ele><time>2026-04-05T09:37:07.945Z</time></trkpt><trkpt lat="43.030875336558914" lon="2.310855477150484"><ele>374.0</ele><time>2026-04-05T09:37:08.945Z</time></trkpt><trkpt lat="43.031134525434574" lon="2.3107161944661216"><ele>374.0</ele><time>2026-04-05T09:37:09.945Z</time></trkpt><trkpt lat="43.03114402858891" lon="2.310864194616322"><ele>374.0</ele><time>2026-04-05T09:37:10.945Z</time></trkpt><trkpt lat="43.03114591050483" lon="2.310997051589741"><ele>374.0</ele><time>2026-04-05T09:37:11.945Z</time></trkpt><trkpt lat="43.031117478834986" lon="2.3110836510949455"><ele>374.0</ele><time>2026-04-05T09:37:13.945Z</time></trkpt><trkpt lat="43.03118444622523" lon="2.3112262981816327"><ele>374.0</ele><time>2026-04-05T09:37:15.942Z</time></trkpt><trkpt lat="43.03120142657044" lon="2.31131972884776"><ele>374.4</ele><time>2026-04-05T09:37:16.942Z</time></trkpt><trkpt lat="43.03121413950552" lon="2.3114612368996807"><ele>374.79999999999995</ele><time>2026-04-05T09:37:17.941Z</time></trkpt><trkpt lat="43.03122364525676" lon="2.311599496694622"><ele>375.20000000000005</ele><time>2026-04-05T09:37:18.942Z</time></trkpt><trkpt lat="43.031238496784006" lon="2.3117366760406863"><ele>375.6</ele><time>2026-04-05T09:37:19.942Z</time></trkpt><trkpt lat="43.03127381376478" lon="2.3118750402030206"><ele>376.0</ele><time>2026-04-05T09:37:20.941Z</time></trkpt><trkpt lat="43.03132310909022" lon="2.3120065551444497"><ele>376.0</ele><time>2026-04-05T09:37:21.941Z</time></trkpt><trkpt lat="43.031350928403334" lon="2.312144183967278"><ele>376.0</ele><time>2026-04-05T09:37:22.941Z</time></trkpt><trkpt lat="43.03135449876373" lon="2.3122911688388537"><ele>376.0</ele><time>2026-04-05T09:37:23.941Z</time></trkpt><trkpt lat="43.03135836196965" lon="2.3124411237235227"><ele>376.0</ele><time>2026-04-05T09:37:24.941Z</time></trkpt><trkpt lat="43.0313652621889" lon="2.3125862699564923"><ele>376.0</ele><time>2026-04-05T09:37:25.941Z</time></trkpt><trkpt lat="43.03138209274998" lon="2.3127329090778685"><ele>374.8</ele><time>2026-04-05T09:37:26.941Z</time></trkpt><trkpt lat="43.0314025877358" lon="2.312865759457998"><ele>373.6</ele><time>2026-04-05T09:37:27.941Z</time></trkpt><trkpt lat="43.03145281358333" lon="2.31300142041699"><ele>372.4</ele><time>2026-04-05T09:37:28.941Z</time></trkpt><trkpt lat="43.03148388953282" lon="2.313145694564105"><ele>371.2</ele><time>2026-04-05T09:37:29.941Z</time></trkpt><trkpt lat="43.031501891079095" lon="2.313282935718208"><ele>370.0</ele><time>2026-04-05T09:37:30.941Z</time></trkpt><trkpt lat="43.031520193305916" lon="2.3133674811414275"><ele>369.0</ele><time>2026-04-05T09:37:32.941Z</time></trkpt><trkpt lat="43.03149390826794" lon="2.313278075439982"><ele>368.0</ele><time>2026-04-05T09:37:35.941Z</time></trkpt><trkpt lat="43.03151331588884" lon="2.31336284643941"><ele>367.0</ele><time>2026-04-05T09:37:47.89Z</time></trkpt><trkpt lat="43.03159085494912" lon="2.3133881753982877"><ele>366.0</ele><time>2026-04-05T09:37:49.89Z</time></trkpt><trkpt lat="43.03150171650111" lon="2.3133571264272583"><ele>365.0</ele><time>2026-04-05T09:37:55.89Z</time></trkpt><trkpt lat="43.031379402003736" lon="2.313300594121268"><ele>364.0</ele><time>2026-04-05T09:37:57.89Z</time></trkpt><trkpt lat="43.03127323799087" lon="2.3133239753707255"><ele>364.0</ele><time>2026-04-05T09:37:59.89Z</time></trkpt><trkpt lat="43.03115631000596" lon="2.3132486745403043"><ele>364.0</ele><time>2026-04-05T09:38:01.89Z</time></trkpt><trkpt lat="43.03109192290346" lon="2.3132301176256744"><ele>364.0</ele><time>2026-04-05T09:38:02.89Z</time></trkpt><trkpt lat="43.03099132355403" lon="2.3131931126482064"><ele>364.0</ele><time>2026-04-05T09:38:04.89Z</time></trkpt><trkpt lat="43.03088782656586" lon="2.3131554038596973"><ele>364.0</ele><time>2026-04-05T09:38:06.89Z</time></trkpt><trkpt lat="43.030796274939185" lon="2.31310621631052"><ele>365.0</ele><time>2026-04-05T09:38:08.89Z</time></trkpt><trkpt lat="43.03073212218589" lon="2.3130507407742895"><ele>366.0</ele><time>2026-04-05T09:38:10.89Z</time></trkpt><trkpt lat="43.03072674225699" lon="2.312949885551373"><ele>367.0</ele><time>2026-04-05T09:38:16.89Z</time></trkpt><trkpt lat="43.03073050395722" lon="2.3128022665222074"><ele>368.0</ele><time>2026-04-05T09:38:18.89Z</time></trkpt><trkpt lat="43.03074681421291" lon="2.312669549550705"><ele>369.0</ele><time>2026-04-05T09:38:20.89Z</time></trkpt><trkpt lat="43.03077931481197" lon="2.312593670132973"><ele>370.0</ele><time>2026-04-05T09:38:21.89Z</time></trkpt><trkpt lat="43.030857344265065" lon="2.312495595956428"><ele>370.0</ele><time>2026-04-05T09:38:23.89Z</time></trkpt><trkpt lat="43.030941950627685" lon="2.3124086285759993"><ele>370.0</ele><time>2026-04-05T09:38:25.89Z</time></trkpt><trkpt lat="43.031017915603094" lon="2.3123212786743084"><ele>370.0</ele><time>2026-04-05T09:38:27.89Z</time></trkpt><trkpt lat="43.030947874608316" lon="2.3123137513744467"><ele>370.0</ele><time>2026-04-05T09:38:32.89Z</time></trkpt><trkpt lat="43.03087916954886" lon="2.312372478487601"><ele>370.0</ele><time>2026-04-05T09:38:35.89Z</time></trkpt><trkpt lat="43.030813686801984" lon="2.3124274459825442"><ele>370.0</ele><time>2026-04-05T09:38:38.89Z</time></trkpt><trkpt lat="43.03075427510696" lon="2.3124818341140343"><ele>370.0</ele><time>2026-04-05T09:38:41.889Z</time></trkpt><trkpt lat="43.03069535863373" lon="2.3125300817139745"><ele>370.0</ele><time>2026-04-05T09:38:44.889Z</time></trkpt><trkpt lat="43.03064651316885" lon="2.3125968389772424"><ele>370.0</ele><time>2026-04-05T09:38:48.889Z</time></trkpt><trkpt lat="43.03072130214589" lon="2.3125497232366885"><ele>370.0</ele><time>2026-04-05T09:38:51.889Z</time></trkpt><trkpt lat="43.03080635037575" lon="2.3124320150306454"><ele>370.0</ele><time>2026-04-05T09:38:53.889Z</time></trkpt><trkpt lat="43.03085457654603" lon="2.312373387212437"><ele>370.0</ele><time>2026-04-05T09:38:54.889Z</time></trkpt><trkpt lat="43.03095195036514" lon="2.3122906984559695"><ele>370.0</ele><time>2026-04-05T09:38:56.889Z</time></trkpt><trkpt lat="43.030966930589294" lon="2.3123801720155104"><ele>370.0</ele><time>2026-04-05T09:38:59.889Z</time></trkpt><trkpt lat="43.030838004612335" lon="2.312507422050116"><ele>370.0</ele><time>2026-04-05T09:39:01.889Z</time></trkpt><trkpt lat="43.03076576210858" lon="2.312580801690762"><ele>370.0</ele><time>2026-04-05T09:39:02.889Z</time></trkpt><trkpt lat="43.030726312955956" lon="2.3126548361599406"><ele>370.0</ele><time>2026-04-05T09:39:03.889Z</time></trkpt><trkpt lat="43.03070203814013" lon="2.312776486729842"><ele>368.8</ele><time>2026-04-05T09:39:05.889Z</time></trkpt><trkpt lat="43.03071174935442" lon="2.3128869664554266"><ele>367.6</ele><time>2026-04-05T09:39:07.889Z</time></trkpt><trkpt lat="43.03071390407518" lon="2.313013684785105"><ele>366.4</ele><time>2026-04-05T09:39:10.889Z</time></trkpt><trkpt lat="43.03075889069217" lon="2.3130928814145215"><ele>365.2</ele><time>2026-04-05T09:39:12.889Z</time></trkpt><trkpt lat="43.030874495243864" lon="2.313141671673169"><ele>364.0</ele><time>2026-04-05T09:39:14.889Z</time></trkpt><trkpt lat="43.03097700101521" lon="2.3131847471867153"><ele>364.0</ele><time>2026-04-05T09:39:16.889Z</time></trkpt><trkpt lat="43.031082245069975" lon="2.3132329033341485"><ele>364.0</ele><time>2026-04-05T09:39:18.889Z</time></trkpt><trkpt lat="43.03117071358367" lon="2.313270573679185"><ele>364.0</ele><time>2026-04-05T09:39:20.885Z</time></trkpt><trkpt lat="43.03124851267427" lon="2.3132905864028364"><ele>364.0</ele><time>2026-04-05T09:39:22.885Z</time></trkpt><trkpt lat="43.03133005248606" lon="2.3133224661952627"><ele>364.0</ele><time>2026-04-05T09:39:24.885Z</time></trkpt><trkpt lat="43.03141344045491" lon="2.313324176795018"><ele>364.0</ele><time>2026-04-05T09:39:26.885Z</time></trkpt><trkpt lat="43.03150199453405" lon="2.313316433458372"><ele>364.0</ele><time>2026-04-05T09:39:28.884Z</time></trkpt><trkpt lat="43.03151869373931" lon="2.3134029358531834"><ele>364.0</ele><time>2026-04-05T09:39:35.884Z</time></trkpt><trkpt lat="43.03146433069879" lon="2.3134594656218543"><ele>364.0</ele><time>2026-04-05T09:39:47.884Z</time></trkpt><trkpt lat="43.03132200307942" lon="2.313386953043561"><ele>364.0</ele><time>2026-04-05T09:39:49.884Z</time></trkpt><trkpt lat="43.03124566976672" lon="2.313378245052571"><ele>364.0</ele><time>2026-04-05T09:39:50.884Z</time></trkpt><trkpt lat="43.0311761056304" lon="2.313359389303866"><ele>364.0</ele><time>2026-04-05T09:39:51.884Z</time></trkpt><trkpt lat="43.03111079115534" lon="2.3133239894278175"><ele>364.0</ele><time>2026-04-05T09:39:52.884Z</time></trkpt><trkpt lat="43.03104914997875" lon="2.31328773767469"><ele>364.0</ele><time>2026-04-05T09:39:53.884Z</time></trkpt><trkpt lat="43.03097650758563" lon="2.3132523355394987"><ele>364.0</ele><time>2026-04-05T09:39:54.884Z</time></trkpt><trkpt lat="43.03090464878141" lon="2.3132334386283775"><ele>364.0</ele><time>2026-04-05T09:39:55.884Z</time></trkpt><trkpt lat="43.03083979509535" lon="2.313212748692751"><ele>364.0</ele><time>2026-04-05T09:39:56.884Z</time></trkpt><trkpt lat="43.03077822233313" lon="2.313181358525164"><ele>367.79999999999995</ele><time>2026-04-05T09:39:57.884Z</time></trkpt><trkpt lat="43.03067995041321" lon="2.313193411048575"><ele>371.59999999999997</ele><time>2026-04-05T09:39:59.884Z</time></trkpt><trkpt lat="43.03063502497608" lon="2.313361863493175"><ele>375.4</ele><time>2026-04-05T09:40:01.884Z</time></trkpt><trkpt lat="43.030621371441995" lon="2.3134641244986627"><ele>379.2</ele><time>2026-04-05T09:40:02.884Z</time></trkpt><trkpt lat="43.03060540418162" lon="2.3135702896714014"><ele>383.0</ele><time>2026-04-05T09:40:03.884Z</time></trkpt><trkpt lat="43.0305865337487" lon="2.3136606609206942"><ele>383.0</ele><time>2026-04-05T09:40:04.884Z</time></trkpt><trkpt lat="43.03056825409381" lon="2.313761850761927"><ele>383.0</ele><time>2026-04-05T09:40:05.884Z</time></trkpt><trkpt lat="43.030633433957235" lon="2.3138367309777355"><ele>383.0</ele><time>2026-04-05T09:40:09.884Z</time></trkpt><trkpt lat="43.030706919620435" lon="2.313880402793065"><ele>383.0</ele><time>2026-04-05T09:40:10.884Z</time></trkpt><trkpt lat="43.03077902740808" lon="2.313932659176926"><ele>383.0</ele><time>2026-04-05T09:40:11.884Z</time></trkpt><trkpt lat="43.03083260805382" lon="2.313984541382254"><ele>383.0</ele><time>2026-04-05T09:40:12.884Z</time></trkpt><trkpt lat="43.03089350913049" lon="2.314036054639472"><ele>378.0</ele><time>2026-04-05T09:40:13.884Z</time></trkpt><trkpt lat="43.03100802531393" lon="2.3141101177482253"><ele>373.0</ele><time>2026-04-05T09:40:15.884Z</time></trkpt><trkpt lat="43.03111928859236" lon="2.314200602197348"><ele>368.0</ele><time>2026-04-05T09:40:17.884Z</time></trkpt><trkpt lat="43.031177600707885" lon="2.3142546011023963"><ele>363.0</ele><time>2026-04-05T09:40:18.884Z</time></trkpt><trkpt lat="43.031291320955134" lon="2.3143322204988626"><ele>363.0</ele><time>2026-04-05T09:40:20.884Z</time></trkpt><trkpt lat="43.031354769263224" lon="2.3143626586917176"><ele>363.0</ele><time>2026-04-05T09:40:21.884Z</time></trkpt><trkpt lat="43.03145300899346" lon="2.314442761491231"><ele>363.0</ele><time>2026-04-05T09:40:23.884Z</time></trkpt><trkpt lat="43.03154693334186" lon="2.3145323468662813"><ele>363.0</ele><time>2026-04-05T09:40:25.884Z</time></trkpt><trkpt lat="43.0316474019198" lon="2.314539849702425"><ele>363.0</ele><time>2026-04-05T09:40:27.884Z</time></trkpt><trkpt lat="43.03173589760978" lon="2.314568904084205"><ele>360.0</ele><time>2026-04-05T09:40:29.884Z</time></trkpt><trkpt lat="43.03184301774955" lon="2.3146261253631844"><ele>357.0</ele><time>2026-04-05T09:40:31.884Z</time></trkpt><trkpt lat="43.03190351537626" lon="2.3146556363492716"><ele>354.0</ele><time>2026-04-05T09:40:32.884Z</time></trkpt><trkpt lat="43.032020657989996" lon="2.3147076818304"><ele>351.0</ele><time>2026-04-05T09:40:34.883Z</time></trkpt><trkpt lat="43.0321259289354" lon="2.314683263132182"><ele>348.0</ele><time>2026-04-05T09:40:36.883Z</time></trkpt><trkpt lat="43.03218438379682" lon="2.314620802426412"><ele>348.0</ele><time>2026-04-05T09:40:38.883Z</time></trkpt><trkpt lat="43.032261842808424" lon="2.314579687466934"><ele>348.0</ele><time>2026-04-05T09:40:40.883Z</time></trkpt><trkpt lat="43.0323480758727" lon="2.3145515586143657"><ele>348.0</ele><time>2026-04-05T09:40:42.883Z</time></trkpt><trkpt lat="43.032451840401485" lon="2.3145231419831624"><ele>348.0</ele><time>2026-04-05T09:40:44.883Z</time></trkpt><trkpt lat="43.03253799413177" lon="2.314487899944073"><ele>348.0</ele><time>2026-04-05T09:40:46.883Z</time></trkpt><trkpt lat="43.03264055648177" lon="2.3144239528499195"><ele>345.6666666666667</ele><time>2026-04-05T09:40:48.883Z</time></trkpt><trkpt lat="43.03272063370464" lon="2.314370505513641"><ele>343.3333333333333</ele><time>2026-04-05T09:40:50.883Z</time></trkpt><trkpt lat="43.03277768728788" lon="2.3143038482397955"><ele>341.0</ele><time>2026-04-05T09:40:52.883Z</time></trkpt><trkpt lat="43.03279749784945" lon="2.3141908783523815"><ele>338.66666666666663</ele><time>2026-04-05T09:41:02.883Z</time></trkpt><trkpt lat="43.0328809031431" lon="2.3142346533947515"><ele>336.3333333333333</ele><time>2026-04-05T09:41:06.883Z</time></trkpt><trkpt lat="43.032921948927886" lon="2.3143029507756268"><ele>334.0</ele><time>2026-04-05T09:41:07.883Z</time></trkpt><trkpt lat="43.0328640677062" lon="2.3144128087357845"><ele>334.0</ele><time>2026-04-05T09:41:10.883Z</time></trkpt><trkpt lat="43.032793376464156" lon="2.314442255617512"><ele>334.0</ele><time>2026-04-05T09:41:11.883Z</time></trkpt><trkpt lat="43.03269820286118" lon="2.3144772577688295"><ele>334.0</ele><time>2026-04-05T09:41:12.883Z</time></trkpt><trkpt lat="43.03261164282878" lon="2.3145120017084926"><ele>334.0</ele><time>2026-04-05T09:41:13.883Z</time></trkpt><trkpt lat="43.03253347782054" lon="2.3145391340672226"><ele>334.0</ele><time>2026-04-05T09:41:14.883Z</time></trkpt><trkpt lat="43.03244997165415" lon="2.3145748782939455"><ele>334.0</ele><time>2026-04-05T09:41:15.883Z</time></trkpt><trkpt lat="43.032370301247695" lon="2.3146037707842133"><ele>336.2</ele><time>2026-04-05T09:41:16.883Z</time></trkpt><trkpt lat="43.03229362590874" lon="2.3146370256383224"><ele>338.4</ele><time>2026-04-05T09:41:17.883Z</time></trkpt><trkpt lat="43.03223156707885" lon="2.314678081774519"><ele>340.6</ele><time>2026-04-05T09:41:18.883Z</time></trkpt><trkpt lat="43.032189470144125" lon="2.3147990925429904"><ele>342.8</ele><time>2026-04-05T09:41:20.883Z</time></trkpt><trkpt lat="43.03225547314943" lon="2.3149477119667985"><ele>345.0</ele><time>2026-04-05T09:41:22.883Z</time></trkpt><trkpt lat="43.03233373403491" lon="2.3150564093654573"><ele>345.0</ele><time>2026-04-05T09:41:24.883Z</time></trkpt><trkpt lat="43.03236354552711" lon="2.3151958265723653"><ele>345.0</ele><time>2026-04-05T09:41:26.879Z</time></trkpt><trkpt lat="43.03234841814814" lon="2.3153278455482407"><ele>345.0</ele><time>2026-04-05T09:41:28.879Z</time></trkpt><trkpt lat="43.032413647069745" lon="2.3153613491728287"><ele>345.0</ele><time>2026-04-05T09:41:54.879Z</time></trkpt><trkpt lat="43.03251303933917" lon="2.3153647063192464"><ele>345.0</ele><time>2026-04-05T09:44:20.873Z</time></trkpt><trkpt lat="43.03242564901346" lon="2.315395209411694"><ele>345.0</ele><time>2026-04-05T09:44:31.873Z</time></trkpt><trkpt lat="43.032383042259404" lon="2.3153212462489847"><ele>345.0</ele><time>2026-04-05T09:44:33.873Z</time></trkpt><trkpt lat="43.03237486181566" lon="2.3151734797743257"><ele>345.0</ele><time>2026-04-05T09:44:35.873Z</time></trkpt><trkpt lat="43.03236046948155" lon="2.315077985085008"><ele>345.0</ele><time>2026-04-05T09:44:36.873Z</time></trkpt><trkpt lat="43.03231889573833" lon="2.314994330594902"><ele>345.0</ele><time>2026-04-05T09:44:37.873Z</time></trkpt><trkpt lat="43.03227095985541" lon="2.3149292150055785"><ele>345.0</ele><time>2026-04-05T09:44:38.873Z</time></trkpt><trkpt lat="43.0322304066296" lon="2.314797233879495"><ele>345.6</ele><time>2026-04-05T09:44:40.873Z</time></trkpt><trkpt lat="43.03228487819994" lon="2.314706001005159"><ele>346.2</ele><time>2026-04-05T09:44:42.873Z</time></trkpt><trkpt lat="43.032341091175084" lon="2.314651766309256"><ele>346.79999999999995</ele><time>2026-04-05T09:44:43.873Z</time></trkpt><trkpt lat="43.0324548371097" lon="2.3146074083728183"><ele>347.4</ele><time>2026-04-05T09:44:45.873Z</time></trkpt><trkpt lat="43.0325671313124" lon="2.314563636640564"><ele>348.0</ele><time>2026-04-05T09:44:47.873Z</time></trkpt><trkpt lat="43.032688812024865" lon="2.3145027782805574"><ele>345.6666666666667</ele><time>2026-04-05T09:44:49.873Z</time></trkpt><trkpt lat="43.032783309493425" lon="2.3144551417580157"><ele>343.3333333333333</ele><time>2026-04-05T09:44:50.873Z</time></trkpt><trkpt lat="43.03286970121981" lon="2.3144131409433704"><ele>341.0</ele><time>2026-04-05T09:44:51.873Z</time></trkpt><trkpt lat="43.032941883426695" lon="2.3143498049756412"><ele>338.66666666666663</ele><time>2026-04-05T09:44:53.873Z</time></trkpt><trkpt lat="43.03291094865772" lon="2.3142503422131395"><ele>336.3333333333333</ele><time>2026-04-05T09:44:55.873Z</time></trkpt><trkpt lat="43.0328509361026" lon="2.3142052091015093"><ele>334.0</ele><time>2026-04-05T09:44:56.873Z</time></trkpt><trkpt lat="43.03273355868239" lon="2.3141190378410283"><ele>334.0</ele><time>2026-04-05T09:44:58.873Z</time></trkpt><trkpt lat="43.032658487824825" lon="2.314063644464473"><ele>334.0</ele><time>2026-04-05T09:44:59.873Z</time></trkpt><trkpt lat="43.03258657425749" lon="2.3139982837098785"><ele>334.0</ele><time>2026-04-05T09:45:00.873Z</time></trkpt><trkpt lat="43.03251991909022" lon="2.313926672878987"><ele>334.0</ele><time>2026-04-05T09:45:01.873Z</time></trkpt><trkpt lat="43.032453514306425" lon="2.3138559734796833"><ele>334.0</ele><time>2026-04-05T09:45:02.873Z</time></trkpt><trkpt lat="43.03239610488064" lon="2.313794961483673"><ele>334.0</ele><time>2026-04-05T09:45:03.873Z</time></trkpt><trkpt lat="43.03234092884162" lon="2.3137129387819466"><ele>337.2</ele><time>2026-04-05T09:45:04.873Z</time></trkpt><trkpt lat="43.032296308437395" lon="2.313619501461393"><ele>340.4</ele><time>2026-04-05T09:45:05.873Z</time></trkpt><trkpt lat="43.032229045532226" lon="2.3134680919911923"><ele>343.6</ele><time>2026-04-05T09:45:07.873Z</time></trkpt><trkpt lat="43.032155592670506" lon="2.31341216586307"><ele>346.8</ele><time>2026-04-05T09:45:08.873Z</time></trkpt><trkpt lat="43.03206731313785" lon="2.313373305017699"><ele>350.0</ele><time>2026-04-05T09:45:09.873Z</time></trkpt><trkpt lat="43.03197339805463" lon="2.313354140550582"><ele>350.0</ele><time>2026-04-05T09:45:10.873Z</time></trkpt><trkpt lat="43.03186763382441" lon="2.3133420840416754"><ele>350.0</ele><time>2026-04-05T09:45:11.873Z</time></trkpt><trkpt lat="43.031766278337656" lon="2.313344200077306"><ele>350.0</ele><time>2026-04-05T09:45:12.873Z</time></trkpt><trkpt lat="43.031674935862384" lon="2.313347227002618"><ele>350.0</ele><time>2026-04-05T09:45:13.873Z</time></trkpt><trkpt lat="43.031583100368366" lon="2.313344001509417"><ele>350.0</ele><time>2026-04-05T09:45:14.873Z</time></trkpt><trkpt lat="43.03152101201023" lon="2.3133266242875465"><ele>352.8</ele><time>2026-04-05T09:45:15.873Z</time></trkpt><trkpt lat="43.03149286604188" lon="2.313185422972429"><ele>355.6</ele><time>2026-04-05T09:45:17.873Z</time></trkpt><trkpt lat="43.03148636339812" lon="2.3130603970634223"><ele>358.4</ele><time>2026-04-05T09:45:18.872Z</time></trkpt><trkpt lat="43.03145874979003" lon="2.3129392128176067"><ele>361.2</ele><time>2026-04-05T09:45:19.872Z</time></trkpt><trkpt lat="43.03142660605247" lon="2.3128287265050615"><ele>364.0</ele><time>2026-04-05T09:45:20.872Z</time></trkpt><trkpt lat="43.031399261478924" lon="2.3127095454138957"><ele>365.2</ele><time>2026-04-05T09:45:21.872Z</time></trkpt><trkpt lat="43.03138123503648" lon="2.3125820736908236"><ele>366.4</ele><time>2026-04-05T09:45:22.872Z</time></trkpt><trkpt lat="43.03137458064029" lon="2.312435504174479"><ele>367.6</ele><time>2026-04-05T09:45:23.872Z</time></trkpt><trkpt lat="43.031376075594075" lon="2.312294517137867"><ele>368.8</ele><time>2026-04-05T09:45:24.872Z</time></trkpt><trkpt lat="43.031371784948846" lon="2.312162029400662"><ele>370.0</ele><time>2026-04-05T09:45:25.872Z</time></trkpt><trkpt lat="43.03136209106124" lon="2.3120252155924668"><ele>370.8</ele><time>2026-04-05T09:45:26.872Z</time></trkpt><trkpt lat="43.03132535472868" lon="2.3118760438149546"><ele>371.6</ele><time>2026-04-05T09:45:27.872Z</time></trkpt><trkpt lat="43.03128347908294" lon="2.3117402236229116"><ele>372.4</ele><time>2026-04-05T09:45:28.872Z</time></trkpt><trkpt lat="43.031244361572504" lon="2.311609625654441"><ele>373.2</ele><time>2026-04-05T09:45:29.872Z</time></trkpt><trkpt lat="43.03122525475757" lon="2.3114789816595884"><ele>374.0</ele><time>2026-04-05T09:45:30.872Z</time></trkpt><trkpt lat="43.03122102393955" lon="2.3113399059271504"><ele>374.0</ele><time>2026-04-05T09:45:31.872Z</time></trkpt><trkpt lat="43.03121261181485" lon="2.3112267085965827"><ele>374.0</ele><time>2026-04-05T09:45:32.872Z</time></trkpt><trkpt lat="43.031185210709786" lon="2.311083226407691"><ele>374.0</ele><time>2026-04-05T09:45:34.872Z</time></trkpt><trkpt lat="43.0311562556032" lon="2.3109429051979102"><ele>374.0</ele><time>2026-04-05T09:45:36.872Z</time></trkpt><trkpt lat="43.03117424798947" lon="2.3108565541320836"><ele>374.0</ele><time>2026-04-05T09:45:37.872Z</time></trkpt><trkpt lat="43.03117666002003" lon="2.3107609718912006"><ele>374.0</ele><time>2026-04-05T09:45:38.869Z</time></trkpt><trkpt lat="43.03116679821831" lon="2.3106644370968703"><ele>374.0</ele><time>2026-04-05T09:45:39.87Z</time></trkpt><trkpt lat="43.03115678475595" lon="2.310561305886239"><ele>374.0</ele><time>2026-04-05T09:45:40.87Z</time></trkpt><trkpt lat="43.03114585405508" lon="2.310459225057503"><ele>374.0</ele><time>2026-04-05T09:45:41.869Z</time></trkpt><trkpt lat="43.03113695541726" lon="2.3103692837722267"><ele>374.0</ele><time>2026-04-05T09:45:42.869Z</time></trkpt><trkpt lat="43.031152749572954" lon="2.3102146071812006"><ele>374.0</ele><time>2026-04-05T09:45:44.87Z</time></trkpt><trkpt lat="43.03124472585191" lon="2.310090463306005"><ele>374.0</ele><time>2026-04-05T09:45:46.87Z</time></trkpt><trkpt lat="43.03130894743858" lon="2.31005257000304"><ele>374.0</ele><time>2026-04-05T09:45:47.869Z</time></trkpt><trkpt lat="43.03136949833764" lon="2.3100201417721715"><ele>374.0</ele><time>2026-04-05T09:45:48.869Z</time></trkpt><trkpt lat="43.03146344658316" lon="2.309900006632526"><ele>374.0</ele><time>2026-04-05T09:45:50.869Z</time></trkpt><trkpt lat="43.03152533631802" lon="2.3098145873200595"><ele>374.0</ele><time>2026-04-05T09:45:51.869Z</time></trkpt><trkpt lat="43.03159971019508" lon="2.3097252632346215"><ele>371.2</ele><time>2026-04-05T09:45:52.869Z</time></trkpt><trkpt lat="43.03167696971697" lon="2.3096297514961828"><ele>368.4</ele><time>2026-04-05T09:45:53.869Z</time></trkpt><trkpt lat="43.031751533428746" lon="2.309531671276087"><ele>365.6</ele><time>2026-04-05T09:45:54.869Z</time></trkpt><trkpt lat="43.031824398847775" lon="2.309439701097007"><ele>362.8</ele><time>2026-04-05T09:45:55.869Z</time></trkpt><trkpt lat="43.03189588167579" lon="2.3093527225686508"><ele>360.0</ele><time>2026-04-05T09:45:56.869Z</time></trkpt><trkpt lat="43.031964466750615" lon="2.309278985526496"><ele>360.0</ele><time>2026-04-05T09:45:57.869Z</time></trkpt><trkpt lat="43.03202459890167" lon="2.3092042679578695"><ele>360.0</ele><time>2026-04-05T09:45:58.869Z</time></trkpt><trkpt lat="43.032093588995444" lon="2.3091270234097427"><ele>360.0</ele><time>2026-04-05T09:45:59.869Z</time></trkpt><trkpt lat="43.032178228893514" lon="2.309059416234826"><ele>360.0</ele><time>2026-04-05T09:46:00.869Z</time></trkpt><trkpt lat="43.03227585705712" lon="2.3090076984068917"><ele>360.0</ele><time>2026-04-05T09:46:01.869Z</time></trkpt><trkpt lat="43.03238525345712" lon="2.3089691707978948"><ele>358.0</ele><time>2026-04-05T09:46:02.869Z</time></trkpt><trkpt lat="43.032498472847024" lon="2.308926161642233"><ele>356.0</ele><time>2026-04-05T09:46:03.869Z</time></trkpt><trkpt lat="43.032598994466085" lon="2.308849033799541"><ele>354.0</ele><time>2026-04-05T09:46:04.869Z</time></trkpt><trkpt lat="43.032671067173304" lon="2.3087336878329503"><ele>352.0</ele><time>2026-04-05T09:46:05.869Z</time></trkpt><trkpt lat="43.032727836475836" lon="2.3085813121357974"><ele>350.75</ele><time>2026-04-05T09:46:06.869Z</time></trkpt><trkpt lat="43.032784069196104" lon="2.308416180981124"><ele>349.5</ele><time>2026-04-05T09:46:07.869Z</time></trkpt><trkpt lat="43.03283965471438" lon="2.3082613641575973"><ele>348.25</ele><time>2026-04-05T09:46:08.869Z</time></trkpt><trkpt lat="43.032902914788174" lon="2.3081139454717805"><ele>347.0</ele><time>2026-04-05T09:46:09.869Z</time></trkpt><trkpt lat="43.03298478744697" lon="2.3079581493599517"><ele>346.75</ele><time>2026-04-05T09:46:10.869Z</time></trkpt><trkpt lat="43.033065612754875" lon="2.3078229958173764"><ele>346.5</ele><time>2026-04-05T09:46:11.869Z</time></trkpt><trkpt lat="43.03315486033943" lon="2.307680576001725"><ele>346.25</ele><time>2026-04-05T09:46:12.869Z</time></trkpt><trkpt lat="43.03324784711844" lon="2.3075487038116753"><ele>346.0</ele><time>2026-04-05T09:46:13.869Z</time></trkpt><trkpt lat="43.03333951254722" lon="2.3074214228035284"><ele>346.0</ele><time>2026-04-05T09:46:14.869Z</time></trkpt><trkpt lat="43.03342274620228" lon="2.307314953757696"><ele>346.0</ele><time>2026-04-05T09:46:15.869Z</time></trkpt><trkpt lat="43.03349196220425" lon="2.3072165101018207"><ele>346.0</ele><time>2026-04-05T09:46:16.869Z</time></trkpt><trkpt lat="43.033542021136064" lon="2.3071437803671753"><ele>346.0</ele><time>2026-04-05T09:46:17.869Z</time></trkpt><trkpt lat="43.03359845865583" lon="2.3070177187913976"><ele>346.0</ele><time>2026-04-05T09:46:20.868Z</time></trkpt><trkpt lat="43.03364635327169" lon="2.3069338111475117"><ele>344.0</ele><time>2026-04-05T09:46:21.868Z</time></trkpt><trkpt lat="43.03371059043184" lon="2.306829439852375"><ele>342.0</ele><time>2026-04-05T09:46:22.868Z</time></trkpt><trkpt lat="43.03376900249606" lon="2.30672240403216"><ele>340.0</ele><time>2026-04-05T09:46:23.868Z</time></trkpt><trkpt lat="43.03382436800198" lon="2.30662363829485"><ele>338.0</ele><time>2026-04-05T09:46:24.868Z</time></trkpt><trkpt lat="43.033885193728196" lon="2.306536918060489"><ele>336.0</ele><time>2026-04-05T09:46:25.868Z</time></trkpt><trkpt lat="43.03395465833822" lon="2.306443445967736"><ele>334.6</ele><time>2026-04-05T09:46:26.868Z</time></trkpt><trkpt lat="43.034034224926714" lon="2.3063629658751377"><ele>333.20000000000005</ele><time>2026-04-05T09:46:27.868Z</time></trkpt><trkpt lat="43.034117540457736" lon="2.3062748968598195"><ele>331.79999999999995</ele><time>2026-04-05T09:46:28.868Z</time></trkpt><trkpt lat="43.03420197145429" lon="2.3061666597467787"><ele>330.4</ele><time>2026-04-05T09:46:29.868Z</time></trkpt><trkpt lat="43.034287957608626" lon="2.306036224535308"><ele>329.0</ele><time>2026-04-05T09:46:30.868Z</time></trkpt><trkpt lat="43.034371716577894" lon="2.3059075281085106"><ele>328.0</ele><time>2026-04-05T09:46:31.868Z</time></trkpt><trkpt lat="43.03445231857818" lon="2.3057842268083224"><ele>327.0</ele><time>2026-04-05T09:46:32.868Z</time></trkpt><trkpt lat="43.034522040219926" lon="2.3056648063160705"><ele>326.0</ele><time>2026-04-05T09:46:33.868Z</time></trkpt><trkpt lat="43.03458684471173" lon="2.3055487434082775"><ele>325.0</ele><time>2026-04-05T09:46:34.868Z</time></trkpt><trkpt lat="43.034643886920286" lon="2.3054347949120917"><ele>324.0</ele><time>2026-04-05T09:46:35.868Z</time></trkpt><trkpt lat="43.034695225565585" lon="2.3053252670664426"><ele>322.2</ele><time>2026-04-05T09:46:36.868Z</time></trkpt><trkpt lat="43.03473883872692" lon="2.305213050320258"><ele>320.4</ele><time>2026-04-05T09:46:37.868Z</time></trkpt><trkpt lat="43.03479102592584" lon="2.3050986405930685"><ele>318.6</ele><time>2026-04-05T09:46:38.868Z</time></trkpt><trkpt lat="43.03483944740028" lon="2.304981087147983"><ele>316.8</ele><time>2026-04-05T09:46:39.868Z</time></trkpt><trkpt lat="43.03488410162972" lon="2.30486485802956"><ele>315.0</ele><time>2026-04-05T09:46:40.868Z</time></trkpt><trkpt lat="43.034929118304404" lon="2.3047546776574084"><ele>314.8</ele><time>2026-04-05T09:46:41.868Z</time></trkpt><trkpt lat="43.03496853226949" lon="2.30463594777951"><ele>314.6</ele><time>2026-04-05T09:46:42.868Z</time></trkpt><trkpt lat="43.034997602942845" lon="2.3045175885854126"><ele>314.4</ele><time>2026-04-05T09:46:43.868Z</time></trkpt><trkpt lat="43.0350250905396" lon="2.304392816597343"><ele>314.2</ele><time>2026-04-05T09:46:44.868Z</time></trkpt><trkpt lat="43.0350506535339" lon="2.3042434452155676"><ele>314.0</ele><time>2026-04-05T09:46:45.868Z</time></trkpt><trkpt lat="43.03507318406004" lon="2.3041054211536403"><ele>314.0</ele><time>2026-04-05T09:46:46.868Z</time></trkpt><trkpt lat="43.03509900121199" lon="2.3039775658831014"><ele>314.0</ele><time>2026-04-05T09:46:47.868Z</time></trkpt><trkpt lat="43.035132044454926" lon="2.3038587252633365"><ele>314.0</ele><time>2026-04-05T09:46:48.868Z</time></trkpt><trkpt lat="43.03517747553204" lon="2.303754166426176"><ele>314.0</ele><time>2026-04-05T09:46:49.868Z</time></trkpt><trkpt lat="43.03522663080005" lon="2.3036506415513442"><ele>314.0</ele><time>2026-04-05T09:46:50.868Z</time></trkpt><trkpt lat="43.03527962891429" lon="2.303533137075898"><ele>312.33333333333337</ele><time>2026-04-05T09:46:51.868Z</time></trkpt><trkpt lat="43.035339403785926" lon="2.3034291631756467"><ele>310.6666666666667</ele><time>2026-04-05T09:46:52.868Z</time></trkpt><trkpt lat="43.03539678184303" lon="2.3033299846667665"><ele>309.0</ele><time>2026-04-05T09:46:53.868Z</time></trkpt><trkpt lat="43.035450899171146" lon="2.3032351752319182"><ele>307.3333333333333</ele><time>2026-04-05T09:46:54.868Z</time></trkpt><trkpt lat="43.0354993200813" lon="2.3031355686047403"><ele>305.66666666666663</ele><time>2026-04-05T09:46:55.868Z</time></trkpt><trkpt lat="43.03554052155232" lon="2.30304176172897"><ele>304.0</ele><time>2026-04-05T09:46:56.868Z</time></trkpt><trkpt lat="43.03556636898869" lon="2.302944059818645"><ele>302.5</ele><time>2026-04-05T09:46:57.868Z</time></trkpt><trkpt lat="43.035571764900354" lon="2.3028419702109346"><ele>301.0</ele><time>2026-04-05T09:46:58.868Z</time></trkpt><trkpt lat="43.03557520873567" lon="2.302736715120309"><ele>299.5</ele><time>2026-04-05T09:46:59.868Z</time></trkpt><trkpt lat="43.03558573882612" lon="2.3026350880179702"><ele>298.0</ele><time>2026-04-05T09:47:00.868Z</time></trkpt><trkpt lat="43.03560272125049" lon="2.302524434330975"><ele>296.5</ele><time>2026-04-05T09:47:01.868Z</time></trkpt><trkpt lat="43.03565019664942" lon="2.302407503666815"><ele>295.0</ele><time>2026-04-05T09:47:02.868Z</time></trkpt><trkpt lat="43.035701045792045" lon="2.302308665046635"><ele>294.0</ele><time>2026-04-05T09:47:03.868Z</time></trkpt><trkpt lat="43.03573963230916" lon="2.3022301084420564"><ele>293.0</ele><time>2026-04-05T09:47:04.868Z</time></trkpt><trkpt lat="43.035771653612535" lon="2.3021196913326647"><ele>292.0</ele><time>2026-04-05T09:47:05.868Z</time></trkpt><trkpt lat="43.035788637856726" lon="2.302016759965526"><ele>291.0</ele><time>2026-04-05T09:47:06.868Z</time></trkpt><trkpt lat="43.03580113902159" lon="2.301902219702867"><ele>290.0</ele><time>2026-04-05T09:47:07.868Z</time></trkpt><trkpt lat="43.0357961805336" lon="2.301784813041312"><ele>289.0</ele><time>2026-04-05T09:47:08.868Z</time></trkpt><trkpt lat="43.03577665081038" lon="2.3016667173893977"><ele>289.0</ele><time>2026-04-05T09:47:09.868Z</time></trkpt><trkpt lat="43.035745833011354" lon="2.301556539914194"><ele>289.0</ele><time>2026-04-05T09:47:10.868Z</time></trkpt><trkpt lat="43.03570112101708" lon="2.301441261096634"><ele>289.0</ele><time>2026-04-05T09:47:11.868Z</time></trkpt><trkpt lat="43.03566957054214" lon="2.3013438743034262"><ele>289.0</ele><time>2026-04-05T09:47:12.868Z</time></trkpt><trkpt lat="43.03564040828956" lon="2.3012622342515034"><ele>289.0</ele><time>2026-04-05T09:47:13.868Z</time></trkpt><trkpt lat="43.03557175249" lon="2.30113724290312"><ele>289.0</ele><time>2026-04-05T09:47:15.868Z</time></trkpt><trkpt lat="43.03555038106398" lon="2.3009857950479877"><ele>288.66666666666663</ele><time>2026-04-05T09:47:17.868Z</time></trkpt><trkpt lat="43.03552734393979" lon="2.3008876173658406"><ele>288.3333333333333</ele><time>2026-04-05T09:47:18.868Z</time></trkpt><trkpt lat="43.03551782381256" lon="2.300781822847849"><ele>288.0</ele><time>2026-04-05T09:47:19.868Z</time></trkpt><trkpt lat="43.03551523286028" lon="2.300654238276816"><ele>287.6666666666667</ele><time>2026-04-05T09:47:20.868Z</time></trkpt><trkpt lat="43.035514760316765" lon="2.300534614831329"><ele>287.33333333333337</ele><time>2026-04-05T09:47:21.868Z</time></trkpt><trkpt lat="43.03551511400984" lon="2.3004128472586585"><ele>287.0</ele><time>2026-04-05T09:47:22.868Z</time></trkpt><trkpt lat="43.035517279451476" lon="2.3003058731127353"><ele>287.0</ele><time>2026-04-05T09:47:23.868Z</time></trkpt><trkpt lat="43.03551549226994" lon="2.3002089704379203"><ele>287.0</ele><time>2026-04-05T09:47:24.868Z</time></trkpt><trkpt lat="43.03550568932292" lon="2.300036369786903"><ele>287.0</ele><time>2026-04-05T09:47:33.868Z</time></trkpt><trkpt lat="43.0354924457802" lon="2.299925646919578"><ele>287.0</ele><time>2026-04-05T09:47:36.868Z</time></trkpt><trkpt lat="43.03548458160231" lon="2.299777166867532"><ele>287.0</ele><time>2026-04-05T09:50:00.857Z</time></trkpt><trkpt lat="43.035481233753124" lon="2.2996794783017744"><ele>286.6666666666667</ele><time>2026-04-05T09:57:01.787Z</time></trkpt><trkpt lat="43.03548454465626" lon="2.299564736623966"><ele>286.33333333333337</ele><time>2026-04-05T09:57:02.787Z</time></trkpt><trkpt lat="43.035458128900274" lon="2.299436495522917"><ele>286.0</ele><time>2026-04-05T09:57:03.787Z</time></trkpt><trkpt lat="43.03543912146224" lon="2.2993036393071073"><ele>285.6666666666667</ele><time>2026-04-05T09:57:04.787Z</time></trkpt><trkpt lat="43.0354330252196" lon="2.2991984946775244"><ele>285.3333333333333</ele><time>2026-04-05T09:57:05.787Z</time></trkpt><trkpt lat="43.035429723293085" lon="2.299098550533909"><ele>285.0</ele><time>2026-04-05T09:57:06.787Z</time></trkpt><trkpt lat="43.03543626595901" lon="2.299011946026868"><ele>285.0</ele><time>2026-04-05T09:57:07.787Z</time></trkpt><trkpt lat="43.03545022319955" lon="2.298921063474641"><ele>285.0</ele><time>2026-04-05T09:57:08.787Z</time></trkpt><trkpt lat="43.0354671618914" lon="2.298808885830308"><ele>285.0</ele><time>2026-04-05T09:57:09.787Z</time></trkpt><trkpt lat="43.035482811156655" lon="2.2986274878525528"><ele>285.0</ele><time>2026-04-05T09:57:11.787Z</time></trkpt><trkpt lat="43.035485376732595" lon="2.298495720840109"><ele>285.0</ele><time>2026-04-05T09:57:12.787Z</time></trkpt><trkpt lat="43.03548637372125" lon="2.298326485529399"><ele>283.8</ele><time>2026-04-05T09:57:13.787Z</time></trkpt><trkpt lat="43.03550117670145" lon="2.298169763013499"><ele>282.6</ele><time>2026-04-05T09:57:14.787Z</time></trkpt><trkpt lat="43.03550911459742" lon="2.298048500767513"><ele>281.4</ele><time>2026-04-05T09:57:15.787Z</time></trkpt><trkpt lat="43.03552302447046" lon="2.297943698308158"><ele>280.2</ele><time>2026-04-05T09:57:16.787Z</time></trkpt><trkpt lat="43.03554008231483" lon="2.2978248824042233"><ele>279.0</ele><time>2026-04-05T09:57:17.787Z</time></trkpt><trkpt lat="43.035526507799716" lon="2.297678403403877"><ele>278.5</ele><time>2026-04-05T09:57:18.787Z</time></trkpt><trkpt lat="43.03549010255356" lon="2.2975436358852788"><ele>278.0</ele><time>2026-04-05T09:57:19.787Z</time></trkpt><trkpt lat="43.0354624900354" lon="2.2974093964653592"><ele>277.5</ele><time>2026-04-05T09:57:20.786Z</time></trkpt><trkpt lat="43.03543967596179" lon="2.297302082324453"><ele>277.0</ele><time>2026-04-05T09:57:21.786Z</time></trkpt><trkpt lat="43.035432337723364" lon="2.2971952841857055"><ele>276.5</ele><time>2026-04-05T09:57:22.786Z</time></trkpt><trkpt lat="43.03543157280809" lon="2.2970915610389526"><ele>276.0</ele><time>2026-04-05T09:57:23.786Z</time></trkpt><trkpt lat="43.0354401152792" lon="2.2969652299183094"><ele>275.8</ele><time>2026-04-05T09:57:24.786Z</time></trkpt><trkpt lat="43.03544570391414" lon="2.2968379601709095"><ele>275.6</ele><time>2026-04-05T09:57:25.786Z</time></trkpt><trkpt lat="43.035455271526274" lon="2.2967086347508867"><ele>275.4</ele><time>2026-04-05T09:57:26.786Z</time></trkpt><trkpt lat="43.0354644841425" lon="2.2965631778280695"><ele>275.2</ele><time>2026-04-05T09:57:27.786Z</time></trkpt><trkpt lat="43.035462360302425" lon="2.296434543012812"><ele>275.0</ele><time>2026-04-05T09:57:28.786Z</time></trkpt><trkpt lat="43.03546141531017" lon="2.2963147060851705"><ele>274.0</ele><time>2026-04-05T09:57:29.786Z</time></trkpt><trkpt lat="43.03547495418711" lon="2.2962174254475745"><ele>273.0</ele><time>2026-04-05T09:57:30.786Z</time></trkpt><trkpt lat="43.03549251718772" lon="2.2961107747934144"><ele>272.0</ele><time>2026-04-05T09:57:31.786Z</time></trkpt><trkpt lat="43.03550880589885" lon="2.2959836503293856"><ele>271.0</ele><time>2026-04-05T09:57:32.786Z</time></trkpt><trkpt lat="43.03551713643651" lon="2.295863796147352"><ele>270.0</ele><time>2026-04-05T09:57:33.786Z</time></trkpt><trkpt lat="43.035538330048816" lon="2.2957367332385212"><ele>269.0</ele><time>2026-04-05T09:57:34.786Z</time></trkpt><trkpt lat="43.0355626357299" lon="2.295605029640464"><ele>267.59999999999997</ele><time>2026-04-05T09:57:35.786Z</time></trkpt><trkpt lat="43.03559331183933" lon="2.2954649809340326"><ele>266.2</ele><time>2026-04-05T09:57:36.786Z</time></trkpt><trkpt lat="43.03561487736013" lon="2.295329141816656"><ele>264.79999999999995</ele><time>2026-04-05T09:57:37.786Z</time></trkpt><trkpt lat="43.03564081577354" lon="2.2951665993504333"><ele>263.4</ele><time>2026-04-05T09:57:38.786Z</time></trkpt><trkpt lat="43.035658532703266" lon="2.295030656659304"><ele>262.0</ele><time>2026-04-05T09:57:39.786Z</time></trkpt><trkpt lat="43.03567512063899" lon="2.2949118567343"><ele>262.0</ele><time>2026-04-05T09:57:40.786Z</time></trkpt><trkpt lat="43.03569508367456" lon="2.29479696780657"><ele>262.0</ele><time>2026-04-05T09:57:41.786Z</time></trkpt><trkpt lat="43.035709455625266" lon="2.2946907288596905"><ele>262.0</ele><time>2026-04-05T09:57:42.786Z</time></trkpt><trkpt lat="43.035720909255666" lon="2.2945730924341152"><ele>262.0</ele><time>2026-04-05T09:57:43.786Z</time></trkpt><trkpt lat="43.03573437933624" lon="2.2944372933354074"><ele>262.0</ele><time>2026-04-05T09:57:44.786Z</time></trkpt><trkpt lat="43.03575392395674" lon="2.2943113331844085"><ele>262.0</ele><time>2026-04-05T09:57:45.786Z</time></trkpt><trkpt lat="43.03578232010298" lon="2.2941674316255796"><ele>262.75</ele><time>2026-04-05T09:57:46.786Z</time></trkpt><trkpt lat="43.03581290050605" lon="2.294005037166763"><ele>263.5</ele><time>2026-04-05T09:57:47.786Z</time></trkpt><trkpt lat="43.03584235726937" lon="2.293837210832682"><ele>264.25</ele><time>2026-04-05T09:57:48.786Z</time></trkpt><trkpt lat="43.035873314076234" lon="2.2936847227083312"><ele>265.0</ele><time>2026-04-05T09:57:49.786Z</time></trkpt><trkpt lat="43.035898693704" lon="2.293547509815575"><ele>265.0</ele><time>2026-04-05T09:57:50.786Z</time></trkpt><trkpt lat="43.03593646306247" lon="2.293401064131957"><ele>265.0</ele><time>2026-04-05T09:57:51.786Z</time></trkpt><trkpt lat="43.03596330032301" lon="2.293259572769111"><ele>265.0</ele><time>2026-04-05T09:57:52.786Z</time></trkpt><trkpt lat="43.035978665377996" lon="2.2931161703497223"><ele>265.0</ele><time>2026-04-05T09:57:53.786Z</time></trkpt><trkpt lat="43.03598020383151" lon="2.2929824797093366"><ele>265.0</ele><time>2026-04-05T09:57:54.786Z</time></trkpt><trkpt lat="43.035979817352974" lon="2.292867567677426"><ele>263.5</ele><time>2026-04-05T09:57:55.785Z</time></trkpt><trkpt lat="43.03598949213584" lon="2.292782440663178"><ele>262.0</ele><time>2026-04-05T09:57:56.785Z</time></trkpt><trkpt lat="43.036064298454306" lon="2.2926187921752614"><ele>260.5</ele><time>2026-04-05T09:57:58.785Z</time></trkpt><trkpt lat="43.03610614409577" lon="2.292528377074144"><ele>259.0</ele><time>2026-04-05T09:57:59.785Z</time></trkpt><trkpt lat="43.03613955812883" lon="2.2924336296949366"><ele>257.5</ele><time>2026-04-05T09:58:00.785Z</time></trkpt><trkpt lat="43.03619719409949" lon="2.2923596095455414"><ele>256.0</ele><time>2026-04-05T09:58:01.785Z</time></trkpt><trkpt lat="43.03626638415751" lon="2.2923069810741974"><ele>256.0</ele><time>2026-04-05T09:58:02.785Z</time></trkpt><trkpt lat="43.03633969496402" lon="2.292258739163668"><ele>256.0</ele><time>2026-04-05T09:58:03.785Z</time></trkpt><trkpt lat="43.03642308321413" lon="2.2921575735606785"><ele>256.0</ele><time>2026-04-05T09:58:05.785Z</time></trkpt><trkpt lat="43.03648149749277" lon="2.2920139961945405"><ele>256.0</ele><time>2026-04-05T09:58:07.785Z</time></trkpt><trkpt lat="43.03649566788699" lon="2.2918481660912122"><ele>256.0</ele><time>2026-04-05T09:58:09.785Z</time></trkpt><trkpt lat="43.03652165363628" lon="2.2916966748086636"><ele>254.20000000000002</ele><time>2026-04-05T09:58:11.785Z</time></trkpt><trkpt lat="43.03654826931096" lon="2.291535035232182"><ele>252.40000000000003</ele><time>2026-04-05T09:58:13.785Z</time></trkpt><trkpt lat="43.03656349564137" lon="2.2914434091864098"><ele>250.6</ele><time>2026-04-05T09:58:14.781Z</time></trkpt><trkpt lat="43.036578982742746" lon="2.2913287298238556"><ele>248.8</ele><time>2026-04-05T09:58:15.781Z</time></trkpt><trkpt lat="43.036588210766105" lon="2.291189631443984"><ele>247.0</ele><time>2026-04-05T09:58:16.781Z</time></trkpt><trkpt lat="43.03658743695082" lon="2.2910242306893847"><ele>246.2</ele><time>2026-04-05T09:58:17.781Z</time></trkpt><trkpt lat="43.03658734288921" lon="2.290900846457765"><ele>245.39999999999998</ele><time>2026-04-05T09:58:18.78Z</time></trkpt><trkpt lat="43.036603592427014" lon="2.2907677178814563"><ele>244.60000000000002</ele><time>2026-04-05T09:58:19.78Z</time></trkpt><trkpt lat="43.03661226452476" lon="2.290669227822768"><ele>243.8</ele><time>2026-04-05T09:58:20.78Z</time></trkpt><trkpt lat="43.03664476995901" lon="2.2905772562921216"><ele>243.0</ele><time>2026-04-05T09:58:21.78Z</time></trkpt><trkpt lat="43.036718986412644" lon="2.290439903681557"><ele>242.8</ele><time>2026-04-05T09:58:23.78Z</time></trkpt><trkpt lat="43.03678292035742" lon="2.290338314005558"><ele>242.60000000000002</ele><time>2026-04-05T09:58:25.78Z</time></trkpt><trkpt lat="43.036812405193835" lon="2.2901765020859"><ele>242.39999999999998</ele><time>2026-04-05T09:58:27.78Z</time></trkpt><trkpt lat="43.03681099003141" lon="2.290059941703366"><ele>242.2</ele><time>2026-04-05T09:58:28.78Z</time></trkpt><trkpt lat="43.03681499218245" lon="2.2899347756348383"><ele>242.0</ele><time>2026-04-05T09:58:29.78Z</time></trkpt><trkpt lat="43.03682140925528" lon="2.2898273910415656"><ele>241.33333333333334</ele><time>2026-04-05T09:58:30.779Z</time></trkpt><trkpt lat="43.0368404435067" lon="2.289723555059328"><ele>240.66666666666669</ele><time>2026-04-05T09:58:31.779Z</time></trkpt><trkpt lat="43.03686728210221" lon="2.2896171774970417"><ele>240.0</ele><time>2026-04-05T09:58:32.779Z</time></trkpt><trkpt lat="43.03689941839112" lon="2.2895370811840325"><ele>239.33333333333331</ele><time>2026-04-05T09:58:33.779Z</time></trkpt><trkpt lat="43.03692967744644" lon="2.289429681659243"><ele>238.66666666666666</ele><time>2026-04-05T09:58:34.779Z</time></trkpt><trkpt lat="43.03695790778049" lon="2.289326031237239"><ele>238.0</ele><time>2026-04-05T09:58:35.779Z</time></trkpt><trkpt lat="43.03698009715639" lon="2.289226663053883"><ele>237.99999999999997</ele><time>2026-04-05T09:58:36.779Z</time></trkpt><trkpt lat="43.03701804429975" lon="2.2890786143188184"><ele>238.0</ele><time>2026-04-05T09:58:38.779Z</time></trkpt><trkpt lat="43.0370259462867" lon="2.2889929424153985"><ele>238.0</ele><time>2026-04-05T09:58:39.779Z</time></trkpt><trkpt lat="43.03703467115816" lon="2.288839099404334"><ele>238.0</ele><time>2026-04-05T09:58:41.779Z</time></trkpt><trkpt lat="43.036964183144185" lon="2.288787630645021"><ele>237.99999999999997</ele><time>2026-04-05T09:58:43.779Z</time></trkpt><trkpt lat="43.03689731836736" lon="2.2887770873721776"><ele>238.0</ele><time>2026-04-05T09:58:44.779Z</time></trkpt><trkpt lat="43.03682327533818" lon="2.2886641314395906"><ele>237.99999999999997</ele><time>2026-04-05T09:58:46.779Z</time></trkpt><trkpt lat="43.03678667692373" lon="2.28859282173589"><ele>238.0</ele><time>2026-04-05T09:58:47.779Z</time></trkpt><trkpt lat="43.036723226381476" lon="2.288522194678067"><ele>238.0</ele><time>2026-04-05T09:58:48.779Z</time></trkpt><trkpt lat="43.036652091103605" lon="2.288453048680885"><ele>238.0</ele><time>2026-04-05T09:58:49.779Z</time></trkpt><trkpt lat="43.036607759680884" lon="2.2883879979544677"><ele>237.99999999999997</ele><time>2026-04-05T09:58:50.779Z</time></trkpt><trkpt lat="43.03651550657899" lon="2.288312144804715"><ele>238.0</ele><time>2026-04-05T09:58:52.779Z</time></trkpt><trkpt lat="43.03642419828546" lon="2.288291088450811"><ele>238.0</ele><time>2026-04-05T09:58:54.779Z</time></trkpt><trkpt lat="43.03631801317558" lon="2.2884125541666265"><ele>238.0</ele><time>2026-04-05T09:58:56.779Z</time></trkpt><trkpt lat="43.03626762267763" lon="2.2885141925506978"><ele>238.0</ele><time>2026-04-05T09:58:57.779Z</time></trkpt><trkpt lat="43.03619097681829" lon="2.2886090672033634"><ele>238.0</ele><time>2026-04-05T09:58:58.779Z</time></trkpt><trkpt lat="43.036112561572956" lon="2.2887111848365835"><ele>238.0</ele><time>2026-04-05T09:58:59.779Z</time></trkpt><trkpt lat="43.03602924490159" lon="2.2888157413545125"><ele>238.25</ele><time>2026-04-05T09:59:00.779Z</time></trkpt><trkpt lat="43.035943514969084" lon="2.2889288853083656"><ele>238.5</ele><time>2026-04-05T09:59:01.779Z</time></trkpt><trkpt lat="43.03585560746744" lon="2.289049727462035"><ele>238.75</ele><time>2026-04-05T09:59:02.779Z</time></trkpt><trkpt lat="43.035766351121644" lon="2.2891800458916163"><ele>239.0</ele><time>2026-04-05T09:59:03.779Z</time></trkpt><trkpt lat="43.035670420224925" lon="2.289298756099639"><ele>239.75</ele><time>2026-04-05T09:59:04.778Z</time></trkpt><trkpt lat="43.035571377508994" lon="2.28938220760044"><ele>240.5</ele><time>2026-04-05T09:59:05.778Z</time></trkpt><trkpt lat="43.03546039167816" lon="2.2894263930571146"><ele>241.25</ele><time>2026-04-05T09:59:06.778Z</time></trkpt><trkpt lat="43.03534000176429" lon="2.2894514805834763"><ele>242.0</ele><time>2026-04-05T09:59:07.778Z</time></trkpt><trkpt lat="43.03522139741691" lon="2.289452839156571"><ele>242.0</ele><time>2026-04-05T09:59:08.778Z</time></trkpt><trkpt lat="43.03509631110693" lon="2.289462576453347"><ele>242.0</ele><time>2026-04-05T09:59:09.778Z</time></trkpt><trkpt lat="43.03496304837968" lon="2.2894985858608243"><ele>242.0</ele><time>2026-04-05T09:59:10.778Z</time></trkpt><trkpt lat="43.034831007243085" lon="2.2895731817888847"><ele>242.0</ele><time>2026-04-05T09:59:11.778Z</time></trkpt><trkpt lat="43.03470052958491" lon="2.28966723848704"><ele>243.5</ele><time>2026-04-05T09:59:12.778Z</time></trkpt><trkpt lat="43.03458737335244" lon="2.289767050440806"><ele>245.0</ele><time>2026-04-05T09:59:13.778Z</time></trkpt><trkpt lat="43.03446621096433" lon="2.289870139974785"><ele>246.5</ele><time>2026-04-05T09:59:14.778Z</time></trkpt><trkpt lat="43.034342856033476" lon="2.2899839151433916"><ele>248.0</ele><time>2026-04-05T09:59:15.778Z</time></trkpt><trkpt lat="43.03422661456724" lon="2.290115196148324"><ele>249.0</ele><time>2026-04-05T09:59:16.778Z</time></trkpt><trkpt lat="43.03412315185607" lon="2.290271509631074"><ele>250.0</ele><time>2026-04-05T09:59:17.778Z</time></trkpt><trkpt lat="43.034024548537936" lon="2.2904599603491964"><ele>251.0</ele><time>2026-04-05T09:59:18.778Z</time></trkpt><trkpt lat="43.03392688137533" lon="2.290637873268677"><ele>252.0</ele><time>2026-04-05T09:59:19.778Z</time></trkpt><trkpt lat="43.03381851437705" lon="2.290788860723338"><ele>253.0</ele><time>2026-04-05T09:59:20.778Z</time></trkpt><trkpt lat="43.03370152802368" lon="2.2908774139792896"><ele>254.0</ele><time>2026-04-05T09:59:21.778Z</time></trkpt><trkpt lat="43.033566772537114" lon="2.2909051172590718"><ele>255.0</ele><time>2026-04-05T09:59:22.778Z</time></trkpt><trkpt lat="43.03342115947861" lon="2.2908932926175045"><ele>255.66666666666669</ele><time>2026-04-05T09:59:23.778Z</time></trkpt><trkpt lat="43.03327819430954" lon="2.2908616862437383"><ele>256.33333333333337</ele><time>2026-04-05T09:59:24.778Z</time></trkpt><trkpt lat="43.033125527453564" lon="2.2908298756962617"><ele>257.0</ele><time>2026-04-05T09:59:25.778Z</time></trkpt><trkpt lat="43.03296970095704" lon="2.2908300821651313"><ele>257.0</ele><time>2026-04-05T09:59:26.778Z</time></trkpt><trkpt lat="43.032806585857465" lon="2.29086456890849"><ele>257.0</ele><time>2026-04-05T09:59:27.778Z</time></trkpt><trkpt lat="43.03264800259691" lon="2.2909212624089386"><ele>257.0</ele><time>2026-04-05T09:59:28.778Z</time></trkpt><trkpt lat="43.032493166053094" lon="2.29098846969951"><ele>257.75</ele><time>2026-04-05T09:59:29.778Z</time></trkpt><trkpt lat="43.03236330645934" lon="2.2910475470952747"><ele>258.5</ele><time>2026-04-05T09:59:30.778Z</time></trkpt><trkpt lat="43.03224675436336" lon="2.2911360396933746"><ele>259.25</ele><time>2026-04-05T09:59:31.778Z</time></trkpt><trkpt lat="43.03214802352209" lon="2.291267061779522"><ele>260.0</ele><time>2026-04-05T09:59:32.778Z</time></trkpt><trkpt lat="43.03204173406083" lon="2.291416142230919"><ele>262.0</ele><time>2026-04-05T09:59:33.778Z</time></trkpt><trkpt lat="43.03194422126572" lon="2.291589855015295"><ele>264.0</ele><time>2026-04-05T09:59:34.778Z</time></trkpt><trkpt lat="43.03184869690226" lon="2.291806603250913"><ele>266.0</ele><time>2026-04-05T09:59:35.778Z</time></trkpt><trkpt lat="43.031756536813646" lon="2.292035369832651"><ele>269.33333333333337</ele><time>2026-04-05T09:59:36.778Z</time></trkpt><trkpt lat="43.031661207522546" lon="2.2922694292262835"><ele>272.6666666666667</ele><time>2026-04-05T09:59:37.778Z</time></trkpt><trkpt lat="43.031553502859715" lon="2.2924824301206863"><ele>276.0</ele><time>2026-04-05T09:59:38.778Z</time></trkpt><trkpt lat="43.03143419023553" lon="2.2926839758161233"><ele>276.0</ele><time>2026-04-05T09:59:39.777Z</time></trkpt><trkpt lat="43.031291010029165" lon="2.2928633464712402"><ele>276.0</ele><time>2026-04-05T09:59:40.777Z</time></trkpt><trkpt lat="43.03111557809587" lon="2.2930180566321647"><ele>276.0</ele><time>2026-04-05T09:59:41.777Z</time></trkpt><trkpt lat="43.0309314132647" lon="2.2931028980830623"><ele>280.0</ele><time>2026-04-05T09:59:42.777Z</time></trkpt><trkpt lat="43.03071499737763" lon="2.2931653854777183"><ele>284.0</ele><time>2026-04-05T09:59:43.777Z</time></trkpt><trkpt lat="43.03108581996308" lon="2.293207143585161"><ele>284.0</ele><time>2026-04-05T09:59:44.777Z</time></trkpt><trkpt lat="43.031017707942944" lon="2.2932257940133822"><ele>284.0</ele><time>2026-04-05T09:59:45.777Z</time></trkpt><trkpt lat="43.03095403160147" lon="2.2931996154688745"><ele>284.0</ele><time>2026-04-05T09:59:46.777Z</time></trkpt><trkpt lat="43.03088878718549" lon="2.2931550227273605"><ele>284.0</ele><time>2026-04-05T09:59:47.777Z</time></trkpt><trkpt lat="43.03083374888591" lon="2.2930612518383957"><ele>284.0</ele><time>2026-04-05T09:59:48.777Z</time></trkpt><trkpt lat="43.03080008085332" lon="2.292956321136372"><ele>284.0</ele><time>2026-04-05T09:59:49.777Z</time></trkpt><trkpt lat="43.030779172958084" lon="2.292836350477262"><ele>285.2</ele><time>2026-04-05T09:59:50.777Z</time></trkpt><trkpt lat="43.03079087988049" lon="2.292726493426357"><ele>286.4</ele><time>2026-04-05T09:59:51.777Z</time></trkpt><trkpt lat="43.03080632525897" lon="2.292608215412567"><ele>287.6</ele><time>2026-04-05T09:59:52.777Z</time></trkpt><trkpt lat="43.03078148986813" lon="2.2924807070260194"><ele>288.8</ele><time>2026-04-05T09:59:53.777Z</time></trkpt><trkpt lat="43.03071983357982" lon="2.2923857546962765"><ele>290.0</ele><time>2026-04-05T09:59:54.777Z</time></trkpt><trkpt lat="43.03063080015062" lon="2.2923263617634495"><ele>290.0</ele><time>2026-04-05T09:59:55.777Z</time></trkpt><trkpt lat="43.030526032997315" lon="2.292285433620831"><ele>290.0</ele><time>2026-04-05T09:59:56.777Z</time></trkpt><trkpt lat="43.03042270825704" lon="2.292238376089705"><ele>290.0</ele><time>2026-04-05T09:59:57.777Z</time></trkpt><trkpt lat="43.03031562096688" lon="2.292194927912112"><ele>290.0</ele><time>2026-04-05T09:59:58.777Z</time></trkpt><trkpt lat="43.03020100441661" lon="2.2921513628766474"><ele>290.0</ele><time>2026-04-05T09:59:59.777Z</time></trkpt><trkpt lat="43.03008071429624" lon="2.292115519191515"><ele>288.25</ele><time>2026-04-05T10:00:00.777Z</time></trkpt><trkpt lat="43.02994771622256" lon="2.292109208574227"><ele>286.5</ele><time>2026-04-05T10:00:01.777Z</time></trkpt><trkpt lat="43.029811968271964" lon="2.2921420382918285"><ele>284.75</ele><time>2026-04-05T10:00:02.777Z</time></trkpt><trkpt lat="43.02968273228849" lon="2.292211303562269"><ele>283.0</ele><time>2026-04-05T10:00:03.777Z</time></trkpt><trkpt lat="43.02955688847725" lon="2.2922669494127654"><ele>283.0</ele><time>2026-04-05T10:00:04.777Z</time></trkpt><trkpt lat="43.02943702982352" lon="2.292276348863335"><ele>283.0</ele><time>2026-04-05T10:00:05.777Z</time></trkpt><trkpt lat="43.02931394014057" lon="2.292217605662176"><ele>283.0</ele><time>2026-04-05T10:00:06.777Z</time></trkpt><trkpt lat="43.029203151229986" lon="2.2921287008898137"><ele>283.0</ele><time>2026-04-05T10:00:07.777Z</time></trkpt><trkpt lat="43.029086366946665" lon="2.292039851851741"><ele>284.25</ele><time>2026-04-05T10:00:08.777Z</time></trkpt><trkpt lat="43.028958726259255" lon="2.29200410014528"><ele>285.5</ele><time>2026-04-05T10:00:09.777Z</time></trkpt><trkpt lat="43.02882382385377" lon="2.2920253991676955"><ele>286.75</ele><time>2026-04-05T10:00:10.777Z</time></trkpt><trkpt lat="43.02868608654751" lon="2.2920679341312127"><ele>288.0</ele><time>2026-04-05T10:00:11.777Z</time></trkpt><trkpt lat="43.02855866737516" lon="2.292136511042204"><ele>292.0</ele><time>2026-04-05T10:00:12.777Z</time></trkpt><trkpt lat="43.02843924004976" lon="2.292262282474182"><ele>296.0</ele><time>2026-04-05T10:00:13.777Z</time></trkpt><trkpt lat="43.02833582827101" lon="2.2923999730588736"><ele>300.0</ele><time>2026-04-05T10:00:14.776Z</time></trkpt><trkpt lat="43.0282219278026" lon="2.2925100235341707"><ele>304.0</ele><time>2026-04-05T10:00:15.776Z</time></trkpt><trkpt lat="43.028088843640354" lon="2.292607030586166"><ele>304.5</ele><time>2026-04-05T10:00:16.776Z</time></trkpt><trkpt lat="43.027950721672816" lon="2.2926822450270654"><ele>305.0</ele><time>2026-04-05T10:00:17.776Z</time></trkpt><trkpt lat="43.0278163640935" lon="2.292745369030938"><ele>305.5</ele><time>2026-04-05T10:00:18.776Z</time></trkpt><trkpt lat="43.027702536722096" lon="2.2927875753846303"><ele>306.0</ele><time>2026-04-05T10:00:19.776Z</time></trkpt><trkpt lat="43.02759820417126" lon="2.29281977448639"><ele>306.0</ele><time>2026-04-05T10:00:20.773Z</time></trkpt><trkpt lat="43.02750692297548" lon="2.2928457359480223"><ele>306.0</ele><time>2026-04-05T10:00:21.772Z</time></trkpt><trkpt lat="43.02742153946822" lon="2.2928644422213926"><ele>306.0</ele><time>2026-04-05T10:00:22.772Z</time></trkpt><trkpt lat="43.02734807564605" lon="2.2928449276465814"><ele>306.0</ele><time>2026-04-05T10:00:23.772Z</time></trkpt><trkpt lat="43.027278027460675" lon="2.2927819392984365"><ele>306.0</ele><time>2026-04-05T10:00:24.772Z</time></trkpt><trkpt lat="43.027212031126226" lon="2.292706293983456"><ele>306.0</ele><time>2026-04-05T10:00:25.772Z</time></trkpt><trkpt lat="43.02713908050007" lon="2.2926407002848177"><ele>306.8</ele><time>2026-04-05T10:00:26.772Z</time></trkpt><trkpt lat="43.02706438913391" lon="2.2925581844652467"><ele>307.6</ele><time>2026-04-05T10:00:27.772Z</time></trkpt><trkpt lat="43.027003592299195" lon="2.2924541300655603"><ele>308.4</ele><time>2026-04-05T10:00:28.772Z</time></trkpt><trkpt lat="43.02697017684458" lon="2.2923350543738237"><ele>309.2</ele><time>2026-04-05T10:00:29.772Z</time></trkpt><trkpt lat="43.02697049255653" lon="2.2922017690239933"><ele>310.0</ele><time>2026-04-05T10:00:30.772Z</time></trkpt><trkpt lat="43.02698042824102" lon="2.292076732089501"><ele>310.0</ele><time>2026-04-05T10:00:31.772Z</time></trkpt><trkpt lat="43.02694557520127" lon="2.2919667528508274"><ele>310.0</ele><time>2026-04-05T10:00:32.771Z</time></trkpt><trkpt lat="43.02686530189196" lon="2.291890825818876"><ele>310.0</ele><time>2026-04-05T10:00:33.771Z</time></trkpt><trkpt lat="43.02676248092754" lon="2.2918359424743175"><ele>310.0</ele><time>2026-04-05T10:00:34.771Z</time></trkpt><trkpt lat="43.02664189963425" lon="2.2918015230387865"><ele>310.0</ele><time>2026-04-05T10:00:35.771Z</time></trkpt><trkpt lat="43.026518464436855" lon="2.291787399319822"><ele>312.0</ele><time>2026-04-05T10:00:36.771Z</time></trkpt><trkpt lat="43.02640015303034" lon="2.291806162374255"><ele>314.0</ele><time>2026-04-05T10:00:37.771Z</time></trkpt><trkpt lat="43.02630546386814" lon="2.2918306058975118"><ele>316.0</ele><time>2026-04-05T10:00:38.771Z</time></trkpt><trkpt lat="43.026225574475426" lon="2.291870786910286"><ele>318.0</ele><time>2026-04-05T10:00:39.771Z</time></trkpt><trkpt lat="43.026141509791685" lon="2.291902830073806"><ele>320.0</ele><time>2026-04-05T10:00:40.771Z</time></trkpt><trkpt lat="43.0260618320809" lon="2.291937059836581"><ele>320.0</ele><time>2026-04-05T10:00:41.771Z</time></trkpt><trkpt lat="43.025984548727806" lon="2.291965480759524"><ele>320.0</ele><time>2026-04-05T10:00:42.771Z</time></trkpt><trkpt lat="43.02590844888232" lon="2.291982031632515"><ele>320.0</ele><time>2026-04-05T10:00:43.771Z</time></trkpt><trkpt lat="43.02582566256168" lon="2.2919969017462423"><ele>320.0</ele><time>2026-04-05T10:00:44.771Z</time></trkpt><trkpt lat="43.02573960085245" lon="2.2920242186352757"><ele>320.0</ele><time>2026-04-05T10:00:45.771Z</time></trkpt><trkpt lat="43.02565804890719" lon="2.2920542323821715"><ele>320.0</ele><time>2026-04-05T10:00:46.771Z</time></trkpt><trkpt lat="43.02557545586022" lon="2.292081518827697"><ele>321.5</ele><time>2026-04-05T10:00:47.771Z</time></trkpt><trkpt lat="43.02548766058226" lon="2.292107488470941"><ele>323.0</ele><time>2026-04-05T10:00:48.771Z</time></trkpt><trkpt lat="43.025397958691244" lon="2.2921277121463577"><ele>324.5</ele><time>2026-04-05T10:00:49.771Z</time></trkpt><trkpt lat="43.02531086100894" lon="2.292145205054044"><ele>326.0</ele><time>2026-04-05T10:00:50.771Z</time></trkpt><trkpt lat="43.02522687400278" lon="2.292161755017999"><ele>327.5</ele><time>2026-04-05T10:00:51.771Z</time></trkpt><trkpt lat="43.02515703713541" lon="2.2921616392637083"><ele>329.0</ele><time>2026-04-05T10:00:52.771Z</time></trkpt><trkpt lat="43.02509539569043" lon="2.2921327787149206"><ele>329.0</ele><time>2026-04-05T10:00:53.771Z</time></trkpt><trkpt lat="43.02503135611178" lon="2.292082863742326"><ele>329.0</ele><time>2026-04-05T10:00:54.771Z</time></trkpt><trkpt lat="43.024963522156014" lon="2.2920061406831564"><ele>329.0</ele><time>2026-04-05T10:00:55.771Z</time></trkpt><trkpt lat="43.02489749253331" lon="2.291929102910444"><ele>329.0</ele><time>2026-04-05T10:00:56.771Z</time></trkpt><trkpt lat="43.02482518474599" lon="2.2918593557975764"><ele>329.0</ele><time>2026-04-05T10:00:57.77Z</time></trkpt><trkpt lat="43.0247604553653" lon="2.2917954493403374"><ele>329.0</ele><time>2026-04-05T10:00:58.77Z</time></trkpt><trkpt lat="43.02471247489212" lon="2.291737406504632"><ele>330.4</ele><time>2026-04-05T10:00:59.77Z</time></trkpt><trkpt lat="43.02465094053375" lon="2.2916762251791947"><ele>331.79999999999995</ele><time>2026-04-05T10:01:01.77Z</time></trkpt><trkpt lat="43.02453633506174" lon="2.2915797639413"><ele>333.20000000000005</ele><time>2026-04-05T10:01:03.77Z</time></trkpt><trkpt lat="43.02447939638017" lon="2.291530015711055"><ele>334.6</ele><time>2026-04-05T10:01:04.77Z</time></trkpt><trkpt lat="43.0243660369232" lon="2.291452870649795"><ele>336.0</ele><time>2026-04-05T10:01:06.77Z</time></trkpt><trkpt lat="43.02425163158866" lon="2.2913883576116123"><ele>337.8</ele><time>2026-04-05T10:01:08.77Z</time></trkpt><trkpt lat="43.024144349839354" lon="2.2913445287941534"><ele>339.6</ele><time>2026-04-05T10:01:10.77Z</time></trkpt><trkpt lat="43.024058906371565" lon="2.2913380101596585"><ele>341.4</ele><time>2026-04-05T10:01:12.77Z</time></trkpt><trkpt lat="43.023976830365" lon="2.291316470778859"><ele>343.2</ele><time>2026-04-05T10:01:22.77Z</time></trkpt><trkpt lat="43.02385221887759" lon="2.291330697036931"><ele>345.0</ele><time>2026-04-05T10:01:24.77Z</time></trkpt><trkpt lat="43.023772552149154" lon="2.2913610290206274"><ele>345.0</ele><time>2026-04-05T10:01:25.77Z</time></trkpt><trkpt lat="43.02368738358189" lon="2.291405172088802"><ele>345.0</ele><time>2026-04-05T10:01:26.77Z</time></trkpt><trkpt lat="43.02360365453996" lon="2.291442190175539"><ele>345.0</ele><time>2026-04-05T10:01:27.77Z</time></trkpt><trkpt lat="43.02352470607444" lon="2.291456600315481"><ele>345.0</ele><time>2026-04-05T10:01:28.77Z</time></trkpt><trkpt lat="43.02344920993765" lon="2.291424193271132"><ele>345.0</ele><time>2026-04-05T10:01:29.77Z</time></trkpt><trkpt lat="43.02337306686891" lon="2.2913615993386824"><ele>345.0</ele><time>2026-04-05T10:01:30.77Z</time></trkpt><trkpt lat="43.02330226065321" lon="2.2913046298348143"><ele>346.5</ele><time>2026-04-05T10:01:31.77Z</time></trkpt><trkpt lat="43.0232288437839" lon="2.291239889936487"><ele>348.0</ele><time>2026-04-05T10:01:33.769Z</time></trkpt><trkpt lat="43.023086402148444" lon="2.291160801037463"><ele>349.5</ele><time>2026-04-05T10:01:35.769Z</time></trkpt><trkpt lat="43.02297517327321" lon="2.2911679521330544"><ele>351.0</ele><time>2026-04-05T10:01:36.769Z</time></trkpt><trkpt lat="43.022865497676236" lon="2.2911763254075095"><ele>351.0</ele><time>2026-04-05T10:01:37.769Z</time></trkpt><trkpt lat="43.02279298831329" lon="2.2911826082709297"><ele>351.0</ele><time>2026-04-05T10:01:38.769Z</time></trkpt><trkpt lat="43.02270744049167" lon="2.291155167966974"><ele>351.0</ele><time>2026-04-05T10:01:40.769Z</time></trkpt><trkpt lat="43.022780418405716" lon="2.291165806297546"><ele>351.0</ele><time>2026-04-05T10:01:51.769Z</time></trkpt><trkpt lat="43.022862989984205" lon="2.29116430718711"><ele>351.0</ele><time>2026-04-05T10:01:52.769Z</time></trkpt><trkpt lat="43.02297328082312" lon="2.2911537950009357"><ele>351.0</ele><time>2026-04-05T10:01:53.769Z</time></trkpt><trkpt lat="43.02305247650685" lon="2.291148659272609"><ele>351.0</ele><time>2026-04-05T10:01:54.769Z</time></trkpt><trkpt lat="43.02312335802094" lon="2.29115542084099"><ele>351.0</ele><time>2026-04-05T10:01:55.769Z</time></trkpt><trkpt lat="43.023186787979064" lon="2.2911642369585175"><ele>351.0</ele><time>2026-04-05T10:01:56.769Z</time></trkpt><trkpt lat="43.02325345985201" lon="2.291192187551127"><ele>351.0</ele><time>2026-04-05T10:01:57.769Z</time></trkpt><trkpt lat="43.0233018651135" lon="2.291247759097576"><ele>351.0</ele><time>2026-04-05T10:01:58.769Z</time></trkpt><trkpt lat="43.02335171738973" lon="2.2913354800741357"><ele>351.0</ele><time>2026-04-05T10:02:00.769Z</time></trkpt><trkpt lat="43.023453799513696" lon="2.2913818943669577"><ele>350.0</ele><time>2026-04-05T10:02:02.769Z</time></trkpt><trkpt lat="43.0235358995601" lon="2.2914272372259092"><ele>349.0</ele><time>2026-04-05T10:02:03.769Z</time></trkpt><trkpt lat="43.02362272660517" lon="2.2914571415764065"><ele>348.0</ele><time>2026-04-05T10:02:04.769Z</time></trkpt><trkpt lat="43.023699084452254" lon="2.2914515703015046"><ele>347.0</ele><time>2026-04-05T10:02:05.769Z</time></trkpt><trkpt lat="43.0237584450796" lon="2.291420188106944"><ele>346.0</ele><time>2026-04-05T10:02:06.768Z</time></trkpt><trkpt lat="43.02384370424097" lon="2.291372072798981"><ele>345.0</ele><time>2026-04-05T10:02:07.768Z</time></trkpt><trkpt lat="43.02390764054359" lon="2.2913380499211815"><ele>345.0</ele><time>2026-04-05T10:02:08.768Z</time></trkpt><trkpt lat="43.0239872320304" lon="2.291256880010814"><ele>345.0</ele><time>2026-04-05T10:02:10.768Z</time></trkpt><trkpt lat="43.0240750292632" lon="2.2911806439438096"><ele>345.0</ele><time>2026-04-05T10:02:12.768Z</time></trkpt><trkpt lat="43.02415982691862" lon="2.291157749438443"><ele>345.0</ele><time>2026-04-05T10:02:13.768Z</time></trkpt><trkpt lat="43.024243476667046" lon="2.291124436248163"><ele>345.0</ele><time>2026-04-05T10:02:14.768Z</time></trkpt><trkpt lat="43.02431288851139" lon="2.2910353155604417"><ele>346.6</ele><time>2026-04-05T10:02:15.768Z</time></trkpt><trkpt lat="43.0243646805028" lon="2.290917337399169"><ele>348.2</ele><time>2026-04-05T10:02:16.768Z</time></trkpt><trkpt lat="43.024423322499366" lon="2.2908101014158837"><ele>349.79999999999995</ele><time>2026-04-05T10:02:17.768Z</time></trkpt><trkpt lat="43.02446656643629" lon="2.290694358513354"><ele>351.4</ele><time>2026-04-05T10:02:18.768Z</time></trkpt><trkpt lat="43.02449894673107" lon="2.290570376967344"><ele>353.0</ele><time>2026-04-05T10:02:19.768Z</time></trkpt><trkpt lat="43.02454916579029" lon="2.290491347098022"><ele>353.0</ele><time>2026-04-05T10:02:20.768Z</time></trkpt><trkpt lat="43.02461908143268" lon="2.290452037461174"><ele>353.0</ele><time>2026-04-05T10:02:21.768Z</time></trkpt><trkpt lat="43.02471241767501" lon="2.2904409701841444"><ele>353.0</ele><time>2026-04-05T10:02:22.768Z</time></trkpt><trkpt lat="43.024795366112464" lon="2.290391814652759"><ele>353.0</ele><time>2026-04-05T10:02:23.768Z</time></trkpt><trkpt lat="43.024844828584854" lon="2.290336062607528"><ele>353.0</ele><time>2026-04-05T10:02:24.768Z</time></trkpt><trkpt lat="43.02489259061688" lon="2.290224583547639"><ele>353.0</ele><time>2026-04-05T10:02:25.768Z</time></trkpt><trkpt lat="43.0249419224659" lon="2.290106394408325"><ele>350.75</ele><time>2026-04-05T10:02:26.765Z</time></trkpt><trkpt lat="43.02501073986" lon="2.2899848471244906"><ele>348.5</ele><time>2026-04-05T10:02:27.764Z</time></trkpt><trkpt lat="43.025091530460415" lon="2.289857526193782"><ele>346.25</ele><time>2026-04-05T10:02:28.764Z</time></trkpt><trkpt lat="43.02516860466688" lon="2.289756952791266"><ele>344.0</ele><time>2026-04-05T10:02:29.764Z</time></trkpt><trkpt lat="43.02525920754655" lon="2.2896514347042056"><ele>344.0</ele><time>2026-04-05T10:02:30.764Z</time></trkpt><trkpt lat="43.02534704262104" lon="2.289527154955578"><ele>344.0</ele><time>2026-04-05T10:02:31.764Z</time></trkpt><trkpt lat="43.02543705325611" lon="2.289437133675619"><ele>344.0</ele><time>2026-04-05T10:02:32.764Z</time></trkpt><trkpt lat="43.025525911321694" lon="2.2893706147235795"><ele>344.0</ele><time>2026-04-05T10:02:33.765Z</time></trkpt><trkpt lat="43.02561975646355" lon="2.289336161542589"><ele>344.0</ele><time>2026-04-05T10:02:34.765Z</time></trkpt><trkpt lat="43.02570662461317" lon="2.2893362080620614"><ele>344.0</ele><time>2026-04-05T10:02:35.764Z</time></trkpt><trkpt lat="43.02579638694275" lon="2.2893440703876946"><ele>344.0</ele><time>2026-04-05T10:02:36.764Z</time></trkpt><trkpt lat="43.02588290943002" lon="2.2893632652301443"><ele>344.0</ele><time>2026-04-05T10:02:37.764Z</time></trkpt><trkpt lat="43.025953228640695" lon="2.2893612954166356"><ele>344.0</ele><time>2026-04-05T10:02:38.763Z</time></trkpt><trkpt lat="43.026031651954575" lon="2.289305463151646"><ele>344.0</ele><time>2026-04-05T10:02:40.764Z</time></trkpt><trkpt lat="43.02605692411454" lon="2.289139104663285"><ele>344.33333333333337</ele><time>2026-04-05T10:02:42.764Z</time></trkpt><trkpt lat="43.026063638187786" lon="2.2890149164984797"><ele>344.6666666666667</ele><time>2026-04-05T10:02:44.764Z</time></trkpt><trkpt lat="43.02609992014733" lon="2.2888895687412343"><ele>345.0</ele><time>2026-04-05T10:02:46.764Z</time></trkpt><trkpt lat="43.026127842246815" lon="2.2887707191369198"><ele>345.3333333333333</ele><time>2026-04-05T10:02:48.764Z</time></trkpt><trkpt lat="43.02617725156462" lon="2.288650294800748"><ele>345.66666666666663</ele><time>2026-04-05T10:02:50.764Z</time></trkpt><trkpt lat="43.02622474009308" lon="2.288591983066054"><ele>346.0</ele><time>2026-04-05T10:02:51.764Z</time></trkpt><trkpt lat="43.02631337373186" lon="2.288465858045324"><ele>346.0</ele><time>2026-04-05T10:02:53.763Z</time></trkpt><trkpt lat="43.026310267170004" lon="2.2883654599299272"><ele>346.0</ele><time>2026-04-05T10:02:54.763Z</time></trkpt><trkpt lat="43.02632160840278" lon="2.2882598110957804"><ele>346.0</ele><time>2026-04-05T10:02:55.763Z</time></trkpt><trkpt lat="43.02631754030846" lon="2.2881571584075586"><ele>346.0</ele><time>2026-04-05T10:02:56.763Z</time></trkpt><trkpt lat="43.02628754311488" lon="2.288032420696179"><ele>346.0</ele><time>2026-04-05T10:02:58.763Z</time></trkpt><trkpt lat="43.0261837966522" lon="2.287820991842153"><ele>347.75</ele><time>2026-04-05T10:03:00.763Z</time></trkpt><trkpt lat="43.02617782076839" lon="2.2877261606863173"><ele>349.5</ele><time>2026-04-05T10:03:01.763Z</time></trkpt><trkpt lat="43.02622713358167" lon="2.28756001734157"><ele>351.25</ele><time>2026-04-05T10:03:03.763Z</time></trkpt><trkpt lat="43.026269602478926" lon="2.2874281929872433"><ele>353.0</ele><time>2026-04-05T10:03:04.763Z</time></trkpt><trkpt lat="43.02633143950223" lon="2.2872428512884366"><ele>353.0</ele><time>2026-04-05T10:03:05.763Z</time></trkpt><trkpt lat="43.02632132363206" lon="2.2870486630707396"><ele>353.0</ele><time>2026-04-05T10:03:06.763Z</time></trkpt><trkpt lat="43.026270806267306" lon="2.2868144067737153"><ele>353.0</ele><time>2026-04-05T10:03:07.763Z</time></trkpt><trkpt lat="43.026163199173034" lon="2.2866100513592538"><ele>353.0</ele><time>2026-04-05T10:03:08.763Z</time></trkpt><trkpt lat="43.02606398340123" lon="2.2864492334191464"><ele>353.0</ele><time>2026-04-05T10:03:09.763Z</time></trkpt><trkpt lat="43.02595252555074" lon="2.2863187173538364"><ele>353.0</ele><time>2026-04-05T10:03:10.763Z</time></trkpt><trkpt lat="43.02582629138054" lon="2.286118911132955"><ele>363.0</ele><time>2026-04-05T10:03:11.763Z</time></trkpt><trkpt lat="43.0256998519273" lon="2.285903036624348"><ele>373.0</ele><time>2026-04-05T10:03:12.763Z</time></trkpt><trkpt lat="43.025583992813246" lon="2.2857030826611067"><ele>383.0</ele><time>2026-04-05T10:03:13.763Z</time></trkpt><trkpt lat="43.02547691517598" lon="2.2854675134039653"><ele>383.0</ele><time>2026-04-05T10:03:14.763Z</time></trkpt><trkpt lat="43.025723251254085" lon="2.285471984569362"><ele>383.0</ele><time>2026-04-05T10:03:15.763Z</time></trkpt><trkpt lat="43.02570001558514" lon="2.285293614212225"><ele>383.0</ele><time>2026-04-05T10:03:16.763Z</time></trkpt><trkpt lat="43.02567069206322" lon="2.2851171933890937"><ele>383.0</ele><time>2026-04-05T10:03:17.763Z</time></trkpt><trkpt lat="43.0256573887499" lon="2.2849533673305387"><ele>383.0</ele><time>2026-04-05T10:03:18.763Z</time></trkpt><trkpt lat="43.02564350340351" lon="2.2848543868548625"><ele>383.0</ele><time>2026-04-05T10:03:19.763Z</time></trkpt><trkpt lat="43.02565243110808" lon="2.284769140933056"><ele>383.0</ele><time>2026-04-05T10:03:20.763Z</time></trkpt><trkpt lat="43.025715192363535" lon="2.2846357985414416"><ele>383.0</ele><time>2026-04-05T10:03:21.763Z</time></trkpt><trkpt lat="43.02574409032863" lon="2.284512969285831"><ele>383.25</ele><time>2026-04-05T10:03:22.763Z</time></trkpt><trkpt lat="43.02572262993663" lon="2.284386491872262"><ele>383.5</ele><time>2026-04-05T10:03:23.763Z</time></trkpt><trkpt lat="43.02568192019615" lon="2.2842503325443766"><ele>383.75</ele><time>2026-04-05T10:03:24.763Z</time></trkpt><trkpt lat="43.025634014845465" lon="2.2840849414708897"><ele>384.0</ele><time>2026-04-05T10:03:25.763Z</time></trkpt><trkpt lat="43.025599073904324" lon="2.2839018760501535"><ele>387.25</ele><time>2026-04-05T10:03:26.763Z</time></trkpt><trkpt lat="43.02557642665012" lon="2.283718377511941"><ele>390.5</ele><time>2026-04-05T10:03:27.762Z</time></trkpt><trkpt lat="43.02560014305394" lon="2.2835189333867922"><ele>393.75</ele><time>2026-04-05T10:03:28.762Z</time></trkpt><trkpt lat="43.02560954886361" lon="2.2833011787314654"><ele>397.0</ele><time>2026-04-05T10:03:29.762Z</time></trkpt><trkpt lat="43.025581354287844" lon="2.2830970983831365"><ele>399.5</ele><time>2026-04-05T10:03:30.762Z</time></trkpt><trkpt lat="43.025542162662354" lon="2.2828878196463793"><ele>402.0</ele><time>2026-04-05T10:03:31.762Z</time></trkpt><trkpt lat="43.02552894995724" lon="2.2826929110801943"><ele>404.5</ele><time>2026-04-05T10:03:32.762Z</time></trkpt><trkpt lat="43.02555178328119" lon="2.2824954691143784"><ele>407.0</ele><time>2026-04-05T10:03:33.762Z</time></trkpt><trkpt lat="43.025571573476014" lon="2.282294827190582"><ele>408.0</ele><time>2026-04-05T10:03:34.762Z</time></trkpt><trkpt lat="43.025558498584886" lon="2.2820917077786023"><ele>409.0</ele><time>2026-04-05T10:03:35.762Z</time></trkpt><trkpt lat="43.02553871317931" lon="2.2819074043089116"><ele>410.0</ele><time>2026-04-05T10:03:36.762Z</time></trkpt><trkpt lat="43.025509869748305" lon="2.281753565076277"><ele>411.0</ele><time>2026-04-05T10:03:37.762Z</time></trkpt><trkpt lat="43.02553893166506" lon="2.281634436969661"><ele>411.0</ele><time>2026-04-05T10:03:38.762Z</time></trkpt><trkpt lat="43.025575883240286" lon="2.281549839337914"><ele>411.0</ele><time>2026-04-05T10:03:39.762Z</time></trkpt><trkpt lat="43.02564824048447" lon="2.281432786018935"><ele>411.0</ele><time>2026-04-05T10:03:40.762Z</time></trkpt><trkpt lat="43.02573477195788" lon="2.281252459565677"><ele>411.0</ele><time>2026-04-05T10:03:41.762Z</time></trkpt><trkpt lat="43.02577141751478" lon="2.2810858255573465"><ele>412.5</ele><time>2026-04-05T10:03:42.762Z</time></trkpt><trkpt lat="43.02578072785039" lon="2.2809425942713055"><ele>414.0</ele><time>2026-04-05T10:03:43.762Z</time></trkpt><trkpt lat="43.02576109114226" lon="2.2808011755389845"><ele>415.5</ele><time>2026-04-05T10:03:44.762Z</time></trkpt><trkpt lat="43.02571974274351" lon="2.2806380425722774"><ele>417.0</ele><time>2026-04-05T10:03:45.762Z</time></trkpt><trkpt lat="43.025658813438916" lon="2.280440221394497"><ele>418.0</ele><time>2026-04-05T10:03:46.762Z</time></trkpt><trkpt lat="43.02559714676578" lon="2.2802342750698683"><ele>419.0</ele><time>2026-04-05T10:03:47.762Z</time></trkpt><trkpt lat="43.025537671428424" lon="2.280008953411188"><ele>420.0</ele><time>2026-04-05T10:03:48.762Z</time></trkpt><trkpt lat="43.02549285628486" lon="2.27979430695794"><ele>419.0</ele><time>2026-04-05T10:03:49.762Z</time></trkpt><trkpt lat="43.02546293934821" lon="2.2796507045225454"><ele>418.0</ele><time>2026-04-05T10:03:50.762Z</time></trkpt><trkpt lat="43.02543198285809" lon="2.2795187230836453"><ele>417.0</ele><time>2026-04-05T10:03:51.762Z</time></trkpt><trkpt lat="43.0253904785235" lon="2.279359141614242"><ele>416.0</ele><time>2026-04-05T10:03:52.762Z</time></trkpt><trkpt lat="43.02532173053631" lon="2.2792331475598715"><ele>415.0</ele><time>2026-04-05T10:03:53.762Z</time></trkpt><trkpt lat="43.02529102953312" lon="2.279122378620894"><ele>415.0</ele><time>2026-04-05T10:03:54.762Z</time></trkpt><trkpt lat="43.025270326258706" lon="2.279015176696295"><ele>415.0</ele><time>2026-04-05T10:03:56.762Z</time></trkpt><trkpt lat="43.0252693681921" lon="2.2791434957287744"><ele>415.0</ele><time>2026-04-05T10:04:13.761Z</time></trkpt><trkpt lat="43.02529770366519" lon="2.2792418216884305"><ele>415.0</ele><time>2026-04-05T10:04:14.761Z</time></trkpt><trkpt lat="43.025334482560964" lon="2.2793868176722025"><ele>415.0</ele><time>2026-04-05T10:04:15.761Z</time></trkpt><trkpt lat="43.02535296713793" lon="2.2795075659045816"><ele>415.0</ele><time>2026-04-05T10:04:16.761Z</time></trkpt><trkpt lat="43.02516876289093" lon="2.2796383258715123"><ele>415.0</ele><time>2026-04-05T10:04:20.761Z</time></trkpt><trkpt lat="43.02507051518501" lon="2.279654984788849"><ele>415.0</ele><time>2026-04-05T10:04:22.761Z</time></trkpt><trkpt lat="43.02497377789773" lon="2.2797188002904694"><ele>415.0</ele><time>2026-04-05T10:04:24.761Z</time></trkpt><trkpt lat="43.024860770886676" lon="2.2798101239113273"><ele>420.50000000000006</ele><time>2026-04-05T10:04:26.761Z</time></trkpt><trkpt lat="43.02480654707269" lon="2.279890642586349"><ele>426.0</ele><time>2026-04-05T10:04:27.761Z</time></trkpt><trkpt lat="43.02476465263032" lon="2.2799709864454853"><ele>431.5</ele><time>2026-04-05T10:04:28.761Z</time></trkpt><trkpt lat="43.024744236940315" lon="2.2800543433018547"><ele>437.0</ele><time>2026-04-05T10:04:30.761Z</time></trkpt><trkpt lat="43.024739088670835" lon="2.2801478584190726"><ele>442.50000000000006</ele><time>2026-04-05T10:04:33.757Z</time></trkpt><trkpt lat="43.024771834745096" lon="2.280312470348953"><ele>448.0</ele><time>2026-04-05T10:04:35.757Z</time></trkpt><trkpt lat="43.024786046479655" lon="2.2804446470655084"><ele>448.0</ele><time>2026-04-05T10:04:36.757Z</time></trkpt><trkpt lat="43.0247894756173" lon="2.2805934841144784"><ele>447.99999999999994</ele><time>2026-04-05T10:04:37.757Z</time></trkpt><trkpt lat="43.02476876113904" lon="2.2807172852558715"><ele>447.99999999999994</ele><time>2026-04-05T10:04:38.756Z</time></trkpt><trkpt lat="43.024720421154136" lon="2.280812636306018"><ele>448.0</ele><time>2026-04-05T10:04:39.757Z</time></trkpt><trkpt lat="43.02464830810257" lon="2.280911382100343"><ele>448.0</ele><time>2026-04-05T10:04:40.757Z</time></trkpt><trkpt lat="43.0245765711323" lon="2.2810182122834766"><ele>447.79999999999995</ele><time>2026-04-05T10:04:41.757Z</time></trkpt><trkpt lat="43.02451550473745" lon="2.281099018045054"><ele>447.59999999999997</ele><time>2026-04-05T10:04:42.757Z</time></trkpt><trkpt lat="43.024434597172096" lon="2.2811784636374837"><ele>447.40000000000003</ele><time>2026-04-05T10:04:43.757Z</time></trkpt><trkpt lat="43.024335446620185" lon="2.281218397764336"><ele>447.20000000000005</ele><time>2026-04-05T10:04:44.757Z</time></trkpt><trkpt lat="43.02423648375439" lon="2.281229815905588"><ele>447.0</ele><time>2026-04-05T10:04:45.756Z</time></trkpt><trkpt lat="43.02414228681653" lon="2.281174123721788"><ele>452.6</ele><time>2026-04-05T10:04:46.756Z</time></trkpt><trkpt lat="43.024093878829724" lon="2.281092834525964"><ele>458.20000000000005</ele><time>2026-04-05T10:04:47.756Z</time></trkpt><trkpt lat="43.02403938902783" lon="2.2810134205471915"><ele>463.8</ele><time>2026-04-05T10:04:48.756Z</time></trkpt><trkpt lat="43.02400437832043" lon="2.2809023619418975"><ele>469.4</ele><time>2026-04-05T10:04:49.756Z</time></trkpt><trkpt lat="43.02396900113714" lon="2.280721381954651"><ele>475.0</ele><time>2026-04-05T10:04:50.756Z</time></trkpt><trkpt lat="43.023940778428454" lon="2.280548634002752"><ele>475.0</ele><time>2026-04-05T10:04:51.756Z</time></trkpt><trkpt lat="43.02389983808154" lon="2.2803836368061203"><ele>475.0</ele><time>2026-04-05T10:04:52.756Z</time></trkpt><trkpt lat="43.023871808973915" lon="2.2802221103936677"><ele>475.0</ele><time>2026-04-05T10:04:53.756Z</time></trkpt><trkpt lat="43.0238500649907" lon="2.2800688734805563"><ele>475.0</ele><time>2026-04-05T10:04:54.756Z</time></trkpt><trkpt lat="43.023813667500285" lon="2.2799336173390046"><ele>475.0</ele><time>2026-04-05T10:04:55.756Z</time></trkpt><trkpt lat="43.023774938933656" lon="2.279844232149055"><ele>475.0</ele><time>2026-04-05T10:04:56.756Z</time></trkpt><trkpt lat="43.02379188030419" lon="2.2799323373897833"><ele>475.0</ele><time>2026-04-05T10:04:59.756Z</time></trkpt><trkpt lat="43.023747584363186" lon="2.279749046627055"><ele>475.0</ele><time>2026-04-05T10:05:13.755Z</time></trkpt><trkpt lat="43.023696274807165" lon="2.279602943628781"><ele>475.0</ele><time>2026-04-05T10:05:14.755Z</time></trkpt><trkpt lat="43.0236449856191" lon="2.279440158746825"><ele>472.8</ele><time>2026-04-05T10:05:15.755Z</time></trkpt><trkpt lat="43.02360713206665" lon="2.2793094837763817"><ele>470.6</ele><time>2026-04-05T10:05:16.755Z</time></trkpt><trkpt lat="43.0235866892714" lon="2.2792116021527824"><ele>468.4</ele><time>2026-04-05T10:05:17.755Z</time></trkpt><trkpt lat="43.02357631305498" lon="2.27906750386201"><ele>466.2</ele><time>2026-04-05T10:05:18.755Z</time></trkpt><trkpt lat="43.023576635725725" lon="2.278910059439936"><ele>464.0</ele><time>2026-04-05T10:05:19.755Z</time></trkpt><trkpt lat="43.02353641321993" lon="2.2787800974970605"><ele>466.5</ele><time>2026-04-05T10:05:20.755Z</time></trkpt><trkpt lat="43.0234559432061" lon="2.2786202661481316"><ele>469.0</ele><time>2026-04-05T10:05:21.755Z</time></trkpt><trkpt lat="43.02337326191369" lon="2.278475756775206"><ele>471.5</ele><time>2026-04-05T10:05:22.755Z</time></trkpt><trkpt lat="43.02329392307576" lon="2.2783445014529695"><ele>474.0</ele><time>2026-04-05T10:05:23.755Z</time></trkpt><trkpt lat="43.02324962442254" lon="2.2781991333262703"><ele>468.6</ele><time>2026-04-05T10:05:24.755Z</time></trkpt><trkpt lat="43.02321173533786" lon="2.278063509551835"><ele>463.2</ele><time>2026-04-05T10:05:25.755Z</time></trkpt><trkpt lat="43.02318131647222" lon="2.2779167127044766"><ele>457.80000000000007</ele><time>2026-04-05T10:05:26.755Z</time></trkpt><trkpt lat="43.023142046963606" lon="2.2777996255986177"><ele>452.40000000000003</ele><time>2026-04-05T10:05:27.755Z</time></trkpt><trkpt lat="43.02311678678015" lon="2.2776650738356516"><ele>447.0</ele><time>2026-04-05T10:05:28.755Z</time></trkpt><trkpt lat="43.023094661681846" lon="2.277526100131704"><ele>447.0</ele><time>2026-04-05T10:05:29.755Z</time></trkpt><trkpt lat="43.023063220952196" lon="2.2774265742846027"><ele>447.0</ele><time>2026-04-05T10:05:30.755Z</time></trkpt><trkpt lat="43.02302582682876" lon="2.2773328127458377"><ele>447.0</ele><time>2026-04-05T10:05:31.755Z</time></trkpt><trkpt lat="43.022999806685625" lon="2.277247840813027"><ele>447.0</ele><time>2026-04-05T10:05:32.755Z</time></trkpt><trkpt lat="43.02294872211428" lon="2.2771128725760814"><ele>447.0</ele><time>2026-04-05T10:05:34.755Z</time></trkpt><trkpt lat="43.022886077777976" lon="2.277042381407896"><ele>447.0</ele><time>2026-04-05T10:05:36.755Z</time></trkpt><trkpt lat="43.02279083217811" lon="2.2769930590706315"><ele>448.5</ele><time>2026-04-05T10:05:51.754Z</time></trkpt><trkpt lat="43.02271880091572" lon="2.2770110062037388"><ele>450.0</ele><time>2026-04-05T10:05:52.754Z</time></trkpt><trkpt lat="43.02264735930567" lon="2.2770495052962785"><ele>451.5</ele><time>2026-04-05T10:05:53.754Z</time></trkpt><trkpt lat="43.0225831396475" lon="2.277074599439159"><ele>453.0</ele><time>2026-04-05T10:05:54.754Z</time></trkpt><trkpt lat="43.02249662367343" lon="2.2770106191534643"><ele>454.5</ele><time>2026-04-05T10:05:56.754Z</time></trkpt><trkpt lat="43.02244546726663" lon="2.276891228730329"><ele>456.0</ele><time>2026-04-05T10:05:57.754Z</time></trkpt><trkpt lat="43.02238286828342" lon="2.276744372919935"><ele>456.0</ele><time>2026-04-05T10:05:58.754Z</time></trkpt><trkpt lat="43.022313027652075" lon="2.276611265713342"><ele>456.0</ele><time>2026-04-05T10:05:59.754Z</time></trkpt><trkpt lat="43.02225562452698" lon="2.276507705948475"><ele>456.0</ele><time>2026-04-05T10:06:00.754Z</time></trkpt><trkpt lat="43.022209842461606" lon="2.276422236820949"><ele>456.0</ele><time>2026-04-05T10:06:01.754Z</time></trkpt><trkpt lat="43.02217524109528" lon="2.276330780608743"><ele>456.0</ele><time>2026-04-05T10:06:05.754Z</time></trkpt><trkpt lat="43.0221064317305" lon="2.2763867503317927"><ele>456.0</ele><time>2026-04-05T10:06:07.754Z</time></trkpt><trkpt lat="43.02205665588421" lon="2.2764751655144853"><ele>456.0</ele><time>2026-04-05T10:06:08.754Z</time></trkpt><trkpt lat="43.021998531026476" lon="2.2765385685832285"><ele>456.0</ele><time>2026-04-05T10:06:09.754Z</time></trkpt><trkpt lat="43.02192338752942" lon="2.276614033745902"><ele>456.0</ele><time>2026-04-05T10:06:10.754Z</time></trkpt><trkpt lat="43.02183081318895" lon="2.2767393308627253"><ele>456.0</ele><time>2026-04-05T10:06:11.754Z</time></trkpt><trkpt lat="43.02175570081172" lon="2.2768292506923964"><ele>456.0</ele><time>2026-04-05T10:06:12.754Z</time></trkpt><trkpt lat="43.02170889812712" lon="2.2769308016147285"><ele>456.0</ele><time>2026-04-05T10:06:13.754Z</time></trkpt><trkpt lat="43.02166450331141" lon="2.277053735111165"><ele>456.0</ele><time>2026-04-05T10:06:14.754Z</time></trkpt><trkpt lat="43.02161482340508" lon="2.277204300794549"><ele>456.0</ele><time>2026-04-05T10:06:15.754Z</time></trkpt><trkpt lat="43.02155202752922" lon="2.2773840004212684"><ele>456.0</ele><time>2026-04-05T10:06:16.754Z</time></trkpt><trkpt lat="43.02148371936361" lon="2.277496365591591"><ele>463.1666666666667</ele><time>2026-04-05T10:06:17.753Z</time></trkpt><trkpt lat="43.021422251722555" lon="2.277585010423372"><ele>470.33333333333337</ele><time>2026-04-05T10:06:18.753Z</time></trkpt><trkpt lat="43.02135017404826" lon="2.277666792540354"><ele>477.5</ele><time>2026-04-05T10:06:19.753Z</time></trkpt><trkpt lat="43.02128008903213" lon="2.277739381739941"><ele>484.6666666666667</ele><time>2026-04-05T10:06:20.753Z</time></trkpt><trkpt lat="43.021204567005945" lon="2.2778080021296128"><ele>491.83333333333337</ele><time>2026-04-05T10:06:21.753Z</time></trkpt><trkpt lat="43.02113187075215" lon="2.2778756390293142"><ele>499.0</ele><time>2026-04-05T10:06:22.753Z</time></trkpt><trkpt lat="43.021049275723435" lon="2.2779416084466972"><ele>499.0</ele><time>2026-04-05T10:06:23.753Z</time></trkpt><trkpt lat="43.02096838224531" lon="2.277981928948553"><ele>499.0</ele><time>2026-04-05T10:06:24.753Z</time></trkpt><trkpt lat="43.02089544996316" lon="2.278034322006229"><ele>499.0</ele><time>2026-04-05T10:06:25.753Z</time></trkpt><trkpt lat="43.02085061378155" lon="2.278136681201602"><ele>499.0</ele><time>2026-04-05T10:06:26.753Z</time></trkpt><trkpt lat="43.0207964713565" lon="2.278285216171407"><ele>499.0</ele><time>2026-04-05T10:06:27.753Z</time></trkpt><trkpt lat="43.02073812014089" lon="2.278410035939517"><ele>509.0</ele><time>2026-04-05T10:06:28.753Z</time></trkpt><trkpt lat="43.02068614977108" lon="2.2785099404533233"><ele>519.0</ele><time>2026-04-05T10:06:29.753Z</time></trkpt><trkpt lat="43.02063145018265" lon="2.2786147811238813"><ele>529.0</ele><time>2026-04-05T10:06:30.753Z</time></trkpt><trkpt lat="43.020582481438225" lon="2.2787177657758644"><ele>539.0</ele><time>2026-04-05T10:06:31.753Z</time></trkpt><trkpt lat="43.020521846933505" lon="2.278830650926835"><ele>549.0</ele><time>2026-04-05T10:06:33.753Z</time></trkpt><trkpt lat="43.020535033819975" lon="2.2789484035404457"><ele>550.4</ele><time>2026-04-05T10:06:35.753Z</time></trkpt><trkpt lat="43.02060897713935" lon="2.2790495749137234"><ele>551.8</ele><time>2026-04-05T10:06:36.753Z</time></trkpt><trkpt lat="43.020716380337376" lon="2.2790799878035757"><ele>553.2</ele><time>2026-04-05T10:06:37.753Z</time></trkpt><trkpt lat="43.02080258841727" lon="2.2791023510297497"><ele>554.6</ele><time>2026-04-05T10:06:38.749Z</time></trkpt><trkpt lat="43.020903716799154" lon="2.2791285847305556"><ele>556.0</ele><time>2026-04-05T10:06:39.749Z</time></trkpt><trkpt lat="43.021010724894246" lon="2.279024476349392"><ele>550.1666666666667</ele><time>2026-04-05T10:06:40.749Z</time></trkpt><trkpt lat="43.02108523054906" lon="2.2790689485022892"><ele>544.3333333333334</ele><time>2026-04-05T10:06:41.749Z</time></trkpt><trkpt lat="43.0211463966729" lon="2.279125432015841"><ele>538.5</ele><time>2026-04-05T10:06:42.749Z</time></trkpt><trkpt lat="43.021209197138106" lon="2.279214667455515"><ele>532.6666666666666</ele><time>2026-04-05T10:06:43.749Z</time></trkpt><trkpt lat="43.021268377376" lon="2.2793191776731394"><ele>526.8333333333333</ele><time>2026-04-05T10:06:44.749Z</time></trkpt><trkpt lat="43.021317408158204" lon="2.27943843996246"><ele>521.0</ele><time>2026-04-05T10:06:45.748Z</time></trkpt><trkpt lat="43.02135986789482" lon="2.2795697515142472"><ele>521.0</ele><time>2026-04-05T10:06:46.748Z</time></trkpt><trkpt lat="43.021403063060376" lon="2.279679389638352"><ele>521.0</ele><time>2026-04-05T10:06:47.749Z</time></trkpt><trkpt lat="43.021490222759596" lon="2.2797673137258867"><ele>521.0</ele><time>2026-04-05T10:06:49.748Z</time></trkpt><trkpt lat="43.02159962934441" lon="2.279767019280284"><ele>521.0</ele><time>2026-04-05T10:06:51.748Z</time></trkpt><trkpt lat="43.0216717907994" lon="2.2797727064531226"><ele>521.0</ele><time>2026-04-05T10:06:52.748Z</time></trkpt><trkpt lat="43.02173385900943" lon="2.2797915745820343"><ele>521.0</ele><time>2026-04-05T10:06:53.748Z</time></trkpt><trkpt lat="43.021820148152024" lon="2.279900686768978"><ele>523.6</ele><time>2026-04-05T10:06:55.748Z</time></trkpt><trkpt lat="43.02185713500244" lon="2.27998170168052"><ele>526.2</ele><time>2026-04-05T10:06:56.748Z</time></trkpt><trkpt lat="43.021873415283686" lon="2.280074277833328"><ele>528.8</ele><time>2026-04-05T10:06:57.748Z</time></trkpt><trkpt lat="43.02186429486835" lon="2.280198708988757"><ele>531.4</ele><time>2026-04-05T10:06:58.748Z</time></trkpt><trkpt lat="43.021834509135516" lon="2.280347441927484"><ele>534.0</ele><time>2026-04-05T10:06:59.748Z</time></trkpt><trkpt lat="43.02179789314305" lon="2.280525056252279"><ele>538.0</ele><time>2026-04-05T10:07:00.748Z</time></trkpt><trkpt lat="43.02173507146214" lon="2.2806623159247628"><ele>542.0</ele><time>2026-04-05T10:07:01.748Z</time></trkpt><trkpt lat="43.0216664447321" lon="2.2807672888694506"><ele>546.0</ele><time>2026-04-05T10:07:02.748Z</time></trkpt><trkpt lat="43.021601165356195" lon="2.28087379466739"><ele>550.0</ele><time>2026-04-05T10:07:03.748Z</time></trkpt><trkpt lat="43.02153318873255" lon="2.2810444874712523"><ele>550.0</ele><time>2026-04-05T10:07:04.748Z</time></trkpt><trkpt lat="43.02147935555846" lon="2.2811925392682637"><ele>550.0</ele><time>2026-04-05T10:07:05.748Z</time></trkpt><trkpt lat="43.02141897839022" lon="2.2813346801258216"><ele>550.0</ele><time>2026-04-05T10:07:06.748Z</time></trkpt><trkpt lat="43.02136798270934" lon="2.281428825369628"><ele>550.0</ele><time>2026-04-05T10:07:07.748Z</time></trkpt><trkpt lat="43.021761675066735" lon="2.281372577886359"><ele>550.0</ele><time>2026-04-05T10:07:08.748Z</time></trkpt><trkpt lat="43.021695619055606" lon="2.2814162645712637"><ele>550.0</ele><time>2026-04-05T10:07:10.748Z</time></trkpt><trkpt lat="43.021608448325736" lon="2.2814934830492315"><ele>550.0</ele><time>2026-04-05T10:07:12.748Z</time></trkpt><trkpt lat="43.021614008758924" lon="2.281598426405691"><ele>550.0</ele><time>2026-04-05T10:07:13.748Z</time></trkpt><trkpt lat="43.02155462510679" lon="2.2817188266093877"><ele>550.0</ele><time>2026-04-05T10:07:15.747Z</time></trkpt><trkpt lat="43.021429163668564" lon="2.281726704764434"><ele>554.2</ele><time>2026-04-05T10:07:17.747Z</time></trkpt><trkpt lat="43.02135705319406" lon="2.281713672246849"><ele>558.4</ele><time>2026-04-05T10:07:18.747Z</time></trkpt><trkpt lat="43.02126968506926" lon="2.281695166636701"><ele>562.6</ele><time>2026-04-05T10:07:19.747Z</time></trkpt><trkpt lat="43.02117405234416" lon="2.2816636285059824"><ele>566.8</ele><time>2026-04-05T10:07:20.747Z</time></trkpt><trkpt lat="43.021062801366476" lon="2.2816266791413695"><ele>571.0</ele><time>2026-04-05T10:07:21.747Z</time></trkpt><trkpt lat="43.02094624648646" lon="2.2816018639703803"><ele>571.0</ele><time>2026-04-05T10:07:22.747Z</time></trkpt><trkpt lat="43.02082713892021" lon="2.281585882196944"><ele>571.0</ele><time>2026-04-05T10:07:23.747Z</time></trkpt><trkpt lat="43.02070317102913" lon="2.2815276177616837"><ele>571.0</ele><time>2026-04-05T10:07:24.747Z</time></trkpt><trkpt lat="43.02058370830634" lon="2.2815072804988668"><ele>571.0</ele><time>2026-04-05T10:07:25.747Z</time></trkpt><trkpt lat="43.02046441080172" lon="2.2814869713482713"><ele>574.0</ele><time>2026-04-05T10:07:26.747Z</time></trkpt><trkpt lat="43.02038063289095" lon="2.2814579348512902"><ele>577.0</ele><time>2026-04-05T10:07:27.747Z</time></trkpt><trkpt lat="43.020320873884934" lon="2.2814225422069505"><ele>580.0</ele><time>2026-04-05T10:07:28.747Z</time></trkpt><trkpt lat="43.02027274237942" lon="2.2813518558752635"><ele>583.0</ele><time>2026-04-05T10:07:29.747Z</time></trkpt><trkpt lat="43.020197444819715" lon="2.2813077405446065"><ele>586.0</ele><time>2026-04-05T10:07:30.747Z</time></trkpt><trkpt lat="43.020128710439515" lon="2.281348505490896"><ele>589.0</ele><time>2026-04-05T10:07:31.747Z</time></trkpt><trkpt lat="43.02003913436457" lon="2.281431410635826"><ele>593.4</ele><time>2026-04-05T10:07:32.747Z</time></trkpt><trkpt lat="43.01997330537781" lon="2.2814778079368416"><ele>597.8</ele><time>2026-04-05T10:07:33.747Z</time></trkpt><trkpt lat="43.01989901250712" lon="2.2815096888743915"><ele>602.2</ele><time>2026-04-05T10:07:34.747Z</time></trkpt><trkpt lat="43.019822591348365" lon="2.281529552826934"><ele>606.6</ele><time>2026-04-05T10:07:35.747Z</time></trkpt><trkpt lat="43.01971163781507" lon="2.281531044267091"><ele>611.0</ele><time>2026-04-05T10:07:36.747Z</time></trkpt><trkpt lat="43.01960355101752" lon="2.28155984416897"><ele>611.0</ele><time>2026-04-05T10:07:37.747Z</time></trkpt><trkpt lat="43.01950798938657" lon="2.2815961096893003"><ele>611.0</ele><time>2026-04-05T10:07:38.747Z</time></trkpt><trkpt lat="43.019425514985834" lon="2.28163149957754"><ele>611.0</ele><time>2026-04-05T10:07:39.747Z</time></trkpt><trkpt lat="43.019348425732616" lon="2.28166457901218"><ele>611.0</ele><time>2026-04-05T10:07:40.747Z</time></trkpt><trkpt lat="43.01927538708202" lon="2.2817720203890364"><ele>611.0</ele><time>2026-04-05T10:07:41.747Z</time></trkpt><trkpt lat="43.019210491474475" lon="2.281848018755231"><ele>609.0</ele><time>2026-04-05T10:07:42.747Z</time></trkpt><trkpt lat="43.019140906259715" lon="2.281943193154354"><ele>607.0</ele><time>2026-04-05T10:07:43.747Z</time></trkpt><trkpt lat="43.01908378984746" lon="2.2820531352531175"><ele>605.0</ele><time>2026-04-05T10:07:44.747Z</time></trkpt><trkpt lat="43.019021692107515" lon="2.28216576514271"><ele>603.0</ele><time>2026-04-05T10:07:45.747Z</time></trkpt><trkpt lat="43.018952580227236" lon="2.282288988630521"><ele>601.0</ele><time>2026-04-05T10:07:46.747Z</time></trkpt><trkpt lat="43.018888918884926" lon="2.2824194945058296"><ele>601.0</ele><time>2026-04-05T10:07:47.747Z</time></trkpt><trkpt lat="43.018853183253015" lon="2.282535863894723"><ele>601.0</ele><time>2026-04-05T10:07:48.746Z</time></trkpt><trkpt lat="43.018862183570896" lon="2.282663680264166"><ele>601.0</ele><time>2026-04-05T10:07:49.746Z</time></trkpt><trkpt lat="43.01891476460619" lon="2.2827163157268577"><ele>601.0</ele><time>2026-04-05T10:07:50.746Z</time></trkpt><trkpt lat="43.01891669225251" lon="2.282628254695078"><ele>601.0</ele><time>2026-04-05T10:08:18.746Z</time></trkpt><trkpt lat="43.01889937281845" lon="2.282475756217195"><ele>601.0</ele><time>2026-04-05T10:08:20.746Z</time></trkpt><trkpt lat="43.018957138092105" lon="2.2823944821515734"><ele>601.0</ele><time>2026-04-05T10:08:22.746Z</time></trkpt><trkpt lat="43.01903460045954" lon="2.2822688697772233"><ele>601.0</ele><time>2026-04-05T10:08:24.745Z</time></trkpt><trkpt lat="43.01906449698985" lon="2.2821651459428463"><ele>601.0</ele><time>2026-04-05T10:08:25.745Z</time></trkpt><trkpt lat="43.01911635184963" lon="2.2820790742266626"><ele>601.0</ele><time>2026-04-05T10:08:27.745Z</time></trkpt><trkpt lat="43.019183231082806" lon="2.2819914635544727"><ele>601.0</ele><time>2026-04-05T10:08:28.745Z</time></trkpt><trkpt lat="43.019262084598495" lon="2.2818830370168746"><ele>602.1666666666667</ele><time>2026-04-05T10:08:29.745Z</time></trkpt><trkpt lat="43.01933119006046" lon="2.281792532386938"><ele>603.3333333333334</ele><time>2026-04-05T10:08:30.745Z</time></trkpt><trkpt lat="43.019385659514555" lon="2.281726006387975"><ele>604.5</ele><time>2026-04-05T10:08:31.745Z</time></trkpt><trkpt lat="43.01943427636313" lon="2.281662471706486"><ele>605.6666666666666</ele><time>2026-04-05T10:08:33.745Z</time></trkpt><trkpt lat="43.01942274809129" lon="2.2815700163578536"><ele>606.8333333333333</ele><time>2026-04-05T10:08:34.745Z</time></trkpt><trkpt lat="43.0194045972565" lon="2.281461281640013"><ele>608.0</ele><time>2026-04-05T10:08:35.745Z</time></trkpt><trkpt lat="43.019380056305685" lon="2.2813314490929044"><ele>608.0</ele><time>2026-04-05T10:08:36.745Z</time></trkpt><trkpt lat="43.019365405205576" lon="2.2812112300505123"><ele>608.0</ele><time>2026-04-05T10:08:37.745Z</time></trkpt><trkpt lat="43.01935808269657" lon="2.281098102608119"><ele>608.0</ele><time>2026-04-05T10:08:38.745Z</time></trkpt><trkpt lat="43.019348945160985" lon="2.280984401983534"><ele>608.0</ele><time>2026-04-05T10:08:39.745Z</time></trkpt><trkpt lat="43.019351318094856" lon="2.2808569645606744"><ele>608.0</ele><time>2026-04-05T10:08:40.745Z</time></trkpt><trkpt lat="43.019364352411145" lon="2.2807167868571656"><ele>605.8</ele><time>2026-04-05T10:08:41.745Z</time></trkpt><trkpt lat="43.01936773925847" lon="2.2805928267081557"><ele>603.5999999999999</ele><time>2026-04-05T10:08:42.745Z</time></trkpt><trkpt lat="43.01937831356073" lon="2.280476496933135"><ele>601.4000000000001</ele><time>2026-04-05T10:08:43.745Z</time></trkpt><trkpt lat="43.01938057531222" lon="2.2803445132221483"><ele>599.2</ele><time>2026-04-05T10:08:44.742Z</time></trkpt><trkpt lat="43.01938253893051" lon="2.280213211742223"><ele>597.0</ele><time>2026-04-05T10:08:45.742Z</time></trkpt><trkpt lat="43.019336783556724" lon="2.280096703007956"><ele>597.0</ele><time>2026-04-05T10:08:46.741Z</time></trkpt><trkpt lat="43.019331925624485" lon="2.2799631960392372"><ele>597.0</ele><time>2026-04-05T10:08:47.741Z</time></trkpt><trkpt lat="43.019326170011595" lon="2.2798272157924004"><ele>597.0</ele><time>2026-04-05T10:08:48.741Z</time></trkpt><trkpt lat="43.019316737661754" lon="2.2796658249372452"><ele>597.0</ele><time>2026-04-05T10:08:49.741Z</time></trkpt><trkpt lat="43.01930262960944" lon="2.2795039227982614"><ele>597.0</ele><time>2026-04-05T10:08:50.741Z</time></trkpt><trkpt lat="43.019288700965014" lon="2.2793590134700126"><ele>594.4</ele><time>2026-04-05T10:08:51.741Z</time></trkpt><trkpt lat="43.01927989735391" lon="2.279231275054225"><ele>591.8000000000001</ele><time>2026-04-05T10:08:52.741Z</time></trkpt><trkpt lat="43.019277761482" lon="2.279085504680087"><ele>589.2</ele><time>2026-04-05T10:08:53.741Z</time></trkpt><trkpt lat="43.01928385302093" lon="2.2789545451467164"><ele>586.6</ele><time>2026-04-05T10:08:54.741Z</time></trkpt><trkpt lat="43.01930051796066" lon="2.2788262266434085"><ele>584.0</ele><time>2026-04-05T10:08:55.741Z</time></trkpt><trkpt lat="43.019324890802956" lon="2.278699267747684"><ele>580.25</ele><time>2026-04-05T10:08:56.741Z</time></trkpt><trkpt lat="43.019432974874334" lon="2.278567446554148"><ele>576.5</ele><time>2026-04-05T10:08:57.741Z</time></trkpt><trkpt lat="43.01948952093593" lon="2.278413545884369"><ele>572.75</ele><time>2026-04-05T10:08:58.741Z</time></trkpt><trkpt lat="43.01953058323646" lon="2.2782803090176946"><ele>569.0</ele><time>2026-04-05T10:08:59.741Z</time></trkpt><trkpt lat="43.019511428848325" lon="2.278124906685539"><ele>565.0</ele><time>2026-04-05T10:09:00.741Z</time></trkpt><trkpt lat="43.019527889800145" lon="2.277995066299513"><ele>561.0</ele><time>2026-04-05T10:09:01.741Z</time></trkpt><trkpt lat="43.01953299811969" lon="2.277866585361036"><ele>557.0</ele><time>2026-04-05T10:09:02.741Z</time></trkpt><trkpt lat="43.019567088430584" lon="2.27772885847714"><ele>553.0</ele><time>2026-04-05T10:09:03.741Z</time></trkpt><trkpt lat="43.01952096757826" lon="2.277606793351194"><ele>549.0</ele><time>2026-04-05T10:09:04.741Z</time></trkpt><trkpt lat="43.01947943880534" lon="2.277486775954117"><ele>549.0</ele><time>2026-04-05T10:09:05.741Z</time></trkpt><trkpt lat="43.01944376626603" lon="2.277355577791643"><ele>549.0</ele><time>2026-04-05T10:09:06.741Z</time></trkpt><trkpt lat="43.01939612202932" lon="2.2772113584355727"><ele>549.0</ele><time>2026-04-05T10:09:07.741Z</time></trkpt><trkpt lat="43.01938258070111" lon="2.2770682625212797"><ele>549.0</ele><time>2026-04-05T10:09:08.741Z</time></trkpt><trkpt lat="43.01938079883775" lon="2.2769377973137575"><ele>549.0</ele><time>2026-04-05T10:09:09.741Z</time></trkpt><trkpt lat="43.01939706286181" lon="2.276781926126466"><ele>547.0</ele><time>2026-04-05T10:09:10.741Z</time></trkpt><trkpt lat="43.01942413249282" lon="2.2766486700249002"><ele>545.0</ele><time>2026-04-05T10:09:11.741Z</time></trkpt><trkpt lat="43.019442754502" lon="2.2765290623463375"><ele>543.0</ele><time>2026-04-05T10:09:12.74Z</time></trkpt><trkpt lat="43.019432844443806" lon="2.2764243269510938"><ele>541.0</ele><time>2026-04-05T10:09:13.74Z</time></trkpt><trkpt lat="43.01943244735756" lon="2.2763049050018345"><ele>539.0</ele><time>2026-04-05T10:09:14.74Z</time></trkpt><trkpt lat="43.019378721076485" lon="2.2761949564782102"><ele>534.0</ele><time>2026-04-05T10:09:15.74Z</time></trkpt><trkpt lat="43.01937642207506" lon="2.27600384743168"><ele>529.0</ele><time>2026-04-05T10:09:17.74Z</time></trkpt><trkpt lat="43.01940098249645" lon="2.2758536501053674"><ele>524.0</ele><time>2026-04-05T10:09:18.74Z</time></trkpt><trkpt lat="43.019456503183" lon="2.275688859888399"><ele>519.0</ele><time>2026-04-05T10:09:19.74Z</time></trkpt><trkpt lat="43.019510290775436" lon="2.2755643019101206"><ele>514.6</ele><time>2026-04-05T10:09:20.74Z</time></trkpt><trkpt lat="43.01956725876845" lon="2.275464025998731"><ele>510.2</ele><time>2026-04-05T10:09:21.74Z</time></trkpt><trkpt lat="43.0196260201176" lon="2.2753611198855066"><ele>505.80000000000007</ele><time>2026-04-05T10:09:22.74Z</time></trkpt><trkpt lat="43.01968776218669" lon="2.2752658692220473"><ele>501.40000000000003</ele><time>2026-04-05T10:09:23.74Z</time></trkpt><trkpt lat="43.01974995022347" lon="2.275170838435296"><ele>497.0</ele><time>2026-04-05T10:09:24.74Z</time></trkpt><trkpt lat="43.01980055252575" lon="2.2750765508475776"><ele>496.99999999999994</ele><time>2026-04-05T10:09:25.74Z</time></trkpt><trkpt lat="43.019855641992486" lon="2.2749587311341735"><ele>497.0</ele><time>2026-04-05T10:09:26.74Z</time></trkpt><trkpt lat="43.01991245254999" lon="2.27484098814933"><ele>497.0</ele><time>2026-04-05T10:09:27.74Z</time></trkpt><trkpt lat="43.01995167239427" lon="2.274761831216216"><ele>497.0</ele><time>2026-04-05T10:09:28.74Z</time></trkpt><trkpt lat="43.019998584681204" lon="2.2746753014200687"><ele>496.99999999999994</ele><time>2026-04-05T10:09:30.74Z</time></trkpt><trkpt lat="43.02006358618548" lon="2.274657111976792"><ele>497.0</ele><time>2026-04-05T10:09:33.74Z</time></trkpt><trkpt lat="43.02012117091463" lon="2.2747503933852515"><ele>497.99999999999994</ele><time>2026-04-05T10:09:35.74Z</time></trkpt><trkpt lat="43.02007032931717" lon="2.2748481839222072"><ele>499.0</ele><time>2026-04-05T10:09:36.74Z</time></trkpt><trkpt lat="43.02006650045589" lon="2.274945634697334"><ele>500.0</ele><time>2026-04-05T10:09:37.74Z</time></trkpt><trkpt lat="43.020059132058144" lon="2.275064740864676"><ele>501.0</ele><time>2026-04-05T10:09:38.74Z</time></trkpt><trkpt lat="43.02006133660287" lon="2.2752153277689917"><ele>501.99999999999994</ele><time>2026-04-05T10:09:39.74Z</time></trkpt><trkpt lat="43.020070951277546" lon="2.275323926840232"><ele>503.0</ele><time>2026-04-05T10:09:40.74Z</time></trkpt><trkpt lat="43.020081740278755" lon="2.2754457900809504"><ele>503.0</ele><time>2026-04-05T10:09:41.74Z</time></trkpt><trkpt lat="43.020092164448926" lon="2.275577065190235"><ele>502.99999999999994</ele><time>2026-04-05T10:09:42.74Z</time></trkpt><trkpt lat="43.02014201911778" lon="2.275700440816472"><ele>502.99999999999994</ele><time>2026-04-05T10:09:44.74Z</time></trkpt><trkpt lat="43.02022085567037" lon="2.2755808001637448"><ele>503.0</ele><time>2026-04-05T10:09:45.74Z</time></trkpt><trkpt lat="43.02025211827874" lon="2.2754840722087697"><ele>503.0</ele><time>2026-04-05T10:09:46.74Z</time></trkpt><trkpt lat="43.02029212471984" lon="2.2753695970077334"><ele>503.0</ele><time>2026-04-05T10:09:47.739Z</time></trkpt><trkpt lat="43.02033631127886" lon="2.2752454372072775"><ele>502.99999999999994</ele><time>2026-04-05T10:09:48.739Z</time></trkpt><trkpt lat="43.02037946476916" lon="2.2751250274079653"><ele>502.99999999999994</ele><time>2026-04-05T10:09:49.739Z</time></trkpt><trkpt lat="43.02041658517941" lon="2.274994407546054"><ele>503.0</ele><time>2026-04-05T10:09:50.739Z</time></trkpt><trkpt lat="43.020458280790585" lon="2.2748698124947695"><ele>503.0</ele><time>2026-04-05T10:09:51.739Z</time></trkpt><trkpt lat="43.02053587116814" lon="2.27476385687196"><ele>501.2</ele><time>2026-04-05T10:09:52.739Z</time></trkpt><trkpt lat="43.02059250480282" lon="2.2746538810935477"><ele>499.4</ele><time>2026-04-05T10:09:53.739Z</time></trkpt><trkpt lat="43.020656804405625" lon="2.2745324289255135"><ele>497.59999999999997</ele><time>2026-04-05T10:09:54.739Z</time></trkpt><trkpt lat="43.02071840240744" lon="2.2744273443180414"><ele>495.79999999999995</ele><time>2026-04-05T10:09:55.739Z</time></trkpt><trkpt lat="43.02076024168521" lon="2.274321330597671"><ele>494.0</ele><time>2026-04-05T10:09:56.739Z</time></trkpt><trkpt lat="43.02082895792353" lon="2.2742403432894034"><ele>487.79999999999995</ele><time>2026-04-05T10:09:57.739Z</time></trkpt><trkpt lat="43.02088132973684" lon="2.274151202445777"><ele>481.59999999999997</ele><time>2026-04-05T10:09:58.739Z</time></trkpt><trkpt lat="43.020975283907426" lon="2.2740951331317505"><ele>475.4</ele><time>2026-04-05T10:09:59.739Z</time></trkpt><trkpt lat="43.02103951655603" lon="2.2740109160469917"><ele>469.2</ele><time>2026-04-05T10:10:00.739Z</time></trkpt><trkpt lat="43.02110829141492" lon="2.2739028936780974"><ele>463.0</ele><time>2026-04-05T10:10:01.739Z</time></trkpt><trkpt lat="43.021177928663164" lon="2.2737834289434264"><ele>463.0</ele><time>2026-04-05T10:10:02.739Z</time></trkpt><trkpt lat="43.02124903285116" lon="2.273665278781533"><ele>462.99999999999994</ele><time>2026-04-05T10:10:03.739Z</time></trkpt><trkpt lat="43.021305789739564" lon="2.2735670098556042"><ele>462.99999999999994</ele><time>2026-04-05T10:10:04.739Z</time></trkpt><trkpt lat="43.02135054352775" lon="2.2735050236282293"><ele>463.0</ele><time>2026-04-05T10:10:06.739Z</time></trkpt><trkpt lat="43.0214448727684" lon="2.273478069371514"><ele>463.0</ele><time>2026-04-05T10:10:09.739Z</time></trkpt><trkpt lat="43.02152472918209" lon="2.2734273901014674"><ele>463.00000000000006</ele><time>2026-04-05T10:10:10.739Z</time></trkpt><trkpt lat="43.0215627980026" lon="2.273340042362467"><ele>463.0</ele><time>2026-04-05T10:10:11.739Z</time></trkpt><trkpt lat="43.021605933719776" lon="2.273227025355014"><ele>463.0</ele><time>2026-04-05T10:10:12.739Z</time></trkpt><trkpt lat="43.02162830385311" lon="2.2731244829169173"><ele>463.0</ele><time>2026-04-05T10:10:13.739Z</time></trkpt><trkpt lat="43.02165322947172" lon="2.2730291631328483"><ele>463.00000000000006</ele><time>2026-04-05T10:10:14.739Z</time></trkpt><trkpt lat="43.02168372130784" lon="2.272942494732785"><ele>463.0</ele><time>2026-04-05T10:10:15.739Z</time></trkpt><trkpt lat="43.02169871687548" lon="2.2728541722951117"><ele>454.2</ele><time>2026-04-05T10:10:16.739Z</time></trkpt><trkpt lat="43.02174608598832" lon="2.27278185304848"><ele>445.4</ele><time>2026-04-05T10:10:17.739Z</time></trkpt><trkpt lat="43.02178386995426" lon="2.2726485914522128"><ele>436.59999999999997</ele><time>2026-04-05T10:10:19.739Z</time></trkpt><trkpt lat="43.02180728355197" lon="2.2724965912745896"><ele>427.79999999999995</ele><time>2026-04-05T10:10:21.738Z</time></trkpt><trkpt lat="43.02179203338585" lon="2.272365876968701"><ele>419.0</ele><time>2026-04-05T10:10:23.738Z</time></trkpt><trkpt lat="43.021804845613495" lon="2.272236904550954"><ele>418.99999999999994</ele><time>2026-04-05T10:10:26.738Z</time></trkpt><trkpt lat="43.021856544355245" lon="2.2721716452917016"><ele>419.0</ele><time>2026-04-05T10:10:29.738Z</time></trkpt><trkpt lat="43.021817621814634" lon="2.272261812042036"><ele>419.0</ele><time>2026-04-05T10:12:32.88Z</time></trkpt><trkpt lat="43.02181222263793" lon="2.2723798324770907"><ele>419.0</ele><time>2026-04-05T10:12:34.88Z</time></trkpt><trkpt lat="43.021801202893876" lon="2.272490460005626"><ele>418.99999999999994</ele><time>2026-04-05T10:12:37.881Z</time></trkpt><trkpt lat="43.02178233801698" lon="2.272594732432501"><ele>419.0</ele><time>2026-04-05T10:12:39.881Z</time></trkpt><trkpt lat="43.02176361006995" lon="2.272677198121973"><ele>418.99999999999994</ele><time>2026-04-05T10:12:41.881Z</time></trkpt><trkpt lat="43.02171961822143" lon="2.272760824425633"><ele>419.0</ele><time>2026-04-05T10:12:43.881Z</time></trkpt><trkpt lat="43.021687678202966" lon="2.272854882707153"><ele>419.0</ele><time>2026-04-05T10:12:46.881Z</time></trkpt><trkpt lat="43.02167320538739" lon="2.272942279680634"><ele>419.0</ele><time>2026-04-05T10:12:48.881Z</time></trkpt><trkpt lat="43.02165874090272" lon="2.2730428963822025"><ele>418.99999999999994</ele><time>2026-04-05T10:12:54.881Z</time></trkpt><trkpt lat="43.02167639997521" lon="2.2732068422335647"><ele>419.0</ele><time>2026-04-05T10:12:56.877Z</time></trkpt><trkpt lat="43.02167375233903" lon="2.2733100330143383"><ele>427.79999999999995</ele><time>2026-04-05T10:12:57.877Z</time></trkpt><trkpt lat="43.02163215170512" lon="2.273421148057991"><ele>436.59999999999997</ele><time>2026-04-05T10:12:59.877Z</time></trkpt><trkpt lat="43.021600310878014" lon="2.273526385211742"><ele>445.4</ele><time>2026-04-05T10:13:01.876Z</time></trkpt><trkpt lat="43.02152575141664" lon="2.2736714929601467"><ele>454.2</ele><time>2026-04-05T10:13:03.876Z</time></trkpt><trkpt lat="43.0214773883376" lon="2.2737556373590273"><ele>463.0</ele><time>2026-04-05T10:13:04.876Z</time></trkpt><trkpt lat="43.021427324794814" lon="2.273863437761195"><ele>462.6666666666667</ele><time>2026-04-05T10:13:05.876Z</time></trkpt><trkpt lat="43.02137968889778" lon="2.2739605994932863"><ele>462.33333333333337</ele><time>2026-04-05T10:13:06.876Z</time></trkpt><trkpt lat="43.02133682102399" lon="2.2740252885707846"><ele>462.0</ele><time>2026-04-05T10:13:07.876Z</time></trkpt><trkpt lat="43.02128077418736" lon="2.2740826839529378"><ele>461.66666666666663</ele><time>2026-04-05T10:13:08.876Z</time></trkpt><trkpt lat="43.021236378293054" lon="2.274149048974301"><ele>461.3333333333333</ele><time>2026-04-05T10:13:10.876Z</time></trkpt><trkpt lat="43.02115136311314" lon="2.274256042605281"><ele>461.0</ele><time>2026-04-05T10:13:12.876Z</time></trkpt><trkpt lat="43.02107492935295" lon="2.2743471125326162"><ele>461.0</ele><time>2026-04-05T10:13:14.876Z</time></trkpt><trkpt lat="43.021064004975926" lon="2.27446664646097"><ele>461.0</ele><time>2026-04-05T10:13:17.876Z</time></trkpt><trkpt lat="43.02115763331701" lon="2.274517468934633"><ele>461.0</ele><time>2026-04-05T10:13:19.876Z</time></trkpt><trkpt lat="43.02124356640689" lon="2.274572858314358"><ele>461.0</ele><time>2026-04-05T10:13:21.876Z</time></trkpt><trkpt lat="43.021340781096875" lon="2.2746765440882664"><ele>461.0</ele><time>2026-04-05T10:13:23.876Z</time></trkpt><trkpt lat="43.02139698478382" lon="2.274729359636027"><ele>461.99999999999994</ele><time>2026-04-05T10:13:24.876Z</time></trkpt><trkpt lat="43.02145977467456" lon="2.274794904573001"><ele>463.0</ele><time>2026-04-05T10:13:25.876Z</time></trkpt><trkpt lat="43.02152454190092" lon="2.274839774248757"><ele>464.0</ele><time>2026-04-05T10:13:26.876Z</time></trkpt><trkpt lat="43.02158822332932" lon="2.2748876536181473"><ele>465.0</ele><time>2026-04-05T10:13:27.876Z</time></trkpt><trkpt lat="43.02169931573941" lon="2.2749638865220883"><ele>465.99999999999994</ele><time>2026-04-05T10:13:29.876Z</time></trkpt><trkpt lat="43.02175794771923" lon="2.2750115510625037"><ele>467.0</ele><time>2026-04-05T10:13:30.876Z</time></trkpt><trkpt lat="43.02186053121669" lon="2.275113681485982"><ele>464.40000000000003</ele><time>2026-04-05T10:13:32.876Z</time></trkpt><trkpt lat="43.02190594716856" lon="2.275260677213177"><ele>461.80000000000007</ele><time>2026-04-05T10:13:34.876Z</time></trkpt><trkpt lat="43.02192873026598" lon="2.275400037222049"><ele>459.2</ele><time>2026-04-05T10:13:36.876Z</time></trkpt><trkpt lat="43.02195920214723" lon="2.275554711825872"><ele>456.6</ele><time>2026-04-05T10:13:38.876Z</time></trkpt><trkpt lat="43.02196602757543" lon="2.2756509164480523"><ele>454.0</ele><time>2026-04-05T10:13:39.876Z</time></trkpt><trkpt lat="43.0219914185415" lon="2.275802153002045"><ele>454.0</ele><time>2026-04-05T10:13:41.876Z</time></trkpt><trkpt lat="43.02201618376593" lon="2.2759129220032723"><ele>454.0</ele><time>2026-04-05T10:13:43.876Z</time></trkpt><trkpt lat="43.02205540181313" lon="2.2760591832130066"><ele>454.0</ele><time>2026-04-05T10:13:45.876Z</time></trkpt><trkpt lat="43.02205552183416" lon="2.276151628712672"><ele>454.0</ele><time>2026-04-05T10:13:47.876Z</time></trkpt><trkpt lat="43.022084574090016" lon="2.27623059997971"><ele>454.0</ele><time>2026-04-05T10:13:49.876Z</time></trkpt><trkpt lat="43.0221473092408" lon="2.2763733550024066"><ele>454.33333333333337</ele><time>2026-04-05T10:13:55.876Z</time></trkpt><trkpt lat="43.02220268548943" lon="2.276450780660579"><ele>454.6666666666667</ele><time>2026-04-05T10:13:56.876Z</time></trkpt><trkpt lat="43.02225898747721" lon="2.276536803652417"><ele>455.0</ele><time>2026-04-05T10:13:57.876Z</time></trkpt><trkpt lat="43.02231333232216" lon="2.2766404204429476"><ele>455.33333333333337</ele><time>2026-04-05T10:13:58.876Z</time></trkpt><trkpt lat="43.02235499328398" lon="2.276753889167854"><ele>455.6666666666667</ele><time>2026-04-05T10:13:59.876Z</time></trkpt><trkpt lat="43.022407945820795" lon="2.2768499727032196"><ele>456.0</ele><time>2026-04-05T10:14:00.876Z</time></trkpt><trkpt lat="43.022452875345834" lon="2.27692767772822"><ele>449.8</ele><time>2026-04-05T10:14:01.876Z</time></trkpt><trkpt lat="43.02250482913548" lon="2.276999800095558"><ele>443.6</ele><time>2026-04-05T10:14:02.876Z</time></trkpt><trkpt lat="43.02260183366046" lon="2.2770663854797077"><ele>437.4</ele><time>2026-04-05T10:14:04.876Z</time></trkpt><trkpt lat="43.02271084022267" lon="2.2770085284859536"><ele>431.2</ele><time>2026-04-05T10:14:06.876Z</time></trkpt><trkpt lat="43.022833955635875" lon="2.276958350125885"><ele>425.0</ele><time>2026-04-05T10:14:08.876Z</time></trkpt><trkpt lat="43.02289681427924" lon="2.276927488719478"><ele>424.99999999999994</ele><time>2026-04-05T10:14:09.876Z</time></trkpt><trkpt lat="43.022941169595896" lon="2.2768657224833557"><ele>425.0</ele><time>2026-04-05T10:14:10.876Z</time></trkpt><trkpt lat="43.02297542174898" lon="2.2767283369785747"><ele>425.0</ele><time>2026-04-05T10:14:12.876Z</time></trkpt><trkpt lat="43.022950398074784" lon="2.2766474252958804"><ele>425.0</ele><time>2026-04-05T10:14:13.876Z</time></trkpt><trkpt lat="43.02291209500323" lon="2.2764931808594717"><ele>424.99999999999994</ele><time>2026-04-05T10:14:15.876Z</time></trkpt><trkpt lat="43.02292526594508" lon="2.276400188923664"><ele>425.0</ele><time>2026-04-05T10:14:16.876Z</time></trkpt><trkpt lat="43.022947103830354" lon="2.276295253940348"><ele>423.66666666666663</ele><time>2026-04-05T10:14:17.876Z</time></trkpt><trkpt lat="43.02297939110827" lon="2.2761943752851006"><ele>422.3333333333333</ele><time>2026-04-05T10:14:18.876Z</time></trkpt><trkpt lat="43.02299585807695" lon="2.2761042216019973"><ele>421.0</ele><time>2026-04-05T10:14:19.876Z</time></trkpt><trkpt lat="43.02302036892071" lon="2.2759943557564575"><ele>419.66666666666663</ele><time>2026-04-05T10:14:21.876Z</time></trkpt><trkpt lat="43.02310840965401" lon="2.275965755780338"><ele>418.3333333333333</ele><time>2026-04-05T10:14:23.876Z</time></trkpt><trkpt lat="43.02320017409168" lon="2.2759242905046264"><ele>417.0</ele><time>2026-04-05T10:14:25.876Z</time></trkpt><trkpt lat="43.02322421718853" lon="2.2757796013261204"><ele>417.0</ele><time>2026-04-05T10:14:27.876Z</time></trkpt><trkpt lat="43.023199571122426" lon="2.2756899588616353"><ele>417.0</ele><time>2026-04-05T10:14:28.876Z</time></trkpt><trkpt lat="43.023220415396935" lon="2.275534241573641"><ele>417.0</ele><time>2026-04-05T10:14:30.876Z</time></trkpt><trkpt lat="43.0232779618682" lon="2.2754782785624705"><ele>417.0</ele><time>2026-04-05T10:14:31.876Z</time></trkpt><trkpt lat="43.02335564345557" lon="2.2754578168872963"><ele>417.0</ele><time>2026-04-05T10:14:32.876Z</time></trkpt><trkpt lat="43.02344036438667" lon="2.275415854905086"><ele>417.0</ele><time>2026-04-05T10:14:33.876Z</time></trkpt><trkpt lat="43.02354420982035" lon="2.2753528379642893"><ele>411.0</ele><time>2026-04-05T10:14:34.876Z</time></trkpt><trkpt lat="43.02364315908263" lon="2.2752899857506046"><ele>405.0</ele><time>2026-04-05T10:14:35.876Z</time></trkpt><trkpt lat="43.02372282867006" lon="2.275238849950027"><ele>399.0</ele><time>2026-04-05T10:14:36.876Z</time></trkpt><trkpt lat="43.02380670313684" lon="2.2751943826886816"><ele>393.0</ele><time>2026-04-05T10:14:38.877Z</time></trkpt><trkpt lat="43.02384670700431" lon="2.275071616693512"><ele>387.0</ele><time>2026-04-05T10:14:42.877Z</time></trkpt><trkpt lat="43.0238429450638" lon="2.274974294832966"><ele>387.0</ele><time>2026-04-05T10:14:43.877Z</time></trkpt><trkpt lat="43.023811675161646" lon="2.274849085031748"><ele>387.0</ele><time>2026-04-05T10:14:44.877Z</time></trkpt><trkpt lat="43.023784467800766" lon="2.274704940715338"><ele>387.0</ele><time>2026-04-05T10:14:45.877Z</time></trkpt><trkpt lat="43.02374886807869" lon="2.2745410152309518"><ele>387.0</ele><time>2026-04-05T10:14:46.877Z</time></trkpt><trkpt lat="43.02369980626901" lon="2.274376484537394"><ele>384.3333333333333</ele><time>2026-04-05T10:14:47.877Z</time></trkpt><trkpt lat="43.02363608017721" lon="2.2741844133335802"><ele>381.66666666666663</ele><time>2026-04-05T10:14:48.877Z</time></trkpt><trkpt lat="43.023568603251604" lon="2.2739809262071278"><ele>379.0</ele><time>2026-04-05T10:14:49.877Z</time></trkpt><trkpt lat="43.023500647929076" lon="2.273796559605587"><ele>377.0</ele><time>2026-04-05T10:14:50.877Z</time></trkpt><trkpt lat="43.023434296684655" lon="2.2736308655862763"><ele>375.0</ele><time>2026-04-05T10:14:51.877Z</time></trkpt><trkpt lat="43.02337358401526" lon="2.2734787545533774"><ele>373.0</ele><time>2026-04-05T10:14:52.877Z</time></trkpt><trkpt lat="43.02333109595382" lon="2.2733505341757985"><ele>371.0</ele><time>2026-04-05T10:14:53.877Z</time></trkpt><trkpt lat="43.02331253259018" lon="2.2732312342341614"><ele>371.0</ele><time>2026-04-05T10:14:54.877Z</time></trkpt><trkpt lat="43.023339373587255" lon="2.273108216430724"><ele>371.0</ele><time>2026-04-05T10:14:55.877Z</time></trkpt><trkpt lat="43.02335614854089" lon="2.2729586710328693"><ele>371.0</ele><time>2026-04-05T10:14:56.877Z</time></trkpt><trkpt lat="43.02338813634924" lon="2.27281046197337"><ele>371.0</ele><time>2026-04-05T10:14:57.877Z</time></trkpt><trkpt lat="43.0233880569896" lon="2.2726816864622097"><ele>371.0</ele><time>2026-04-05T10:14:58.877Z</time></trkpt><trkpt lat="43.023367397062685" lon="2.272543422557403"><ele>370.5</ele><time>2026-04-05T10:14:59.877Z</time></trkpt><trkpt lat="43.023337931359876" lon="2.272389067125624"><ele>370.0</ele><time>2026-04-05T10:15:00.877Z</time></trkpt><trkpt lat="43.02330939482462" lon="2.2722292176767835"><ele>369.5</ele><time>2026-04-05T10:15:01.877Z</time></trkpt><trkpt lat="43.023277830259104" lon="2.272062036374507"><ele>369.0</ele><time>2026-04-05T10:15:02.873Z</time></trkpt><trkpt lat="43.02325336165827" lon="2.2718978011144033"><ele>371.2</ele><time>2026-04-05T10:15:03.872Z</time></trkpt><trkpt lat="43.023227738138395" lon="2.2717359725248296"><ele>373.4</ele><time>2026-04-05T10:15:04.872Z</time></trkpt><trkpt lat="43.023205695998605" lon="2.2715754947042495"><ele>375.6</ele><time>2026-04-05T10:15:05.872Z</time></trkpt><trkpt lat="43.02318520271319" lon="2.2714247337091638"><ele>377.8</ele><time>2026-04-05T10:15:06.872Z</time></trkpt><trkpt lat="43.02316895679538" lon="2.2712953314050597"><ele>380.0</ele><time>2026-04-05T10:15:07.872Z</time></trkpt><trkpt lat="43.02315455083476" lon="2.2711805802584255"><ele>380.0</ele><time>2026-04-05T10:15:08.872Z</time></trkpt><trkpt lat="43.02313889551294" lon="2.27107904291955"><ele>380.0</ele><time>2026-04-05T10:15:09.872Z</time></trkpt><trkpt lat="43.02309786227868" lon="2.270949832334009"><ele>380.0</ele><time>2026-04-05T10:15:11.872Z</time></trkpt><trkpt lat="43.02301321943119" lon="2.270893965231034"><ele>380.0</ele><time>2026-04-05T10:15:13.872Z</time></trkpt><trkpt lat="43.02290667871623" lon="2.2708397050950873"><ele>380.0</ele><time>2026-04-05T10:15:15.872Z</time></trkpt><trkpt lat="43.02278680266427" lon="2.2707680473304968"><ele>380.0</ele><time>2026-04-05T10:15:17.872Z</time></trkpt><trkpt lat="43.02271960992219" lon="2.270696148864584"><ele>380.0</ele><time>2026-04-05T10:15:18.872Z</time></trkpt><trkpt lat="43.02265055197666" lon="2.270585248947807"><ele>380.0</ele><time>2026-04-05T10:15:19.872Z</time></trkpt><trkpt lat="43.02258407254564" lon="2.270467437845671"><ele>380.0</ele><time>2026-04-05T10:15:20.872Z</time></trkpt><trkpt lat="43.022513107644244" lon="2.2703316607608373"><ele>380.0</ele><time>2026-04-05T10:15:21.872Z</time></trkpt><trkpt lat="43.0224487167227" lon="2.2701977518794587"><ele>378.2</ele><time>2026-04-05T10:15:22.872Z</time></trkpt><trkpt lat="43.02238089748283" lon="2.270098187696955"><ele>376.4</ele><time>2026-04-05T10:15:23.872Z</time></trkpt><trkpt lat="43.02229655855717" lon="2.2700259655202926"><ele>374.6</ele><time>2026-04-05T10:15:24.872Z</time></trkpt><trkpt lat="43.022193852325756" lon="2.269961670687269"><ele>372.8</ele><time>2026-04-05T10:15:25.872Z</time></trkpt><trkpt lat="43.02206125056601" lon="2.269922444931675"><ele>371.0</ele><time>2026-04-05T10:15:26.872Z</time></trkpt><trkpt lat="43.02193782822478" lon="2.2699336278303304"><ele>371.0</ele><time>2026-04-05T10:15:27.872Z</time></trkpt><trkpt lat="43.02181678292431" lon="2.2698897328169996"><ele>371.0</ele><time>2026-04-05T10:15:28.872Z</time></trkpt><trkpt lat="43.02170906819753" lon="2.269800273278989"><ele>371.0</ele><time>2026-04-05T10:15:29.872Z</time></trkpt><trkpt lat="43.02159898189491" lon="2.269716182536211"><ele>371.0</ele><time>2026-04-05T10:15:30.872Z</time></trkpt><trkpt lat="43.02149026452203" lon="2.269635532750938"><ele>368.25</ele><time>2026-04-05T10:15:31.872Z</time></trkpt><trkpt lat="43.02138942855018" lon="2.269564738527879"><ele>365.5</ele><time>2026-04-05T10:15:32.872Z</time></trkpt><trkpt lat="43.021279722272084" lon="2.2695317535369797"><ele>362.75</ele><time>2026-04-05T10:15:33.872Z</time></trkpt><trkpt lat="43.02115941477319" lon="2.2695268886908475"><ele>360.0</ele><time>2026-04-05T10:15:34.872Z</time></trkpt><trkpt lat="43.02103830894443" lon="2.2695286870125253"><ele>360.0</ele><time>2026-04-05T10:15:35.872Z</time></trkpt><trkpt lat="43.020913230619925" lon="2.2695301502416725"><ele>360.0</ele><time>2026-04-05T10:15:36.872Z</time></trkpt><trkpt lat="43.02079137337606" lon="2.2695767061559167"><ele>360.0</ele><time>2026-04-05T10:15:37.872Z</time></trkpt><trkpt lat="43.02067710508265" lon="2.26964463874803"><ele>360.0</ele><time>2026-04-05T10:15:38.872Z</time></trkpt><trkpt lat="43.020574954076075" lon="2.269701198239429"><ele>366.0</ele><time>2026-04-05T10:15:39.872Z</time></trkpt><trkpt lat="43.02047997362577" lon="2.269724525015953"><ele>372.0</ele><time>2026-04-05T10:15:40.872Z</time></trkpt><trkpt lat="43.020401658845515" lon="2.2696875044820755"><ele>378.0</ele><time>2026-04-05T10:15:41.872Z</time></trkpt><trkpt lat="43.02034839112379" lon="2.2696253720392554"><ele>384.0</ele><time>2026-04-05T10:15:42.872Z</time></trkpt><trkpt lat="43.02032439745633" lon="2.2694963685612644"><ele>390.0</ele><time>2026-04-05T10:15:44.872Z</time></trkpt><trkpt lat="43.02040318695726" lon="2.2693780365977614"><ele>390.0</ele><time>2026-04-05T10:15:46.872Z</time></trkpt><trkpt lat="43.02048239316235" lon="2.269283512440979"><ele>390.0</ele><time>2026-04-05T10:15:47.872Z</time></trkpt><trkpt lat="43.02059292693454" lon="2.2691832301573696"><ele>390.0</ele><time>2026-04-05T10:15:48.872Z</time></trkpt><trkpt lat="43.02073280932304" lon="2.269077782999838"><ele>390.0</ele><time>2026-04-05T10:15:49.872Z</time></trkpt><trkpt lat="43.02086619240811" lon="2.268943541748403"><ele>383.6666666666667</ele><time>2026-04-05T10:15:50.872Z</time></trkpt><trkpt lat="43.02101556371302" lon="2.2688498354213507"><ele>377.33333333333337</ele><time>2026-04-05T10:15:51.872Z</time></trkpt><trkpt lat="43.02117423083744" lon="2.2687917339742305"><ele>371.0</ele><time>2026-04-05T10:15:52.872Z</time></trkpt><trkpt lat="43.021338671938295" lon="2.268730425265472"><ele>371.0</ele><time>2026-04-05T10:15:53.872Z</time></trkpt><trkpt lat="43.02150083891471" lon="2.268685073238311"><ele>371.0</ele><time>2026-04-05T10:15:54.872Z</time></trkpt><trkpt lat="43.021690362725046" lon="2.268632609352463"><ele>371.0</ele><time>2026-04-05T10:15:55.872Z</time></trkpt><trkpt lat="43.021861845270365" lon="2.2685779282867586"><ele>364.0</ele><time>2026-04-05T10:15:56.872Z</time></trkpt><trkpt lat="43.02201369961966" lon="2.268501283201463"><ele>357.0</ele><time>2026-04-05T10:15:57.872Z</time></trkpt><trkpt lat="43.02213911142741" lon="2.268402355381307"><ele>350.0</ele><time>2026-04-05T10:15:58.872Z</time></trkpt><trkpt lat="43.022245442610156" lon="2.2682541637391886"><ele>347.6666666666667</ele><time>2026-04-05T10:15:59.872Z</time></trkpt><trkpt lat="43.022344017249765" lon="2.2681064054359688"><ele>345.3333333333333</ele><time>2026-04-05T10:16:00.872Z</time></trkpt><trkpt lat="43.0224425592275" lon="2.2679130323154313"><ele>343.0</ele><time>2026-04-05T10:16:02.872Z</time></trkpt><trkpt lat="43.02254636242784" lon="2.2677497225869723"><ele>343.0</ele><time>2026-04-05T10:16:03.872Z</time></trkpt><trkpt lat="43.022646950051026" lon="2.26760791649468"><ele>343.0</ele><time>2026-04-05T10:16:04.872Z</time></trkpt><trkpt lat="43.022724070391185" lon="2.26749492652379"><ele>343.0</ele><time>2026-04-05T10:16:05.872Z</time></trkpt><trkpt lat="43.022777372975334" lon="2.267422406922613"><ele>343.0</ele><time>2026-04-05T10:16:06.872Z</time></trkpt><trkpt lat="43.02286093167137" lon="2.267357865505982"><ele>343.0</ele><time>2026-04-05T10:16:08.872Z</time></trkpt><trkpt lat="43.02275945939559" lon="2.2674180066887937"><ele>343.0</ele><time>2026-04-05T10:16:12.872Z</time></trkpt><trkpt lat="43.022718112911576" lon="2.2674992739394395"><ele>343.0</ele><time>2026-04-05T10:16:13.872Z</time></trkpt><trkpt lat="43.022642839535244" lon="2.2675870889049645"><ele>343.0</ele><time>2026-04-05T10:16:14.872Z</time></trkpt><trkpt lat="43.02254417703808" lon="2.2677232508246075"><ele>343.0</ele><time>2026-04-05T10:16:15.872Z</time></trkpt><trkpt lat="43.02247014772604" lon="2.267859117255866"><ele>343.0</ele><time>2026-04-05T10:16:16.872Z</time></trkpt><trkpt lat="43.022411691924795" lon="2.26792758540945"><ele>344.4</ele><time>2026-04-05T10:16:17.872Z</time></trkpt><trkpt lat="43.02227554975258" lon="2.2679149617380134"><ele>345.79999999999995</ele><time>2026-04-05T10:16:19.872Z</time></trkpt><trkpt lat="43.022209707957444" lon="2.2679689971663812"><ele>347.2</ele><time>2026-04-05T10:16:20.872Z</time></trkpt><trkpt lat="43.02215497639737" lon="2.268094534840761"><ele>348.6</ele><time>2026-04-05T10:16:21.872Z</time></trkpt><trkpt lat="43.0221035885981" lon="2.268155073807452"><ele>350.0</ele><time>2026-04-05T10:16:22.872Z</time></trkpt><trkpt lat="43.02201804463219" lon="2.2680747713389864"><ele>352.2</ele><time>2026-04-05T10:16:24.872Z</time></trkpt><trkpt lat="43.022009143840144" lon="2.2679666855164102"><ele>354.4</ele><time>2026-04-05T10:16:25.872Z</time></trkpt><trkpt lat="43.02203248327337" lon="2.267818826292404"><ele>356.6</ele><time>2026-04-05T10:16:26.872Z</time></trkpt><trkpt lat="43.02202430830866" lon="2.2676422263608993"><ele>358.8</ele><time>2026-04-05T10:16:27.872Z</time></trkpt><trkpt lat="43.0220459286235" lon="2.2674668831250413"><ele>361.0</ele><time>2026-04-05T10:16:28.872Z</time></trkpt><trkpt lat="43.02203031982427" lon="2.2673271394412424"><ele>362.25</ele><time>2026-04-05T10:16:29.872Z</time></trkpt><trkpt lat="43.0220325087141" lon="2.26719885248473"><ele>363.5</ele><time>2026-04-05T10:16:30.872Z</time></trkpt><trkpt lat="43.02197053713716" lon="2.2670726022964494"><ele>364.75</ele><time>2026-04-05T10:16:31.872Z</time></trkpt><trkpt lat="43.02189024850079" lon="2.2669463127116196"><ele>366.0</ele><time>2026-04-05T10:16:32.872Z</time></trkpt><trkpt lat="43.02177527380938" lon="2.2668569375071996"><ele>366.0</ele><time>2026-04-05T10:16:33.872Z</time></trkpt><trkpt lat="43.02170890340028" lon="2.2667825827169463"><ele>366.0</ele><time>2026-04-05T10:16:34.872Z</time></trkpt><trkpt lat="43.021627864961175" lon="2.2669171712981533"><ele>366.0</ele><time>2026-04-05T10:16:39.872Z</time></trkpt><trkpt lat="43.021591999412465" lon="2.26704012561244"><ele>366.0</ele><time>2026-04-05T10:16:40.872Z</time></trkpt><trkpt lat="43.02155991670447" lon="2.2671595018796697"><ele>366.0</ele><time>2026-04-05T10:16:41.872Z</time></trkpt><trkpt lat="43.02153730707995" lon="2.26727245564913"><ele>370.0</ele><time>2026-04-05T10:16:42.872Z</time></trkpt><trkpt lat="43.02150709717991" lon="2.267360480907361"><ele>374.0</ele><time>2026-04-05T10:16:43.872Z</time></trkpt><trkpt lat="43.0214234287827" lon="2.2674453432324433"><ele>378.0</ele><time>2026-04-05T10:16:45.872Z</time></trkpt><trkpt lat="43.021279220999695" lon="2.2674769049597194"><ele>382.0</ele><time>2026-04-05T10:16:47.872Z</time></trkpt><trkpt lat="43.021206014596416" lon="2.2674949667838287"><ele>386.0</ele><time>2026-04-05T10:16:48.872Z</time></trkpt><trkpt lat="43.02114140651619" lon="2.267518252528537"><ele>386.0</ele><time>2026-04-05T10:16:49.872Z</time></trkpt><trkpt lat="43.02100286489524" lon="2.2674830339471876"><ele>386.0</ele><time>2026-04-05T10:16:51.872Z</time></trkpt><trkpt lat="43.02091690605512" lon="2.2674933285176015"><ele>386.0</ele><time>2026-04-05T10:16:52.872Z</time></trkpt><trkpt lat="43.020846058059824" lon="2.26750968162487"><ele>386.0</ele><time>2026-04-05T10:16:53.872Z</time></trkpt><trkpt lat="43.02076933151801" lon="2.2675152073503795"><ele>386.0</ele><time>2026-04-05T10:16:54.872Z</time></trkpt><trkpt lat="43.02069343296695" lon="2.2675931747730926"><ele>392.0</ele><time>2026-04-05T10:16:56.872Z</time></trkpt><trkpt lat="43.02062908496361" lon="2.2675110039486372"><ele>398.0</ele><time>2026-04-05T10:16:59.872Z</time></trkpt><trkpt lat="43.020591879529064" lon="2.267393041660673"><ele>404.0</ele><time>2026-04-05T10:17:01.872Z</time></trkpt><trkpt lat="43.02059698773442" lon="2.267232976919561"><ele>410.0</ele><time>2026-04-05T10:17:03.872Z</time></trkpt><trkpt lat="43.02062918907501" lon="2.2670828931348037"><ele>416.0</ele><time>2026-04-05T10:17:05.873Z</time></trkpt><trkpt lat="43.020629107115624" lon="2.2669942575040936"><ele>416.0</ele><time>2026-04-05T10:17:07.873Z</time></trkpt><trkpt lat="43.02058919429764" lon="2.2670791174047022"><ele>416.0</ele><time>2026-04-05T10:17:18.868Z</time></trkpt><trkpt lat="43.02058164191166" lon="2.2671934078701295"><ele>416.0</ele><time>2026-04-05T10:17:19.868Z</time></trkpt><trkpt lat="43.02057469195323" lon="2.267290203890693"><ele>416.0</ele><time>2026-04-05T10:17:20.867Z</time></trkpt><trkpt lat="43.0205945493187" lon="2.2673865182739514"><ele>416.0</ele><time>2026-04-05T10:17:21.868Z</time></trkpt><trkpt lat="43.020633024917686" lon="2.267466348740212"><ele>416.0</ele><time>2026-04-05T10:17:22.868Z</time></trkpt><trkpt lat="43.02068138705748" lon="2.26753602092925"><ele>416.0</ele><time>2026-04-05T10:17:23.868Z</time></trkpt><trkpt lat="43.02056467581882" lon="2.2676163622513186"><ele>416.0</ele><time>2026-04-05T10:17:28.868Z</time></trkpt><trkpt lat="43.02045878591523" lon="2.2676030916139576"><ele>416.0</ele><time>2026-04-05T10:17:30.868Z</time></trkpt><trkpt lat="43.0203780460749" lon="2.2676543731059744"><ele>416.0</ele><time>2026-04-05T10:17:32.868Z</time></trkpt><trkpt lat="43.02030139100459" lon="2.2677400228159432"><ele>416.0</ele><time>2026-04-05T10:17:34.868Z</time></trkpt><trkpt lat="43.02024418676467" lon="2.267863053611831"><ele>416.0</ele><time>2026-04-05T10:17:36.868Z</time></trkpt><trkpt lat="43.02020152875776" lon="2.267986476435864"><ele>416.0</ele><time>2026-04-05T10:17:39.868Z</time></trkpt><trkpt lat="43.02016719588515" lon="2.2681073965960987"><ele>416.0</ele><time>2026-04-05T10:17:41.868Z</time></trkpt><trkpt lat="43.02013084590318" lon="2.2682107527212314"><ele>416.0</ele><time>2026-04-05T10:17:43.868Z</time></trkpt><trkpt lat="43.020084079987186" lon="2.268346980870302"><ele>416.0</ele><time>2026-04-05T10:17:45.868Z</time></trkpt><trkpt lat="43.02003191836372" lon="2.2684092311456916"><ele>416.0</ele><time>2026-04-05T10:17:46.868Z</time></trkpt><trkpt lat="43.01994046375191" lon="2.2685030358973606"><ele>420.3333333333333</ele><time>2026-04-05T10:17:48.868Z</time></trkpt><trkpt lat="43.01986436175292" lon="2.2686135156168477"><ele>424.66666666666663</ele><time>2026-04-05T10:17:50.868Z</time></trkpt><trkpt lat="43.019782204421304" lon="2.268736963919374"><ele>429.0</ele><time>2026-04-05T10:17:52.868Z</time></trkpt><trkpt lat="43.01973021201343" lon="2.2687999703536543"><ele>433.33333333333337</ele><time>2026-04-05T10:17:53.868Z</time></trkpt><trkpt lat="43.01968673240441" lon="2.2688640413106187"><ele>437.6666666666667</ele><time>2026-04-05T10:17:54.868Z</time></trkpt><trkpt lat="43.019638523194175" lon="2.2689384861914594"><ele>442.0</ele><time>2026-04-05T10:17:55.868Z</time></trkpt><trkpt lat="43.019595591125515" lon="2.2690167387630256"><ele>442.00000000000006</ele><time>2026-04-05T10:17:56.868Z</time></trkpt><trkpt lat="43.019552989202445" lon="2.269100401881907"><ele>442.0</ele><time>2026-04-05T10:17:57.868Z</time></trkpt><trkpt lat="43.01947346370316" lon="2.269221900836936"><ele>442.0</ele><time>2026-04-05T10:17:59.868Z</time></trkpt><trkpt lat="43.01942443630423" lon="2.269304663246858"><ele>442.0</ele><time>2026-04-05T10:18:00.868Z</time></trkpt><trkpt lat="43.01937484094803" lon="2.269369964125094"><ele>442.00000000000006</ele><time>2026-04-05T10:18:01.868Z</time></trkpt><trkpt lat="43.01931958544242" lon="2.269472510390765"><ele>442.0</ele><time>2026-04-05T10:18:03.868Z</time></trkpt><trkpt lat="43.01924483500144" lon="2.2695663364471828"><ele>442.00000000000006</ele><time>2026-04-05T10:18:05.868Z</time></trkpt><trkpt lat="43.01919273555393" lon="2.269624982270199"><ele>442.0</ele><time>2026-04-05T10:18:06.868Z</time></trkpt><trkpt lat="43.019132547795564" lon="2.2696888524357606"><ele>442.0</ele><time>2026-04-05T10:18:08.868Z</time></trkpt><trkpt lat="43.019069075911055" lon="2.269769646150288"><ele>442.0</ele><time>2026-04-05T10:18:11.868Z</time></trkpt><trkpt lat="43.01901633511407" lon="2.2698321511612947"><ele>442.00000000000006</ele><time>2026-04-05T10:18:13.868Z</time></trkpt><trkpt lat="43.018934857823595" lon="2.269926612843618"><ele>442.0</ele><time>2026-04-05T10:18:16.868Z</time></trkpt><trkpt lat="43.01886014438821" lon="2.2699809053090854"><ele>444.83333333333337</ele><time>2026-04-05T10:18:18.868Z</time></trkpt><trkpt lat="43.01877631628442" lon="2.2700479537077047"><ele>447.6666666666667</ele><time>2026-04-05T10:18:20.868Z</time></trkpt><trkpt lat="43.01872677959254" lon="2.2701021897919986"><ele>450.5</ele><time>2026-04-05T10:18:21.868Z</time></trkpt><trkpt lat="43.018642408796275" lon="2.2701522076032776"><ele>453.33333333333337</ele><time>2026-04-05T10:18:23.868Z</time></trkpt><trkpt lat="43.01857593548706" lon="2.2702441959806325"><ele>456.1666666666667</ele><time>2026-04-05T10:18:26.868Z</time></trkpt><trkpt lat="43.01853572353451" lon="2.2701429939062794"><ele>459.0</ele><time>2026-04-05T10:18:31.868Z</time></trkpt><trkpt lat="43.018442237950616" lon="2.2701926515496633"><ele>459.0</ele><time>2026-04-05T10:18:33.868Z</time></trkpt><trkpt lat="43.018389607885524" lon="2.270261486021367"><ele>459.0</ele><time>2026-04-05T10:18:35.868Z</time></trkpt><trkpt lat="43.01833123042221" lon="2.270320720325679"><ele>459.0</ele><time>2026-04-05T10:18:37.868Z</time></trkpt><trkpt lat="43.01827290076074" lon="2.270362206374244"><ele>459.0</ele><time>2026-04-05T10:18:38.868Z</time></trkpt><trkpt lat="43.018218036918874" lon="2.270441848837974"><ele>459.0</ele><time>2026-04-05T10:18:39.868Z</time></trkpt><trkpt lat="43.01817307002634" lon="2.2705334806705655"><ele>459.0</ele><time>2026-04-05T10:18:41.868Z</time></trkpt><trkpt lat="43.0180922134708" lon="2.270570028879536"><ele>462.0</ele><time>2026-04-05T10:18:43.868Z</time></trkpt><trkpt lat="43.01800158147496" lon="2.270651240587521"><ele>465.0</ele><time>2026-04-05T10:18:45.868Z</time></trkpt><trkpt lat="43.017917088295896" lon="2.2707452446124172"><ele>468.0</ele><time>2026-04-05T10:18:47.868Z</time></trkpt><trkpt lat="43.01777672704871" lon="2.2708548858862168"><ele>471.0</ele><time>2026-04-05T10:18:49.868Z</time></trkpt><trkpt lat="43.01770965525845" lon="2.2709190694627583"><ele>471.0</ele><time>2026-04-05T10:18:50.868Z</time></trkpt><trkpt lat="43.01765970738311" lon="2.2709851295388233"><ele>471.0</ele><time>2026-04-05T10:18:51.868Z</time></trkpt><trkpt lat="43.01759526247591" lon="2.271057560126644"><ele>471.0</ele><time>2026-04-05T10:18:52.868Z</time></trkpt><trkpt lat="43.01756417136671" lon="2.2709558167058734"><ele>471.0</ele><time>2026-04-05T10:18:57.868Z</time></trkpt><trkpt lat="43.0176040925248" lon="2.2708194336384917"><ele>471.0</ele><time>2026-04-05T10:18:59.868Z</time></trkpt><trkpt lat="43.01762006818194" lon="2.2707151792881652"><ele>471.0</ele><time>2026-04-05T10:19:01.868Z</time></trkpt><trkpt lat="43.0175662537202" lon="2.2707956842767687"><ele>471.0</ele><time>2026-04-05T10:19:07.869Z</time></trkpt><trkpt lat="43.01750720290199" lon="2.270765162964712"><ele>471.0</ele><time>2026-04-05T10:19:13.869Z</time></trkpt><trkpt lat="43.0174461364972" lon="2.2707228153516676"><ele>471.0</ele><time>2026-04-05T10:19:17.864Z</time></trkpt><trkpt lat="43.01736422862428" lon="2.2707316373684456"><ele>471.0</ele><time>2026-04-05T10:19:19.863Z</time></trkpt><trkpt lat="43.017268778043764" lon="2.2708420015135067"><ele>471.0</ele><time>2026-04-05T10:19:21.864Z</time></trkpt><trkpt lat="43.01722123239196" lon="2.27092390783439"><ele>471.0</ele><time>2026-04-05T10:19:24.863Z</time></trkpt><trkpt lat="43.01715434317372" lon="2.27100252382538"><ele>471.0</ele><time>2026-04-05T10:19:26.863Z</time></trkpt><trkpt lat="43.0170782650179" lon="2.2710720037111365"><ele>471.0</ele><time>2026-04-05T10:19:27.863Z</time></trkpt><trkpt lat="43.01696938982342" lon="2.2711143700363676"><ele>471.0</ele><time>2026-04-05T10:19:28.863Z</time></trkpt><trkpt lat="43.01688094527472" lon="2.2711306942923333"><ele>471.0</ele><time>2026-04-05T10:19:29.863Z</time></trkpt><trkpt lat="43.01679309533736" lon="2.2711401803944162"><ele>471.0</ele><time>2026-04-05T10:19:30.863Z</time></trkpt><trkpt lat="43.01664205123324" lon="2.271144488792532"><ele>471.0</ele><time>2026-04-05T10:19:31.863Z</time></trkpt><trkpt lat="43.01653422953564" lon="2.271182852993722"><ele>471.0</ele><time>2026-04-05T10:19:32.863Z</time></trkpt><trkpt lat="43.01643218074854" lon="2.271195740187486"><ele>471.0</ele><time>2026-04-05T10:19:33.863Z</time></trkpt><trkpt lat="43.016346641524734" lon="2.271246372795567"><ele>471.0</ele><time>2026-04-05T10:19:34.863Z</time></trkpt><trkpt lat="43.016263125713195" lon="2.2713408899742205"><ele>471.0</ele><time>2026-04-05T10:19:36.863Z</time></trkpt><trkpt lat="43.01626595511108" lon="2.271442060327649"><ele>477.20000000000005</ele><time>2026-04-05T10:19:38.863Z</time></trkpt><trkpt lat="43.01627146752296" lon="2.2715902418238034"><ele>483.40000000000003</ele><time>2026-04-05T10:19:40.863Z</time></trkpt><trkpt lat="43.016254575398534" lon="2.2717239538146106"><ele>489.6</ele><time>2026-04-05T10:19:42.863Z</time></trkpt><trkpt lat="43.01621251385779" lon="2.2718068924206074"><ele>495.8</ele><time>2026-04-05T10:19:43.863Z</time></trkpt><trkpt lat="43.01616621008101" lon="2.2719130168927264"><ele>502.0</ele><time>2026-04-05T10:19:44.863Z</time></trkpt><trkpt lat="43.01611937121458" lon="2.2720729551389214"><ele>502.00000000000006</ele><time>2026-04-05T10:19:45.863Z</time></trkpt><trkpt lat="43.016098071816835" lon="2.272197104486396"><ele>502.0</ele><time>2026-04-05T10:19:46.863Z</time></trkpt><trkpt lat="43.01601353646486" lon="2.2722568527903917"><ele>502.0</ele><time>2026-04-05T10:19:48.863Z</time></trkpt><trkpt lat="43.01608633492395" lon="2.272184994560104"><ele>502.0</ele><time>2026-04-05T10:20:12.863Z</time></trkpt><trkpt lat="43.01612877550512" lon="2.272094787586438"><ele>502.00000000000006</ele><time>2026-04-05T10:20:13.863Z</time></trkpt><trkpt lat="43.01614577767454" lon="2.271985229728681"><ele>502.0</ele><time>2026-04-05T10:20:15.863Z</time></trkpt><trkpt lat="43.01618105665718" lon="2.2719034062884296"><ele>502.00000000000006</ele><time>2026-04-05T10:20:17.863Z</time></trkpt><trkpt lat="43.016208843268" lon="2.271808621466501"><ele>502.0</ele><time>2026-04-05T10:20:19.863Z</time></trkpt><trkpt lat="43.01622321123805" lon="2.27169684709839"><ele>502.0</ele><time>2026-04-05T10:20:21.863Z</time></trkpt><trkpt lat="43.01622544852601" lon="2.2715767400582054"><ele>502.0</ele><time>2026-04-05T10:20:23.863Z</time></trkpt><trkpt lat="43.01622021388129" lon="2.2714637614776105"><ele>502.00000000000006</ele><time>2026-04-05T10:20:25.863Z</time></trkpt><trkpt lat="43.016277579942745" lon="2.271406973074654"><ele>502.0</ele><time>2026-04-05T10:20:28.863Z</time></trkpt><trkpt lat="43.01635555247361" lon="2.2713486088976365"><ele>498.6666666666667</ele><time>2026-04-05T10:20:30.863Z</time></trkpt><trkpt lat="43.01644834277767" lon="2.2712806445824425"><ele>495.33333333333337</ele><time>2026-04-05T10:20:32.863Z</time></trkpt><trkpt lat="43.0165396886811" lon="2.2712448793520124"><ele>492.0</ele><time>2026-04-05T10:20:35.863Z</time></trkpt><trkpt lat="43.016603869475695" lon="2.2712126264868653"><ele>488.66666666666663</ele><time>2026-04-05T10:20:37.863Z</time></trkpt><trkpt lat="43.016666977923684" lon="2.271228133593268"><ele>485.3333333333333</ele><time>2026-04-05T10:20:39.863Z</time></trkpt><trkpt lat="43.01672957165741" lon="2.27120887139317"><ele>482.0</ele><time>2026-04-05T10:20:41.863Z</time></trkpt><trkpt lat="43.016821333816225" lon="2.271179534177241"><ele>481.99999999999994</ele><time>2026-04-05T10:20:43.863Z</time></trkpt><trkpt lat="43.01690693303655" lon="2.2711268587499407"><ele>482.0</ele><time>2026-04-05T10:20:45.863Z</time></trkpt><trkpt lat="43.01691844186151" lon="2.271229245925991"><ele>482.0</ele><time>2026-04-05T10:20:54.864Z</time></trkpt><trkpt lat="43.01686188885389" lon="2.271313772416231"><ele>482.0</ele><time>2026-04-05T10:20:56.864Z</time></trkpt><trkpt lat="43.016812992361054" lon="2.2713774148038186"><ele>481.99999999999994</ele><time>2026-04-05T10:20:58.864Z</time></trkpt><trkpt lat="43.016777979635755" lon="2.2714589378950945"><ele>482.0</ele><time>2026-04-05T10:21:01.864Z</time></trkpt><trkpt lat="43.01676179259616" lon="2.2715516588430757"><ele>486.0</ele><time>2026-04-05T10:21:04.864Z</time></trkpt><trkpt lat="43.0167348615302" lon="2.271673146182805"><ele>490.00000000000006</ele><time>2026-04-05T10:21:06.864Z</time></trkpt><trkpt lat="43.016702068968705" lon="2.2718007890810186"><ele>494.00000000000006</ele><time>2026-04-05T10:21:08.864Z</time></trkpt><trkpt lat="43.01666084024076" lon="2.2718988351246967"><ele>498.0</ele><time>2026-04-05T10:21:10.864Z</time></trkpt><trkpt lat="43.01661629464035" lon="2.272019017411555"><ele>502.0</ele><time>2026-04-05T10:21:12.864Z</time></trkpt><trkpt lat="43.01655181195733" lon="2.272159174320679"><ele>502.0</ele><time>2026-04-05T10:21:14.864Z</time></trkpt><trkpt lat="43.01650653387734" lon="2.272260235370448"><ele>502.00000000000006</ele><time>2026-04-05T10:21:16.864Z</time></trkpt><trkpt lat="43.01645344846698" lon="2.2723481378646215"><ele>502.00000000000006</ele><time>2026-04-05T10:21:18.864Z</time></trkpt><trkpt lat="43.016353939176895" lon="2.272514510957636"><ele>502.0</ele><time>2026-04-05T10:21:20.86Z</time></trkpt><trkpt lat="43.016297826015" lon="2.272590182187013"><ele>502.0</ele><time>2026-04-05T10:21:21.86Z</time></trkpt><trkpt lat="43.016234728652385" lon="2.272694632881125"><ele>505.6</ele><time>2026-04-05T10:21:23.859Z</time></trkpt><trkpt lat="43.01615993439936" lon="2.272730098622708"><ele>509.20000000000005</ele><time>2026-04-05T10:21:25.86Z</time></trkpt><trkpt lat="43.01606793969912" lon="2.2728190110171056"><ele>512.8</ele><time>2026-04-05T10:21:28.859Z</time></trkpt><trkpt lat="43.01599822117987" lon="2.272932319648567"><ele>516.4</ele><time>2026-04-05T10:21:30.859Z</time></trkpt><trkpt lat="43.0158956932456" lon="2.273048180496679"><ele>520.0</ele><time>2026-04-05T10:21:32.86Z</time></trkpt><trkpt lat="43.01584135676054" lon="2.2731039166584357"><ele>519.4</ele><time>2026-04-05T10:21:33.86Z</time></trkpt><trkpt lat="43.01574968439668" lon="2.2732276288340545"><ele>518.8</ele><time>2026-04-05T10:21:35.86Z</time></trkpt><trkpt lat="43.015707765685754" lon="2.273295159019827"><ele>518.2</ele><time>2026-04-05T10:21:36.86Z</time></trkpt><trkpt lat="43.01563383940794" lon="2.273367140936125"><ele>517.6</ele><time>2026-04-05T10:21:38.86Z</time></trkpt><trkpt lat="43.015545393047105" lon="2.2734743718930313"><ele>517.0</ele><time>2026-04-05T10:21:40.86Z</time></trkpt><trkpt lat="43.01549893338495" lon="2.273539932025837"><ele>517.0</ele><time>2026-04-05T10:21:41.86Z</time></trkpt><trkpt lat="43.01543513267395" lon="2.2736540982371"><ele>517.0</ele><time>2026-04-05T10:21:43.86Z</time></trkpt><trkpt lat="43.015380146290134" lon="2.2737129726550362"><ele>517.0</ele><time>2026-04-05T10:21:45.86Z</time></trkpt><trkpt lat="43.015321033940815" lon="2.273782317892746"><ele>517.0</ele><time>2026-04-05T10:21:48.86Z</time></trkpt><trkpt lat="43.015262357041266" lon="2.2737235635210227"><ele>517.0</ele><time>2026-04-05T10:21:53.86Z</time></trkpt><trkpt lat="43.01520825198539" lon="2.273786800907868"><ele>517.0</ele><time>2026-04-05T10:21:55.86Z</time></trkpt><trkpt lat="43.01515038268583" lon="2.273855541016097"><ele>518.6666666666667</ele><time>2026-04-05T10:21:57.86Z</time></trkpt><trkpt lat="43.01509432049563" lon="2.2739545497671108"><ele>520.3333333333334</ele><time>2026-04-05T10:22:00.86Z</time></trkpt><trkpt lat="43.0150266535178" lon="2.2740100051963945"><ele>522.0</ele><time>2026-04-05T10:22:03.86Z</time></trkpt><trkpt lat="43.014995356246025" lon="2.274101670244634"><ele>523.6666666666666</ele><time>2026-04-05T10:22:05.86Z</time></trkpt><trkpt lat="43.01493223191706" lon="2.274171981883516"><ele>525.3333333333333</ele><time>2026-04-05T10:22:08.86Z</time></trkpt><trkpt lat="43.014875702124186" lon="2.2742428027254076"><ele>527.0</ele><time>2026-04-05T10:22:10.86Z</time></trkpt><trkpt lat="43.01481805547199" lon="2.2743252921831814"><ele>527.0</ele><time>2026-04-05T10:22:13.86Z</time></trkpt><trkpt lat="43.01475513950168" lon="2.2744170737579834"><ele>527.0</ele><time>2026-04-05T10:22:15.86Z</time></trkpt><trkpt lat="43.01470089213674" lon="2.274470316569322"><ele>527.0</ele><time>2026-04-05T10:22:16.86Z</time></trkpt><trkpt lat="43.01465174812153" lon="2.274551745196872"><ele>527.0</ele><time>2026-04-05T10:22:18.86Z</time></trkpt><trkpt lat="43.01459848517714" lon="2.274651615009577"><ele>527.0</ele><time>2026-04-05T10:22:20.86Z</time></trkpt><trkpt lat="43.014530416303316" lon="2.274743329965957"><ele>527.0</ele><time>2026-04-05T10:22:22.86Z</time></trkpt><trkpt lat="43.01449637830444" lon="2.274816192160892"><ele>532.1666666666666</ele><time>2026-04-05T10:22:24.86Z</time></trkpt><trkpt lat="43.01443697221528" lon="2.274853893082981"><ele>537.3333333333333</ele><time>2026-04-05T10:22:26.86Z</time></trkpt><trkpt lat="43.01437207992874" lon="2.274915675693749"><ele>542.5</ele><time>2026-04-05T10:22:28.86Z</time></trkpt><trkpt lat="43.014278792503646" lon="2.2749743513535816"><ele>547.6666666666666</ele><time>2026-04-05T10:22:30.86Z</time></trkpt><trkpt lat="43.014215112966646" lon="2.2750122129296466"><ele>552.8333333333334</ele><time>2026-04-05T10:22:31.86Z</time></trkpt><trkpt lat="43.014171049075735" lon="2.2750771289572325"><ele>558.0</ele><time>2026-04-05T10:22:32.86Z</time></trkpt><trkpt lat="43.01410534332675" lon="2.275175304380351"><ele>560.4285714285713</ele><time>2026-04-05T10:22:34.86Z</time></trkpt><trkpt lat="43.01406589460128" lon="2.275271613738323"><ele>562.8571428571429</ele><time>2026-04-05T10:22:36.86Z</time></trkpt><trkpt lat="43.01400955632007" lon="2.275323333557788"><ele>565.2857142857142</ele><time>2026-04-05T10:22:38.86Z</time></trkpt><trkpt lat="43.01396032160947" lon="2.275379245912552"><ele>567.7142857142857</ele><time>2026-04-05T10:22:40.86Z</time></trkpt><trkpt lat="43.01392176910951" lon="2.275458575243033"><ele>570.1428571428571</ele><time>2026-04-05T10:22:42.86Z</time></trkpt><trkpt lat="43.01386841851316" lon="2.2755162237635576"><ele>572.5714285714286</ele><time>2026-04-05T10:22:43.86Z</time></trkpt><trkpt lat="43.01380737576271" lon="2.2755748268034472"><ele>575.0</ele><time>2026-04-05T10:22:44.86Z</time></trkpt><trkpt lat="43.01374567032801" lon="2.2756356687054446"><ele>576.6666666666666</ele><time>2026-04-05T10:22:45.86Z</time></trkpt><trkpt lat="43.013685088366955" lon="2.275684670003464"><ele>578.3333333333333</ele><time>2026-04-05T10:22:46.86Z</time></trkpt><trkpt lat="43.013621726848896" lon="2.2757349875235935"><ele>580.0</ele><time>2026-04-05T10:22:47.86Z</time></trkpt><trkpt lat="43.01354594227367" lon="2.27578908878782"><ele>581.6666666666666</ele><time>2026-04-05T10:22:48.86Z</time></trkpt><trkpt lat="43.01346291914698" lon="2.2758643173686903"><ele>583.3333333333334</ele><time>2026-04-05T10:22:49.86Z</time></trkpt><trkpt lat="43.01338000921821" lon="2.275935539401518"><ele>585.0</ele><time>2026-04-05T10:22:50.86Z</time></trkpt><trkpt lat="43.013311666717364" lon="2.2760133083872125"><ele>587.2</ele><time>2026-04-05T10:22:51.86Z</time></trkpt><trkpt lat="43.01323992443301" lon="2.276163818685581"><ele>589.4</ele><time>2026-04-05T10:22:52.86Z</time></trkpt><trkpt lat="43.01321502194287" lon="2.2763188829849894"><ele>591.6</ele><time>2026-04-05T10:22:53.86Z</time></trkpt><trkpt lat="43.013223752676325" lon="2.2764533343030577"><ele>593.8</ele><time>2026-04-05T10:22:54.86Z</time></trkpt><trkpt lat="43.01321306595115" lon="2.27656714706847"><ele>596.0</ele><time>2026-04-05T10:22:55.86Z</time></trkpt><trkpt lat="43.013200005609264" lon="2.276678280924077"><ele>596.8</ele><time>2026-04-05T10:22:56.86Z</time></trkpt><trkpt lat="43.01320762906734" lon="2.2768860178902015"><ele>597.6</ele><time>2026-04-05T10:22:58.86Z</time></trkpt><trkpt lat="43.01320951540798" lon="2.276980997054869"><ele>598.4</ele><time>2026-04-05T10:22:59.86Z</time></trkpt><trkpt lat="43.01320585170074" lon="2.277085788063305"><ele>599.2</ele><time>2026-04-05T10:23:00.86Z</time></trkpt><trkpt lat="43.0131942694894" lon="2.2772400563718564"><ele>600.0</ele><time>2026-04-05T10:23:02.86Z</time></trkpt><trkpt lat="43.01317953006458" lon="2.277332751889697"><ele>600.9999999999999</ele><time>2026-04-05T10:23:03.86Z</time></trkpt><trkpt lat="43.01314840008875" lon="2.2774265502763584"><ele>602.0</ele><time>2026-04-05T10:23:04.86Z</time></trkpt><trkpt lat="43.013094578927685" lon="2.2774916582298395"><ele>603.0</ele><time>2026-04-05T10:23:06.86Z</time></trkpt><trkpt lat="43.013027372976914" lon="2.2775336800669805"><ele>604.0</ele><time>2026-04-05T10:23:08.86Z</time></trkpt><trkpt lat="43.01294674702788" lon="2.2775239843849384"><ele>605.0</ele><time>2026-04-05T10:23:10.86Z</time></trkpt><trkpt lat="43.01291706901939" lon="2.277434856050744"><ele>605.9999999999999</ele><time>2026-04-05T10:23:12.86Z</time></trkpt><trkpt lat="43.01286324596174" lon="2.2774838036772884"><ele>607.0</ele><time>2026-04-05T10:23:14.86Z</time></trkpt><trkpt lat="43.012840507971724" lon="2.277571429134586"><ele>607.0</ele><time>2026-04-05T10:23:15.86Z</time></trkpt><trkpt lat="43.01281917722244" lon="2.2776945156201425"><ele>607.0</ele><time>2026-04-05T10:23:17.86Z</time></trkpt><trkpt lat="43.01280659908934" lon="2.2777915637742012"><ele>607.0</ele><time>2026-04-05T10:23:19.86Z</time></trkpt><trkpt lat="43.01279540074415" lon="2.2778774478556088"><ele>607.0</ele><time>2026-04-05T10:23:20.86Z</time></trkpt><trkpt lat="43.012774481642765" lon="2.277971013481441"><ele>607.0</ele><time>2026-04-05T10:23:21.86Z</time></trkpt><trkpt lat="43.012728764030776" lon="2.2780708593325345"><ele>607.0</ele><time>2026-04-05T10:23:23.86Z</time></trkpt><trkpt lat="43.012689336175306" lon="2.2781428675506805"><ele>607.3333333333334</ele><time>2026-04-05T10:23:25.86Z</time></trkpt><trkpt lat="43.01267512900216" lon="2.278255151505127"><ele>607.6666666666667</ele><time>2026-04-05T10:23:28.856Z</time></trkpt><trkpt lat="43.01271308457767" lon="2.278354278080611"><ele>608.0</ele><time>2026-04-05T10:23:30.856Z</time></trkpt><trkpt lat="43.01272374558874" lon="2.2784464261424415"><ele>608.3333333333334</ele><time>2026-04-05T10:23:31.856Z</time></trkpt><trkpt lat="43.012734865096725" lon="2.2785542861635157"><ele>608.6666666666666</ele><time>2026-04-05T10:23:32.855Z</time></trkpt><trkpt lat="43.012744291265946" lon="2.2786578973473546"><ele>609.0</ele><time>2026-04-05T10:23:33.856Z</time></trkpt><trkpt lat="43.012762491263885" lon="2.2787739020686666"><ele>609.0</ele><time>2026-04-05T10:23:34.856Z</time></trkpt><trkpt lat="43.01276408293879" lon="2.2788925163636176"><ele>609.0</ele><time>2026-04-05T10:23:35.855Z</time></trkpt><trkpt lat="43.012749656016304" lon="2.278976764747228"><ele>609.0</ele><time>2026-04-05T10:23:36.856Z</time></trkpt><trkpt lat="43.012764771295046" lon="2.279116364255563"><ele>609.0</ele><time>2026-04-05T10:23:38.855Z</time></trkpt><trkpt lat="43.01278476512667" lon="2.27924610117461"><ele>609.0</ele><time>2026-04-05T10:23:39.856Z</time></trkpt><trkpt lat="43.01280778999108" lon="2.2793719321217494"><ele>609.0</ele><time>2026-04-05T10:23:40.856Z</time></trkpt><trkpt lat="43.01283311107956" lon="2.2794691841264934"><ele>608.8</ele><time>2026-04-05T10:23:41.856Z</time></trkpt><trkpt lat="43.012838841978166" lon="2.279626269001256"><ele>608.5999999999999</ele><time>2026-04-05T10:23:43.856Z</time></trkpt><trkpt lat="43.012850354996765" lon="2.279761500781456"><ele>608.4</ele><time>2026-04-05T10:23:45.856Z</time></trkpt><trkpt lat="43.01285306159434" lon="2.279861270599683"><ele>608.1999999999999</ele><time>2026-04-05T10:23:46.856Z</time></trkpt><trkpt lat="43.01285999268379" lon="2.2799668581776475"><ele>608.0</ele><time>2026-04-05T10:23:47.856Z</time></trkpt><trkpt lat="43.012877128937866" lon="2.2801573087030516"><ele>608.8333333333333</ele><time>2026-04-05T10:23:49.856Z</time></trkpt><trkpt lat="43.01289653045273" lon="2.2802507202074893"><ele>609.6666666666666</ele><time>2026-04-05T10:23:50.856Z</time></trkpt><trkpt lat="43.01292577555217" lon="2.280394425659043"><ele>610.5</ele><time>2026-04-05T10:23:52.856Z</time></trkpt><trkpt lat="43.012947715985185" lon="2.280515755045138"><ele>611.3333333333334</ele><time>2026-04-05T10:23:54.856Z</time></trkpt><trkpt lat="43.01296486393883" lon="2.280602904959932"><ele>612.1666666666667</ele><time>2026-04-05T10:23:55.856Z</time></trkpt><trkpt lat="43.012989686636566" lon="2.280709341988402"><ele>613.0</ele><time>2026-04-05T10:23:56.856Z</time></trkpt><trkpt lat="43.01300906216273" lon="2.280814879999616"><ele>613.8333333333334</ele><time>2026-04-05T10:23:57.856Z</time></trkpt><trkpt lat="43.01302764134308" lon="2.2809181418430287"><ele>614.6666666666667</ele><time>2026-04-05T10:23:58.856Z</time></trkpt><trkpt lat="43.013030472965276" lon="2.281010610250239"><ele>615.5</ele><time>2026-04-05T10:23:59.856Z</time></trkpt><trkpt lat="43.013032856162155" lon="2.2811170555045392"><ele>616.3333333333334</ele><time>2026-04-05T10:24:00.856Z</time></trkpt><trkpt lat="43.01304462114456" lon="2.2812164214521906"><ele>617.1666666666666</ele><time>2026-04-05T10:24:01.856Z</time></trkpt><trkpt lat="43.01304330230052" lon="2.2813774158973543"><ele>618.0</ele><time>2026-04-05T10:24:03.856Z</time></trkpt><trkpt lat="43.01301053299372" lon="2.281514789572137"><ele>619.1999999999999</ele><time>2026-04-05T10:24:05.856Z</time></trkpt><trkpt lat="43.01295030435606" lon="2.281699884654245"><ele>620.4</ele><time>2026-04-05T10:24:07.856Z</time></trkpt><trkpt lat="43.012911018109364" lon="2.281834667400024"><ele>621.5999999999999</ele><time>2026-04-05T10:24:09.856Z</time></trkpt><trkpt lat="43.012912232917635" lon="2.2819394352202544"><ele>622.8</ele><time>2026-04-05T10:24:10.856Z</time></trkpt><trkpt lat="43.01290271219841" lon="2.282038494180502"><ele>624.0</ele><time>2026-04-05T10:24:11.856Z</time></trkpt><trkpt lat="43.012893286144575" lon="2.2821534399319585"><ele>625.8</ele><time>2026-04-05T10:24:12.856Z</time></trkpt><trkpt lat="43.012913372962196" lon="2.2822675609476737"><ele>627.5999999999999</ele><time>2026-04-05T10:24:13.856Z</time></trkpt><trkpt lat="43.01289803937642" lon="2.2824211388824405"><ele>629.4</ele><time>2026-04-05T10:24:15.856Z</time></trkpt><trkpt lat="43.012905828083014" lon="2.28253643572788"><ele>631.1999999999999</ele><time>2026-04-05T10:24:17.856Z</time></trkpt><trkpt lat="43.012879230242774" lon="2.2826962536383495"><ele>633.0</ele><time>2026-04-05T10:24:19.856Z</time></trkpt><trkpt lat="43.01286950424176" lon="2.2827890366416055"><ele>633.0</ele><time>2026-04-05T10:24:21.856Z</time></trkpt><trkpt lat="43.0128647086856" lon="2.2828771885722046"><ele>633.0</ele><time>2026-04-05T10:24:23.856Z</time></trkpt><trkpt lat="43.01285962474372" lon="2.283018313417436"><ele>633.0</ele><time>2026-04-05T10:24:25.856Z</time></trkpt><trkpt lat="43.012870287080915" lon="2.283169006892587"><ele>633.0</ele><time>2026-04-05T10:24:27.856Z</time></trkpt><trkpt lat="43.01289834733134" lon="2.2832980149084925"><ele>633.0</ele><time>2026-04-05T10:24:29.856Z</time></trkpt><trkpt lat="43.01290305715301" lon="2.283390009983265"><ele>633.0</ele><time>2026-04-05T10:24:30.856Z</time></trkpt><trkpt lat="43.01290894392004" lon="2.2835058285749983"><ele>632.5</ele><time>2026-04-05T10:24:31.856Z</time></trkpt><trkpt lat="43.01293019248529" lon="2.2836710750908913"><ele>632.0</ele><time>2026-04-05T10:24:33.856Z</time></trkpt><trkpt lat="43.01294447963596" lon="2.283836341001875"><ele>631.5</ele><time>2026-04-05T10:24:35.856Z</time></trkpt><trkpt lat="43.012991976759935" lon="2.28392616229382"><ele>631.0</ele><time>2026-04-05T10:24:37.856Z</time></trkpt><trkpt lat="43.013079055342544" lon="2.284053308561667"><ele>629.8</ele><time>2026-04-05T10:24:39.856Z</time></trkpt><trkpt lat="43.01316705251379" lon="2.2841440677003515"><ele>628.6</ele><time>2026-04-05T10:24:41.856Z</time></trkpt><trkpt lat="43.01324727672007" lon="2.2842248625784154"><ele>627.4</ele><time>2026-04-05T10:24:43.856Z</time></trkpt><trkpt lat="43.01332027692004" lon="2.284310867202359"><ele>626.2</ele><time>2026-04-05T10:24:45.856Z</time></trkpt><trkpt lat="43.01335082232223" lon="2.2844142914372614"><ele>625.0</ele><time>2026-04-05T10:24:47.856Z</time></trkpt><trkpt lat="43.013380385953546" lon="2.2844988126065386"><ele>627.8</ele><time>2026-04-05T10:24:49.856Z</time></trkpt><trkpt lat="43.01339119861382" lon="2.2846526910442164"><ele>630.6</ele><time>2026-04-05T10:24:51.856Z</time></trkpt><trkpt lat="43.013365972173936" lon="2.2847782403282992"><ele>633.4</ele><time>2026-04-05T10:24:53.856Z</time></trkpt><trkpt lat="43.01335771689387" lon="2.2849123332749146"><ele>636.2</ele><time>2026-04-05T10:24:56.856Z</time></trkpt><trkpt lat="43.013369722712106" lon="2.284997156402965"><ele>639.0</ele><time>2026-04-05T10:24:58.856Z</time></trkpt><trkpt lat="43.01337250275978" lon="2.285143474960277"><ele>639.4</ele><time>2026-04-05T10:25:00.856Z</time></trkpt><trkpt lat="43.013371664734095" lon="2.2853114406712485"><ele>639.8</ele><time>2026-04-05T10:25:02.857Z</time></trkpt><trkpt lat="43.01337553909496" lon="2.2854995224948693"><ele>640.1999999999999</ele><time>2026-04-05T10:25:04.857Z</time></trkpt><trkpt lat="43.01338104072583" lon="2.285603274124046"><ele>640.5999999999999</ele><time>2026-04-05T10:25:05.857Z</time></trkpt><trkpt lat="43.01337590262749" lon="2.2857027062123496"><ele>641.0</ele><time>2026-04-05T10:25:06.857Z</time></trkpt><trkpt lat="43.01336307192795" lon="2.285798463176988"><ele>641.7142857142858</ele><time>2026-04-05T10:25:07.857Z</time></trkpt><trkpt lat="43.0133440443824" lon="2.2858920164411214"><ele>642.4285714285714</ele><time>2026-04-05T10:25:08.857Z</time></trkpt><trkpt lat="43.01332731862155" lon="2.2860009772521077"><ele>643.1428571428571</ele><time>2026-04-05T10:25:09.857Z</time></trkpt><trkpt lat="43.0133287682328" lon="2.286091121411639"><ele>643.8571428571429</ele><time>2026-04-05T10:25:10.857Z</time></trkpt><trkpt lat="43.01333782525476" lon="2.2861839423632455"><ele>644.5714285714286</ele><time>2026-04-05T10:25:11.857Z</time></trkpt><trkpt lat="43.013343869737824" lon="2.286275197157374"><ele>645.2857142857143</ele><time>2026-04-05T10:25:12.857Z</time></trkpt><trkpt lat="43.013358374512755" lon="2.286366383936969"><ele>646.0</ele><time>2026-04-05T10:25:13.857Z</time></trkpt><trkpt lat="43.01338188736825" lon="2.2864931203412735"><ele>646.3333333333334</ele><time>2026-04-05T10:25:15.857Z</time></trkpt><trkpt lat="43.01335890161763" lon="2.2866317824120355"><ele>646.6666666666667</ele><time>2026-04-05T10:25:17.857Z</time></trkpt><trkpt lat="43.01333973039754" lon="2.286736074571014"><ele>647.0</ele><time>2026-04-05T10:25:18.857Z</time></trkpt><trkpt lat="43.01331679693423" lon="2.2868410368108782"><ele>647.3333333333334</ele><time>2026-04-05T10:25:19.857Z</time></trkpt><trkpt lat="43.01328752915425" lon="2.2869381099908783"><ele>647.6666666666666</ele><time>2026-04-05T10:25:20.857Z</time></trkpt><trkpt lat="43.013255851964075" lon="2.2870147086021033"><ele>648.0</ele><time>2026-04-05T10:25:21.857Z</time></trkpt><trkpt lat="43.013195654148795" lon="2.287108629586254"><ele>648.8333333333334</ele><time>2026-04-05T10:25:23.857Z</time></trkpt><trkpt lat="43.013135275761854" lon="2.2871382141943424"><ele>649.6666666666666</ele><time>2026-04-05T10:25:24.857Z</time></trkpt><trkpt lat="43.0130565409627" lon="2.2871484342949535"><ele>650.5</ele><time>2026-04-05T10:25:25.857Z</time></trkpt><trkpt lat="43.0129599425716" lon="2.2871795894531255"><ele>651.3333333333333</ele><time>2026-04-05T10:25:26.857Z</time></trkpt><trkpt lat="43.0128772707631" lon="2.2872376853537286"><ele>652.1666666666666</ele><time>2026-04-05T10:25:27.857Z</time></trkpt><trkpt lat="43.012786324115055" lon="2.2873283687959916"><ele>653.0</ele><time>2026-04-05T10:25:28.857Z</time></trkpt><trkpt lat="43.01270526229815" lon="2.2873979252872885"><ele>653.0</ele><time>2026-04-05T10:25:29.857Z</time></trkpt><trkpt lat="43.01262597989936" lon="2.287431071640684"><ele>653.0</ele><time>2026-04-05T10:25:30.857Z</time></trkpt><trkpt lat="43.012545435644846" lon="2.287445605482149"><ele>653.0</ele><time>2026-04-05T10:25:31.857Z</time></trkpt><trkpt lat="43.01246443788262" lon="2.2874622557627795"><ele>653.0</ele><time>2026-04-05T10:25:32.852Z</time></trkpt><trkpt lat="43.01237651835769" lon="2.2874969132300422"><ele>653.0</ele><time>2026-04-05T10:25:33.852Z</time></trkpt><trkpt lat="43.01228470294024" lon="2.2875631283853224"><ele>653.0</ele><time>2026-04-05T10:25:34.852Z</time></trkpt><trkpt lat="43.01218758088897" lon="2.287656358465636"><ele>653.0</ele><time>2026-04-05T10:25:35.852Z</time></trkpt><trkpt lat="43.012107668718016" lon="2.287701861047017"><ele>653.0</ele><time>2026-04-05T10:25:36.852Z</time></trkpt><trkpt lat="43.01203064266023" lon="2.2878250955200805"><ele>653.0</ele><time>2026-04-05T10:25:38.852Z</time></trkpt><trkpt lat="43.01198761645953" lon="2.2879163364702113"><ele>653.0</ele><time>2026-04-05T10:25:39.852Z</time></trkpt><trkpt lat="43.01196202453596" lon="2.2880242121768384"><ele>653.0</ele><time>2026-04-05T10:25:40.852Z</time></trkpt><trkpt lat="43.01196773149643" lon="2.288179182205718"><ele>653.0</ele><time>2026-04-05T10:25:41.852Z</time></trkpt><trkpt lat="43.01196938413951" lon="2.2883323503742674"><ele>653.0</ele><time>2026-04-05T10:25:42.852Z</time></trkpt><trkpt lat="43.01196517913347" lon="2.288481950849478"><ele>653.0</ele><time>2026-04-05T10:25:43.852Z</time></trkpt><trkpt lat="43.011989699022564" lon="2.2886278298475418"><ele>653.0</ele><time>2026-04-05T10:25:44.852Z</time></trkpt><trkpt lat="43.01203172353395" lon="2.288772000768691"><ele>653.0</ele><time>2026-04-05T10:25:45.851Z</time></trkpt><trkpt lat="43.01210275543477" lon="2.288892578294116"><ele>654.0</ele><time>2026-04-05T10:25:46.851Z</time></trkpt><trkpt lat="43.012206508236915" lon="2.289001167928162"><ele>655.0</ele><time>2026-04-05T10:25:47.851Z</time></trkpt><trkpt lat="43.01225885319082" lon="2.2890978104309156"><ele>656.0</ele><time>2026-04-05T10:25:48.851Z</time></trkpt><trkpt lat="43.01230417230126" lon="2.2891989446267678"><ele>657.0</ele><time>2026-04-05T10:25:49.851Z</time></trkpt><trkpt lat="43.012282100321784" lon="2.2893484719543737"><ele>658.0</ele><time>2026-04-05T10:25:50.851Z</time></trkpt><trkpt lat="43.01224690770939" lon="2.289508886827849"><ele>658.0</ele><time>2026-04-05T10:25:52.851Z</time></trkpt><trkpt lat="43.01220599926739" lon="2.2895900550042696"><ele>658.0</ele><time>2026-04-05T10:25:53.851Z</time></trkpt><trkpt lat="43.012175310483634" lon="2.289670193856256"><ele>658.0</ele><time>2026-04-05T10:25:54.851Z</time></trkpt><trkpt lat="43.01212974624635" lon="2.2897632332363487"><ele>658.0</ele><time>2026-04-05T10:25:55.851Z</time></trkpt><trkpt lat="43.01205982682707" lon="2.2898352191094498"><ele>658.0</ele><time>2026-04-05T10:25:56.907Z</time></trkpt><trkpt lat="43.01197154321936" lon="2.2898822098987925"><ele>658.0</ele><time>2026-04-05T10:25:57.907Z</time></trkpt><trkpt lat="43.01186658449117" lon="2.2899410560731837"><ele>659.25</ele><time>2026-04-05T10:25:58.907Z</time></trkpt><trkpt lat="43.01176893796104" lon="2.2900365552758557"><ele>660.5</ele><time>2026-04-05T10:25:59.907Z</time></trkpt><trkpt lat="43.01165024927675" lon="2.2901796297026626"><ele>661.75</ele><time>2026-04-05T10:26:00.907Z</time></trkpt><trkpt lat="43.011521653619496" lon="2.290320699195543"><ele>663.0</ele><time>2026-04-05T10:26:01.907Z</time></trkpt><trkpt lat="43.011417723707666" lon="2.290424888827698"><ele>663.0</ele><time>2026-04-05T10:26:02.907Z</time></trkpt><trkpt lat="43.01129283053528" lon="2.290542133494577"><ele>663.0</ele><time>2026-04-05T10:26:03.907Z</time></trkpt><trkpt lat="43.01119109847793" lon="2.2906217370317723"><ele>663.0</ele><time>2026-04-05T10:26:04.907Z</time></trkpt><trkpt lat="43.011093015624034" lon="2.2906577532701404"><ele>663.0</ele><time>2026-04-05T10:26:05.907Z</time></trkpt><trkpt lat="43.01098524690758" lon="2.2906472503472197"><ele>664.0</ele><time>2026-04-05T10:26:06.907Z</time></trkpt><trkpt lat="43.010864811332894" lon="2.290597312937645"><ele>665.0</ele><time>2026-04-05T10:26:07.907Z</time></trkpt><trkpt lat="43.010734130255706" lon="2.2905496727773924"><ele>666.0</ele><time>2026-04-05T10:26:08.907Z</time></trkpt><trkpt lat="43.010628193515075" lon="2.2904976057880715"><ele>667.0</ele><time>2026-04-05T10:26:09.907Z</time></trkpt><trkpt lat="43.010541853330864" lon="2.2904653180499865"><ele>667.0</ele><time>2026-04-05T10:26:10.907Z</time></trkpt><trkpt lat="43.010435883117886" lon="2.290458536866212"><ele>667.0</ele><time>2026-04-05T10:26:11.908Z</time></trkpt><trkpt lat="43.01030341971942" lon="2.290463905941398"><ele>667.0</ele><time>2026-04-05T10:26:12.908Z</time></trkpt><trkpt lat="43.010159024051305" lon="2.2905127176171134"><ele>667.0</ele><time>2026-04-05T10:26:13.908Z</time></trkpt><trkpt lat="43.01000730443716" lon="2.2905452875371535"><ele>667.0</ele><time>2026-04-05T10:26:14.908Z</time></trkpt><trkpt lat="43.00981991064833" lon="2.290576623898358"><ele>667.0</ele><time>2026-04-05T10:26:15.908Z</time></trkpt><trkpt lat="43.009620459786326" lon="2.2906190317756985"><ele>667.0</ele><time>2026-04-05T10:26:16.908Z</time></trkpt><trkpt lat="43.00946630804069" lon="2.2906651020197626"><ele>668.6</ele><time>2026-04-05T10:26:17.908Z</time></trkpt><trkpt lat="43.009336349779645" lon="2.290708309521162"><ele>670.2</ele><time>2026-04-05T10:26:18.908Z</time></trkpt><trkpt lat="43.00923526569136" lon="2.290766389121845"><ele>671.8</ele><time>2026-04-05T10:26:19.908Z</time></trkpt><trkpt lat="43.00915872711332" lon="2.290804852647318"><ele>673.4</ele><time>2026-04-05T10:26:20.908Z</time></trkpt><trkpt lat="43.00906601173755" lon="2.2908066071793236"><ele>675.0</ele><time>2026-04-05T10:26:21.908Z</time></trkpt><trkpt lat="43.00894158639611" lon="2.290799458571667"><ele>675.0</ele><time>2026-04-05T10:26:22.908Z</time></trkpt><trkpt lat="43.008795277814876" lon="2.290831267039246"><ele>675.0</ele><time>2026-04-05T10:26:23.908Z</time></trkpt><trkpt lat="43.00863908685884" lon="2.2908800074540445"><ele>675.0</ele><time>2026-04-05T10:26:24.908Z</time></trkpt><trkpt lat="43.008489462939295" lon="2.2909235288641683"><ele>675.0</ele><time>2026-04-05T10:26:25.908Z</time></trkpt><trkpt lat="43.00835377732196" lon="2.2909683760404933"><ele>675.0</ele><time>2026-04-05T10:26:26.908Z</time></trkpt><trkpt lat="43.00825226594923" lon="2.291006306352941"><ele>675.0</ele><time>2026-04-05T10:26:27.908Z</time></trkpt><trkpt lat="43.00816696567127" lon="2.291045802652191"><ele>675.0</ele><time>2026-04-05T10:26:28.908Z</time></trkpt><trkpt lat="43.00813990634826" lon="2.2911243164520405"><ele>675.0</ele><time>2026-04-05T10:26:30.908Z</time></trkpt><trkpt lat="43.00820675375971" lon="2.2912421286131117"><ele>675.0</ele><time>2026-04-05T10:26:32.908Z</time></trkpt><trkpt lat="43.00825629364162" lon="2.2913491909223724"><ele>675.0</ele><time>2026-04-05T10:26:33.908Z</time></trkpt><trkpt lat="43.008315706599795" lon="2.2914520196712616"><ele>675.0</ele><time>2026-04-05T10:26:34.908Z</time></trkpt><trkpt lat="43.00838741394092" lon="2.291535147881813"><ele>675.0</ele><time>2026-04-05T10:26:35.908Z</time></trkpt><trkpt lat="43.00847662301903" lon="2.29162319771853"><ele>675.0</ele><time>2026-04-05T10:26:36.908Z</time></trkpt><trkpt lat="43.00855142312954" lon="2.2917616125454225"><ele>675.25</ele><time>2026-04-05T10:26:37.908Z</time></trkpt><trkpt lat="43.008654522181025" lon="2.2918601278817126"><ele>675.5</ele><time>2026-04-05T10:26:38.908Z</time></trkpt><trkpt lat="43.008761314479074" lon="2.2919397134515647"><ele>675.75</ele><time>2026-04-05T10:26:39.908Z</time></trkpt><trkpt lat="43.00887956757387" lon="2.292018151236772"><ele>676.0</ele><time>2026-04-05T10:26:40.908Z</time></trkpt><trkpt lat="43.009001451785885" lon="2.29208513245788"><ele>676.0</ele><time>2026-04-05T10:26:41.908Z</time></trkpt><trkpt lat="43.00912815000406" lon="2.2921330720485615"><ele>676.0</ele><time>2026-04-05T10:26:42.908Z</time></trkpt><trkpt lat="43.0092516413502" lon="2.2921855681333683"><ele>676.0</ele><time>2026-04-05T10:26:43.908Z</time></trkpt><trkpt lat="43.0093776161685" lon="2.292239118810816"><ele>676.0</ele><time>2026-04-05T10:26:44.908Z</time></trkpt><trkpt lat="43.00950992353197" lon="2.292295361395649"><ele>678.5</ele><time>2026-04-05T10:26:45.908Z</time></trkpt><trkpt lat="43.00963893629242" lon="2.292368886304863"><ele>681.0</ele><time>2026-04-05T10:26:46.908Z</time></trkpt><trkpt lat="43.009763375356115" lon="2.2924473543206783"><ele>683.5</ele><time>2026-04-05T10:26:47.908Z</time></trkpt><trkpt lat="43.00988408711846" lon="2.292531089807267"><ele>686.0</ele><time>2026-04-05T10:26:48.908Z</time></trkpt><trkpt lat="43.0100072365579" lon="2.2926312189843268"><ele>686.0</ele><time>2026-04-05T10:26:49.908Z</time></trkpt><trkpt lat="43.01014334155655" lon="2.292746720338541"><ele>686.0</ele><time>2026-04-05T10:26:50.908Z</time></trkpt><trkpt lat="43.01028406917282" lon="2.2928680240979173"><ele>686.0</ele><time>2026-04-05T10:26:51.908Z</time></trkpt><trkpt lat="43.010433312381736" lon="2.2929966680910456"><ele>686.3333333333333</ele><time>2026-04-05T10:26:52.908Z</time></trkpt><trkpt lat="43.010595130878755" lon="2.293110901810309"><ele>686.6666666666666</ele><time>2026-04-05T10:26:53.908Z</time></trkpt><trkpt lat="43.01075013505992" lon="2.293251464073956"><ele>687.0</ele><time>2026-04-05T10:26:54.908Z</time></trkpt><trkpt lat="43.01090991669018" lon="2.293391971688819"><ele>688.75</ele><time>2026-04-05T10:26:55.908Z</time></trkpt><trkpt lat="43.0110372414035" lon="2.2935398079481626"><ele>690.5</ele><time>2026-04-05T10:26:56.908Z</time></trkpt><trkpt lat="43.01113986890868" lon="2.2936543474177276"><ele>692.25</ele><time>2026-04-05T10:26:57.908Z</time></trkpt><trkpt lat="43.01124087849514" lon="2.2937894609564107"><ele>694.0</ele><time>2026-04-05T10:26:58.908Z</time></trkpt><trkpt lat="43.01133820320914" lon="2.293949705278777"><ele>694.0</ele><time>2026-04-05T10:26:59.908Z</time></trkpt><trkpt lat="43.01142572539799" lon="2.294133352990878"><ele>694.0</ele><time>2026-04-05T10:27:00.909Z</time></trkpt><trkpt lat="43.01147396151614" lon="2.2942859814146113"><ele>694.0</ele><time>2026-04-05T10:27:01.909Z</time></trkpt><trkpt lat="43.01150016307673" lon="2.2943833598017878"><ele>694.0</ele><time>2026-04-05T10:27:02.909Z</time></trkpt><trkpt lat="43.011505922659374" lon="2.294494543382736"><ele>694.0</ele><time>2026-04-05T10:27:04.909Z</time></trkpt><trkpt lat="43.011511598841516" lon="2.294594980421261"><ele>694.0</ele><time>2026-04-05T10:27:05.909Z</time></trkpt><trkpt lat="43.01151535590245" lon="2.294728521611923"><ele>694.0</ele><time>2026-04-05T10:27:06.909Z</time></trkpt><trkpt lat="43.011525364124786" lon="2.2948880232958606"><ele>694.0</ele><time>2026-04-05T10:27:07.909Z</time></trkpt><trkpt lat="43.01152719067235" lon="2.2950729592739805"><ele>694.0</ele><time>2026-04-05T10:27:08.909Z</time></trkpt><trkpt lat="43.011526350152124" lon="2.295295429786648"><ele>695.0</ele><time>2026-04-05T10:27:09.909Z</time></trkpt><trkpt lat="43.011523580424395" lon="2.295528952299259"><ele>696.0</ele><time>2026-04-05T10:27:10.909Z</time></trkpt><trkpt lat="43.011516271362375" lon="2.2957689127290593"><ele>697.0</ele><time>2026-04-05T10:27:11.909Z</time></trkpt><trkpt lat="43.01150311009222" lon="2.296035582110046"><ele>698.0</ele><time>2026-04-05T10:27:12.909Z</time></trkpt><trkpt lat="43.01148274773149" lon="2.2962943363143893"><ele>699.0</ele><time>2026-04-05T10:27:13.909Z</time></trkpt><trkpt lat="43.01146752422564" lon="2.2965949611329006"><ele>700.0</ele><time>2026-04-05T10:27:14.909Z</time></trkpt><trkpt lat="43.01144011107885" lon="2.296922686409053"><ele>700.5</ele><time>2026-04-05T10:27:15.909Z</time></trkpt><trkpt lat="43.01142531941699" lon="2.297238493500028"><ele>701.0</ele><time>2026-04-05T10:27:16.909Z</time></trkpt><trkpt lat="43.01143439419474" lon="2.2975466851610524"><ele>702.6666666666666</ele><time>2026-04-05T10:27:17.909Z</time></trkpt><trkpt lat="43.011415245690365" lon="2.2978464114262223"><ele>704.3333333333334</ele><time>2026-04-05T10:27:18.909Z</time></trkpt><trkpt lat="43.011413148695105" lon="2.2981460981655704"><ele>706.0</ele><time>2026-04-05T10:27:19.909Z</time></trkpt><trkpt lat="43.011421357656886" lon="2.2984324889736416"><ele>709.0</ele><time>2026-04-05T10:27:20.909Z</time></trkpt><trkpt lat="43.01142852231566" lon="2.2987244995767333"><ele>712.0</ele><time>2026-04-05T10:27:21.909Z</time></trkpt><trkpt lat="43.01141332078915" lon="2.2990167542759488"><ele>715.0</ele><time>2026-04-05T10:27:22.909Z</time></trkpt><trkpt lat="43.011417034559045" lon="2.299312794514384"><ele>717.3333333333334</ele><time>2026-04-05T10:27:23.909Z</time></trkpt><trkpt lat="43.01142723882315" lon="2.299599553197146"><ele>719.6666666666666</ele><time>2026-04-05T10:27:24.909Z</time></trkpt><trkpt lat="43.01145753011047" lon="2.299898186497864"><ele>722.0</ele><time>2026-04-05T10:27:25.909Z</time></trkpt><trkpt lat="43.01151593976289" lon="2.3001863978543726"><ele>723.0</ele><time>2026-04-05T10:27:26.909Z</time></trkpt><trkpt lat="43.01155937159888" lon="2.3004727863104657"><ele>724.0</ele><time>2026-04-05T10:27:27.909Z</time></trkpt><trkpt lat="43.01162394022311" lon="2.3007493050370704"><ele>725.0</ele><time>2026-04-05T10:27:28.909Z</time></trkpt><trkpt lat="43.01172117507941" lon="2.3010087994034345"><ele>726.3333333333333</ele><time>2026-04-05T10:27:29.909Z</time></trkpt><trkpt lat="43.01183373355262" lon="2.30124762317462"><ele>727.6666666666666</ele><time>2026-04-05T10:27:30.909Z</time></trkpt><trkpt lat="43.01195004258331" lon="2.301491083741978"><ele>729.0</ele><time>2026-04-05T10:27:31.909Z</time></trkpt><trkpt lat="43.012044820058456" lon="2.3017019014055"><ele>731.0</ele><time>2026-04-05T10:27:32.909Z</time></trkpt><trkpt lat="43.012113998799464" lon="2.301914546848871"><ele>733.0</ele><time>2026-04-05T10:27:33.909Z</time></trkpt><trkpt lat="43.012181678993464" lon="2.3021305184415106"><ele>735.0</ele><time>2026-04-05T10:27:34.909Z</time></trkpt><trkpt lat="43.01225270541171" lon="2.302342730715359"><ele>737.6666666666666</ele><time>2026-04-05T10:27:35.909Z</time></trkpt><trkpt lat="43.01233264844136" lon="2.3025501817977685"><ele>740.3333333333333</ele><time>2026-04-05T10:27:36.909Z</time></trkpt><trkpt lat="43.01241239210632" lon="2.3027239237158916"><ele>743.0</ele><time>2026-04-05T10:27:37.909Z</time></trkpt><trkpt lat="43.01245456642534" lon="2.3029201676617603"><ele>742.3333333333333</ele><time>2026-04-05T10:27:38.905Z</time></trkpt><trkpt lat="43.01265827810837" lon="2.3030118943302234"><ele>741.6666666666666</ele><time>2026-04-05T10:27:39.904Z</time></trkpt><trkpt lat="43.012804581623804" lon="2.3031752260293965"><ele>741.0</ele><time>2026-04-05T10:27:40.905Z</time></trkpt><trkpt lat="43.01295959854876" lon="2.3033074999584326"><ele>741.0</ele><time>2026-04-05T10:27:41.905Z</time></trkpt><trkpt lat="43.01313393932003" lon="2.3034000103826986"><ele>741.0</ele><time>2026-04-05T10:27:42.905Z</time></trkpt><trkpt lat="43.01332966195824" lon="2.3034456880441594"><ele>741.0</ele><time>2026-04-05T10:27:43.905Z</time></trkpt><trkpt lat="43.01348027073088" lon="2.3035378146762917"><ele>737.0</ele><time>2026-04-05T10:27:44.904Z</time></trkpt><trkpt lat="43.01362448588088" lon="2.3036168314214476"><ele>733.0</ele><time>2026-04-05T10:27:45.904Z</time></trkpt><trkpt lat="43.01375759941606" lon="2.3037387068635873"><ele>729.0</ele><time>2026-04-05T10:27:46.904Z</time></trkpt><trkpt lat="43.013846623314464" lon="2.303903253211385"><ele>726.3333333333334</ele><time>2026-04-05T10:27:47.904Z</time></trkpt><trkpt lat="43.01394265158444" lon="2.3040798742410247"><ele>723.6666666666667</ele><time>2026-04-05T10:27:48.904Z</time></trkpt><trkpt lat="43.014052506442034" lon="2.3042856988127305"><ele>721.0</ele><time>2026-04-05T10:27:49.904Z</time></trkpt><trkpt lat="43.01415648598982" lon="2.304488363393741"><ele>721.0</ele><time>2026-04-05T10:27:50.905Z</time></trkpt><trkpt lat="43.01422357459479" lon="2.304658470628676"><ele>721.0</ele><time>2026-04-05T10:27:51.904Z</time></trkpt><trkpt lat="43.014246667365086" lon="2.304784808487739"><ele>721.0</ele><time>2026-04-05T10:27:52.904Z</time></trkpt><trkpt lat="43.01424340294102" lon="2.3049262874247587"><ele>721.0</ele><time>2026-04-05T10:27:53.904Z</time></trkpt><trkpt lat="43.014257333622666" lon="2.3051348471057946"><ele>723.6666666666667</ele><time>2026-04-05T10:27:54.904Z</time></trkpt><trkpt lat="43.014294102576685" lon="2.305376876671086"><ele>726.3333333333334</ele><time>2026-04-05T10:27:55.904Z</time></trkpt><trkpt lat="43.01436391825673" lon="2.305645027119996"><ele>729.0</ele><time>2026-04-05T10:27:56.904Z</time></trkpt><trkpt lat="43.01441260261134" lon="2.3058806013374653"><ele>730.3333333333334</ele><time>2026-04-05T10:27:57.904Z</time></trkpt><trkpt lat="43.014449809939215" lon="2.306099355940619"><ele>731.6666666666667</ele><time>2026-04-05T10:27:58.904Z</time></trkpt><trkpt lat="43.01447674097059" lon="2.3063068636115553"><ele>733.0</ele><time>2026-04-05T10:27:59.904Z</time></trkpt><trkpt lat="43.014502184115585" lon="2.3065546381487687"><ele>733.0</ele><time>2026-04-05T10:28:00.904Z</time></trkpt><trkpt lat="43.01452648230652" lon="2.3068229551284567"><ele>733.0</ele><time>2026-04-05T10:28:01.904Z</time></trkpt><trkpt lat="43.014558735107876" lon="2.307067629420404"><ele>733.0</ele><time>2026-04-05T10:28:02.905Z</time></trkpt><trkpt lat="43.014614068925745" lon="2.307264901167716"><ele>732.75</ele><time>2026-04-05T10:28:03.905Z</time></trkpt><trkpt lat="43.01470354747879" lon="2.3074093610412865"><ele>732.5</ele><time>2026-04-05T10:28:04.905Z</time></trkpt><trkpt lat="43.014812236157304" lon="2.307500493858861"><ele>732.25</ele><time>2026-04-05T10:28:05.905Z</time></trkpt><trkpt lat="43.014949356796436" lon="2.3075444430702197"><ele>732.0</ele><time>2026-04-05T10:28:06.905Z</time></trkpt><trkpt lat="43.01511040451495" lon="2.3075374225082377"><ele>729.6666666666666</ele><time>2026-04-05T10:28:07.905Z</time></trkpt><trkpt lat="43.015284823982036" lon="2.307495676193226"><ele>727.3333333333333</ele><time>2026-04-05T10:28:08.905Z</time></trkpt><trkpt lat="43.015451927608936" lon="2.3074285362200566"><ele>725.0</ele><time>2026-04-05T10:28:09.905Z</time></trkpt><trkpt lat="43.01559286589454" lon="2.3073330151469595"><ele>723.75</ele><time>2026-04-05T10:28:10.905Z</time></trkpt><trkpt lat="43.015710213317035" lon="2.307230624469806"><ele>722.5</ele><time>2026-04-05T10:28:11.905Z</time></trkpt><trkpt lat="43.01581400531982" lon="2.307142188899208"><ele>721.25</ele><time>2026-04-05T10:28:12.905Z</time></trkpt><trkpt lat="43.015911364401276" lon="2.307090394087789"><ele>720.0</ele><time>2026-04-05T10:28:13.905Z</time></trkpt><trkpt lat="43.016019611960814" lon="2.307102267736369"><ele>718.0</ele><time>2026-04-05T10:28:14.905Z</time></trkpt><trkpt lat="43.01614192451003" lon="2.307139236325141"><ele>716.0</ele><time>2026-04-05T10:28:15.905Z</time></trkpt><trkpt lat="43.01629065804844" lon="2.3071866290448515"><ele>714.0</ele><time>2026-04-05T10:28:16.905Z</time></trkpt><trkpt lat="43.01646924582291" lon="2.307228203963503"><ele>714.0</ele><time>2026-04-05T10:28:17.905Z</time></trkpt><trkpt lat="43.016647409790345" lon="2.3072417309812367"><ele>714.0</ele><time>2026-04-05T10:28:18.905Z</time></trkpt><trkpt lat="43.016791111237616" lon="2.307310773093983"><ele>714.0</ele><time>2026-04-05T10:28:19.905Z</time></trkpt><trkpt lat="43.016890445975235" lon="2.307384741390443"><ele>714.0</ele><time>2026-04-05T10:28:20.905Z</time></trkpt><trkpt lat="43.016992539493174" lon="2.3074922337855885"><ele>715.5</ele><time>2026-04-05T10:28:21.905Z</time></trkpt><trkpt lat="43.01708439920475" lon="2.3076376190057566"><ele>717.0</ele><time>2026-04-05T10:28:22.905Z</time></trkpt><trkpt lat="43.017154571824335" lon="2.3077924549154414"><ele>718.5</ele><time>2026-04-05T10:28:23.905Z</time></trkpt><trkpt lat="43.01719638197824" lon="2.3079587623683158"><ele>720.0</ele><time>2026-04-05T10:28:24.905Z</time></trkpt><trkpt lat="43.01722413203348" lon="2.3081442949390647"><ele>720.3333333333334</ele><time>2026-04-05T10:28:25.905Z</time></trkpt><trkpt lat="43.0172410593002" lon="2.308376479646015"><ele>720.6666666666667</ele><time>2026-04-05T10:28:26.905Z</time></trkpt><trkpt lat="43.017282782518514" lon="2.3086092795651822"><ele>721.0</ele><time>2026-04-05T10:28:27.905Z</time></trkpt><trkpt lat="43.01733120725891" lon="2.308847512242439"><ele>720.6666666666667</ele><time>2026-04-05T10:28:28.905Z</time></trkpt><trkpt lat="43.01738156261909" lon="2.309089352771281"><ele>720.3333333333334</ele><time>2026-04-05T10:28:29.905Z</time></trkpt><trkpt lat="43.01743305708322" lon="2.309336664583069"><ele>720.0</ele><time>2026-04-05T10:28:30.905Z</time></trkpt><trkpt lat="43.01748316862576" lon="2.3095851358340975"><ele>720.0</ele><time>2026-04-05T10:28:31.905Z</time></trkpt><trkpt lat="43.01753555116668" lon="2.309829367196934"><ele>720.0</ele><time>2026-04-05T10:28:32.905Z</time></trkpt><trkpt lat="43.0175856285757" lon="2.3100224886771237"><ele>720.0</ele><time>2026-04-05T10:28:33.905Z</time></trkpt><trkpt lat="43.01765471363411" lon="2.310220743893258"><ele>720.0</ele><time>2026-04-05T10:28:34.905Z</time></trkpt><trkpt lat="43.017750533172666" lon="2.3103876739524023"><ele>720.0</ele><time>2026-04-05T10:28:35.905Z</time></trkpt><trkpt lat="43.01789124819525" lon="2.31049635367236"><ele>720.0</ele><time>2026-04-05T10:28:36.905Z</time></trkpt><trkpt lat="43.018049120010325" lon="2.310592434860162"><ele>721.6666666666666</ele><time>2026-04-05T10:28:37.905Z</time></trkpt><trkpt lat="43.018219399966576" lon="2.3106528554585415"><ele>723.3333333333333</ele><time>2026-04-05T10:28:38.905Z</time></trkpt><trkpt lat="43.018401564758236" lon="2.310690165229423"><ele>725.0</ele><time>2026-04-05T10:28:39.905Z</time></trkpt><trkpt lat="43.01860161881417" lon="2.310744334601574"><ele>728.0</ele><time>2026-04-05T10:28:40.905Z</time></trkpt><trkpt lat="43.0188058853972" lon="2.3107708643973957"><ele>731.0</ele><time>2026-04-05T10:28:41.905Z</time></trkpt><trkpt lat="43.01897386835037" lon="2.310802255566992"><ele>734.0</ele><time>2026-04-05T10:28:42.905Z</time></trkpt><trkpt lat="43.01910857426873" lon="2.3108452375651756"><ele>735.8000000000001</ele><time>2026-04-05T10:28:43.905Z</time></trkpt><trkpt lat="43.01921843761991" lon="2.3109060688131495"><ele>737.6</ele><time>2026-04-05T10:28:44.905Z</time></trkpt><trkpt lat="43.01930063141909" lon="2.310993744110828"><ele>739.4</ele><time>2026-04-05T10:28:45.905Z</time></trkpt><trkpt lat="43.01937322555184" lon="2.3111109985057166"><ele>741.2</ele><time>2026-04-05T10:28:46.905Z</time></trkpt><trkpt lat="43.01942216980223" lon="2.3112462087857804"><ele>743.0</ele><time>2026-04-05T10:28:47.905Z</time></trkpt><trkpt lat="43.01947410517279" lon="2.311421280106474"><ele>744.3333333333333</ele><time>2026-04-05T10:28:48.905Z</time></trkpt><trkpt lat="43.0195314283348" lon="2.3116345447423896"><ele>745.6666666666666</ele><time>2026-04-05T10:28:49.905Z</time></trkpt><trkpt lat="43.01959389312265" lon="2.3118713472927666"><ele>747.0</ele><time>2026-04-05T10:28:50.905Z</time></trkpt><trkpt lat="43.01966390281317" lon="2.3121206008661375"><ele>745.3333333333334</ele><time>2026-04-05T10:28:51.906Z</time></trkpt><trkpt lat="43.01974128491215" lon="2.3123737434789082"><ele>743.6666666666667</ele><time>2026-04-05T10:28:52.906Z</time></trkpt><trkpt lat="43.019818976238525" lon="2.31262636009753"><ele>742.0</ele><time>2026-04-05T10:28:53.906Z</time></trkpt><trkpt lat="43.019895532529425" lon="2.312866151759671"><ele>741.0</ele><time>2026-04-05T10:28:54.906Z</time></trkpt><trkpt lat="43.0200005116757" lon="2.313094895879035"><ele>740.0</ele><time>2026-04-05T10:28:55.906Z</time></trkpt><trkpt lat="43.02012674726951" lon="2.3133201818229145"><ele>739.0</ele><time>2026-04-05T10:28:56.906Z</time></trkpt><trkpt lat="43.02024566634828" lon="2.313522027170295"><ele>739.0</ele><time>2026-04-05T10:28:57.906Z</time></trkpt><trkpt lat="43.02033809720603" lon="2.3136881473983726"><ele>739.0</ele><time>2026-04-05T10:28:58.906Z</time></trkpt><trkpt lat="43.02037522510668" lon="2.3138609539736295"><ele>739.0</ele><time>2026-04-05T10:28:59.906Z</time></trkpt><trkpt lat="43.02038261457776" lon="2.3140632587790395"><ele>739.0</ele><time>2026-04-05T10:29:00.906Z</time></trkpt><trkpt lat="43.02036855201075" lon="2.3143090126309587"><ele>739.3333333333334</ele><time>2026-04-05T10:29:01.906Z</time></trkpt><trkpt lat="43.020336789877845" lon="2.3145744191257656"><ele>739.6666666666666</ele><time>2026-04-05T10:29:02.906Z</time></trkpt><trkpt lat="43.02031355440954" lon="2.314826648075775"><ele>740.0</ele><time>2026-04-05T10:29:03.906Z</time></trkpt><trkpt lat="43.020303910030904" lon="2.3150317303914094"><ele>740.0</ele><time>2026-04-05T10:29:04.906Z</time></trkpt><trkpt lat="43.02030739430443" lon="2.315288995592541"><ele>740.0</ele><time>2026-04-05T10:29:05.906Z</time></trkpt><trkpt lat="43.02037214059178" lon="2.315540676169875"><ele>740.0</ele><time>2026-04-05T10:29:06.906Z</time></trkpt><trkpt lat="43.02043526057476" lon="2.3157927370622087"><ele>738.3333333333333</ele><time>2026-04-05T10:29:07.906Z</time></trkpt><trkpt lat="43.02050140947435" lon="2.3160375212322664"><ele>736.6666666666666</ele><time>2026-04-05T10:29:08.906Z</time></trkpt><trkpt lat="43.02054972376108" lon="2.316278355852175"><ele>735.0</ele><time>2026-04-05T10:29:09.906Z</time></trkpt><trkpt lat="43.020584164011936" lon="2.3165219289190753"><ele>735.0</ele><time>2026-04-05T10:29:10.906Z</time></trkpt><trkpt lat="43.02062669598586" lon="2.316776877724075"><ele>735.0</ele><time>2026-04-05T10:29:11.906Z</time></trkpt><trkpt lat="43.020636914145946" lon="2.317057588398542"><ele>735.0</ele><time>2026-04-05T10:29:12.906Z</time></trkpt><trkpt lat="43.02065406839908" lon="2.3173441751044206"><ele>737.6666666666666</ele><time>2026-04-05T10:29:13.906Z</time></trkpt><trkpt lat="43.02067888962347" lon="2.3176254933352833"><ele>740.3333333333333</ele><time>2026-04-05T10:29:14.906Z</time></trkpt><trkpt lat="43.02068787085094" lon="2.3178722367018434"><ele>743.0</ele><time>2026-04-05T10:29:15.906Z</time></trkpt><trkpt lat="43.02066352097177" lon="2.3181202755234853"><ele>746.3333333333333</ele><time>2026-04-05T10:29:16.906Z</time></trkpt><trkpt lat="43.020610967348645" lon="2.3183755488805904"><ele>749.6666666666666</ele><time>2026-04-05T10:29:17.906Z</time></trkpt><trkpt lat="43.02052188452132" lon="2.318632860607916"><ele>753.0</ele><time>2026-04-05T10:29:18.906Z</time></trkpt><trkpt lat="43.020444455989825" lon="2.3189037182545977"><ele>753.3333333333334</ele><time>2026-04-05T10:29:19.906Z</time></trkpt><trkpt lat="43.020355019815376" lon="2.3191718239043784"><ele>753.6666666666667</ele><time>2026-04-05T10:29:20.906Z</time></trkpt><trkpt lat="43.02025701603959" lon="2.319435572931886"><ele>754.0</ele><time>2026-04-05T10:29:21.906Z</time></trkpt><trkpt lat="43.02016729980069" lon="2.3196638369073095"><ele>753.0</ele><time>2026-04-05T10:29:22.906Z</time></trkpt><trkpt lat="43.02008093170214" lon="2.319813578933668"><ele>752.0</ele><time>2026-04-05T10:29:23.906Z</time></trkpt><trkpt lat="43.01998415633288" lon="2.3199245373574255"><ele>751.0</ele><time>2026-04-05T10:29:24.906Z</time></trkpt><trkpt lat="43.019850450173955" lon="2.3199710712358703"><ele>750.0</ele><time>2026-04-05T10:29:25.906Z</time></trkpt><trkpt lat="43.01968781018874" lon="2.3200780464676627"><ele>749.3333333333334</ele><time>2026-04-05T10:29:26.906Z</time></trkpt><trkpt lat="43.019520563160135" lon="2.3201524926135817"><ele>748.6666666666667</ele><time>2026-04-05T10:29:27.906Z</time></trkpt><trkpt lat="43.01934101861132" lon="2.3202625197468776"><ele>748.0</ele><time>2026-04-05T10:29:28.906Z</time></trkpt><trkpt lat="43.019160730331585" lon="2.320388087432627"><ele>748.3333333333334</ele><time>2026-04-05T10:29:29.906Z</time></trkpt><trkpt lat="43.018980913561954" lon="2.3205252948711785"><ele>748.6666666666666</ele><time>2026-04-05T10:29:30.906Z</time></trkpt><trkpt lat="43.01881067840506" lon="2.3206901423311885"><ele>749.0</ele><time>2026-04-05T10:29:31.906Z</time></trkpt><trkpt lat="43.018622723899774" lon="2.320815700969311"><ele>746.6666666666666</ele><time>2026-04-05T10:29:32.906Z</time></trkpt><trkpt lat="43.01845742754067" lon="2.3209334046090553"><ele>744.3333333333334</ele><time>2026-04-05T10:29:33.906Z</time></trkpt><trkpt lat="43.01825369181727" lon="2.321002618390824"><ele>742.0</ele><time>2026-04-05T10:29:34.906Z</time></trkpt><trkpt lat="43.018023583996204" lon="2.3210580177250786"><ele>739.0</ele><time>2026-04-05T10:29:35.906Z</time></trkpt><trkpt lat="43.01780620446931" lon="2.321134487142037"><ele>736.0</ele><time>2026-04-05T10:29:36.906Z</time></trkpt><trkpt lat="43.017624420384436" lon="2.321176488568937"><ele>733.0</ele><time>2026-04-05T10:29:37.906Z</time></trkpt><trkpt lat="43.01744181284754" lon="2.3212385678653433"><ele>731.5</ele><time>2026-04-05T10:29:38.906Z</time></trkpt><trkpt lat="43.017322313121056" lon="2.3213367244244196"><ele>730.0</ele><time>2026-04-05T10:29:39.906Z</time></trkpt><trkpt lat="43.01723145426248" lon="2.3214496564553087"><ele>728.5</ele><time>2026-04-05T10:29:40.907Z</time></trkpt><trkpt lat="43.01716389663705" lon="2.3215929025141304"><ele>727.0</ele><time>2026-04-05T10:29:41.907Z</time></trkpt><trkpt lat="43.01712327367731" lon="2.3217457206922565"><ele>727.0</ele><time>2026-04-05T10:29:42.907Z</time></trkpt><trkpt lat="43.017114623151535" lon="2.321900778020493"><ele>727.0</ele><time>2026-04-05T10:29:43.907Z</time></trkpt><trkpt lat="43.017112727010016" lon="2.322072998742711"><ele>727.0</ele><time>2026-04-05T10:29:44.902Z</time></trkpt><trkpt lat="43.017132708001235" lon="2.322250743950907"><ele>727.0</ele><time>2026-04-05T10:29:45.902Z</time></trkpt><trkpt lat="43.01719382970327" lon="2.3224045827538395"><ele>728.75</ele><time>2026-04-05T10:29:46.902Z</time></trkpt><trkpt lat="43.01729241313427" lon="2.322521742938322"><ele>730.5</ele><time>2026-04-05T10:29:47.902Z</time></trkpt><trkpt lat="43.01739026884793" lon="2.322649200658523"><ele>732.25</ele><time>2026-04-05T10:29:48.902Z</time></trkpt><trkpt lat="43.017509975513555" lon="2.3227732250125213"><ele>734.0</ele><time>2026-04-05T10:29:49.902Z</time></trkpt><trkpt lat="43.01761661150502" lon="2.3229204450859715"><ele>735.25</ele><time>2026-04-05T10:29:50.902Z</time></trkpt><trkpt lat="43.0177126737787" lon="2.323077911232377"><ele>736.5</ele><time>2026-04-05T10:29:51.901Z</time></trkpt><trkpt lat="43.01781596725911" lon="2.323241151573589"><ele>737.75</ele><time>2026-04-05T10:29:52.901Z</time></trkpt><trkpt lat="43.017881826636916" lon="2.323408867897529"><ele>739.0</ele><time>2026-04-05T10:29:53.902Z</time></trkpt><trkpt lat="43.01787814078194" lon="2.3236075055957675"><ele>739.0</ele><time>2026-04-05T10:29:54.901Z</time></trkpt><trkpt lat="43.01787123423795" lon="2.323821338228551"><ele>739.0</ele><time>2026-04-05T10:29:55.901Z</time></trkpt><trkpt lat="43.017854133567354" lon="2.324044620904149"><ele>739.0</ele><time>2026-04-05T10:29:56.902Z</time></trkpt><trkpt lat="43.017869332175245" lon="2.3242644080194435"><ele>741.0</ele><time>2026-04-05T10:29:57.902Z</time></trkpt><trkpt lat="43.017891338553284" lon="2.32443271483917"><ele>743.0</ele><time>2026-04-05T10:29:58.902Z</time></trkpt><trkpt lat="43.01797005379387" lon="2.3245900062451255"><ele>745.0</ele><time>2026-04-05T10:29:59.902Z</time></trkpt><trkpt lat="43.018071777281286" lon="2.3247193155152988"><ele>747.0</ele><time>2026-04-05T10:30:00.902Z</time></trkpt><trkpt lat="43.0181692233119" lon="2.3248580406083366"><ele>747.75</ele><time>2026-04-05T10:30:01.902Z</time></trkpt><trkpt lat="43.018215436899915" lon="2.324983117256661"><ele>748.5</ele><time>2026-04-05T10:30:02.902Z</time></trkpt><trkpt lat="43.0182023640418" lon="2.3251380737778424"><ele>749.25</ele><time>2026-04-05T10:30:03.902Z</time></trkpt><trkpt lat="43.01813085244397" lon="2.325276646145406"><ele>750.0</ele><time>2026-04-05T10:30:04.902Z</time></trkpt><trkpt lat="43.0180176143114" lon="2.325426033066401"><ele>750.0</ele><time>2026-04-05T10:30:05.902Z</time></trkpt><trkpt lat="43.01787386229299" lon="2.3255461020777064"><ele>750.0</ele><time>2026-04-05T10:30:06.902Z</time></trkpt><trkpt lat="43.01771633440979" lon="2.325656125436963"><ele>750.0</ele><time>2026-04-05T10:30:07.902Z</time></trkpt><trkpt lat="43.01756423881808" lon="2.325756509379172"><ele>755.6666666666666</ele><time>2026-04-05T10:30:08.902Z</time></trkpt><trkpt lat="43.01740250508987" lon="2.32586317843565"><ele>761.3333333333333</ele><time>2026-04-05T10:30:09.902Z</time></trkpt><trkpt lat="43.017237606296526" lon="2.3258940371076147"><ele>767.0</ele><time>2026-04-05T10:30:10.902Z</time></trkpt><trkpt lat="43.01709264025702" lon="2.325893626127959"><ele>767.0</ele><time>2026-04-05T10:30:11.902Z</time></trkpt><trkpt lat="43.01693245238611" lon="2.3258555096576243"><ele>767.0</ele><time>2026-04-05T10:30:12.902Z</time></trkpt><trkpt lat="43.01677080661844" lon="2.3258119549707867"><ele>767.0</ele><time>2026-04-05T10:30:13.902Z</time></trkpt><trkpt lat="43.016571262418005" lon="2.325775653560111"><ele>772.3333333333333</ele><time>2026-04-05T10:30:14.902Z</time></trkpt><trkpt lat="43.01636821742119" lon="2.325782683632833"><ele>777.6666666666666</ele><time>2026-04-05T10:30:15.902Z</time></trkpt><trkpt lat="43.01618040803338" lon="2.3257692762620943"><ele>783.0</ele><time>2026-04-05T10:30:16.902Z</time></trkpt><trkpt lat="43.01600811548528" lon="2.3257663599663787"><ele>783.0</ele><time>2026-04-05T10:30:17.902Z</time></trkpt><trkpt lat="43.015888132588195" lon="2.3257255430897246"><ele>783.0</ele><time>2026-04-05T10:30:18.902Z</time></trkpt><trkpt lat="43.015811582428746" lon="2.32562143382892"><ele>783.0</ele><time>2026-04-05T10:30:19.902Z</time></trkpt><trkpt lat="43.015767310453256" lon="2.325485259495785"><ele>783.0</ele><time>2026-04-05T10:30:20.902Z</time></trkpt><trkpt lat="43.01571053780805" lon="2.3252702701517673"><ele>785.0</ele><time>2026-04-05T10:30:21.902Z</time></trkpt><trkpt lat="43.015669752985076" lon="2.3250564362712"><ele>787.0</ele><time>2026-04-05T10:30:22.902Z</time></trkpt><trkpt lat="43.01561460550221" lon="2.3249013387575768"><ele>789.0</ele><time>2026-04-05T10:30:23.902Z</time></trkpt><trkpt lat="43.015533984991706" lon="2.3248071364693295"><ele>791.0</ele><time>2026-04-05T10:30:24.902Z</time></trkpt><trkpt lat="43.0154132309092" lon="2.3247495562285287"><ele>792.3333333333334</ele><time>2026-04-05T10:30:25.902Z</time></trkpt><trkpt lat="43.015260893151925" lon="2.3247158280089195"><ele>793.6666666666667</ele><time>2026-04-05T10:30:26.902Z</time></trkpt><trkpt lat="43.01509642129451" lon="2.3246200061825384"><ele>795.0</ele><time>2026-04-05T10:30:27.902Z</time></trkpt><trkpt lat="43.01491693870918" lon="2.3245207800265106"><ele>795.0</ele><time>2026-04-05T10:30:28.902Z</time></trkpt><trkpt lat="43.01473859508009" lon="2.324411129918004"><ele>795.0</ele><time>2026-04-05T10:30:29.902Z</time></trkpt><trkpt lat="43.01455475699998" lon="2.3243265534150406"><ele>795.0</ele><time>2026-04-05T10:30:30.902Z</time></trkpt><trkpt lat="43.01435859640267" lon="2.3242682334519387"><ele>795.0</ele><time>2026-04-05T10:30:31.902Z</time></trkpt><trkpt lat="43.014167888914876" lon="2.3242379993178552"><ele>795.0</ele><time>2026-04-05T10:30:32.902Z</time></trkpt><trkpt lat="43.014035846298164" lon="2.3242451804146054"><ele>795.0</ele><time>2026-04-05T10:30:33.903Z</time></trkpt><trkpt lat="43.01393636389438" lon="2.324293953300398"><ele>795.0</ele><time>2026-04-05T10:30:34.903Z</time></trkpt><trkpt lat="43.01385223703727" lon="2.3244000810809577"><ele>795.0</ele><time>2026-04-05T10:30:35.903Z</time></trkpt><trkpt lat="43.013752742263044" lon="2.324536169220623"><ele>795.0</ele><time>2026-04-05T10:30:36.903Z</time></trkpt><trkpt lat="43.013650923818254" lon="2.324704245036545"><ele>795.0</ele><time>2026-04-05T10:30:37.903Z</time></trkpt><trkpt lat="43.01355874466358" lon="2.3248709465878266"><ele>796.0</ele><time>2026-04-05T10:30:38.903Z</time></trkpt><trkpt lat="43.01350387198954" lon="2.3250140128853514"><ele>797.0</ele><time>2026-04-05T10:30:39.903Z</time></trkpt><trkpt lat="43.0134975255509" lon="2.3251471091996745"><ele>798.0</ele><time>2026-04-05T10:30:40.903Z</time></trkpt><trkpt lat="43.013524396901175" lon="2.325262423566178"><ele>799.0</ele><time>2026-04-05T10:30:41.903Z</time></trkpt><trkpt lat="43.013577382005636" lon="2.3253713137699115"><ele>800.0</ele><time>2026-04-05T10:30:42.903Z</time></trkpt><trkpt lat="43.01367682417435" lon="2.3254562640372503"><ele>801.0</ele><time>2026-04-05T10:30:43.903Z</time></trkpt><trkpt lat="43.0137732082897" lon="2.3255811402856805"><ele>802.0</ele><time>2026-04-05T10:30:44.903Z</time></trkpt><trkpt lat="43.01389189852183" lon="2.3257175089208615"><ele>803.0</ele><time>2026-04-05T10:30:45.903Z</time></trkpt><trkpt lat="43.01402023685041" lon="2.3258565486423244"><ele>803.0</ele><time>2026-04-05T10:30:46.903Z</time></trkpt><trkpt lat="43.014133597783555" lon="2.326033045313509"><ele>803.0</ele><time>2026-04-05T10:30:47.903Z</time></trkpt><trkpt lat="43.01427095872946" lon="2.326177364217783"><ele>803.0</ele><time>2026-04-05T10:30:48.903Z</time></trkpt><trkpt lat="43.014419667106345" lon="2.32630453786107"><ele>804.0</ele><time>2026-04-05T10:30:49.903Z</time></trkpt><trkpt lat="43.01459403762975" lon="2.32644731338025"><ele>805.0</ele><time>2026-04-05T10:30:50.903Z</time></trkpt><trkpt lat="43.014764840198325" lon="2.3265979900216816"><ele>806.0</ele><time>2026-04-05T10:30:51.903Z</time></trkpt><trkpt lat="43.01491444323885" lon="2.326728372830518"><ele>806.0</ele><time>2026-04-05T10:30:52.903Z</time></trkpt><trkpt lat="43.01503883912779" lon="2.326859343776654"><ele>806.0</ele><time>2026-04-05T10:30:53.903Z</time></trkpt><trkpt lat="43.0151357018074" lon="2.327016310945668"><ele>806.0</ele><time>2026-04-05T10:30:54.903Z</time></trkpt><trkpt lat="43.015206862452324" lon="2.3271797709063904"><ele>806.0</ele><time>2026-04-05T10:30:55.903Z</time></trkpt><trkpt lat="43.01524618017394" lon="2.327353542712949"><ele>806.0</ele><time>2026-04-05T10:30:56.903Z</time></trkpt><trkpt lat="43.01523487679894" lon="2.3275268785069443"><ele>806.0</ele><time>2026-04-05T10:30:57.903Z</time></trkpt><trkpt lat="43.01516932215013" lon="2.3277019146179487"><ele>806.0</ele><time>2026-04-05T10:30:58.903Z</time></trkpt><trkpt lat="43.01512157597957" lon="2.3279357189325753"><ele>806.0</ele><time>2026-04-05T10:30:59.903Z</time></trkpt><trkpt lat="43.01511493764729" lon="2.328219464374598"><ele>804.0</ele><time>2026-04-05T10:31:00.903Z</time></trkpt><trkpt lat="43.015124529778106" lon="2.3285430684016633"><ele>802.0</ele><time>2026-04-05T10:31:01.903Z</time></trkpt><trkpt lat="43.01515569473312" lon="2.3288597391446704"><ele>798.0</ele><time>2026-04-05T10:31:02.903Z</time></trkpt><trkpt lat="43.01519366026908" lon="2.329211734760717"><ele>794.0</ele><time>2026-04-05T10:31:03.903Z</time></trkpt><trkpt lat="43.01523655641584" lon="2.329586927979235"><ele>791.0</ele><time>2026-04-05T10:31:04.903Z</time></trkpt><trkpt lat="43.01525087278525" lon="2.3299239099143154"><ele>788.0</ele><time>2026-04-05T10:31:05.903Z</time></trkpt><trkpt lat="43.015227775841474" lon="2.3302335382337827"><ele>788.0</ele><time>2026-04-05T10:31:06.903Z</time></trkpt><trkpt lat="43.01519262428861" lon="2.3305192934022827"><ele>788.0</ele><time>2026-04-05T10:31:07.903Z</time></trkpt><trkpt lat="43.01518463111829" lon="2.3307428656844453"><ele>788.0</ele><time>2026-04-05T10:31:08.903Z</time></trkpt><trkpt lat="43.01521301329792" lon="2.3309282745947746"><ele>785.3333333333334</ele><time>2026-04-05T10:31:09.903Z</time></trkpt><trkpt lat="43.01525375750008" lon="2.3311255895170295"><ele>782.6666666666667</ele><time>2026-04-05T10:31:10.903Z</time></trkpt><trkpt lat="43.015366050800175" lon="2.3313417150715536"><ele>780.0</ele><time>2026-04-05T10:31:11.903Z</time></trkpt><trkpt lat="43.01542898403722" lon="2.3315999258564344"><ele>775.3333333333334</ele><time>2026-04-05T10:31:12.903Z</time></trkpt><trkpt lat="43.01545699313426" lon="2.331834437099999"><ele>770.6666666666667</ele><time>2026-04-05T10:31:13.903Z</time></trkpt><trkpt lat="43.01543962324538" lon="2.332071073993979"><ele>766.0</ele><time>2026-04-05T10:31:14.903Z</time></trkpt><trkpt lat="43.015414129999364" lon="2.3324043365331724"><ele>763.6666666666667</ele><time>2026-04-05T10:31:15.903Z</time></trkpt><trkpt lat="43.015395614513174" lon="2.332729814850099"><ele>761.3333333333334</ele><time>2026-04-05T10:31:16.903Z</time></trkpt><trkpt lat="43.01538340374149" lon="2.333005336483903"><ele>759.0</ele><time>2026-04-05T10:31:17.903Z</time></trkpt><trkpt lat="43.01537322705577" lon="2.3332016366352946"><ele>758.5</ele><time>2026-04-05T10:31:18.903Z</time></trkpt><trkpt lat="43.01537765322893" lon="2.3333516966013836"><ele>758.0</ele><time>2026-04-05T10:31:19.903Z</time></trkpt><trkpt lat="43.0153945317329" lon="2.3334709558485947"><ele>757.5</ele><time>2026-04-05T10:31:20.903Z</time></trkpt><trkpt lat="43.015446304966666" lon="2.3336162165752636"><ele>757.0</ele><time>2026-04-05T10:31:21.903Z</time></trkpt><trkpt lat="43.01561801942589" lon="2.333734147207553"><ele>756.5</ele><time>2026-04-05T10:31:22.903Z</time></trkpt><trkpt lat="43.01569845610921" lon="2.333924443188887"><ele>756.0</ele><time>2026-04-05T10:31:23.904Z</time></trkpt><trkpt lat="43.0157470255227" lon="2.334104491743844"><ele>755.5</ele><time>2026-04-05T10:31:24.904Z</time></trkpt><trkpt lat="43.01576061276098" lon="2.3342925179642284"><ele>755.0</ele><time>2026-04-05T10:31:25.904Z</time></trkpt><trkpt lat="43.01573789242328" lon="2.334517551724569"><ele>754.6666666666666</ele><time>2026-04-05T10:31:26.904Z</time></trkpt><trkpt lat="43.01567575914468" lon="2.334808709329227"><ele>754.3333333333334</ele><time>2026-04-05T10:31:27.904Z</time></trkpt><trkpt lat="43.015589974607245" lon="2.335073183409248"><ele>754.0</ele><time>2026-04-05T10:31:28.904Z</time></trkpt><trkpt lat="43.01551436120816" lon="2.3353279542436134"><ele>754.3333333333334</ele><time>2026-04-05T10:31:29.904Z</time></trkpt><trkpt lat="43.01544439708009" lon="2.3355833613760955"><ele>754.6666666666666</ele><time>2026-04-05T10:31:30.904Z</time></trkpt><trkpt lat="43.01537092906781" lon="2.3358432167149377"><ele>755.0</ele><time>2026-04-05T10:31:31.904Z</time></trkpt><trkpt lat="43.01531110196374" lon="2.33606604119188"><ele>755.0</ele><time>2026-04-05T10:31:32.904Z</time></trkpt><trkpt lat="43.0152681760664" lon="2.3362554585935817"><ele>755.0</ele><time>2026-04-05T10:31:33.904Z</time></trkpt><trkpt lat="43.015257381869986" lon="2.3364521222035006"><ele>755.0</ele><time>2026-04-05T10:31:34.904Z</time></trkpt><trkpt lat="43.01529526954484" lon="2.336651548162424"><ele>755.0</ele><time>2026-04-05T10:31:35.904Z</time></trkpt><trkpt lat="43.015360290152316" lon="2.3368709089586566"><ele>753.0</ele><time>2026-04-05T10:31:36.904Z</time></trkpt><trkpt lat="43.01542453761288" lon="2.337117302183045"><ele>751.0</ele><time>2026-04-05T10:31:37.904Z</time></trkpt><trkpt lat="43.015498442647775" lon="2.3373805335261246"><ele>749.0</ele><time>2026-04-05T10:31:38.904Z</time></trkpt><trkpt lat="43.01556702837202" lon="2.3376647133855912"><ele>745.0</ele><time>2026-04-05T10:31:39.904Z</time></trkpt><trkpt lat="43.015615422829114" lon="2.3379400153535648"><ele>741.0</ele><time>2026-04-05T10:31:40.904Z</time></trkpt><trkpt lat="43.01565263896725" lon="2.338185951057817"><ele>737.0</ele><time>2026-04-05T10:31:41.904Z</time></trkpt><trkpt lat="43.01568659216613" lon="2.3384187099727494"><ele>736.0</ele><time>2026-04-05T10:31:42.904Z</time></trkpt><trkpt lat="43.015710683046215" lon="2.3386418490796843"><ele>735.0</ele><time>2026-04-05T10:31:43.904Z</time></trkpt><trkpt lat="43.0157306541895" lon="2.33887974633802"><ele>734.0</ele><time>2026-04-05T10:31:44.904Z</time></trkpt><trkpt lat="43.01573779496845" lon="2.3391151732417894"><ele>734.0</ele><time>2026-04-05T10:31:45.904Z</time></trkpt><trkpt lat="43.01571677801678" lon="2.339311947535817"><ele>734.0</ele><time>2026-04-05T10:31:46.904Z</time></trkpt><trkpt lat="43.015674298625555" lon="2.339514239816525"><ele>734.0</ele><time>2026-04-05T10:31:47.904Z</time></trkpt><trkpt lat="43.015618265265346" lon="2.339762061697661"><ele>732.5</ele><time>2026-04-05T10:31:48.904Z</time></trkpt><trkpt lat="43.01556281648868" lon="2.3399501143760415"><ele>731.0</ele><time>2026-04-05T10:31:49.904Z</time></trkpt><trkpt lat="43.01548870213311" lon="2.3401448877497986"><ele>729.5</ele><time>2026-04-05T10:31:50.9Z</time></trkpt><trkpt lat="43.015417141872675" lon="2.3402685883471497"><ele>728.0</ele><time>2026-04-05T10:31:51.9Z</time></trkpt><trkpt lat="43.01532381307868" lon="2.340330891109942"><ele>728.0</ele><time>2026-04-05T10:31:52.9Z</time></trkpt><trkpt lat="43.01521131395229" lon="2.340345687070849"><ele>728.0</ele><time>2026-04-05T10:31:53.9Z</time></trkpt><trkpt lat="43.015073804112745" lon="2.3403170402722333"><ele>728.0</ele><time>2026-04-05T10:31:54.899Z</time></trkpt><trkpt lat="43.01491393042938" lon="2.3402829125157667"><ele>728.0</ele><time>2026-04-05T10:31:55.899Z</time></trkpt><trkpt lat="43.014786902779605" lon="2.340246036416653"><ele>724.5</ele><time>2026-04-05T10:31:56.899Z</time></trkpt><trkpt lat="43.01469043141777" lon="2.340288393539133"><ele>721.0</ele><time>2026-04-05T10:31:57.899Z</time></trkpt><trkpt lat="43.01459708020443" lon="2.340381220476607"><ele>717.5</ele><time>2026-04-05T10:31:58.899Z</time></trkpt><trkpt lat="43.01452003504924" lon="2.3405477926344367"><ele>714.0</ele><time>2026-04-05T10:31:59.899Z</time></trkpt><trkpt lat="43.01447082390617" lon="2.3407558352674442"><ele>714.0</ele><time>2026-04-05T10:32:00.899Z</time></trkpt><trkpt lat="43.01442995958173" lon="2.3409889685030603"><ele>714.0</ele><time>2026-04-05T10:32:01.899Z</time></trkpt><trkpt lat="43.01440398219297" lon="2.341245234274665"><ele>714.0</ele><time>2026-04-05T10:32:02.9Z</time></trkpt><trkpt lat="43.014385665413485" lon="2.3415243340176417"><ele>712.5</ele><time>2026-04-05T10:32:03.899Z</time></trkpt><trkpt lat="43.014370273180106" lon="2.341834796865974"><ele>711.0</ele><time>2026-04-05T10:32:04.899Z</time></trkpt><trkpt lat="43.01435146516167" lon="2.3421602914676933"><ele>708.0</ele><time>2026-04-05T10:32:05.899Z</time></trkpt><trkpt lat="43.01433799257348" lon="2.3425007778327074"><ele>705.0</ele><time>2026-04-05T10:32:06.899Z</time></trkpt><trkpt lat="43.01432423102338" lon="2.342840918178598"><ele>703.6666666666666</ele><time>2026-04-05T10:32:07.899Z</time></trkpt><trkpt lat="43.01430075565898" lon="2.3431601267038573"><ele>702.3333333333333</ele><time>2026-04-05T10:32:08.899Z</time></trkpt><trkpt lat="43.01428007601866" lon="2.3434262407159343"><ele>701.0</ele><time>2026-04-05T10:32:09.899Z</time></trkpt><trkpt lat="43.01427419699175" lon="2.343707713442182"><ele>699.0</ele><time>2026-04-05T10:32:10.899Z</time></trkpt><trkpt lat="43.01428526409882" lon="2.3440395455176546"><ele>697.0</ele><time>2026-04-05T10:32:11.899Z</time></trkpt><trkpt lat="43.014236340168154" lon="2.344335947898143"><ele>697.0</ele><time>2026-04-05T10:32:12.899Z</time></trkpt><trkpt lat="43.01418677901322" lon="2.3446220623034013"><ele>697.0</ele><time>2026-04-05T10:32:13.899Z</time></trkpt><trkpt lat="43.014107311808395" lon="2.344907190613349"><ele>697.0</ele><time>2026-04-05T10:32:14.899Z</time></trkpt><trkpt lat="43.01401974212102" lon="2.3452005127382383"><ele>692.0</ele><time>2026-04-05T10:32:15.899Z</time></trkpt><trkpt lat="43.013928101004964" lon="2.345503947436286"><ele>687.0</ele><time>2026-04-05T10:32:16.899Z</time></trkpt><trkpt lat="43.01383239432634" lon="2.3458036583693107"><ele>687.0</ele><time>2026-04-05T10:32:17.899Z</time></trkpt><trkpt lat="43.0137277629793" lon="2.346119324548372"><ele>687.0</ele><time>2026-04-05T10:32:18.899Z</time></trkpt><trkpt lat="43.01361894244586" lon="2.346446743077579"><ele>689.0</ele><time>2026-04-05T10:32:19.899Z</time></trkpt><trkpt lat="43.01349395624356" lon="2.346790130117846"><ele>691.0</ele><time>2026-04-05T10:32:20.899Z</time></trkpt><trkpt lat="43.01336225516052" lon="2.347154086508642"><ele>692.5</ele><time>2026-04-05T10:32:21.899Z</time></trkpt><trkpt lat="43.01322872229751" lon="2.347507288243975"><ele>694.0</ele><time>2026-04-05T10:32:22.899Z</time></trkpt><trkpt lat="43.013117550095046" lon="2.347806327013299"><ele>694.3333333333334</ele><time>2026-04-05T10:32:23.899Z</time></trkpt><trkpt lat="43.013030152010174" lon="2.3480773682488083"><ele>694.6666666666666</ele><time>2026-04-05T10:32:24.899Z</time></trkpt><trkpt lat="43.01289725972849" lon="2.348298465288142"><ele>695.0</ele><time>2026-04-05T10:32:25.899Z</time></trkpt><trkpt lat="43.01277165065712" lon="2.3485569201521823"><ele>695.0</ele><time>2026-04-05T10:32:26.899Z</time></trkpt><trkpt lat="43.01265907156709" lon="2.348808491120824"><ele>695.0</ele><time>2026-04-05T10:32:27.899Z</time></trkpt><trkpt lat="43.01258649373834" lon="2.349047567536253"><ele>695.0</ele><time>2026-04-05T10:32:28.899Z</time></trkpt><trkpt lat="43.012521545556304" lon="2.349311424669393"><ele>693.0</ele><time>2026-04-05T10:32:29.899Z</time></trkpt><trkpt lat="43.012472107021566" lon="2.3496069337914984"><ele>691.0</ele><time>2026-04-05T10:32:30.899Z</time></trkpt><trkpt lat="43.012390212404114" lon="2.34989059251505"><ele>689.0</ele><time>2026-04-05T10:32:31.899Z</time></trkpt><trkpt lat="43.01227908317201" lon="2.350171498261401"><ele>689.0</ele><time>2026-04-05T10:32:32.899Z</time></trkpt><trkpt lat="43.012133587766236" lon="2.3504405080363235"><ele>689.0</ele><time>2026-04-05T10:32:33.899Z</time></trkpt><trkpt lat="43.011965542745365" lon="2.3506942881721113"><ele>687.0</ele><time>2026-04-05T10:32:34.899Z</time></trkpt><trkpt lat="43.01179360000342" lon="2.3509385806899106"><ele>685.0</ele><time>2026-04-05T10:32:35.899Z</time></trkpt><trkpt lat="43.01161783526004" lon="2.3511926054819354"><ele>689.5</ele><time>2026-04-05T10:32:36.899Z</time></trkpt><trkpt lat="43.01144635146479" lon="2.3514429253943"><ele>694.0</ele><time>2026-04-05T10:32:37.899Z</time></trkpt><trkpt lat="43.01128453370263" lon="2.351688936093869"><ele>694.0</ele><time>2026-04-05T10:32:38.899Z</time></trkpt><trkpt lat="43.01112197768912" lon="2.3519291133859337"><ele>694.0</ele><time>2026-04-05T10:32:39.899Z</time></trkpt><trkpt lat="43.01095052366383" lon="2.352151113265242"><ele>699.5</ele><time>2026-04-05T10:32:40.899Z</time></trkpt><trkpt lat="43.010754359060705" lon="2.3523145413806694"><ele>705.0</ele><time>2026-04-05T10:32:41.9Z</time></trkpt><trkpt lat="43.01054038535019" lon="2.3524508503195443"><ele>705.0</ele><time>2026-04-05T10:32:42.9Z</time></trkpt><trkpt lat="43.01032325208365" lon="2.3525814282216295"><ele>705.0</ele><time>2026-04-05T10:32:43.9Z</time></trkpt><trkpt lat="43.01009802343104" lon="2.3527073092953095"><ele>704.0</ele><time>2026-04-05T10:32:44.9Z</time></trkpt><trkpt lat="43.009862198645074" lon="2.352835242954886"><ele>703.0</ele><time>2026-04-05T10:32:45.9Z</time></trkpt><trkpt lat="43.00967969464247" lon="2.3529212867808798"><ele>702.0</ele><time>2026-04-05T10:32:46.9Z</time></trkpt><trkpt lat="43.009448050560515" lon="2.353001666447096"><ele>711.0</ele><time>2026-04-05T10:32:47.9Z</time></trkpt><trkpt lat="43.009152745860895" lon="2.353090882258861"><ele>720.0</ele><time>2026-04-05T10:32:48.9Z</time></trkpt><trkpt lat="43.008927101098465" lon="2.3531564637400173"><ele>720.0</ele><time>2026-04-05T10:32:49.9Z</time></trkpt><trkpt lat="43.008691463969924" lon="2.3532265934393277"><ele>720.0</ele><time>2026-04-05T10:32:50.9Z</time></trkpt><trkpt lat="43.00845027389909" lon="2.3533012104075435"><ele>721.0</ele><time>2026-04-05T10:32:51.9Z</time></trkpt><trkpt lat="43.00820957880271" lon="2.353366489033475"><ele>722.0</ele><time>2026-04-05T10:32:52.9Z</time></trkpt><trkpt lat="43.00796978908531" lon="2.3534313828808515"><ele>722.0</ele><time>2026-04-05T10:32:53.9Z</time></trkpt><trkpt lat="43.007721205873885" lon="2.3535009320660967"><ele>722.0</ele><time>2026-04-05T10:32:54.9Z</time></trkpt><trkpt lat="43.007479653331394" lon="2.3535628427386475"><ele>724.0</ele><time>2026-04-05T10:32:55.9Z</time></trkpt><trkpt lat="43.007235495629466" lon="2.3536154162252703"><ele>726.0</ele><time>2026-04-05T10:32:56.9Z</time></trkpt><trkpt lat="43.0069879298596" lon="2.353651880639995"><ele>726.0</ele><time>2026-04-05T10:32:57.9Z</time></trkpt><trkpt lat="43.00673829561831" lon="2.3536657898485185"><ele>726.0</ele><time>2026-04-05T10:32:58.9Z</time></trkpt><trkpt lat="43.00650964542335" lon="2.3536717617303045"><ele>726.6666666666666</ele><time>2026-04-05T10:32:59.9Z</time></trkpt><trkpt lat="43.00631092121928" lon="2.353674609634384"><ele>727.3333333333333</ele><time>2026-04-05T10:33:00.9Z</time></trkpt><trkpt lat="43.00607711020847" lon="2.3536780535432427"><ele>728.0</ele><time>2026-04-05T10:33:01.9Z</time></trkpt><trkpt lat="43.00583654309715" lon="2.3537123243713682"><ele>728.5</ele><time>2026-04-05T10:33:02.9Z</time></trkpt><trkpt lat="43.00560492411003" lon="2.3537272197467587"><ele>729.0</ele><time>2026-04-05T10:33:03.9Z</time></trkpt><trkpt lat="43.00537663461213" lon="2.353751199504764"><ele>729.0</ele><time>2026-04-05T10:33:04.9Z</time></trkpt><trkpt lat="43.00515135302597" lon="2.35377879411878"><ele>729.0</ele><time>2026-04-05T10:33:05.9Z</time></trkpt><trkpt lat="43.0049482524327" lon="2.3538152831477466"><ele>729.0</ele><time>2026-04-05T10:33:06.9Z</time></trkpt><trkpt lat="43.00477780002688" lon="2.353858310322408"><ele>731.5</ele><time>2026-04-05T10:33:07.9Z</time></trkpt><trkpt lat="43.0046366349405" lon="2.353923009069223"><ele>734.0</ele><time>2026-04-05T10:33:08.9Z</time></trkpt><trkpt lat="43.004516252579236" lon="2.353998227440011"><ele>736.5</ele><time>2026-04-05T10:33:09.9Z</time></trkpt><trkpt lat="43.00438431150688" lon="2.354123515074441"><ele>739.0</ele><time>2026-04-05T10:33:10.9Z</time></trkpt><trkpt lat="43.00426956729776" lon="2.3543373433950294"><ele>735.0</ele><time>2026-04-05T10:33:11.9Z</time></trkpt><trkpt lat="43.00412268617658" lon="2.35451129166438"><ele>731.0</ele><time>2026-04-05T10:33:12.9Z</time></trkpt><trkpt lat="43.003991758122154" lon="2.354677796006209"><ele>727.0</ele><time>2026-04-05T10:33:13.9Z</time></trkpt><trkpt lat="43.003881153379645" lon="2.354846929807688"><ele>727.0</ele><time>2026-04-05T10:33:14.9Z</time></trkpt><trkpt lat="43.003772414808886" lon="2.354991650345728"><ele>727.0</ele><time>2026-04-05T10:33:15.9Z</time></trkpt><trkpt lat="43.00364099314524" lon="2.355096012806047"><ele>727.0</ele><time>2026-04-05T10:33:16.9Z</time></trkpt><trkpt lat="43.00348707218391" lon="2.355212559220753"><ele>727.0</ele><time>2026-04-05T10:33:17.9Z</time></trkpt><trkpt lat="43.003290754805306" lon="2.355323388763137"><ele>727.0</ele><time>2026-04-05T10:33:18.9Z</time></trkpt><trkpt lat="43.00307491070529" lon="2.3554503453217035"><ele>727.0</ele><time>2026-04-05T10:33:19.9Z</time></trkpt><trkpt lat="43.00285984346308" lon="2.3555708432408085"><ele>727.0</ele><time>2026-04-05T10:33:20.9Z</time></trkpt><trkpt lat="43.002654088873456" lon="2.35569320720652"><ele>727.0</ele><time>2026-04-05T10:33:21.9Z</time></trkpt><trkpt lat="43.00246843953449" lon="2.355794316557083"><ele>727.0</ele><time>2026-04-05T10:33:22.9Z</time></trkpt><trkpt lat="43.00231347656542" lon="2.3558499038932994"><ele>722.3333333333334</ele><time>2026-04-05T10:33:23.9Z</time></trkpt><trkpt lat="43.00219840933864" lon="2.3559368335683954"><ele>717.6666666666666</ele><time>2026-04-05T10:33:24.9Z</time></trkpt><trkpt lat="43.0020827244928" lon="2.3560713268660076"><ele>713.0</ele><time>2026-04-05T10:33:25.9Z</time></trkpt><trkpt lat="43.00195134932538" lon="2.356250223435846"><ele>713.0</ele><time>2026-04-05T10:33:26.9Z</time></trkpt><trkpt lat="43.001822534377595" lon="2.356452403931086"><ele>713.0</ele><time>2026-04-05T10:33:27.9Z</time></trkpt><trkpt lat="43.001698933092456" lon="2.356629325773122"><ele>713.0</ele><time>2026-04-05T10:33:28.9Z</time></trkpt><trkpt lat="43.00157918869032" lon="2.356753422135182"><ele>713.0</ele><time>2026-04-05T10:33:29.9Z</time></trkpt><trkpt lat="43.001436856465915" lon="2.356793533041483"><ele>713.0</ele><time>2026-04-05T10:33:30.901Z</time></trkpt><trkpt lat="43.001302612521236" lon="2.3568554027233946"><ele>713.0</ele><time>2026-04-05T10:33:31.901Z</time></trkpt><trkpt lat="43.001147933860835" lon="2.356869810193679"><ele>713.0</ele><time>2026-04-05T10:33:32.901Z</time></trkpt><trkpt lat="43.000970458335225" lon="2.3568843750135633"><ele>714.0</ele><time>2026-04-05T10:33:33.901Z</time></trkpt><trkpt lat="43.000795152044454" lon="2.3568912211414443"><ele>715.0</ele><time>2026-04-05T10:33:34.901Z</time></trkpt><trkpt lat="43.000616400304224" lon="2.3568875972547465"><ele>716.0</ele><time>2026-04-05T10:33:35.901Z</time></trkpt><trkpt lat="43.00044808361532" lon="2.356865767103392"><ele>716.0</ele><time>2026-04-05T10:33:36.901Z</time></trkpt><trkpt lat="43.00027258839579" lon="2.3568537435472114"><ele>716.0</ele><time>2026-04-05T10:33:37.901Z</time></trkpt><trkpt lat="43.00010722438721" lon="2.356835786887722"><ele>716.0</ele><time>2026-04-05T10:33:38.901Z</time></trkpt><trkpt lat="42.999972026958865" lon="2.356824116548746"><ele>716.0</ele><time>2026-04-05T10:33:39.901Z</time></trkpt><trkpt lat="42.999846054239335" lon="2.3568064682139025"><ele>716.0</ele><time>2026-04-05T10:33:40.901Z</time></trkpt><trkpt lat="42.999729293560094" lon="2.3567843313888264"><ele>716.0</ele><time>2026-04-05T10:33:41.901Z</time></trkpt><trkpt lat="42.99962177969419" lon="2.35676796829721"><ele>716.0</ele><time>2026-04-05T10:33:42.901Z</time></trkpt><trkpt lat="42.99952405312642" lon="2.3567556655192137"><ele>716.0</ele><time>2026-04-05T10:33:43.901Z</time></trkpt><trkpt lat="42.9994443904445" lon="2.356753092946855"><ele>716.0</ele><time>2026-04-05T10:33:44.901Z</time></trkpt><trkpt lat="42.9993472083676" lon="2.356706791201637"><ele>716.0</ele><time>2026-04-05T10:33:46.901Z</time></trkpt><trkpt lat="42.99945285719246" lon="2.3566363642720853"><ele>716.0</ele><time>2026-04-05T10:33:49.901Z</time></trkpt><trkpt lat="42.999557485286694" lon="2.3566533831801557"><ele>716.0</ele><time>2026-04-05T10:33:50.901Z</time></trkpt><trkpt lat="42.99970286842177" lon="2.3566829622444816"><ele>716.0</ele><time>2026-04-05T10:33:51.901Z</time></trkpt><trkpt lat="42.99988277648873" lon="2.3568454655885973"><ele>716.0</ele><time>2026-04-05T10:33:52.901Z</time></trkpt><trkpt lat="43.00007730668605" lon="2.3568696447319573"><ele>716.0</ele><time>2026-04-05T10:33:53.901Z</time></trkpt><trkpt lat="43.000308262974364" lon="2.3568909344960804"><ele>716.0</ele><time>2026-04-05T10:33:54.901Z</time></trkpt><trkpt lat="43.00052763621207" lon="2.3569063738281324"><ele>716.0</ele><time>2026-04-05T10:33:55.901Z</time></trkpt><trkpt lat="43.00068263951802" lon="2.356921688224948"><ele>716.0</ele><time>2026-04-05T10:33:56.897Z</time></trkpt><trkpt lat="43.000821927211796" lon="2.356925486485662"><ele>715.25</ele><time>2026-04-05T10:33:57.897Z</time></trkpt><trkpt lat="43.00097578245165" lon="2.3569160750400364"><ele>714.5</ele><time>2026-04-05T10:33:58.897Z</time></trkpt><trkpt lat="43.001133132971795" lon="2.35690015793392"><ele>713.75</ele><time>2026-04-05T10:33:59.897Z</time></trkpt><trkpt lat="43.00120992923866" lon="2.3568747534907843"><ele>713.0</ele><time>2026-04-05T10:34:00.897Z</time></trkpt><trkpt lat="43.00135339097015" lon="2.356826847440729"><ele>713.0</ele><time>2026-04-05T10:34:01.897Z</time></trkpt><trkpt lat="43.00170902564041" lon="2.356572795749685"><ele>713.0</ele><time>2026-04-05T10:34:02.896Z</time></trkpt><trkpt lat="43.00189143610662" lon="2.356260227702429"><ele>713.0</ele><time>2026-04-05T10:34:03.897Z</time></trkpt><trkpt lat="43.001941917130644" lon="2.356088869856891"><ele>713.0</ele><time>2026-04-05T10:34:04.897Z</time></trkpt><trkpt lat="43.00151012135386" lon="2.3552425345983363"><ele>712.2</ele><time>2026-04-05T10:34:05.897Z</time></trkpt><trkpt lat="43.00153859635316" lon="2.3551214523654953"><ele>711.4</ele><time>2026-04-05T10:34:06.897Z</time></trkpt><trkpt lat="43.00152852247243" lon="2.355021159542499"><ele>710.6</ele><time>2026-04-05T10:34:07.897Z</time></trkpt><trkpt lat="43.001470906931246" lon="2.354901699709238"><ele>709.8000000000001</ele><time>2026-04-05T10:34:08.896Z</time></trkpt><trkpt lat="43.001375671590814" lon="2.3547696287774036"><ele>709.0</ele><time>2026-04-05T10:34:09.897Z</time></trkpt><trkpt lat="43.00129869230137" lon="2.3546210272165955"><ele>708.5</ele><time>2026-04-05T10:34:10.897Z</time></trkpt><trkpt lat="43.001280618172004" lon="2.354463249352576"><ele>708.0</ele><time>2026-04-05T10:34:11.897Z</time></trkpt><trkpt lat="43.00129750720179" lon="2.354276534363929"><ele>707.5</ele><time>2026-04-05T10:34:12.897Z</time></trkpt><trkpt lat="43.00132457799509" lon="2.3540352157725053"><ele>707.0</ele><time>2026-04-05T10:34:13.897Z</time></trkpt><trkpt lat="43.00132324826128" lon="2.3537467046507117"><ele>705.6666666666666</ele><time>2026-04-05T10:34:14.897Z</time></trkpt><trkpt lat="43.00129652090708" lon="2.3534497306285567"><ele>704.3333333333334</ele><time>2026-04-05T10:34:15.897Z</time></trkpt><trkpt lat="43.001235623135564" lon="2.3531541159448857"><ele>703.0</ele><time>2026-04-05T10:34:16.897Z</time></trkpt><trkpt lat="43.00115062552798" lon="2.352855181101091"><ele>700.3333333333334</ele><time>2026-04-05T10:34:17.897Z</time></trkpt><trkpt lat="43.00106904053712" lon="2.3525557295062063"><ele>697.6666666666666</ele><time>2026-04-05T10:34:18.897Z</time></trkpt><trkpt lat="43.00101351786579" lon="2.352294512238178"><ele>695.0</ele><time>2026-04-05T10:34:19.897Z</time></trkpt><trkpt lat="43.00096786131677" lon="2.352027294421785"><ele>693.0</ele><time>2026-04-05T10:34:20.897Z</time></trkpt><trkpt lat="43.00093783182886" lon="2.351739569289192"><ele>691.0</ele><time>2026-04-05T10:34:21.897Z</time></trkpt><trkpt lat="43.000918431913554" lon="2.3514517256066636"><ele>689.0</ele><time>2026-04-05T10:34:22.897Z</time></trkpt><trkpt lat="43.00090030989687" lon="2.351171907171273"><ele>687.3333333333333</ele><time>2026-04-05T10:34:23.898Z</time></trkpt><trkpt lat="43.00088317355488" lon="2.3509117496114724"><ele>685.6666666666666</ele><time>2026-04-05T10:34:24.898Z</time></trkpt><trkpt lat="43.000877854243704" lon="2.350680020611807"><ele>684.0</ele><time>2026-04-05T10:34:25.898Z</time></trkpt><trkpt lat="43.000878500418764" lon="2.3504501240598423"><ele>684.0</ele><time>2026-04-05T10:34:26.898Z</time></trkpt><trkpt lat="43.00089087627285" lon="2.3501974360183655"><ele>684.0</ele><time>2026-04-05T10:34:27.898Z</time></trkpt><trkpt lat="43.00092632318171" lon="2.34993221013041"><ele>684.0</ele><time>2026-04-05T10:34:28.898Z</time></trkpt><trkpt lat="43.00096258855785" lon="2.3496756510619714"><ele>684.0</ele><time>2026-04-05T10:34:29.898Z</time></trkpt><trkpt lat="43.00100183755087" lon="2.349417518513627"><ele>684.0</ele><time>2026-04-05T10:34:30.898Z</time></trkpt><trkpt lat="43.00104913958619" lon="2.3491910528566384"><ele>684.0</ele><time>2026-04-05T10:34:31.898Z</time></trkpt><trkpt lat="43.0011264233368" lon="2.3490024058132257"><ele>683.3333333333334</ele><time>2026-04-05T10:34:32.898Z</time></trkpt><trkpt lat="43.00120325375139" lon="2.3487956820419966"><ele>682.6666666666667</ele><time>2026-04-05T10:34:33.898Z</time></trkpt><trkpt lat="43.00128833935758" lon="2.348579743967807"><ele>682.0</ele><time>2026-04-05T10:34:34.898Z</time></trkpt><trkpt lat="43.001409547039195" lon="2.348327563295841"><ele>682.0</ele><time>2026-04-05T10:34:35.898Z</time></trkpt><trkpt lat="43.001532438589734" lon="2.3480920725339645"><ele>682.0</ele><time>2026-04-05T10:34:36.898Z</time></trkpt><trkpt lat="43.0016588581454" lon="2.347859803447915"><ele>682.0</ele><time>2026-04-05T10:34:37.898Z</time></trkpt><trkpt lat="43.001789860372526" lon="2.3476341348886574"><ele>682.0</ele><time>2026-04-05T10:34:38.898Z</time></trkpt><trkpt lat="43.00192178078534" lon="2.3474050492782883"><ele>682.0</ele><time>2026-04-05T10:34:39.898Z</time></trkpt><trkpt lat="43.002045823204405" lon="2.347174572917213"><ele>682.0</ele><time>2026-04-05T10:34:40.898Z</time></trkpt><trkpt lat="43.00216679653359" lon="2.3469357341770642"><ele>682.0</ele><time>2026-04-05T10:34:41.898Z</time></trkpt><trkpt lat="43.002266620647355" lon="2.346712631323731"><ele>682.0</ele><time>2026-04-05T10:34:42.898Z</time></trkpt><trkpt lat="43.0023397501281" lon="2.3464891860422314"><ele>682.0</ele><time>2026-04-05T10:34:43.898Z</time></trkpt><trkpt lat="43.002408238823136" lon="2.3462993064605113"><ele>679.5</ele><time>2026-04-05T10:34:44.898Z</time></trkpt><trkpt lat="43.00245037337817" lon="2.3461080552231577"><ele>677.0</ele><time>2026-04-05T10:34:45.898Z</time></trkpt><trkpt lat="43.002487992806756" lon="2.3459580256358903"><ele>674.5</ele><time>2026-04-05T10:34:46.898Z</time></trkpt><trkpt lat="43.002501710508895" lon="2.3458164661345196"><ele>672.0</ele><time>2026-04-05T10:34:47.898Z</time></trkpt><trkpt lat="43.00245303660286" lon="2.3456676895101394"><ele>672.0</ele><time>2026-04-05T10:34:48.898Z</time></trkpt><trkpt lat="43.00233134517664" lon="2.3455470169121355"><ele>672.0</ele><time>2026-04-05T10:34:49.898Z</time></trkpt><trkpt lat="43.00219976243334" lon="2.3455043894174548"><ele>672.0</ele><time>2026-04-05T10:34:50.898Z</time></trkpt><trkpt lat="43.002056859657955" lon="2.345433731415592"><ele>672.0</ele><time>2026-04-05T10:34:51.898Z</time></trkpt><trkpt lat="43.00189514188242" lon="2.3453665929501657"><ele>665.3333333333334</ele><time>2026-04-05T10:34:52.898Z</time></trkpt><trkpt lat="43.00171508279124" lon="2.3452939300779803"><ele>658.6666666666667</ele><time>2026-04-05T10:34:53.898Z</time></trkpt><trkpt lat="43.00154192063908" lon="2.34522714457879"><ele>652.0</ele><time>2026-04-05T10:34:54.898Z</time></trkpt><trkpt lat="43.00141685255562" lon="2.3451924360017493"><ele>649.0</ele><time>2026-04-05T10:34:55.898Z</time></trkpt><trkpt lat="43.00129792569809" lon="2.3451808005886505"><ele>646.0</ele><time>2026-04-05T10:34:56.898Z</time></trkpt><trkpt lat="43.001152714085954" lon="2.3452086417941946"><ele>643.0</ele><time>2026-04-05T10:34:57.898Z</time></trkpt><trkpt lat="43.0009661767059" lon="2.3453038033026643"><ele>645.0</ele><time>2026-04-05T10:34:58.898Z</time></trkpt><trkpt lat="43.00080922865517" lon="2.3454151546691056"><ele>647.0</ele><time>2026-04-05T10:34:59.898Z</time></trkpt><trkpt lat="43.000671776061175" lon="2.345514140867769"><ele>649.0</ele><time>2026-04-05T10:35:00.898Z</time></trkpt><trkpt lat="43.00058580198021" lon="2.345610255379983"><ele>651.0</ele><time>2026-04-05T10:35:01.898Z</time></trkpt><trkpt lat="43.00049501325301" lon="2.345705724324849"><ele>651.0</ele><time>2026-04-05T10:35:02.898Z</time></trkpt><trkpt lat="43.00041717322395" lon="2.3457580693903304"><ele>651.0</ele><time>2026-04-05T10:35:03.898Z</time></trkpt><trkpt lat="43.00031292376482" lon="2.3457468157622396"><ele>651.0</ele><time>2026-04-05T10:35:05.898Z</time></trkpt><trkpt lat="43.00035066032847" lon="2.3455642661874023"><ele>651.0</ele><time>2026-04-05T10:35:07.898Z</time></trkpt><trkpt lat="43.000432794800496" lon="2.3455586434599436"><ele>651.0</ele><time>2026-04-05T10:35:09.898Z</time></trkpt><trkpt lat="43.00052253342659" lon="2.345413526299164"><ele>652.0</ele><time>2026-04-05T10:35:11.898Z</time></trkpt><trkpt lat="43.00058682318934" lon="2.3452887281561243"><ele>653.0</ele><time>2026-04-05T10:35:12.899Z</time></trkpt><trkpt lat="43.000691259870905" lon="2.3451448094048093"><ele>654.0</ele><time>2026-04-05T10:35:13.899Z</time></trkpt><trkpt lat="43.00080590907425" lon="2.344933744503966"><ele>650.0</ele><time>2026-04-05T10:35:14.899Z</time></trkpt><trkpt lat="43.000876873782104" lon="2.3447035786160955"><ele>646.0</ele><time>2026-04-05T10:35:15.899Z</time></trkpt><trkpt lat="43.00096108582063" lon="2.3445170207735235"><ele>642.0</ele><time>2026-04-05T10:35:16.899Z</time></trkpt><trkpt lat="43.001029729894235" lon="2.344376324461535"><ele>642.0</ele><time>2026-04-05T10:35:17.899Z</time></trkpt><trkpt lat="43.00112628496898" lon="2.344332544811324"><ele>642.0</ele><time>2026-04-05T10:35:18.899Z</time></trkpt><trkpt lat="43.00123740073843" lon="2.3442795354020673"><ele>642.0</ele><time>2026-04-05T10:35:19.899Z</time></trkpt><trkpt lat="43.001348528508466" lon="2.3442726782033696"><ele>642.0</ele><time>2026-04-05T10:35:20.899Z</time></trkpt><trkpt lat="43.00146028378086" lon="2.3443019868434236"><ele>642.0</ele><time>2026-04-05T10:35:21.899Z</time></trkpt><trkpt lat="43.00157665144681" lon="2.3443841206167706"><ele>641.25</ele><time>2026-04-05T10:35:22.899Z</time></trkpt><trkpt lat="43.001708536543944" lon="2.344500369798579"><ele>640.5</ele><time>2026-04-05T10:35:23.899Z</time></trkpt><trkpt lat="43.00184426737591" lon="2.344569595689148"><ele>639.75</ele><time>2026-04-05T10:35:24.899Z</time></trkpt><trkpt lat="43.001967389798814" lon="2.3446079883732054"><ele>639.0</ele><time>2026-04-05T10:35:25.899Z</time></trkpt><trkpt lat="43.00210123630145" lon="2.3445356043181023"><ele>639.0</ele><time>2026-04-05T10:35:26.899Z</time></trkpt><trkpt lat="43.002242771171865" lon="2.344513910360313"><ele>639.0</ele><time>2026-04-05T10:35:27.899Z</time></trkpt><trkpt lat="43.002395694093586" lon="2.344513056140996"><ele>639.0</ele><time>2026-04-05T10:35:28.899Z</time></trkpt><trkpt lat="43.00251342802414" lon="2.3445710164244318"><ele>639.0</ele><time>2026-04-05T10:35:29.899Z</time></trkpt><trkpt lat="43.00262576003382" lon="2.3446246249533935"><ele>640.6666666666666</ele><time>2026-04-05T10:35:30.899Z</time></trkpt><trkpt lat="43.00278163889163" lon="2.3447103683945762"><ele>642.3333333333333</ele><time>2026-04-05T10:35:31.899Z</time></trkpt><trkpt lat="43.002957131646795" lon="2.344770665259929"><ele>644.0</ele><time>2026-04-05T10:35:32.899Z</time></trkpt><trkpt lat="43.00308703613283" lon="2.344772826043958"><ele>644.3333333333333</ele><time>2026-04-05T10:35:33.899Z</time></trkpt><trkpt lat="43.00323672073628" lon="2.3447218120318065"><ele>644.6666666666666</ele><time>2026-04-05T10:35:34.899Z</time></trkpt><trkpt lat="43.00339364557986" lon="2.3446442759631387"><ele>645.0</ele><time>2026-04-05T10:35:35.899Z</time></trkpt><trkpt lat="43.00357468301241" lon="2.344519361437194"><ele>641.5</ele><time>2026-04-05T10:35:36.899Z</time></trkpt><trkpt lat="43.00377645583721" lon="2.344372405106388"><ele>638.0</ele><time>2026-04-05T10:35:37.899Z</time></trkpt><trkpt lat="43.003970952778445" lon="2.3442228900841444"><ele>638.0</ele><time>2026-04-05T10:35:38.899Z</time></trkpt><trkpt lat="43.00416236907397" lon="2.344086665239479"><ele>638.0</ele><time>2026-04-05T10:35:39.899Z</time></trkpt><trkpt lat="43.00433546580268" lon="2.3439244564266697"><ele>638.0</ele><time>2026-04-05T10:35:40.899Z</time></trkpt><trkpt lat="43.004514143041" lon="2.3437408482114725"><ele>637.3333333333333</ele><time>2026-04-05T10:35:41.899Z</time></trkpt><trkpt lat="43.00467959030641" lon="2.3435690313807402"><ele>636.6666666666666</ele><time>2026-04-05T10:35:42.899Z</time></trkpt><trkpt lat="43.00482673226078" lon="2.3434352311070716"><ele>636.0</ele><time>2026-04-05T10:35:43.899Z</time></trkpt><trkpt lat="43.0049194210734" lon="2.34334895961546"><ele>638.6</ele><time>2026-04-05T10:35:44.899Z</time></trkpt><trkpt lat="43.00500701438592" lon="2.34326591936234"><ele>641.2</ele><time>2026-04-05T10:35:45.899Z</time></trkpt><trkpt lat="43.0050403175198" lon="2.343179729473436"><ele>643.8000000000001</ele><time>2026-04-05T10:35:46.899Z</time></trkpt><trkpt lat="43.00499820729488" lon="2.3430556657502657"><ele>646.4000000000001</ele><time>2026-04-05T10:35:47.899Z</time></trkpt><trkpt lat="43.004943518690354" lon="2.34283710277417"><ele>649.0</ele><time>2026-04-05T10:35:48.899Z</time></trkpt><trkpt lat="43.004928425709764" lon="2.342634889212527"><ele>649.0</ele><time>2026-04-05T10:35:49.899Z</time></trkpt><trkpt lat="43.004934893852045" lon="2.342435903733174"><ele>649.0</ele><time>2026-04-05T10:35:50.899Z</time></trkpt><trkpt lat="43.00496740020015" lon="2.3422321399162267"><ele>649.0</ele><time>2026-04-05T10:35:51.899Z</time></trkpt><trkpt lat="43.00502503947356" lon="2.341977237804581"><ele>642.0</ele><time>2026-04-05T10:35:52.899Z</time></trkpt><trkpt lat="43.00505224293507" lon="2.341714119962181"><ele>635.0</ele><time>2026-04-05T10:35:53.899Z</time></trkpt><trkpt lat="43.00508571740647" lon="2.3414655284883654"><ele>628.0</ele><time>2026-04-05T10:35:54.899Z</time></trkpt><trkpt lat="43.005120491333116" lon="2.3412266006359475"><ele>628.0</ele><time>2026-04-05T10:35:55.899Z</time></trkpt><trkpt lat="43.00518742556824" lon="2.341000963280594"><ele>628.0</ele><time>2026-04-05T10:35:56.899Z</time></trkpt><trkpt lat="43.005257921722496" lon="2.340764926733799"><ele>628.0</ele><time>2026-04-05T10:35:57.899Z</time></trkpt><trkpt lat="43.0053719257135" lon="2.3405389911899888"><ele>629.0</ele><time>2026-04-05T10:35:58.899Z</time></trkpt><trkpt lat="43.005451864364886" lon="2.3402793376359856"><ele>630.0</ele><time>2026-04-05T10:35:59.899Z</time></trkpt><trkpt lat="43.00547256811952" lon="2.339986465775726"><ele>631.0</ele><time>2026-04-05T10:36:00.899Z</time></trkpt><trkpt lat="43.00548887491715" lon="2.339693298754556"><ele>631.6666666666667</ele><time>2026-04-05T10:36:01.9Z</time></trkpt><trkpt lat="43.005535609541084" lon="2.3394623506038235"><ele>632.3333333333334</ele><time>2026-04-05T10:36:02.895Z</time></trkpt><trkpt lat="43.00557139989216" lon="2.3392261082911223"><ele>633.0</ele><time>2026-04-05T10:36:03.895Z</time></trkpt><trkpt lat="43.00558233141007" lon="2.3389910294870506"><ele>632.6666666666666</ele><time>2026-04-05T10:36:04.895Z</time></trkpt><trkpt lat="43.005588182283645" lon="2.3387026342008403"><ele>632.3333333333333</ele><time>2026-04-05T10:36:05.895Z</time></trkpt><trkpt lat="43.00554318729118" lon="2.338395481384978"><ele>632.0</ele><time>2026-04-05T10:36:06.895Z</time></trkpt><trkpt lat="43.005513338623885" lon="2.338151240026589"><ele>629.3333333333333</ele><time>2026-04-05T10:36:07.895Z</time></trkpt><trkpt lat="43.00546225944779" lon="2.3379291442783416"><ele>626.6666666666666</ele><time>2026-04-05T10:36:08.895Z</time></trkpt><trkpt lat="43.005339517481865" lon="2.337692740289513"><ele>624.0</ele><time>2026-04-05T10:36:09.895Z</time></trkpt><trkpt lat="43.00532071132606" lon="2.3374159500148703"><ele>620.0</ele><time>2026-04-05T10:36:10.895Z</time></trkpt><trkpt lat="43.00533560164518" lon="2.3371767117355944"><ele>616.0</ele><time>2026-04-05T10:36:11.895Z</time></trkpt><trkpt lat="43.00536465357384" lon="2.3369318041289073"><ele>612.0</ele><time>2026-04-05T10:36:12.895Z</time></trkpt><trkpt lat="43.00537151104319" lon="2.3366794707378626"><ele>612.0</ele><time>2026-04-05T10:36:13.895Z</time></trkpt><trkpt lat="43.00535644639003" lon="2.3364576360841256"><ele>612.0</ele><time>2026-04-05T10:36:14.895Z</time></trkpt><trkpt lat="43.00532244684132" lon="2.3362862602262826"><ele>612.0</ele><time>2026-04-05T10:36:15.895Z</time></trkpt><trkpt lat="43.00525575974519" lon="2.3361258464848054"><ele>612.0</ele><time>2026-04-05T10:36:16.895Z</time></trkpt><trkpt lat="43.005137070090726" lon="2.335970440354534"><ele>607.6666666666666</ele><time>2026-04-05T10:36:17.895Z</time></trkpt><trkpt lat="43.00505337739083" lon="2.335742595350278"><ele>603.3333333333333</ele><time>2026-04-05T10:36:18.895Z</time></trkpt><trkpt lat="43.00501252813489" lon="2.33552207524751"><ele>599.0</ele><time>2026-04-05T10:36:19.895Z</time></trkpt><trkpt lat="43.0049764487731" lon="2.3352937746422997"><ele>598.8</ele><time>2026-04-05T10:36:20.895Z</time></trkpt><trkpt lat="43.0049717703398" lon="2.3351430547983094"><ele>598.5999999999999</ele><time>2026-04-05T10:36:21.895Z</time></trkpt><trkpt lat="43.00498819043611" lon="2.33500524441573"><ele>598.4</ele><time>2026-04-05T10:36:23.895Z</time></trkpt><trkpt lat="43.00505254259536" lon="2.3348889697870696"><ele>598.1999999999999</ele><time>2026-04-05T10:36:25.895Z</time></trkpt><trkpt lat="43.00510234960107" lon="2.3347905894851197"><ele>598.0</ele><time>2026-04-05T10:36:26.895Z</time></trkpt><trkpt lat="43.005197874926836" lon="2.3346348609109904"><ele>595.6666666666667</ele><time>2026-04-05T10:36:27.895Z</time></trkpt><trkpt lat="43.00528062970191" lon="2.3344345474121955"><ele>593.3333333333334</ele><time>2026-04-05T10:36:28.895Z</time></trkpt><trkpt lat="43.005363908576" lon="2.3342056229668833"><ele>591.0</ele><time>2026-04-05T10:36:29.895Z</time></trkpt><trkpt lat="43.00541730287061" lon="2.333965228415474"><ele>594.0</ele><time>2026-04-05T10:36:30.895Z</time></trkpt><trkpt lat="43.00546960541887" lon="2.333746562126923"><ele>597.0</ele><time>2026-04-05T10:36:31.895Z</time></trkpt><trkpt lat="43.005514193783114" lon="2.333555985252645"><ele>600.0</ele><time>2026-04-05T10:36:32.895Z</time></trkpt><trkpt lat="43.00554633474793" lon="2.3333907051964213"><ele>603.0</ele><time>2026-04-05T10:36:33.895Z</time></trkpt><trkpt lat="43.0055638426401" lon="2.3332206442547383"><ele>603.3333333333334</ele><time>2026-04-05T10:36:34.895Z</time></trkpt><trkpt lat="43.00557224848553" lon="2.332992648636135"><ele>603.6666666666667</ele><time>2026-04-05T10:36:35.895Z</time></trkpt><trkpt lat="43.00555180144953" lon="2.332763434883685"><ele>604.0</ele><time>2026-04-05T10:36:36.895Z</time></trkpt><trkpt lat="43.00551533414554" lon="2.332551676431267"><ele>604.0</ele><time>2026-04-05T10:36:37.895Z</time></trkpt><trkpt lat="43.00546534941441" lon="2.332316785848132"><ele>604.0</ele><time>2026-04-05T10:36:38.896Z</time></trkpt><trkpt lat="43.005404601049115" lon="2.3320652900763337"><ele>604.0</ele><time>2026-04-05T10:36:39.896Z</time></trkpt><trkpt lat="43.00533988007981" lon="2.3317966755592083"><ele>602.25</ele><time>2026-04-05T10:36:40.896Z</time></trkpt><trkpt lat="43.00530180954152" lon="2.331597162627447"><ele>600.5</ele><time>2026-04-05T10:36:41.896Z</time></trkpt><trkpt lat="43.0052957748136" lon="2.331434531278962"><ele>598.75</ele><time>2026-04-05T10:36:42.896Z</time></trkpt><trkpt lat="43.00534831552067" lon="2.3312512274973782"><ele>597.0</ele><time>2026-04-05T10:36:43.896Z</time></trkpt><trkpt lat="43.005405453162915" lon="2.331046143609549"><ele>594.6666666666666</ele><time>2026-04-05T10:36:44.896Z</time></trkpt><trkpt lat="43.005450665663055" lon="2.330797715779396"><ele>592.3333333333333</ele><time>2026-04-05T10:36:45.896Z</time></trkpt><trkpt lat="43.00548920241972" lon="2.330549063397587"><ele>590.0</ele><time>2026-04-05T10:36:46.896Z</time></trkpt><trkpt lat="43.005501769265585" lon="2.3303698217029636"><ele>587.4</ele><time>2026-04-05T10:36:47.896Z</time></trkpt><trkpt lat="43.00547735913941" lon="2.3302648876822034"><ele>584.8</ele><time>2026-04-05T10:36:48.896Z</time></trkpt><trkpt lat="43.00544117105481" lon="2.3301908636383435"><ele>582.2</ele><time>2026-04-05T10:36:49.896Z</time></trkpt><trkpt lat="43.005369899693775" lon="2.3300870480982185"><ele>579.6</ele><time>2026-04-05T10:36:50.896Z</time></trkpt><trkpt lat="43.00525467498866" lon="2.329982864222133"><ele>577.0</ele><time>2026-04-05T10:36:51.896Z</time></trkpt><trkpt lat="43.005106144925165" lon="2.329810145767831"><ele>580.3333333333334</ele><time>2026-04-05T10:36:52.896Z</time></trkpt><trkpt lat="43.00495825147405" lon="2.3296161537789475"><ele>583.6666666666666</ele><time>2026-04-05T10:36:53.896Z</time></trkpt><trkpt lat="43.004811545772704" lon="2.329424199411386"><ele>587.0</ele><time>2026-04-05T10:36:54.896Z</time></trkpt><trkpt lat="43.00465414118819" lon="2.3292197704650968"><ele>587.0</ele><time>2026-04-05T10:36:55.896Z</time></trkpt><trkpt lat="43.004520444283756" lon="2.3290477410624435"><ele>587.0</ele><time>2026-04-05T10:36:56.896Z</time></trkpt><trkpt lat="43.004414862902905" lon="2.3289036660252194"><ele>587.0</ele><time>2026-04-05T10:36:57.896Z</time></trkpt><trkpt lat="43.00431145403599" lon="2.328773131021377"><ele>588.0</ele><time>2026-04-05T10:36:58.896Z</time></trkpt><trkpt lat="43.00422236424074" lon="2.3286173271485096"><ele>589.0</ele><time>2026-04-05T10:36:59.896Z</time></trkpt><trkpt lat="43.00416221746706" lon="2.328424059710221"><ele>590.0</ele><time>2026-04-05T10:37:00.896Z</time></trkpt><trkpt lat="43.004110570807185" lon="2.32823164340907"><ele>591.0</ele><time>2026-04-05T10:37:01.896Z</time></trkpt><trkpt lat="43.004024009985656" lon="2.3280563632003775"><ele>583.3333333333334</ele><time>2026-04-05T10:37:02.896Z</time></trkpt><trkpt lat="43.003892970084976" lon="2.327853602924824"><ele>575.6666666666667</ele><time>2026-04-05T10:37:03.896Z</time></trkpt><trkpt lat="43.003747079208644" lon="2.32769749852415"><ele>568.0</ele><time>2026-04-05T10:37:04.896Z</time></trkpt><trkpt lat="43.00364719577951" lon="2.3275665713239215"><ele>568.0</ele><time>2026-04-05T10:37:05.896Z</time></trkpt><trkpt lat="43.00361010791485" lon="2.327446428624905"><ele>568.0</ele><time>2026-04-05T10:37:06.896Z</time></trkpt><trkpt lat="43.003577065633976" lon="2.3273460726071935"><ele>568.0</ele><time>2026-04-05T10:37:07.896Z</time></trkpt><trkpt lat="43.00356195342423" lon="2.3272320188964657"><ele>568.0</ele><time>2026-04-05T10:37:09.896Z</time></trkpt><trkpt lat="43.00364949321484" lon="2.327213088136696"><ele>568.0</ele><time>2026-04-05T10:37:19.896Z</time></trkpt><trkpt lat="43.00370500490726" lon="2.3270809549962803"><ele>569.5</ele><time>2026-04-05T10:37:21.896Z</time></trkpt><trkpt lat="43.00376416903404" lon="2.3269473915170953"><ele>571.0</ele><time>2026-04-05T10:37:22.896Z</time></trkpt><trkpt lat="43.003827732324496" lon="2.3267649477150707"><ele>572.5</ele><time>2026-04-05T10:37:23.896Z</time></trkpt><trkpt lat="43.003912499545855" lon="2.3265388096658044"><ele>574.0</ele><time>2026-04-05T10:37:24.896Z</time></trkpt><trkpt lat="43.004003989773615" lon="2.3262994352148367"><ele>567.5</ele><time>2026-04-05T10:37:25.896Z</time></trkpt><trkpt lat="43.004148401628" lon="2.326028388728153"><ele>561.0</ele><time>2026-04-05T10:37:26.896Z</time></trkpt><trkpt lat="43.004284391144786" lon="2.325737311472494"><ele>564.0</ele><time>2026-04-05T10:37:27.897Z</time></trkpt><trkpt lat="43.00440023295952" lon="2.3255123026078195"><ele>567.0</ele><time>2026-04-05T10:37:28.897Z</time></trkpt><trkpt lat="43.004502828037204" lon="2.3253429639926617"><ele>570.0</ele><time>2026-04-05T10:37:29.897Z</time></trkpt><trkpt lat="43.00456893533948" lon="2.325140842849469"><ele>570.0</ele><time>2026-04-05T10:37:30.897Z</time></trkpt><trkpt lat="43.004668795846854" lon="2.3249960425713114"><ele>570.0</ele><time>2026-04-05T10:37:31.897Z</time></trkpt><trkpt lat="43.00484833411131" lon="2.324856243157166"><ele>570.0</ele><time>2026-04-05T10:37:32.897Z</time></trkpt><trkpt lat="43.00507150637882" lon="2.3247800175118605"><ele>567.75</ele><time>2026-04-05T10:37:33.897Z</time></trkpt><trkpt lat="43.005209826517024" lon="2.324669556548096"><ele>565.5</ele><time>2026-04-05T10:37:34.897Z</time></trkpt><trkpt lat="43.005313936648356" lon="2.324552972081973"><ele>563.25</ele><time>2026-04-05T10:37:35.897Z</time></trkpt><trkpt lat="43.005419796432186" lon="2.324455053707387"><ele>561.0</ele><time>2026-04-05T10:37:36.897Z</time></trkpt><trkpt lat="43.00556192125984" lon="2.32443125513388"><ele>561.0</ele><time>2026-04-05T10:37:37.897Z</time></trkpt><trkpt lat="43.00569219754567" lon="2.3244669867588867"><ele>561.0</ele><time>2026-04-05T10:37:38.897Z</time></trkpt><trkpt lat="43.00577947358138" lon="2.3244926899483342"><ele>561.0</ele><time>2026-04-05T10:37:39.897Z</time></trkpt><trkpt lat="43.005880210987904" lon="2.3244367945124216"><ele>561.0</ele><time>2026-04-05T10:37:40.897Z</time></trkpt><trkpt lat="43.005942036176044" lon="2.3243502087032035"><ele>561.0</ele><time>2026-04-05T10:37:41.897Z</time></trkpt><trkpt lat="43.005952829444105" lon="2.3242041610344453"><ele>560.0</ele><time>2026-04-05T10:37:42.897Z</time></trkpt><trkpt lat="43.00599916628802" lon="2.3240229549381715"><ele>559.0</ele><time>2026-04-05T10:37:43.897Z</time></trkpt><trkpt lat="43.00604180143028" lon="2.32383740830642"><ele>558.0</ele><time>2026-04-05T10:37:44.897Z</time></trkpt><trkpt lat="43.006101987115365" lon="2.323594234881429"><ele>558.0</ele><time>2026-04-05T10:37:45.897Z</time></trkpt><trkpt lat="43.00615853102403" lon="2.3233762522217005"><ele>558.0</ele><time>2026-04-05T10:37:46.897Z</time></trkpt><trkpt lat="43.00619482688751" lon="2.3231288144478963"><ele>558.0</ele><time>2026-04-05T10:37:47.897Z</time></trkpt><trkpt lat="43.00625217034304" lon="2.322895211775725"><ele>561.3333333333334</ele><time>2026-04-05T10:37:48.897Z</time></trkpt><trkpt lat="43.00631036870836" lon="2.322671881526551"><ele>564.6666666666667</ele><time>2026-04-05T10:37:49.897Z</time></trkpt><trkpt lat="43.00637502683861" lon="2.3224233843896265"><ele>568.0</ele><time>2026-04-05T10:37:50.897Z</time></trkpt><trkpt lat="43.00644003810612" lon="2.3221619032578666"><ele>568.6666666666667</ele><time>2026-04-05T10:37:51.897Z</time></trkpt><trkpt lat="43.006513646061556" lon="2.321883794384328"><ele>569.3333333333334</ele><time>2026-04-05T10:37:52.897Z</time></trkpt><trkpt lat="43.00650483930708" lon="2.3216260815507455"><ele>570.0</ele><time>2026-04-05T10:37:53.897Z</time></trkpt><trkpt lat="43.00649977926671" lon="2.321369939266851"><ele>566.0</ele><time>2026-04-05T10:37:54.897Z</time></trkpt><trkpt lat="43.0064910529551" lon="2.3211046165107163"><ele>562.0</ele><time>2026-04-05T10:37:55.897Z</time></trkpt><trkpt lat="43.006479306193484" lon="2.3207447957112337"><ele>557.5</ele><time>2026-04-05T10:37:56.897Z</time></trkpt><trkpt lat="43.006469034716375" lon="2.320368398991781"><ele>553.0</ele><time>2026-04-05T10:37:57.897Z</time></trkpt><trkpt lat="43.006470126181846" lon="2.3200424074242254"><ele>553.0</ele><time>2026-04-05T10:37:58.897Z</time></trkpt><trkpt lat="43.00648348902019" lon="2.319761436200897"><ele>553.0</ele><time>2026-04-05T10:37:59.897Z</time></trkpt><trkpt lat="43.00649163154849" lon="2.3194882648246122"><ele>553.0</ele><time>2026-04-05T10:38:00.897Z</time></trkpt><trkpt lat="43.00653872942237" lon="2.3192529062889466"><ele>549.75</ele><time>2026-04-05T10:38:01.897Z</time></trkpt><trkpt lat="43.006551055969005" lon="2.3190888592359564"><ele>546.5</ele><time>2026-04-05T10:38:02.897Z</time></trkpt><trkpt lat="43.00650739674833" lon="2.318919754724468"><ele>543.25</ele><time>2026-04-05T10:38:03.897Z</time></trkpt><trkpt lat="43.00645928450321" lon="2.3187327833066433"><ele>540.0</ele><time>2026-04-05T10:38:04.897Z</time></trkpt><trkpt lat="43.00636955067518" lon="2.318600331633694"><ele>537.0</ele><time>2026-04-05T10:38:05.897Z</time></trkpt><trkpt lat="43.006261750045546" lon="2.3185260802983496"><ele>534.0</ele><time>2026-04-05T10:38:06.897Z</time></trkpt><trkpt lat="43.00615656319966" lon="2.318491126281472"><ele>531.0</ele><time>2026-04-05T10:38:07.897Z</time></trkpt><trkpt lat="43.006066896939956" lon="2.31846733143876"><ele>528.0</ele><time>2026-04-05T10:38:08.893Z</time></trkpt><trkpt lat="43.005996662482055" lon="2.318478289112994"><ele>525.0</ele><time>2026-04-05T10:38:09.893Z</time></trkpt><trkpt lat="43.005935577385806" lon="2.3185128631288845"><ele>525.0</ele><time>2026-04-05T10:38:10.893Z</time></trkpt><trkpt lat="43.00586758967504" lon="2.318593086917976"><ele>525.0</ele><time>2026-04-05T10:38:11.893Z</time></trkpt><trkpt lat="43.00577249919346" lon="2.318664383059991"><ele>525.0</ele><time>2026-04-05T10:38:12.893Z</time></trkpt><trkpt lat="43.00564498453317" lon="2.3187212485522792"><ele>525.0</ele><time>2026-04-05T10:38:13.893Z</time></trkpt><trkpt lat="43.00556940041699" lon="2.3186778105074395"><ele>525.0</ele><time>2026-04-05T10:38:14.893Z</time></trkpt><trkpt lat="43.005444750723804" lon="2.318680040006923"><ele>526.25</ele><time>2026-04-05T10:38:15.893Z</time></trkpt><trkpt lat="43.00530537732784" lon="2.3186454220837796"><ele>527.5</ele><time>2026-04-05T10:38:16.893Z</time></trkpt><trkpt lat="43.005184174890026" lon="2.3185678732521087"><ele>528.75</ele><time>2026-04-05T10:38:17.894Z</time></trkpt><trkpt lat="43.005087535568954" lon="2.3184478725115825"><ele>530.0</ele><time>2026-04-05T10:38:18.893Z</time></trkpt><trkpt lat="43.00498067521402" lon="2.318278585706276"><ele>535.25</ele><time>2026-04-05T10:38:19.893Z</time></trkpt><trkpt lat="43.00489052658617" lon="2.318103130205793"><ele>540.5</ele><time>2026-04-05T10:38:20.893Z</time></trkpt><trkpt lat="43.00482189474835" lon="2.3179678357566447"><ele>545.75</ele><time>2026-04-05T10:38:21.893Z</time></trkpt><trkpt lat="43.00477533515438" lon="2.317830801481533"><ele>551.0</ele><time>2026-04-05T10:38:22.893Z</time></trkpt><trkpt lat="43.0047482059798" lon="2.317696645713842"><ele>551.0</ele><time>2026-04-05T10:38:23.893Z</time></trkpt><trkpt lat="43.00477690826255" lon="2.317587356363092"><ele>551.0</ele><time>2026-04-05T10:38:24.893Z</time></trkpt><trkpt lat="43.00482720171065" lon="2.3174503506680155"><ele>551.0</ele><time>2026-04-05T10:38:25.893Z</time></trkpt><trkpt lat="43.004880988041386" lon="2.317289305575871"><ele>551.0</ele><time>2026-04-05T10:38:26.893Z</time></trkpt><trkpt lat="43.00494896760293" lon="2.3171214525889248"><ele>555.5</ele><time>2026-04-05T10:38:27.893Z</time></trkpt><trkpt lat="43.00498845539477" lon="2.3169474057996857"><ele>560.0</ele><time>2026-04-05T10:38:28.893Z</time></trkpt><trkpt lat="43.00498787813569" lon="2.3167911334127487"><ele>564.5</ele><time>2026-04-05T10:38:29.893Z</time></trkpt><trkpt lat="43.0049377708653" lon="2.316599424633806"><ele>569.0</ele><time>2026-04-05T10:38:30.893Z</time></trkpt><trkpt lat="43.00485022631336" lon="2.3163865241511696"><ele>569.0</ele><time>2026-04-05T10:38:31.893Z</time></trkpt><trkpt lat="43.0047782426522" lon="2.3161417098124546"><ele>569.0</ele><time>2026-04-05T10:38:32.893Z</time></trkpt><trkpt lat="43.00475466310654" lon="2.3159338681474897"><ele>569.0</ele><time>2026-04-05T10:38:33.893Z</time></trkpt><trkpt lat="43.004737750301736" lon="2.315750638567097"><ele>569.0</ele><time>2026-04-05T10:38:34.893Z</time></trkpt><trkpt lat="43.00467866677819" lon="2.3156015362767457"><ele>569.0</ele><time>2026-04-05T10:38:35.893Z</time></trkpt><trkpt lat="43.00458634047123" lon="2.315460576358103"><ele>569.0</ele><time>2026-04-05T10:38:36.893Z</time></trkpt><trkpt lat="43.00442546188544" lon="2.3153136526757097"><ele>572.6666666666666</ele><time>2026-04-05T10:38:37.893Z</time></trkpt><trkpt lat="43.004252437152616" lon="2.3151515287780122"><ele>576.3333333333334</ele><time>2026-04-05T10:38:38.893Z</time></trkpt><trkpt lat="43.00408970949095" lon="2.3149660586820477"><ele>580.0</ele><time>2026-04-05T10:38:39.893Z</time></trkpt><trkpt lat="43.00393647325685" lon="2.3148314608411598"><ele>580.0</ele><time>2026-04-05T10:38:40.893Z</time></trkpt><trkpt lat="43.003772482667024" lon="2.3147389463732266"><ele>580.0</ele><time>2026-04-05T10:38:41.893Z</time></trkpt><trkpt lat="43.003568068800114" lon="2.314658692346329"><ele>580.0</ele><time>2026-04-05T10:38:42.893Z</time></trkpt><trkpt lat="43.00335237989791" lon="2.314528763988798"><ele>577.3333333333334</ele><time>2026-04-05T10:38:43.893Z</time></trkpt><trkpt lat="43.00315791166636" lon="2.3143695155044264"><ele>574.6666666666666</ele><time>2026-04-05T10:38:44.893Z</time></trkpt><trkpt lat="43.00301654956177" lon="2.3142014712186008"><ele>572.0</ele><time>2026-04-05T10:38:45.893Z</time></trkpt><trkpt lat="43.0029088011887" lon="2.314081242204694"><ele>572.0</ele><time>2026-04-05T10:38:46.893Z</time></trkpt><trkpt lat="43.00280551868281" lon="2.3140352535629645"><ele>572.0</ele><time>2026-04-05T10:38:47.893Z</time></trkpt><trkpt lat="43.00269046693229" lon="2.314042371316777"><ele>572.0</ele><time>2026-04-05T10:38:48.893Z</time></trkpt><trkpt lat="43.00255921348355" lon="2.314084788589442"><ele>572.0</ele><time>2026-04-05T10:38:49.893Z</time></trkpt><trkpt lat="43.002407997075316" lon="2.314162577133682"><ele>573.25</ele><time>2026-04-05T10:38:50.893Z</time></trkpt><trkpt lat="43.00229723355202" lon="2.3141500044900973"><ele>574.5</ele><time>2026-04-05T10:38:51.893Z</time></trkpt><trkpt lat="43.00222002876481" lon="2.314052099637736"><ele>575.75</ele><time>2026-04-05T10:38:52.893Z</time></trkpt><trkpt lat="43.00220694669403" lon="2.3138962219939248"><ele>577.0</ele><time>2026-04-05T10:38:53.893Z</time></trkpt><trkpt lat="43.00220236008359" lon="2.3137138126851156"><ele>577.0</ele><time>2026-04-05T10:38:54.893Z</time></trkpt><trkpt lat="43.00218373634545" lon="2.3135285190016703"><ele>577.0</ele><time>2026-04-05T10:38:55.893Z</time></trkpt><trkpt lat="43.002086618244824" lon="2.3134155627845137"><ele>577.0</ele><time>2026-04-05T10:38:56.893Z</time></trkpt><trkpt lat="43.00195713970646" lon="2.3133473075661652"><ele>577.0</ele><time>2026-04-05T10:38:57.893Z</time></trkpt><trkpt lat="43.0017823407142" lon="2.313302585318813"><ele>586.0</ele><time>2026-04-05T10:38:58.893Z</time></trkpt><trkpt lat="43.00161265332217" lon="2.313235762988781"><ele>595.0</ele><time>2026-04-05T10:38:59.893Z</time></trkpt><trkpt lat="43.00150112006655" lon="2.313155022229606"><ele>604.0</ele><time>2026-04-05T10:39:00.893Z</time></trkpt><trkpt lat="43.0014549708584" lon="2.313040231761619"><ele>613.0</ele><time>2026-04-05T10:39:01.893Z</time></trkpt><trkpt lat="43.001488794150994" lon="2.312894589724026"><ele>613.0</ele><time>2026-04-05T10:39:02.893Z</time></trkpt><trkpt lat="43.00160263032188" lon="2.312735883299231"><ele>613.0</ele><time>2026-04-05T10:39:03.893Z</time></trkpt><trkpt lat="43.001708059642624" lon="2.312579158694493"><ele>613.0</ele><time>2026-04-05T10:39:04.894Z</time></trkpt><trkpt lat="43.0018003435537" lon="2.312426187146432"><ele>610.6</ele><time>2026-04-05T10:39:05.894Z</time></trkpt><trkpt lat="43.00182834862793" lon="2.312319301973659"><ele>608.1999999999999</ele><time>2026-04-05T10:39:06.894Z</time></trkpt><trkpt lat="43.00178791187775" lon="2.31223111499317"><ele>605.8</ele><time>2026-04-05T10:39:07.894Z</time></trkpt><trkpt lat="43.001692154942475" lon="2.3121108967563226"><ele>603.4</ele><time>2026-04-05T10:39:08.894Z</time></trkpt><trkpt lat="43.00155473253526" lon="2.312005806789453"><ele>601.0</ele><time>2026-04-05T10:39:09.894Z</time></trkpt><trkpt lat="43.00137810751133" lon="2.3118827707885847"><ele>601.0</ele><time>2026-04-05T10:39:10.894Z</time></trkpt><trkpt lat="43.00119386043488" lon="2.31173093831968"><ele>601.0</ele><time>2026-04-05T10:39:11.894Z</time></trkpt><trkpt lat="43.00102683098255" lon="2.311537704662491"><ele>601.0</ele><time>2026-04-05T10:39:12.894Z</time></trkpt><trkpt lat="43.00086851943456" lon="2.3113276815569934"><ele>604.6666666666667</ele><time>2026-04-05T10:39:13.894Z</time></trkpt><trkpt lat="43.000726380226915" lon="2.3111407637097368"><ele>608.3333333333334</ele><time>2026-04-05T10:39:14.894Z</time></trkpt><trkpt lat="43.00058061112442" lon="2.3110100543855103"><ele>612.0</ele><time>2026-04-05T10:39:15.894Z</time></trkpt><trkpt lat="43.00041651331271" lon="2.31091491240044"><ele>612.0</ele><time>2026-04-05T10:39:16.894Z</time></trkpt><trkpt lat="43.00030401017173" lon="2.3107946008911937"><ele>612.0</ele><time>2026-04-05T10:39:17.894Z</time></trkpt><trkpt lat="43.00022868204327" lon="2.3106969893335387"><ele>612.0</ele><time>2026-04-05T10:39:18.894Z</time></trkpt><trkpt lat="43.00018158207334" lon="2.310569581643541"><ele>612.0</ele><time>2026-04-05T10:39:19.894Z</time></trkpt><trkpt lat="43.00024461749335" lon="2.3103228911414413"><ele>607.25</ele><time>2026-04-05T10:39:20.894Z</time></trkpt><trkpt lat="43.00021977978667" lon="2.3100661622507768"><ele>602.5</ele><time>2026-04-05T10:39:21.894Z</time></trkpt><trkpt lat="43.00019529418597" lon="2.309915108167457"><ele>597.75</ele><time>2026-04-05T10:39:22.894Z</time></trkpt><trkpt lat="43.00014483010659" lon="2.3098354690173264"><ele>593.0</ele><time>2026-04-05T10:39:23.894Z</time></trkpt><trkpt lat="43.000019695464175" lon="2.309834153741538"><ele>593.0</ele><time>2026-04-05T10:39:24.894Z</time></trkpt><trkpt lat="42.99986209727669" lon="2.3097961710609294"><ele>593.0</ele><time>2026-04-05T10:39:25.894Z</time></trkpt><trkpt lat="42.99966129090025" lon="2.3097854137571017"><ele>593.0</ele><time>2026-04-05T10:39:26.894Z</time></trkpt><trkpt lat="42.99946114912305" lon="2.3098102458069594"><ele>593.0</ele><time>2026-04-05T10:39:27.894Z</time></trkpt><trkpt lat="42.99932691592337" lon="2.3098726862591006"><ele>593.0</ele><time>2026-04-05T10:39:28.894Z</time></trkpt><trkpt lat="42.99925507593224" lon="2.309940445724078"><ele>593.0</ele><time>2026-04-05T10:39:29.894Z</time></trkpt><trkpt lat="42.99921320912185" lon="2.310051059448544"><ele>593.0</ele><time>2026-04-05T10:39:30.894Z</time></trkpt><trkpt lat="42.99918118869642" lon="2.310202602731383"><ele>593.0</ele><time>2026-04-05T10:39:31.894Z</time></trkpt><trkpt lat="42.999216333839826" lon="2.3104363440472206"><ele>599.3333333333333</ele><time>2026-04-05T10:39:32.894Z</time></trkpt><trkpt lat="42.999264242724" lon="2.310688522928181"><ele>605.6666666666666</ele><time>2026-04-05T10:39:33.894Z</time></trkpt><trkpt lat="42.99927472293444" lon="2.3109916728259527"><ele>612.0</ele><time>2026-04-05T10:39:34.894Z</time></trkpt><trkpt lat="42.999236872351844" lon="2.311274000319942"><ele>609.6666666666666</ele><time>2026-04-05T10:39:35.894Z</time></trkpt><trkpt lat="42.99917945794593" lon="2.3115452286340856"><ele>607.3333333333333</ele><time>2026-04-05T10:39:36.894Z</time></trkpt><trkpt lat="42.99912402149869" lon="2.3118032929097914"><ele>605.0</ele><time>2026-04-05T10:39:37.894Z</time></trkpt><trkpt lat="42.99906340694041" lon="2.312089398391149"><ele>613.0</ele><time>2026-04-05T10:39:38.894Z</time></trkpt><trkpt lat="42.99900085049835" lon="2.312421483980571"><ele>621.0</ele><time>2026-04-05T10:39:39.894Z</time></trkpt><trkpt lat="42.99894006271436" lon="2.3127508178753895"><ele>621.0</ele><time>2026-04-05T10:39:40.894Z</time></trkpt><trkpt lat="42.99887243456631" lon="2.313057713130109"><ele>621.0</ele><time>2026-04-05T10:39:41.894Z</time></trkpt><trkpt lat="42.99881880358486" lon="2.3132777949516434"><ele>621.0</ele><time>2026-04-05T10:39:42.894Z</time></trkpt><trkpt lat="42.998792997096224" lon="2.3134766602505934"><ele>625.0</ele><time>2026-04-05T10:39:43.894Z</time></trkpt><trkpt lat="42.99880639569728" lon="2.3136641919654117"><ele>629.0</ele><time>2026-04-05T10:39:44.894Z</time></trkpt><trkpt lat="42.99881986334693" lon="2.313866019499458"><ele>633.0</ele><time>2026-04-05T10:39:45.894Z</time></trkpt><trkpt lat="42.99886504110313" lon="2.314090095977241"><ele>633.3333333333334</ele><time>2026-04-05T10:39:46.894Z</time></trkpt><trkpt lat="42.9988948800612" lon="2.3143302774644035"><ele>633.6666666666667</ele><time>2026-04-05T10:39:47.894Z</time></trkpt><trkpt lat="42.99895215421736" lon="2.3145499823557922"><ele>634.0</ele><time>2026-04-05T10:39:48.894Z</time></trkpt><trkpt lat="42.99902727482766" lon="2.3147183090397556"><ele>632.6666666666667</ele><time>2026-04-05T10:39:49.895Z</time></trkpt><trkpt lat="42.99913053244889" lon="2.314915611504783"><ele>631.3333333333334</ele><time>2026-04-05T10:39:50.895Z</time></trkpt><trkpt lat="42.99914134244565" lon="2.315116561370877"><ele>630.0</ele><time>2026-04-05T10:39:51.895Z</time></trkpt><trkpt lat="42.99914326031844" lon="2.3153279252191727"><ele>630.3333333333334</ele><time>2026-04-05T10:39:52.895Z</time></trkpt><trkpt lat="42.99914879287973" lon="2.3155831502647852"><ele>630.6666666666667</ele><time>2026-04-05T10:39:53.895Z</time></trkpt><trkpt lat="42.99918834628575" lon="2.315817652833322"><ele>631.0</ele><time>2026-04-05T10:39:54.895Z</time></trkpt><trkpt lat="42.99923060411676" lon="2.3159629514292526"><ele>631.0</ele><time>2026-04-05T10:39:55.895Z</time></trkpt><trkpt lat="42.99930423900432" lon="2.3160715916204135"><ele>631.0</ele><time>2026-04-05T10:39:56.895Z</time></trkpt><trkpt lat="42.999320206852815" lon="2.3161888763498726"><ele>631.0</ele><time>2026-04-05T10:39:57.895Z</time></trkpt><trkpt lat="42.99934660950227" lon="2.3163097795217698"><ele>631.0</ele><time>2026-04-05T10:39:58.895Z</time></trkpt><trkpt lat="42.999318163669045" lon="2.3163916604642485"><ele>631.0</ele><time>2026-04-05T10:39:59.895Z</time></trkpt><trkpt lat="42.999251421368314" lon="2.3164057259578374"><ele>631.0</ele><time>2026-04-05T10:40:00.895Z</time></trkpt><trkpt lat="42.999167365938085" lon="2.316384206673972"><ele>631.0</ele><time>2026-04-05T10:40:01.895Z</time></trkpt><trkpt lat="42.99910968327988" lon="2.3162502442917314"><ele>631.0</ele><time>2026-04-05T10:40:02.895Z</time></trkpt><trkpt lat="42.9990279389619" lon="2.3161469443877887"><ele>631.0</ele><time>2026-04-05T10:40:03.895Z</time></trkpt><trkpt lat="42.99892905430667" lon="2.3159597635161338"><ele>631.0</ele><time>2026-04-05T10:40:04.895Z</time></trkpt><trkpt lat="42.998786507557156" lon="2.3157419351913635"><ele>630.5</ele><time>2026-04-05T10:40:05.895Z</time></trkpt><trkpt lat="42.99862104143596" lon="2.3155015811935735"><ele>630.0</ele><time>2026-04-05T10:40:06.895Z</time></trkpt><trkpt lat="42.99849916883834" lon="2.3152648821611663"><ele>630.0</ele><time>2026-04-05T10:40:07.895Z</time></trkpt><trkpt lat="42.99840447602307" lon="2.3150732090871124"><ele>630.0</ele><time>2026-04-05T10:40:08.895Z</time></trkpt><trkpt lat="42.998310604317595" lon="2.3149769997711287"><ele>630.0</ele><time>2026-04-05T10:40:09.895Z</time></trkpt><trkpt lat="42.99818467066701" lon="2.315025380995658"><ele>630.0</ele><time>2026-04-05T10:40:10.895Z</time></trkpt><trkpt lat="42.99809016872139" lon="2.314953600707467"><ele>627.5</ele><time>2026-04-05T10:40:11.895Z</time></trkpt><trkpt lat="42.99803836859284" lon="2.314837432362366"><ele>625.0</ele><time>2026-04-05T10:40:12.895Z</time></trkpt><trkpt lat="42.998079466806956" lon="2.3146428463279936"><ele>622.5</ele><time>2026-04-05T10:40:13.895Z</time></trkpt><trkpt lat="42.99805833206321" lon="2.3144847246233513"><ele>620.0</ele><time>2026-04-05T10:40:14.891Z</time></trkpt><trkpt lat="42.99802602642591" lon="2.3142535384581415"><ele>617.0</ele><time>2026-04-05T10:40:15.891Z</time></trkpt><trkpt lat="42.99797208045626" lon="2.3140383566494873"><ele>614.0</ele><time>2026-04-05T10:40:16.891Z</time></trkpt><trkpt lat="42.99789092303058" lon="2.313775290560948"><ele>611.0</ele><time>2026-04-05T10:40:17.891Z</time></trkpt><trkpt lat="42.99779196142983" lon="2.31349345718845"><ele>607.3333333333333</ele><time>2026-04-05T10:40:18.892Z</time></trkpt><trkpt lat="42.99773112462864" lon="2.313200100769272"><ele>603.6666666666666</ele><time>2026-04-05T10:40:19.892Z</time></trkpt><trkpt lat="42.99769399808078" lon="2.312941500538346"><ele>600.0</ele><time>2026-04-05T10:40:20.892Z</time></trkpt><trkpt lat="42.997655226953654" lon="2.3126509675383935"><ele>596.3333333333334</ele><time>2026-04-05T10:40:21.891Z</time></trkpt><trkpt lat="42.997602360970205" lon="2.312370901966655"><ele>592.6666666666667</ele><time>2026-04-05T10:40:22.891Z</time></trkpt><trkpt lat="42.997546294800145" lon="2.31215566092001"><ele>589.0</ele><time>2026-04-05T10:40:23.892Z</time></trkpt><trkpt lat="42.997492137037376" lon="2.3119478710974404"><ele>588.25</ele><time>2026-04-05T10:40:24.892Z</time></trkpt><trkpt lat="42.997413288153375" lon="2.3117858802031264"><ele>587.5</ele><time>2026-04-05T10:40:25.892Z</time></trkpt><trkpt lat="42.99732717805419" lon="2.3116857549865943"><ele>586.75</ele><time>2026-04-05T10:40:26.892Z</time></trkpt><trkpt lat="42.99720290065421" lon="2.3116388332537072"><ele>586.0</ele><time>2026-04-05T10:40:27.892Z</time></trkpt><trkpt lat="42.99704737775399" lon="2.3115557612023894"><ele>586.0</ele><time>2026-04-05T10:40:28.892Z</time></trkpt><trkpt lat="42.996891424827886" lon="2.3115100108122344"><ele>586.0</ele><time>2026-04-05T10:40:29.892Z</time></trkpt><trkpt lat="42.99677132904939" lon="2.3115176447223114"><ele>586.0</ele><time>2026-04-05T10:40:30.892Z</time></trkpt><trkpt lat="42.9966280211685" lon="2.311593107596354"><ele>586.0</ele><time>2026-04-05T10:40:31.892Z</time></trkpt><trkpt lat="42.996437685098364" lon="2.311647893812393"><ele>587.3333333333334</ele><time>2026-04-05T10:40:32.892Z</time></trkpt><trkpt lat="42.99626206601586" lon="2.311716735353086"><ele>588.6666666666666</ele><time>2026-04-05T10:40:33.892Z</time></trkpt><trkpt lat="42.99610170629233" lon="2.3117446015791936"><ele>590.0</ele><time>2026-04-05T10:40:34.892Z</time></trkpt><trkpt lat="42.995900436218285" lon="2.3118306761587615"><ele>581.5</ele><time>2026-04-05T10:40:35.892Z</time></trkpt><trkpt lat="42.9956494448626" lon="2.3118992443441377"><ele>573.0</ele><time>2026-04-05T10:40:36.892Z</time></trkpt><trkpt lat="42.99541391563101" lon="2.311941223325966"><ele>573.0</ele><time>2026-04-05T10:40:37.892Z</time></trkpt><trkpt lat="42.995241089751644" lon="2.3119775904572752"><ele>573.0</ele><time>2026-04-05T10:40:38.892Z</time></trkpt><trkpt lat="42.99504757808076" lon="2.312006711143463"><ele>573.0</ele><time>2026-04-05T10:40:39.892Z</time></trkpt><trkpt lat="42.9948493087998" lon="2.312029996139534"><ele>570.0</ele><time>2026-04-05T10:40:40.892Z</time></trkpt><trkpt lat="42.99465823382633" lon="2.3120507559117667"><ele>567.0</ele><time>2026-04-05T10:40:41.892Z</time></trkpt><trkpt lat="42.99444369020482" lon="2.3120833075052345"><ele>564.0</ele><time>2026-04-05T10:40:42.892Z</time></trkpt><trkpt lat="42.99452339507875" lon="2.3120655216439663"><ele>564.0</ele><time>2026-04-05T10:40:43.892Z</time></trkpt><trkpt lat="42.9944604193159" lon="2.3122362666082195"><ele>564.0</ele><time>2026-04-05T10:40:44.892Z</time></trkpt><trkpt lat="42.99448230221246" lon="2.3124924277537264"><ele>564.0</ele><time>2026-04-05T10:40:45.892Z</time></trkpt><trkpt lat="42.99450190904297" lon="2.312677604130808"><ele>590.0</ele><time>2026-04-05T10:40:46.892Z</time></trkpt><trkpt lat="42.99489700514026" lon="2.3138271735837455"><ele>590.0</ele><time>2026-04-05T10:40:47.892Z</time></trkpt><trkpt lat="42.99477161466593" lon="2.313838582514788"><ele>590.0</ele><time>2026-04-05T10:40:49.892Z</time></trkpt><trkpt lat="42.99470665675298" lon="2.3137040375004556"><ele>590.0</ele><time>2026-04-05T10:40:51.892Z</time></trkpt><trkpt lat="42.994665838398845" lon="2.313542657103411"><ele>590.0</ele><time>2026-04-05T10:40:52.892Z</time></trkpt><trkpt lat="42.99464452066588" lon="2.3134115549348397"><ele>590.0</ele><time>2026-04-05T10:40:53.892Z</time></trkpt><trkpt lat="42.99464804469011" lon="2.3131561289636484"><ele>590.0</ele><time>2026-04-05T10:40:54.892Z</time></trkpt><trkpt lat="42.99461959404715" lon="2.3128430674044957"><ele>590.0</ele><time>2026-04-05T10:40:55.892Z</time></trkpt><trkpt lat="42.99457972731193" lon="2.3125220328563576"><ele>586.75</ele><time>2026-04-05T10:40:56.892Z</time></trkpt><trkpt lat="42.99454554966516" lon="2.312277324066459"><ele>583.5</ele><time>2026-04-05T10:40:57.892Z</time></trkpt><trkpt lat="42.99452280929812" lon="2.3120803648224686"><ele>580.25</ele><time>2026-04-05T10:40:58.892Z</time></trkpt><trkpt lat="42.9945251728209" lon="2.311920984281613"><ele>577.0</ele><time>2026-04-05T10:40:59.892Z</time></trkpt><trkpt lat="42.99455868881087" lon="2.3117412402543276"><ele>574.0</ele><time>2026-04-05T10:41:00.892Z</time></trkpt><trkpt lat="42.99459107855143" lon="2.311516313719536"><ele>571.0</ele><time>2026-04-05T10:41:01.892Z</time></trkpt><trkpt lat="42.99461639494593" lon="2.3112418714416485"><ele>568.0</ele><time>2026-04-05T10:41:02.892Z</time></trkpt><trkpt lat="42.99463048656936" lon="2.3109227938121286"><ele>568.0</ele><time>2026-04-05T10:41:03.892Z</time></trkpt><trkpt lat="42.99466746668636" lon="2.310623731312023"><ele>568.0</ele><time>2026-04-05T10:41:04.892Z</time></trkpt><trkpt lat="42.99474920973374" lon="2.31034201724142"><ele>568.0</ele><time>2026-04-05T10:41:05.892Z</time></trkpt><trkpt lat="42.9948139251556" lon="2.3099871553166724"><ele>561.0</ele><time>2026-04-05T10:41:06.892Z</time></trkpt><trkpt lat="42.99487124950076" lon="2.309688658619848"><ele>554.0</ele><time>2026-04-05T10:41:07.892Z</time></trkpt><trkpt lat="42.99494667309366" lon="2.309435194596637"><ele>547.0</ele><time>2026-04-05T10:41:08.893Z</time></trkpt><trkpt lat="42.995015678199714" lon="2.309166592908195"><ele>547.0</ele><time>2026-04-05T10:41:09.893Z</time></trkpt><trkpt lat="42.99509726949327" lon="2.3089118663098307"><ele>547.0</ele><time>2026-04-05T10:41:10.893Z</time></trkpt><trkpt lat="42.99512432805463" lon="2.308724646125152"><ele>547.0</ele><time>2026-04-05T10:41:11.893Z</time></trkpt><trkpt lat="42.99514726494276" lon="2.3085694324039467"><ele>550.0</ele><time>2026-04-05T10:41:12.893Z</time></trkpt><trkpt lat="42.99517352531887" lon="2.308458891910026"><ele>553.0</ele><time>2026-04-05T10:41:13.893Z</time></trkpt><trkpt lat="42.995110909240424" lon="2.308383433990958"><ele>556.0</ele><time>2026-04-05T10:41:14.893Z</time></trkpt><trkpt lat="42.995016358348124" lon="2.308331533654071"><ele>559.0</ele><time>2026-04-05T10:41:15.893Z</time></trkpt><trkpt lat="42.99487919581663" lon="2.308294412903683"><ele>562.0</ele><time>2026-04-05T10:41:16.893Z</time></trkpt><trkpt lat="42.99471918981105" lon="2.3082246652973324"><ele>563.3333333333334</ele><time>2026-04-05T10:41:17.893Z</time></trkpt><trkpt lat="42.99451985703498" lon="2.308125848059385"><ele>564.6666666666666</ele><time>2026-04-05T10:41:18.893Z</time></trkpt><trkpt lat="42.99430050423672" lon="2.3080311280063284"><ele>566.0</ele><time>2026-04-05T10:41:19.893Z</time></trkpt><trkpt lat="42.994059502110034" lon="2.307956780246538"><ele>572.5</ele><time>2026-04-05T10:41:20.893Z</time></trkpt><trkpt lat="42.99382798693999" lon="2.307894496291313"><ele>579.0</ele><time>2026-04-05T10:41:21.893Z</time></trkpt><trkpt lat="42.99358409378644" lon="2.307807571180358"><ele>579.0</ele><time>2026-04-05T10:41:22.893Z</time></trkpt><trkpt lat="42.99338782001652" lon="2.3077185454749007"><ele>579.0</ele><time>2026-04-05T10:41:23.893Z</time></trkpt><trkpt lat="42.993214709679705" lon="2.3076446483269955"><ele>579.0</ele><time>2026-04-05T10:41:24.893Z</time></trkpt><trkpt lat="42.99308702995657" lon="2.3075913361600207"><ele>582.75</ele><time>2026-04-05T10:41:25.893Z</time></trkpt><trkpt lat="42.99317484924668" lon="2.307474962145216"><ele>586.5</ele><time>2026-04-05T10:41:28.893Z</time></trkpt><trkpt lat="42.9931805131678" lon="2.30735776395009"><ele>590.25</ele><time>2026-04-05T10:41:30.893Z</time></trkpt><trkpt lat="42.9931522301243" lon="2.307191072044065"><ele>594.0</ele><time>2026-04-05T10:41:31.893Z</time></trkpt><trkpt lat="42.99317796932501" lon="2.307000562142432"><ele>594.0</ele><time>2026-04-05T10:41:32.893Z</time></trkpt><trkpt lat="42.99323757122623" lon="2.306756040818691"><ele>594.0</ele><time>2026-04-05T10:41:33.893Z</time></trkpt><trkpt lat="42.993339930447206" lon="2.3064416618456054"><ele>594.0</ele><time>2026-04-05T10:41:34.893Z</time></trkpt><trkpt lat="42.99343334295045" lon="2.306132603998786"><ele>593.25</ele><time>2026-04-05T10:41:35.893Z</time></trkpt><trkpt lat="42.99347758808181" lon="2.305904040691439"><ele>592.5</ele><time>2026-04-05T10:41:36.893Z</time></trkpt><trkpt lat="42.99346419624932" lon="2.30577022868428"><ele>591.75</ele><time>2026-04-05T10:41:37.893Z</time></trkpt><trkpt lat="42.99344630020978" lon="2.305683698368841"><ele>591.0</ele><time>2026-04-05T10:41:39.893Z</time></trkpt><trkpt lat="42.993330998230675" lon="2.3058136075471363"><ele>591.0</ele><time>2026-04-05T10:41:41.893Z</time></trkpt><trkpt lat="42.99323292498936" lon="2.3059261434497773"><ele>591.0</ele><time>2026-04-05T10:41:42.893Z</time></trkpt><trkpt lat="42.99310879783552" lon="2.3060667630545004"><ele>591.0</ele><time>2026-04-05T10:41:43.893Z</time></trkpt><trkpt lat="42.99297526659543" lon="2.30620199551408"><ele>591.0</ele><time>2026-04-05T10:41:44.893Z</time></trkpt><trkpt lat="42.992842227237475" lon="2.3062536104079494"><ele>591.0</ele><time>2026-04-05T10:41:45.893Z</time></trkpt><trkpt lat="42.99274696632637" lon="2.3063157690054936"><ele>591.0</ele><time>2026-04-05T10:41:46.893Z</time></trkpt><trkpt lat="42.992684472306664" lon="2.3063963856768264"><ele>591.0</ele><time>2026-04-05T10:41:47.893Z</time></trkpt><trkpt lat="42.99262849242227" lon="2.3065325917486335"><ele>591.0</ele><time>2026-04-05T10:41:48.893Z</time></trkpt><trkpt lat="42.99252997943909" lon="2.3066827072809213"><ele>587.75</ele><time>2026-04-05T10:41:49.893Z</time></trkpt><trkpt lat="42.99245142737247" lon="2.3067547653036717"><ele>584.5</ele><time>2026-04-05T10:41:50.893Z</time></trkpt><trkpt lat="42.99234860784914" lon="2.3067447644378714"><ele>581.25</ele><time>2026-04-05T10:41:51.893Z</time></trkpt><trkpt lat="42.99222634299181" lon="2.3067969445533425"><ele>578.0</ele><time>2026-04-05T10:41:52.893Z</time></trkpt><trkpt lat="42.992097700962226" lon="2.306865339145637"><ele>578.0</ele><time>2026-04-05T10:41:53.893Z</time></trkpt><trkpt lat="42.99198879347431" lon="2.306987245859388"><ele>578.0</ele><time>2026-04-05T10:41:54.893Z</time></trkpt><trkpt lat="42.9919166096934" lon="2.3071105052595904"><ele>578.0</ele><time>2026-04-05T10:41:55.893Z</time></trkpt><trkpt lat="42.991854766635555" lon="2.307178885601675"><ele>578.0</ele><time>2026-04-05T10:41:56.893Z</time></trkpt><trkpt lat="42.99177567003425" lon="2.307190612859975"><ele>578.0</ele><time>2026-04-05T10:41:57.894Z</time></trkpt><trkpt lat="42.991707051773794" lon="2.3071220330232616"><ele>574.6</ele><time>2026-04-05T10:41:58.894Z</time></trkpt><trkpt lat="42.99165178565853" lon="2.3070029104615846"><ele>571.1999999999999</ele><time>2026-04-05T10:41:59.894Z</time></trkpt><trkpt lat="42.99163547554861" lon="2.3068324468514265"><ele>567.8</ele><time>2026-04-05T10:42:00.894Z</time></trkpt><trkpt lat="42.99156718005797" lon="2.3066869044690237"><ele>564.4</ele><time>2026-04-05T10:42:01.894Z</time></trkpt><trkpt lat="42.99149629023733" lon="2.306624118882979"><ele>561.0</ele><time>2026-04-05T10:42:02.894Z</time></trkpt><trkpt lat="42.991388445469816" lon="2.3066016250056314"><ele>561.0</ele><time>2026-04-05T10:42:03.894Z</time></trkpt><trkpt lat="42.99121460343251" lon="2.3066039936732463"><ele>561.0</ele><time>2026-04-05T10:42:04.894Z</time></trkpt><trkpt lat="42.991062483667484" lon="2.306565439744187"><ele>561.0</ele><time>2026-04-05T10:42:05.894Z</time></trkpt><trkpt lat="42.990947651345444" lon="2.306523179038327"><ele>561.0</ele><time>2026-04-05T10:42:06.894Z</time></trkpt><trkpt lat="42.99083950207465" lon="2.3064335168473513"><ele>556.0</ele><time>2026-04-05T10:42:07.894Z</time></trkpt><trkpt lat="42.99072968052663" lon="2.306324651795598"><ele>551.0</ele><time>2026-04-05T10:42:08.894Z</time></trkpt><trkpt lat="42.99062449024546" lon="2.3062558440367575"><ele>546.0</ele><time>2026-04-05T10:42:09.894Z</time></trkpt><trkpt lat="42.990511301264036" lon="2.3063014615785327"><ele>541.0</ele><time>2026-04-05T10:42:10.894Z</time></trkpt><trkpt lat="42.990396242755644" lon="2.3063250892009863"><ele>541.0</ele><time>2026-04-05T10:42:11.894Z</time></trkpt><trkpt lat="42.9902884981035" lon="2.306364605932208"><ele>541.0</ele><time>2026-04-05T10:42:12.894Z</time></trkpt><trkpt lat="42.99018792047975" lon="2.3064017523405855"><ele>541.0</ele><time>2026-04-05T10:42:13.894Z</time></trkpt><trkpt lat="42.99012671081067" lon="2.306545162901103"><ele>541.0</ele><time>2026-04-05T10:42:14.894Z</time></trkpt><trkpt lat="42.990034903666526" lon="2.306676668812747"><ele>541.0</ele><time>2026-04-05T10:42:15.894Z</time></trkpt><trkpt lat="42.989945530549" lon="2.30676132126388"><ele>541.0</ele><time>2026-04-05T10:42:16.894Z</time></trkpt><trkpt lat="42.98985207223679" lon="2.306729294947726"><ele>541.0</ele><time>2026-04-05T10:42:17.894Z</time></trkpt><trkpt lat="42.989704035891265" lon="2.3067163029044897"><ele>541.0</ele><time>2026-04-05T10:42:18.894Z</time></trkpt><trkpt lat="42.989564314538704" lon="2.306726671003731"><ele>541.0</ele><time>2026-04-05T10:42:19.894Z</time></trkpt><trkpt lat="42.98945213143914" lon="2.3067576191682324"><ele>541.0</ele><time>2026-04-05T10:42:20.889Z</time></trkpt><trkpt lat="42.98933861563842" lon="2.30684086264245"><ele>541.0</ele><time>2026-04-05T10:42:21.89Z</time></trkpt><trkpt lat="42.989211073408356" lon="2.3069204716591645"><ele>541.0</ele><time>2026-04-05T10:42:22.89Z</time></trkpt><trkpt lat="42.98913320921376" lon="2.306942341766003"><ele>537.6</ele><time>2026-04-05T10:42:23.889Z</time></trkpt><trkpt lat="42.989059427401514" lon="2.3068712656321235"><ele>534.2</ele><time>2026-04-05T10:42:24.889Z</time></trkpt><trkpt lat="42.989022191065715" lon="2.306757691449307"><ele>530.8</ele><time>2026-04-05T10:42:25.889Z</time></trkpt><trkpt lat="42.98902805226199" lon="2.3066372114069695"><ele>527.4</ele><time>2026-04-05T10:42:26.889Z</time></trkpt><trkpt lat="42.9890082498748" lon="2.306460149280132"><ele>524.0</ele><time>2026-04-05T10:42:27.89Z</time></trkpt><trkpt lat="42.989009678493304" lon="2.306205814236605"><ele>524.0</ele><time>2026-04-05T10:42:28.89Z</time></trkpt><trkpt lat="42.98899752533116" lon="2.3059740666315074"><ele>524.0</ele><time>2026-04-05T10:42:29.889Z</time></trkpt><trkpt lat="42.988906662589606" lon="2.3057926238167705"><ele>524.0</ele><time>2026-04-05T10:42:30.889Z</time></trkpt><trkpt lat="42.98884937820885" lon="2.3056133551115003"><ele>522.4</ele><time>2026-04-05T10:42:31.889Z</time></trkpt><trkpt lat="42.98880227093084" lon="2.305481669477918"><ele>520.8</ele><time>2026-04-05T10:42:32.889Z</time></trkpt><trkpt lat="42.98875994483492" lon="2.3054035149280705"><ele>519.2</ele><time>2026-04-05T10:42:33.889Z</time></trkpt><trkpt lat="42.98867425115571" lon="2.305377489120984"><ele>517.6</ele><time>2026-04-05T10:42:34.889Z</time></trkpt><trkpt lat="42.98855820013973" lon="2.30541010216337"><ele>516.0</ele><time>2026-04-05T10:42:35.889Z</time></trkpt><trkpt lat="42.98837740693521" lon="2.3054308871137903"><ele>514.0</ele><time>2026-04-05T10:42:36.889Z</time></trkpt><trkpt lat="42.988146314985194" lon="2.305440033785033"><ele>512.0</ele><time>2026-04-05T10:42:37.889Z</time></trkpt><trkpt lat="42.987947821234144" lon="2.3054712110210596"><ele>510.0</ele><time>2026-04-05T10:42:38.889Z</time></trkpt><trkpt lat="42.98779896597259" lon="2.3054823713504864"><ele>510.0</ele><time>2026-04-05T10:42:39.889Z</time></trkpt><trkpt lat="42.98769498809057" lon="2.305404510938531"><ele>510.0</ele><time>2026-04-05T10:42:40.889Z</time></trkpt><trkpt lat="42.98757168250833" lon="2.30533390231521"><ele>510.0</ele><time>2026-04-05T10:42:41.889Z</time></trkpt><trkpt lat="42.98744561644241" lon="2.3053057258234757"><ele>510.0</ele><time>2026-04-05T10:42:42.889Z</time></trkpt><trkpt lat="42.98737643141753" lon="2.305216004484509"><ele>507.75</ele><time>2026-04-05T10:42:43.889Z</time></trkpt><trkpt lat="42.987342519954545" lon="2.3050957054950225"><ele>505.5</ele><time>2026-04-05T10:42:44.889Z</time></trkpt><trkpt lat="42.987317110601545" lon="2.3049115020343707"><ele>503.25</ele><time>2026-04-05T10:42:45.889Z</time></trkpt><trkpt lat="42.987269726181594" lon="2.3046305288649034"><ele>501.0</ele><time>2026-04-05T10:42:46.89Z</time></trkpt><trkpt lat="42.987221461051945" lon="2.3043140299871023"><ele>498.66666666666663</ele><time>2026-04-05T10:42:47.89Z</time></trkpt><trkpt lat="42.987241932231456" lon="2.3040598832877492"><ele>496.3333333333333</ele><time>2026-04-05T10:42:48.89Z</time></trkpt><trkpt lat="42.98724490709258" lon="2.3038277914250793"><ele>494.0</ele><time>2026-04-05T10:42:49.89Z</time></trkpt><trkpt lat="42.987262891261864" lon="2.3036087002875587"><ele>492.49999999999994</ele><time>2026-04-05T10:42:50.89Z</time></trkpt><trkpt lat="42.98728555685896" lon="2.3034760794423925"><ele>491.0</ele><time>2026-04-05T10:42:51.89Z</time></trkpt><trkpt lat="42.987297217578245" lon="2.3033761711476677"><ele>489.5</ele><time>2026-04-05T10:42:52.89Z</time></trkpt><trkpt lat="42.98730000301694" lon="2.3032884714263964"><ele>488.0</ele><time>2026-04-05T10:42:53.89Z</time></trkpt><trkpt lat="42.98722201596352" lon="2.3031852106575084"><ele>486.49999999999994</ele><time>2026-04-05T10:42:55.89Z</time></trkpt><trkpt lat="42.98713846008667" lon="2.3032134154623165"><ele>485.0</ele><time>2026-04-05T10:42:57.89Z</time></trkpt><trkpt lat="42.987204583314615" lon="2.3031805929692157"><ele>483.6</ele><time>2026-04-05T10:43:04.89Z</time></trkpt><trkpt lat="42.987268466894754" lon="2.303078550487409"><ele>482.2</ele><time>2026-04-05T10:43:05.89Z</time></trkpt><trkpt lat="42.987367036464136" lon="2.3030352560981524"><ele>480.79999999999995</ele><time>2026-04-05T10:43:07.89Z</time></trkpt><trkpt lat="42.98741234303379" lon="2.302968136333984"><ele>479.4</ele><time>2026-04-05T10:43:09.89Z</time></trkpt><trkpt lat="42.98734961801793" lon="2.3028951252541665"><ele>478.0</ele><time>2026-04-05T10:43:12.89Z</time></trkpt><trkpt lat="42.98725014470977" lon="2.3028955105654685"><ele>478.0</ele><time>2026-04-05T10:43:14.89Z</time></trkpt><trkpt lat="42.98731909408975" lon="2.302804186073568"><ele>478.0</ele><time>2026-04-05T10:44:09.891Z</time></trkpt><trkpt lat="42.98723368503856" lon="2.302860549902456"><ele>478.0</ele><time>2026-04-05T10:44:26.886Z</time></trkpt><trkpt lat="42.98717237183489" lon="2.302902314094252"><ele>478.0</ele><time>2026-04-05T10:44:31.886Z</time></trkpt><trkpt lat="42.98736808191457" lon="2.302912737837811"><ele>478.0</ele><time>2026-04-05T10:44:39.885Z</time></trkpt><trkpt lat="42.98722389254731" lon="2.302846852161618"><ele>478.0</ele><time>2026-04-05T10:47:11.885Z</time></trkpt><trkpt lat="42.98728795917297" lon="2.30289801056698"><ele>478.0</ele><time>2026-04-05T10:47:18.885Z</time></trkpt></trkseg></trk></gpx>